<?xml version='1.0' encoding='UTF-8'?><gpx version="1.1" creator="JPX - https://github.com/jenetics/jpx" xmlns="http://www.topografix.com/GPX/1/1"><trk><trkseg><trkpt lat="40.62192242881385" lon="14.377116981952058"><ele>84.0</ele><time>2026-04-26T09:04:54Z</time></trkpt><trkpt lat="40.62188141136769" lon="14.377028032957906"><ele>84.0</ele><time>2026-04-26T09:04:56Z</time></trkpt><trkpt lat="40.62189889314858" lon="14.376936009011734"><ele>84.0</ele><time>2026-04-26T09:05:05Z</time></trkpt><trkpt lat="40.62186124929843" lon="14.377010018441831"><ele>84.0</ele><time>2026-04-26T09:05:13Z</time></trkpt><trkpt lat="40.62191496511205" lon="14.377073330336607"><ele>84.0</ele><time>2026-04-26T09:05:15Z</time></trkpt><trkpt lat="40.621961310138296" lon="14.377152760266485"><ele>84.0</ele><time>2026-04-26T09:05:17Z</time></trkpt><trkpt lat="40.622007627062594" lon="14.377250617265494"><ele>83.0</ele><time>2026-04-26T09:05:19Z</time></trkpt><trkpt lat="40.622061031098404" lon="14.37734231427041"><ele>82.0</ele><time>2026-04-26T09:05:21Z</time></trkpt><trkpt lat="40.62211963654962" lon="14.37744426896036"><ele>81.0</ele><time>2026-04-26T09:05:23Z</time></trkpt><trkpt lat="40.62217909379027" lon="14.377541390547602"><ele>80.0</ele><time>2026-04-26T09:05:25Z</time></trkpt><trkpt lat="40.62224672619683" lon="14.377665492930118"><ele>79.0</ele><time>2026-04-26T09:05:27Z</time></trkpt><trkpt lat="40.62228742464401" lon="14.377732541552563"><ele>79.0</ele><time>2026-04-26T09:05:28Z</time></trkpt><trkpt lat="40.62234808985382" lon="14.377862517608847"><ele>79.0</ele><time>2026-04-26T09:05:30Z</time></trkpt><trkpt lat="40.622388402916165" lon="14.37799540029197"><ele>79.0</ele><time>2026-04-26T09:05:32Z</time></trkpt><trkpt lat="40.62241319687867" lon="14.37812425262273"><ele>79.0</ele><time>2026-04-26T09:05:34Z</time></trkpt><trkpt lat="40.62241910597416" lon="14.37824810634598"><ele>79.0</ele><time>2026-04-26T09:05:36Z</time></trkpt><trkpt lat="40.62242616667564" lon="14.378365741309787"><ele>78.16666666666666</ele><time>2026-04-26T09:05:38Z</time></trkpt><trkpt lat="40.622432909315535" lon="14.378450331983291"><ele>77.33333333333333</ele><time>2026-04-26T09:05:40Z</time></trkpt><trkpt lat="40.6224343778332" lon="14.378545882510085"><ele>76.5</ele><time>2026-04-26T09:05:43Z</time></trkpt><trkpt lat="40.622438245628814" lon="14.378647168141914"><ele>75.66666666666667</ele><time>2026-04-26T09:05:46Z</time></trkpt><trkpt lat="40.622441479550744" lon="14.378741836986267"><ele>74.83333333333334</ele><time>2026-04-26T09:05:48Z</time></trkpt><trkpt lat="40.622433698749504" lon="14.378850166804579"><ele>74.0</ele><time>2026-04-26T09:05:50Z</time></trkpt><trkpt lat="40.62240029737997" lon="14.37895426555835"><ele>74.0</ele><time>2026-04-26T09:05:52Z</time></trkpt><trkpt lat="40.622315452463724" lon="14.379041526320611"><ele>74.0</ele><time>2026-04-26T09:05:54Z</time></trkpt><trkpt lat="40.62222696709184" lon="14.37915840022377"><ele>74.0</ele><time>2026-04-26T09:05:56Z</time></trkpt><trkpt lat="40.62217769645693" lon="14.37922395875817"><ele>74.0</ele><time>2026-04-26T09:05:57Z</time></trkpt><trkpt lat="40.622129850102716" lon="14.379287622755673"><ele>74.0</ele><time>2026-04-26T09:05:58Z</time></trkpt><trkpt lat="40.622092992765985" lon="14.379364995210045"><ele>74.0</ele><time>2026-04-26T09:05:59Z</time></trkpt><trkpt lat="40.62204506914444" lon="14.379425839072654"><ele>74.0</ele><time>2026-04-26T09:06:00Z</time></trkpt><trkpt lat="40.62199671964978" lon="14.379487352901043"><ele>74.0</ele><time>2026-04-26T09:06:01Z</time></trkpt><trkpt lat="40.62195364239964" lon="14.379553241404896"><ele>74.0</ele><time>2026-04-26T09:06:02Z</time></trkpt><trkpt lat="40.62191529737753" lon="14.379628576749408"><ele>74.0</ele><time>2026-04-26T09:06:03Z</time></trkpt><trkpt lat="40.62188196474029" lon="14.379706071341047"><ele>74.0</ele><time>2026-04-26T09:06:04Z</time></trkpt><trkpt lat="40.62185523584937" lon="14.379788073298657"><ele>74.0</ele><time>2026-04-26T09:06:05Z</time></trkpt><trkpt lat="40.62182977485129" lon="14.379868020844915"><ele>74.0</ele><time>2026-04-26T09:06:06Z</time></trkpt><trkpt lat="40.621796957809" lon="14.379944885940803"><ele>75.71428571428572</ele><time>2026-04-26T09:06:07Z</time></trkpt><trkpt lat="40.621746179559345" lon="14.379997816936966"><ele>77.42857142857143</ele><time>2026-04-26T09:06:08Z</time></trkpt><trkpt lat="40.621708550789194" lon="14.38006673689091"><ele>79.14285714285714</ele><time>2026-04-26T09:06:09Z</time></trkpt><trkpt lat="40.62167019506878" lon="14.380133175792428"><ele>80.85714285714286</ele><time>2026-04-26T09:06:10Z</time></trkpt><trkpt lat="40.62162819489809" lon="14.380197786988766"><ele>82.57142857142857</ele><time>2026-04-26T09:06:11Z</time></trkpt><trkpt lat="40.621591927497704" lon="14.380270392472656"><ele>84.28571428571429</ele><time>2026-04-26T09:06:12Z</time></trkpt><trkpt lat="40.62150265133984" lon="14.380378972044623"><ele>86.0</ele><time>2026-04-26T09:06:14Z</time></trkpt><trkpt lat="40.62140951050163" lon="14.380472539944343"><ele>86.8</ele><time>2026-04-26T09:06:16Z</time></trkpt><trkpt lat="40.62132623399931" lon="14.38054935899511"><ele>87.6</ele><time>2026-04-26T09:06:18Z</time></trkpt><trkpt lat="40.62134945061214" lon="14.38066928128195"><ele>88.4</ele><time>2026-04-26T09:06:19Z</time></trkpt><trkpt lat="40.621397427028334" lon="14.380799719585017"><ele>89.2</ele><time>2026-04-26T09:06:21Z</time></trkpt><trkpt lat="40.62147520981105" lon="14.38090763125921"><ele>90.0</ele><time>2026-04-26T09:06:23Z</time></trkpt><trkpt lat="40.62152831729264" lon="14.380954331745409"><ele>90.0</ele><time>2026-04-26T09:06:24Z</time></trkpt><trkpt lat="40.62163120602281" lon="14.38104697672653"><ele>90.0</ele><time>2026-04-26T09:06:26Z</time></trkpt><trkpt lat="40.62170748954057" lon="14.38116994959868"><ele>90.0</ele><time>2026-04-26T09:06:28Z</time></trkpt><trkpt lat="40.62177302218405" lon="14.381271554217083"><ele>90.0</ele><time>2026-04-26T09:06:30Z</time></trkpt><trkpt lat="40.62181736966675" lon="14.381387823389366"><ele>90.0</ele><time>2026-04-26T09:06:32Z</time></trkpt><trkpt lat="40.62176688293303" lon="14.381514564524506"><ele>90.6</ele><time>2026-04-26T09:06:34Z</time></trkpt><trkpt lat="40.621722630836686" lon="14.381624415010329"><ele>91.2</ele><time>2026-04-26T09:06:36Z</time></trkpt><trkpt lat="40.621736992900836" lon="14.38171829490993"><ele>91.80000000000001</ele><time>2026-04-26T09:06:39Z</time></trkpt><trkpt lat="40.62186040769367" lon="14.381772683198054"><ele>92.4</ele><time>2026-04-26T09:06:42Z</time></trkpt><trkpt lat="40.621984602041294" lon="14.381782639783225"><ele>93.0</ele><time>2026-04-26T09:06:44Z</time></trkpt><trkpt lat="40.622049485767484" lon="14.381807559689488"><ele>93.00000000000001</ele><time>2026-04-26T09:06:45Z</time></trkpt><trkpt lat="40.62212046314598" lon="14.381826962243062"><ele>93.0</ele><time>2026-04-26T09:06:46Z</time></trkpt><trkpt lat="40.62219130464216" lon="14.381842966354178"><ele>93.0</ele><time>2026-04-26T09:06:47Z</time></trkpt><trkpt lat="40.62226366290284" lon="14.381859728981265"><ele>93.0</ele><time>2026-04-26T09:06:48Z</time></trkpt><trkpt lat="40.62233189377805" lon="14.381877779330258"><ele>93.0</ele><time>2026-04-26T09:06:48.999Z</time></trkpt><trkpt lat="40.62239260785039" lon="14.381910336573268"><ele>93.00000000000001</ele><time>2026-04-26T09:06:49.999Z</time></trkpt><trkpt lat="40.6224476710864" lon="14.381962473377667"><ele>93.0</ele><time>2026-04-26T09:06:50.999Z</time></trkpt><trkpt lat="40.6224947419613" lon="14.382032161336125"><ele>93.0</ele><time>2026-04-26T09:06:51.999Z</time></trkpt><trkpt lat="40.62252460791159" lon="14.382118625813616"><ele>93.0</ele><time>2026-04-26T09:06:52.999Z</time></trkpt><trkpt lat="40.6225520009319" lon="14.382212291141718"><ele>93.0</ele><time>2026-04-26T09:06:53.999Z</time></trkpt><trkpt lat="40.62257974233127" lon="14.382306602279073"><ele>93.0</ele><time>2026-04-26T09:06:54.999Z</time></trkpt><trkpt lat="40.62261018272582" lon="14.382401667769772"><ele>93.0</ele><time>2026-04-26T09:06:55.999Z</time></trkpt><trkpt lat="40.6226463414378" lon="14.382496069874922"><ele>93.0</ele><time>2026-04-26T09:06:56.999Z</time></trkpt><trkpt lat="40.62268813185417" lon="14.382594657533536"><ele>93.5</ele><time>2026-04-26T09:06:57.999Z</time></trkpt><trkpt lat="40.62272866134895" lon="14.382700048114355"><ele>94.0</ele><time>2026-04-26T09:06:58.999Z</time></trkpt><trkpt lat="40.622770870236415" lon="14.38280080416904"><ele>94.5</ele><time>2026-04-26T09:06:59.999Z</time></trkpt><trkpt lat="40.62281320238826" lon="14.382895806586037"><ele>95.0</ele><time>2026-04-26T09:07:00.999Z</time></trkpt><trkpt lat="40.62285319487076" lon="14.38298496770868"><ele>95.5</ele><time>2026-04-26T09:07:01.999Z</time></trkpt><trkpt lat="40.62289399876872" lon="14.38306900497102"><ele>96.0</ele><time>2026-04-26T09:07:02.999Z</time></trkpt><trkpt lat="40.62293425680433" lon="14.38315265626228"><ele>95.0</ele><time>2026-04-26T09:07:03.999Z</time></trkpt><trkpt lat="40.622974629289544" lon="14.38323752738389"><ele>94.0</ele><time>2026-04-26T09:07:04.999Z</time></trkpt><trkpt lat="40.62300074648985" lon="14.38333312498212"><ele>93.0</ele><time>2026-04-26T09:07:05.999Z</time></trkpt><trkpt lat="40.62304048453417" lon="14.383422983174276"><ele>92.0</ele><time>2026-04-26T09:07:06.999Z</time></trkpt><trkpt lat="40.623089026565296" lon="14.383501218659823"><ele>91.0</ele><time>2026-04-26T09:07:07.999Z</time></trkpt><trkpt lat="40.62313054377589" lon="14.383578010809792"><ele>90.0</ele><time>2026-04-26T09:07:08.999Z</time></trkpt><trkpt lat="40.623177204822774" lon="14.383649698328496"><ele>90.0</ele><time>2026-04-26T09:07:09.999Z</time></trkpt><trkpt lat="40.62324556021547" lon="14.383676243740599"><ele>90.0</ele><time>2026-04-26T09:07:10.999Z</time></trkpt><trkpt lat="40.62331526653425" lon="14.383712745090866"><ele>90.0</ele><time>2026-04-26T09:07:11.999Z</time></trkpt><trkpt lat="40.62337938936471" lon="14.383765466691498"><ele>90.0</ele><time>2026-04-26T09:07:12.999Z</time></trkpt><trkpt lat="40.623450509416614" lon="14.383795450774542"><ele>90.0</ele><time>2026-04-26T09:07:13.999Z</time></trkpt><trkpt lat="40.62352362530846" lon="14.383813546227747"><ele>90.0</ele><time>2026-04-26T09:07:14.999Z</time></trkpt><trkpt lat="40.62360168040668" lon="14.383801316449306"><ele>88.85714285714285</ele><time>2026-04-26T09:07:15.999Z</time></trkpt><trkpt lat="40.6236708780532" lon="14.383780750546807"><ele>87.71428571428572</ele><time>2026-04-26T09:07:16.999Z</time></trkpt><trkpt lat="40.62373360682685" lon="14.383752806728012"><ele>86.57142857142857</ele><time>2026-04-26T09:07:17.999Z</time></trkpt><trkpt lat="40.623792625738716" lon="14.383723942161572"><ele>85.42857142857142</ele><time>2026-04-26T09:07:19Z</time></trkpt><trkpt lat="40.623857130733285" lon="14.383690331418423"><ele>84.28571428571428</ele><time>2026-04-26T09:07:20Z</time></trkpt><trkpt lat="40.623921117742235" lon="14.383656296757378"><ele>83.14285714285714</ele><time>2026-04-26T09:07:21Z</time></trkpt><trkpt lat="40.62398645612376" lon="14.383621290663646"><ele>82.0</ele><time>2026-04-26T09:07:22Z</time></trkpt><trkpt lat="40.624053027541095" lon="14.383587950434094"><ele>81.99999999999999</ele><time>2026-04-26T09:07:23Z</time></trkpt><trkpt lat="40.62411747699571" lon="14.383558643726627"><ele>82.0</ele><time>2026-04-26T09:07:24Z</time></trkpt><trkpt lat="40.624183651987785" lon="14.38354969182021"><ele>82.0</ele><time>2026-04-26T09:07:25Z</time></trkpt><trkpt lat="40.62425161878755" lon="14.383548222552331"><ele>82.0</ele><time>2026-04-26T09:07:26Z</time></trkpt><trkpt lat="40.62432265827444" lon="14.383520785976224"><ele>82.0</ele><time>2026-04-26T09:07:27Z</time></trkpt><trkpt lat="40.62439241706173" lon="14.383532470359473"><ele>81.99999999999999</ele><time>2026-04-26T09:07:28Z</time></trkpt><trkpt lat="40.6244644858408" lon="14.383542578266773"><ele>82.0</ele><time>2026-04-26T09:07:29Z</time></trkpt><trkpt lat="40.62453547356496" lon="14.383552891816587"><ele>81.14285714285714</ele><time>2026-04-26T09:07:30Z</time></trkpt><trkpt lat="40.62460562142825" lon="14.383584337758682"><ele>80.28571428571428</ele><time>2026-04-26T09:07:31Z</time></trkpt><trkpt lat="40.6246767107336" lon="14.383590603886178"><ele>79.42857142857142</ele><time>2026-04-26T09:07:32Z</time></trkpt><trkpt lat="40.62474966589525" lon="14.383574265580918"><ele>78.57142857142857</ele><time>2026-04-26T09:07:33Z</time></trkpt><trkpt lat="40.62482167148149" lon="14.383586638985209"><ele>77.71428571428572</ele><time>2026-04-26T09:07:34Z</time></trkpt><trkpt lat="40.62489273190502" lon="14.383587355395688"><ele>76.85714285714285</ele><time>2026-04-26T09:07:35Z</time></trkpt><trkpt lat="40.62496032399365" lon="14.383584923754222"><ele>76.0</ele><time>2026-04-26T09:07:36Z</time></trkpt><trkpt lat="40.625027519261174" lon="14.383580174801649"><ele>76.0</ele><time>2026-04-26T09:07:37Z</time></trkpt><trkpt lat="40.625097661944714" lon="14.383584034259737"><ele>76.0</ele><time>2026-04-26T09:07:38Z</time></trkpt><trkpt lat="40.625165681251005" lon="14.383582894862666"><ele>76.0</ele><time>2026-04-26T09:07:39Z</time></trkpt><trkpt lat="40.62523172225278" lon="14.38358020269306"><ele>76.0</ele><time>2026-04-26T09:07:40Z</time></trkpt><trkpt lat="40.6252992013881" lon="14.38357963549077"><ele>76.0</ele><time>2026-04-26T09:07:41Z</time></trkpt><trkpt lat="40.62536388870106" lon="14.383580226407917"><ele>76.0</ele><time>2026-04-26T09:07:42Z</time></trkpt><trkpt lat="40.62547867895757" lon="14.383580555063563"><ele>75.66666666666666</ele><time>2026-04-26T09:07:44Z</time></trkpt><trkpt lat="40.62557039299936" lon="14.383580464618946"><ele>75.33333333333333</ele><time>2026-04-26T09:07:46Z</time></trkpt><trkpt lat="40.625643772555485" lon="14.383589209355577"><ele>75.0</ele><time>2026-04-26T09:07:48Z</time></trkpt><trkpt lat="40.62571639059703" lon="14.383597329876736"><ele>74.66666666666667</ele><time>2026-04-26T09:07:50Z</time></trkpt><trkpt lat="40.625790530119616" lon="14.38360019122752"><ele>74.33333333333334</ele><time>2026-04-26T09:07:52Z</time></trkpt><trkpt lat="40.62587239175352" lon="14.383579799026283"><ele>74.0</ele><time>2026-04-26T09:08:05Z</time></trkpt><trkpt lat="40.62595457805184" lon="14.383579065675125"><ele>74.0</ele><time>2026-04-26T09:08:07Z</time></trkpt><trkpt lat="40.62605664670346" lon="14.38358938161073"><ele>74.0</ele><time>2026-04-26T09:08:09Z</time></trkpt><trkpt lat="40.62614587346641" lon="14.38359104646222"><ele>74.0</ele><time>2026-04-26T09:08:11Z</time></trkpt><trkpt lat="40.626236689074496" lon="14.383571099781369"><ele>74.0</ele><time>2026-04-26T09:08:13Z</time></trkpt><trkpt lat="40.62633900118791" lon="14.38361698348589"><ele>74.0</ele><time>2026-04-26T09:08:15Z</time></trkpt><trkpt lat="40.626443857064416" lon="14.38359799384755"><ele>73.66666666666667</ele><time>2026-04-26T09:08:17Z</time></trkpt><trkpt lat="40.626544024305595" lon="14.383563162947658"><ele>73.33333333333334</ele><time>2026-04-26T09:08:19Z</time></trkpt><trkpt lat="40.62663945654108" lon="14.38354654357004"><ele>73.0</ele><time>2026-04-26T09:08:21Z</time></trkpt><trkpt lat="40.626711747266036" lon="14.383530313945"><ele>72.66666666666667</ele><time>2026-04-26T09:08:23Z</time></trkpt><trkpt lat="40.62677784302156" lon="14.383521629573881"><ele>72.33333333333333</ele><time>2026-04-26T09:08:25Z</time></trkpt><trkpt lat="40.62684882021729" lon="14.383491090854175"><ele>72.0</ele><time>2026-04-26T09:08:28Z</time></trkpt><trkpt lat="40.626908468185356" lon="14.383455114841487"><ele>72.0</ele><time>2026-04-26T09:08:39Z</time></trkpt><trkpt lat="40.62697057706413" lon="14.383435210394678"><ele>72.0</ele><time>2026-04-26T09:08:41Z</time></trkpt><trkpt lat="40.62703205236322" lon="14.383481872444241"><ele>72.0</ele><time>2026-04-26T09:08:44Z</time></trkpt><trkpt lat="40.627102222684826" lon="14.383614607892383"><ele>72.0</ele><time>2026-04-26T09:08:51Z</time></trkpt><trkpt lat="40.627125950790386" lon="14.383699031029158"><ele>72.0</ele><time>2026-04-26T09:09:00.999Z</time></trkpt><trkpt lat="40.6271455497653" lon="14.38379249771177"><ele>72.0</ele><time>2026-04-26T09:09:02.999Z</time></trkpt><trkpt lat="40.62718128123412" lon="14.383877064258831"><ele>71.5</ele><time>2026-04-26T09:09:04.999Z</time></trkpt><trkpt lat="40.62720432242598" lon="14.383978401323631"><ele>71.0</ele><time>2026-04-26T09:09:06.999Z</time></trkpt><trkpt lat="40.627236427969414" lon="14.384106712839303"><ele>70.5</ele><time>2026-04-26T09:09:08.999Z</time></trkpt><trkpt lat="40.62727923498807" lon="14.384241621232757"><ele>70.0</ele><time>2026-04-26T09:09:10.999Z</time></trkpt><trkpt lat="40.62730574728614" lon="14.384316860448015"><ele>69.5</ele><time>2026-04-26T09:09:11.999Z</time></trkpt><trkpt lat="40.6273294500334" lon="14.38439748047733"><ele>69.0</ele><time>2026-04-26T09:09:12.999Z</time></trkpt><trkpt lat="40.62735714311482" lon="14.384478226058143"><ele>69.0</ele><time>2026-04-26T09:09:13.999Z</time></trkpt><trkpt lat="40.627374811983806" lon="14.384563845221638"><ele>69.0</ele><time>2026-04-26T09:09:14.999Z</time></trkpt><trkpt lat="40.6274217484193" lon="14.38470335587855"><ele>69.0</ele><time>2026-04-26T09:09:16.999Z</time></trkpt><trkpt lat="40.62743970868437" lon="14.384815434803757"><ele>69.0</ele><time>2026-04-26T09:09:18.999Z</time></trkpt><trkpt lat="40.6274389722418" lon="14.38492410272206"><ele>69.0</ele><time>2026-04-26T09:09:21.999Z</time></trkpt><trkpt lat="40.627464811387775" lon="14.385013675352358"><ele>69.0</ele><time>2026-04-26T09:09:32Z</time></trkpt><trkpt lat="40.62757373659194" lon="14.385006471229277"><ele>69.2</ele><time>2026-04-26T09:11:41.028Z</time></trkpt><trkpt lat="40.62764059435638" lon="14.385054755518254"><ele>69.4</ele><time>2026-04-26T09:11:45Z</time></trkpt><trkpt lat="40.62773353568626" lon="14.385048773829041"><ele>69.6</ele><time>2026-04-26T09:13:23.001Z</time></trkpt><trkpt lat="40.627734584612135" lon="14.385155502713488"><ele>69.8</ele><time>2026-04-26T09:13:51.001Z</time></trkpt><trkpt lat="40.62758088846698" lon="14.385266659262067"><ele>70.0</ele><time>2026-04-26T09:13:53.001Z</time></trkpt><trkpt lat="40.627613002494584" lon="14.385372497215293"><ele>70.0</ele><time>2026-04-26T09:13:55.001Z</time></trkpt><trkpt lat="40.6276429444972" lon="14.385471469639883"><ele>70.0</ele><time>2026-04-26T09:13:56.001Z</time></trkpt><trkpt lat="40.62767241964387" lon="14.385570089210447"><ele>70.0</ele><time>2026-04-26T09:13:57.001Z</time></trkpt><trkpt lat="40.62770175018894" lon="14.385668224965734"><ele>70.0</ele><time>2026-04-26T09:13:58.001Z</time></trkpt><trkpt lat="40.62773126643286" lon="14.385766982312978"><ele>70.0</ele><time>2026-04-26T09:13:59.001Z</time></trkpt><trkpt lat="40.62775836173088" lon="14.385858675568679"><ele>70.0</ele><time>2026-04-26T09:14:00.001Z</time></trkpt><trkpt lat="40.627785137975735" lon="14.385949851979639"><ele>70.0</ele><time>2026-04-26T09:14:01.001Z</time></trkpt><trkpt lat="40.62796601846193" lon="14.385968350314034"><ele>70.0</ele><time>2026-04-26T09:14:02.001Z</time></trkpt><trkpt lat="40.627980336424365" lon="14.386070997164078"><ele>70.0</ele><time>2026-04-26T09:14:03.001Z</time></trkpt><trkpt lat="40.62799263559512" lon="14.386169251554087"><ele>70.0</ele><time>2026-04-26T09:14:04.001Z</time></trkpt><trkpt lat="40.6280179488322" lon="14.38626647559029"><ele>70.0</ele><time>2026-04-26T09:14:05.001Z</time></trkpt><trkpt lat="40.6280338680352" lon="14.38636796125859"><ele>70.5</ele><time>2026-04-26T09:14:06.001Z</time></trkpt><trkpt lat="40.62805249216843" lon="14.386472123543864"><ele>71.0</ele><time>2026-04-26T09:14:07.001Z</time></trkpt><trkpt lat="40.62807004047605" lon="14.38657483667741"><ele>71.5</ele><time>2026-04-26T09:14:08.001Z</time></trkpt><trkpt lat="40.62801485225174" lon="14.386716978569364"><ele>72.0</ele><time>2026-04-26T09:14:09.001Z</time></trkpt><trkpt lat="40.62804515139183" lon="14.386814542652834"><ele>72.5</ele><time>2026-04-26T09:14:10.001Z</time></trkpt><trkpt lat="40.62807455672933" lon="14.386907075047652"><ele>73.0</ele><time>2026-04-26T09:14:11.001Z</time></trkpt><trkpt lat="40.62810466338897" lon="14.387001814373447"><ele>73.0</ele><time>2026-04-26T09:14:12.001Z</time></trkpt><trkpt lat="40.62813396704618" lon="14.387092157162776"><ele>73.0</ele><time>2026-04-26T09:14:13.001Z</time></trkpt><trkpt lat="40.6281623118285" lon="14.387179346210775"><ele>73.0</ele><time>2026-04-26T09:14:14.001Z</time></trkpt><trkpt lat="40.62819188542252" lon="14.387268964821338"><ele>73.0</ele><time>2026-04-26T09:14:15.001Z</time></trkpt><trkpt lat="40.62822092442625" lon="14.387353351070441"><ele>73.0</ele><time>2026-04-26T09:14:16.001Z</time></trkpt><trkpt lat="40.62824903292264" lon="14.387435033242907"><ele>73.0</ele><time>2026-04-26T09:14:17.001Z</time></trkpt><trkpt lat="40.62827774623695" lon="14.387518472996579"><ele>73.0</ele><time>2026-04-26T09:14:18.001Z</time></trkpt><trkpt lat="40.62830743932273" lon="14.38760476033688"><ele>73.14285714285714</ele><time>2026-04-26T09:14:19.001Z</time></trkpt><trkpt lat="40.62833757870557" lon="14.387690854714794"><ele>73.28571428571429</ele><time>2026-04-26T09:14:20.001Z</time></trkpt><trkpt lat="40.62836803605691" lon="14.3877780457727"><ele>73.42857142857143</ele><time>2026-04-26T09:14:21.001Z</time></trkpt><trkpt lat="40.628397309307275" lon="14.387861847010033"><ele>73.57142857142857</ele><time>2026-04-26T09:14:22.001Z</time></trkpt><trkpt lat="40.62842546721428" lon="14.387943033420788"><ele>73.71428571428571</ele><time>2026-04-26T09:14:23.001Z</time></trkpt><trkpt lat="40.628452919694205" lon="14.388022326989756"><ele>73.85714285714286</ele><time>2026-04-26T09:14:24.001Z</time></trkpt><trkpt lat="40.62848892783483" lon="14.388095437440573"><ele>74.0</ele><time>2026-04-26T09:14:25.001Z</time></trkpt><trkpt lat="40.62851432971904" lon="14.388173670294064"><ele>73.8</ele><time>2026-04-26T09:14:26.001Z</time></trkpt><trkpt lat="40.62855984816457" lon="14.388287354876915"><ele>73.60000000000001</ele><time>2026-04-26T09:14:28.001Z</time></trkpt><trkpt lat="40.62860137168356" lon="14.388407050004675"><ele>73.4</ele><time>2026-04-26T09:14:30.001Z</time></trkpt><trkpt lat="40.62865348218798" lon="14.388571455120283"><ele>73.2</ele><time>2026-04-26T09:14:32.001Z</time></trkpt><trkpt lat="40.62868899220852" lon="14.388657066273574"><ele>73.0</ele><time>2026-04-26T09:14:33.001Z</time></trkpt><trkpt lat="40.62869971163395" lon="14.388744807720173"><ele>73.8</ele><time>2026-04-26T09:14:34.001Z</time></trkpt><trkpt lat="40.628745024015345" lon="14.38887863773237"><ele>74.6</ele><time>2026-04-26T09:14:36.001Z</time></trkpt><trkpt lat="40.62879214224124" lon="14.388973512745114"><ele>75.4</ele><time>2026-04-26T09:14:38.001Z</time></trkpt><trkpt lat="40.62883793998849" lon="14.389057906452335"><ele>76.2</ele><time>2026-04-26T09:14:40.001Z</time></trkpt><trkpt lat="40.62889468329914" lon="14.389146561080569"><ele>77.0</ele><time>2026-04-26T09:14:42.001Z</time></trkpt><trkpt lat="40.62893974719327" lon="14.389255035593264"><ele>77.0</ele><time>2026-04-26T09:14:44.001Z</time></trkpt><trkpt lat="40.6289861626535" lon="14.38934181974464"><ele>77.0</ele><time>2026-04-26T09:14:46.001Z</time></trkpt><trkpt lat="40.62903534455199" lon="14.389397704949637"><ele>77.0</ele><time>2026-04-26T09:14:48.001Z</time></trkpt><trkpt lat="40.62906685730031" lon="14.389491617595981"><ele>77.0</ele><time>2026-04-26T09:15:23.001Z</time></trkpt><trkpt lat="40.629113750110875" lon="14.389578331775"><ele>77.0</ele><time>2026-04-26T09:15:26.001Z</time></trkpt><trkpt lat="40.62916676088061" lon="14.389647642189834"><ele>77.0</ele><time>2026-04-26T09:15:29.001Z</time></trkpt><trkpt lat="40.629200756906094" lon="14.389724140742063"><ele>77.0</ele><time>2026-04-26T09:15:32.001Z</time></trkpt><trkpt lat="40.62923523412662" lon="14.3898029800504"><ele>77.5</ele><time>2026-04-26T09:15:49.001Z</time></trkpt><trkpt lat="40.62927348481506" lon="14.389873713212953"><ele>78.0</ele><time>2026-04-26T09:15:56.001Z</time></trkpt><trkpt lat="40.62932167629136" lon="14.389980244993396"><ele>78.5</ele><time>2026-04-26T09:15:59.001Z</time></trkpt><trkpt lat="40.629345651175825" lon="14.39005954766415"><ele>79.0</ele><time>2026-04-26T09:16:01.001Z</time></trkpt><trkpt lat="40.62936498954971" lon="14.39015584908658"><ele>79.5</ele><time>2026-04-26T09:16:04.001Z</time></trkpt><trkpt lat="40.62937711171635" lon="14.390265089781554"><ele>80.0</ele><time>2026-04-26T09:16:08.001Z</time></trkpt><trkpt lat="40.62937704072516" lon="14.390362626596776"><ele>80.0</ele><time>2026-04-26T09:16:12.001Z</time></trkpt><trkpt lat="40.6293725813671" lon="14.39045989941163"><ele>80.0</ele><time>2026-04-26T09:16:15.001Z</time></trkpt><trkpt lat="40.62936694140921" lon="14.390571272227692"><ele>80.0</ele><time>2026-04-26T09:16:18.001Z</time></trkpt><trkpt lat="40.629358711869784" lon="14.390692440502866"><ele>80.0</ele><time>2026-04-26T09:16:21.001Z</time></trkpt><trkpt lat="40.62935162329699" lon="14.39079681143882"><ele>80.0</ele><time>2026-04-26T09:16:23.001Z</time></trkpt><trkpt lat="40.629344836345325" lon="14.390896742245857"><ele>80.0</ele><time>2026-04-26T09:16:25.001Z</time></trkpt><trkpt lat="40.62933667908089" lon="14.390992175269892"><ele>80.14285714285714</ele><time>2026-04-26T09:16:27.001Z</time></trkpt><trkpt lat="40.62932987454963" lon="14.3911000635175"><ele>80.28571428571429</ele><time>2026-04-26T09:16:30.001Z</time></trkpt><trkpt lat="40.62932557451047" lon="14.391192647132328"><ele>80.42857142857143</ele><time>2026-04-26T09:16:33.001Z</time></trkpt><trkpt lat="40.62932183693117" lon="14.391284936597353"><ele>80.57142857142857</ele><time>2026-04-26T09:16:35.001Z</time></trkpt><trkpt lat="40.6293186480099" lon="14.391373144396553"><ele>80.71428571428571</ele><time>2026-04-26T09:16:37.001Z</time></trkpt><trkpt lat="40.62931553313307" lon="14.391459304140467"><ele>80.85714285714286</ele><time>2026-04-26T09:16:39.001Z</time></trkpt><trkpt lat="40.62931225317688" lon="14.391548780076615"><ele>81.0</ele><time>2026-04-26T09:16:41.001Z</time></trkpt><trkpt lat="40.62930977214046" lon="14.391643228637927"><ele>81.0</ele><time>2026-04-26T09:16:43.001Z</time></trkpt><trkpt lat="40.62930805789698" lon="14.391743206561017"><ele>81.0</ele><time>2026-04-26T09:16:45.001Z</time></trkpt><trkpt lat="40.62930043156075" lon="14.391838938282039"><ele>81.0</ele><time>2026-04-26T09:16:47.001Z</time></trkpt><trkpt lat="40.62931344304916" lon="14.391957905685913"><ele>81.0</ele><time>2026-04-26T09:16:49.001Z</time></trkpt><trkpt lat="40.62929232425832" lon="14.392069910283212"><ele>81.0</ele><time>2026-04-26T09:16:51.001Z</time></trkpt><trkpt lat="40.6292997055572" lon="14.39218422217228"><ele>81.0</ele><time>2026-04-26T09:16:54.001Z</time></trkpt><trkpt lat="40.62930028805745" lon="14.392275818097596"><ele>81.0</ele><time>2026-04-26T09:16:56.001Z</time></trkpt><trkpt lat="40.62929644188763" lon="14.392379190981709"><ele>81.0</ele><time>2026-04-26T09:16:58.001Z</time></trkpt><trkpt lat="40.62929314089975" lon="14.392466264116697"><ele>81.0</ele><time>2026-04-26T09:17:00.001Z</time></trkpt><trkpt lat="40.62929172386" lon="14.392561794839223"><ele>81.0</ele><time>2026-04-26T09:17:02.001Z</time></trkpt><trkpt lat="40.62928807208291" lon="14.392674730825663"><ele>81.0</ele><time>2026-04-26T09:17:05.001Z</time></trkpt><trkpt lat="40.62928326290729" lon="14.392766894956223"><ele>81.0</ele><time>2026-04-26T09:17:08.001Z</time></trkpt><trkpt lat="40.629281911582844" lon="14.392862832417334"><ele>81.0</ele><time>2026-04-26T09:17:11.001Z</time></trkpt><trkpt lat="40.62928144569194" lon="14.39297544154303"><ele>80.33333333333333</ele><time>2026-04-26T09:17:14.001Z</time></trkpt><trkpt lat="40.62928244279735" lon="14.393095909215734"><ele>79.66666666666667</ele><time>2026-04-26T09:17:17.001Z</time></trkpt><trkpt lat="40.62927384053896" lon="14.393212511265322"><ele>79.0</ele><time>2026-04-26T09:17:20Z</time></trkpt><trkpt lat="40.629292779355346" lon="14.3932959366976"><ele>78.33333333333334</ele><time>2026-04-26T09:17:22Z</time></trkpt><trkpt lat="40.629336291582206" lon="14.393381718224893"><ele>77.66666666666667</ele><time>2026-04-26T09:17:25Z</time></trkpt><trkpt lat="40.62935246570247" lon="14.393484039953936"><ele>77.0</ele><time>2026-04-26T09:17:28Z</time></trkpt><trkpt lat="40.62934789629449" lon="14.393587212180428"><ele>77.0</ele><time>2026-04-26T09:17:31Z</time></trkpt><trkpt lat="40.62937699661435" lon="14.393676791737034"><ele>77.0</ele><time>2026-04-26T09:17:35Z</time></trkpt><trkpt lat="40.629392062315844" lon="14.393778900610625"><ele>77.0</ele><time>2026-04-26T09:17:39Z</time></trkpt><trkpt lat="40.62940906474788" lon="14.393894685102524"><ele>77.0</ele><time>2026-04-26T09:17:42Z</time></trkpt><trkpt lat="40.62942893922202" lon="14.393985257908856"><ele>77.0</ele><time>2026-04-26T09:17:45Z</time></trkpt><trkpt lat="40.62945061226189" lon="14.394092520300498"><ele>77.0</ele><time>2026-04-26T09:17:49Z</time></trkpt><trkpt lat="40.62946995935648" lon="14.394173384979496"><ele>76.14285714285714</ele><time>2026-04-26T09:17:52Z</time></trkpt><trkpt lat="40.62949229077516" lon="14.394264512114606"><ele>75.28571428571428</ele><time>2026-04-26T09:17:56Z</time></trkpt><trkpt lat="40.62950870381044" lon="14.394360956288775"><ele>74.42857142857143</ele><time>2026-04-26T09:18:00Z</time></trkpt><trkpt lat="40.629525630323045" lon="14.394450831265114"><ele>73.57142857142857</ele><time>2026-04-26T09:18:04Z</time></trkpt><trkpt lat="40.62952826642124" lon="14.394533858789801"><ele>72.71428571428571</ele><time>2026-04-26T09:18:17Z</time></trkpt><trkpt lat="40.62954981088934" lon="14.39462230320158"><ele>71.85714285714286</ele><time>2026-04-26T09:18:20Z</time></trkpt><trkpt lat="40.62956862425721" lon="14.394707498949767"><ele>71.0</ele><time>2026-04-26T09:18:22Z</time></trkpt><trkpt lat="40.62958412323442" lon="14.394801740106121"><ele>70.83333333333334</ele><time>2026-04-26T09:18:24Z</time></trkpt><trkpt lat="40.62960109727769" lon="14.394918413271725"><ele>70.66666666666667</ele><time>2026-04-26T09:18:27Z</time></trkpt><trkpt lat="40.62962058783908" lon="14.395037596671061"><ele>70.5</ele><time>2026-04-26T09:18:30.001Z</time></trkpt><trkpt lat="40.62963908944168" lon="14.39513843913686"><ele>70.33333333333333</ele><time>2026-04-26T09:18:32.001Z</time></trkpt><trkpt lat="40.629656781825425" lon="14.39524768872387"><ele>70.16666666666666</ele><time>2026-04-26T09:18:34.001Z</time></trkpt><trkpt lat="40.62968837703422" lon="14.395346856615042"><ele>70.0</ele><time>2026-04-26T09:18:36.001Z</time></trkpt><trkpt lat="40.62971868092505" lon="14.395452501912617"><ele>70.4</ele><time>2026-04-26T09:18:38.001Z</time></trkpt><trkpt lat="40.62974496791917" lon="14.395570784625512"><ele>70.8</ele><time>2026-04-26T09:18:40.001Z</time></trkpt><trkpt lat="40.6297677610015" lon="14.395697111074282"><ele>71.2</ele><time>2026-04-26T09:18:42.001Z</time></trkpt><trkpt lat="40.62979211987402" lon="14.395808702164343"><ele>71.6</ele><time>2026-04-26T09:18:44.001Z</time></trkpt><trkpt lat="40.62982245007833" lon="14.39590843311334"><ele>72.0</ele><time>2026-04-26T09:18:46.001Z</time></trkpt><trkpt lat="40.62986716614656" lon="14.396013108879789"><ele>72.0</ele><time>2026-04-26T09:18:48.001Z</time></trkpt><trkpt lat="40.62990561086285" lon="14.396115527262081"><ele>72.0</ele><time>2026-04-26T09:18:50.001Z</time></trkpt><trkpt lat="40.62993220999327" lon="14.396227673947195"><ele>72.0</ele><time>2026-04-26T09:18:52.001Z</time></trkpt><trkpt lat="40.62996120534748" lon="14.396337877788238"><ele>72.0</ele><time>2026-04-26T09:18:54.001Z</time></trkpt><trkpt lat="40.63000354227279" lon="14.396459233583187"><ele>72.0</ele><time>2026-04-26T09:18:56.001Z</time></trkpt><trkpt lat="40.630020718369515" lon="14.396587581956009"><ele>72.0</ele><time>2026-04-26T09:18:58.001Z</time></trkpt><trkpt lat="40.63004758878655" lon="14.396708580591435"><ele>72.0</ele><time>2026-04-26T09:19:00.001Z</time></trkpt><trkpt lat="40.63004346013852" lon="14.396807786628322"><ele>72.0</ele><time>2026-04-26T09:19:02.001Z</time></trkpt><trkpt lat="40.630060303151716" lon="14.39688839687967"><ele>72.0</ele><time>2026-04-26T09:19:06.001Z</time></trkpt><trkpt lat="40.63007643142188" lon="14.396985342265399"><ele>72.0</ele><time>2026-04-26T09:19:09.001Z</time></trkpt><trkpt lat="40.6300853440681" lon="14.39708803848649"><ele>72.0</ele><time>2026-04-26T09:19:12.001Z</time></trkpt><trkpt lat="40.63008622670022" lon="14.397201606449311"><ele>72.0</ele><time>2026-04-26T09:19:15.001Z</time></trkpt><trkpt lat="40.630108862724654" lon="14.397279265932047"><ele>72.0</ele><time>2026-04-26T09:19:17.001Z</time></trkpt><trkpt lat="40.63011703561878" lon="14.39737165407573"><ele>72.0</ele><time>2026-04-26T09:19:19.001Z</time></trkpt><trkpt lat="40.63012442697435" lon="14.397479670967368"><ele>72.0</ele><time>2026-04-26T09:19:21.001Z</time></trkpt><trkpt lat="40.63013188096652" lon="14.397592317886854"><ele>72.0</ele><time>2026-04-26T09:19:23.001Z</time></trkpt><trkpt lat="40.63014107686522" lon="14.397709715519056"><ele>72.0</ele><time>2026-04-26T09:19:25Z</time></trkpt><trkpt lat="40.630146908444665" lon="14.397832753619936"><ele>72.0</ele><time>2026-04-26T09:19:27Z</time></trkpt><trkpt lat="40.63014910758104" lon="14.397954303161582"><ele>72.0</ele><time>2026-04-26T09:19:29Z</time></trkpt><trkpt lat="40.63016377926331" lon="14.398077043398544"><ele>72.0</ele><time>2026-04-26T09:19:31Z</time></trkpt><trkpt lat="40.630186552096475" lon="14.398185828419797"><ele>72.0</ele><time>2026-04-26T09:19:33Z</time></trkpt><trkpt lat="40.630185725826884" lon="14.398293365631153"><ele>72.0</ele><time>2026-04-26T09:19:35Z</time></trkpt><trkpt lat="40.630200010447616" lon="14.398388897587045"><ele>72.0</ele><time>2026-04-26T09:19:38Z</time></trkpt><trkpt lat="40.63022756982566" lon="14.398495568565968"><ele>72.0</ele><time>2026-04-26T09:19:44Z</time></trkpt><trkpt lat="40.63024487009923" lon="14.398607513574758"><ele>72.0</ele><time>2026-04-26T09:19:46Z</time></trkpt><trkpt lat="40.63025866112774" lon="14.398717085201495"><ele>72.0</ele><time>2026-04-26T09:19:48Z</time></trkpt><trkpt lat="40.63027152925945" lon="14.398820725901098"><ele>72.0</ele><time>2026-04-26T09:19:51Z</time></trkpt><trkpt lat="40.630296339919184" lon="14.39893549113969"><ele>72.0</ele><time>2026-04-26T09:19:54Z</time></trkpt><trkpt lat="40.63031716262818" lon="14.399053587730597"><ele>72.0</ele><time>2026-04-26T09:19:57Z</time></trkpt><trkpt lat="40.63032458667705" lon="14.399154690131807"><ele>71.83333333333333</ele><time>2026-04-26T09:20:00Z</time></trkpt><trkpt lat="40.630325975328596" lon="14.399245362056254"><ele>71.66666666666667</ele><time>2026-04-26T09:20:02Z</time></trkpt><trkpt lat="40.630319348726104" lon="14.399333344581779"><ele>71.5</ele><time>2026-04-26T09:20:05Z</time></trkpt><trkpt lat="40.63029479673862" lon="14.39941201124295"><ele>71.33333333333334</ele><time>2026-04-26T09:20:11Z</time></trkpt><trkpt lat="40.630254956097374" lon="14.399524773448963"><ele>71.16666666666667</ele><time>2026-04-26T09:20:13Z</time></trkpt><trkpt lat="40.63020206404119" lon="14.399633566247541"><ele>71.0</ele><time>2026-04-26T09:20:15Z</time></trkpt><trkpt lat="40.63015273684209" lon="14.399743147551042"><ele>71.83333333333334</ele><time>2026-04-26T09:20:17Z</time></trkpt><trkpt lat="40.63010847629865" lon="14.39986434539821"><ele>72.66666666666667</ele><time>2026-04-26T09:20:19Z</time></trkpt><trkpt lat="40.63007197136405" lon="14.399984374979892"><ele>73.5</ele><time>2026-04-26T09:20:21Z</time></trkpt><trkpt lat="40.63004701031027" lon="14.400096085626949"><ele>74.33333333333333</ele><time>2026-04-26T09:20:23Z</time></trkpt><trkpt lat="40.63002702959139" lon="14.40019554085418"><ele>75.16666666666666</ele><time>2026-04-26T09:20:25Z</time></trkpt><trkpt lat="40.6300066820162" lon="14.400284007777966"><ele>76.0</ele><time>2026-04-26T09:20:27Z</time></trkpt><trkpt lat="40.62999493605456" lon="14.400380801857626"><ele>76.0</ele><time>2026-04-26T09:20:29Z</time></trkpt><trkpt lat="40.62998350796764" lon="14.400475378821005"><ele>76.0</ele><time>2026-04-26T09:20:31Z</time></trkpt><trkpt lat="40.629970121721726" lon="14.40056432900001"><ele>76.0</ele><time>2026-04-26T09:20:33Z</time></trkpt><trkpt lat="40.629964736314975" lon="14.400660942158252"><ele>76.0</ele><time>2026-04-26T09:20:35Z</time></trkpt><trkpt lat="40.62995610494365" lon="14.40075613652499"><ele>76.0</ele><time>2026-04-26T09:20:37Z</time></trkpt><trkpt lat="40.629941153563614" lon="14.400851478965748"><ele>76.0</ele><time>2026-04-26T09:20:39Z</time></trkpt><trkpt lat="40.62993718710515" lon="14.400947157977534"><ele>76.0</ele><time>2026-04-26T09:20:41Z</time></trkpt><trkpt lat="40.629938769061155" lon="14.401043614455332"><ele>76.0</ele><time>2026-04-26T09:20:43Z</time></trkpt><trkpt lat="40.62994717424124" lon="14.401133632088671"><ele>76.0</ele><time>2026-04-26T09:20:47Z</time></trkpt><trkpt lat="40.62996900287836" lon="14.401259173026167"><ele>76.0</ele><time>2026-04-26T09:20:51Z</time></trkpt><trkpt lat="40.63000828934214" lon="14.401376796983303"><ele>76.0</ele><time>2026-04-26T09:20:53Z</time></trkpt><trkpt lat="40.63003469001132" lon="14.40149694986418"><ele>76.0</ele><time>2026-04-26T09:20:55Z</time></trkpt><trkpt lat="40.630064076412545" lon="14.401618904852361"><ele>77.19999999999999</ele><time>2026-04-26T09:20:57Z</time></trkpt><trkpt lat="40.63009990235079" lon="14.401732959108735"><ele>78.39999999999999</ele><time>2026-04-26T09:20:59Z</time></trkpt><trkpt lat="40.63012652014335" lon="14.401854789958366"><ele>79.6</ele><time>2026-04-26T09:21:01Z</time></trkpt><trkpt lat="40.63016351863149" lon="14.401979457204794"><ele>80.8</ele><time>2026-04-26T09:21:03Z</time></trkpt><trkpt lat="40.63019771759657" lon="14.402110114425758"><ele>82.0</ele><time>2026-04-26T09:21:05Z</time></trkpt><trkpt lat="40.63022785024828" lon="14.402238775087133"><ele>82.19999999999999</ele><time>2026-04-26T09:21:07Z</time></trkpt><trkpt lat="40.630264210437275" lon="14.402380326902557"><ele>82.4</ele><time>2026-04-26T09:21:09.001Z</time></trkpt><trkpt lat="40.6302991912452" lon="14.402520899921562"><ele>82.6</ele><time>2026-04-26T09:21:11.001Z</time></trkpt><trkpt lat="40.63032973386714" lon="14.402652656415096"><ele>82.80000000000001</ele><time>2026-04-26T09:21:13.001Z</time></trkpt><trkpt lat="40.630347344531074" lon="14.402792967562295"><ele>83.0</ele><time>2026-04-26T09:21:15.001Z</time></trkpt><trkpt lat="40.63038510470871" lon="14.402936390378388"><ele>82.60000000000001</ele><time>2026-04-26T09:21:17.001Z</time></trkpt><trkpt lat="40.63041190432583" lon="14.4030970017622"><ele>82.2</ele><time>2026-04-26T09:21:19.001Z</time></trkpt><trkpt lat="40.630424771485536" lon="14.403179444103625"><ele>81.8</ele><time>2026-04-26T09:21:20.001Z</time></trkpt><trkpt lat="40.63045125507189" lon="14.40333953872222"><ele>81.4</ele><time>2026-04-26T09:21:22.001Z</time></trkpt><trkpt lat="40.63046965036045" lon="14.403429765387827"><ele>81.0</ele><time>2026-04-26T09:21:23.001Z</time></trkpt><trkpt lat="40.6304889427051" lon="14.403526063480824"><ele>81.0</ele><time>2026-04-26T09:21:24.001Z</time></trkpt><trkpt lat="40.63050737083308" lon="14.403620137716846"><ele>81.0</ele><time>2026-04-26T09:21:25.001Z</time></trkpt><trkpt lat="40.63052072462024" lon="14.403717517387093"><ele>81.0</ele><time>2026-04-26T09:21:26.001Z</time></trkpt><trkpt lat="40.630535865787714" lon="14.403814863853219"><ele>81.0</ele><time>2026-04-26T09:21:27.001Z</time></trkpt><trkpt lat="40.63054986311567" lon="14.40391155924985"><ele>81.0</ele><time>2026-04-26T09:21:28.001Z</time></trkpt><trkpt lat="40.63056178062961" lon="14.404005495181393"><ele>81.0</ele><time>2026-04-26T09:21:29.001Z</time></trkpt><trkpt lat="40.630575030163484" lon="14.404098995660693"><ele>81.0</ele><time>2026-04-26T09:21:30Z</time></trkpt><trkpt lat="40.630588908279876" lon="14.404196185946844"><ele>81.33333333333333</ele><time>2026-04-26T09:21:31Z</time></trkpt><trkpt lat="40.63060135126229" lon="14.404296576519059"><ele>81.66666666666667</ele><time>2026-04-26T09:21:32Z</time></trkpt><trkpt lat="40.63061575436278" lon="14.404398759335129"><ele>82.0</ele><time>2026-04-26T09:21:33Z</time></trkpt><trkpt lat="40.630631086465996" lon="14.404503852708629"><ele>82.33333333333334</ele><time>2026-04-26T09:21:34Z</time></trkpt><trkpt lat="40.63064667404706" lon="14.404611814191057"><ele>82.66666666666667</ele><time>2026-04-26T09:21:35Z</time></trkpt><trkpt lat="40.63065712707297" lon="14.404716585444666"><ele>83.0</ele><time>2026-04-26T09:21:36Z</time></trkpt><trkpt lat="40.63067052411316" lon="14.404820617026697"><ele>83.28571428571428</ele><time>2026-04-26T09:21:37Z</time></trkpt><trkpt lat="40.6306831456091" lon="14.404922935491877"><ele>83.57142857142858</ele><time>2026-04-26T09:21:38Z</time></trkpt><trkpt lat="40.6306951442247" lon="14.4050235558909"><ele>83.85714285714286</ele><time>2026-04-26T09:21:39Z</time></trkpt><trkpt lat="40.63070879279334" lon="14.405119974039414"><ele>84.14285714285714</ele><time>2026-04-26T09:21:40Z</time></trkpt><trkpt lat="40.63072067352639" lon="14.405215720818976"><ele>84.42857142857142</ele><time>2026-04-26T09:21:41Z</time></trkpt><trkpt lat="40.63073199840445" lon="14.405307149445187"><ele>84.71428571428572</ele><time>2026-04-26T09:21:42Z</time></trkpt><trkpt lat="40.63074313422425" lon="14.405400964640288"><ele>85.0</ele><time>2026-04-26T09:21:43Z</time></trkpt><trkpt lat="40.63075380758329" lon="14.405491172387455"><ele>85.57142857142857</ele><time>2026-04-26T09:21:44Z</time></trkpt><trkpt lat="40.630760469998215" lon="14.405582270686569"><ele>86.14285714285714</ele><time>2026-04-26T09:21:45Z</time></trkpt><trkpt lat="40.63076941467319" lon="14.405671121664398"><ele>86.71428571428571</ele><time>2026-04-26T09:21:46Z</time></trkpt><trkpt lat="40.63077647551078" lon="14.405757169486957"><ele>87.28571428571428</ele><time>2026-04-26T09:21:47Z</time></trkpt><trkpt lat="40.63078628026181" lon="14.405843424717586"><ele>87.85714285714286</ele><time>2026-04-26T09:21:48Z</time></trkpt><trkpt lat="40.63079547434246" lon="14.405928018978347"><ele>88.42857142857142</ele><time>2026-04-26T09:21:49Z</time></trkpt><trkpt lat="40.63079846867151" lon="14.406012988206184"><ele>89.0</ele><time>2026-04-26T09:21:50Z</time></trkpt><trkpt lat="40.630809294868264" lon="14.406171572118602"><ele>89.0</ele><time>2026-04-26T09:21:52Z</time></trkpt><trkpt lat="40.63081898353039" lon="14.406304542631132"><ele>89.0</ele><time>2026-04-26T09:21:54Z</time></trkpt><trkpt lat="40.630827839021" lon="14.40643445376224"><ele>89.0</ele><time>2026-04-26T09:21:56Z</time></trkpt><trkpt lat="40.63084131101609" lon="14.406563691685793"><ele>89.0</ele><time>2026-04-26T09:21:58Z</time></trkpt><trkpt lat="40.630854338194744" lon="14.406664455134162"><ele>89.0</ele><time>2026-04-26T09:22:00Z</time></trkpt><trkpt lat="40.63086075166634" lon="14.406756055497974"><ele>89.0</ele><time>2026-04-26T09:22:03Z</time></trkpt><trkpt lat="40.63087488296553" lon="14.40687567167839"><ele>89.4</ele><time>2026-04-26T09:22:10Z</time></trkpt><trkpt lat="40.63086989702102" lon="14.406994109410267"><ele>89.80000000000001</ele><time>2026-04-26T09:22:12Z</time></trkpt><trkpt lat="40.630816202301304" lon="14.407106670193322"><ele>90.19999999999999</ele><time>2026-04-26T09:22:14Z</time></trkpt><trkpt lat="40.63071219014737" lon="14.407193998796298"><ele>90.6</ele><time>2026-04-26T09:22:16Z</time></trkpt><trkpt lat="40.63065805080186" lon="14.407248360182468"><ele>91.0</ele><time>2026-04-26T09:22:17Z</time></trkpt><trkpt lat="40.63060209987457" lon="14.407303770889829"><ele>91.0</ele><time>2026-04-26T09:22:18Z</time></trkpt><trkpt lat="40.63055126360069" lon="14.40737530006766"><ele>91.0</ele><time>2026-04-26T09:22:19Z</time></trkpt><trkpt lat="40.63049046881968" lon="14.407432374438976"><ele>91.0</ele><time>2026-04-26T09:22:20Z</time></trkpt><trkpt lat="40.6304164485204" lon="14.407469906518825"><ele>91.0</ele><time>2026-04-26T09:22:21Z</time></trkpt><trkpt lat="40.63034503722416" lon="14.407527235942661"><ele>91.0</ele><time>2026-04-26T09:22:22Z</time></trkpt><trkpt lat="40.630205760672546" lon="14.40766528531404"><ele>92.0</ele><time>2026-04-26T09:22:24Z</time></trkpt><trkpt lat="40.63014170263857" lon="14.407743167332137"><ele>93.0</ele><time>2026-04-26T09:22:25Z</time></trkpt><trkpt lat="40.630072890224255" lon="14.407823009056173"><ele>94.0</ele><time>2026-04-26T09:22:26Z</time></trkpt><trkpt lat="40.630034815148576" lon="14.40792618769312"><ele>95.0</ele><time>2026-04-26T09:22:27Z</time></trkpt><trkpt lat="40.62997872139984" lon="14.40799532759754"><ele>96.0</ele><time>2026-04-26T09:22:28Z</time></trkpt><trkpt lat="40.629914503319426" lon="14.408136744222595"><ele>96.19999999999999</ele><time>2026-04-26T09:22:30Z</time></trkpt><trkpt lat="40.629868951683584" lon="14.40822079025384"><ele>96.39999999999999</ele><time>2026-04-26T09:22:31Z</time></trkpt><trkpt lat="40.62981833974536" lon="14.408318487240994"><ele>96.6</ele><time>2026-04-26T09:22:32Z</time></trkpt><trkpt lat="40.62975191110857" lon="14.408416838753457"><ele>96.8</ele><time>2026-04-26T09:22:33Z</time></trkpt><trkpt lat="40.62968535065316" lon="14.408532208158956"><ele>97.0</ele><time>2026-04-26T09:22:34Z</time></trkpt><trkpt lat="40.6296131488895" lon="14.408650081702989"><ele>97.0</ele><time>2026-04-26T09:22:35Z</time></trkpt><trkpt lat="40.629543739419226" lon="14.408766588669167"><ele>97.0</ele><time>2026-04-26T09:22:36Z</time></trkpt><trkpt lat="40.62947840601159" lon="14.408879458945004"><ele>97.0</ele><time>2026-04-26T09:22:37Z</time></trkpt><trkpt lat="40.62941681695408" lon="14.40898698911021"><ele>97.0</ele><time>2026-04-26T09:22:38Z</time></trkpt><trkpt lat="40.62936973479854" lon="14.40908937535695"><ele>97.0</ele><time>2026-04-26T09:22:39Z</time></trkpt><trkpt lat="40.62934078199944" lon="14.409199343032677"><ele>98.33333333333334</ele><time>2026-04-26T09:22:40Z</time></trkpt><trkpt lat="40.629332467512" lon="14.409305015190231"><ele>99.66666666666667</ele><time>2026-04-26T09:22:41Z</time></trkpt><trkpt lat="40.6293431422896" lon="14.409405112278446"><ele>101.0</ele><time>2026-04-26T09:22:42Z</time></trkpt><trkpt lat="40.62936176059862" lon="14.40950684086013"><ele>102.33333333333334</ele><time>2026-04-26T09:22:43Z</time></trkpt><trkpt lat="40.6293861294588" lon="14.409613443840804"><ele>103.66666666666667</ele><time>2026-04-26T09:22:44Z</time></trkpt><trkpt lat="40.629406299066154" lon="14.409722772687585"><ele>105.0</ele><time>2026-04-26T09:22:45Z</time></trkpt><trkpt lat="40.629406827169056" lon="14.409843357396376"><ele>105.8</ele><time>2026-04-26T09:22:46Z</time></trkpt><trkpt lat="40.6293891175332" lon="14.40995914308556"><ele>106.6</ele><time>2026-04-26T09:22:47Z</time></trkpt><trkpt lat="40.62934721662081" lon="14.41007148109695"><ele>107.4</ele><time>2026-04-26T09:22:48Z</time></trkpt><trkpt lat="40.62928976732693" lon="14.410168457256239"><ele>108.2</ele><time>2026-04-26T09:22:49Z</time></trkpt><trkpt lat="40.629220497098224" lon="14.41026414876468"><ele>109.0</ele><time>2026-04-26T09:22:50Z</time></trkpt><trkpt lat="40.62916335461932" lon="14.410369863519959"><ele>109.00000000000001</ele><time>2026-04-26T09:22:51Z</time></trkpt><trkpt lat="40.62911221152507" lon="14.410462572438465"><ele>109.0</ele><time>2026-04-26T09:22:52Z</time></trkpt><trkpt lat="40.62907379983421" lon="14.410553459391938"><ele>109.0</ele><time>2026-04-26T09:22:53Z</time></trkpt><trkpt lat="40.62904269503068" lon="14.410641797212959"><ele>109.0</ele><time>2026-04-26T09:22:54Z</time></trkpt><trkpt lat="40.62901267174538" lon="14.410721732382019"><ele>109.00000000000001</ele><time>2026-04-26T09:22:55Z</time></trkpt><trkpt lat="40.62898210362571" lon="14.41079776243413"><ele>109.0</ele><time>2026-04-26T09:22:56Z</time></trkpt><trkpt lat="40.62893434962175" lon="14.410939248184523"><ele>109.6</ele><time>2026-04-26T09:22:58Z</time></trkpt><trkpt lat="40.628893824746115" lon="14.411066705913786"><ele>110.2</ele><time>2026-04-26T09:23:00.001Z</time></trkpt><trkpt lat="40.62885640941803" lon="14.411179853596456"><ele>110.79999999999998</ele><time>2026-04-26T09:23:02.001Z</time></trkpt><trkpt lat="40.628829512558596" lon="14.411285409726018"><ele>111.39999999999999</ele><time>2026-04-26T09:23:04.001Z</time></trkpt><trkpt lat="40.62879186210512" lon="14.411396487599546"><ele>112.0</ele><time>2026-04-26T09:23:06.001Z</time></trkpt><trkpt lat="40.628752164671766" lon="14.411505007310693"><ele>113.0</ele><time>2026-04-26T09:23:08.001Z</time></trkpt><trkpt lat="40.628729428625064" lon="14.411628005018184"><ele>113.99999999999999</ele><time>2026-04-26T09:23:10.001Z</time></trkpt><trkpt lat="40.62872202366402" lon="14.411765273386735"><ele>114.99999999999999</ele><time>2026-04-26T09:23:12.001Z</time></trkpt><trkpt lat="40.62869558006893" lon="14.411862152444392"><ele>116.0</ele><time>2026-04-26T09:23:14.001Z</time></trkpt><trkpt lat="40.628730227335396" lon="14.411982120345352"><ele>117.0</ele><time>2026-04-26T09:23:44Z</time></trkpt><trkpt lat="40.62874661141547" lon="14.412136536058174"><ele>117.16666666666667</ele><time>2026-04-26T09:23:46Z</time></trkpt><trkpt lat="40.628748743969986" lon="14.412221080597588"><ele>117.33333333333334</ele><time>2026-04-26T09:23:47Z</time></trkpt><trkpt lat="40.62874909621354" lon="14.412306736181721"><ele>117.5</ele><time>2026-04-26T09:23:48Z</time></trkpt><trkpt lat="40.628744839516" lon="14.41239611382028"><ele>117.66666666666667</ele><time>2026-04-26T09:23:49Z</time></trkpt><trkpt lat="40.628723562604286" lon="14.412482046448178"><ele>117.83333333333334</ele><time>2026-04-26T09:23:50Z</time></trkpt><trkpt lat="40.62869034202392" lon="14.412560930469738"><ele>118.0</ele><time>2026-04-26T09:23:51Z</time></trkpt><trkpt lat="40.62862399091721" lon="14.412697341165783"><ele>119.16666666666667</ele><time>2026-04-26T09:23:53Z</time></trkpt><trkpt lat="40.62856674593049" lon="14.412752345942407"><ele>120.33333333333334</ele><time>2026-04-26T09:23:54Z</time></trkpt><trkpt lat="40.62852616116305" lon="14.412835802611157"><ele>121.5</ele><time>2026-04-26T09:23:55Z</time></trkpt><trkpt lat="40.62846953210679" lon="14.412907562807767"><ele>122.66666666666666</ele><time>2026-04-26T09:23:56Z</time></trkpt><trkpt lat="40.62841175101612" lon="14.412988297353483"><ele>123.83333333333333</ele><time>2026-04-26T09:23:57Z</time></trkpt><trkpt lat="40.628349985815866" lon="14.413069849129485"><ele>125.0</ele><time>2026-04-26T09:23:58Z</time></trkpt><trkpt lat="40.62827757940028" lon="14.413149766579805"><ele>125.0</ele><time>2026-04-26T09:23:59Z</time></trkpt><trkpt lat="40.62820844184956" lon="14.41323494492257"><ele>125.0</ele><time>2026-04-26T09:24:00Z</time></trkpt><trkpt lat="40.62814084373966" lon="14.413324578778672"><ele>125.0</ele><time>2026-04-26T09:24:01Z</time></trkpt><trkpt lat="40.628069718442816" lon="14.413411275973765"><ele>125.0</ele><time>2026-04-26T09:24:02Z</time></trkpt><trkpt lat="40.627985157929224" lon="14.41347599973411"><ele>125.0</ele><time>2026-04-26T09:24:03Z</time></trkpt><trkpt lat="40.62788594581717" lon="14.413514174188935"><ele>126.6</ele><time>2026-04-26T09:24:04Z</time></trkpt><trkpt lat="40.62778646693883" lon="14.413534776917224"><ele>128.2</ele><time>2026-04-26T09:24:05Z</time></trkpt><trkpt lat="40.62769124720443" lon="14.413568066913435"><ele>129.8</ele><time>2026-04-26T09:24:06Z</time></trkpt><trkpt lat="40.627604228360454" lon="14.413634534915882"><ele>131.4</ele><time>2026-04-26T09:24:07Z</time></trkpt><trkpt lat="40.62753097262351" lon="14.413724349039576"><ele>133.0</ele><time>2026-04-26T09:24:08Z</time></trkpt><trkpt lat="40.62747093932893" lon="14.413827012311968"><ele>133.4</ele><time>2026-04-26T09:24:09Z</time></trkpt><trkpt lat="40.627427351100195" lon="14.413946597209906"><ele>133.8</ele><time>2026-04-26T09:24:10Z</time></trkpt><trkpt lat="40.62738468338776" lon="14.414074522357678"><ele>134.2</ele><time>2026-04-26T09:24:11Z</time></trkpt><trkpt lat="40.6273218319501" lon="14.414191276154963"><ele>134.6</ele><time>2026-04-26T09:24:12Z</time></trkpt><trkpt lat="40.62723915044698" lon="14.414285875707252"><ele>135.0</ele><time>2026-04-26T09:24:13Z</time></trkpt><trkpt lat="40.62715650129949" lon="14.41437700936906"><ele>135.0</ele><time>2026-04-26T09:24:14Z</time></trkpt><trkpt lat="40.62707426044687" lon="14.41446641680423"><ele>135.0</ele><time>2026-04-26T09:24:15Z</time></trkpt><trkpt lat="40.62699530787909" lon="14.414556735005622"><ele>135.0</ele><time>2026-04-26T09:24:16Z</time></trkpt><trkpt lat="40.626919007359405" lon="14.414648878645178"><ele>135.0</ele><time>2026-04-26T09:24:17Z</time></trkpt><trkpt lat="40.62684586344275" lon="14.414736034226706"><ele>135.0</ele><time>2026-04-26T09:24:18Z</time></trkpt><trkpt lat="40.62676383588814" lon="14.414809575210828"><ele>137.6</ele><time>2026-04-26T09:24:19Z</time></trkpt><trkpt lat="40.62666880791127" lon="14.414864268715695"><ele>140.2</ele><time>2026-04-26T09:24:20Z</time></trkpt><trkpt lat="40.626568374895335" lon="14.414910044056466"><ele>142.8</ele><time>2026-04-26T09:24:21Z</time></trkpt><trkpt lat="40.62646269650939" lon="14.414969503993962"><ele>145.4</ele><time>2026-04-26T09:24:22Z</time></trkpt><trkpt lat="40.62635815765685" lon="14.41504048718062"><ele>148.0</ele><time>2026-04-26T09:24:23Z</time></trkpt><trkpt lat="40.626256427003625" lon="14.415111867447424"><ele>148.0</ele><time>2026-04-26T09:24:24Z</time></trkpt><trkpt lat="40.62616060949824" lon="14.4151884648619"><ele>148.0</ele><time>2026-04-26T09:24:25Z</time></trkpt><trkpt lat="40.62607969685786" lon="14.415286327047195"><ele>148.0</ele><time>2026-04-26T09:24:26Z</time></trkpt><trkpt lat="40.62602068577016" lon="14.415404508837725"><ele>148.0</ele><time>2026-04-26T09:24:27Z</time></trkpt><trkpt lat="40.62598383230601" lon="14.415540366677435"><ele>148.0</ele><time>2026-04-26T09:24:28Z</time></trkpt><trkpt lat="40.62595973478575" lon="14.415684669175043"><ele>150.25</ele><time>2026-04-26T09:24:29Z</time></trkpt><trkpt lat="40.62592403862284" lon="14.41583390617562"><ele>152.5</ele><time>2026-04-26T09:24:30Z</time></trkpt><trkpt lat="40.6258821978506" lon="14.415984448089906"><ele>154.75</ele><time>2026-04-26T09:24:31Z</time></trkpt><trkpt lat="40.6258496126946" lon="14.416138067689547"><ele>157.0</ele><time>2026-04-26T09:24:32Z</time></trkpt><trkpt lat="40.62582099722477" lon="14.416292607567435"><ele>158.25</ele><time>2026-04-26T09:24:33Z</time></trkpt><trkpt lat="40.6257882373662" lon="14.416441586036504"><ele>159.5</ele><time>2026-04-26T09:24:34Z</time></trkpt><trkpt lat="40.62576473518488" lon="14.41659296415821"><ele>160.75</ele><time>2026-04-26T09:24:35Z</time></trkpt><trkpt lat="40.62574141197205" lon="14.416740801893217"><ele>162.0</ele><time>2026-04-26T09:24:36Z</time></trkpt><trkpt lat="40.625716749102736" lon="14.41688575575131"><ele>162.0</ele><time>2026-04-26T09:24:37Z</time></trkpt><trkpt lat="40.62569202517234" lon="14.417022635075949"><ele>162.0</ele><time>2026-04-26T09:24:38Z</time></trkpt><trkpt lat="40.62565000439946" lon="14.417151914177149"><ele>162.0</ele><time>2026-04-26T09:24:39Z</time></trkpt><trkpt lat="40.625632350049514" lon="14.417290023825784"><ele>162.0</ele><time>2026-04-26T09:24:40Z</time></trkpt><trkpt lat="40.6255697681952" lon="14.417410695495358"><ele>162.0</ele><time>2026-04-26T09:24:41Z</time></trkpt><trkpt lat="40.62553307726955" lon="14.41754592792883"><ele>162.5</ele><time>2026-04-26T09:24:42Z</time></trkpt><trkpt lat="40.625488225812724" lon="14.417679938696741"><ele>163.0</ele><time>2026-04-26T09:24:43Z</time></trkpt><trkpt lat="40.62545339314107" lon="14.417818526376735"><ele>163.5</ele><time>2026-04-26T09:24:44Z</time></trkpt><trkpt lat="40.62541373543307" lon="14.417959510755885"><ele>164.0</ele><time>2026-04-26T09:24:45Z</time></trkpt><trkpt lat="40.62537118520672" lon="14.418099484014645"><ele>164.0</ele><time>2026-04-26T09:24:46Z</time></trkpt><trkpt lat="40.625334081042986" lon="14.4182393237823"><ele>164.0</ele><time>2026-04-26T09:24:47Z</time></trkpt><trkpt lat="40.62529724090143" lon="14.418375934510152"><ele>164.0</ele><time>2026-04-26T09:24:48Z</time></trkpt><trkpt lat="40.625260985494016" lon="14.418505067488573"><ele>164.0</ele><time>2026-04-26T09:24:49Z</time></trkpt><trkpt lat="40.62522608952266" lon="14.418623232002957"><ele>164.0</ele><time>2026-04-26T09:24:50Z</time></trkpt><trkpt lat="40.62518621007977" lon="14.418728417606243"><ele>166.0</ele><time>2026-04-26T09:24:51Z</time></trkpt><trkpt lat="40.62513997323074" lon="14.418821597752535"><ele>168.0</ele><time>2026-04-26T09:24:52Z</time></trkpt><trkpt lat="40.62508814545052" lon="14.418899789094244"><ele>170.0</ele><time>2026-04-26T09:24:53Z</time></trkpt><trkpt lat="40.62503039607109" lon="14.418956486427698"><ele>172.0</ele><time>2026-04-26T09:24:54Z</time></trkpt><trkpt lat="40.62495181116666" lon="14.418994841364052"><ele>174.0</ele><time>2026-04-26T09:24:55Z</time></trkpt><trkpt lat="40.62486106901046" lon="14.419031126636565"><ele>176.0</ele><time>2026-04-26T09:24:56Z</time></trkpt><trkpt lat="40.62476660819094" lon="14.419061321621466"><ele>176.0</ele><time>2026-04-26T09:24:57Z</time></trkpt><trkpt lat="40.62468101743649" lon="14.419085195198825"><ele>176.0</ele><time>2026-04-26T09:24:58Z</time></trkpt><trkpt lat="40.62459349321121" lon="14.41910150357335"><ele>176.0</ele><time>2026-04-26T09:24:59Z</time></trkpt><trkpt lat="40.6245020022726" lon="14.419120491658383"><ele>176.0</ele><time>2026-04-26T09:25:00Z</time></trkpt><trkpt lat="40.624406127903804" lon="14.41916964422268"><ele>176.0</ele><time>2026-04-26T09:25:01Z</time></trkpt><trkpt lat="40.624326306124594" lon="14.419245413093865"><ele>178.4</ele><time>2026-04-26T09:25:02Z</time></trkpt><trkpt lat="40.62426006818686" lon="14.4193499251218"><ele>180.8</ele><time>2026-04-26T09:25:03Z</time></trkpt><trkpt lat="40.624210479505635" lon="14.41947487904956"><ele>183.20000000000002</ele><time>2026-04-26T09:25:04Z</time></trkpt><trkpt lat="40.62416351577583" lon="14.419590543168928"><ele>185.60000000000002</ele><time>2026-04-26T09:25:05Z</time></trkpt><trkpt lat="40.62410822986085" lon="14.419708182480441"><ele>188.0</ele><time>2026-04-26T09:25:06Z</time></trkpt><trkpt lat="40.62404487864162" lon="14.41981432026593"><ele>188.60000000000002</ele><time>2026-04-26T09:25:07Z</time></trkpt><trkpt lat="40.623972516957174" lon="14.419907656059252"><ele>189.20000000000002</ele><time>2026-04-26T09:25:08Z</time></trkpt><trkpt lat="40.62389203649287" lon="14.41999117286168"><ele>189.8</ele><time>2026-04-26T09:25:09Z</time></trkpt><trkpt lat="40.623799111699064" lon="14.420054169434634"><ele>190.4</ele><time>2026-04-26T09:25:10Z</time></trkpt><trkpt lat="40.623698786487786" lon="14.420107647644413"><ele>191.0</ele><time>2026-04-26T09:25:11.001Z</time></trkpt><trkpt lat="40.623606458972176" lon="14.4201601154386"><ele>193.0</ele><time>2026-04-26T09:25:12.001Z</time></trkpt><trkpt lat="40.623526047493336" lon="14.420211720869517"><ele>195.0</ele><time>2026-04-26T09:25:13.001Z</time></trkpt><trkpt lat="40.623452591993" lon="14.420256299808674"><ele>197.0</ele><time>2026-04-26T09:25:14.001Z</time></trkpt><trkpt lat="40.62336786835561" lon="14.420302425773942"><ele>199.0</ele><time>2026-04-26T09:25:15.001Z</time></trkpt><trkpt lat="40.62327591142816" lon="14.42036044016491"><ele>201.0</ele><time>2026-04-26T09:25:16.001Z</time></trkpt><trkpt lat="40.62318527480673" lon="14.420442021763328"><ele>201.5</ele><time>2026-04-26T09:25:17.001Z</time></trkpt><trkpt lat="40.62308978477317" lon="14.420523034202137"><ele>202.0</ele><time>2026-04-26T09:25:18.001Z</time></trkpt><trkpt lat="40.62298656097302" lon="14.42059865725017"><ele>202.5</ele><time>2026-04-26T09:25:19.001Z</time></trkpt><trkpt lat="40.62288008240534" lon="14.42066901208611"><ele>203.0</ele><time>2026-04-26T09:25:20.001Z</time></trkpt><trkpt lat="40.62276924007708" lon="14.420730267143478"><ele>206.0</ele><time>2026-04-26T09:25:21.001Z</time></trkpt><trkpt lat="40.62265552239398" lon="14.420783770347796"><ele>209.0</ele><time>2026-04-26T09:25:22.001Z</time></trkpt><trkpt lat="40.622540061413" lon="14.420824430977225"><ele>212.0</ele><time>2026-04-26T09:25:23.001Z</time></trkpt><trkpt lat="40.622430100705955" lon="14.420863176447693"><ele>215.0</ele><time>2026-04-26T09:25:24.001Z</time></trkpt><trkpt lat="40.62232234514101" lon="14.420890478265143"><ele>215.0</ele><time>2026-04-26T09:25:25.001Z</time></trkpt><trkpt lat="40.62221757342584" lon="14.42090160920534"><ele>215.0</ele><time>2026-04-26T09:25:26.001Z</time></trkpt><trkpt lat="40.622119081480335" lon="14.420917524955964"><ele>215.0</ele><time>2026-04-26T09:25:27.001Z</time></trkpt><trkpt lat="40.62202595521361" lon="14.42095364669516"><ele>215.0</ele><time>2026-04-26T09:25:28.001Z</time></trkpt><trkpt lat="40.62194236152251" lon="14.421000909476504"><ele>215.0</ele><time>2026-04-26T09:25:29.001Z</time></trkpt><trkpt lat="40.62187421161378" lon="14.42108486798686"><ele>218.8</ele><time>2026-04-26T09:25:30.001Z</time></trkpt><trkpt lat="40.621816308252185" lon="14.421198956637639"><ele>222.6</ele><time>2026-04-26T09:25:31.001Z</time></trkpt><trkpt lat="40.621768364721355" lon="14.421315537719563"><ele>226.39999999999998</ele><time>2026-04-26T09:25:32.001Z</time></trkpt><trkpt lat="40.62171871964307" lon="14.42142138596264"><ele>230.2</ele><time>2026-04-26T09:25:33.001Z</time></trkpt><trkpt lat="40.62166806743838" lon="14.421521903364825"><ele>234.0</ele><time>2026-04-26T09:25:34.001Z</time></trkpt><trkpt lat="40.62162014036744" lon="14.421630356241456"><ele>234.0</ele><time>2026-04-26T09:25:35.001Z</time></trkpt><trkpt lat="40.621567462957216" lon="14.421732187000764"><ele>233.99999999999997</ele><time>2026-04-26T09:25:36.001Z</time></trkpt><trkpt lat="40.62151355160727" lon="14.421849029382265"><ele>233.99999999999997</ele><time>2026-04-26T09:25:37.001Z</time></trkpt><trkpt lat="40.62146460489664" lon="14.421960526892102"><ele>234.0</ele><time>2026-04-26T09:25:38.001Z</time></trkpt><trkpt lat="40.62142020074244" lon="14.422070525920045"><ele>234.0</ele><time>2026-04-26T09:25:39.001Z</time></trkpt><trkpt lat="40.62139208341075" lon="14.42217496893141"><ele>232.83333333333334</ele><time>2026-04-26T09:25:40.001Z</time></trkpt><trkpt lat="40.621372821786416" lon="14.422267109041368"><ele>231.66666666666669</ele><time>2026-04-26T09:25:41.001Z</time></trkpt><trkpt lat="40.62135592680549" lon="14.422350545513709"><ele>230.5</ele><time>2026-04-26T09:25:42Z</time></trkpt><trkpt lat="40.62135906469357" lon="14.422436901957642"><ele>229.33333333333334</ele><time>2026-04-26T09:25:43Z</time></trkpt><trkpt lat="40.62136579258668" lon="14.42253248856653"><ele>228.16666666666669</ele><time>2026-04-26T09:25:44Z</time></trkpt><trkpt lat="40.621433056218706" lon="14.422700233542239"><ele>227.0</ele><time>2026-04-26T09:25:47Z</time></trkpt><trkpt lat="40.62149785942964" lon="14.422741005793112"><ele>227.00000000000003</ele><time>2026-04-26T09:25:51Z</time></trkpt><trkpt lat="40.621572064882145" lon="14.4227280969178"><ele>227.0</ele><time>2026-04-26T09:25:57Z</time></trkpt><trkpt lat="40.62160726414856" lon="14.42260119541369"><ele>227.0</ele><time>2026-04-26T09:25:59Z</time></trkpt><trkpt lat="40.62159036755042" lon="14.422507437363492"><ele>227.0</ele><time>2026-04-26T09:26:00Z</time></trkpt><trkpt lat="40.62157991463552" lon="14.422415988939209"><ele>227.00000000000003</ele><time>2026-04-26T09:26:01Z</time></trkpt><trkpt lat="40.62156859893951" lon="14.422322311860803"><ele>227.0</ele><time>2026-04-26T09:26:02Z</time></trkpt><trkpt lat="40.621558217054705" lon="14.422232225569232"><ele>228.16666666666669</ele><time>2026-04-26T09:26:03Z</time></trkpt><trkpt lat="40.62156211203308" lon="14.42213089362198"><ele>229.33333333333334</ele><time>2026-04-26T09:26:04Z</time></trkpt><trkpt lat="40.62157369804395" lon="14.422019180264705"><ele>230.5</ele><time>2026-04-26T09:26:05Z</time></trkpt><trkpt lat="40.621581360661615" lon="14.421904500299833"><ele>231.66666666666669</ele><time>2026-04-26T09:26:06Z</time></trkpt><trkpt lat="40.62159552939959" lon="14.421791524286071"><ele>232.83333333333334</ele><time>2026-04-26T09:26:07Z</time></trkpt><trkpt lat="40.62160736828458" lon="14.421694015935772"><ele>234.0</ele><time>2026-04-26T09:26:08Z</time></trkpt><trkpt lat="40.62161889524336" lon="14.421605507023946"><ele>234.0</ele><time>2026-04-26T09:26:09Z</time></trkpt><trkpt lat="40.62163476262871" lon="14.421518837021058"><ele>234.00000000000003</ele><time>2026-04-26T09:26:10Z</time></trkpt><trkpt lat="40.62164801628835" lon="14.421430861058436"><ele>234.0</ele><time>2026-04-26T09:26:11Z</time></trkpt><trkpt lat="40.621662675440945" lon="14.421343530050263"><ele>234.0</ele><time>2026-04-26T09:26:12Z</time></trkpt><trkpt lat="40.62167526965903" lon="14.42125229461693"><ele>234.00000000000003</ele><time>2026-04-26T09:26:13Z</time></trkpt><trkpt lat="40.621686374277296" lon="14.421150755088902"><ele>234.0</ele><time>2026-04-26T09:26:14Z</time></trkpt><trkpt lat="40.62170307129793" lon="14.421040004736769"><ele>234.0</ele><time>2026-04-26T09:26:15Z</time></trkpt><trkpt lat="40.62172289845252" lon="14.420940271050357"><ele>235.2857142857143</ele><time>2026-04-26T09:26:16Z</time></trkpt><trkpt lat="40.62174652741051" lon="14.420845826138969"><ele>236.5714285714286</ele><time>2026-04-26T09:26:17Z</time></trkpt><trkpt lat="40.62177612265572" lon="14.420754691722014"><ele>237.85714285714286</ele><time>2026-04-26T09:26:18Z</time></trkpt><trkpt lat="40.62181062801574" lon="14.420665114797572"><ele>239.14285714285717</ele><time>2026-04-26T09:26:19Z</time></trkpt><trkpt lat="40.62184488281106" lon="14.420578318113748"><ele>240.42857142857144</ele><time>2026-04-26T09:26:20Z</time></trkpt><trkpt lat="40.62187677167984" lon="14.420492823048663"><ele>241.71428571428572</ele><time>2026-04-26T09:26:21Z</time></trkpt><trkpt lat="40.62190410748095" lon="14.420405354551225"><ele>243.0</ele><time>2026-04-26T09:26:22Z</time></trkpt><trkpt lat="40.62192854651073" lon="14.420319618819677"><ele>243.71428571428572</ele><time>2026-04-26T09:26:23Z</time></trkpt><trkpt lat="40.621942725573206" lon="14.420233838274935"><ele>244.42857142857144</ele><time>2026-04-26T09:26:24Z</time></trkpt><trkpt lat="40.62195315656294" lon="14.42015203799158"><ele>245.14285714285717</ele><time>2026-04-26T09:26:25Z</time></trkpt><trkpt lat="40.62195210491832" lon="14.420068204442979"><ele>245.85714285714286</ele><time>2026-04-26T09:26:26Z</time></trkpt><trkpt lat="40.62194823577273" lon="14.419983909109792"><ele>246.5714285714286</ele><time>2026-04-26T09:26:27Z</time></trkpt><trkpt lat="40.621943300655865" lon="14.419900275539996"><ele>247.2857142857143</ele><time>2026-04-26T09:26:28Z</time></trkpt><trkpt lat="40.621934200901045" lon="14.419815659453812"><ele>248.0</ele><time>2026-04-26T09:26:29Z</time></trkpt><trkpt lat="40.621915912750644" lon="14.419733745793398"><ele>248.00000000000003</ele><time>2026-04-26T09:26:30Z</time></trkpt><trkpt lat="40.62189016535863" lon="14.419656772795806"><ele>248.0</ele><time>2026-04-26T09:26:31Z</time></trkpt><trkpt lat="40.62186544774011" lon="14.419578817003226"><ele>248.0</ele><time>2026-04-26T09:26:32Z</time></trkpt><trkpt lat="40.62180787277737" lon="14.419434984968548"><ele>248.0</ele><time>2026-04-26T09:26:34Z</time></trkpt><trkpt lat="40.621739531857024" lon="14.419297380149558"><ele>248.00000000000003</ele><time>2026-04-26T09:26:36Z</time></trkpt><trkpt lat="40.62171390238135" lon="14.419217147132484"><ele>248.0</ele><time>2026-04-26T09:26:37Z</time></trkpt><trkpt lat="40.6216901630969" lon="14.419129954980194"><ele>246.66666666666669</ele><time>2026-04-26T09:26:38Z</time></trkpt><trkpt lat="40.621667360831516" lon="14.419032456321768"><ele>245.33333333333334</ele><time>2026-04-26T09:26:39Z</time></trkpt><trkpt lat="40.62164648069123" lon="14.41892583209171"><ele>244.0</ele><time>2026-04-26T09:26:40Z</time></trkpt><trkpt lat="40.62162573217247" lon="14.4188140914128"><ele>242.66666666666669</ele><time>2026-04-26T09:26:41Z</time></trkpt><trkpt lat="40.621602873849284" lon="14.418700326555552"><ele>241.33333333333334</ele><time>2026-04-26T09:26:42Z</time></trkpt><trkpt lat="40.62157314001111" lon="14.418590419934793"><ele>240.0</ele><time>2026-04-26T09:26:43Z</time></trkpt><trkpt lat="40.621531340654116" lon="14.418477741159128"><ele>239.0</ele><time>2026-04-26T09:26:44Z</time></trkpt><trkpt lat="40.62147863068668" lon="14.41836472628732"><ele>238.0</ele><time>2026-04-26T09:26:45Z</time></trkpt><trkpt lat="40.62142435420502" lon="14.41824630675453"><ele>237.0</ele><time>2026-04-26T09:26:46Z</time></trkpt><trkpt lat="40.621373208162275" lon="14.418127380980874"><ele>236.0</ele><time>2026-04-26T09:26:47Z</time></trkpt><trkpt lat="40.62132534224292" lon="14.417997442476658"><ele>235.0</ele><time>2026-04-26T09:26:48Z</time></trkpt><trkpt lat="40.62127946687289" lon="14.417862188773286"><ele>233.5</ele><time>2026-04-26T09:26:49Z</time></trkpt><trkpt lat="40.62124539779296" lon="14.417719182004424"><ele>232.0</ele><time>2026-04-26T09:26:50Z</time></trkpt><trkpt lat="40.621219733146575" lon="14.417572493743869"><ele>230.5</ele><time>2026-04-26T09:26:51Z</time></trkpt><trkpt lat="40.62119780736643" lon="14.41742506570988"><ele>229.0</ele><time>2026-04-26T09:26:52Z</time></trkpt><trkpt lat="40.62117435229161" lon="14.417281270963704"><ele>235.0</ele><time>2026-04-26T09:26:53Z</time></trkpt><trkpt lat="40.621148387419694" lon="14.417140373296778"><ele>240.99999999999997</ele><time>2026-04-26T09:26:54Z</time></trkpt><trkpt lat="40.62112702319368" lon="14.417002106034913"><ele>246.99999999999997</ele><time>2026-04-26T09:26:55Z</time></trkpt><trkpt lat="40.62111344836339" lon="14.416865575810245"><ele>253.0</ele><time>2026-04-26T09:26:56.001Z</time></trkpt><trkpt lat="40.62111180883003" lon="14.416727113267141"><ele>259.0</ele><time>2026-04-26T09:26:57.001Z</time></trkpt><trkpt lat="40.621133294583814" lon="14.416590391892775"><ele>255.0</ele><time>2026-04-26T09:26:58.001Z</time></trkpt><trkpt lat="40.6211847324105" lon="14.416463728479311"><ele>250.99999999999997</ele><time>2026-04-26T09:26:59.001Z</time></trkpt><trkpt lat="40.621240980271224" lon="14.416336705980388"><ele>246.99999999999997</ele><time>2026-04-26T09:27:00.001Z</time></trkpt><trkpt lat="40.6212896917065" lon="14.416205383737447"><ele>243.0</ele><time>2026-04-26T09:27:01.001Z</time></trkpt><trkpt lat="40.62133637541841" lon="14.416078106192993"><ele>239.0</ele><time>2026-04-26T09:27:02.001Z</time></trkpt><trkpt lat="40.62138161814139" lon="14.415953601233587"><ele>239.00000000000003</ele><time>2026-04-26T09:27:03.001Z</time></trkpt><trkpt lat="40.62142427882877" lon="14.415835413084936"><ele>239.0</ele><time>2026-04-26T09:27:04.001Z</time></trkpt><trkpt lat="40.621465345728055" lon="14.415724308026427"><ele>239.0</ele><time>2026-04-26T09:27:05.001Z</time></trkpt><trkpt lat="40.621501297257524" lon="14.415616820925214"><ele>239.0</ele><time>2026-04-26T09:27:06.001Z</time></trkpt><trkpt lat="40.621536941461954" lon="14.41551755384218"><ele>239.00000000000003</ele><time>2026-04-26T09:27:07.001Z</time></trkpt><trkpt lat="40.62156207241816" lon="14.415423145743787"><ele>239.0</ele><time>2026-04-26T09:27:08.001Z</time></trkpt><trkpt lat="40.621565356130255" lon="14.415328918678068"><ele>240.00000000000003</ele><time>2026-04-26T09:27:09.001Z</time></trkpt><trkpt lat="40.6215378542315" lon="14.415239990481632"><ele>241.0</ele><time>2026-04-26T09:27:10.001Z</time></trkpt><trkpt lat="40.62147923624325" lon="14.415178584860424"><ele>242.0</ele><time>2026-04-26T09:27:11.001Z</time></trkpt><trkpt lat="40.62140110575913" lon="14.415156667620154"><ele>243.0</ele><time>2026-04-26T09:27:12.001Z</time></trkpt><trkpt lat="40.62132670642506" lon="14.415189123439617"><ele>244.00000000000003</ele><time>2026-04-26T09:27:13.001Z</time></trkpt><trkpt lat="40.62126555938151" lon="14.415263108241064"><ele>245.0</ele><time>2026-04-26T09:27:14.001Z</time></trkpt><trkpt lat="40.62123085505942" lon="14.415366075209858"><ele>245.0</ele><time>2026-04-26T09:27:15.001Z</time></trkpt><trkpt lat="40.621203577305444" lon="14.415475150349284"><ele>245.0</ele><time>2026-04-26T09:27:16.001Z</time></trkpt><trkpt lat="40.62117234348197" lon="14.415582904425053"><ele>245.0</ele><time>2026-04-26T09:27:17.001Z</time></trkpt><trkpt lat="40.62113382044011" lon="14.415694345918702"><ele>245.0</ele><time>2026-04-26T09:27:18.001Z</time></trkpt><trkpt lat="40.62109456299286" lon="14.415812131580239"><ele>245.0</ele><time>2026-04-26T09:27:19.001Z</time></trkpt><trkpt lat="40.621054325889084" lon="14.415927758523472"><ele>247.8</ele><time>2026-04-26T09:27:20.001Z</time></trkpt><trkpt lat="40.62101799268961" lon="14.41604932927902"><ele>250.6</ele><time>2026-04-26T09:27:21.001Z</time></trkpt><trkpt lat="40.62098424322324" lon="14.416171459013595"><ele>253.39999999999998</ele><time>2026-04-26T09:27:22.001Z</time></trkpt><trkpt lat="40.62094884206059" lon="14.416284233402255"><ele>256.2</ele><time>2026-04-26T09:27:23.001Z</time></trkpt><trkpt lat="40.62091499803742" lon="14.41638600310668"><ele>259.0</ele><time>2026-04-26T09:27:24.001Z</time></trkpt><trkpt lat="40.62088316365607" lon="14.416482438829535"><ele>259.0</ele><time>2026-04-26T09:27:25.001Z</time></trkpt><trkpt lat="40.620850880218796" lon="14.416575712548422"><ele>259.0</ele><time>2026-04-26T09:27:26.001Z</time></trkpt><trkpt lat="40.62081200523041" lon="14.4166660523999"><ele>259.0</ele><time>2026-04-26T09:27:27.001Z</time></trkpt><trkpt lat="40.620772995086455" lon="14.416756221743636"><ele>259.0</ele><time>2026-04-26T09:27:28.001Z</time></trkpt><trkpt lat="40.62072992895394" lon="14.416845613619863"><ele>259.0</ele><time>2026-04-26T09:27:29.001Z</time></trkpt><trkpt lat="40.62068311981633" lon="14.416935430639477"><ele>259.0</ele><time>2026-04-26T09:27:30.001Z</time></trkpt><trkpt lat="40.620635023347816" lon="14.417027312399444"><ele>259.0</ele><time>2026-04-26T09:27:31.001Z</time></trkpt><trkpt lat="40.62058472305504" lon="14.417119686762273"><ele>259.0</ele><time>2026-04-26T09:27:32.001Z</time></trkpt><trkpt lat="40.620529879332224" lon="14.41720962686667"><ele>259.0</ele><time>2026-04-26T09:27:33.001Z</time></trkpt><trkpt lat="40.62047888746447" lon="14.417305024949348"><ele>259.0</ele><time>2026-04-26T09:27:34.001Z</time></trkpt><trkpt lat="40.62043055229745" lon="14.417395062892535"><ele>259.0</ele><time>2026-04-26T09:27:35.001Z</time></trkpt><trkpt lat="40.62040064449059" lon="14.417473297812878"><ele>259.0</ele><time>2026-04-26T09:27:36.001Z</time></trkpt><trkpt lat="40.62038425988" lon="14.41755338938232"><ele>258.66666666666663</ele><time>2026-04-26T09:27:37.001Z</time></trkpt><trkpt lat="40.620376537261606" lon="14.417651897989323"><ele>258.3333333333333</ele><time>2026-04-26T09:27:38.001Z</time></trkpt><trkpt lat="40.62037510825677" lon="14.417756898840349"><ele>258.0</ele><time>2026-04-26T09:27:39.001Z</time></trkpt><trkpt lat="40.62038483922096" lon="14.41786397805433"><ele>257.6666666666667</ele><time>2026-04-26T09:27:40.001Z</time></trkpt><trkpt lat="40.62040615311866" lon="14.417973034521964"><ele>257.33333333333337</ele><time>2026-04-26T09:27:41.001Z</time></trkpt><trkpt lat="40.62043821246347" lon="14.418075838085766"><ele>257.0</ele><time>2026-04-26T09:27:42.001Z</time></trkpt><trkpt lat="40.62047410385438" lon="14.418173761554696"><ele>257.0</ele><time>2026-04-26T09:27:43.001Z</time></trkpt><trkpt lat="40.62050601340519" lon="14.418257561143923"><ele>257.0</ele><time>2026-04-26T09:27:44.001Z</time></trkpt><trkpt lat="40.62055449873802" lon="14.418392841719019"><ele>257.0</ele><time>2026-04-26T09:27:46.001Z</time></trkpt><trkpt lat="40.62058152400035" lon="14.418483062913083"><ele>257.0</ele><time>2026-04-26T09:27:48Z</time></trkpt><trkpt lat="40.620592634188675" lon="14.418567952385967"><ele>257.0</ele><time>2026-04-26T09:27:52Z</time></trkpt><trkpt lat="40.6206553630966" lon="14.418690085947224"><ele>257.0</ele><time>2026-04-26T09:28:32.998Z</time></trkpt><trkpt lat="40.62065273969263" lon="14.418777734159757"><ele>258.6</ele><time>2026-04-26T09:28:33.998Z</time></trkpt><trkpt lat="40.620644044452625" lon="14.418880957712435"><ele>260.2</ele><time>2026-04-26T09:28:34.998Z</time></trkpt><trkpt lat="40.62063288263093" lon="14.4189865274606"><ele>261.8</ele><time>2026-04-26T09:28:35.998Z</time></trkpt><trkpt lat="40.62062489592599" lon="14.419112952024784"><ele>263.4</ele><time>2026-04-26T09:28:36.998Z</time></trkpt><trkpt lat="40.62061238176069" lon="14.419243594431803"><ele>265.0</ele><time>2026-04-26T09:28:37.998Z</time></trkpt><trkpt lat="40.62060736262169" lon="14.419386526815659"><ele>265.0</ele><time>2026-04-26T09:28:38.998Z</time></trkpt><trkpt lat="40.62061655317341" lon="14.41954931120015"><ele>265.0</ele><time>2026-04-26T09:28:39.998Z</time></trkpt><trkpt lat="40.62063983204239" lon="14.41970907059525"><ele>265.0</ele><time>2026-04-26T09:28:40.998Z</time></trkpt><trkpt lat="40.6206743819106" lon="14.419872751813408"><ele>265.0</ele><time>2026-04-26T09:28:41.998Z</time></trkpt><trkpt lat="40.62070325396883" lon="14.420050413628315"><ele>267.25</ele><time>2026-04-26T09:28:42.998Z</time></trkpt><trkpt lat="40.62076120347416" lon="14.420221919211556"><ele>269.5</ele><time>2026-04-26T09:28:43.998Z</time></trkpt><trkpt lat="40.620840679677585" lon="14.420380237824029"><ele>271.75</ele><time>2026-04-26T09:28:44.998Z</time></trkpt><trkpt lat="40.620901350531504" lon="14.420528591262999"><ele>274.0</ele><time>2026-04-26T09:28:45.998Z</time></trkpt><trkpt lat="40.62095455824127" lon="14.420669759658415"><ele>276.0</ele><time>2026-04-26T09:28:46.998Z</time></trkpt><trkpt lat="40.6209946106233" lon="14.420811769776154"><ele>278.0</ele><time>2026-04-26T09:28:47.998Z</time></trkpt><trkpt lat="40.6210173161107" lon="14.420952815700742"><ele>280.0</ele><time>2026-04-26T09:28:48.998Z</time></trkpt><trkpt lat="40.62101952159113" lon="14.421110770021722"><ele>282.0</ele><time>2026-04-26T09:28:49.998Z</time></trkpt><trkpt lat="40.620993248958534" lon="14.421277308456272"><ele>280.25</ele><time>2026-04-26T09:28:50.998Z</time></trkpt><trkpt lat="40.620951852911105" lon="14.421439011855483"><ele>278.5</ele><time>2026-04-26T09:28:51.998Z</time></trkpt><trkpt lat="40.62090146896048" lon="14.421585406434888"><ele>276.75</ele><time>2026-04-26T09:28:52.998Z</time></trkpt><trkpt lat="40.62082910666197" lon="14.421707738106456"><ele>275.0</ele><time>2026-04-26T09:28:53.998Z</time></trkpt><trkpt lat="40.620720606086266" lon="14.421813506809919"><ele>275.0</ele><time>2026-04-26T09:28:54.998Z</time></trkpt><trkpt lat="40.620606166226594" lon="14.421923541958378"><ele>275.0</ele><time>2026-04-26T09:28:55.998Z</time></trkpt><trkpt lat="40.62049483346325" lon="14.422045503535704"><ele>275.0</ele><time>2026-04-26T09:28:56.998Z</time></trkpt><trkpt lat="40.620388615958376" lon="14.422179865618656"><ele>275.0</ele><time>2026-04-26T09:28:57.998Z</time></trkpt><trkpt lat="40.62028561371019" lon="14.422330825471416"><ele>278.5</ele><time>2026-04-26T09:28:58.998Z</time></trkpt><trkpt lat="40.62019352050263" lon="14.422474288824674"><ele>282.0</ele><time>2026-04-26T09:28:59.998Z</time></trkpt><trkpt lat="40.62009738782258" lon="14.422610521036791"><ele>285.5</ele><time>2026-04-26T09:29:00.998Z</time></trkpt><trkpt lat="40.62000033102393" lon="14.422726970196157"><ele>289.0</ele><time>2026-04-26T09:29:01.998Z</time></trkpt><trkpt lat="40.61988319682962" lon="14.422817592789247"><ele>289.0</ele><time>2026-04-26T09:29:02.998Z</time></trkpt><trkpt lat="40.6197677891689" lon="14.422878707670337"><ele>289.0</ele><time>2026-04-26T09:29:03.998Z</time></trkpt><trkpt lat="40.61964847031139" lon="14.422957726464503"><ele>289.0</ele><time>2026-04-26T09:29:04.998Z</time></trkpt><trkpt lat="40.619536091002246" lon="14.423039175461536"><ele>289.0</ele><time>2026-04-26T09:29:05.998Z</time></trkpt><trkpt lat="40.61943168361363" lon="14.423127366243293"><ele>290.75</ele><time>2026-04-26T09:29:06.998Z</time></trkpt><trkpt lat="40.6193352971253" lon="14.42325042813467"><ele>292.5</ele><time>2026-04-26T09:29:07.998Z</time></trkpt><trkpt lat="40.619268161082076" lon="14.423395846231266"><ele>294.25</ele><time>2026-04-26T09:29:08.998Z</time></trkpt><trkpt lat="40.61921531369099" lon="14.423566688601994"><ele>296.0</ele><time>2026-04-26T09:29:09.998Z</time></trkpt><trkpt lat="40.6191619835184" lon="14.423738780671682"><ele>294.25</ele><time>2026-04-26T09:29:10.998Z</time></trkpt><trkpt lat="40.61910713061281" lon="14.423897586441097"><ele>292.5</ele><time>2026-04-26T09:29:11.998Z</time></trkpt><trkpt lat="40.619045553451" lon="14.424039371337454"><ele>290.75</ele><time>2026-04-26T09:29:12.998Z</time></trkpt><trkpt lat="40.6189604024594" lon="14.424158526796004"><ele>289.0</ele><time>2026-04-26T09:29:13.998Z</time></trkpt><trkpt lat="40.61885910973283" lon="14.424270938209837"><ele>289.0</ele><time>2026-04-26T09:29:14.998Z</time></trkpt><trkpt lat="40.61875174482814" lon="14.424384878403083"><ele>289.0</ele><time>2026-04-26T09:29:15.998Z</time></trkpt><trkpt lat="40.61863416819931" lon="14.424499978505184"><ele>289.0</ele><time>2026-04-26T09:29:16.998Z</time></trkpt><trkpt lat="40.618526874776" lon="14.424621838654408"><ele>289.0</ele><time>2026-04-26T09:29:17.998Z</time></trkpt><trkpt lat="40.61843324494808" lon="14.424753569453342"><ele>292.5</ele><time>2026-04-26T09:29:18.998Z</time></trkpt><trkpt lat="40.618350540964336" lon="14.42489655012213"><ele>296.0</ele><time>2026-04-26T09:29:19.998Z</time></trkpt><trkpt lat="40.6182715346723" lon="14.42504719298926"><ele>299.5</ele><time>2026-04-26T09:29:20.998Z</time></trkpt><trkpt lat="40.61819580634384" lon="14.425197492742564"><ele>303.0</ele><time>2026-04-26T09:29:21.998Z</time></trkpt><trkpt lat="40.61812694153303" lon="14.42534569315142"><ele>301.5</ele><time>2026-04-26T09:29:22.998Z</time></trkpt><trkpt lat="40.618074188380966" lon="14.42549826579934"><ele>300.0</ele><time>2026-04-26T09:29:23.998Z</time></trkpt><trkpt lat="40.61804693603926" lon="14.425664821227798"><ele>298.5</ele><time>2026-04-26T09:29:24.998Z</time></trkpt><trkpt lat="40.6180184767062" lon="14.425835167552243"><ele>297.0</ele><time>2026-04-26T09:29:25.998Z</time></trkpt><trkpt lat="40.61798962962" lon="14.426001096221055"><ele>297.0</ele><time>2026-04-26T09:29:26.998Z</time></trkpt><trkpt lat="40.61796139909938" lon="14.42616297756893"><ele>297.0</ele><time>2026-04-26T09:29:27.998Z</time></trkpt><trkpt lat="40.61792447878039" lon="14.426320117710548"><ele>297.0</ele><time>2026-04-26T09:29:28.998Z</time></trkpt><trkpt lat="40.6178797951472" lon="14.426470985372966"><ele>297.0</ele><time>2026-04-26T09:29:29.998Z</time></trkpt><trkpt lat="40.617834240066436" lon="14.426619480413777"><ele>300.75</ele><time>2026-04-26T09:29:30.998Z</time></trkpt><trkpt lat="40.61778689586908" lon="14.426768483890626"><ele>304.5</ele><time>2026-04-26T09:29:31.998Z</time></trkpt><trkpt lat="40.61774383637528" lon="14.42691342972029"><ele>308.25</ele><time>2026-04-26T09:29:32.998Z</time></trkpt><trkpt lat="40.61770407961675" lon="14.427047400988501"><ele>312.0</ele><time>2026-04-26T09:29:33.998Z</time></trkpt><trkpt lat="40.61766786601904" lon="14.427175834439515"><ele>312.0</ele><time>2026-04-26T09:29:34.998Z</time></trkpt><trkpt lat="40.61763106790426" lon="14.427304929796515"><ele>312.0</ele><time>2026-04-26T09:29:35.998Z</time></trkpt><trkpt lat="40.61759732541995" lon="14.427426630066947"><ele>312.0</ele><time>2026-04-26T09:29:36.998Z</time></trkpt><trkpt lat="40.61756940171196" lon="14.42753711177763"><ele>312.0</ele><time>2026-04-26T09:29:37.998Z</time></trkpt><trkpt lat="40.6175455087371" lon="14.427638839764652"><ele>312.0</ele><time>2026-04-26T09:29:38.998Z</time></trkpt><trkpt lat="40.617526186830204" lon="14.427726382957704"><ele>312.0</ele><time>2026-04-26T09:29:39.998Z</time></trkpt><trkpt lat="40.61749467023796" lon="14.427854987235513"><ele>311.6666666666667</ele><time>2026-04-26T09:29:41.998Z</time></trkpt><trkpt lat="40.617447373422365" lon="14.427989715522868"><ele>311.3333333333333</ele><time>2026-04-26T09:29:43.998Z</time></trkpt><trkpt lat="40.617423717114185" lon="14.428073596575633"><ele>311.0</ele><time>2026-04-26T09:29:44.998Z</time></trkpt><trkpt lat="40.6173968742467" lon="14.428161850523145"><ele>310.66666666666663</ele><time>2026-04-26T09:29:45.998Z</time></trkpt><trkpt lat="40.617383664570916" lon="14.428251871783942"><ele>310.3333333333333</ele><time>2026-04-26T09:29:46.998Z</time></trkpt><trkpt lat="40.61735058775873" lon="14.42833142444263"><ele>310.0</ele><time>2026-04-26T09:29:47.998Z</time></trkpt><trkpt lat="40.61731628313344" lon="14.428422708359628"><ele>310.0</ele><time>2026-04-26T09:29:48.999Z</time></trkpt><trkpt lat="40.617280303565664" lon="14.428534989344476"><ele>310.0</ele><time>2026-04-26T09:29:49.999Z</time></trkpt><trkpt lat="40.6172452037993" lon="14.428655226051196"><ele>310.0</ele><time>2026-04-26T09:29:50.999Z</time></trkpt><trkpt lat="40.617207111352144" lon="14.428779418343968"><ele>310.0</ele><time>2026-04-26T09:29:51.999Z</time></trkpt><trkpt lat="40.617164136531095" lon="14.428895215132709"><ele>310.0</ele><time>2026-04-26T09:29:52.999Z</time></trkpt><trkpt lat="40.61710369722039" lon="14.428995464592917"><ele>310.6</ele><time>2026-04-26T09:29:53.997Z</time></trkpt><trkpt lat="40.6170342169774" lon="14.429086002528317"><ele>311.2</ele><time>2026-04-26T09:29:54.997Z</time></trkpt><trkpt lat="40.61695551928878" lon="14.429160542297291"><ele>311.8</ele><time>2026-04-26T09:29:55.997Z</time></trkpt><trkpt lat="40.61687530846421" lon="14.429234008446983"><ele>312.4</ele><time>2026-04-26T09:29:56.997Z</time></trkpt><trkpt lat="40.616792660806546" lon="14.42930685183999"><ele>313.0</ele><time>2026-04-26T09:29:57.998Z</time></trkpt><trkpt lat="40.616708618800146" lon="14.429385354522783"><ele>311.6</ele><time>2026-04-26T09:29:58.998Z</time></trkpt><trkpt lat="40.61662447266887" lon="14.429465187175769"><ele>310.20000000000005</ele><time>2026-04-26T09:29:59.998Z</time></trkpt><trkpt lat="40.61653722078693" lon="14.429545078314735"><ele>308.8</ele><time>2026-04-26T09:30:00.998Z</time></trkpt><trkpt lat="40.61644815276474" lon="14.429623817402057"><ele>307.40000000000003</ele><time>2026-04-26T09:30:01.998Z</time></trkpt><trkpt lat="40.61635901203059" lon="14.429705196915465"><ele>306.0</ele><time>2026-04-26T09:30:02.998Z</time></trkpt><trkpt lat="40.616269929612464" lon="14.429788595985453"><ele>306.0</ele><time>2026-04-26T09:30:03.998Z</time></trkpt><trkpt lat="40.61618098345179" lon="14.42987520705198"><ele>306.0</ele><time>2026-04-26T09:30:04.999Z</time></trkpt><trkpt lat="40.61609675875342" lon="14.429971572724835"><ele>306.0</ele><time>2026-04-26T09:30:05.999Z</time></trkpt><trkpt lat="40.61602155364014" lon="14.430086429724863"><ele>306.0</ele><time>2026-04-26T09:30:06.999Z</time></trkpt><trkpt lat="40.615965624986266" lon="14.430228326975417"><ele>302.25</ele><time>2026-04-26T09:30:07.999Z</time></trkpt><trkpt lat="40.61592448969723" lon="14.430377103992617"><ele>298.5</ele><time>2026-04-26T09:30:08.999Z</time></trkpt><trkpt lat="40.615899510473916" lon="14.430533827882766"><ele>294.75</ele><time>2026-04-26T09:30:09.999Z</time></trkpt><trkpt lat="40.615905095027095" lon="14.430698100386586"><ele>291.0</ele><time>2026-04-26T09:30:10.999Z</time></trkpt><trkpt lat="40.61593423918319" lon="14.430858958581583"><ele>291.0</ele><time>2026-04-26T09:30:11.999Z</time></trkpt><trkpt lat="40.615978872074265" lon="14.4310060853672"><ele>291.0</ele><time>2026-04-26T09:30:12.999Z</time></trkpt><trkpt lat="40.616039129675976" lon="14.43113733990838"><ele>291.0</ele><time>2026-04-26T09:30:13.999Z</time></trkpt><trkpt lat="40.61609953018337" lon="14.431256877442632"><ele>291.0</ele><time>2026-04-26T09:30:14.999Z</time></trkpt><trkpt lat="40.61616267087914" lon="14.431367218670784"><ele>292.3333333333333</ele><time>2026-04-26T09:30:15.999Z</time></trkpt><trkpt lat="40.61622107285698" lon="14.431471503715509"><ele>293.6666666666667</ele><time>2026-04-26T09:30:17Z</time></trkpt><trkpt lat="40.616270804047566" lon="14.431571002642213"><ele>295.0</ele><time>2026-04-26T09:30:18Z</time></trkpt><trkpt lat="40.61630479309892" lon="14.431664851608287"><ele>296.33333333333337</ele><time>2026-04-26T09:30:19Z</time></trkpt><trkpt lat="40.61632238128415" lon="14.431765271872552"><ele>297.6666666666667</ele><time>2026-04-26T09:30:20Z</time></trkpt><trkpt lat="40.61630332916856" lon="14.431869844857545"><ele>299.0</ele><time>2026-04-26T09:30:21Z</time></trkpt><trkpt lat="40.616258417479756" lon="14.431962499859777"><ele>299.0</ele><time>2026-04-26T09:30:22Z</time></trkpt><trkpt lat="40.61619341421183" lon="14.432044090118428"><ele>299.0</ele><time>2026-04-26T09:30:23Z</time></trkpt><trkpt lat="40.61613145841795" lon="14.432124847792728"><ele>299.0</ele><time>2026-04-26T09:30:24Z</time></trkpt><trkpt lat="40.61608441818144" lon="14.432223140018943"><ele>299.0</ele><time>2026-04-26T09:30:25Z</time></trkpt><trkpt lat="40.61603387313193" lon="14.432321059425142"><ele>299.0</ele><time>2026-04-26T09:30:26Z</time></trkpt><trkpt lat="40.6160281729818" lon="14.432451211754016"><ele>298.2</ele><time>2026-04-26T09:30:27Z</time></trkpt><trkpt lat="40.61606894785112" lon="14.432575733803331"><ele>297.4</ele><time>2026-04-26T09:30:28Z</time></trkpt><trkpt lat="40.616128049311214" lon="14.432697125216745"><ele>296.6</ele><time>2026-04-26T09:30:29Z</time></trkpt><trkpt lat="40.61620820226615" lon="14.43280806555394"><ele>295.8</ele><time>2026-04-26T09:30:30Z</time></trkpt><trkpt lat="40.61629042788988" lon="14.432913413904624"><ele>295.0</ele><time>2026-04-26T09:30:31Z</time></trkpt><trkpt lat="40.616366858444245" lon="14.43300298283225"><ele>293.16666666666663</ele><time>2026-04-26T09:30:32Z</time></trkpt><trkpt lat="40.616435313499075" lon="14.433088261792623"><ele>291.3333333333333</ele><time>2026-04-26T09:30:33Z</time></trkpt><trkpt lat="40.61649836842819" lon="14.433172791494874"><ele>289.5</ele><time>2026-04-26T09:30:34Z</time></trkpt><trkpt lat="40.61655876331215" lon="14.433254430518705"><ele>287.6666666666667</ele><time>2026-04-26T09:30:35Z</time></trkpt><trkpt lat="40.61662107653469" lon="14.433332677516972"><ele>285.83333333333337</ele><time>2026-04-26T09:30:36Z</time></trkpt><trkpt lat="40.616680492918285" lon="14.433409337001764"><ele>284.0</ele><time>2026-04-26T09:30:37Z</time></trkpt><trkpt lat="40.616735916345796" lon="14.43348631467747"><ele>284.0</ele><time>2026-04-26T09:30:38Z</time></trkpt><trkpt lat="40.61678912876402" lon="14.433571816479134"><ele>284.0</ele><time>2026-04-26T09:30:39Z</time></trkpt><trkpt lat="40.61683369938032" lon="14.433670653637012"><ele>284.0</ele><time>2026-04-26T09:30:40Z</time></trkpt><trkpt lat="40.61686080713773" lon="14.433785764978623"><ele>284.0</ele><time>2026-04-26T09:30:41Z</time></trkpt><trkpt lat="40.61687567569948" lon="14.433909696457563"><ele>284.0</ele><time>2026-04-26T09:30:42Z</time></trkpt><trkpt lat="40.6168796829787" lon="14.434038521855609"><ele>283.0</ele><time>2026-04-26T09:30:43Z</time></trkpt><trkpt lat="40.616877340212504" lon="14.434168420808858"><ele>282.0</ele><time>2026-04-26T09:30:44Z</time></trkpt><trkpt lat="40.61687467786078" lon="14.434292738892168"><ele>281.0</ele><time>2026-04-26T09:30:45Z</time></trkpt><trkpt lat="40.616877355837566" lon="14.434412939371802"><ele>280.0</ele><time>2026-04-26T09:30:46Z</time></trkpt><trkpt lat="40.61687903519365" lon="14.43452836922855"><ele>279.0</ele><time>2026-04-26T09:30:47Z</time></trkpt><trkpt lat="40.616875009820085" lon="14.434639313301286"><ele>279.0</ele><time>2026-04-26T09:30:48Z</time></trkpt><trkpt lat="40.6168735417249" lon="14.434743821166254"><ele>279.0</ele><time>2026-04-26T09:30:49Z</time></trkpt><trkpt lat="40.616876108842526" lon="14.434837978156708"><ele>279.0</ele><time>2026-04-26T09:30:50Z</time></trkpt><trkpt lat="40.61687836453564" lon="14.434923226503077"><ele>279.0</ele><time>2026-04-26T09:30:51.001Z</time></trkpt><trkpt lat="40.6168806827526" lon="14.435068761227324"><ele>279.0</ele><time>2026-04-26T09:30:53.001Z</time></trkpt><trkpt lat="40.61685830447925" lon="14.435189764862868"><ele>279.0</ele><time>2026-04-26T09:30:55.001Z</time></trkpt><trkpt lat="40.61677834429643" lon="14.435265991756557"><ele>279.0</ele><time>2026-04-26T09:30:57.001Z</time></trkpt><trkpt lat="40.616668296030895" lon="14.435212870025937"><ele>279.0</ele><time>2026-04-26T09:30:59.001Z</time></trkpt><trkpt lat="40.61663714497749" lon="14.435121855917663"><ele>279.0</ele><time>2026-04-26T09:31:00.001Z</time></trkpt><trkpt lat="40.61663587407295" lon="14.435001827619013"><ele>279.0</ele><time>2026-04-26T09:31:01.001Z</time></trkpt><trkpt lat="40.61665487490571" lon="14.434871939633402"><ele>279.0</ele><time>2026-04-26T09:31:02.001Z</time></trkpt><trkpt lat="40.616662424057786" lon="14.434729879270769"><ele>278.1666666666667</ele><time>2026-04-26T09:31:03.001Z</time></trkpt><trkpt lat="40.61666455977623" lon="14.434594686470248"><ele>277.3333333333333</ele><time>2026-04-26T09:31:04.001Z</time></trkpt><trkpt lat="40.61667066865913" lon="14.434473794032987"><ele>276.5</ele><time>2026-04-26T09:31:05.001Z</time></trkpt><trkpt lat="40.61667805596847" lon="14.434359916950353"><ele>275.66666666666663</ele><time>2026-04-26T09:31:06.001Z</time></trkpt><trkpt lat="40.616679035310014" lon="14.434250341591955"><ele>274.8333333333333</ele><time>2026-04-26T09:31:07.001Z</time></trkpt><trkpt lat="40.61667119206666" lon="14.434144798411422"><ele>274.0</ele><time>2026-04-26T09:31:08.001Z</time></trkpt><trkpt lat="40.616649925397354" lon="14.43405121414412"><ele>274.0</ele><time>2026-04-26T09:31:09.001Z</time></trkpt><trkpt lat="40.61660196971666" lon="14.433970752391463"><ele>274.0</ele><time>2026-04-26T09:31:10.001Z</time></trkpt><trkpt lat="40.61653268684908" lon="14.43390387383083"><ele>274.0</ele><time>2026-04-26T09:31:11.001Z</time></trkpt><trkpt lat="40.61644356255571" lon="14.433850999611904"><ele>274.0</ele><time>2026-04-26T09:31:12.001Z</time></trkpt><trkpt lat="40.61634075527413" lon="14.433817330412172"><ele>274.0</ele><time>2026-04-26T09:31:13.001Z</time></trkpt><trkpt lat="40.61622931002224" lon="14.433798907396362"><ele>273.4</ele><time>2026-04-26T09:31:14.001Z</time></trkpt><trkpt lat="40.616119032127095" lon="14.433777051310823"><ele>272.79999999999995</ele><time>2026-04-26T09:31:15.001Z</time></trkpt><trkpt lat="40.61601845473015" lon="14.433754682775783"><ele>272.20000000000005</ele><time>2026-04-26T09:31:16.001Z</time></trkpt><trkpt lat="40.615923957046796" lon="14.433723017359483"><ele>271.6</ele><time>2026-04-26T09:31:17.001Z</time></trkpt><trkpt lat="40.61583548920548" lon="14.433659506062863"><ele>271.0</ele><time>2026-04-26T09:31:18.001Z</time></trkpt><trkpt lat="40.61576054411004" lon="14.433563197816927"><ele>271.0</ele><time>2026-04-26T09:31:19.001Z</time></trkpt><trkpt lat="40.615691511203664" lon="14.433471363445603"><ele>271.0</ele><time>2026-04-26T09:31:20.001Z</time></trkpt><trkpt lat="40.61562618583395" lon="14.433398802939045"><ele>271.0</ele><time>2026-04-26T09:31:21.001Z</time></trkpt><trkpt lat="40.615562141636396" lon="14.433327501086243"><ele>271.0</ele><time>2026-04-26T09:31:22.001Z</time></trkpt><trkpt lat="40.615500016139976" lon="14.433253561150003"><ele>271.0</ele><time>2026-04-26T09:31:23.001Z</time></trkpt><trkpt lat="40.61543796249082" lon="14.433181878986478"><ele>271.0</ele><time>2026-04-26T09:31:24.001Z</time></trkpt><trkpt lat="40.61537321685718" lon="14.43312113403979"><ele>268.66666666666663</ele><time>2026-04-26T09:31:25.001Z</time></trkpt><trkpt lat="40.61531047291866" lon="14.433064805570194"><ele>266.3333333333333</ele><time>2026-04-26T09:31:26.001Z</time></trkpt><trkpt lat="40.615248992486556" lon="14.433013234290604"><ele>264.0</ele><time>2026-04-26T09:31:27.001Z</time></trkpt><trkpt lat="40.61516529297577" lon="14.432941343415475"><ele>261.6666666666667</ele><time>2026-04-26T09:31:29.001Z</time></trkpt><trkpt lat="40.615098589637384" lon="14.432875021329776"><ele>259.33333333333337</ele><time>2026-04-26T09:31:32.001Z</time></trkpt><trkpt lat="40.61503901040726" lon="14.432844880477031"><ele>257.0</ele><time>2026-04-26T09:31:34.001Z</time></trkpt><trkpt lat="40.6149528081419" lon="14.432853604694147"><ele>257.0</ele><time>2026-04-26T09:31:36.001Z</time></trkpt><trkpt lat="40.61488067062389" lon="14.432930944515295"><ele>257.0</ele><time>2026-04-26T09:31:38.001Z</time></trkpt><trkpt lat="40.6148495013295" lon="14.433061625296872"><ele>257.0</ele><time>2026-04-26T09:31:40.001Z</time></trkpt><trkpt lat="40.614911257758244" lon="14.433199354473624"><ele>257.0</ele><time>2026-04-26T09:31:42.001Z</time></trkpt><trkpt lat="40.614975829193334" lon="14.433240536753168"><ele>257.0</ele><time>2026-04-26T09:31:43.001Z</time></trkpt><trkpt lat="40.615041921733" lon="14.433274457298362"><ele>256.6666666666667</ele><time>2026-04-26T09:31:44.001Z</time></trkpt><trkpt lat="40.615110571497105" lon="14.433310710281232"><ele>256.33333333333337</ele><time>2026-04-26T09:31:45.001Z</time></trkpt><trkpt lat="40.615182694702774" lon="14.43334653190382"><ele>256.0</ele><time>2026-04-26T09:31:46.001Z</time></trkpt><trkpt lat="40.61525348027046" lon="14.433387586716224"><ele>255.66666666666669</ele><time>2026-04-26T09:31:47.001Z</time></trkpt><trkpt lat="40.61532425808828" lon="14.433440241330953"><ele>255.33333333333334</ele><time>2026-04-26T09:31:48.001Z</time></trkpt><trkpt lat="40.61539318107758" lon="14.433499811383756"><ele>255.0</ele><time>2026-04-26T09:31:49.001Z</time></trkpt><trkpt lat="40.61546185140224" lon="14.43357546372499"><ele>255.4</ele><time>2026-04-26T09:31:50.001Z</time></trkpt><trkpt lat="40.6155211210771" lon="14.433668185914375"><ele>255.8</ele><time>2026-04-26T09:31:51.001Z</time></trkpt><trkpt lat="40.61558077952817" lon="14.43376649652964"><ele>256.2</ele><time>2026-04-26T09:31:52.001Z</time></trkpt><trkpt lat="40.61564419094522" lon="14.43386648272597"><ele>256.6</ele><time>2026-04-26T09:31:53.001Z</time></trkpt><trkpt lat="40.61571097270027" lon="14.433965570708596"><ele>257.0</ele><time>2026-04-26T09:31:54.001Z</time></trkpt><trkpt lat="40.61579193205432" lon="14.434043979814374"><ele>257.0</ele><time>2026-04-26T09:31:55.001Z</time></trkpt><trkpt lat="40.61588506381951" lon="14.434097395234561"><ele>257.0</ele><time>2026-04-26T09:31:56.001Z</time></trkpt><trkpt lat="40.61597077745706" lon="14.434155386839686"><ele>257.0</ele><time>2026-04-26T09:31:57.001Z</time></trkpt><trkpt lat="40.61604331697289" lon="14.43423666630223"><ele>257.0</ele><time>2026-04-26T09:31:58.001Z</time></trkpt><trkpt lat="40.61610098056816" lon="14.434326295232713"><ele>257.0</ele><time>2026-04-26T09:31:59.001Z</time></trkpt><trkpt lat="40.61613862231301" lon="14.43442620692936"><ele>257.0</ele><time>2026-04-26T09:32:00.001Z</time></trkpt><trkpt lat="40.61615471318785" lon="14.434523834615975"><ele>257.0</ele><time>2026-04-26T09:32:01.001Z</time></trkpt><trkpt lat="40.61614520939864" lon="14.434636011306713"><ele>257.0</ele><time>2026-04-26T09:32:02.001Z</time></trkpt><trkpt lat="40.6161145250527" lon="14.43475348218345"><ele>257.0</ele><time>2026-04-26T09:32:03.001Z</time></trkpt><trkpt lat="40.61609472451575" lon="14.434883279619303"><ele>257.0</ele><time>2026-04-26T09:32:04.001Z</time></trkpt><trkpt lat="40.61607083541581" lon="14.435014073507743"><ele>255.66666666666669</ele><time>2026-04-26T09:32:05.001Z</time></trkpt><trkpt lat="40.616047725881465" lon="14.435141806373306"><ele>254.33333333333334</ele><time>2026-04-26T09:32:06.001Z</time></trkpt><trkpt lat="40.61602553457502" lon="14.435256278038162"><ele>253.0</ele><time>2026-04-26T09:32:07.001Z</time></trkpt><trkpt lat="40.61600526407087" lon="14.43536536126623"><ele>251.66666666666669</ele><time>2026-04-26T09:32:08.001Z</time></trkpt><trkpt lat="40.61598287488506" lon="14.435473510765327"><ele>250.33333333333334</ele><time>2026-04-26T09:32:09.001Z</time></trkpt><trkpt lat="40.615945852180275" lon="14.43557847928755"><ele>249.0</ele><time>2026-04-26T09:32:10.001Z</time></trkpt><trkpt lat="40.61588886694254" lon="14.43569151571347"><ele>249.0</ele><time>2026-04-26T09:32:11.001Z</time></trkpt><trkpt lat="40.61581017776777" lon="14.43579972571662"><ele>248.99999999999997</ele><time>2026-04-26T09:32:12.001Z</time></trkpt><trkpt lat="40.615713273902976" lon="14.435881445884045"><ele>248.99999999999997</ele><time>2026-04-26T09:32:13.001Z</time></trkpt><trkpt lat="40.61561549694831" lon="14.435950165511942"><ele>249.0</ele><time>2026-04-26T09:32:14.001Z</time></trkpt><trkpt lat="40.615528251117404" lon="14.436029068676628"><ele>249.0</ele><time>2026-04-26T09:32:15.001Z</time></trkpt><trkpt lat="40.615446549348945" lon="14.436107258659836"><ele>249.0</ele><time>2026-04-26T09:32:16.001Z</time></trkpt><trkpt lat="40.61536948274574" lon="14.436173482199424"><ele>249.0</ele><time>2026-04-26T09:32:17.001Z</time></trkpt><trkpt lat="40.61531621646782" lon="14.436249406507512"><ele>249.0</ele><time>2026-04-26T09:32:18.001Z</time></trkpt><trkpt lat="40.615300082482385" lon="14.43634355361933"><ele>249.0</ele><time>2026-04-26T09:32:19.001Z</time></trkpt><trkpt lat="40.61531441248827" lon="14.436429598130092"><ele>249.0</ele><time>2026-04-26T09:32:20.001Z</time></trkpt><trkpt lat="40.61536217116811" lon="14.436495723616924"><ele>249.0</ele><time>2026-04-26T09:32:21.001Z</time></trkpt><trkpt lat="40.61542979172537" lon="14.436533316894275"><ele>246.79999999999998</ele><time>2026-04-26T09:32:22.001Z</time></trkpt><trkpt lat="40.615515550021186" lon="14.436539757675721"><ele>244.59999999999997</ele><time>2026-04-26T09:32:23.001Z</time></trkpt><trkpt lat="40.615608512931644" lon="14.43651763668272"><ele>242.4</ele><time>2026-04-26T09:32:24.001Z</time></trkpt><trkpt lat="40.61570795893971" lon="14.436487034571066"><ele>240.2</ele><time>2026-04-26T09:32:25.001Z</time></trkpt><trkpt lat="40.61580139229165" lon="14.43645993696971"><ele>238.0</ele><time>2026-04-26T09:32:26.001Z</time></trkpt><trkpt lat="40.61588268967264" lon="14.436445434944742"><ele>238.0</ele><time>2026-04-26T09:32:27.001Z</time></trkpt><trkpt lat="40.61597170693521" lon="14.436427968800947"><ele>238.0</ele><time>2026-04-26T09:32:28.001Z</time></trkpt><trkpt lat="40.61605982287827" lon="14.436417612101007"><ele>238.0</ele><time>2026-04-26T09:32:29.001Z</time></trkpt><trkpt lat="40.616149577956534" lon="14.436419112054386"><ele>238.0</ele><time>2026-04-26T09:32:30.001Z</time></trkpt><trkpt lat="40.616240108607386" lon="14.436439281729987"><ele>238.0</ele><time>2026-04-26T09:32:31.001Z</time></trkpt><trkpt lat="40.61632868448899" lon="14.436469866635758"><ele>244.60000000000002</ele><time>2026-04-26T09:32:32.001Z</time></trkpt><trkpt lat="40.616416357483764" lon="14.436502903755853"><ele>251.20000000000002</ele><time>2026-04-26T09:32:33.001Z</time></trkpt><trkpt lat="40.61649969386459" lon="14.436555174946031"><ele>257.8</ele><time>2026-04-26T09:32:34.001Z</time></trkpt><trkpt lat="40.61658293439229" lon="14.436620192396038"><ele>264.40000000000003</ele><time>2026-04-26T09:32:35.001Z</time></trkpt><trkpt lat="40.61665873747432" lon="14.436703683535688"><ele>271.0</ele><time>2026-04-26T09:32:36.001Z</time></trkpt><trkpt lat="40.61669866762621" lon="14.436820971731027"><ele>271.0</ele><time>2026-04-26T09:32:37.001Z</time></trkpt><trkpt lat="40.61671014808694" lon="14.436929952701732"><ele>271.0</ele><time>2026-04-26T09:32:38.001Z</time></trkpt><trkpt lat="40.61670245437715" lon="14.437049061871454"><ele>271.0</ele><time>2026-04-26T09:32:39.001Z</time></trkpt><trkpt lat="40.616682457877495" lon="14.43715595948683"><ele>271.0</ele><time>2026-04-26T09:32:40.001Z</time></trkpt><trkpt lat="40.616665899176596" lon="14.437282948335167"><ele>271.0</ele><time>2026-04-26T09:32:41.001Z</time></trkpt><trkpt lat="40.61666465980936" lon="14.43740153729149"><ele>271.0</ele><time>2026-04-26T09:32:42.001Z</time></trkpt><trkpt lat="40.61667574448242" lon="14.437515498912838"><ele>266.0</ele><time>2026-04-26T09:32:43.001Z</time></trkpt><trkpt lat="40.616683001545056" lon="14.437618614833246"><ele>261.0</ele><time>2026-04-26T09:32:44.001Z</time></trkpt><trkpt lat="40.61667545287073" lon="14.437730342846574"><ele>256.0</ele><time>2026-04-26T09:32:45.001Z</time></trkpt><trkpt lat="40.61665986852264" lon="14.437853974053453"><ele>251.0</ele><time>2026-04-26T09:32:46.001Z</time></trkpt><trkpt lat="40.616618234236974" lon="14.43797283131924"><ele>245.99999999999997</ele><time>2026-04-26T09:32:47.001Z</time></trkpt><trkpt lat="40.616581723666506" lon="14.438081848630235"><ele>241.0</ele><time>2026-04-26T09:32:48.001Z</time></trkpt><trkpt lat="40.61657287809502" lon="14.438186182189531"><ele>235.99999999999997</ele><time>2026-04-26T09:32:49.001Z</time></trkpt><trkpt lat="40.61660270299282" lon="14.438289699142153"><ele>231.0</ele><time>2026-04-26T09:32:50.001Z</time></trkpt><trkpt lat="40.61663455994542" lon="14.438376426555354"><ele>226.0</ele><time>2026-04-26T09:32:51.001Z</time></trkpt><trkpt lat="40.61667196263474" lon="14.438464019058314"><ele>221.0</ele><time>2026-04-26T09:32:52.001Z</time></trkpt><trkpt lat="40.616709032376626" lon="14.438552120358763"><ele>215.99999999999997</ele><time>2026-04-26T09:32:53.001Z</time></trkpt><trkpt lat="40.61674623455877" lon="14.438637973522978"><ele>211.0</ele><time>2026-04-26T09:32:54.001Z</time></trkpt><trkpt lat="40.6167928291577" lon="14.43870818796265"><ele>210.99999999999997</ele><time>2026-04-26T09:32:55.001Z</time></trkpt><trkpt lat="40.61685587037323" lon="14.438758125807563"><ele>211.0</ele><time>2026-04-26T09:32:56.001Z</time></trkpt><trkpt lat="40.61692129496168" lon="14.438825254207059"><ele>211.0</ele><time>2026-04-26T09:32:57.001Z</time></trkpt><trkpt lat="40.61700297363438" lon="14.438854423204926"><ele>211.0</ele><time>2026-04-26T09:32:58.001Z</time></trkpt><trkpt lat="40.617071204011864" lon="14.438921985766884"><ele>210.99999999999997</ele><time>2026-04-26T09:32:59.001Z</time></trkpt><trkpt lat="40.61714416408396" lon="14.438956359852131"><ele>211.0</ele><time>2026-04-26T09:33:00.001Z</time></trkpt><trkpt lat="40.61719753196609" lon="14.439028929086327"><ele>213.83333333333331</ele><time>2026-04-26T09:33:01.001Z</time></trkpt><trkpt lat="40.61723228112085" lon="14.439123350196056"><ele>216.66666666666666</ele><time>2026-04-26T09:33:02.001Z</time></trkpt><trkpt lat="40.61725654459665" lon="14.439234068150576"><ele>219.5</ele><time>2026-04-26T09:33:03.001Z</time></trkpt><trkpt lat="40.61728461759645" lon="14.439343283620643"><ele>222.33333333333331</ele><time>2026-04-26T09:33:04.001Z</time></trkpt><trkpt lat="40.61730091032345" lon="14.439451010203292"><ele>225.16666666666666</ele><time>2026-04-26T09:33:05.001Z</time></trkpt><trkpt lat="40.617301667614704" lon="14.43955471107294"><ele>228.0</ele><time>2026-04-26T09:33:06.001Z</time></trkpt><trkpt lat="40.61729785494459" lon="14.439656373058499"><ele>228.0</ele><time>2026-04-26T09:33:07.001Z</time></trkpt><trkpt lat="40.617292733484085" lon="14.439755602247965"><ele>227.99999999999997</ele><time>2026-04-26T09:33:08.001Z</time></trkpt><trkpt lat="40.617288321179814" lon="14.439847763099296"><ele>228.0</ele><time>2026-04-26T09:33:09.001Z</time></trkpt><trkpt lat="40.61727975954589" lon="14.439936063254324"><ele>228.0</ele><time>2026-04-26T09:33:10.001Z</time></trkpt><trkpt lat="40.61727078266579" lon="14.440021055825419"><ele>227.99999999999997</ele><time>2026-04-26T09:33:11.001Z</time></trkpt><trkpt lat="40.61725935555459" lon="14.440106429167594"><ele>228.0</ele><time>2026-04-26T09:33:12.001Z</time></trkpt><trkpt lat="40.61724350798215" lon="14.44018780430856"><ele>228.0</ele><time>2026-04-26T09:33:13.001Z</time></trkpt><trkpt lat="40.61726180943455" lon="14.44026740101021"><ele>228.0</ele><time>2026-04-26T09:33:14.001Z</time></trkpt><trkpt lat="40.617308468355965" lon="14.440332019657973"><ele>227.99999999999997</ele><time>2026-04-26T09:33:15.001Z</time></trkpt><trkpt lat="40.61737817499883" lon="14.440372176694497"><ele>228.0</ele><time>2026-04-26T09:33:16.001Z</time></trkpt><trkpt lat="40.61745063943815" lon="14.440403473639465"><ele>228.0</ele><time>2026-04-26T09:33:17.001Z</time></trkpt><trkpt lat="40.61751787016142" lon="14.440438199948728"><ele>227.99999999999997</ele><time>2026-04-26T09:33:18.001Z</time></trkpt><trkpt lat="40.6175799024485" lon="14.440475855021976"><ele>228.0</ele><time>2026-04-26T09:33:19.001Z</time></trkpt><trkpt lat="40.61764860006629" lon="14.440518355473582"><ele>228.0</ele><time>2026-04-26T09:33:20.001Z</time></trkpt><trkpt lat="40.61771965010609" lon="14.440553319475828"><ele>226.28571428571428</ele><time>2026-04-26T09:33:21.001Z</time></trkpt><trkpt lat="40.6177882203945" lon="14.440590480185373"><ele>224.57142857142856</ele><time>2026-04-26T09:33:22.001Z</time></trkpt><trkpt lat="40.61784830241276" lon="14.440634305752964"><ele>222.85714285714283</ele><time>2026-04-26T09:33:23.001Z</time></trkpt><trkpt lat="40.61789550020203" lon="14.440700545151465"><ele>221.14285714285714</ele><time>2026-04-26T09:33:24.001Z</time></trkpt><trkpt lat="40.61790813795271" lon="14.440787509980373"><ele>219.42857142857142</ele><time>2026-04-26T09:33:25.001Z</time></trkpt><trkpt lat="40.61786979884111" lon="14.440868014786181"><ele>217.71428571428572</ele><time>2026-04-26T09:33:26.001Z</time></trkpt><trkpt lat="40.61784655528967" lon="14.44095549861964"><ele>216.0</ele><time>2026-04-26T09:33:27.001Z</time></trkpt><trkpt lat="40.61781546082685" lon="14.441031365335034"><ele>216.0</ele><time>2026-04-26T09:33:28.001Z</time></trkpt><trkpt lat="40.61777982067231" lon="14.441173368931134"><ele>216.00000000000003</ele><time>2026-04-26T09:33:30.001Z</time></trkpt><trkpt lat="40.61784743296418" lon="14.441324582279082"><ele>216.00000000000003</ele><time>2026-04-26T09:33:32.001Z</time></trkpt><trkpt lat="40.61788946257127" lon="14.441394035820492"><ele>216.0</ele><time>2026-04-26T09:33:33.001Z</time></trkpt><trkpt lat="40.61795796660279" lon="14.441522334924977"><ele>216.0</ele><time>2026-04-26T09:33:35.001Z</time></trkpt><trkpt lat="40.61797507779807" lon="14.441672495739125"><ele>218.71428571428572</ele><time>2026-04-26T09:33:37.001Z</time></trkpt><trkpt lat="40.617937075279414" lon="14.441759403455402"><ele>221.42857142857142</ele><time>2026-04-26T09:33:38.001Z</time></trkpt><trkpt lat="40.617888131013096" lon="14.441839185342685"><ele>224.14285714285714</ele><time>2026-04-26T09:33:39.001Z</time></trkpt><trkpt lat="40.61784050833418" lon="14.4419198259443"><ele>226.85714285714283</ele><time>2026-04-26T09:33:40.001Z</time></trkpt><trkpt lat="40.61779838498856" lon="14.441992883466614"><ele>229.57142857142856</ele><time>2026-04-26T09:33:41.001Z</time></trkpt><trkpt lat="40.61775959322191" lon="14.44206475401642"><ele>232.28571428571428</ele><time>2026-04-26T09:33:42.001Z</time></trkpt><trkpt lat="40.61772622489891" lon="14.44213826116705"><ele>235.0</ele><time>2026-04-26T09:33:43.001Z</time></trkpt><trkpt lat="40.61771421530172" lon="14.442222860696438"><ele>222.83333333333331</ele><time>2026-04-26T09:33:44.001Z</time></trkpt><trkpt lat="40.617735202988946" lon="14.442319446972183"><ele>210.66666666666666</ele><time>2026-04-26T09:33:45.001Z</time></trkpt><trkpt lat="40.61774705517365" lon="14.442423551145374"><ele>198.5</ele><time>2026-04-26T09:33:46.001Z</time></trkpt><trkpt lat="40.61776620644228" lon="14.44252514980159"><ele>186.33333333333331</ele><time>2026-04-26T09:33:47.001Z</time></trkpt><trkpt lat="40.617764311683146" lon="14.442628236279873"><ele>174.16666666666666</ele><time>2026-04-26T09:33:48.001Z</time></trkpt><trkpt lat="40.617763422588524" lon="14.442731242196523"><ele>162.0</ele><time>2026-04-26T09:33:49.001Z</time></trkpt><trkpt lat="40.617748377389894" lon="14.442826088160878"><ele>162.0</ele><time>2026-04-26T09:33:50.001Z</time></trkpt><trkpt lat="40.617739088901864" lon="14.442919083966622"><ele>162.0</ele><time>2026-04-26T09:33:51.001Z</time></trkpt><trkpt lat="40.61771706314713" lon="14.443010125562028"><ele>162.0</ele><time>2026-04-26T09:33:52.001Z</time></trkpt><trkpt lat="40.6177370596632" lon="14.443103374126567"><ele>162.0</ele><time>2026-04-26T09:33:53.001Z</time></trkpt><trkpt lat="40.61781662370748" lon="14.44316310147259"><ele>162.0</ele><time>2026-04-26T09:33:54.001Z</time></trkpt><trkpt lat="40.617869052450054" lon="14.443245220362039"><ele>162.0</ele><time>2026-04-26T09:33:55.001Z</time></trkpt><trkpt lat="40.61793177725386" lon="14.443309322931563"><ele>171.16666666666666</ele><time>2026-04-26T09:33:56.002Z</time></trkpt><trkpt lat="40.618003586997446" lon="14.4433580820945"><ele>180.33333333333331</ele><time>2026-04-26T09:33:57.002Z</time></trkpt><trkpt lat="40.61805997824524" lon="14.443430093515909"><ele>189.5</ele><time>2026-04-26T09:33:58.002Z</time></trkpt><trkpt lat="40.61811657218334" lon="14.443496572860282"><ele>198.66666666666666</ele><time>2026-04-26T09:33:59.002Z</time></trkpt><trkpt lat="40.61817403721477" lon="14.443553573702523"><ele>207.83333333333331</ele><time>2026-04-26T09:34:00.002Z</time></trkpt><trkpt lat="40.61822688209528" lon="14.443617258095"><ele>217.0</ele><time>2026-04-26T09:34:01.002Z</time></trkpt><trkpt lat="40.618266329790984" lon="14.443698017966469"><ele>216.99999999999997</ele><time>2026-04-26T09:34:02.002Z</time></trkpt><trkpt lat="40.61829260547565" lon="14.443793367183257"><ele>217.0</ele><time>2026-04-26T09:34:03.002Z</time></trkpt><trkpt lat="40.61828318662443" lon="14.443904299817888"><ele>217.0</ele><time>2026-04-26T09:34:04.002Z</time></trkpt><trkpt lat="40.61827670925302" lon="14.444022463109265"><ele>217.0</ele><time>2026-04-26T09:34:05.002Z</time></trkpt><trkpt lat="40.61825267779556" lon="14.444132722679418"><ele>216.99999999999997</ele><time>2026-04-26T09:34:06.001Z</time></trkpt><trkpt lat="40.618246494511425" lon="14.444244438886406"><ele>217.0</ele><time>2026-04-26T09:34:07.001Z</time></trkpt><trkpt lat="40.618259694757256" lon="14.444352672767398"><ele>211.49999999999997</ele><time>2026-04-26T09:34:08.001Z</time></trkpt><trkpt lat="40.61826254875119" lon="14.44446106110047"><ele>206.0</ele><time>2026-04-26T09:34:09.001Z</time></trkpt><trkpt lat="40.61827768491667" lon="14.444563590249539"><ele>200.5</ele><time>2026-04-26T09:34:10.001Z</time></trkpt><trkpt lat="40.61829648442685" lon="14.444670379201991"><ele>195.0</ele><time>2026-04-26T09:34:11.001Z</time></trkpt><trkpt lat="40.618322881238086" lon="14.444778607881904"><ele>189.5</ele><time>2026-04-26T09:34:12.001Z</time></trkpt><trkpt lat="40.61836718682544" lon="14.44488698388094"><ele>184.0</ele><time>2026-04-26T09:34:13.001Z</time></trkpt><trkpt lat="40.61842179629266" lon="14.444989313471257"><ele>179.16666666666669</ele><time>2026-04-26T09:34:14.001Z</time></trkpt><trkpt lat="40.618476987264124" lon="14.445079656484959"><ele>174.33333333333334</ele><time>2026-04-26T09:34:15.001Z</time></trkpt><trkpt lat="40.618536480575465" lon="14.445160904742838"><ele>169.5</ele><time>2026-04-26T09:34:16.001Z</time></trkpt><trkpt lat="40.61859696436628" lon="14.445227885948512"><ele>164.66666666666666</ele><time>2026-04-26T09:34:17.001Z</time></trkpt><trkpt lat="40.61864630103696" lon="14.445315255816485"><ele>159.83333333333331</ele><time>2026-04-26T09:34:18.001Z</time></trkpt><trkpt lat="40.61868946118214" lon="14.445394849497859"><ele>155.0</ele><time>2026-04-26T09:34:19.001Z</time></trkpt><trkpt lat="40.618742953063766" lon="14.445474801288555"><ele>155.0</ele><time>2026-04-26T09:34:20.001Z</time></trkpt><trkpt lat="40.61879439293405" lon="14.445553926556608"><ele>155.0</ele><time>2026-04-26T09:34:21.001Z</time></trkpt><trkpt lat="40.6188390802738" lon="14.445639948140672"><ele>155.0</ele><time>2026-04-26T09:34:22.001Z</time></trkpt><trkpt lat="40.61886760170198" lon="14.445738773509438"><ele>155.0</ele><time>2026-04-26T09:34:23.001Z</time></trkpt><trkpt lat="40.618877236766274" lon="14.445845551750947"><ele>155.0</ele><time>2026-04-26T09:34:24.001Z</time></trkpt><trkpt lat="40.61887578548699" lon="14.445954698399325"><ele>155.0</ele><time>2026-04-26T09:34:25.001Z</time></trkpt><trkpt lat="40.61888360858768" lon="14.446060478318019"><ele>155.0</ele><time>2026-04-26T09:34:26.001Z</time></trkpt><trkpt lat="40.618890584271746" lon="14.446178853667075"><ele>155.0</ele><time>2026-04-26T09:34:27.001Z</time></trkpt><trkpt lat="40.61889490223781" lon="14.446300561952022"><ele>155.0</ele><time>2026-04-26T09:34:28.001Z</time></trkpt><trkpt lat="40.61889494284654" lon="14.446415248420161"><ele>155.0</ele><time>2026-04-26T09:34:29.001Z</time></trkpt><trkpt lat="40.61888773042222" lon="14.446526835575288"><ele>155.0</ele><time>2026-04-26T09:34:30.001Z</time></trkpt><trkpt lat="40.61888086334541" lon="14.446635646113641"><ele>155.0</ele><time>2026-04-26T09:34:31.001Z</time></trkpt><trkpt lat="40.61887088780418" lon="14.446742763899254"><ele>167.5</ele><time>2026-04-26T09:34:32.001Z</time></trkpt><trkpt lat="40.61885826921112" lon="14.446847863194202"><ele>180.0</ele><time>2026-04-26T09:34:33.001Z</time></trkpt><trkpt lat="40.61884770864205" lon="14.446949365097906"><ele>192.5</ele><time>2026-04-26T09:34:34.001Z</time></trkpt><trkpt lat="40.61884012749759" lon="14.447057140909592"><ele>205.0</ele><time>2026-04-26T09:34:35.001Z</time></trkpt><trkpt lat="40.618828258467" lon="14.447160219545587"><ele>217.50000000000003</ele><time>2026-04-26T09:34:36.001Z</time></trkpt><trkpt lat="40.61881364078991" lon="14.447256863697582"><ele>230.0</ele><time>2026-04-26T09:34:37.001Z</time></trkpt><trkpt lat="40.618838033087265" lon="14.447352672528996"><ele>230.00000000000003</ele><time>2026-04-26T09:34:38.001Z</time></trkpt><trkpt lat="40.61888916334054" lon="14.447440329582305"><ele>230.0</ele><time>2026-04-26T09:34:39.001Z</time></trkpt><trkpt lat="40.61895249368627" lon="14.447493574490656"><ele>230.0</ele><time>2026-04-26T09:34:40.001Z</time></trkpt><trkpt lat="40.6190104307933" lon="14.44753805432186"><ele>230.0</ele><time>2026-04-26T09:34:41.001Z</time></trkpt><trkpt lat="40.61910525777869" lon="14.447618905821667"><ele>230.00000000000003</ele><time>2026-04-26T09:34:43.001Z</time></trkpt><trkpt lat="40.61916759113586" lon="14.447726376204741"><ele>230.0</ele><time>2026-04-26T09:34:45.001Z</time></trkpt><trkpt lat="40.61916953716087" lon="14.447869178356832"><ele>219.66666666666669</ele><time>2026-04-26T09:34:47.001Z</time></trkpt><trkpt lat="40.61916261799484" lon="14.448021591180478"><ele>209.33333333333334</ele><time>2026-04-26T09:34:49.001Z</time></trkpt><trkpt lat="40.6191735691773" lon="14.448108316562406"><ele>199.0</ele><time>2026-04-26T09:34:50.001Z</time></trkpt><trkpt lat="40.61921118981811" lon="14.448271128167704"><ele>188.66666666666669</ele><time>2026-04-26T09:34:52.001Z</time></trkpt><trkpt lat="40.619244513591475" lon="14.448350332680088"><ele>178.33333333333334</ele><time>2026-04-26T09:34:53.001Z</time></trkpt><trkpt lat="40.619289583205195" lon="14.448413964570788"><ele>168.0</ele><time>2026-04-26T09:34:54.001Z</time></trkpt><trkpt lat="40.61940069912897" lon="14.448501707350083"><ele>168.0</ele><time>2026-04-26T09:34:56.001Z</time></trkpt><trkpt lat="40.619461989950636" lon="14.448549096670831"><ele>168.0</ele><time>2026-04-26T09:34:57.001Z</time></trkpt><trkpt lat="40.619520599301076" lon="14.448600065306337"><ele>168.0</ele><time>2026-04-26T09:34:58.001Z</time></trkpt><trkpt lat="40.61956838139871" lon="14.448660531317483"><ele>168.0</ele><time>2026-04-26T09:34:59.001Z</time></trkpt><trkpt lat="40.61960827981116" lon="14.448733715064968"><ele>168.0</ele><time>2026-04-26T09:35:00.001Z</time></trkpt><trkpt lat="40.61963570577315" lon="14.448820436863178"><ele>168.0</ele><time>2026-04-26T09:35:01.001Z</time></trkpt><trkpt lat="40.61966287867841" lon="14.448916849346492"><ele>168.0</ele><time>2026-04-26T09:35:02.001Z</time></trkpt><trkpt lat="40.619659765696596" lon="14.449030212491326"><ele>169.0</ele><time>2026-04-26T09:35:03.001Z</time></trkpt><trkpt lat="40.619642618692836" lon="14.449143344218225"><ele>170.0</ele><time>2026-04-26T09:35:04.001Z</time></trkpt><trkpt lat="40.619626248199864" lon="14.449252798066286"><ele>171.0</ele><time>2026-04-26T09:35:05.001Z</time></trkpt><trkpt lat="40.61961067105902" lon="14.449356057870618"><ele>172.0</ele><time>2026-04-26T09:35:06.001Z</time></trkpt><trkpt lat="40.619602552702645" lon="14.449455285846039"><ele>173.0</ele><time>2026-04-26T09:35:07.001Z</time></trkpt><trkpt lat="40.619591221597354" lon="14.449552597483587"><ele>174.0</ele><time>2026-04-26T09:35:08.001Z</time></trkpt><trkpt lat="40.61961549658993" lon="14.449648235516358"><ele>174.0</ele><time>2026-04-26T09:35:09.001Z</time></trkpt><trkpt lat="40.619651758948464" lon="14.4497313524716"><ele>174.0</ele><time>2026-04-26T09:35:10.001Z</time></trkpt><trkpt lat="40.61969158989618" lon="14.449807933251302"><ele>174.0</ele><time>2026-04-26T09:35:11.001Z</time></trkpt><trkpt lat="40.6197511257767" lon="14.449882442736422"><ele>174.0</ele><time>2026-04-26T09:35:12.001Z</time></trkpt><trkpt lat="40.61983583823262" lon="14.449912252917972"><ele>174.0</ele><time>2026-04-26T09:35:13.001Z</time></trkpt><trkpt lat="40.61990281007386" lon="14.449977969513673"><ele>174.0</ele><time>2026-04-26T09:35:14.001Z</time></trkpt><trkpt lat="40.61997875284956" lon="14.450025780439953"><ele>174.0</ele><time>2026-04-26T09:35:15.001Z</time></trkpt><trkpt lat="40.62004797258633" lon="14.45006935879721"><ele>174.0</ele><time>2026-04-26T09:35:16.001Z</time></trkpt><trkpt lat="40.620113850512304" lon="14.45009222064531"><ele>174.0</ele><time>2026-04-26T09:35:17.001Z</time></trkpt><trkpt lat="40.62021033677972" lon="14.450174469816664"><ele>174.0</ele><time>2026-04-26T09:35:19.001Z</time></trkpt><trkpt lat="40.62024807386767" lon="14.450339694895463"><ele>174.0</ele><time>2026-04-26T09:35:21.001Z</time></trkpt><trkpt lat="40.620264340820924" lon="14.450441779300322"><ele>168.33333333333334</ele><time>2026-04-26T09:35:22.001Z</time></trkpt><trkpt lat="40.62026436897645" lon="14.450549961590212"><ele>162.66666666666666</ele><time>2026-04-26T09:35:23.001Z</time></trkpt><trkpt lat="40.62026903180111" lon="14.45065274243049"><ele>157.0</ele><time>2026-04-26T09:35:24.001Z</time></trkpt><trkpt lat="40.62027189135817" lon="14.450753465259911"><ele>151.33333333333331</ele><time>2026-04-26T09:35:25.001Z</time></trkpt><trkpt lat="40.62027940181985" lon="14.450848668212435"><ele>145.66666666666666</ele><time>2026-04-26T09:35:26.001Z</time></trkpt><trkpt lat="40.62029022809682" lon="14.450939621518751"><ele>140.0</ele><time>2026-04-26T09:35:27.001Z</time></trkpt><trkpt lat="40.62031612140532" lon="14.451027148517111"><ele>146.33333333333331</ele><time>2026-04-26T09:35:28.001Z</time></trkpt><trkpt lat="40.62036484312165" lon="14.451099427033757"><ele>152.66666666666666</ele><time>2026-04-26T09:35:29.001Z</time></trkpt><trkpt lat="40.62042896888255" lon="14.451158979598759"><ele>159.0</ele><time>2026-04-26T09:35:30.001Z</time></trkpt><trkpt lat="40.62050490330451" lon="14.451197806618804"><ele>165.33333333333334</ele><time>2026-04-26T09:35:31.001Z</time></trkpt><trkpt lat="40.62057652030392" lon="14.45123716474962"><ele>171.66666666666669</ele><time>2026-04-26T09:35:32.001Z</time></trkpt><trkpt lat="40.62064354434634" lon="14.4512771786757"><ele>178.0</ele><time>2026-04-26T09:35:33.001Z</time></trkpt><trkpt lat="40.62070716839796" lon="14.451315561442073"><ele>178.0</ele><time>2026-04-26T09:35:34.001Z</time></trkpt><trkpt lat="40.62076447764423" lon="14.451351276475927"><ele>178.0</ele><time>2026-04-26T09:35:35.001Z</time></trkpt><trkpt lat="40.62085516822244" lon="14.451442920402537"><ele>178.0</ele><time>2026-04-26T09:35:37.001Z</time></trkpt><trkpt lat="40.62088093308174" lon="14.451523723541712"><ele>178.0</ele><time>2026-04-26T09:35:38.001Z</time></trkpt><trkpt lat="40.6208917500068" lon="14.451620461244216"><ele>178.0</ele><time>2026-04-26T09:35:39.001Z</time></trkpt><trkpt lat="40.62090642321833" lon="14.451715368340901"><ele>178.0</ele><time>2026-04-26T09:35:40.001Z</time></trkpt><trkpt lat="40.62093328894884" lon="14.451810966653984"><ele>178.0</ele><time>2026-04-26T09:35:41.001Z</time></trkpt><trkpt lat="40.62097159980139" lon="14.451907736940159"><ele>178.0</ele><time>2026-04-26T09:35:42.001Z</time></trkpt><trkpt lat="40.62101482617981" lon="14.45200362223211"><ele>178.0</ele><time>2026-04-26T09:35:43.001Z</time></trkpt><trkpt lat="40.62106070657612" lon="14.452097248276093"><ele>178.0</ele><time>2026-04-26T09:35:44.001Z</time></trkpt><trkpt lat="40.621107471638666" lon="14.452187570227483"><ele>178.0</ele><time>2026-04-26T09:35:45.001Z</time></trkpt><trkpt lat="40.621138868645495" lon="14.452279577949541"><ele>178.0</ele><time>2026-04-26T09:35:46.001Z</time></trkpt><trkpt lat="40.62116205225364" lon="14.452373211521039"><ele>179.66666666666669</ele><time>2026-04-26T09:35:47.001Z</time></trkpt><trkpt lat="40.621176380693726" lon="14.452463266560327"><ele>181.33333333333334</ele><time>2026-04-26T09:35:48.001Z</time></trkpt><trkpt lat="40.62117788713027" lon="14.45254707599992"><ele>183.0</ele><time>2026-04-26T09:35:49.001Z</time></trkpt><trkpt lat="40.62118399502673" lon="14.452708843048487"><ele>184.66666666666666</ele><time>2026-04-26T09:35:51.001Z</time></trkpt><trkpt lat="40.621220503613344" lon="14.452861901709332"><ele>186.33333333333331</ele><time>2026-04-26T09:35:53.001Z</time></trkpt><trkpt lat="40.62127141383578" lon="14.452921373908094"><ele>188.0</ele><time>2026-04-26T09:35:54.001Z</time></trkpt><trkpt lat="40.62134322269979" lon="14.452950009913966"><ele>188.0</ele><time>2026-04-26T09:35:55.001Z</time></trkpt><trkpt lat="40.621420782217065" lon="14.452950603220032"><ele>188.0</ele><time>2026-04-26T09:35:56.001Z</time></trkpt><trkpt lat="40.62149801564151" lon="14.452927555618517"><ele>188.0</ele><time>2026-04-26T09:35:57.001Z</time></trkpt><trkpt lat="40.62158044296708" lon="14.452896109308806"><ele>188.0</ele><time>2026-04-26T09:35:58.001Z</time></trkpt><trkpt lat="40.62166062743718" lon="14.452859369569856"><ele>188.0</ele><time>2026-04-26T09:35:59.001Z</time></trkpt><trkpt lat="40.62173922901433" lon="14.452824458928395"><ele>188.0</ele><time>2026-04-26T09:36:00.001Z</time></trkpt><trkpt lat="40.62180966837032" lon="14.452795856931342"><ele>188.0</ele><time>2026-04-26T09:36:01.001Z</time></trkpt><trkpt lat="40.62190970293962" lon="14.452767417108591"><ele>188.0</ele><time>2026-04-26T09:36:03.001Z</time></trkpt><trkpt lat="40.621986732992426" lon="14.4527964993256"><ele>188.0</ele><time>2026-04-26T09:36:05.001Z</time></trkpt><trkpt lat="40.62199849126059" lon="14.452929894693918"><ele>188.0</ele><time>2026-04-26T09:36:07.001Z</time></trkpt><trkpt lat="40.62195874238769" lon="14.453011279698961"><ele>188.0</ele><time>2026-04-26T09:36:08.001Z</time></trkpt><trkpt lat="40.62189095751806" lon="14.453083104706456"><ele>188.0</ele><time>2026-04-26T09:36:09.001Z</time></trkpt><trkpt lat="40.62183469578429" lon="14.453164610894992"><ele>183.66666666666666</ele><time>2026-04-26T09:36:10.001Z</time></trkpt><trkpt lat="40.621789292076016" lon="14.453262107030339"><ele>179.33333333333331</ele><time>2026-04-26T09:36:11.001Z</time></trkpt><trkpt lat="40.6217437953988" lon="14.453359493206198"><ele>175.0</ele><time>2026-04-26T09:36:12.001Z</time></trkpt><trkpt lat="40.62170200593016" lon="14.453457841929007"><ele>170.66666666666666</ele><time>2026-04-26T09:36:13.001Z</time></trkpt><trkpt lat="40.621668035295905" lon="14.453565373806633"><ele>166.33333333333334</ele><time>2026-04-26T09:36:14.001Z</time></trkpt><trkpt lat="40.62164511034637" lon="14.4536822883956"><ele>162.0</ele><time>2026-04-26T09:36:15.001Z</time></trkpt><trkpt lat="40.621628921718" lon="14.453800663693325"><ele>161.16666666666666</ele><time>2026-04-26T09:36:16.001Z</time></trkpt><trkpt lat="40.621616394829466" lon="14.453919416516966"><ele>160.33333333333334</ele><time>2026-04-26T09:36:17.001Z</time></trkpt><trkpt lat="40.62160147155674" lon="14.45403723643979"><ele>159.5</ele><time>2026-04-26T09:36:18.001Z</time></trkpt><trkpt lat="40.62158978595201" lon="14.454153736791602"><ele>158.66666666666669</ele><time>2026-04-26T09:36:19.001Z</time></trkpt><trkpt lat="40.62157624809416" lon="14.454263483044471"><ele>157.83333333333334</ele><time>2026-04-26T09:36:20.001Z</time></trkpt><trkpt lat="40.62155870182793" lon="14.454366798209072"><ele>157.0</ele><time>2026-04-26T09:36:21.001Z</time></trkpt><trkpt lat="40.62153368912166" lon="14.454468285419788"><ele>157.0</ele><time>2026-04-26T09:36:22.001Z</time></trkpt><trkpt lat="40.621493278702815" lon="14.45456412326271"><ele>157.0</ele><time>2026-04-26T09:36:23.001Z</time></trkpt><trkpt lat="40.62144398849286" lon="14.454665893081252"><ele>157.0</ele><time>2026-04-26T09:36:24.001Z</time></trkpt><trkpt lat="40.621394234288374" lon="14.45477951840916"><ele>157.0</ele><time>2026-04-26T09:36:25.001Z</time></trkpt><trkpt lat="40.621340739097" lon="14.454889296544172"><ele>157.0</ele><time>2026-04-26T09:36:26.001Z</time></trkpt><trkpt lat="40.621276712066546" lon="14.454991810919024"><ele>161.8</ele><time>2026-04-26T09:36:27.001Z</time></trkpt><trkpt lat="40.621205741890485" lon="14.455084699338267"><ele>166.6</ele><time>2026-04-26T09:36:28.001Z</time></trkpt><trkpt lat="40.62113710705391" lon="14.455175647559336"><ele>171.4</ele><time>2026-04-26T09:36:29.001Z</time></trkpt><trkpt lat="40.62105873868624" lon="14.45526443872317"><ele>176.20000000000002</ele><time>2026-04-26T09:36:30.001Z</time></trkpt><trkpt lat="40.621003340805814" lon="14.455378631713923"><ele>181.0</ele><time>2026-04-26T09:36:31.001Z</time></trkpt><trkpt lat="40.62096403565293" lon="14.455511219756715"><ele>181.0</ele><time>2026-04-26T09:36:32.001Z</time></trkpt><trkpt lat="40.620934237623004" lon="14.45564020540826"><ele>181.0</ele><time>2026-04-26T09:36:33.001Z</time></trkpt><trkpt lat="40.62090496008219" lon="14.45577014004103"><ele>181.0</ele><time>2026-04-26T09:36:34.001Z</time></trkpt><trkpt lat="40.62087619781054" lon="14.455900483546458"><ele>181.0</ele><time>2026-04-26T09:36:35.001Z</time></trkpt><trkpt lat="40.62084703130124" lon="14.456032660014037"><ele>181.0</ele><time>2026-04-26T09:36:36.001Z</time></trkpt><trkpt lat="40.620818216397375" lon="14.456163241593984"><ele>176.0</ele><time>2026-04-26T09:36:37.001Z</time></trkpt><trkpt lat="40.62078959483051" lon="14.45629294784376"><ele>171.0</ele><time>2026-04-26T09:36:38.001Z</time></trkpt><trkpt lat="40.62076244198686" lon="14.456423017927367"><ele>166.0</ele><time>2026-04-26T09:36:39.001Z</time></trkpt><trkpt lat="40.620747252811825" lon="14.45655862862202"><ele>161.0</ele><time>2026-04-26T09:36:40.001Z</time></trkpt><trkpt lat="40.62074990109902" lon="14.456698636380349"><ele>156.0</ele><time>2026-04-26T09:36:41.001Z</time></trkpt><trkpt lat="40.620763839836776" lon="14.456837052605598"><ele>156.0</ele><time>2026-04-26T09:36:42.001Z</time></trkpt><trkpt lat="40.6207792305516" lon="14.456969909887398"><ele>156.0</ele><time>2026-04-26T09:36:43.001Z</time></trkpt><trkpt lat="40.62079716562344" lon="14.45709426863018"><ele>156.0</ele><time>2026-04-26T09:36:44.001Z</time></trkpt><trkpt lat="40.620821875941076" lon="14.457211260225094"><ele>156.0</ele><time>2026-04-26T09:36:45.001Z</time></trkpt><trkpt lat="40.620879076488784" lon="14.457317080058058"><ele>156.0</ele><time>2026-04-26T09:36:46.001Z</time></trkpt><trkpt lat="40.62093932287219" lon="14.457399768360313"><ele>157.66666666666666</ele><time>2026-04-26T09:36:47.001Z</time></trkpt><trkpt lat="40.62102607328736" lon="14.45743444493457"><ele>159.33333333333334</ele><time>2026-04-26T09:36:48.001Z</time></trkpt><trkpt lat="40.6210966663761" lon="14.457471508474068"><ele>161.0</ele><time>2026-04-26T09:36:49.001Z</time></trkpt><trkpt lat="40.621166328672714" lon="14.457493159322487"><ele>162.66666666666669</ele><time>2026-04-26T09:36:50.001Z</time></trkpt><trkpt lat="40.6212299764481" lon="14.457489984195213"><ele>164.33333333333334</ele><time>2026-04-26T09:36:51.001Z</time></trkpt><trkpt lat="40.621327726022315" lon="14.457493263632442"><ele>166.0</ele><time>2026-04-26T09:36:53.001Z</time></trkpt><trkpt lat="40.621402735893625" lon="14.45749912296771"><ele>166.0</ele><time>2026-04-26T09:36:55.001Z</time></trkpt><trkpt lat="40.621466358351" lon="14.457605607405098"><ele>166.0</ele><time>2026-04-26T09:36:57.001Z</time></trkpt><trkpt lat="40.62146810623914" lon="14.457697498985807"><ele>166.0</ele><time>2026-04-26T09:36:58.001Z</time></trkpt><trkpt lat="40.621448603704756" lon="14.457785473267858"><ele>166.0</ele><time>2026-04-26T09:36:59.001Z</time></trkpt><trkpt lat="40.62141972250984" lon="14.457868630575893"><ele>166.0</ele><time>2026-04-26T09:37:00.001Z</time></trkpt><trkpt lat="40.62137436290257" lon="14.457942464929797"><ele>166.0</ele><time>2026-04-26T09:37:01.001Z</time></trkpt><trkpt lat="40.6213137239212" lon="14.457999462143414"><ele>169.33333333333334</ele><time>2026-04-26T09:37:02.001Z</time></trkpt><trkpt lat="40.621235876804555" lon="14.458037374857764"><ele>172.66666666666669</ele><time>2026-04-26T09:37:03.001Z</time></trkpt><trkpt lat="40.621161105292664" lon="14.458074222077215"><ele>176.0</ele><time>2026-04-26T09:37:04.001Z</time></trkpt><trkpt lat="40.621084924168784" lon="14.458146032746678"><ele>179.33333333333334</ele><time>2026-04-26T09:37:05.001Z</time></trkpt><trkpt lat="40.621018951218566" lon="14.458231916102408"><ele>182.66666666666666</ele><time>2026-04-26T09:37:06.001Z</time></trkpt><trkpt lat="40.620960442869695" lon="14.458321372298013"><ele>186.0</ele><time>2026-04-26T09:37:07.001Z</time></trkpt><trkpt lat="40.62090948663087" lon="14.45841255129836"><ele>181.5</ele><time>2026-04-26T09:37:08.001Z</time></trkpt><trkpt lat="40.6208529891102" lon="14.458497061356095"><ele>177.0</ele><time>2026-04-26T09:37:09.001Z</time></trkpt><trkpt lat="40.62079356837087" lon="14.458583441685844"><ele>172.5</ele><time>2026-04-26T09:37:10.001Z</time></trkpt><trkpt lat="40.62073467964148" lon="14.458677910729936"><ele>168.0</ele><time>2026-04-26T09:37:11.001Z</time></trkpt><trkpt lat="40.6206777437735" lon="14.458770810159272"><ele>163.5</ele><time>2026-04-26T09:37:12.001Z</time></trkpt><trkpt lat="40.620619222555625" lon="14.458860077355489"><ele>159.0</ele><time>2026-04-26T09:37:13.001Z</time></trkpt><trkpt lat="40.620562366527565" lon="14.45894749221079"><ele>159.0</ele><time>2026-04-26T09:37:14.001Z</time></trkpt><trkpt lat="40.62050809023442" lon="14.459032620542866"><ele>159.0</ele><time>2026-04-26T09:37:15.001Z</time></trkpt><trkpt lat="40.62045665131967" lon="14.459116261738883"><ele>159.0</ele><time>2026-04-26T09:37:16.001Z</time></trkpt><trkpt lat="40.62039403174178" lon="14.45918135485147"><ele>159.0</ele><time>2026-04-26T09:37:17.001Z</time></trkpt><trkpt lat="40.62034655037074" lon="14.459255773308334"><ele>159.0</ele><time>2026-04-26T09:37:18.001Z</time></trkpt><trkpt lat="40.62029584446991" lon="14.459334328989861"><ele>159.0</ele><time>2026-04-26T09:37:19.001Z</time></trkpt><trkpt lat="40.62024546181823" lon="14.45941123819085"><ele>157.16666666666666</ele><time>2026-04-26T09:37:20.001Z</time></trkpt><trkpt lat="40.620197506386205" lon="14.459484442100925"><ele>155.33333333333334</ele><time>2026-04-26T09:37:21.001Z</time></trkpt><trkpt lat="40.62014982355966" lon="14.459554318119215"><ele>153.5</ele><time>2026-04-26T09:37:22.001Z</time></trkpt><trkpt lat="40.620097902484794" lon="14.459619287720937"><ele>151.66666666666669</ele><time>2026-04-26T09:37:23.001Z</time></trkpt><trkpt lat="40.62001922030852" lon="14.459647236030415"><ele>149.83333333333334</ele><time>2026-04-26T09:37:24.001Z</time></trkpt><trkpt lat="40.619936895472286" lon="14.459675785825825"><ele>148.0</ele><time>2026-04-26T09:37:25.001Z</time></trkpt><trkpt lat="40.61985257889603" lon="14.459712938729258"><ele>148.0</ele><time>2026-04-26T09:37:26.001Z</time></trkpt><trkpt lat="40.61976548745084" lon="14.459735833586047"><ele>148.0</ele><time>2026-04-26T09:37:27.001Z</time></trkpt><trkpt lat="40.619686829307454" lon="14.459796096184206"><ele>148.0</ele><time>2026-04-26T09:37:28.001Z</time></trkpt><trkpt lat="40.61961879937481" lon="14.459874013689241"><ele>148.0</ele><time>2026-04-26T09:37:29.001Z</time></trkpt><trkpt lat="40.619562288405305" lon="14.459983275029012"><ele>148.0</ele><time>2026-04-26T09:37:30.001Z</time></trkpt><trkpt lat="40.619518969574735" lon="14.460092927054069"><ele>148.0</ele><time>2026-04-26T09:37:31.001Z</time></trkpt><trkpt lat="40.619480568340606" lon="14.460200615362517"><ele>148.0</ele><time>2026-04-26T09:37:32.001Z</time></trkpt><trkpt lat="40.619442261208704" lon="14.460306472429366"><ele>148.0</ele><time>2026-04-26T09:37:33.001Z</time></trkpt><trkpt lat="40.619403637885114" lon="14.460397136528258"><ele>148.0</ele><time>2026-04-26T09:37:34.001Z</time></trkpt><trkpt lat="40.61935309548862" lon="14.46047114614751"><ele>148.0</ele><time>2026-04-26T09:37:35.001Z</time></trkpt><trkpt lat="40.61928841582544" lon="14.460529885450612"><ele>148.0</ele><time>2026-04-26T09:37:36.001Z</time></trkpt><trkpt lat="40.61921346461932" lon="14.460574816919827"><ele>148.0</ele><time>2026-04-26T09:37:37.001Z</time></trkpt><trkpt lat="40.61913422134798" lon="14.460615928672645"><ele>148.0</ele><time>2026-04-26T09:37:38.001Z</time></trkpt><trkpt lat="40.61905942278048" lon="14.4606502513727"><ele>148.0</ele><time>2026-04-26T09:37:39.001Z</time></trkpt><trkpt lat="40.61898425071827" lon="14.460691929322083"><ele>148.0</ele><time>2026-04-26T09:37:40.001Z</time></trkpt><trkpt lat="40.61891136939767" lon="14.460760226134077"><ele>148.0</ele><time>2026-04-26T09:37:41.001Z</time></trkpt><trkpt lat="40.618858405461935" lon="14.460859887979916"><ele>148.0</ele><time>2026-04-26T09:37:42.001Z</time></trkpt><trkpt lat="40.61882491264418" lon="14.460986757235947"><ele>148.0</ele><time>2026-04-26T09:37:43.001Z</time></trkpt><trkpt lat="40.61881530735681" lon="14.461122605307414"><ele>148.0</ele><time>2026-04-26T09:37:44.001Z</time></trkpt><trkpt lat="40.61880730931218" lon="14.461250969204201"><ele>148.0</ele><time>2026-04-26T09:37:45.001Z</time></trkpt><trkpt lat="40.618800337490974" lon="14.461381628612578"><ele>148.0</ele><time>2026-04-26T09:37:46.001Z</time></trkpt><trkpt lat="40.618793805398234" lon="14.461504047004807"><ele>148.0</ele><time>2026-04-26T09:37:47.001Z</time></trkpt><trkpt lat="40.61878789527481" lon="14.461614243773223"><ele>148.0</ele><time>2026-04-26T09:37:48.001Z</time></trkpt><trkpt lat="40.618781656797466" lon="14.4617221005676"><ele>148.0</ele><time>2026-04-26T09:37:49.001Z</time></trkpt><trkpt lat="40.61877537146567" lon="14.461830767704875"><ele>148.0</ele><time>2026-04-26T09:37:50.001Z</time></trkpt><trkpt lat="40.61876767637064" lon="14.461935316220437"><ele>148.0</ele><time>2026-04-26T09:37:51.001Z</time></trkpt><trkpt lat="40.61875087152864" lon="14.462038975711257"><ele>148.0</ele><time>2026-04-26T09:37:52.001Z</time></trkpt><trkpt lat="40.61872487207816" lon="14.462144450772373"><ele>148.0</ele><time>2026-04-26T09:37:53.001Z</time></trkpt><trkpt lat="40.61868763984058" lon="14.462243144499672"><ele>148.0</ele><time>2026-04-26T09:37:54.001Z</time></trkpt><trkpt lat="40.61864114320947" lon="14.462340750264469"><ele>148.0</ele><time>2026-04-26T09:37:55.001Z</time></trkpt><trkpt lat="40.61858612689174" lon="14.462432928291646"><ele>148.0</ele><time>2026-04-26T09:37:56.001Z</time></trkpt><trkpt lat="40.61852534967978" lon="14.462523627597083"><ele>148.0</ele><time>2026-04-26T09:37:57.001Z</time></trkpt><trkpt lat="40.618456907454174" lon="14.462607649789694"><ele>148.0</ele><time>2026-04-26T09:37:58.001Z</time></trkpt><trkpt lat="40.61839082946401" lon="14.462694667476168"><ele>148.0</ele><time>2026-04-26T09:37:59.001Z</time></trkpt><trkpt lat="40.618335672990966" lon="14.46278829774058"><ele>148.0</ele><time>2026-04-26T09:38:00.001Z</time></trkpt><trkpt lat="40.6183117390882" lon="14.462903719271758"><ele>148.0</ele><time>2026-04-26T09:38:01.001Z</time></trkpt><trkpt lat="40.61833158842413" lon="14.463014186063086"><ele>148.0</ele><time>2026-04-26T09:38:02.001Z</time></trkpt><trkpt lat="40.618403306661364" lon="14.463095398898501"><ele>148.0</ele><time>2026-04-26T09:38:03.001Z</time></trkpt><trkpt lat="40.61848150317293" lon="14.463166222577039"><ele>148.0</ele><time>2026-04-26T09:38:04.001Z</time></trkpt><trkpt lat="40.61856512977406" lon="14.463215817676447"><ele>148.0</ele><time>2026-04-26T09:38:05.001Z</time></trkpt><trkpt lat="40.618653552082215" lon="14.463256076223395"><ele>148.0</ele><time>2026-04-26T09:38:06.001Z</time></trkpt><trkpt lat="40.61873922255417" lon="14.46329376551248"><ele>148.0</ele><time>2026-04-26T09:38:07.001Z</time></trkpt><trkpt lat="40.61882435525964" lon="14.463324824418846"><ele>148.0</ele><time>2026-04-26T09:38:08.001Z</time></trkpt><trkpt lat="40.61890698352448" lon="14.463352430454414"><ele>148.0</ele><time>2026-04-26T09:38:09.001Z</time></trkpt><trkpt lat="40.618986472709736" lon="14.463381161655942"><ele>145.0</ele><time>2026-04-26T09:38:10.001Z</time></trkpt><trkpt lat="40.61906291179746" lon="14.463419075705549"><ele>142.0</ele><time>2026-04-26T09:38:11.001Z</time></trkpt><trkpt lat="40.61913342897016" lon="14.463466791532493"><ele>139.0</ele><time>2026-04-26T09:38:12.001Z</time></trkpt><trkpt lat="40.61919499403581" lon="14.463533585758784"><ele>136.0</ele><time>2026-04-26T09:38:13.001Z</time></trkpt><trkpt lat="40.619250011640986" lon="14.463608465340252"><ele>133.0</ele><time>2026-04-26T09:38:14.001Z</time></trkpt><trkpt lat="40.61930346250882" lon="14.463694984548365"><ele>130.0</ele><time>2026-04-26T09:38:15.001Z</time></trkpt><trkpt lat="40.61934281728263" lon="14.46379311558003"><ele>130.0</ele><time>2026-04-26T09:38:16.001Z</time></trkpt><trkpt lat="40.61938179161515" lon="14.463887650573483"><ele>130.0</ele><time>2026-04-26T09:38:17.001Z</time></trkpt><trkpt lat="40.619433191133226" lon="14.463973296354334"><ele>130.0</ele><time>2026-04-26T09:38:18.001Z</time></trkpt><trkpt lat="40.61949308331699" lon="14.464046022305112"><ele>130.0</ele><time>2026-04-26T09:38:19.001Z</time></trkpt><trkpt lat="40.61955250844457" lon="14.464113189141424"><ele>130.0</ele><time>2026-04-26T09:38:20.001Z</time></trkpt><trkpt lat="40.61960702822722" lon="14.464184613892282"><ele>130.0</ele><time>2026-04-26T09:38:21.001Z</time></trkpt><trkpt lat="40.61964018778539" lon="14.46427499582629"><ele>139.6</ele><time>2026-04-26T09:38:22.001Z</time></trkpt><trkpt lat="40.61963754348302" lon="14.464388698475291"><ele>149.2</ele><time>2026-04-26T09:38:23.001Z</time></trkpt><trkpt lat="40.619614394057926" lon="14.464509599701556"><ele>158.8</ele><time>2026-04-26T09:38:24.001Z</time></trkpt><trkpt lat="40.61958413673294" lon="14.464635588850381"><ele>168.4</ele><time>2026-04-26T09:38:25.001Z</time></trkpt><trkpt lat="40.619553012711904" lon="14.464762777870664"><ele>178.0</ele><time>2026-04-26T09:38:26.001Z</time></trkpt><trkpt lat="40.61951699010677" lon="14.464889579278458"><ele>169.33333333333334</ele><time>2026-04-26T09:38:27.001Z</time></trkpt><trkpt lat="40.61948019686253" lon="14.465001740859526"><ele>160.66666666666669</ele><time>2026-04-26T09:38:28.001Z</time></trkpt><trkpt lat="40.61945121700108" lon="14.465101923302065"><ele>152.0</ele><time>2026-04-26T09:38:29.001Z</time></trkpt><trkpt lat="40.619443509238856" lon="14.465201661573747"><ele>143.33333333333334</ele><time>2026-04-26T09:38:30.001Z</time></trkpt><trkpt lat="40.6194362999903" lon="14.465296597771117"><ele>134.66666666666666</ele><time>2026-04-26T09:38:31.001Z</time></trkpt><trkpt lat="40.61945252195401" lon="14.46539165624986"><ele>126.0</ele><time>2026-04-26T09:38:32.001Z</time></trkpt><trkpt lat="40.61946885879615" lon="14.465488974373242"><ele>134.57142857142858</ele><time>2026-04-26T09:38:33.001Z</time></trkpt><trkpt lat="40.619480600397424" lon="14.465593001898448"><ele>143.14285714285714</ele><time>2026-04-26T09:38:34.001Z</time></trkpt><trkpt lat="40.61949142380713" lon="14.465696693861144"><ele>151.71428571428572</ele><time>2026-04-26T09:38:35.001Z</time></trkpt><trkpt lat="40.619503293683856" lon="14.465795344270076"><ele>160.28571428571428</ele><time>2026-04-26T09:38:36.001Z</time></trkpt><trkpt lat="40.619517871923335" lon="14.465887754360299"><ele>168.85714285714286</ele><time>2026-04-26T09:38:37.001Z</time></trkpt><trkpt lat="40.61953632865001" lon="14.46597516867618"><ele>177.42857142857144</ele><time>2026-04-26T09:38:38.001Z</time></trkpt><trkpt lat="40.61955744625171" lon="14.466060440143062"><ele>186.0</ele><time>2026-04-26T09:38:39.001Z</time></trkpt><trkpt lat="40.61958169918394" lon="14.466142840896945"><ele>186.0</ele><time>2026-04-26T09:38:40.001Z</time></trkpt><trkpt lat="40.61961089391556" lon="14.466216742313607"><ele>186.0</ele><time>2026-04-26T09:38:41.001Z</time></trkpt><trkpt lat="40.61966885074066" lon="14.466316570859648"><ele>186.0</ele><time>2026-04-26T09:38:43.001Z</time></trkpt><trkpt lat="40.61973217989226" lon="14.466353620069647"><ele>186.0</ele><time>2026-04-26T09:38:46.001Z</time></trkpt><trkpt lat="40.61985360087936" lon="14.466463090536193"><ele>186.0</ele><time>2026-04-26T09:41:55.001Z</time></trkpt><trkpt lat="40.6199058749495" lon="14.466527178325677"><ele>186.0</ele><time>2026-04-26T09:41:56.001Z</time></trkpt><trkpt lat="40.619978241580334" lon="14.466589815339491"><ele>176.0</ele><time>2026-04-26T09:41:57.001Z</time></trkpt><trkpt lat="40.62007475044955" lon="14.46664947173454"><ele>166.0</ele><time>2026-04-26T09:41:58.001Z</time></trkpt><trkpt lat="40.62015681556907" lon="14.466692562914718"><ele>156.0</ele><time>2026-04-26T09:41:59.001Z</time></trkpt><trkpt lat="40.62023469258298" lon="14.466732636234159"><ele>146.0</ele><time>2026-04-26T09:42:00.001Z</time></trkpt><trkpt lat="40.62031646464737" lon="14.466730137742955"><ele>136.0</ele><time>2026-04-26T09:42:01.001Z</time></trkpt><trkpt lat="40.620395448559826" lon="14.466666940653258"><ele>136.0</ele><time>2026-04-26T09:42:02.001Z</time></trkpt><trkpt lat="40.620456651971466" lon="14.466557083744553"><ele>136.0</ele><time>2026-04-26T09:42:03.001Z</time></trkpt><trkpt lat="40.62052213391056" lon="14.466432917333004"><ele>136.0</ele><time>2026-04-26T09:42:04.001Z</time></trkpt><trkpt lat="40.62058297922175" lon="14.466333632652582"><ele>136.0</ele><time>2026-04-26T09:42:05.001Z</time></trkpt><trkpt lat="40.62065415077733" lon="14.46623460928489"><ele>136.0</ele><time>2026-04-26T09:42:06.001Z</time></trkpt><trkpt lat="40.62073125399337" lon="14.466151270918322"><ele>136.0</ele><time>2026-04-26T09:42:07.001Z</time></trkpt><trkpt lat="40.62080046054957" lon="14.466078493917843"><ele>136.0</ele><time>2026-04-26T09:42:08.001Z</time></trkpt><trkpt lat="40.62086395296397" lon="14.466008330778013"><ele>136.0</ele><time>2026-04-26T09:42:09.001Z</time></trkpt><trkpt lat="40.62091512054887" lon="14.465924574229536"><ele>136.0</ele><time>2026-04-26T09:42:10.001Z</time></trkpt><trkpt lat="40.62098324255727" lon="14.465883836028228"><ele>136.0</ele><time>2026-04-26T09:42:11.001Z</time></trkpt><trkpt lat="40.62104629637771" lon="14.465829821916074"><ele>136.0</ele><time>2026-04-26T09:42:12.001Z</time></trkpt><trkpt lat="40.621114536210264" lon="14.46578569717523"><ele>136.16666666666669</ele><time>2026-04-26T09:42:13.001Z</time></trkpt><trkpt lat="40.62118799975993" lon="14.465731958906833"><ele>136.33333333333334</ele><time>2026-04-26T09:42:14.001Z</time></trkpt><trkpt lat="40.62126886701762" lon="14.465696687097186"><ele>136.5</ele><time>2026-04-26T09:42:15.001Z</time></trkpt><trkpt lat="40.62134824863103" lon="14.4656683473321"><ele>136.66666666666666</ele><time>2026-04-26T09:42:16.001Z</time></trkpt><trkpt lat="40.62142702205881" lon="14.465638759851352"><ele>136.83333333333331</ele><time>2026-04-26T09:42:17.001Z</time></trkpt><trkpt lat="40.62150414251426" lon="14.465613312328383"><ele>137.0</ele><time>2026-04-26T09:42:18.001Z</time></trkpt><trkpt lat="40.62157797542325" lon="14.46560824808131"><ele>137.0</ele><time>2026-04-26T09:42:19.001Z</time></trkpt><trkpt lat="40.62165068248977" lon="14.46563067664813"><ele>137.0</ele><time>2026-04-26T09:42:20.001Z</time></trkpt><trkpt lat="40.6217004942315" lon="14.465711474295482"><ele>137.0</ele><time>2026-04-26T09:42:21.001Z</time></trkpt><trkpt lat="40.621745297633936" lon="14.465796534454206"><ele>137.0</ele><time>2026-04-26T09:42:22.001Z</time></trkpt><trkpt lat="40.62179242179383" lon="14.465873456955372"><ele>137.0</ele><time>2026-04-26T09:42:23.001Z</time></trkpt><trkpt lat="40.62185252104949" lon="14.465998897505763"><ele>137.0</ele><time>2026-04-26T09:42:25.001Z</time></trkpt><trkpt lat="40.621809863916916" lon="14.466148848135134"><ele>137.0</ele><time>2026-04-26T09:42:27.001Z</time></trkpt><trkpt lat="40.62176945711972" lon="14.46622604885423"><ele>137.0</ele><time>2026-04-26T09:42:28.001Z</time></trkpt><trkpt lat="40.6217430595593" lon="14.466309347982037"><ele>137.0</ele><time>2026-04-26T09:42:29Z</time></trkpt><trkpt lat="40.62173449151656" lon="14.46641350906224"><ele>137.0</ele><time>2026-04-26T09:42:30Z</time></trkpt><trkpt lat="40.62171675389735" lon="14.466516488729098"><ele>137.0</ele><time>2026-04-26T09:42:31Z</time></trkpt><trkpt lat="40.621699955478185" lon="14.46662341111393"><ele>137.0</ele><time>2026-04-26T09:42:32Z</time></trkpt><trkpt lat="40.62168076959921" lon="14.46673512322541"><ele>139.33333333333331</ele><time>2026-04-26T09:42:33Z</time></trkpt><trkpt lat="40.621661417952325" lon="14.466844914090569"><ele>141.66666666666666</ele><time>2026-04-26T09:42:34Z</time></trkpt><trkpt lat="40.62165074211835" lon="14.466947395828646"><ele>144.0</ele><time>2026-04-26T09:42:35Z</time></trkpt><trkpt lat="40.62165353278032" lon="14.467044452345442"><ele>146.33333333333334</ele><time>2026-04-26T09:42:36Z</time></trkpt><trkpt lat="40.62167780562254" lon="14.467140652917813"><ele>148.66666666666669</ele><time>2026-04-26T09:42:37Z</time></trkpt><trkpt lat="40.6217126831855" lon="14.467228143821776"><ele>151.0</ele><time>2026-04-26T09:42:38Z</time></trkpt><trkpt lat="40.62174680332324" lon="14.46731813589541"><ele>151.00000000000003</ele><time>2026-04-26T09:42:39Z</time></trkpt><trkpt lat="40.62178217306521" lon="14.467410503280401"><ele>151.0</ele><time>2026-04-26T09:42:40Z</time></trkpt><trkpt lat="40.62182040078666" lon="14.467498663565019"><ele>151.0</ele><time>2026-04-26T09:42:41Z</time></trkpt><trkpt lat="40.6218547723889" lon="14.467586030494722"><ele>151.0</ele><time>2026-04-26T09:42:42Z</time></trkpt><trkpt lat="40.621887099483594" lon="14.467672442052777"><ele>151.0</ele><time>2026-04-26T09:42:43Z</time></trkpt><trkpt lat="40.62191628174412" lon="14.467756974552685"><ele>151.00000000000003</ele><time>2026-04-26T09:42:44Z</time></trkpt><trkpt lat="40.621929950857506" lon="14.467841037425666"><ele>151.0</ele><time>2026-04-26T09:42:45Z</time></trkpt><trkpt lat="40.62191938036794" lon="14.467929054312657"><ele>151.0</ele><time>2026-04-26T09:42:46Z</time></trkpt><trkpt lat="40.62189038035244" lon="14.468021031448831"><ele>151.0</ele><time>2026-04-26T09:42:47Z</time></trkpt><trkpt lat="40.6218517915687" lon="14.46811213165726"><ele>151.0</ele><time>2026-04-26T09:42:48Z</time></trkpt><trkpt lat="40.62181141973538" lon="14.468201443449322"><ele>151.0</ele><time>2026-04-26T09:42:49Z</time></trkpt><trkpt lat="40.62177348690788" lon="14.46829678990972"><ele>151.0</ele><time>2026-04-26T09:42:50Z</time></trkpt><trkpt lat="40.6217347014628" lon="14.46839202196466"><ele>151.0</ele><time>2026-04-26T09:42:51Z</time></trkpt><trkpt lat="40.6217028312807" lon="14.468483099955325"><ele>151.0</ele><time>2026-04-26T09:42:52Z</time></trkpt><trkpt lat="40.62169202600325" lon="14.468582235789878"><ele>151.0</ele><time>2026-04-26T09:42:53Z</time></trkpt><trkpt lat="40.62170851681485" lon="14.468683893158708"><ele>151.0</ele><time>2026-04-26T09:42:54Z</time></trkpt><trkpt lat="40.621746584382656" lon="14.46877925437119"><ele>151.0</ele><time>2026-04-26T09:42:55Z</time></trkpt><trkpt lat="40.62178470267579" lon="14.46886532111248"><ele>151.0</ele><time>2026-04-26T09:42:56Z</time></trkpt><trkpt lat="40.62182240271661" lon="14.468953773445362"><ele>151.0</ele><time>2026-04-26T09:42:57Z</time></trkpt><trkpt lat="40.62184595484791" lon="14.469040820039146"><ele>141.0</ele><time>2026-04-26T09:42:58Z</time></trkpt><trkpt lat="40.621860627668056" lon="14.469139664503686"><ele>131.0</ele><time>2026-04-26T09:42:59Z</time></trkpt><trkpt lat="40.621854246827446" lon="14.469256511697278"><ele>121.0</ele><time>2026-04-26T09:43:00Z</time></trkpt><trkpt lat="40.621838628559516" lon="14.469375224389056"><ele>111.0</ele><time>2026-04-26T09:43:01Z</time></trkpt><trkpt lat="40.6218166828442" lon="14.46948201712188"><ele>101.0</ele><time>2026-04-26T09:43:02Z</time></trkpt><trkpt lat="40.62178392893377" lon="14.469568835547806"><ele>91.0</ele><time>2026-04-26T09:43:03Z</time></trkpt><trkpt lat="40.62178633967327" lon="14.469725436320283"><ele>91.0</ele><time>2026-04-26T09:43:05Z</time></trkpt><trkpt lat="40.62182444518638" lon="14.469796705024677"><ele>91.0</ele><time>2026-04-26T09:43:06Z</time></trkpt><trkpt lat="40.62187754335633" lon="14.469854384110404"><ele>91.0</ele><time>2026-04-26T09:43:07Z</time></trkpt><trkpt lat="40.62193485859315" lon="14.469897995528214"><ele>91.0</ele><time>2026-04-26T09:43:08Z</time></trkpt><trkpt lat="40.62200075205205" lon="14.469898435900888"><ele>91.0</ele><time>2026-04-26T09:43:09Z</time></trkpt><trkpt lat="40.622117566051045" lon="14.469879917892934"><ele>91.0</ele><time>2026-04-26T09:43:11Z</time></trkpt><trkpt lat="40.622221664777186" lon="14.469872499094526"><ele>101.5</ele><time>2026-04-26T09:43:13Z</time></trkpt><trkpt lat="40.62230551037795" lon="14.469991091408607"><ele>112.0</ele><time>2026-04-26T09:43:15Z</time></trkpt><trkpt lat="40.62232445353631" lon="14.470092209370575"><ele>122.5</ele><time>2026-04-26T09:43:16Z</time></trkpt><trkpt lat="40.622337908237306" lon="14.470193135344669"><ele>133.0</ele><time>2026-04-26T09:43:17Z</time></trkpt><trkpt lat="40.622351182240024" lon="14.470298427321861"><ele>143.5</ele><time>2026-04-26T09:43:18Z</time></trkpt><trkpt lat="40.6223683689905" lon="14.47041278019168"><ele>154.0</ele><time>2026-04-26T09:43:19Z</time></trkpt><trkpt lat="40.62238913706218" lon="14.470522111842278"><ele>154.0</ele><time>2026-04-26T09:43:20Z</time></trkpt><trkpt lat="40.62241606171093" lon="14.470628550113908"><ele>154.0</ele><time>2026-04-26T09:43:21Z</time></trkpt><trkpt lat="40.622445155260365" lon="14.47072892752772"><ele>154.0</ele><time>2026-04-26T09:43:22Z</time></trkpt><trkpt lat="40.62247866956275" lon="14.470829516517572"><ele>154.0</ele><time>2026-04-26T09:43:23Z</time></trkpt><trkpt lat="40.62251164074972" lon="14.47093712955662"><ele>154.0</ele><time>2026-04-26T09:43:24Z</time></trkpt><trkpt lat="40.6225790303278" lon="14.471020033374248"><ele>154.0</ele><time>2026-04-26T09:43:25Z</time></trkpt><trkpt lat="40.6226588385886" lon="14.47108219445396"><ele>154.0</ele><time>2026-04-26T09:43:26Z</time></trkpt><trkpt lat="40.62274280165998" lon="14.471134213515901"><ele>154.0</ele><time>2026-04-26T09:43:27Z</time></trkpt><trkpt lat="40.62283318464031" lon="14.471179716322204"><ele>154.0</ele><time>2026-04-26T09:43:28Z</time></trkpt><trkpt lat="40.62293270629312" lon="14.471200242307482"><ele>154.0</ele><time>2026-04-26T09:43:29Z</time></trkpt><trkpt lat="40.62302344144871" lon="14.47124143671478"><ele>154.0</ele><time>2026-04-26T09:43:30Z</time></trkpt><trkpt lat="40.62311294639358" lon="14.471277811358327"><ele>144.83333333333334</ele><time>2026-04-26T09:43:31Z</time></trkpt><trkpt lat="40.62320093256705" lon="14.471295392974511"><ele>135.66666666666669</ele><time>2026-04-26T09:43:32Z</time></trkpt><trkpt lat="40.623281701863995" lon="14.471298729915572"><ele>126.5</ele><time>2026-04-26T09:43:33Z</time></trkpt><trkpt lat="40.623358746974404" lon="14.471309292843511"><ele>117.33333333333334</ele><time>2026-04-26T09:43:34Z</time></trkpt><trkpt lat="40.623417535251555" lon="14.47136645492059"><ele>108.16666666666667</ele><time>2026-04-26T09:43:35Z</time></trkpt><trkpt lat="40.623457456947406" lon="14.471445810412764"><ele>99.0</ele><time>2026-04-26T09:43:36Z</time></trkpt><trkpt lat="40.6235032381002" lon="14.47151167234478"><ele>99.0</ele><time>2026-04-26T09:43:37Z</time></trkpt><trkpt lat="40.62356650149608" lon="14.471540854147943"><ele>99.0</ele><time>2026-04-26T09:43:38Z</time></trkpt><trkpt lat="40.62363341869481" lon="14.471551371037492"><ele>99.0</ele><time>2026-04-26T09:43:39Z</time></trkpt><trkpt lat="40.62370477207091" lon="14.471512298825742"><ele>99.0</ele><time>2026-04-26T09:43:40Z</time></trkpt><trkpt lat="40.62374568904505" lon="14.471430486052789"><ele>99.0</ele><time>2026-04-26T09:43:41Z</time></trkpt><trkpt lat="40.6237938031529" lon="14.471370146085107"><ele>99.0</ele><time>2026-04-26T09:43:42Z</time></trkpt><trkpt lat="40.62384515568321" lon="14.47129923019537"><ele>99.0</ele><time>2026-04-26T09:43:43Z</time></trkpt><trkpt lat="40.62389020854896" lon="14.471212515017235"><ele>119.0</ele><time>2026-04-26T09:43:44Z</time></trkpt><trkpt lat="40.62394745986541" lon="14.471145518465715"><ele>139.0</ele><time>2026-04-26T09:43:45Z</time></trkpt><trkpt lat="40.62400598325879" lon="14.47109767377432"><ele>159.0</ele><time>2026-04-26T09:43:46Z</time></trkpt><trkpt lat="40.62411341597345" lon="14.471051489537025"><ele>179.0</ele><time>2026-04-26T09:43:48Z</time></trkpt><trkpt lat="40.624199609196936" lon="14.471157077760905"><ele>199.0</ele><time>2026-04-26T09:43:50Z</time></trkpt><trkpt lat="40.624239939903525" lon="14.471233708225679"><ele>219.0</ele><time>2026-04-26T09:43:51Z</time></trkpt><trkpt lat="40.62427837282357" lon="14.471306705059483"><ele>219.0</ele><time>2026-04-26T09:43:52Z</time></trkpt><trkpt lat="40.624327741222416" lon="14.471374457538106"><ele>219.0</ele><time>2026-04-26T09:43:53Z</time></trkpt><trkpt lat="40.624375472765465" lon="14.471448259538333"><ele>219.0</ele><time>2026-04-26T09:43:54Z</time></trkpt><trkpt lat="40.62440560621893" lon="14.471543329613455"><ele>219.0</ele><time>2026-04-26T09:43:55Z</time></trkpt><trkpt lat="40.62442379763219" lon="14.47163603575979"><ele>219.0</ele><time>2026-04-26T09:43:56Z</time></trkpt><trkpt lat="40.62442560399955" lon="14.47172925982964"><ele>219.0</ele><time>2026-04-26T09:43:57Z</time></trkpt><trkpt lat="40.6244160891455" lon="14.4718181201311"><ele>219.0</ele><time>2026-04-26T09:43:58Z</time></trkpt><trkpt lat="40.62444775215397" lon="14.471980703362453"><ele>217.5</ele><time>2026-04-26T09:44:00Z</time></trkpt><trkpt lat="40.62451642930813" lon="14.472033101087892"><ele>216.0</ele><time>2026-04-26T09:44:01Z</time></trkpt><trkpt lat="40.62458870696106" lon="14.472051360162151"><ele>214.5</ele><time>2026-04-26T09:44:02Z</time></trkpt><trkpt lat="40.624654575588075" lon="14.472065692259827"><ele>213.0</ele><time>2026-04-26T09:44:03Z</time></trkpt><trkpt lat="40.624746192806384" lon="14.472076093989553"><ele>211.5</ele><time>2026-04-26T09:44:05Z</time></trkpt><trkpt lat="40.62480264516896" lon="14.472213821043383"><ele>210.0</ele><time>2026-04-26T09:44:07Z</time></trkpt><trkpt lat="40.62479990332638" lon="14.472309084516137"><ele>210.0</ele><time>2026-04-26T09:44:08Z</time></trkpt><trkpt lat="40.62477627350489" lon="14.472398980610873"><ele>210.0</ele><time>2026-04-26T09:44:09Z</time></trkpt><trkpt lat="40.624743445566175" lon="14.472488803748833"><ele>210.0</ele><time>2026-04-26T09:44:10Z</time></trkpt><trkpt lat="40.62470708944078" lon="14.47258148467147"><ele>210.0</ele><time>2026-04-26T09:44:11Z</time></trkpt><trkpt lat="40.62467236640588" lon="14.472660752334914"><ele>210.0</ele><time>2026-04-26T09:44:12Z</time></trkpt><trkpt lat="40.62467845758211" lon="14.47281502721756"><ele>210.0</ele><time>2026-04-26T09:44:14Z</time></trkpt><trkpt lat="40.62472341643139" lon="14.47290176315816"><ele>205.5</ele><time>2026-04-26T09:44:15Z</time></trkpt><trkpt lat="40.62476791749799" lon="14.472969565111802"><ele>201.0</ele><time>2026-04-26T09:44:16Z</time></trkpt><trkpt lat="40.624803172097764" lon="14.473056486681955"><ele>196.5</ele><time>2026-04-26T09:44:17Z</time></trkpt><trkpt lat="40.62483565880805" lon="14.47313144402376"><ele>192.0</ele><time>2026-04-26T09:44:18Z</time></trkpt><trkpt lat="40.62488707852574" lon="14.47327699071805"><ele>187.5</ele><time>2026-04-26T09:44:20Z</time></trkpt><trkpt lat="40.624923010009056" lon="14.473348487910705"><ele>183.0</ele><time>2026-04-26T09:44:21Z</time></trkpt><trkpt lat="40.624986529625886" lon="14.473474687934416"><ele>183.0</ele><time>2026-04-26T09:44:23Z</time></trkpt><trkpt lat="40.625083501410714" lon="14.473541029046407"><ele>183.0</ele><time>2026-04-26T09:44:25Z</time></trkpt><trkpt lat="40.62518524837854" lon="14.473530373128071"><ele>183.0</ele><time>2026-04-26T09:44:27Z</time></trkpt><trkpt lat="40.62529666455852" lon="14.473584579546802"><ele>183.0</ele><time>2026-04-26T09:44:29Z</time></trkpt><trkpt lat="40.62534314202302" lon="14.473659138849856"><ele>183.0</ele><time>2026-04-26T09:44:30Z</time></trkpt><trkpt lat="40.62537441804315" lon="14.473741087552387"><ele>195.85714285714286</ele><time>2026-04-26T09:44:31Z</time></trkpt><trkpt lat="40.6253897207911" lon="14.473830581422721"><ele>208.71428571428572</ele><time>2026-04-26T09:44:32Z</time></trkpt><trkpt lat="40.62541762662569" lon="14.473917582517764"><ele>221.57142857142856</ele><time>2026-04-26T09:44:33Z</time></trkpt><trkpt lat="40.625450858778464" lon="14.474005388994449"><ele>234.42857142857144</ele><time>2026-04-26T09:44:34Z</time></trkpt><trkpt lat="40.62547763842336" lon="14.47410211070994"><ele>247.28571428571428</ele><time>2026-04-26T09:44:34.999Z</time></trkpt><trkpt lat="40.62550709910143" lon="14.474194140900423"><ele>260.14285714285717</ele><time>2026-04-26T09:44:35.999Z</time></trkpt><trkpt lat="40.62553393698399" lon="14.474283292882111"><ele>273.0</ele><time>2026-04-26T09:44:36.999Z</time></trkpt><trkpt lat="40.625553523440004" lon="14.47436524230267"><ele>273.0</ele><time>2026-04-26T09:44:37.999Z</time></trkpt><trkpt lat="40.625533866357124" lon="14.474449927814819"><ele>273.0</ele><time>2026-04-26T09:44:38.999Z</time></trkpt><trkpt lat="40.62549037413591" lon="14.474515036266506"><ele>273.0</ele><time>2026-04-26T09:44:39.999Z</time></trkpt><trkpt lat="40.625422736784586" lon="14.474568899139086"><ele>273.0</ele><time>2026-04-26T09:44:40.999Z</time></trkpt><trkpt lat="40.62535774605304" lon="14.474638551496664"><ele>273.0</ele><time>2026-04-26T09:44:41.999Z</time></trkpt><trkpt lat="40.62529486125069" lon="14.4747263697029"><ele>273.0</ele><time>2026-04-26T09:44:42.999Z</time></trkpt><trkpt lat="40.625230011105884" lon="14.474816286423113"><ele>273.0</ele><time>2026-04-26T09:44:43.999Z</time></trkpt><trkpt lat="40.62516664107492" lon="14.474895870314471"><ele>273.0</ele><time>2026-04-26T09:44:44.999Z</time></trkpt><trkpt lat="40.625115583001666" lon="14.474974619295145"><ele>273.0</ele><time>2026-04-26T09:44:45.999Z</time></trkpt><trkpt lat="40.625080051061055" lon="14.475065250247972"><ele>273.0</ele><time>2026-04-26T09:44:46.999Z</time></trkpt><trkpt lat="40.62506733186914" lon="14.475184251049633"><ele>273.0</ele><time>2026-04-26T09:44:47.999Z</time></trkpt><trkpt lat="40.625078240896904" lon="14.475308157614606"><ele>273.0</ele><time>2026-04-26T09:44:48.999Z</time></trkpt><trkpt lat="40.62510846936489" lon="14.47543413550832"><ele>273.0</ele><time>2026-04-26T09:44:49.999Z</time></trkpt><trkpt lat="40.625138109593806" lon="14.475562464503042"><ele>273.0</ele><time>2026-04-26T09:44:51Z</time></trkpt><trkpt lat="40.62516857698433" lon="14.475693860410702"><ele>273.0</ele><time>2026-04-26T09:44:52Z</time></trkpt><trkpt lat="40.625197496353806" lon="14.475827272663066"><ele>273.0</ele><time>2026-04-26T09:44:53Z</time></trkpt><trkpt lat="40.6252292444437" lon="14.475962016068257"><ele>273.0</ele><time>2026-04-26T09:44:54Z</time></trkpt><trkpt lat="40.62526462256113" lon="14.476094164745303"><ele>273.0</ele><time>2026-04-26T09:44:55Z</time></trkpt><trkpt lat="40.6253048641643" lon="14.476220069719654"><ele>273.0</ele><time>2026-04-26T09:44:56Z</time></trkpt><trkpt lat="40.62534134878855" lon="14.476343179707213"><ele>273.0</ele><time>2026-04-26T09:44:57Z</time></trkpt><trkpt lat="40.62537468233393" lon="14.476462859207034"><ele>273.0</ele><time>2026-04-26T09:44:58Z</time></trkpt><trkpt lat="40.625399390058845" lon="14.476580954281605"><ele>273.0</ele><time>2026-04-26T09:44:59Z</time></trkpt><trkpt lat="40.625403737521275" lon="14.476701611380866"><ele>261.0</ele><time>2026-04-26T09:45:00Z</time></trkpt><trkpt lat="40.62542624814704" lon="14.476814518626073"><ele>249.0</ele><time>2026-04-26T09:45:01Z</time></trkpt><trkpt lat="40.62546816068969" lon="14.476912773775235"><ele>237.0</ele><time>2026-04-26T09:45:02Z</time></trkpt><trkpt lat="40.62552853397034" lon="14.47700146225221"><ele>225.0</ele><time>2026-04-26T09:45:03Z</time></trkpt><trkpt lat="40.62559158085362" lon="14.477079963951299"><ele>213.0</ele><time>2026-04-26T09:45:04Z</time></trkpt><trkpt lat="40.62564729641544" lon="14.477151145314066"><ele>201.0</ele><time>2026-04-26T09:45:05Z</time></trkpt><trkpt lat="40.625695096401124" lon="14.477229455493697"><ele>201.0</ele><time>2026-04-26T09:45:06Z</time></trkpt><trkpt lat="40.62573316767266" lon="14.47732101035692"><ele>201.0</ele><time>2026-04-26T09:45:07Z</time></trkpt><trkpt lat="40.62576925064144" lon="14.477426721623052"><ele>201.0</ele><time>2026-04-26T09:45:08Z</time></trkpt><trkpt lat="40.62580468716204" lon="14.477527067701427"><ele>201.0</ele><time>2026-04-26T09:45:09Z</time></trkpt><trkpt lat="40.62584065612549" lon="14.477625329508994"><ele>201.0</ele><time>2026-04-26T09:45:10Z</time></trkpt><trkpt lat="40.62587807321894" lon="14.477714289609922"><ele>201.0</ele><time>2026-04-26T09:45:11Z</time></trkpt><trkpt lat="40.625935865737375" lon="14.477779695287651"><ele>201.0</ele><time>2026-04-26T09:45:12Z</time></trkpt><trkpt lat="40.62598745676962" lon="14.477845629090796"><ele>201.0</ele><time>2026-04-26T09:45:13Z</time></trkpt><trkpt lat="40.6260362051141" lon="14.477914200852618"><ele>201.0</ele><time>2026-04-26T09:45:14Z</time></trkpt><trkpt lat="40.626087574044554" lon="14.477977669432287"><ele>201.0</ele><time>2026-04-26T09:45:15Z</time></trkpt><trkpt lat="40.6261364620955" lon="14.478043872344516"><ele>201.0</ele><time>2026-04-26T09:45:16Z</time></trkpt><trkpt lat="40.62618477698334" lon="14.478108159780142"><ele>201.0</ele><time>2026-04-26T09:45:17Z</time></trkpt><trkpt lat="40.626233890515216" lon="14.478168407123265"><ele>201.0</ele><time>2026-04-26T09:45:18Z</time></trkpt><trkpt lat="40.62627868960536" lon="14.478231695190642"><ele>202.42857142857142</ele><time>2026-04-26T09:45:19Z</time></trkpt><trkpt lat="40.62633360310338" lon="14.478277864431607"><ele>203.85714285714286</ele><time>2026-04-26T09:45:20Z</time></trkpt><trkpt lat="40.6263908124359" lon="14.478320737636434"><ele>205.28571428571428</ele><time>2026-04-26T09:45:21Z</time></trkpt><trkpt lat="40.62645153022205" lon="14.478363548521198"><ele>206.71428571428572</ele><time>2026-04-26T09:45:22Z</time></trkpt><trkpt lat="40.62651261039617" lon="14.478424213024907"><ele>208.14285714285717</ele><time>2026-04-26T09:45:23Z</time></trkpt><trkpt lat="40.62656200918321" lon="14.478489533308352"><ele>209.57142857142858</ele><time>2026-04-26T09:45:24Z</time></trkpt><trkpt lat="40.62662082036943" lon="14.478590940950959"><ele>211.0</ele><time>2026-04-26T09:45:26Z</time></trkpt><trkpt lat="40.626669941591274" lon="14.478670556232204"><ele>210.99999999999997</ele><time>2026-04-26T09:45:28Z</time></trkpt><trkpt lat="40.62673260918027" lon="14.478756773331083"><ele>211.0</ele><time>2026-04-26T09:45:30Z</time></trkpt><trkpt lat="40.62682753288076" lon="14.478849121637932"><ele>211.0</ele><time>2026-04-26T09:45:32Z</time></trkpt><trkpt lat="40.62689231112669" lon="14.47887529225174"><ele>211.0</ele><time>2026-04-26T09:45:33Z</time></trkpt><trkpt lat="40.62695922032859" lon="14.478897834822876"><ele>210.99999999999997</ele><time>2026-04-26T09:45:34Z</time></trkpt><trkpt lat="40.62702486402363" lon="14.478916527052723"><ele>211.0</ele><time>2026-04-26T09:45:35Z</time></trkpt><trkpt lat="40.62708924548544" lon="14.47893891345209"><ele>209.14285714285714</ele><time>2026-04-26T09:45:36Z</time></trkpt><trkpt lat="40.627150458021845" lon="14.478966730548578"><ele>207.28571428571428</ele><time>2026-04-26T09:45:37Z</time></trkpt><trkpt lat="40.62720888629316" lon="14.478998219442564"><ele>205.42857142857144</ele><time>2026-04-26T09:45:38Z</time></trkpt><trkpt lat="40.627266516049836" lon="14.479032434605465"><ele>203.57142857142856</ele><time>2026-04-26T09:45:39Z</time></trkpt><trkpt lat="40.627322357650975" lon="14.47907230893718"><ele>201.7142857142857</ele><time>2026-04-26T09:45:40Z</time></trkpt><trkpt lat="40.62738091240298" lon="14.47911132645396"><ele>199.85714285714286</ele><time>2026-04-26T09:45:41Z</time></trkpt><trkpt lat="40.62744580518207" lon="14.479141313307052"><ele>198.0</ele><time>2026-04-26T09:45:42Z</time></trkpt><trkpt lat="40.62751682512497" lon="14.479151131687528"><ele>198.0</ele><time>2026-04-26T09:45:43Z</time></trkpt><trkpt lat="40.62758687307272" lon="14.479163257853129"><ele>198.0</ele><time>2026-04-26T09:45:44Z</time></trkpt><trkpt lat="40.62765461645954" lon="14.479171527860586"><ele>198.0</ele><time>2026-04-26T09:45:45Z</time></trkpt><trkpt lat="40.62772239507796" lon="14.479172883851781"><ele>198.0</ele><time>2026-04-26T09:45:46Z</time></trkpt><trkpt lat="40.62778619411553" lon="14.479169519244786"><ele>198.0</ele><time>2026-04-26T09:45:47Z</time></trkpt><trkpt lat="40.627904258200445" lon="14.479149450622131"><ele>198.0</ele><time>2026-04-26T09:45:49Z</time></trkpt><trkpt lat="40.62801380341713" lon="14.479069711075416"><ele>200.0</ele><time>2026-04-26T09:45:51Z</time></trkpt><trkpt lat="40.62806737538981" lon="14.479023435807113"><ele>202.0</ele><time>2026-04-26T09:45:52Z</time></trkpt><trkpt lat="40.6281215289344" lon="14.478971398788778"><ele>204.0</ele><time>2026-04-26T09:45:53Z</time></trkpt><trkpt lat="40.62817946481561" lon="14.478921392241958"><ele>206.0</ele><time>2026-04-26T09:45:54Z</time></trkpt><trkpt lat="40.62823369903059" lon="14.478876220980746"><ele>208.0</ele><time>2026-04-26T09:45:55Z</time></trkpt><trkpt lat="40.62833469239896" lon="14.478790544053126"><ele>210.0</ele><time>2026-04-26T09:45:57Z</time></trkpt><trkpt lat="40.62842936090369" lon="14.478709752026653"><ele>210.0</ele><time>2026-04-26T09:45:59Z</time></trkpt><trkpt lat="40.6285337443414" lon="14.47862952854453"><ele>210.0</ele><time>2026-04-26T09:46:01Z</time></trkpt><trkpt lat="40.628588730441955" lon="14.478588431871938"><ele>210.0</ele><time>2026-04-26T09:46:02Z</time></trkpt><trkpt lat="40.62864526440208" lon="14.478546456992392"><ele>210.0</ele><time>2026-04-26T09:46:03Z</time></trkpt><trkpt lat="40.62869819234589" lon="14.478498397896692"><ele>210.0</ele><time>2026-04-26T09:46:04Z</time></trkpt><trkpt lat="40.62874700269282" lon="14.47843852103879"><ele>210.0</ele><time>2026-04-26T09:46:05Z</time></trkpt><trkpt lat="40.62878765072444" lon="14.47837371835809"><ele>210.0</ele><time>2026-04-26T09:46:06Z</time></trkpt><trkpt lat="40.62882859603106" lon="14.478294371961535"><ele>203.66666666666666</ele><time>2026-04-26T09:46:07Z</time></trkpt><trkpt lat="40.628875885864005" lon="14.47819631334135"><ele>197.33333333333334</ele><time>2026-04-26T09:46:08Z</time></trkpt><trkpt lat="40.62892335581876" lon="14.478099053700943"><ele>191.0</ele><time>2026-04-26T09:46:09Z</time></trkpt><trkpt lat="40.6289763051311" lon="14.478003299899918"><ele>184.66666666666669</ele><time>2026-04-26T09:46:10Z</time></trkpt><trkpt lat="40.62903193812418" lon="14.477910866106768"><ele>178.33333333333334</ele><time>2026-04-26T09:46:11Z</time></trkpt><trkpt lat="40.62909619907642" lon="14.477827230462355"><ele>172.0</ele><time>2026-04-26T09:46:12Z</time></trkpt><trkpt lat="40.62916809976664" lon="14.4777490948766"><ele>172.0</ele><time>2026-04-26T09:46:13Z</time></trkpt><trkpt lat="40.629248979181746" lon="14.477686786242776"><ele>172.0</ele><time>2026-04-26T09:46:14Z</time></trkpt><trkpt lat="40.629329851712015" lon="14.477628558766574"><ele>172.0</ele><time>2026-04-26T09:46:15Z</time></trkpt><trkpt lat="40.62940683608677" lon="14.477567723384638"><ele>172.0</ele><time>2026-04-26T09:46:16Z</time></trkpt><trkpt lat="40.62948322209773" lon="14.477505060750774"><ele>172.0</ele><time>2026-04-26T09:46:17Z</time></trkpt><trkpt lat="40.62955653304741" lon="14.477456148724604"><ele>172.0</ele><time>2026-04-26T09:46:18Z</time></trkpt><trkpt lat="40.629638375567815" lon="14.477433733757879"><ele>176.0</ele><time>2026-04-26T09:46:19Z</time></trkpt><trkpt lat="40.62972238123653" lon="14.477425247940387"><ele>180.0</ele><time>2026-04-26T09:46:20Z</time></trkpt><trkpt lat="40.62980637030596" lon="14.4774337610601"><ele>184.0</ele><time>2026-04-26T09:46:21Z</time></trkpt><trkpt lat="40.62988672596672" lon="14.477451182608986"><ele>188.0</ele><time>2026-04-26T09:46:22Z</time></trkpt><trkpt lat="40.629962834808126" lon="14.47747048401084"><ele>191.99999999999997</ele><time>2026-04-26T09:46:23Z</time></trkpt><trkpt lat="40.63003449048015" lon="14.477489703576952"><ele>196.0</ele><time>2026-04-26T09:46:24Z</time></trkpt><trkpt lat="40.63009119018082" lon="14.477531643951425"><ele>195.99999999999997</ele><time>2026-04-26T09:46:25Z</time></trkpt><trkpt lat="40.63011450330315" lon="14.47766987671582"><ele>196.0</ele><time>2026-04-26T09:46:27Z</time></trkpt><trkpt lat="40.63006186845735" lon="14.477741420671707"><ele>196.0</ele><time>2026-04-26T09:46:28Z</time></trkpt><trkpt lat="40.63003147501096" lon="14.477816947230524"><ele>196.0</ele><time>2026-04-26T09:46:29Z</time></trkpt><trkpt lat="40.62998571268632" lon="14.477881106414387"><ele>195.99999999999997</ele><time>2026-04-26T09:46:30Z</time></trkpt><trkpt lat="40.62993383243708" lon="14.477968730726266"><ele>196.0</ele><time>2026-04-26T09:46:31Z</time></trkpt><trkpt lat="40.62985863033406" lon="14.478093683427065"><ele>194.49999999999997</ele><time>2026-04-26T09:46:33Z</time></trkpt><trkpt lat="40.629822765141725" lon="14.478234961596888"><ele>193.0</ele><time>2026-04-26T09:46:35Z</time></trkpt><trkpt lat="40.62980198737083" lon="14.47831564090893"><ele>191.5</ele><time>2026-04-26T09:46:36Z</time></trkpt><trkpt lat="40.62979532729134" lon="14.478404169924858"><ele>190.0</ele><time>2026-04-26T09:46:37Z</time></trkpt><trkpt lat="40.62980353727891" lon="14.478502269575099"><ele>188.5</ele><time>2026-04-26T09:46:38Z</time></trkpt><trkpt lat="40.62981029147972" lon="14.478606572008122"><ele>187.0</ele><time>2026-04-26T09:46:39Z</time></trkpt><trkpt lat="40.629817353810985" lon="14.47871234652721"><ele>187.33333333333334</ele><time>2026-04-26T09:46:40Z</time></trkpt><trkpt lat="40.629824159128304" lon="14.478816465108222"><ele>187.66666666666669</ele><time>2026-04-26T09:46:40.999Z</time></trkpt><trkpt lat="40.62982898629293" lon="14.47891611284367"><ele>188.0</ele><time>2026-04-26T09:46:41.999Z</time></trkpt><trkpt lat="40.629837162293704" lon="14.479007182822095"><ele>188.33333333333334</ele><time>2026-04-26T09:46:42.999Z</time></trkpt><trkpt lat="40.6298391520178" lon="14.47914539751173"><ele>188.66666666666666</ele><time>2026-04-26T09:46:44.999Z</time></trkpt><trkpt lat="40.62985014120567" lon="14.479232970152003"><ele>189.0</ele><time>2026-04-26T09:46:47.999Z</time></trkpt><trkpt lat="40.62987948998118" lon="14.47934275845608"><ele>189.0</ele><time>2026-04-26T09:46:51.999Z</time></trkpt><trkpt lat="40.62989871340026" lon="14.479440177676787"><ele>189.0</ele><time>2026-04-26T09:46:53.999Z</time></trkpt><trkpt lat="40.629914925427634" lon="14.47954265683304"><ele>189.0</ele><time>2026-04-26T09:46:55.999Z</time></trkpt><trkpt lat="40.629925116104026" lon="14.479629905842804"><ele>189.0</ele><time>2026-04-26T09:46:57.999Z</time></trkpt><trkpt lat="40.62993560692318" lon="14.479730246933292"><ele>189.0</ele><time>2026-04-26T09:47:00.999Z</time></trkpt><trkpt lat="40.62995558387204" lon="14.479816219342963"><ele>189.0</ele><time>2026-04-26T09:47:54Z</time></trkpt><trkpt lat="40.629958192304144" lon="14.47990357084488"><ele>189.0</ele><time>2026-04-26T09:48:10Z</time></trkpt><trkpt lat="40.629966426818925" lon="14.479988519831513"><ele>188.42857142857142</ele><time>2026-04-26T09:48:15Z</time></trkpt><trkpt lat="40.629949385653504" lon="14.480069785407117"><ele>187.85714285714286</ele><time>2026-04-26T09:48:19Z</time></trkpt><trkpt lat="40.62991645392132" lon="14.480164972055556"><ele>187.28571428571428</ele><time>2026-04-26T09:48:21Z</time></trkpt><trkpt lat="40.62988372536992" lon="14.480251224699538"><ele>186.71428571428572</ele><time>2026-04-26T09:48:23Z</time></trkpt><trkpt lat="40.629852236790825" lon="14.48033420956999"><ele>186.14285714285714</ele><time>2026-04-26T09:48:26Z</time></trkpt><trkpt lat="40.62982078624305" lon="14.480417094288692"><ele>185.57142857142856</ele><time>2026-04-26T09:48:30Z</time></trkpt><trkpt lat="40.6297897639722" lon="14.480498877621146"><ele>185.0</ele><time>2026-04-26T09:48:36Z</time></trkpt><trkpt lat="40.62975487399647" lon="14.480590873894524"><ele>184.99999999999997</ele><time>2026-04-26T09:48:54.999Z</time></trkpt><trkpt lat="40.629722775335104" lon="14.480670596869135"><ele>185.0</ele><time>2026-04-26T09:48:57.999Z</time></trkpt><trkpt lat="40.62967627051644" lon="14.480762504232585"><ele>185.0</ele><time>2026-04-26T09:49:05.999Z</time></trkpt><trkpt lat="40.62962535349279" lon="14.480834892293329"><ele>185.0</ele><time>2026-04-26T09:49:08.999Z</time></trkpt><trkpt lat="40.629577521808976" lon="14.480889450458566"><ele>185.0</ele><time>2026-04-26T09:49:20Z</time></trkpt><trkpt lat="40.629542701900554" lon="14.480974681905568"><ele>184.99999999999997</ele><time>2026-04-26T09:49:38Z</time></trkpt><trkpt lat="40.629528345106905" lon="14.481072134830816"><ele>185.0</ele><time>2026-04-26T09:49:52Z</time></trkpt><trkpt lat="40.62952147434143" lon="14.481157625249317"><ele>184.99999999999997</ele><time>2026-04-26T09:49:55Z</time></trkpt><trkpt lat="40.629517140774716" lon="14.481257920336235"><ele>185.0</ele><time>2026-04-26T09:49:58Z</time></trkpt><trkpt lat="40.62951814077465" lon="14.481346219535075"><ele>185.0</ele><time>2026-04-26T09:50:15Z</time></trkpt><trkpt lat="40.629512334030984" lon="14.481445782141805"><ele>185.0</ele><time>2026-04-26T09:50:18Z</time></trkpt><trkpt lat="40.62953293024831" lon="14.48154340143952"><ele>185.0</ele><time>2026-04-26T09:50:20Z</time></trkpt><trkpt lat="40.62948015744955" lon="14.481598652426529"><ele>184.99999999999997</ele><time>2026-04-26T09:50:32Z</time></trkpt><trkpt lat="40.629417999024504" lon="14.481669522550318"><ele>185.0</ele><time>2026-04-26T09:50:57.999Z</time></trkpt><trkpt lat="40.62937972316378" lon="14.481770211447172"><ele>179.28571428571428</ele><time>2026-04-26T09:51:01.999Z</time></trkpt><trkpt lat="40.6293493329358" lon="14.481852741326314"><ele>173.57142857142856</ele><time>2026-04-26T09:51:04.999Z</time></trkpt><trkpt lat="40.629332168778404" lon="14.481949016335351"><ele>167.85714285714286</ele><time>2026-04-26T09:51:08.999Z</time></trkpt><trkpt lat="40.629312822238" lon="14.48204652556637"><ele>162.14285714285714</ele><time>2026-04-26T09:51:17.999Z</time></trkpt><trkpt lat="40.6293036161266" lon="14.482140090144878"><ele>156.42857142857144</ele><time>2026-04-26T09:51:20.999Z</time></trkpt><trkpt lat="40.62934013384107" lon="14.482231014013243"><ele>150.71428571428572</ele><time>2026-04-26T09:51:25Z</time></trkpt><trkpt lat="40.62939471111281" lon="14.482299157617705"><ele>145.0</ele><time>2026-04-26T09:51:29Z</time></trkpt><trkpt lat="40.62944240770921" lon="14.482363111559655"><ele>145.0</ele><time>2026-04-26T09:51:33Z</time></trkpt><trkpt lat="40.62940945412424" lon="14.482442248184492"><ele>145.0</ele><time>2026-04-26T09:51:37Z</time></trkpt><trkpt lat="40.62935474446536" lon="14.482531619568181"><ele>145.0</ele><time>2026-04-26T09:51:41Z</time></trkpt><trkpt lat="40.629310370409975" lon="14.482636560741303"><ele>145.0</ele><time>2026-04-26T09:51:44Z</time></trkpt><trkpt lat="40.62927018505506" lon="14.48271081490691"><ele>145.0</ele><time>2026-04-26T09:51:46Z</time></trkpt><trkpt lat="40.62923208622079" lon="14.482778097644083"><ele>145.0</ele><time>2026-04-26T09:51:48Z</time></trkpt><trkpt lat="40.629187103412455" lon="14.482856241531413"><ele>144.0</ele><time>2026-04-26T09:51:51Z</time></trkpt><trkpt lat="40.62914129195817" lon="14.482941559126258"><ele>143.0</ele><time>2026-04-26T09:51:54Z</time></trkpt><trkpt lat="40.62908937597698" lon="14.483050810960563"><ele>142.0</ele><time>2026-04-26T09:51:57Z</time></trkpt><trkpt lat="40.62904353357435" lon="14.483137946407199"><ele>141.0</ele><time>2026-04-26T09:51:59Z</time></trkpt><trkpt lat="40.62899518088875" lon="14.483217862796668"><ele>140.0</ele><time>2026-04-26T09:52:01Z</time></trkpt><trkpt lat="40.62894958884092" lon="14.483289521217182"><ele>139.0</ele><time>2026-04-26T09:52:03Z</time></trkpt><trkpt lat="40.62893622926147" lon="14.483376428968336"><ele>139.0</ele><time>2026-04-26T09:52:05Z</time></trkpt><trkpt lat="40.62899550930397" lon="14.483409776533557"><ele>139.0</ele><time>2026-04-26T09:52:07Z</time></trkpt><trkpt lat="40.62906426290231" lon="14.48330342425772"><ele>139.0</ele><time>2026-04-26T09:52:10Z</time></trkpt><trkpt lat="40.62909837971721" lon="14.483233242752933"><ele>139.0</ele><time>2026-04-26T09:52:11Z</time></trkpt><trkpt lat="40.62916007602829" lon="14.483119984867365"><ele>139.0</ele><time>2026-04-26T09:52:13Z</time></trkpt><trkpt lat="40.629219204093694" lon="14.483014209288566"><ele>139.0</ele><time>2026-04-26T09:52:15Z</time></trkpt><trkpt lat="40.62928791454922" lon="14.482915239339388"><ele>139.16666666666669</ele><time>2026-04-26T09:52:17Z</time></trkpt><trkpt lat="40.62936300159878" lon="14.482821439233673"><ele>139.33333333333334</ele><time>2026-04-26T09:52:19Z</time></trkpt><trkpt lat="40.6294057797313" lon="14.482759876637706"><ele>139.5</ele><time>2026-04-26T09:52:20Z</time></trkpt><trkpt lat="40.62945435191198" lon="14.482692058735426"><ele>139.66666666666666</ele><time>2026-04-26T09:52:21Z</time></trkpt><trkpt lat="40.62949928758485" lon="14.482623873285874"><ele>139.83333333333331</ele><time>2026-04-26T09:52:22Z</time></trkpt><trkpt lat="40.629540102141014" lon="14.482546565832246"><ele>140.0</ele><time>2026-04-26T09:52:23Z</time></trkpt><trkpt lat="40.62958178840112" lon="14.482466721733703"><ele>140.0</ele><time>2026-04-26T09:52:24Z</time></trkpt><trkpt lat="40.629618980245404" lon="14.482393749571006"><ele>140.0</ele><time>2026-04-26T09:52:25Z</time></trkpt><trkpt lat="40.62969485418893" lon="14.482293633182337"><ele>140.0</ele><time>2026-04-26T09:52:27Z</time></trkpt><trkpt lat="40.62976135524494" lon="14.482245438420836"><ele>140.0</ele><time>2026-04-26T09:52:30Z</time></trkpt><trkpt lat="40.62982625546982" lon="14.482198453572229"><ele>140.0</ele><time>2026-04-26T09:52:35Z</time></trkpt><trkpt lat="40.62989049022105" lon="14.482217300838744"><ele>140.0</ele><time>2026-04-26T09:52:40Z</time></trkpt><trkpt lat="40.62984157138984" lon="14.482295713889988"><ele>140.0</ele><time>2026-04-26T09:52:43Z</time></trkpt><trkpt lat="40.62976862910203" lon="14.48233487576342"><ele>140.0</ele><time>2026-04-26T09:52:45Z</time></trkpt><trkpt lat="40.6297167026038" lon="14.48240905003037"><ele>140.0</ele><time>2026-04-26T09:52:47Z</time></trkpt><trkpt lat="40.62966568792735" lon="14.482486835832141"><ele>140.0</ele><time>2026-04-26T09:52:49Z</time></trkpt><trkpt lat="40.62962355008835" lon="14.48255788341356"><ele>140.0</ele><time>2026-04-26T09:52:51Z</time></trkpt><trkpt lat="40.62958053995753" lon="14.482633698871076"><ele>140.0</ele><time>2026-04-26T09:52:54Z</time></trkpt><trkpt lat="40.629536660948176" lon="14.482738146967568"><ele>140.0</ele><time>2026-04-26T09:52:57Z</time></trkpt><trkpt lat="40.62948884281289" lon="14.482803914914001"><ele>140.0</ele><time>2026-04-26T09:52:58.999Z</time></trkpt><trkpt lat="40.62942588787617" lon="14.48289039225103"><ele>140.0</ele><time>2026-04-26T09:53:00.999Z</time></trkpt><trkpt lat="40.6293678087325" lon="14.482955626410272"><ele>140.0</ele><time>2026-04-26T09:53:02.999Z</time></trkpt><trkpt lat="40.62931519897695" lon="14.483037711362861"><ele>140.0</ele><time>2026-04-26T09:53:05.999Z</time></trkpt><trkpt lat="40.62925756665144" lon="14.483117570277381"><ele>140.0</ele><time>2026-04-26T09:53:07.999Z</time></trkpt><trkpt lat="40.6292190917215" lon="14.483215326171168"><ele>139.83333333333331</ele><time>2026-04-26T09:53:09.999Z</time></trkpt><trkpt lat="40.62918846399306" lon="14.483293793465805"><ele>139.66666666666666</ele><time>2026-04-26T09:53:11.999Z</time></trkpt><trkpt lat="40.629149264142214" lon="14.483395647598611"><ele>139.5</ele><time>2026-04-26T09:53:14.999Z</time></trkpt><trkpt lat="40.62912857572614" lon="14.483491990884225"><ele>139.33333333333334</ele><time>2026-04-26T09:53:16.999Z</time></trkpt><trkpt lat="40.62910278448567" lon="14.483604940025582"><ele>139.16666666666669</ele><time>2026-04-26T09:53:18.999Z</time></trkpt><trkpt lat="40.62907426157435" lon="14.483719247495939"><ele>139.0</ele><time>2026-04-26T09:53:20.999Z</time></trkpt><trkpt lat="40.628988862206654" lon="14.48377513761822"><ele>135.83333333333334</ele><time>2026-04-26T09:53:22.999Z</time></trkpt><trkpt lat="40.62890718070823" lon="14.483816515365643"><ele>132.66666666666669</ele><time>2026-04-26T09:53:24.999Z</time></trkpt><trkpt lat="40.628820306627965" lon="14.483820524866697"><ele>129.5</ele><time>2026-04-26T09:53:26.999Z</time></trkpt><trkpt lat="40.62873212728292" lon="14.48383456732686"><ele>126.33333333333334</ele><time>2026-04-26T09:53:30Z</time></trkpt><trkpt lat="40.628669617351356" lon="14.483860138234013"><ele>123.16666666666667</ele><time>2026-04-26T09:53:33Z</time></trkpt><trkpt lat="40.62860535388429" lon="14.483917191171301"><ele>120.0</ele><time>2026-04-26T09:53:36Z</time></trkpt><trkpt lat="40.62858518558602" lon="14.484020186686408"><ele>120.0</ele><time>2026-04-26T09:53:40Z</time></trkpt><trkpt lat="40.62857159524758" lon="14.484139013542888"><ele>120.0</ele><time>2026-04-26T09:53:43Z</time></trkpt><trkpt lat="40.62850929468402" lon="14.484204802837038"><ele>120.0</ele><time>2026-04-26T09:53:46Z</time></trkpt><trkpt lat="40.62843806960928" lon="14.484234541943431"><ele>120.0</ele><time>2026-04-26T09:53:51Z</time></trkpt><trkpt lat="40.628358132619496" lon="14.484227841803783"><ele>120.0</ele><time>2026-04-26T09:53:54Z</time></trkpt><trkpt lat="40.62829333743066" lon="14.48415425259457"><ele>120.0</ele><time>2026-04-26T09:53:57Z</time></trkpt><trkpt lat="40.62829882480986" lon="14.484025414748178"><ele>120.0</ele><time>2026-04-26T09:54:00Z</time></trkpt><trkpt lat="40.62832605627268" lon="14.483923488608959"><ele>120.0</ele><time>2026-04-26T09:54:02Z</time></trkpt><trkpt lat="40.628342237889164" lon="14.48380110087432"><ele>120.0</ele><time>2026-04-26T09:54:05Z</time></trkpt><trkpt lat="40.62833694680486" lon="14.483694858207022"><ele>120.0</ele><time>2026-04-26T09:54:07Z</time></trkpt><trkpt lat="40.62832819127108" lon="14.483585635400848"><ele>120.0</ele><time>2026-04-26T09:54:09Z</time></trkpt><trkpt lat="40.62832565352102" lon="14.48349225090941"><ele>120.0</ele><time>2026-04-26T09:54:11Z</time></trkpt><trkpt lat="40.628318003607724" lon="14.483371332801472"><ele>119.71428571428572</ele><time>2026-04-26T09:54:14Z</time></trkpt><trkpt lat="40.6283199844348" lon="14.483287742826446"><ele>119.42857142857142</ele><time>2026-04-26T09:54:16Z</time></trkpt><trkpt lat="40.628326855014805" lon="14.483204133127892"><ele>119.14285714285714</ele><time>2026-04-26T09:54:21Z</time></trkpt><trkpt lat="40.62833468843858" lon="14.48309550830351"><ele>118.85714285714286</ele><time>2026-04-26T09:54:25Z</time></trkpt><trkpt lat="40.62835884641994" lon="14.482975130356875"><ele>118.57142857142858</ele><time>2026-04-26T09:54:28Z</time></trkpt><trkpt lat="40.62838313741006" lon="14.482888574661526"><ele>118.28571428571428</ele><time>2026-04-26T09:54:30Z</time></trkpt><trkpt lat="40.62841855565086" lon="14.482805860886295"><ele>118.0</ele><time>2026-04-26T09:54:32Z</time></trkpt><trkpt lat="40.62845662269493" lon="14.482723595772695"><ele>116.0</ele><time>2026-04-26T09:54:34Z</time></trkpt><trkpt lat="40.62848877251821" lon="14.482646296584871"><ele>114.0</ele><time>2026-04-26T09:54:39Z</time></trkpt><trkpt lat="40.628510999982545" lon="14.48256558917034"><ele>112.0</ele><time>2026-04-26T09:57:26Z</time></trkpt><trkpt lat="40.62854693755224" lon="14.482495765282497"><ele>110.0</ele><time>2026-04-26T09:57:28Z</time></trkpt><trkpt lat="40.62857309396952" lon="14.482406951965013"><ele>108.0</ele><time>2026-04-26T09:57:30Z</time></trkpt><trkpt lat="40.62860060142321" lon="14.482325409723908"><ele>106.0</ele><time>2026-04-26T09:57:32Z</time></trkpt><trkpt lat="40.62865467569741" lon="14.482221272180757"><ele>104.0</ele><time>2026-04-26T09:57:35Z</time></trkpt><trkpt lat="40.62868628324556" lon="14.482148256365464"><ele>110.49999999999999</ele><time>2026-04-26T09:57:37Z</time></trkpt><trkpt lat="40.628723497821085" lon="14.482056156615315"><ele>117.0</ele><time>2026-04-26T09:57:39Z</time></trkpt><trkpt lat="40.62875719609831" lon="14.48196339735448"><ele>123.5</ele><time>2026-04-26T09:57:41Z</time></trkpt><trkpt lat="40.628781643802725" lon="14.481882925163207"><ele>130.0</ele><time>2026-04-26T09:57:43Z</time></trkpt><trkpt lat="40.62880261581265" lon="14.481765214082204"><ele>136.5</ele><time>2026-04-26T09:57:46Z</time></trkpt><trkpt lat="40.628821327368414" lon="14.481652861047765"><ele>143.0</ele><time>2026-04-26T09:57:49Z</time></trkpt><trkpt lat="40.628828097743174" lon="14.481560520359897"><ele>142.99999999999997</ele><time>2026-04-26T09:57:52Z</time></trkpt><trkpt lat="40.62884117067658" lon="14.4814614982862"><ele>143.0</ele><time>2026-04-26T09:57:55Z</time></trkpt><trkpt lat="40.62884153787125" lon="14.481343201851967"><ele>143.0</ele><time>2026-04-26T09:57:58Z</time></trkpt><trkpt lat="40.628845289583914" lon="14.481253048023458"><ele>143.0</ele><time>2026-04-26T09:58:00Z</time></trkpt><trkpt lat="40.628842462883625" lon="14.481161295216564"><ele>143.0</ele><time>2026-04-26T09:58:02Z</time></trkpt><trkpt lat="40.62883951145993" lon="14.48106800673799"><ele>142.99999999999997</ele><time>2026-04-26T09:58:04Z</time></trkpt><trkpt lat="40.62883594009901" lon="14.480974458412213"><ele>143.0</ele><time>2026-04-26T09:58:06Z</time></trkpt><trkpt lat="40.62883644751636" lon="14.480876254103851"><ele>141.5</ele><time>2026-04-26T09:58:10Z</time></trkpt><trkpt lat="40.628844198623185" lon="14.48077752433739"><ele>140.0</ele><time>2026-04-26T09:58:15Z</time></trkpt><trkpt lat="40.62887273923295" lon="14.480686688641542"><ele>138.5</ele><time>2026-04-26T09:58:18Z</time></trkpt><trkpt lat="40.62892114164801" lon="14.480575141992944"><ele>137.0</ele><time>2026-04-26T09:58:21Z</time></trkpt><trkpt lat="40.62894339934997" lon="14.480482996470965"><ele>135.5</ele><time>2026-04-26T09:58:23Z</time></trkpt><trkpt lat="40.62897055254785" lon="14.480399753722345"><ele>134.0</ele><time>2026-04-26T09:58:25Z</time></trkpt><trkpt lat="40.62900795186578" lon="14.480295403870846"><ele>132.66666666666666</ele><time>2026-04-26T09:58:28Z</time></trkpt><trkpt lat="40.62904469156376" lon="14.480193168289624"><ele>131.33333333333331</ele><time>2026-04-26T09:58:42Z</time></trkpt><trkpt lat="40.629074894762304" lon="14.48009972955568"><ele>130.0</ele><time>2026-04-26T09:58:45Z</time></trkpt><trkpt lat="40.62905360989645" lon="14.479998393830648"><ele>128.66666666666666</ele><time>2026-04-26T09:58:48.001Z</time></trkpt><trkpt lat="40.62898180970362" lon="14.479969539564767"><ele>127.33333333333333</ele><time>2026-04-26T09:58:50.001Z</time></trkpt><trkpt lat="40.628918620917666" lon="14.479964149152087"><ele>126.0</ele><time>2026-04-26T09:58:52.001Z</time></trkpt><trkpt lat="40.628834316312975" lon="14.480027448494992"><ele>126.0</ele><time>2026-04-26T09:58:55.001Z</time></trkpt><trkpt lat="40.628778555285656" lon="14.480096285569228"><ele>126.0</ele><time>2026-04-26T09:58:57.001Z</time></trkpt><trkpt lat="40.62873006909884" lon="14.480154104183557"><ele>126.0</ele><time>2026-04-26T09:58:59.001Z</time></trkpt><trkpt lat="40.62866263866668" lon="14.480228626551366"><ele>126.0</ele><time>2026-04-26T09:59:02.001Z</time></trkpt><trkpt lat="40.628579552277074" lon="14.480269530365792"><ele>126.0</ele><time>2026-04-26T09:59:05.001Z</time></trkpt><trkpt lat="40.62851504740308" lon="14.480269304898815"><ele>126.0</ele><time>2026-04-26T09:59:07.001Z</time></trkpt><trkpt lat="40.62844644359067" lon="14.480262772959504"><ele>126.16666666666667</ele><time>2026-04-26T09:59:09.001Z</time></trkpt><trkpt lat="40.628366660272114" lon="14.480257758887062"><ele>126.33333333333334</ele><time>2026-04-26T09:59:12.001Z</time></trkpt><trkpt lat="40.62829693153184" lon="14.480253481081517"><ele>126.5</ele><time>2026-04-26T09:59:15.001Z</time></trkpt><trkpt lat="40.628244511695414" lon="14.480307413935344"><ele>126.66666666666667</ele><time>2026-04-26T09:59:19.998Z</time></trkpt><trkpt lat="40.6283431795224" lon="14.480381026762327"><ele>126.83333333333334</ele><time>2026-04-26T09:59:24.998Z</time></trkpt><trkpt lat="40.62840729866948" lon="14.480401346370465"><ele>127.0</ele><time>2026-04-26T09:59:25.998Z</time></trkpt><trkpt lat="40.62846607927357" lon="14.4804850214834"><ele>123.42857142857143</ele><time>2026-04-26T09:59:27.998Z</time></trkpt><trkpt lat="40.62849987037273" lon="14.480576350794676"><ele>119.85714285714285</ele><time>2026-04-26T09:59:29.998Z</time></trkpt><trkpt lat="40.628520338684005" lon="14.480672910460616"><ele>116.28571428571428</ele><time>2026-04-26T09:59:31.998Z</time></trkpt><trkpt lat="40.6285295995227" lon="14.48076991260501"><ele>112.71428571428572</ele><time>2026-04-26T09:59:33.998Z</time></trkpt><trkpt lat="40.628525226872554" lon="14.480862298282918"><ele>109.14285714285714</ele><time>2026-04-26T09:59:35.999Z</time></trkpt><trkpt lat="40.62850248255334" lon="14.480940327759651"><ele>105.57142857142857</ele><time>2026-04-26T09:59:37.999Z</time></trkpt><trkpt lat="40.62849739043846" lon="14.481041765522512"><ele>102.0</ele><time>2026-04-26T09:59:44.999Z</time></trkpt><trkpt lat="40.628466332614245" lon="14.481126841435488"><ele>102.0</ele><time>2026-04-26T09:59:47.999Z</time></trkpt><trkpt lat="40.62842914239115" lon="14.48120612128293"><ele>102.0</ele><time>2026-04-26T09:59:51.999Z</time></trkpt><trkpt lat="40.62838472821483" lon="14.48130637703038"><ele>102.0</ele><time>2026-04-26T09:59:55.999Z</time></trkpt><trkpt lat="40.62834868158936" lon="14.481402242017305"><ele>102.0</ele><time>2026-04-26T09:59:58.999Z</time></trkpt><trkpt lat="40.62832666963422" lon="14.481486678959525"><ele>102.0</ele><time>2026-04-26T10:00:01.999Z</time></trkpt><trkpt lat="40.628309151311406" lon="14.481568172014057"><ele>102.0</ele><time>2026-04-26T10:00:03.999Z</time></trkpt><trkpt lat="40.62827389784653" lon="14.481641479581699"><ele>102.0</ele><time>2026-04-26T10:00:06.999Z</time></trkpt><trkpt lat="40.628262872806786" lon="14.481726333564248"><ele>102.33333333333333</ele><time>2026-04-26T10:00:08.999Z</time></trkpt><trkpt lat="40.628255365220035" lon="14.4818236214449"><ele>102.66666666666666</ele><time>2026-04-26T10:00:35Z</time></trkpt><trkpt lat="40.62824218143952" lon="14.481920674581191"><ele>103.0</ele><time>2026-04-26T10:00:39Z</time></trkpt><trkpt lat="40.62821647387144" lon="14.482025465635866"><ele>103.33333333333333</ele><time>2026-04-26T10:00:43Z</time></trkpt><trkpt lat="40.62820073308601" lon="14.482150653469601"><ele>103.66666666666666</ele><time>2026-04-26T10:00:46Z</time></trkpt><trkpt lat="40.62817403977819" lon="14.48224368105791"><ele>104.0</ele><time>2026-04-26T10:00:48Z</time></trkpt><trkpt lat="40.62816005769581" lon="14.482336034561504"><ele>103.99999999999999</ele><time>2026-04-26T10:00:50Z</time></trkpt><trkpt lat="40.62814542696273" lon="14.482433154955777"><ele>104.0</ele><time>2026-04-26T10:00:52Z</time></trkpt><trkpt lat="40.62812580655973" lon="14.482532339434643"><ele>104.0</ele><time>2026-04-26T10:00:54Z</time></trkpt><trkpt lat="40.62810283700145" lon="14.4826310830525"><ele>104.0</ele><time>2026-04-26T10:00:56Z</time></trkpt><trkpt lat="40.62807523934218" lon="14.482726095927596"><ele>103.99999999999999</ele><time>2026-04-26T10:00:58Z</time></trkpt><trkpt lat="40.62804324888156" lon="14.482826208619525"><ele>104.0</ele><time>2026-04-26T10:01:00Z</time></trkpt><trkpt lat="40.62801537439504" lon="14.482927260356115"><ele>106.33333333333333</ele><time>2026-04-26T10:01:02Z</time></trkpt><trkpt lat="40.627976489346516" lon="14.48301984203378"><ele>108.66666666666666</ele><time>2026-04-26T10:01:04Z</time></trkpt><trkpt lat="40.62793881791137" lon="14.483117697737386"><ele>111.0</ele><time>2026-04-26T10:01:06Z</time></trkpt><trkpt lat="40.62790199726764" lon="14.483221665593693"><ele>113.33333333333334</ele><time>2026-04-26T10:01:08Z</time></trkpt><trkpt lat="40.627863073837176" lon="14.483326826748657"><ele>115.66666666666667</ele><time>2026-04-26T10:01:10Z</time></trkpt><trkpt lat="40.62782715110787" lon="14.483436918910009"><ele>118.0</ele><time>2026-04-26T10:01:12Z</time></trkpt><trkpt lat="40.62778549677224" lon="14.48353061542638"><ele>112.85714285714285</ele><time>2026-04-26T10:01:14Z</time></trkpt><trkpt lat="40.627757671769224" lon="14.483628337337167"><ele>107.71428571428572</ele><time>2026-04-26T10:01:16Z</time></trkpt><trkpt lat="40.62771314204598" lon="14.483697799970082"><ele>102.57142857142857</ele><time>2026-04-26T10:01:18Z</time></trkpt><trkpt lat="40.627658517881756" lon="14.483761228312108"><ele>97.42857142857142</ele><time>2026-04-26T10:01:20Z</time></trkpt><trkpt lat="40.6276126225086" lon="14.483820858141014"><ele>92.28571428571428</ele><time>2026-04-26T10:01:21.999Z</time></trkpt><trkpt lat="40.62756655654492" lon="14.483893250803744"><ele>87.14285714285714</ele><time>2026-04-26T10:01:23.999Z</time></trkpt><trkpt lat="40.62752032159034" lon="14.483983701100627"><ele>82.0</ele><time>2026-04-26T10:01:25.999Z</time></trkpt><trkpt lat="40.627481365829006" lon="14.484083123959199"><ele>82.0</ele><time>2026-04-26T10:01:27.999Z</time></trkpt><trkpt lat="40.62746155903144" lon="14.484182213188314"><ele>82.0</ele><time>2026-04-26T10:01:29.999Z</time></trkpt><trkpt lat="40.62746724602403" lon="14.484270742494731"><ele>82.0</ele><time>2026-04-26T10:01:31.999Z</time></trkpt><trkpt lat="40.62750490893399" lon="14.484379710102"><ele>82.0</ele><time>2026-04-26T10:01:34.999Z</time></trkpt><trkpt lat="40.627528359609954" lon="14.48447075795935"><ele>82.0</ele><time>2026-04-26T10:01:37.999Z</time></trkpt><trkpt lat="40.62755278672237" lon="14.484560032435642"><ele>82.0</ele><time>2026-04-26T10:01:40.999Z</time></trkpt><trkpt lat="40.62758913796998" lon="14.484653093692238"><ele>82.57142857142857</ele><time>2026-04-26T10:01:43.999Z</time></trkpt><trkpt lat="40.62761537671538" lon="14.484743674974627"><ele>83.14285714285714</ele><time>2026-04-26T10:01:46.999Z</time></trkpt><trkpt lat="40.627635853512956" lon="14.48483182006779"><ele>83.71428571428572</ele><time>2026-04-26T10:01:52Z</time></trkpt><trkpt lat="40.627670035347116" lon="14.484907750424266"><ele>84.28571428571428</ele><time>2026-04-26T10:01:55Z</time></trkpt><trkpt lat="40.627707715223494" lon="14.485010509708715"><ele>84.85714285714286</ele><time>2026-04-26T10:02:04Z</time></trkpt><trkpt lat="40.62773884348949" lon="14.485107098079371"><ele>85.42857142857143</ele><time>2026-04-26T10:02:08Z</time></trkpt><trkpt lat="40.62776199465884" lon="14.485184348725628"><ele>86.0</ele><time>2026-04-26T10:02:11Z</time></trkpt><trkpt lat="40.627825322919655" lon="14.485231930724101"><ele>86.0</ele><time>2026-04-26T10:02:14Z</time></trkpt><trkpt lat="40.62790904425383" lon="14.485247476303673"><ele>86.0</ele><time>2026-04-26T10:02:18Z</time></trkpt><trkpt lat="40.627986517582734" lon="14.48526020075442"><ele>86.0</ele><time>2026-04-26T10:02:22Z</time></trkpt><trkpt lat="40.62807352553521" lon="14.485268018873873"><ele>86.0</ele><time>2026-04-26T10:02:25Z</time></trkpt><trkpt lat="40.628141926675276" lon="14.485265768790683"><ele>86.0</ele><time>2026-04-26T10:02:27Z</time></trkpt><trkpt lat="40.628221516264766" lon="14.485238678286509"><ele>86.0</ele><time>2026-04-26T10:02:29Z</time></trkpt><trkpt lat="40.6282875431791" lon="14.48523437245236"><ele>86.0</ele><time>2026-04-26T10:02:31Z</time></trkpt><trkpt lat="40.628361264959615" lon="14.485210733200141"><ele>86.0</ele><time>2026-04-26T10:02:33Z</time></trkpt><trkpt lat="40.62843951831589" lon="14.485193185112482"><ele>86.0</ele><time>2026-04-26T10:02:35Z</time></trkpt><trkpt lat="40.62851024184118" lon="14.48516179835803"><ele>86.0</ele><time>2026-04-26T10:02:37Z</time></trkpt><trkpt lat="40.628582284989434" lon="14.485139451842894"><ele>86.0</ele><time>2026-04-26T10:02:39Z</time></trkpt><trkpt lat="40.628675756893784" lon="14.48510810102759"><ele>86.0</ele><time>2026-04-26T10:02:41Z</time></trkpt><trkpt lat="40.62877018726069" lon="14.485075210866214"><ele>83.6</ele><time>2026-04-26T10:02:43Z</time></trkpt><trkpt lat="40.62886921738769" lon="14.485036541671427"><ele>81.19999999999999</ele><time>2026-04-26T10:02:45Z</time></trkpt><trkpt lat="40.62897636067269" lon="14.485035360774953"><ele>78.80000000000001</ele><time>2026-04-26T10:02:47Z</time></trkpt><trkpt lat="40.62907683697288" lon="14.48507369472494"><ele>76.4</ele><time>2026-04-26T10:02:49.001Z</time></trkpt><trkpt lat="40.62917418883057" lon="14.48512181146871"><ele>74.0</ele><time>2026-04-26T10:02:51.001Z</time></trkpt><trkpt lat="40.629269385954835" lon="14.485167907559715"><ele>74.0</ele><time>2026-04-26T10:02:53.001Z</time></trkpt><trkpt lat="40.62936982975388" lon="14.48519445232827"><ele>74.0</ele><time>2026-04-26T10:02:55.001Z</time></trkpt><trkpt lat="40.629457593361764" lon="14.485186613362728"><ele>74.0</ele><time>2026-04-26T10:02:57.001Z</time></trkpt><trkpt lat="40.62953277162374" lon="14.485157982305155"><ele>74.0</ele><time>2026-04-26T10:02:59.001Z</time></trkpt><trkpt lat="40.62962662586263" lon="14.485112469333599"><ele>74.0</ele><time>2026-04-26T10:03:01.001Z</time></trkpt><trkpt lat="40.62971177916881" lon="14.48506422591917"><ele>74.85714285714286</ele><time>2026-04-26T10:03:03.001Z</time></trkpt><trkpt lat="40.629776908550156" lon="14.485002870152247"><ele>75.71428571428571</ele><time>2026-04-26T10:03:05.001Z</time></trkpt><trkpt lat="40.62982113766049" lon="14.484926891092522"><ele>76.57142857142857</ele><time>2026-04-26T10:03:07.001Z</time></trkpt><trkpt lat="40.62984803448052" lon="14.484849904461138"><ele>77.42857142857143</ele><time>2026-04-26T10:03:09.001Z</time></trkpt><trkpt lat="40.6298543798294" lon="14.484754123835383"><ele>78.28571428571429</ele><time>2026-04-26T10:03:12.001Z</time></trkpt><trkpt lat="40.62983983633293" lon="14.48466688539886"><ele>79.14285714285714</ele><time>2026-04-26T10:03:17.001Z</time></trkpt><trkpt lat="40.629827189053614" lon="14.48454928263051"><ele>80.0</ele><time>2026-04-26T10:03:26.001Z</time></trkpt><trkpt lat="40.629828384993935" lon="14.484444360022275"><ele>80.0</ele><time>2026-04-26T10:03:31Z</time></trkpt><trkpt lat="40.62982569398756" lon="14.484349529108993"><ele>80.0</ele><time>2026-04-26T10:03:35Z</time></trkpt><trkpt lat="40.62984801748104" lon="14.484258205032814"><ele>80.0</ele><time>2026-04-26T10:03:39Z</time></trkpt><trkpt lat="40.629993072763455" lon="14.484293703483345"><ele>80.0</ele><time>2026-04-26T10:03:53Z</time></trkpt><trkpt lat="40.62998778018442" lon="14.484405066583099"><ele>80.0</ele><time>2026-04-26T10:04:02Z</time></trkpt><trkpt lat="40.63004220300586" lon="14.484482974581722"><ele>80.0</ele><time>2026-04-26T10:04:31Z</time></trkpt><trkpt lat="40.63008362873939" lon="14.484561822093296"><ele>80.0</ele><time>2026-04-26T10:04:35.001Z</time></trkpt><trkpt lat="40.63016094007742" lon="14.484615550992503"><ele>80.0</ele><time>2026-04-26T10:04:53.001Z</time></trkpt><trkpt lat="40.63021751304345" lon="14.484652328858763"><ele>80.0</ele><time>2026-04-26T10:04:56.001Z</time></trkpt><trkpt lat="40.630278731563386" lon="14.484702772004596"><ele>80.0</ele><time>2026-04-26T10:05:06.001Z</time></trkpt><trkpt lat="40.63034324793131" lon="14.484747400792648"><ele>80.0</ele><time>2026-04-26T10:05:09.001Z</time></trkpt><trkpt lat="40.63040925940069" lon="14.484786043425375"><ele>80.0</ele><time>2026-04-26T10:05:13.001Z</time></trkpt><trkpt lat="40.63047887432627" lon="14.484813708852347"><ele>75.85714285714286</ele><time>2026-04-26T10:05:26.001Z</time></trkpt><trkpt lat="40.63056158269897" lon="14.484781158601223"><ele>71.71428571428572</ele><time>2026-04-26T10:05:40Z</time></trkpt><trkpt lat="40.63062404710672" lon="14.484749115196168"><ele>67.57142857142857</ele><time>2026-04-26T10:05:44Z</time></trkpt><trkpt lat="40.63069164861944" lon="14.484701574094688"><ele>63.42857142857143</ele><time>2026-04-26T10:05:48Z</time></trkpt><trkpt lat="40.630765131617146" lon="14.484685243681298"><ele>59.28571428571429</ele><time>2026-04-26T10:05:51Z</time></trkpt><trkpt lat="40.6308300321251" lon="14.484696532822905"><ele>55.142857142857146</ele><time>2026-04-26T10:05:55Z</time></trkpt><trkpt lat="40.63088436943666" lon="14.484740711924818"><ele>51.0</ele><time>2026-04-26T10:05:57Z</time></trkpt><trkpt lat="40.63091616287292" lon="14.484857137448403"><ele>51.0</ele><time>2026-04-26T10:05:59Z</time></trkpt><trkpt lat="40.63095684596798" lon="14.484926450815292"><ele>51.0</ele><time>2026-04-26T10:06:03Z</time></trkpt><trkpt lat="40.63096072788271" lon="14.485009421317624"><ele>51.0</ele><time>2026-04-26T10:06:13Z</time></trkpt><trkpt lat="40.630937012747054" lon="14.485100967197287"><ele>51.0</ele><time>2026-04-26T10:06:17Z</time></trkpt><trkpt lat="40.63090169562156" lon="14.48519705288674"><ele>51.0</ele><time>2026-04-26T10:06:21.001Z</time></trkpt><trkpt lat="40.63083957483606" lon="14.485282264849824"><ele>51.0</ele><time>2026-04-26T10:06:24.001Z</time></trkpt><trkpt lat="40.63077594745032" lon="14.48532010317309"><ele>51.0</ele><time>2026-04-26T10:06:27.001Z</time></trkpt><trkpt lat="40.63072424610819" lon="14.485367973786948"><ele>51.0</ele><time>2026-04-26T10:06:31.001Z</time></trkpt><trkpt lat="40.630662042282026" lon="14.485400881099777"><ele>51.0</ele><time>2026-04-26T10:06:36.001Z</time></trkpt><trkpt lat="40.63059463464318" lon="14.485428111304373"><ele>51.0</ele><time>2026-04-26T10:06:42.001Z</time></trkpt><trkpt lat="40.63052240798623" lon="14.485482522334316"><ele>51.0</ele><time>2026-04-26T10:07:09.001Z</time></trkpt><trkpt lat="40.63045646474889" lon="14.485513258368195"><ele>51.0</ele><time>2026-04-26T10:07:12.001Z</time></trkpt><trkpt lat="40.63039482231216" lon="14.485545698861046"><ele>51.0</ele><time>2026-04-26T10:07:17.001Z</time></trkpt><trkpt lat="40.630336224639876" lon="14.485588217277732"><ele>51.0</ele><time>2026-04-26T10:07:43Z</time></trkpt><trkpt lat="40.630269118051736" lon="14.485619174668834"><ele>49.285714285714285</ele><time>2026-04-26T10:07:46Z</time></trkpt><trkpt lat="40.63021343539844" lon="14.485666008911188"><ele>47.57142857142857</ele><time>2026-04-26T10:07:49Z</time></trkpt><trkpt lat="40.63015397028501" lon="14.48573929680203"><ele>45.85714285714286</ele><time>2026-04-26T10:07:54Z</time></trkpt><trkpt lat="40.63012960642215" lon="14.485819772052066"><ele>44.14285714285714</ele><time>2026-04-26T10:07:57Z</time></trkpt><trkpt lat="40.63009611796432" lon="14.485908175948797"><ele>42.42857142857142</ele><time>2026-04-26T10:08:01Z</time></trkpt><trkpt lat="40.630106215899886" lon="14.48599674399035"><ele>40.714285714285715</ele><time>2026-04-26T10:08:04Z</time></trkpt><trkpt lat="40.63009826637971" lon="14.486104216652736"><ele>39.0</ele><time>2026-04-26T10:08:08Z</time></trkpt><trkpt lat="40.63007904503672" lon="14.486205258087706"><ele>41.666666666666664</ele><time>2026-04-26T10:08:11Z</time></trkpt><trkpt lat="40.63006124575087" lon="14.48628891730993"><ele>44.33333333333333</ele><time>2026-04-26T10:08:14Z</time></trkpt><trkpt lat="40.63004553640113" lon="14.486375648052991"><ele>47.0</ele><time>2026-04-26T10:08:16Z</time></trkpt><trkpt lat="40.62999009639883" lon="14.486477428574887"><ele>49.666666666666664</ele><time>2026-04-26T10:08:19Z</time></trkpt><trkpt lat="40.62993139013314" lon="14.486513997602296"><ele>52.33333333333333</ele><time>2026-04-26T10:08:21Z</time></trkpt><trkpt lat="40.62984459256862" lon="14.486519391055772"><ele>55.0</ele><time>2026-04-26T10:08:23.001Z</time></trkpt><trkpt lat="40.629761510510434" lon="14.486528246528458"><ele>54.99999999999999</ele><time>2026-04-26T10:08:25.001Z</time></trkpt><trkpt lat="40.6296985526872" lon="14.48654817733836"><ele>55.0</ele><time>2026-04-26T10:08:27.001Z</time></trkpt><trkpt lat="40.62964329995935" lon="14.48659612587672"><ele>55.0</ele><time>2026-04-26T10:08:29.001Z</time></trkpt><trkpt lat="40.629585697323414" lon="14.486661703722945"><ele>55.0</ele><time>2026-04-26T10:08:32.001Z</time></trkpt><trkpt lat="40.629544288702775" lon="14.486751634234949"><ele>55.0</ele><time>2026-04-26T10:08:35.001Z</time></trkpt><trkpt lat="40.62949017995969" lon="14.486852632247992"><ele>54.99999999999999</ele><time>2026-04-26T10:08:38.001Z</time></trkpt><trkpt lat="40.629452738003046" lon="14.486924542582901"><ele>55.0</ele><time>2026-04-26T10:08:40.001Z</time></trkpt><trkpt lat="40.62940249486587" lon="14.487013410303101"><ele>55.28571428571428</ele><time>2026-04-26T10:08:43.001Z</time></trkpt><trkpt lat="40.62935630081428" lon="14.487116925315561"><ele>55.57142857142857</ele><time>2026-04-26T10:08:46.001Z</time></trkpt><trkpt lat="40.62932782745872" lon="14.48720192414637"><ele>55.857142857142854</ele><time>2026-04-26T10:08:48.001Z</time></trkpt><trkpt lat="40.629300865311244" lon="14.4872799019186"><ele>56.14285714285714</ele><time>2026-04-26T10:08:50.001Z</time></trkpt><trkpt lat="40.62927255784028" lon="14.487357789441587"><ele>56.42857142857142</ele><time>2026-04-26T10:08:52.001Z</time></trkpt><trkpt lat="40.62920468748696" lon="14.48740492251295"><ele>56.71428571428571</ele><time>2026-04-26T10:08:54.001Z</time></trkpt><trkpt lat="40.62914466766767" lon="14.487464909623608"><ele>57.0</ele><time>2026-04-26T10:08:56.001Z</time></trkpt><trkpt lat="40.629080075918004" lon="14.487518910921205"><ele>57.0</ele><time>2026-04-26T10:08:58.001Z</time></trkpt><trkpt lat="40.62900910783439" lon="14.48756590937001"><ele>57.0</ele><time>2026-04-26T10:09:00.001Z</time></trkpt><trkpt lat="40.62894919023124" lon="14.487625330886033"><ele>57.0</ele><time>2026-04-26T10:09:02.001Z</time></trkpt><trkpt lat="40.62888759143142" lon="14.487702047019077"><ele>57.0</ele><time>2026-04-26T10:09:04.001Z</time></trkpt><trkpt lat="40.6288261802862" lon="14.487774550572187"><ele>57.0</ele><time>2026-04-26T10:09:06.001Z</time></trkpt><trkpt lat="40.62876531573813" lon="14.487858371631946"><ele>57.0</ele><time>2026-04-26T10:09:08.001Z</time></trkpt><trkpt lat="40.62870348416042" lon="14.487954278225173"><ele>55.2</ele><time>2026-04-26T10:09:10.001Z</time></trkpt><trkpt lat="40.62863706808018" lon="14.488052429426178"><ele>53.400000000000006</ele><time>2026-04-26T10:09:12.001Z</time></trkpt><trkpt lat="40.6285797014493" lon="14.488167274580144"><ele>51.599999999999994</ele><time>2026-04-26T10:09:14.001Z</time></trkpt><trkpt lat="40.62852568375409" lon="14.488289157631952"><ele>49.8</ele><time>2026-04-26T10:09:16.001Z</time></trkpt><trkpt lat="40.6284832595347" lon="14.488406381850817"><ele>48.0</ele><time>2026-04-26T10:09:18.001Z</time></trkpt><trkpt lat="40.62844441409338" lon="14.488518313312705"><ele>48.0</ele><time>2026-04-26T10:09:20.001Z</time></trkpt><trkpt lat="40.62840808378497" lon="14.48862613941395"><ele>48.0</ele><time>2026-04-26T10:09:22.001Z</time></trkpt><trkpt lat="40.6283699458614" lon="14.488732779935301"><ele>48.0</ele><time>2026-04-26T10:09:24.001Z</time></trkpt><trkpt lat="40.628327983873234" lon="14.48882477716394"><ele>48.0</ele><time>2026-04-26T10:09:26.001Z</time></trkpt><trkpt lat="40.62829023914968" lon="14.488922102506944"><ele>48.0</ele><time>2026-04-26T10:09:28.001Z</time></trkpt><trkpt lat="40.628240042761306" lon="14.489013329064843"><ele>48.0</ele><time>2026-04-26T10:09:30.001Z</time></trkpt><trkpt lat="40.62819657521097" lon="14.48912107102419"><ele>52.166666666666664</ele><time>2026-04-26T10:09:32.001Z</time></trkpt><trkpt lat="40.62815596897323" lon="14.489223353281377"><ele>56.33333333333333</ele><time>2026-04-26T10:09:34.001Z</time></trkpt><trkpt lat="40.62809821036932" lon="14.489308702992586"><ele>60.5</ele><time>2026-04-26T10:09:36.001Z</time></trkpt><trkpt lat="40.62805145637085" lon="14.489416350655896"><ele>64.66666666666666</ele><time>2026-04-26T10:09:38.001Z</time></trkpt><trkpt lat="40.628027220706166" lon="14.489513318322514"><ele>68.83333333333333</ele><time>2026-04-26T10:09:40.001Z</time></trkpt><trkpt lat="40.62800944791709" lon="14.489614388794525"><ele>73.0</ele><time>2026-04-26T10:09:42.002Z</time></trkpt><trkpt lat="40.62799353271125" lon="14.489719713472383"><ele>78.5</ele><time>2026-04-26T10:09:44.002Z</time></trkpt><trkpt lat="40.627974058135436" lon="14.48981743366461"><ele>84.0</ele><time>2026-04-26T10:09:46Z</time></trkpt><trkpt lat="40.62795168246834" lon="14.48991687627582"><ele>89.5</ele><time>2026-04-26T10:09:48Z</time></trkpt><trkpt lat="40.62793249620823" lon="14.490022529873775"><ele>95.0</ele><time>2026-04-26T10:09:50Z</time></trkpt><trkpt lat="40.627906168991764" lon="14.490124576663707"><ele>100.50000000000001</ele><time>2026-04-26T10:09:52Z</time></trkpt><trkpt lat="40.627876595744425" lon="14.490218595968303"><ele>106.0</ele><time>2026-04-26T10:09:54Z</time></trkpt><trkpt lat="40.62782428538347" lon="14.490304792426585"><ele>93.83333333333334</ele><time>2026-04-26T10:09:56Z</time></trkpt><trkpt lat="40.62775668411143" lon="14.490382706493696"><ele>81.66666666666667</ele><time>2026-04-26T10:09:58Z</time></trkpt><trkpt lat="40.62770961051451" lon="14.490465375020346"><ele>69.5</ele><time>2026-04-26T10:10:00Z</time></trkpt><trkpt lat="40.62768095446873" lon="14.490564233696878"><ele>57.333333333333336</ele><time>2026-04-26T10:10:02Z</time></trkpt><trkpt lat="40.62764086821481" lon="14.490665589779585"><ele>45.16666666666667</ele><time>2026-04-26T10:10:09Z</time></trkpt><trkpt lat="40.6275933563798" lon="14.490753860144888"><ele>33.0</ele><time>2026-04-26T10:10:11Z</time></trkpt><trkpt lat="40.62758640135213" lon="14.490848931565505"><ele>30.2</ele><time>2026-04-26T10:10:13Z</time></trkpt><trkpt lat="40.62761499399296" lon="14.490926073237866"><ele>27.4</ele><time>2026-04-26T10:10:15Z</time></trkpt><trkpt lat="40.62758808832516" lon="14.491040185849313"><ele>24.599999999999998</ele><time>2026-04-26T10:10:17Z</time></trkpt><trkpt lat="40.62761463335305" lon="14.491153106899311"><ele>21.799999999999997</ele><time>2026-04-26T10:10:19Z</time></trkpt><trkpt lat="40.62756402675283" lon="14.491299549204797"><ele>19.0</ele><time>2026-04-26T10:10:21Z</time></trkpt><trkpt lat="40.62756556842249" lon="14.491446384578854"><ele>19.0</ele><time>2026-04-26T10:10:23.001Z</time></trkpt><trkpt lat="40.62759735961586" lon="14.491570485035558"><ele>19.0</ele><time>2026-04-26T10:10:25.001Z</time></trkpt><trkpt lat="40.62771982750031" lon="14.49167237470825"><ele>19.0</ele><time>2026-04-26T10:10:27.001Z</time></trkpt><trkpt lat="40.62778549254785" lon="14.491730922515385"><ele>19.0</ele><time>2026-04-26T10:10:28.001Z</time></trkpt><trkpt lat="40.627850876724224" lon="14.491785103816742"><ele>19.0</ele><time>2026-04-26T10:10:29.001Z</time></trkpt><trkpt lat="40.62791004005015" lon="14.491828538741881"><ele>19.0</ele><time>2026-04-26T10:10:30.001Z</time></trkpt><trkpt lat="40.627960754171376" lon="14.491881687590345"><ele>19.0</ele><time>2026-04-26T10:10:31.001Z</time></trkpt><trkpt lat="40.628070828838815" lon="14.491930598527285"><ele>19.0</ele><time>2026-04-26T10:10:33.001Z</time></trkpt><trkpt lat="40.62817022648187" lon="14.491977253611923"><ele>19.0</ele><time>2026-04-26T10:10:35.001Z</time></trkpt><trkpt lat="40.62821160231647" lon="14.492044757132689"><ele>19.0</ele><time>2026-04-26T10:10:36.001Z</time></trkpt><trkpt lat="40.628251158410535" lon="14.492118737868202"><ele>19.0</ele><time>2026-04-26T10:10:37.001Z</time></trkpt><trkpt lat="40.6282489537605" lon="14.492280704586241"><ele>19.0</ele><time>2026-04-26T10:10:39.001Z</time></trkpt><trkpt lat="40.628224058468895" lon="14.492369690781082"><ele>19.0</ele><time>2026-04-26T10:10:40.001Z</time></trkpt><trkpt lat="40.628178124026384" lon="14.49244349098173"><ele>19.0</ele><time>2026-04-26T10:10:41.001Z</time></trkpt><trkpt lat="40.62812124725802" lon="14.492504719948673"><ele>19.0</ele><time>2026-04-26T10:10:42.001Z</time></trkpt><trkpt lat="40.62806906083669" lon="14.4925596379121"><ele>19.0</ele><time>2026-04-26T10:10:43.001Z</time></trkpt><trkpt lat="40.62801286084013" lon="14.492616571541486"><ele>19.0</ele><time>2026-04-26T10:10:44.001Z</time></trkpt><trkpt lat="40.627970123132286" lon="14.492691993565792"><ele>19.0</ele><time>2026-04-26T10:10:45.001Z</time></trkpt><trkpt lat="40.62793724778942" lon="14.492767751397436"><ele>22.166666666666664</ele><time>2026-04-26T10:10:46.001Z</time></trkpt><trkpt lat="40.62787723973421" lon="14.492914624846549"><ele>25.333333333333332</ele><time>2026-04-26T10:10:48.001Z</time></trkpt><trkpt lat="40.627842626106165" lon="14.49299966869227"><ele>28.5</ele><time>2026-04-26T10:10:49.001Z</time></trkpt><trkpt lat="40.62780708999062" lon="14.493096331623939"><ele>31.666666666666664</ele><time>2026-04-26T10:10:50.001Z</time></trkpt><trkpt lat="40.62777287903671" lon="14.493192150787864"><ele>34.83333333333333</ele><time>2026-04-26T10:10:51.001Z</time></trkpt><trkpt lat="40.6277424302049" lon="14.493281619535553"><ele>38.0</ele><time>2026-04-26T10:10:52.001Z</time></trkpt><trkpt lat="40.62771570560792" lon="14.49336761963367"><ele>38.0</ele><time>2026-04-26T10:10:53.001Z</time></trkpt><trkpt lat="40.62769214578231" lon="14.493450237368993"><ele>38.0</ele><time>2026-04-26T10:10:54.001Z</time></trkpt><trkpt lat="40.62767486863451" lon="14.493530874853832"><ele>38.0</ele><time>2026-04-26T10:10:55.001Z</time></trkpt><trkpt lat="40.62766820810303" lon="14.49361521320598"><ele>38.0</ele><time>2026-04-26T10:10:56.001Z</time></trkpt><trkpt lat="40.627674455947016" lon="14.493704606954001"><ele>38.0</ele><time>2026-04-26T10:10:57.001Z</time></trkpt><trkpt lat="40.62768294451949" lon="14.493792726341907"><ele>38.0</ele><time>2026-04-26T10:10:58.001Z</time></trkpt><trkpt lat="40.62769078134101" lon="14.49387765511306"><ele>38.0</ele><time>2026-04-26T10:10:59.001Z</time></trkpt><trkpt lat="40.62771191271277" lon="14.493960193336376"><ele>38.199999999999996</ele><time>2026-04-26T10:11:00.001Z</time></trkpt><trkpt lat="40.62778585144719" lon="14.494089920512264"><ele>38.4</ele><time>2026-04-26T10:11:02.001Z</time></trkpt><trkpt lat="40.627905117106614" lon="14.494166325453778"><ele>38.599999999999994</ele><time>2026-04-26T10:11:04.001Z</time></trkpt><trkpt lat="40.627971239216905" lon="14.494193069000964"><ele>38.8</ele><time>2026-04-26T10:11:05.001Z</time></trkpt><trkpt lat="40.62803999957648" lon="14.494224667988583"><ele>39.0</ele><time>2026-04-26T10:11:06.001Z</time></trkpt><trkpt lat="40.628109743593065" lon="14.494262811857514"><ele>46.42857142857143</ele><time>2026-04-26T10:11:07.001Z</time></trkpt><trkpt lat="40.628175511389344" lon="14.494306043067636"><ele>53.857142857142854</ele><time>2026-04-26T10:11:08.001Z</time></trkpt><trkpt lat="40.62822678847407" lon="14.494368543713067"><ele>61.285714285714285</ele><time>2026-04-26T10:11:09.001Z</time></trkpt><trkpt lat="40.62826762238132" lon="14.494442495429237"><ele>68.71428571428572</ele><time>2026-04-26T10:11:10.001Z</time></trkpt><trkpt lat="40.62828343283378" lon="14.494535373258566"><ele>76.14285714285714</ele><time>2026-04-26T10:11:11.001Z</time></trkpt><trkpt lat="40.62827191950697" lon="14.49462747630002"><ele>83.57142857142857</ele><time>2026-04-26T10:11:12.001Z</time></trkpt><trkpt lat="40.628227485797105" lon="14.494711805175033"><ele>91.0</ele><time>2026-04-26T10:11:13.001Z</time></trkpt><trkpt lat="40.62815622675637" lon="14.494770147032108"><ele>92.83333333333333</ele><time>2026-04-26T10:11:14.001Z</time></trkpt><trkpt lat="40.628073274856646" lon="14.494804009503952"><ele>94.66666666666666</ele><time>2026-04-26T10:11:15.001Z</time></trkpt><trkpt lat="40.627994192484564" lon="14.494842393654753"><ele>96.5</ele><time>2026-04-26T10:11:16.001Z</time></trkpt><trkpt lat="40.62791528615396" lon="14.494863628318813"><ele>98.33333333333333</ele><time>2026-04-26T10:11:17.001Z</time></trkpt><trkpt lat="40.62784595650071" lon="14.494873944008221"><ele>100.16666666666667</ele><time>2026-04-26T10:11:18.001Z</time></trkpt><trkpt lat="40.62778083722328" lon="14.494872999898405"><ele>102.0</ele><time>2026-04-26T10:11:19.001Z</time></trkpt><trkpt lat="40.62765725975332" lon="14.494876772411416"><ele>92.8</ele><time>2026-04-26T10:11:21.001Z</time></trkpt><trkpt lat="40.627583405961204" lon="14.494975055862641"><ele>83.6</ele><time>2026-04-26T10:11:23.001Z</time></trkpt><trkpt lat="40.62754991892866" lon="14.495101741654356"><ele>74.39999999999999</ele><time>2026-04-26T10:11:25.001Z</time></trkpt><trkpt lat="40.62751923433527" lon="14.495251239814511"><ele>65.19999999999999</ele><time>2026-04-26T10:11:27.001Z</time></trkpt><trkpt lat="40.62750369328408" lon="14.495336173746404"><ele>56.0</ele><time>2026-04-26T10:11:28.001Z</time></trkpt><trkpt lat="40.627494488614936" lon="14.495422384776896"><ele>56.0</ele><time>2026-04-26T10:11:29.001Z</time></trkpt><trkpt lat="40.62748562810317" lon="14.495563212495659"><ele>55.99999999999999</ele><time>2026-04-26T10:11:31.001Z</time></trkpt><trkpt lat="40.62748411964167" lon="14.495672574593128"><ele>55.99999999999999</ele><time>2026-04-26T10:11:33.001Z</time></trkpt><trkpt lat="40.62748470706363" lon="14.495791570913136"><ele>56.0</ele><time>2026-04-26T10:11:35.001Z</time></trkpt><trkpt lat="40.627485562073595" lon="14.495931771626228"><ele>56.0</ele><time>2026-04-26T10:11:37.001Z</time></trkpt><trkpt lat="40.62749329366516" lon="14.496070470617365"><ele>56.0</ele><time>2026-04-26T10:11:39.002Z</time></trkpt><trkpt lat="40.62751478772005" lon="14.496202957308991"><ele>55.99999999999999</ele><time>2026-04-26T10:11:41.002Z</time></trkpt><trkpt lat="40.62761179361692" lon="14.496324946253608"><ele>55.99999999999999</ele><time>2026-04-26T10:11:43.002Z</time></trkpt><trkpt lat="40.627675718731716" lon="14.496374051972206"><ele>56.0</ele><time>2026-04-26T10:11:44.002Z</time></trkpt><trkpt lat="40.627748085385065" lon="14.496427865098884"><ele>56.0</ele><time>2026-04-26T10:11:45.002Z</time></trkpt><trkpt lat="40.62782328536669" lon="14.49647778977089"><ele>64.0</ele><time>2026-04-26T10:11:46.002Z</time></trkpt><trkpt lat="40.627901401948705" lon="14.49651882689023"><ele>72.0</ele><time>2026-04-26T10:11:47.002Z</time></trkpt><trkpt lat="40.6279754842662" lon="14.496552814205858"><ele>80.0</ele><time>2026-04-26T10:11:48.002Z</time></trkpt><trkpt lat="40.62804235661367" lon="14.496581724670515"><ele>88.0</ele><time>2026-04-26T10:11:49.002Z</time></trkpt><trkpt lat="40.62814445301827" lon="14.49666336726771"><ele>96.0</ele><time>2026-04-26T10:11:51.002Z</time></trkpt><trkpt lat="40.6282022385225" lon="14.496806199584663"><ele>95.99999999999999</ele><time>2026-04-26T10:11:53.001Z</time></trkpt><trkpt lat="40.62822230754068" lon="14.49688806950766"><ele>96.0</ele><time>2026-04-26T10:11:54.001Z</time></trkpt><trkpt lat="40.62823916948518" lon="14.496969557562974"><ele>96.0</ele><time>2026-04-26T10:11:55.001Z</time></trkpt><trkpt lat="40.628225219265595" lon="14.497055044019193"><ele>96.0</ele><time>2026-04-26T10:11:56.001Z</time></trkpt><trkpt lat="40.62819111571188" lon="14.497127642307913"><ele>96.0</ele><time>2026-04-26T10:11:57.001Z</time></trkpt><trkpt lat="40.628136644125654" lon="14.497186724528792"><ele>95.99999999999999</ele><time>2026-04-26T10:11:58.001Z</time></trkpt><trkpt lat="40.628071137382165" lon="14.497213155890297"><ele>96.0</ele><time>2026-04-26T10:11:59.001Z</time></trkpt><trkpt lat="40.62800081509492" lon="14.497195601429803"><ele>96.0</ele><time>2026-04-26T10:12:00.001Z</time></trkpt><trkpt lat="40.627936249105815" lon="14.49713998127335"><ele>96.0</ele><time>2026-04-26T10:12:01.001Z</time></trkpt><trkpt lat="40.62788230682165" lon="14.497072664457333"><ele>96.0</ele><time>2026-04-26T10:12:02.001Z</time></trkpt><trkpt lat="40.62782364956845" lon="14.497014504260912"><ele>96.0</ele><time>2026-04-26T10:12:03.001Z</time></trkpt><trkpt lat="40.627761184157" lon="14.496973940918968"><ele>96.0</ele><time>2026-04-26T10:12:04.001Z</time></trkpt><trkpt lat="40.62769596148903" lon="14.496949286518136"><ele>96.0</ele><time>2026-04-26T10:12:05.001Z</time></trkpt><trkpt lat="40.627576683305016" lon="14.496929534292066"><ele>90.0</ele><time>2026-04-26T10:12:07.001Z</time></trkpt><trkpt lat="40.627464883217975" lon="14.496937412247972"><ele>84.0</ele><time>2026-04-26T10:12:09.001Z</time></trkpt><trkpt lat="40.627355652128585" lon="14.496937746253177"><ele>78.0</ele><time>2026-04-26T10:12:11.001Z</time></trkpt><trkpt lat="40.627242105907484" lon="14.496951290993499"><ele>72.0</ele><time>2026-04-26T10:12:13.001Z</time></trkpt><trkpt lat="40.62712289167725" lon="14.496969814794976"><ele>72.0</ele><time>2026-04-26T10:12:15.001Z</time></trkpt><trkpt lat="40.627005259413934" lon="14.497006211681382"><ele>72.0</ele><time>2026-04-26T10:12:17.001Z</time></trkpt><trkpt lat="40.62688932296838" lon="14.497048709195933"><ele>72.0</ele><time>2026-04-26T10:12:19.001Z</time></trkpt><trkpt lat="40.6267787977544" lon="14.497075466616261"><ele>72.0</ele><time>2026-04-26T10:12:21.001Z</time></trkpt><trkpt lat="40.62668522692475" lon="14.497141701964138"><ele>74.4</ele><time>2026-04-26T10:12:23.001Z</time></trkpt><trkpt lat="40.62659568231973" lon="14.497223749551269"><ele>76.80000000000001</ele><time>2026-04-26T10:12:25.001Z</time></trkpt><trkpt lat="40.62650699340163" lon="14.497314419132742"><ele>79.2</ele><time>2026-04-26T10:12:27.001Z</time></trkpt><trkpt lat="40.62641951155865" lon="14.497408614158834"><ele>81.60000000000001</ele><time>2026-04-26T10:12:29.001Z</time></trkpt><trkpt lat="40.62633712011281" lon="14.497513566553158"><ele>84.0</ele><time>2026-04-26T10:12:31.001Z</time></trkpt><trkpt lat="40.626274336074744" lon="14.4976449053287"><ele>84.0</ele><time>2026-04-26T10:12:33.001Z</time></trkpt><trkpt lat="40.626213860538115" lon="14.497782051542622"><ele>84.0</ele><time>2026-04-26T10:12:35.001Z</time></trkpt><trkpt lat="40.62616076516735" lon="14.497930206445002"><ele>84.0</ele><time>2026-04-26T10:12:37.001Z</time></trkpt><trkpt lat="40.62611249430829" lon="14.498081773619987"><ele>84.0</ele><time>2026-04-26T10:12:39.001Z</time></trkpt><trkpt lat="40.6261016511686" lon="14.498164235028169"><ele>84.0</ele><time>2026-04-26T10:12:40.001Z</time></trkpt><trkpt lat="40.62610091684318" lon="14.49825345483545"><ele>84.14285714285714</ele><time>2026-04-26T10:12:41.001Z</time></trkpt><trkpt lat="40.62610876829002" lon="14.498343945295664"><ele>84.28571428571428</ele><time>2026-04-26T10:12:42.001Z</time></trkpt><trkpt lat="40.626129689384996" lon="14.498432569017165"><ele>84.42857142857143</ele><time>2026-04-26T10:12:43.001Z</time></trkpt><trkpt lat="40.626147154789216" lon="14.498524672122139"><ele>84.57142857142857</ele><time>2026-04-26T10:12:44.001Z</time></trkpt><trkpt lat="40.626155740198065" lon="14.49861564048296"><ele>84.71428571428571</ele><time>2026-04-26T10:12:45.001Z</time></trkpt><trkpt lat="40.62614332400948" lon="14.498708697967894"><ele>84.85714285714286</ele><time>2026-04-26T10:12:46.001Z</time></trkpt><trkpt lat="40.62611406056461" lon="14.498794459030448"><ele>85.0</ele><time>2026-04-26T10:12:47.001Z</time></trkpt><trkpt lat="40.62606527224833" lon="14.498864158519995"><ele>85.0</ele><time>2026-04-26T10:12:48.001Z</time></trkpt><trkpt lat="40.625998081260015" lon="14.498911230369275"><ele>85.0</ele><time>2026-04-26T10:12:49.001Z</time></trkpt><trkpt lat="40.62591726236432" lon="14.498938274119435"><ele>85.0</ele><time>2026-04-26T10:12:50.001Z</time></trkpt><trkpt lat="40.62583486202777" lon="14.498965842900837"><ele>85.0</ele><time>2026-04-26T10:12:51.001Z</time></trkpt><trkpt lat="40.6257510104647" lon="14.498998981887498"><ele>85.0</ele><time>2026-04-26T10:12:52.001Z</time></trkpt><trkpt lat="40.6256703652914" lon="14.499044877250256"><ele>85.0</ele><time>2026-04-26T10:12:53.001Z</time></trkpt><trkpt lat="40.625597813459535" lon="14.499114622944086"><ele>85.0</ele><time>2026-04-26T10:12:54.001Z</time></trkpt><trkpt lat="40.625533643220834" lon="14.499192072232931"><ele>85.0</ele><time>2026-04-26T10:12:55.001Z</time></trkpt><trkpt lat="40.62547676468069" lon="14.499282432178067"><ele>85.0</ele><time>2026-04-26T10:12:56.001Z</time></trkpt><trkpt lat="40.62542339936337" lon="14.499384946465081"><ele>85.0</ele><time>2026-04-26T10:12:57.001Z</time></trkpt><trkpt lat="40.62536982487413" lon="14.499488453464517"><ele>85.0</ele><time>2026-04-26T10:12:58.001Z</time></trkpt><trkpt lat="40.625320142231224" lon="14.499592043672621"><ele>83.8</ele><time>2026-04-26T10:12:59.001Z</time></trkpt><trkpt lat="40.625278098781976" lon="14.499702733873898"><ele>82.6</ele><time>2026-04-26T10:13:00.001Z</time></trkpt><trkpt lat="40.625229935996124" lon="14.499805935348913"><ele>81.4</ele><time>2026-04-26T10:13:01.001Z</time></trkpt><trkpt lat="40.62517112701497" lon="14.49989901705095"><ele>80.2</ele><time>2026-04-26T10:13:02.001Z</time></trkpt><trkpt lat="40.625109948573794" lon="14.499987278348431"><ele>79.0</ele><time>2026-04-26T10:13:03.001Z</time></trkpt><trkpt lat="40.62505207027195" lon="14.500078703024169"><ele>79.0</ele><time>2026-04-26T10:13:04.001Z</time></trkpt><trkpt lat="40.62499451141685" lon="14.500170994457587"><ele>79.0</ele><time>2026-04-26T10:13:05.001Z</time></trkpt><trkpt lat="40.624939905687725" lon="14.500269016879002"><ele>79.0</ele><time>2026-04-26T10:13:06.001Z</time></trkpt><trkpt lat="40.62488887503566" lon="14.500374737840298"><ele>79.0</ele><time>2026-04-26T10:13:07.001Z</time></trkpt><trkpt lat="40.62484003376127" lon="14.500486239092764"><ele>79.0</ele><time>2026-04-26T10:13:08.001Z</time></trkpt><trkpt lat="40.62479306866389" lon="14.500601695918183"><ele>84.6</ele><time>2026-04-26T10:13:09.001Z</time></trkpt><trkpt lat="40.624751295332075" lon="14.500721722462375"><ele>90.2</ele><time>2026-04-26T10:13:10.001Z</time></trkpt><trkpt lat="40.624709982163736" lon="14.500840791642657"><ele>95.79999999999998</ele><time>2026-04-26T10:13:11.001Z</time></trkpt><trkpt lat="40.62466473720512" lon="14.500953280839191"><ele>101.39999999999999</ele><time>2026-04-26T10:13:12.001Z</time></trkpt><trkpt lat="40.6246138468513" lon="14.501058988290938"><ele>107.0</ele><time>2026-04-26T10:13:13.001Z</time></trkpt><trkpt lat="40.62455577888593" lon="14.501158636327519"><ele>106.99999999999999</ele><time>2026-04-26T10:13:14.001Z</time></trkpt><trkpt lat="40.62448909820663" lon="14.501247241797953"><ele>107.0</ele><time>2026-04-26T10:13:15.001Z</time></trkpt><trkpt lat="40.6244161403867" lon="14.50132957920933"><ele>107.0</ele><time>2026-04-26T10:13:16.001Z</time></trkpt><trkpt lat="40.624346391839616" lon="14.50140567081084"><ele>107.0</ele><time>2026-04-26T10:13:17.001Z</time></trkpt><trkpt lat="40.62428513175173" lon="14.501475785393225"><ele>106.99999999999999</ele><time>2026-04-26T10:13:18.001Z</time></trkpt><trkpt lat="40.62422970214181" lon="14.501541321938706"><ele>107.0</ele><time>2026-04-26T10:13:19.001Z</time></trkpt><trkpt lat="40.62417662346928" lon="14.501605767640978"><ele>103.33333333333333</ele><time>2026-04-26T10:13:20.001Z</time></trkpt><trkpt lat="40.624124423050475" lon="14.501673640236094"><ele>99.66666666666666</ele><time>2026-04-26T10:13:21.001Z</time></trkpt><trkpt lat="40.62407827927071" lon="14.501738726237921"><ele>96.0</ele><time>2026-04-26T10:13:22.001Z</time></trkpt><trkpt lat="40.62403442248001" lon="14.501810156658546"><ele>92.33333333333333</ele><time>2026-04-26T10:13:24.001Z</time></trkpt><trkpt lat="40.62398773426003" lon="14.50189300425915"><ele>88.66666666666666</ele><time>2026-04-26T10:13:27.001Z</time></trkpt><trkpt lat="40.6239393422903" lon="14.501984642337062"><ele>85.0</ele><time>2026-04-26T10:13:29.001Z</time></trkpt><trkpt lat="40.62390630795297" lon="14.502107654190118"><ele>85.0</ele><time>2026-04-26T10:13:31.001Z</time></trkpt><trkpt lat="40.623928283860195" lon="14.502224657658244"><ele>85.0</ele><time>2026-04-26T10:13:33.001Z</time></trkpt><trkpt lat="40.624018459120556" lon="14.502319392626923"><ele>85.0</ele><time>2026-04-26T10:13:35.001Z</time></trkpt><trkpt lat="40.62407635311553" lon="14.502355440304601"><ele>85.0</ele><time>2026-04-26T10:13:36.001Z</time></trkpt><trkpt lat="40.62413197231647" lon="14.502395389959574"><ele>85.0</ele><time>2026-04-26T10:13:37.001Z</time></trkpt><trkpt lat="40.62418945904144" lon="14.50244275395477"><ele>85.0</ele><time>2026-04-26T10:13:38.001Z</time></trkpt><trkpt lat="40.624238307613325" lon="14.50249979808708"><ele>85.0</ele><time>2026-04-26T10:13:39.001Z</time></trkpt><trkpt lat="40.62430409367025" lon="14.502645844073186"><ele>85.0</ele><time>2026-04-26T10:13:41.001Z</time></trkpt><trkpt lat="40.62433583264369" lon="14.502735059336592"><ele>85.0</ele><time>2026-04-26T10:13:42.001Z</time></trkpt><trkpt lat="40.624368435600665" lon="14.50283817588527"><ele>85.0</ele><time>2026-04-26T10:13:43.001Z</time></trkpt><trkpt lat="40.6244070232844" lon="14.502947974728041"><ele>85.0</ele><time>2026-04-26T10:13:44.001Z</time></trkpt><trkpt lat="40.62444901047566" lon="14.503064178878162"><ele>93.5</ele><time>2026-04-26T10:13:45.001Z</time></trkpt><trkpt lat="40.62449076706811" lon="14.503180328177516"><ele>102.0</ele><time>2026-04-26T10:13:46.001Z</time></trkpt><trkpt lat="40.624530210960444" lon="14.503293977471783"><ele>110.5</ele><time>2026-04-26T10:13:47.001Z</time></trkpt><trkpt lat="40.62457058767431" lon="14.503402482389381"><ele>119.0</ele><time>2026-04-26T10:13:48.001Z</time></trkpt><trkpt lat="40.62460591307914" lon="14.503509132927059"><ele>127.50000000000001</ele><time>2026-04-26T10:13:49.001Z</time></trkpt><trkpt lat="40.624622481508254" lon="14.50360001842739"><ele>136.0</ele><time>2026-04-26T10:13:50.001Z</time></trkpt><trkpt lat="40.62459601996012" lon="14.503753752052978"><ele>136.0</ele><time>2026-04-26T10:13:52.001Z</time></trkpt><trkpt lat="40.624528141664975" lon="14.503806110280898"><ele>136.0</ele><time>2026-04-26T10:13:53.001Z</time></trkpt><trkpt lat="40.62444128279262" lon="14.503813840800248"><ele>136.0</ele><time>2026-04-26T10:13:54.002Z</time></trkpt><trkpt lat="40.62437671663066" lon="14.503796173741824"><ele>136.0</ele><time>2026-04-26T10:13:55.002Z</time></trkpt><trkpt lat="40.62426300875581" lon="14.503795961702956"><ele>136.0</ele><time>2026-04-26T10:13:57.002Z</time></trkpt><trkpt lat="40.62413300879541" lon="14.503788609433329"><ele>132.28571428571428</ele><time>2026-04-26T10:13:59.001Z</time></trkpt><trkpt lat="40.62406461755211" lon="14.503786940749725"><ele>128.57142857142856</ele><time>2026-04-26T10:14:00.001Z</time></trkpt><trkpt lat="40.62399478146349" lon="14.503791336941122"><ele>124.85714285714285</ele><time>2026-04-26T10:14:01.001Z</time></trkpt><trkpt lat="40.62391624342257" lon="14.50378817987597"><ele>121.14285714285714</ele><time>2026-04-26T10:14:02.001Z</time></trkpt><trkpt lat="40.62383903293949" lon="14.503791297824515"><ele>117.42857142857142</ele><time>2026-04-26T10:14:03.001Z</time></trkpt><trkpt lat="40.62376628817349" lon="14.503801888681222"><ele>113.71428571428571</ele><time>2026-04-26T10:14:04.001Z</time></trkpt><trkpt lat="40.623701718168135" lon="14.503807969513568"><ele>110.0</ele><time>2026-04-26T10:14:05.001Z</time></trkpt><trkpt lat="40.623581907681235" lon="14.503831269993697"><ele>103.99999999999999</ele><time>2026-04-26T10:14:07.001Z</time></trkpt><trkpt lat="40.62349390216418" lon="14.503935733621384"><ele>98.0</ele><time>2026-04-26T10:14:09.001Z</time></trkpt><trkpt lat="40.623487788570856" lon="14.50409931413672"><ele>92.0</ele><time>2026-04-26T10:14:11.001Z</time></trkpt><trkpt lat="40.62351668978873" lon="14.50418082657167"><ele>86.0</ele><time>2026-04-26T10:14:12.001Z</time></trkpt><trkpt lat="40.623537475753814" lon="14.504264357891866"><ele>80.0</ele><time>2026-04-26T10:14:13.001Z</time></trkpt><trkpt lat="40.62356259470221" lon="14.504352766664123"><ele>74.0</ele><time>2026-04-26T10:14:14.001Z</time></trkpt><trkpt lat="40.62358576579177" lon="14.504448326705944"><ele>74.0</ele><time>2026-04-26T10:14:15.001Z</time></trkpt><trkpt lat="40.62361409951054" lon="14.504545090643157"><ele>74.0</ele><time>2026-04-26T10:14:16.001Z</time></trkpt><trkpt lat="40.62364033788711" lon="14.504640242117022"><ele>74.0</ele><time>2026-04-26T10:14:17.001Z</time></trkpt><trkpt lat="40.62366681715919" lon="14.50473593381393"><ele>74.0</ele><time>2026-04-26T10:14:18.001Z</time></trkpt><trkpt lat="40.62369092235885" lon="14.504830375780818"><ele>74.0</ele><time>2026-04-26T10:14:19.001Z</time></trkpt><trkpt lat="40.623717048703796" lon="14.504929520120609"><ele>74.0</ele><time>2026-04-26T10:14:20.001Z</time></trkpt><trkpt lat="40.62373347875819" lon="14.505037086255044"><ele>85.2</ele><time>2026-04-26T10:14:21.001Z</time></trkpt><trkpt lat="40.62373499908721" lon="14.505160025227244"><ele>96.4</ele><time>2026-04-26T10:14:22.001Z</time></trkpt><trkpt lat="40.62372919376208" lon="14.505280827458419"><ele>107.6</ele><time>2026-04-26T10:14:23.001Z</time></trkpt><trkpt lat="40.62371551775435" lon="14.505398175359606"><ele>118.8</ele><time>2026-04-26T10:14:24.001Z</time></trkpt><trkpt lat="40.6236967838974" lon="14.50551153900994"><ele>130.0</ele><time>2026-04-26T10:14:25.001Z</time></trkpt><trkpt lat="40.62367910602047" lon="14.505625127824066"><ele>130.16666666666669</ele><time>2026-04-26T10:14:26.001Z</time></trkpt><trkpt lat="40.6236693786227" lon="14.505738553993988"><ele>130.33333333333334</ele><time>2026-04-26T10:14:27.001Z</time></trkpt><trkpt lat="40.62367022176412" lon="14.505849881490386"><ele>130.5</ele><time>2026-04-26T10:14:28.001Z</time></trkpt><trkpt lat="40.62368056765283" lon="14.505959005652725"><ele>130.66666666666666</ele><time>2026-04-26T10:14:29.001Z</time></trkpt><trkpt lat="40.62369760396303" lon="14.506065324582806"><ele>130.83333333333331</ele><time>2026-04-26T10:14:30.001Z</time></trkpt><trkpt lat="40.62371734557539" lon="14.506171339778946"><ele>131.0</ele><time>2026-04-26T10:14:31.001Z</time></trkpt><trkpt lat="40.623740044064746" lon="14.506277579332892"><ele>131.0</ele><time>2026-04-26T10:14:32.001Z</time></trkpt><trkpt lat="40.623768931146536" lon="14.506380305649797"><ele>131.0</ele><time>2026-04-26T10:14:33.001Z</time></trkpt><trkpt lat="40.623801465819646" lon="14.5064820101764"><ele>131.0</ele><time>2026-04-26T10:14:34.001Z</time></trkpt><trkpt lat="40.62383149594144" lon="14.506584780648978"><ele>131.0</ele><time>2026-04-26T10:14:35.001Z</time></trkpt><trkpt lat="40.62385252848722" lon="14.506686561930781"><ele>131.0</ele><time>2026-04-26T10:14:36.001Z</time></trkpt><trkpt lat="40.62386371716582" lon="14.506786801965797"><ele>131.0</ele><time>2026-04-26T10:14:37.001Z</time></trkpt><trkpt lat="40.62386071125854" lon="14.506886901380147"><ele>131.0</ele><time>2026-04-26T10:14:38.001Z</time></trkpt><trkpt lat="40.62385240040886" lon="14.506991658614007"><ele>131.0</ele><time>2026-04-26T10:14:39.001Z</time></trkpt><trkpt lat="40.623845770515416" lon="14.507097741593308"><ele>131.0</ele><time>2026-04-26T10:14:40.001Z</time></trkpt><trkpt lat="40.62384241441283" lon="14.507207032465214"><ele>131.0</ele><time>2026-04-26T10:14:41.001Z</time></trkpt><trkpt lat="40.62384340609797" lon="14.507318665537657"><ele>131.0</ele><time>2026-04-26T10:14:42.001Z</time></trkpt><trkpt lat="40.623852334308715" lon="14.50743066019576"><ele>131.0</ele><time>2026-04-26T10:14:43.001Z</time></trkpt><trkpt lat="40.62387318230819" lon="14.507539056866825"><ele>129.85714285714286</ele><time>2026-04-26T10:14:44.001Z</time></trkpt><trkpt lat="40.62389967074564" lon="14.507647364838352"><ele>128.71428571428572</ele><time>2026-04-26T10:14:45.001Z</time></trkpt><trkpt lat="40.62392700621029" lon="14.507741461639357"><ele>127.57142857142858</ele><time>2026-04-26T10:14:46.001Z</time></trkpt><trkpt lat="40.623961730667965" lon="14.507824295768255"><ele>126.42857142857144</ele><time>2026-04-26T10:14:47.001Z</time></trkpt><trkpt lat="40.624008535078694" lon="14.507881807924127"><ele>125.28571428571429</ele><time>2026-04-26T10:14:48.001Z</time></trkpt><trkpt lat="40.62406613208391" lon="14.507927361518394"><ele>124.14285714285717</ele><time>2026-04-26T10:14:49.001Z</time></trkpt><trkpt lat="40.62413080013074" lon="14.50796755483695"><ele>123.00000000000001</ele><time>2026-04-26T10:14:50.001Z</time></trkpt><trkpt lat="40.624196453356234" lon="14.508007488636515"><ele>121.42857142857144</ele><time>2026-04-26T10:14:51.001Z</time></trkpt><trkpt lat="40.62426314469977" lon="14.50804900182186"><ele>119.85714285714286</ele><time>2026-04-26T10:14:52.001Z</time></trkpt><trkpt lat="40.62433290925807" lon="14.508088130311535"><ele>118.28571428571429</ele><time>2026-04-26T10:14:53.001Z</time></trkpt><trkpt lat="40.62440501771614" lon="14.508117827968997"><ele>116.71428571428572</ele><time>2026-04-26T10:14:54.001Z</time></trkpt><trkpt lat="40.62447956416499" lon="14.508128647607055"><ele>115.14285714285714</ele><time>2026-04-26T10:14:55.001Z</time></trkpt><trkpt lat="40.62455408701306" lon="14.508125549937532"><ele>113.57142857142857</ele><time>2026-04-26T10:14:56.001Z</time></trkpt><trkpt lat="40.62462889037578" lon="14.508123763028562"><ele>112.0</ele><time>2026-04-26T10:14:57.001Z</time></trkpt><trkpt lat="40.62470264178842" lon="14.508125579077905"><ele>112.00000000000001</ele><time>2026-04-26T10:14:58.001Z</time></trkpt><trkpt lat="40.62477619232582" lon="14.508132250876189"><ele>112.0</ele><time>2026-04-26T10:14:59.001Z</time></trkpt><trkpt lat="40.624849583507" lon="14.50815757645595"><ele>112.0</ele><time>2026-04-26T10:15:00.001Z</time></trkpt><trkpt lat="40.62492535300883" lon="14.508191335115757"><ele>112.0</ele><time>2026-04-26T10:15:01.001Z</time></trkpt><trkpt lat="40.62500292896964" lon="14.50822114646359"><ele>112.00000000000001</ele><time>2026-04-26T10:15:02.001Z</time></trkpt><trkpt lat="40.62508610081649" lon="14.508240811115956"><ele>112.0</ele><time>2026-04-26T10:15:03.001Z</time></trkpt><trkpt lat="40.625170130634125" lon="14.508251591377471"><ele>112.00000000000001</ele><time>2026-04-26T10:15:04.001Z</time></trkpt><trkpt lat="40.62525236163848" lon="14.50827274104026"><ele>112.0</ele><time>2026-04-26T10:15:05.001Z</time></trkpt><trkpt lat="40.62532733200892" lon="14.508287910920341"><ele>112.0</ele><time>2026-04-26T10:15:06.001Z</time></trkpt><trkpt lat="40.62539867691337" lon="14.508302137427084"><ele>112.0</ele><time>2026-04-26T10:15:07.001Z</time></trkpt><trkpt lat="40.6254622991978" lon="14.508317301297259"><ele>112.00000000000001</ele><time>2026-04-26T10:15:08.001Z</time></trkpt><trkpt lat="40.625558118701264" lon="14.508410295719754"><ele>112.0</ele><time>2026-04-26T10:15:10.001Z</time></trkpt><trkpt lat="40.62559467534418" lon="14.508477928498118"><ele>113.0</ele><time>2026-04-26T10:15:11.001Z</time></trkpt><trkpt lat="40.62561269761216" lon="14.50863662537024"><ele>113.99999999999999</ele><time>2026-04-26T10:15:13.001Z</time></trkpt><trkpt lat="40.62558160865913" lon="14.50878803053221"><ele>114.99999999999999</ele><time>2026-04-26T10:15:15.001Z</time></trkpt><trkpt lat="40.625484934518894" lon="14.508881640303397"><ele>116.0</ele><time>2026-04-26T10:15:17.001Z</time></trkpt><trkpt lat="40.62542303985711" lon="14.50891892007727"><ele>117.0</ele><time>2026-04-26T10:15:18.001Z</time></trkpt><trkpt lat="40.62535796966971" lon="14.508950014008095"><ele>116.57142857142858</ele><time>2026-04-26T10:15:19.001Z</time></trkpt><trkpt lat="40.62529058840628" lon="14.508981787550422"><ele>116.14285714285715</ele><time>2026-04-26T10:15:20.001Z</time></trkpt><trkpt lat="40.62522392875212" lon="14.5089977704686"><ele>115.71428571428572</ele><time>2026-04-26T10:15:21.001Z</time></trkpt><trkpt lat="40.62515877227958" lon="14.50902064193726"><ele>115.28571428571428</ele><time>2026-04-26T10:15:22.001Z</time></trkpt><trkpt lat="40.62510513485873" lon="14.509071071172116"><ele>114.85714285714285</ele><time>2026-04-26T10:15:23.001Z</time></trkpt><trkpt lat="40.62507494633787" lon="14.509144519746135"><ele>114.42857142857142</ele><time>2026-04-26T10:15:24.001Z</time></trkpt><trkpt lat="40.62508623954974" lon="14.509229499539114"><ele>114.0</ele><time>2026-04-26T10:15:25.001Z</time></trkpt><trkpt lat="40.62513617544968" lon="14.50929125831255"><ele>114.0</ele><time>2026-04-26T10:15:26.001Z</time></trkpt><trkpt lat="40.62520186463636" lon="14.50932041379893"><ele>114.0</ele><time>2026-04-26T10:15:27.001Z</time></trkpt><trkpt lat="40.62525542184525" lon="14.509368134402441"><ele>114.0</ele><time>2026-04-26T10:15:28.001Z</time></trkpt><trkpt lat="40.625348104124626" lon="14.50942751445589"><ele>114.0</ele><time>2026-04-26T10:15:30.001Z</time></trkpt><trkpt lat="40.625380486388146" lon="14.50951824479559"><ele>114.0</ele><time>2026-04-26T10:15:32.001Z</time></trkpt><trkpt lat="40.625362472973315" lon="14.509648869590412"><ele>114.0</ele><time>2026-04-26T10:15:34.001Z</time></trkpt><trkpt lat="40.625312367956255" lon="14.509707017694726"><ele>121.66666666666667</ele><time>2026-04-26T10:15:35.001Z</time></trkpt><trkpt lat="40.625242369476695" lon="14.509725192592462"><ele>129.33333333333334</ele><time>2026-04-26T10:15:36.001Z</time></trkpt><trkpt lat="40.62516814163283" lon="14.509712919336781"><ele>137.0</ele><time>2026-04-26T10:15:37.001Z</time></trkpt><trkpt lat="40.62509489678375" lon="14.509696282737066"><ele>144.66666666666669</ele><time>2026-04-26T10:15:38.001Z</time></trkpt><trkpt lat="40.625018534016654" lon="14.509695529883984"><ele>152.33333333333334</ele><time>2026-04-26T10:15:39.001Z</time></trkpt><trkpt lat="40.62494093419386" lon="14.509691105994163"><ele>160.0</ele><time>2026-04-26T10:15:40.001Z</time></trkpt><trkpt lat="40.62485947398996" lon="14.509677811779477"><ele>160.0</ele><time>2026-04-26T10:15:41.001Z</time></trkpt><trkpt lat="40.62477681461406" lon="14.509674140239415"><ele>160.0</ele><time>2026-04-26T10:15:42.001Z</time></trkpt><trkpt lat="40.6246939802617" lon="14.509660375486646"><ele>160.0</ele><time>2026-04-26T10:15:43.001Z</time></trkpt><trkpt lat="40.624612697922565" lon="14.509622878105803"><ele>160.0</ele><time>2026-04-26T10:15:44.001Z</time></trkpt><trkpt lat="40.62453746685146" lon="14.509564489071632"><ele>160.0</ele><time>2026-04-26T10:15:45.001Z</time></trkpt><trkpt lat="40.62447041127177" lon="14.509486095696362"><ele>160.0</ele><time>2026-04-26T10:15:46.001Z</time></trkpt><trkpt lat="40.62440492684501" lon="14.509410804904581"><ele>151.5</ele><time>2026-04-26T10:15:47.001Z</time></trkpt><trkpt lat="40.624328208213534" lon="14.509343208481443"><ele>143.0</ele><time>2026-04-26T10:15:48.001Z</time></trkpt><trkpt lat="40.62424744813648" lon="14.509297982588322"><ele>134.5</ele><time>2026-04-26T10:15:49.002Z</time></trkpt><trkpt lat="40.62416100148119" lon="14.50927553045113"><ele>126.0</ele><time>2026-04-26T10:15:50.002Z</time></trkpt><trkpt lat="40.62407123869009" lon="14.509289085758613"><ele>117.50000000000001</ele><time>2026-04-26T10:15:51.002Z</time></trkpt><trkpt lat="40.62398457405701" lon="14.509325382794588"><ele>109.0</ele><time>2026-04-26T10:15:52.002Z</time></trkpt><trkpt lat="40.623908687806235" lon="14.509379820650997"><ele>109.00000000000001</ele><time>2026-04-26T10:15:53.002Z</time></trkpt><trkpt lat="40.62383624843042" lon="14.509439100196355"><ele>109.0</ele><time>2026-04-26T10:15:54.002Z</time></trkpt><trkpt lat="40.623764367734765" lon="14.509498089002518"><ele>109.0</ele><time>2026-04-26T10:15:55.002Z</time></trkpt><trkpt lat="40.623695936737874" lon="14.509555347633825"><ele>109.0</ele><time>2026-04-26T10:15:56.002Z</time></trkpt><trkpt lat="40.62364298087394" lon="14.509630282343393"><ele>109.00000000000001</ele><time>2026-04-26T10:15:57.002Z</time></trkpt><trkpt lat="40.62361515476396" lon="14.509727203430456"><ele>109.0</ele><time>2026-04-26T10:15:58.002Z</time></trkpt><trkpt lat="40.62361756322199" lon="14.5098316865904"><ele>111.50000000000001</ele><time>2026-04-26T10:15:59.002Z</time></trkpt><trkpt lat="40.62362079967304" lon="14.50994117734421"><ele>114.0</ele><time>2026-04-26T10:16:00.002Z</time></trkpt><trkpt lat="40.623644550907635" lon="14.51004918823782"><ele>116.5</ele><time>2026-04-26T10:16:01.002Z</time></trkpt><trkpt lat="40.62366022438354" lon="14.510139730108392"><ele>119.0</ele><time>2026-04-26T10:16:02.002Z</time></trkpt><trkpt lat="40.62364930867768" lon="14.510283699882297"><ele>121.50000000000001</ele><time>2026-04-26T10:16:04.001Z</time></trkpt><trkpt lat="40.62361061952451" lon="14.51035173456233"><ele>124.0</ele><time>2026-04-26T10:16:05.001Z</time></trkpt><trkpt lat="40.623566436383534" lon="14.510411025690228"><ele>124.00000000000001</ele><time>2026-04-26T10:16:06.001Z</time></trkpt><trkpt lat="40.62346765208539" lon="14.510465097501152"><ele>124.0</ele><time>2026-04-26T10:16:08.001Z</time></trkpt><trkpt lat="40.62340362584862" lon="14.510427866910371"><ele>124.0</ele><time>2026-04-26T10:16:09.001Z</time></trkpt><trkpt lat="40.623350808894095" lon="14.510375326110818"><ele>124.0</ele><time>2026-04-26T10:16:10.001Z</time></trkpt><trkpt lat="40.62328876361823" lon="14.51033985850833"><ele>124.00000000000001</ele><time>2026-04-26T10:16:11.001Z</time></trkpt><trkpt lat="40.623211248851476" lon="14.510330094806621"><ele>124.0</ele><time>2026-04-26T10:16:12.001Z</time></trkpt><trkpt lat="40.62314492938537" lon="14.510319023305817"><ele>124.00000000000001</ele><time>2026-04-26T10:16:13.001Z</time></trkpt><trkpt lat="40.62308091454002" lon="14.510291576078581"><ele>124.0</ele><time>2026-04-26T10:16:14.001Z</time></trkpt><trkpt lat="40.62301011912737" lon="14.510189819776873"><ele>124.0</ele><time>2026-04-26T10:16:16.001Z</time></trkpt><trkpt lat="40.62296290817755" lon="14.510114049634486"><ele>124.0</ele><time>2026-04-26T10:16:18.001Z</time></trkpt><trkpt lat="40.62290961015385" lon="14.510032683169571"><ele>124.00000000000001</ele><time>2026-04-26T10:16:20.001Z</time></trkpt><trkpt lat="40.62281473989899" lon="14.50996583505602"><ele>124.0</ele><time>2026-04-26T10:16:22.001Z</time></trkpt><trkpt lat="40.62272604129503" lon="14.509926958701183"><ele>126.0</ele><time>2026-04-26T10:16:24.001Z</time></trkpt><trkpt lat="40.622670273005156" lon="14.509884090309344"><ele>128.0</ele><time>2026-04-26T10:16:26.001Z</time></trkpt><trkpt lat="40.62256566255271" lon="14.50984071047941"><ele>130.0</ele><time>2026-04-26T10:16:29.001Z</time></trkpt><trkpt lat="40.622452638314634" lon="14.50981999992616"><ele>132.0</ele><time>2026-04-26T10:16:31.001Z</time></trkpt><trkpt lat="40.62234908597855" lon="14.509845385176742"><ele>134.0</ele><time>2026-04-26T10:16:33.001Z</time></trkpt><trkpt lat="40.62221901062081" lon="14.509909367482859"><ele>134.0</ele><time>2026-04-26T10:16:35.001Z</time></trkpt><trkpt lat="40.622148622352725" lon="14.509955064468642"><ele>134.0</ele><time>2026-04-26T10:16:36.001Z</time></trkpt><trkpt lat="40.62207115120117" lon="14.510012810049936"><ele>134.0</ele><time>2026-04-26T10:16:37.001Z</time></trkpt><trkpt lat="40.62199099488644" lon="14.510073867821186"><ele>134.0</ele><time>2026-04-26T10:16:38.001Z</time></trkpt><trkpt lat="40.6219075561813" lon="14.51013884782143"><ele>134.0</ele><time>2026-04-26T10:16:39.001Z</time></trkpt><trkpt lat="40.62181799344557" lon="14.510208754726616"><ele>138.0</ele><time>2026-04-26T10:16:40.001Z</time></trkpt><trkpt lat="40.62172426890475" lon="14.510285817290782"><ele>142.0</ele><time>2026-04-26T10:16:41.001Z</time></trkpt><trkpt lat="40.62164024149886" lon="14.510365111375426"><ele>146.0</ele><time>2026-04-26T10:16:42.001Z</time></trkpt><trkpt lat="40.62157264431623" lon="14.510449277593942"><ele>150.0</ele><time>2026-04-26T10:16:43.001Z</time></trkpt><trkpt lat="40.62150893032638" lon="14.510529555562275"><ele>154.0</ele><time>2026-04-26T10:16:44.001Z</time></trkpt><trkpt lat="40.62143362656684" lon="14.51057120637533"><ele>154.0</ele><time>2026-04-26T10:16:45.001Z</time></trkpt><trkpt lat="40.62136492115335" lon="14.510620454409946"><ele>154.0</ele><time>2026-04-26T10:16:46.001Z</time></trkpt><trkpt lat="40.62129683275518" lon="14.510679796281954"><ele>154.0</ele><time>2026-04-26T10:16:47.001Z</time></trkpt><trkpt lat="40.62123035701933" lon="14.510751871006521"><ele>154.0</ele><time>2026-04-26T10:16:48.001Z</time></trkpt><trkpt lat="40.62116743515022" lon="14.510838760605244"><ele>154.0</ele><time>2026-04-26T10:16:49.001Z</time></trkpt><trkpt lat="40.621111711360335" lon="14.510912169133702"><ele>154.0</ele><time>2026-04-26T10:16:50.001Z</time></trkpt><trkpt lat="40.62102703577005" lon="14.511021113358659"><ele>153.66666666666669</ele><time>2026-04-26T10:16:52.001Z</time></trkpt><trkpt lat="40.620977039240614" lon="14.511085291762873"><ele>153.33333333333334</ele><time>2026-04-26T10:16:53.001Z</time></trkpt><trkpt lat="40.620919826385965" lon="14.511160306390126"><ele>153.0</ele><time>2026-04-26T10:16:54.001Z</time></trkpt><trkpt lat="40.62085877521884" lon="14.511240720495291"><ele>152.66666666666666</ele><time>2026-04-26T10:16:55.001Z</time></trkpt><trkpt lat="40.62078869483264" lon="14.511333027434556"><ele>152.33333333333331</ele><time>2026-04-26T10:16:56.001Z</time></trkpt><trkpt lat="40.62071993846813" lon="14.511438730587333"><ele>152.0</ele><time>2026-04-26T10:16:57.001Z</time></trkpt><trkpt lat="40.62066934819086" lon="14.511555113176618"><ele>152.0</ele><time>2026-04-26T10:16:58.001Z</time></trkpt><trkpt lat="40.620631244752076" lon="14.511673918714429"><ele>152.0</ele><time>2026-04-26T10:16:59.001Z</time></trkpt><trkpt lat="40.62059353027473" lon="14.51177557861578"><ele>152.0</ele><time>2026-04-26T10:17:00.001Z</time></trkpt><trkpt lat="40.62055159403953" lon="14.511861268502768"><ele>152.0</ele><time>2026-04-26T10:17:01.001Z</time></trkpt><trkpt lat="40.62049836707498" lon="14.511921291889982"><ele>152.0</ele><time>2026-04-26T10:17:02.001Z</time></trkpt><trkpt lat="40.62044047466996" lon="14.511974687079649"><ele>152.0</ele><time>2026-04-26T10:17:03.001Z</time></trkpt><trkpt lat="40.62037316650804" lon="14.512038908861127"><ele>149.0</ele><time>2026-04-26T10:17:04.001Z</time></trkpt><trkpt lat="40.62030925104919" lon="14.51210230705909"><ele>146.0</ele><time>2026-04-26T10:17:05.001Z</time></trkpt><trkpt lat="40.62024921870018" lon="14.51216588633289"><ele>143.0</ele><time>2026-04-26T10:17:06.001Z</time></trkpt><trkpt lat="40.62019611791712" lon="14.512244026483955"><ele>140.0</ele><time>2026-04-26T10:17:07.001Z</time></trkpt><trkpt lat="40.620154993006814" lon="14.512318898829486"><ele>137.0</ele><time>2026-04-26T10:17:08.001Z</time></trkpt><trkpt lat="40.62014249322521" lon="14.512431111355"><ele>134.0</ele><time>2026-04-26T10:17:09.001Z</time></trkpt><trkpt lat="40.62013989441837" lon="14.512536166729205"><ele>134.0</ele><time>2026-04-26T10:17:10.001Z</time></trkpt><trkpt lat="40.6201413791169" lon="14.512642989733529"><ele>134.0</ele><time>2026-04-26T10:17:11.001Z</time></trkpt><trkpt lat="40.62013622984838" lon="14.512741150333376"><ele>134.0</ele><time>2026-04-26T10:17:12.001Z</time></trkpt><trkpt lat="40.620113237293076" lon="14.512834576649647"><ele>134.0</ele><time>2026-04-26T10:17:13.001Z</time></trkpt><trkpt lat="40.620074069891714" lon="14.51293250936098"><ele>134.0</ele><time>2026-04-26T10:17:14.001Z</time></trkpt><trkpt lat="40.62002121160296" lon="14.513027626337395"><ele>134.0</ele><time>2026-04-26T10:17:15.001Z</time></trkpt><trkpt lat="40.61995716470763" lon="14.513112908770987"><ele>141.2</ele><time>2026-04-26T10:17:16.001Z</time></trkpt><trkpt lat="40.61988686779058" lon="14.513194558819189"><ele>148.4</ele><time>2026-04-26T10:17:17.001Z</time></trkpt><trkpt lat="40.619813456976935" lon="14.51327509573414"><ele>155.6</ele><time>2026-04-26T10:17:18.001Z</time></trkpt><trkpt lat="40.61975064069741" lon="14.513367713529174"><ele>162.8</ele><time>2026-04-26T10:17:19.001Z</time></trkpt><trkpt lat="40.619691448785474" lon="14.51346135693148"><ele>170.0</ele><time>2026-04-26T10:17:20.001Z</time></trkpt><trkpt lat="40.61963463011087" lon="14.513559566174438"><ele>170.0</ele><time>2026-04-26T10:17:21.001Z</time></trkpt><trkpt lat="40.6195795973741" lon="14.513645219238308"><ele>170.0</ele><time>2026-04-26T10:17:22.001Z</time></trkpt><trkpt lat="40.61952199944024" lon="14.513722769193862"><ele>170.0</ele><time>2026-04-26T10:17:23.001Z</time></trkpt><trkpt lat="40.61946978026817" lon="14.51380818213982"><ele>170.0</ele><time>2026-04-26T10:17:24.001Z</time></trkpt><trkpt lat="40.619416892474135" lon="14.513893941906943"><ele>170.0</ele><time>2026-04-26T10:17:25.001Z</time></trkpt><trkpt lat="40.619357425284505" lon="14.513973387875096"><ele>170.0</ele><time>2026-04-26T10:17:26.001Z</time></trkpt><trkpt lat="40.61930390604457" lon="14.51405341934235"><ele>165.0</ele><time>2026-04-26T10:17:27.001Z</time></trkpt><trkpt lat="40.61926054365734" lon="14.514126408738504"><ele>160.0</ele><time>2026-04-26T10:17:28.001Z</time></trkpt><trkpt lat="40.619204257720945" lon="14.51425041601651"><ele>155.0</ele><time>2026-04-26T10:17:30.001Z</time></trkpt><trkpt lat="40.61925455553229" lon="14.514409369394015"><ele>150.0</ele><time>2026-04-26T10:17:32.001Z</time></trkpt><trkpt lat="40.61931958905213" lon="14.514475792213254"><ele>145.0</ele><time>2026-04-26T10:17:33.001Z</time></trkpt><trkpt lat="40.619382014522024" lon="14.51454536103189"><ele>146.5</ele><time>2026-04-26T10:17:34.001Z</time></trkpt><trkpt lat="40.61943714397159" lon="14.514634789156334"><ele>148.0</ele><time>2026-04-26T10:17:35.001Z</time></trkpt><trkpt lat="40.61948187934932" lon="14.514730361734975"><ele>149.5</ele><time>2026-04-26T10:17:36.001Z</time></trkpt><trkpt lat="40.619520665746435" lon="14.514816165518283"><ele>151.0</ele><time>2026-04-26T10:17:37.001Z</time></trkpt><trkpt lat="40.61955098748599" lon="14.514899756128523"><ele>152.5</ele><time>2026-04-26T10:17:38.001Z</time></trkpt><trkpt lat="40.61953796347591" lon="14.515055630759324"><ele>154.0</ele><time>2026-04-26T10:17:40.001Z</time></trkpt><trkpt lat="40.61943086097046" lon="14.515209000634972"><ele>154.0</ele><time>2026-04-26T10:17:42.001Z</time></trkpt><trkpt lat="40.61934575896104" lon="14.515278000810163"><ele>154.0</ele><time>2026-04-26T10:17:43.001Z</time></trkpt><trkpt lat="40.61925540916769" lon="14.515342395813546"><ele>154.0</ele><time>2026-04-26T10:17:44.001Z</time></trkpt><trkpt lat="40.61916206669757" lon="14.515399034753521"><ele>154.0</ele><time>2026-04-26T10:17:45.001Z</time></trkpt><trkpt lat="40.61907476254283" lon="14.515443753929969"><ele>154.0</ele><time>2026-04-26T10:17:46.001Z</time></trkpt><trkpt lat="40.619003430389235" lon="14.515468284095824"><ele>157.66666666666669</ele><time>2026-04-26T10:17:47.001Z</time></trkpt><trkpt lat="40.61889261806186" lon="14.515501617309164"><ele>161.33333333333334</ele><time>2026-04-26T10:17:49.001Z</time></trkpt><trkpt lat="40.618829804075126" lon="14.51551660985246"><ele>165.0</ele><time>2026-04-26T10:17:50.001Z</time></trkpt><trkpt lat="40.618750346921146" lon="14.51552665735121"><ele>168.66666666666666</ele><time>2026-04-26T10:17:51.001Z</time></trkpt><trkpt lat="40.61866633134235" lon="14.515528406852969"><ele>172.33333333333331</ele><time>2026-04-26T10:17:52.001Z</time></trkpt><trkpt lat="40.61858485653889" lon="14.515529610854694"><ele>176.0</ele><time>2026-04-26T10:17:53.001Z</time></trkpt><trkpt lat="40.61850637685523" lon="14.515535974563429"><ele>168.5</ele><time>2026-04-26T10:17:54.001Z</time></trkpt><trkpt lat="40.61844235452638" lon="14.515555785598622"><ele>161.0</ele><time>2026-04-26T10:17:55.001Z</time></trkpt><trkpt lat="40.61833412146403" lon="14.515635568663196"><ele>153.5</ele><time>2026-04-26T10:17:57.001Z</time></trkpt><trkpt lat="40.61833342307664" lon="14.51575154705418"><ele>146.0</ele><time>2026-04-26T10:17:58.001Z</time></trkpt><trkpt lat="40.618341489432716" lon="14.515856872322528"><ele>138.5</ele><time>2026-04-26T10:17:59.001Z</time></trkpt><trkpt lat="40.61835805738192" lon="14.51595957484389"><ele>131.0</ele><time>2026-04-26T10:18:00.001Z</time></trkpt><trkpt lat="40.61839004906321" lon="14.516038095633778"><ele>131.0</ele><time>2026-04-26T10:18:01.001Z</time></trkpt><trkpt lat="40.6184942342247" lon="14.516119614695588"><ele>131.0</ele><time>2026-04-26T10:18:03.001Z</time></trkpt><trkpt lat="40.61853952829466" lon="14.516190068143619"><ele>131.0</ele><time>2026-04-26T10:18:04.001Z</time></trkpt><trkpt lat="40.61859098046934" lon="14.516243466058349"><ele>131.0</ele><time>2026-04-26T10:18:05.001Z</time></trkpt><trkpt lat="40.61860897956324" lon="14.516324575056242"><ele>131.0</ele><time>2026-04-26T10:18:06.001Z</time></trkpt><trkpt lat="40.61863689505517" lon="14.51646357981149"><ele>131.0</ele><time>2026-04-26T10:18:08.001Z</time></trkpt><trkpt lat="40.61858612634636" lon="14.516585258465192"><ele>134.5</ele><time>2026-04-26T10:18:10.001Z</time></trkpt><trkpt lat="40.61851570697467" lon="14.516615502503473"><ele>138.0</ele><time>2026-04-26T10:18:11.001Z</time></trkpt><trkpt lat="40.61843540068261" lon="14.516614557582916"><ele>141.5</ele><time>2026-04-26T10:18:12.001Z</time></trkpt><trkpt lat="40.618351585168966" lon="14.516632143816848"><ele>145.0</ele><time>2026-04-26T10:18:13.001Z</time></trkpt><trkpt lat="40.618257734715726" lon="14.516668494186545"><ele>148.5</ele><time>2026-04-26T10:18:14.001Z</time></trkpt><trkpt lat="40.61816635370418" lon="14.5166949865776"><ele>152.0</ele><time>2026-04-26T10:18:15.001Z</time></trkpt><trkpt lat="40.61807966518191" lon="14.516716676075443"><ele>152.0</ele><time>2026-04-26T10:18:16.001Z</time></trkpt><trkpt lat="40.61800579524251" lon="14.516721041046832"><ele>152.0</ele><time>2026-04-26T10:18:17.001Z</time></trkpt><trkpt lat="40.61794175475783" lon="14.516737734606561"><ele>152.0</ele><time>2026-04-26T10:18:18.001Z</time></trkpt><trkpt lat="40.6178910525384" lon="14.516793366146075"><ele>152.0</ele><time>2026-04-26T10:18:19.001Z</time></trkpt><trkpt lat="40.617852940110005" lon="14.51686001779627"><ele>152.0</ele><time>2026-04-26T10:18:20Z</time></trkpt><trkpt lat="40.61783664774447" lon="14.516951004335557"><ele>152.0</ele><time>2026-04-26T10:18:21Z</time></trkpt><trkpt lat="40.61784047831496" lon="14.517049958480342"><ele>152.0</ele><time>2026-04-26T10:18:22Z</time></trkpt><trkpt lat="40.617864905317596" lon="14.517145077385319"><ele>153.66666666666666</ele><time>2026-04-26T10:18:23Z</time></trkpt><trkpt lat="40.617910214033884" lon="14.517243107923639"><ele>155.33333333333331</ele><time>2026-04-26T10:18:24Z</time></trkpt><trkpt lat="40.61796122464725" lon="14.517337542825985"><ele>157.0</ele><time>2026-04-26T10:18:25Z</time></trkpt><trkpt lat="40.61801213477519" lon="14.517431035283284"><ele>158.66666666666666</ele><time>2026-04-26T10:18:26Z</time></trkpt><trkpt lat="40.61806489815821" lon="14.517520508738126"><ele>160.33333333333334</ele><time>2026-04-26T10:18:27Z</time></trkpt><trkpt lat="40.61812773421919" lon="14.517607699124405"><ele>162.0</ele><time>2026-04-26T10:18:28Z</time></trkpt><trkpt lat="40.61816780638759" lon="14.517700679573743"><ele>162.0</ele><time>2026-04-26T10:18:29Z</time></trkpt><trkpt lat="40.618192399093324" lon="14.51780203536804"><ele>162.0</ele><time>2026-04-26T10:18:30Z</time></trkpt><trkpt lat="40.61819780284662" lon="14.517913106537073"><ele>162.0</ele><time>2026-04-26T10:18:31Z</time></trkpt><trkpt lat="40.61819379355993" lon="14.518028737174113"><ele>162.0</ele><time>2026-04-26T10:18:32Z</time></trkpt><trkpt lat="40.618206502729436" lon="14.518144649394188"><ele>162.0</ele><time>2026-04-26T10:18:33Z</time></trkpt><trkpt lat="40.618219258504894" lon="14.51825712255509"><ele>162.0</ele><time>2026-04-26T10:18:34Z</time></trkpt><trkpt lat="40.61822842502733" lon="14.51836229181757"><ele>163.33333333333334</ele><time>2026-04-26T10:18:35Z</time></trkpt><trkpt lat="40.61823515599302" lon="14.51845249175406"><ele>164.66666666666666</ele><time>2026-04-26T10:18:36Z</time></trkpt><trkpt lat="40.61818910007632" lon="14.518603523333105"><ele>166.0</ele><time>2026-04-26T10:18:38Z</time></trkpt><trkpt lat="40.61812079895802" lon="14.518656714806475"><ele>167.33333333333331</ele><time>2026-04-26T10:18:39Z</time></trkpt><trkpt lat="40.61804696078863" lon="14.518704761958068"><ele>168.66666666666666</ele><time>2026-04-26T10:18:40Z</time></trkpt><trkpt lat="40.61797710921425" lon="14.518756704881676"><ele>170.0</ele><time>2026-04-26T10:18:41Z</time></trkpt><trkpt lat="40.617914903992656" lon="14.51883096213651"><ele>171.5</ele><time>2026-04-26T10:18:42Z</time></trkpt><trkpt lat="40.61787839638118" lon="14.5189224827511"><ele>173.0</ele><time>2026-04-26T10:18:43Z</time></trkpt><trkpt lat="40.61786396040462" lon="14.51900989981951"><ele>174.5</ele><time>2026-04-26T10:18:44Z</time></trkpt><trkpt lat="40.617918251383585" lon="14.519131760549078"><ele>176.0</ele><time>2026-04-26T10:18:46Z</time></trkpt><trkpt lat="40.6179828894666" lon="14.519157553921202"><ele>177.5</ele><time>2026-04-26T10:18:47Z</time></trkpt><trkpt lat="40.61805779959144" lon="14.51918074368814"><ele>179.0</ele><time>2026-04-26T10:18:48Z</time></trkpt><trkpt lat="40.61813564706384" lon="14.519201112462394"><ele>179.0</ele><time>2026-04-26T10:18:49Z</time></trkpt><trkpt lat="40.61821221869534" lon="14.51921042528744"><ele>179.0</ele><time>2026-04-26T10:18:50Z</time></trkpt><trkpt lat="40.61829230255306" lon="14.519231381282617"><ele>179.0</ele><time>2026-04-26T10:18:51Z</time></trkpt><trkpt lat="40.618362535551434" lon="14.519290619838179"><ele>179.0</ele><time>2026-04-26T10:18:52Z</time></trkpt><trkpt lat="40.61842732525872" lon="14.519369633921405"><ele>179.0</ele><time>2026-04-26T10:18:53Z</time></trkpt><trkpt lat="40.61848257684019" lon="14.519466862397326"><ele>179.0</ele><time>2026-04-26T10:18:54Z</time></trkpt><trkpt lat="40.618524324681886" lon="14.519573797167041"><ele>179.0</ele><time>2026-04-26T10:18:55Z</time></trkpt><trkpt lat="40.61856756077393" lon="14.519671912038358"><ele>179.0</ele><time>2026-04-26T10:18:56Z</time></trkpt><trkpt lat="40.61860597719212" lon="14.51976979360023"><ele>179.0</ele><time>2026-04-26T10:18:57Z</time></trkpt><trkpt lat="40.618642027175994" lon="14.519862382561318"><ele>179.0</ele><time>2026-04-26T10:18:58Z</time></trkpt><trkpt lat="40.61865017125673" lon="14.5199473125693"><ele>179.0</ele><time>2026-04-26T10:18:59Z</time></trkpt><trkpt lat="40.61862144404817" lon="14.520028884322597"><ele>179.0</ele><time>2026-04-26T10:19:00Z</time></trkpt><trkpt lat="40.61856133196365" lon="14.520100120195638"><ele>179.0</ele><time>2026-04-26T10:19:01Z</time></trkpt><trkpt lat="40.6184745975613" lon="14.520155452596267"><ele>179.0</ele><time>2026-04-26T10:19:02Z</time></trkpt><trkpt lat="40.618376994714296" lon="14.520193092505068"><ele>179.0</ele><time>2026-04-26T10:19:03Z</time></trkpt><trkpt lat="40.61828121695613" lon="14.520229486303725"><ele>179.0</ele><time>2026-04-26T10:19:04Z</time></trkpt><trkpt lat="40.618190208051274" lon="14.520270793080794"><ele>179.0</ele><time>2026-04-26T10:19:05Z</time></trkpt><trkpt lat="40.61810317026945" lon="14.520313932364472"><ele>180.83333333333331</ele><time>2026-04-26T10:19:06Z</time></trkpt><trkpt lat="40.61802092860525" lon="14.520359587239966"><ele>182.66666666666666</ele><time>2026-04-26T10:19:07Z</time></trkpt><trkpt lat="40.61794231195718" lon="14.520401256990706"><ele>184.5</ele><time>2026-04-26T10:19:08Z</time></trkpt><trkpt lat="40.6178671152289" lon="14.520432891784774"><ele>186.33333333333334</ele><time>2026-04-26T10:19:09Z</time></trkpt><trkpt lat="40.61779526091074" lon="14.520451311041823"><ele>188.16666666666669</ele><time>2026-04-26T10:19:10Z</time></trkpt><trkpt lat="40.61771861447246" lon="14.520455555888232"><ele>190.0</ele><time>2026-04-26T10:19:11Z</time></trkpt><trkpt lat="40.61763125302468" lon="14.520456178398085"><ele>183.75</ele><time>2026-04-26T10:19:12Z</time></trkpt><trkpt lat="40.61753393532671" lon="14.52042634435855"><ele>177.5</ele><time>2026-04-26T10:19:13Z</time></trkpt><trkpt lat="40.61741992148847" lon="14.520417846892222"><ele>171.25</ele><time>2026-04-26T10:19:14Z</time></trkpt><trkpt lat="40.61729818966502" lon="14.520383062009978"><ele>165.0</ele><time>2026-04-26T10:19:15Z</time></trkpt><trkpt lat="40.61718229767802" lon="14.520360938984792"><ele>160.4</ele><time>2026-04-26T10:19:16Z</time></trkpt><trkpt lat="40.61707514447795" lon="14.52033489293324"><ele>155.8</ele><time>2026-04-26T10:19:17Z</time></trkpt><trkpt lat="40.61697189722655" lon="14.520300850235763"><ele>151.2</ele><time>2026-04-26T10:19:18Z</time></trkpt><trkpt lat="40.616872959845935" lon="14.52026486130422"><ele>146.6</ele><time>2026-04-26T10:19:19Z</time></trkpt><trkpt lat="40.616780407309406" lon="14.52022829613916"><ele>142.0</ele><time>2026-04-26T10:19:20Z</time></trkpt><trkpt lat="40.61670248961053" lon="14.520194861400773"><ele>140.66666666666669</ele><time>2026-04-26T10:19:21Z</time></trkpt><trkpt lat="40.61663264844852" lon="14.520159671147807"><ele>139.33333333333334</ele><time>2026-04-26T10:19:22Z</time></trkpt><trkpt lat="40.61656694874534" lon="14.52012554788745"><ele>138.0</ele><time>2026-04-26T10:19:23Z</time></trkpt><trkpt lat="40.61644854067713" lon="14.520095012838727"><ele>136.66666666666666</ele><time>2026-04-26T10:19:25.001Z</time></trkpt><trkpt lat="40.61634390629091" lon="14.520166772308917"><ele>135.33333333333331</ele><time>2026-04-26T10:19:27.001Z</time></trkpt><trkpt lat="40.61630078813272" lon="14.520227486196825"><ele>134.0</ele><time>2026-04-26T10:19:28.001Z</time></trkpt><trkpt lat="40.61625652740057" lon="14.52028979410558"><ele>134.0</ele><time>2026-04-26T10:19:29.001Z</time></trkpt><trkpt lat="40.61616105482079" lon="14.520393147932184"><ele>134.0</ele><time>2026-04-26T10:19:31.001Z</time></trkpt><trkpt lat="40.61611289252776" lon="14.520496274410414"><ele>134.0</ele><time>2026-04-26T10:19:33.001Z</time></trkpt><trkpt lat="40.616075751607745" lon="14.520610152246121"><ele>134.0</ele><time>2026-04-26T10:19:35.001Z</time></trkpt><trkpt lat="40.61603876459174" lon="14.520758203255651"><ele>134.0</ele><time>2026-04-26T10:19:37.001Z</time></trkpt><trkpt lat="40.616036061655755" lon="14.520844551947507"><ele>132.16666666666666</ele><time>2026-04-26T10:19:38.001Z</time></trkpt><trkpt lat="40.61604576744299" lon="14.520935881792681"><ele>130.33333333333331</ele><time>2026-04-26T10:19:39.001Z</time></trkpt><trkpt lat="40.616064954609094" lon="14.521036304770524"><ele>128.5</ele><time>2026-04-26T10:19:40.001Z</time></trkpt><trkpt lat="40.616093916497064" lon="14.52113304460688"><ele>126.66666666666666</ele><time>2026-04-26T10:19:41.001Z</time></trkpt><trkpt lat="40.616131840213235" lon="14.521227718890792"><ele>124.83333333333333</ele><time>2026-04-26T10:19:42.001Z</time></trkpt><trkpt lat="40.61616921303724" lon="14.521319307358763"><ele>123.0</ele><time>2026-04-26T10:19:43.001Z</time></trkpt><trkpt lat="40.61620411865167" lon="14.521416583695196"><ele>130.5</ele><time>2026-04-26T10:19:44.001Z</time></trkpt><trkpt lat="40.61623778199894" lon="14.521517725535956"><ele>138.0</ele><time>2026-04-26T10:19:45.001Z</time></trkpt><trkpt lat="40.61627686990338" lon="14.521618556187187"><ele>145.5</ele><time>2026-04-26T10:19:46.001Z</time></trkpt><trkpt lat="40.61631282785981" lon="14.521719167744378"><ele>153.0</ele><time>2026-04-26T10:19:47.001Z</time></trkpt><trkpt lat="40.616338663284864" lon="14.52182073988668"><ele>160.5</ele><time>2026-04-26T10:19:48.001Z</time></trkpt><trkpt lat="40.616360648382894" lon="14.521923444582166"><ele>168.0</ele><time>2026-04-26T10:19:49.001Z</time></trkpt><trkpt lat="40.61637635140297" lon="14.522024354471993"><ele>167.66666666666666</ele><time>2026-04-26T10:19:50.001Z</time></trkpt><trkpt lat="40.6163951363317" lon="14.52212524109208"><ele>167.33333333333334</ele><time>2026-04-26T10:19:51.001Z</time></trkpt><trkpt lat="40.61641977534567" lon="14.522223483175427"><ele>167.0</ele><time>2026-04-26T10:19:52.001Z</time></trkpt><trkpt lat="40.61644841371624" lon="14.522328019925903"><ele>166.66666666666669</ele><time>2026-04-26T10:19:53.001Z</time></trkpt><trkpt lat="40.61647137804279" lon="14.522437676722955"><ele>166.33333333333334</ele><time>2026-04-26T10:19:54.001Z</time></trkpt><trkpt lat="40.61649445037219" lon="14.522547587875259"><ele>166.0</ele><time>2026-04-26T10:19:55.001Z</time></trkpt><trkpt lat="40.61651919609398" lon="14.522648209175422"><ele>166.0</ele><time>2026-04-26T10:19:56.001Z</time></trkpt><trkpt lat="40.61654108259488" lon="14.5227426664703"><ele>166.0</ele><time>2026-04-26T10:19:57.001Z</time></trkpt><trkpt lat="40.616557568678616" lon="14.522828627192746"><ele>166.0</ele><time>2026-04-26T10:19:58.001Z</time></trkpt><trkpt lat="40.616538234875264" lon="14.522982174911247"><ele>166.0</ele><time>2026-04-26T10:20:00.001Z</time></trkpt><trkpt lat="40.61642070712469" lon="14.52304636944224"><ele>166.0</ele><time>2026-04-26T10:20:02.001Z</time></trkpt><trkpt lat="40.61633822286506" lon="14.523030907379692"><ele>163.4</ele><time>2026-04-26T10:20:03.001Z</time></trkpt><trkpt lat="40.61625196717871" lon="14.523021697253537"><ele>160.8</ele><time>2026-04-26T10:20:04.001Z</time></trkpt><trkpt lat="40.61615686066498" lon="14.52304444312499"><ele>158.20000000000002</ele><time>2026-04-26T10:20:05.001Z</time></trkpt><trkpt lat="40.61606348278601" lon="14.523063152329302"><ele>155.60000000000002</ele><time>2026-04-26T10:20:06.001Z</time></trkpt><trkpt lat="40.6159740636279" lon="14.523081759237202"><ele>153.0</ele><time>2026-04-26T10:20:07.001Z</time></trkpt><trkpt lat="40.61588579033033" lon="14.523115283535546"><ele>153.0</ele><time>2026-04-26T10:20:08.001Z</time></trkpt><trkpt lat="40.61579938030904" lon="14.523153685684346"><ele>153.0</ele><time>2026-04-26T10:20:09.001Z</time></trkpt><trkpt lat="40.61571341883838" lon="14.523186613430864"><ele>153.0</ele><time>2026-04-26T10:20:10.001Z</time></trkpt><trkpt lat="40.615640318234554" lon="14.523229773816958"><ele>153.0</ele><time>2026-04-26T10:20:11.001Z</time></trkpt><trkpt lat="40.615571956025654" lon="14.523240956281652"><ele>153.0</ele><time>2026-04-26T10:20:12.001Z</time></trkpt><trkpt lat="40.615459133627645" lon="14.523293979725945"><ele>153.0</ele><time>2026-04-26T10:20:14.001Z</time></trkpt><trkpt lat="40.615383886062645" lon="14.523191198102188"><ele>153.0</ele><time>2026-04-26T10:20:16Z</time></trkpt><trkpt lat="40.61534786757262" lon="14.523094708825548"><ele>153.0</ele><time>2026-04-26T10:20:17Z</time></trkpt><trkpt lat="40.61529046852061" lon="14.523017707973269"><ele>153.0</ele><time>2026-04-26T10:20:18Z</time></trkpt><trkpt lat="40.61523175573115" lon="14.522952037142975"><ele>153.0</ele><time>2026-04-26T10:20:19Z</time></trkpt><trkpt lat="40.61517490673786" lon="14.522899531238293"><ele>153.0</ele><time>2026-04-26T10:20:20Z</time></trkpt><trkpt lat="40.61511221311386" lon="14.522852414457128"><ele>153.0</ele><time>2026-04-26T10:20:22Z</time></trkpt><trkpt lat="40.615048062287464" lon="14.522810136348431"><ele>148.66666666666666</ele><time>2026-04-26T10:20:28Z</time></trkpt><trkpt lat="40.6149692715259" lon="14.522723521282929"><ele>144.33333333333334</ele><time>2026-04-26T10:20:30Z</time></trkpt><trkpt lat="40.614938521604536" lon="14.522641915156141"><ele>140.0</ele><time>2026-04-26T10:20:31Z</time></trkpt><trkpt lat="40.61490312473851" lon="14.522517342327642"><ele>135.66666666666669</ele><time>2026-04-26T10:20:33Z</time></trkpt><trkpt lat="40.61487288043213" lon="14.522440025077133"><ele>131.33333333333334</ele><time>2026-04-26T10:20:36Z</time></trkpt><trkpt lat="40.61483219849969" lon="14.522370903258473"><ele>127.0</ele><time>2026-04-26T10:20:41Z</time></trkpt><trkpt lat="40.614805600667886" lon="14.52228488029563"><ele>127.00000000000001</ele><time>2026-04-26T10:20:45Z</time></trkpt><trkpt lat="40.614758430833724" lon="14.522207651663326"><ele>127.0</ele><time>2026-04-26T10:21:05Z</time></trkpt><trkpt lat="40.61470806595438" lon="14.522157274801"><ele>127.0</ele><time>2026-04-26T10:21:09Z</time></trkpt><trkpt lat="40.614630140628755" lon="14.522201199531557"><ele>127.0</ele><time>2026-04-26T10:21:22Z</time></trkpt><trkpt lat="40.61455466627662" lon="14.522227974739495"><ele>127.00000000000001</ele><time>2026-04-26T10:21:24Z</time></trkpt><trkpt lat="40.614491176968095" lon="14.522252357752398"><ele>127.0</ele><time>2026-04-26T10:21:26Z</time></trkpt><trkpt lat="40.61440767535038" lon="14.522284473758825"><ele>127.50000000000001</ele><time>2026-04-26T10:21:29Z</time></trkpt><trkpt lat="40.61434339997573" lon="14.522306076841037"><ele>128.0</ele><time>2026-04-26T10:21:32Z</time></trkpt><trkpt lat="40.61427482959761" lon="14.522324564065098"><ele>128.5</ele><time>2026-04-26T10:21:36Z</time></trkpt><trkpt lat="40.61420558138922" lon="14.522343052226999"><ele>129.0</ele><time>2026-04-26T10:21:40Z</time></trkpt><trkpt lat="40.614129647463" lon="14.522363325366975"><ele>129.5</ele><time>2026-04-26T10:21:43Z</time></trkpt><trkpt lat="40.61405891128084" lon="14.522383777945121"><ele>130.0</ele><time>2026-04-26T10:21:45Z</time></trkpt><trkpt lat="40.613965849856925" lon="14.52240664601508"><ele>130.0</ele><time>2026-04-26T10:21:47Z</time></trkpt><trkpt lat="40.61386028198522" lon="14.522403906672377"><ele>130.0</ele><time>2026-04-26T10:21:49Z</time></trkpt><trkpt lat="40.61374465204457" lon="14.522381016501349"><ele>130.0</ele><time>2026-04-26T10:21:51Z</time></trkpt><trkpt lat="40.613682303937736" lon="14.522367547660462"><ele>130.0</ele><time>2026-04-26T10:21:52Z</time></trkpt><trkpt lat="40.61356978722255" lon="14.522393434989601"><ele>130.0</ele><time>2026-04-26T10:21:54Z</time></trkpt><trkpt lat="40.6134673568001" lon="14.522420650792512"><ele>128.5</ele><time>2026-04-26T10:21:56Z</time></trkpt><trkpt lat="40.61336719591311" lon="14.522436304413015"><ele>127.0</ele><time>2026-04-26T10:21:58Z</time></trkpt><trkpt lat="40.613293392983536" lon="14.522459144020713"><ele>125.5</ele><time>2026-04-26T10:22:01Z</time></trkpt><trkpt lat="40.61322886184999" lon="14.522497040895475"><ele>124.0</ele><time>2026-04-26T10:22:09Z</time></trkpt><trkpt lat="40.61315816069229" lon="14.522522632956116"><ele>122.50000000000001</ele><time>2026-04-26T10:22:11Z</time></trkpt><trkpt lat="40.61308026103943" lon="14.52252870314686"><ele>121.0</ele><time>2026-04-26T10:22:13Z</time></trkpt><trkpt lat="40.61300598831567" lon="14.522555893356628"><ele>121.0</ele><time>2026-04-26T10:22:15Z</time></trkpt><trkpt lat="40.61292208363745" lon="14.52260746923567"><ele>121.0</ele><time>2026-04-26T10:22:17Z</time></trkpt><trkpt lat="40.61282504354906" lon="14.522625293295206"><ele>121.0</ele><time>2026-04-26T10:22:19Z</time></trkpt><trkpt lat="40.61272548178782" lon="14.522668901529523"><ele>121.0</ele><time>2026-04-26T10:22:21Z</time></trkpt><trkpt lat="40.61262121564188" lon="14.522721085757269"><ele>121.0</ele><time>2026-04-26T10:22:23Z</time></trkpt><trkpt lat="40.612517661467066" lon="14.522776245741737"><ele>122.0</ele><time>2026-04-26T10:22:25Z</time></trkpt><trkpt lat="40.61240942793578" lon="14.522843504620841"><ele>123.0</ele><time>2026-04-26T10:22:27Z</time></trkpt><trkpt lat="40.61231183430688" lon="14.522930673020502"><ele>124.0</ele><time>2026-04-26T10:22:29Z</time></trkpt><trkpt lat="40.61223491982621" lon="14.523014941243552"><ele>125.0</ele><time>2026-04-26T10:22:31Z</time></trkpt><trkpt lat="40.61217037887624" lon="14.523102081203302"><ele>126.0</ele><time>2026-04-26T10:22:33Z</time></trkpt><trkpt lat="40.61212311738208" lon="14.52316346804776"><ele>126.0</ele><time>2026-04-26T10:22:35Z</time></trkpt><trkpt lat="40.61206368781888" lon="14.523212915947042"><ele>126.0</ele><time>2026-04-26T10:22:38Z</time></trkpt><trkpt lat="40.61198282367488" lon="14.52326407165577"><ele>126.0</ele><time>2026-04-26T10:22:41Z</time></trkpt><trkpt lat="40.611915377566184" lon="14.523334208584064"><ele>126.0</ele><time>2026-04-26T10:22:43Z</time></trkpt><trkpt lat="40.611815879238115" lon="14.52342230267006"><ele>126.0</ele><time>2026-04-26T10:22:45Z</time></trkpt><trkpt lat="40.611731151455295" lon="14.523487913421246"><ele>125.16666666666667</ele><time>2026-04-26T10:22:47Z</time></trkpt><trkpt lat="40.6116762469339" lon="14.523580539728908"><ele>124.33333333333334</ele><time>2026-04-26T10:22:49Z</time></trkpt><trkpt lat="40.61160288679436" lon="14.523642425896766"><ele>123.5</ele><time>2026-04-26T10:22:51Z</time></trkpt><trkpt lat="40.61154249231563" lon="14.523730696486453"><ele>122.66666666666667</ele><time>2026-04-26T10:22:53Z</time></trkpt><trkpt lat="40.61151259716332" lon="14.52383828852576"><ele>121.83333333333334</ele><time>2026-04-26T10:22:55Z</time></trkpt><trkpt lat="40.611467412329546" lon="14.523938812218391"><ele>121.0</ele><time>2026-04-26T10:22:57Z</time></trkpt><trkpt lat="40.61141729779281" lon="14.524031438299199"><ele>121.0</ele><time>2026-04-26T10:22:59Z</time></trkpt><trkpt lat="40.61135564783115" lon="14.524117744298952"><ele>121.0</ele><time>2026-04-26T10:23:01Z</time></trkpt><trkpt lat="40.611267691170845" lon="14.524194998190746"><ele>121.0</ele><time>2026-04-26T10:23:03Z</time></trkpt><trkpt lat="40.611169531127835" lon="14.524263715182405"><ele>121.0</ele><time>2026-04-26T10:23:05Z</time></trkpt><trkpt lat="40.611096188106245" lon="14.524372601944647"><ele>121.0</ele><time>2026-04-26T10:23:07Z</time></trkpt><trkpt lat="40.611033926389986" lon="14.524461070361102"><ele>120.6</ele><time>2026-04-26T10:23:09Z</time></trkpt><trkpt lat="40.61095337135128" lon="14.524517000415447"><ele>120.19999999999999</ele><time>2026-04-26T10:23:11Z</time></trkpt><trkpt lat="40.61086554813135" lon="14.524569218172497"><ele>119.80000000000001</ele><time>2026-04-26T10:23:13Z</time></trkpt><trkpt lat="40.610780987831475" lon="14.524627512968474"><ele>119.4</ele><time>2026-04-26T10:23:15Z</time></trkpt><trkpt lat="40.610704963084785" lon="14.524705418451443"><ele>119.0</ele><time>2026-04-26T10:23:17Z</time></trkpt><trkpt lat="40.610630944032366" lon="14.524780968185294"><ele>118.99999999999999</ele><time>2026-04-26T10:23:19Z</time></trkpt><trkpt lat="40.61055527924693" lon="14.524848683353179"><ele>119.0</ele><time>2026-04-26T10:23:21Z</time></trkpt><trkpt lat="40.610468358839675" lon="14.524897347457246"><ele>119.0</ele><time>2026-04-26T10:23:23Z</time></trkpt><trkpt lat="40.61036307678759" lon="14.524952998584864"><ele>119.0</ele><time>2026-04-26T10:23:25Z</time></trkpt><trkpt lat="40.6103011039707" lon="14.52498381573738"><ele>118.99999999999999</ele><time>2026-04-26T10:23:26Z</time></trkpt><trkpt lat="40.610240261060206" lon="14.52501591066524"><ele>119.0</ele><time>2026-04-26T10:23:27Z</time></trkpt><trkpt lat="40.61017937880819" lon="14.52505198705011"><ele>115.0</ele><time>2026-04-26T10:23:28Z</time></trkpt><trkpt lat="40.610131194615214" lon="14.52511166300737"><ele>111.0</ele><time>2026-04-26T10:23:29Z</time></trkpt><trkpt lat="40.610079557135286" lon="14.525167788848883"><ele>107.0</ele><time>2026-04-26T10:23:30Z</time></trkpt><trkpt lat="40.60998579003812" lon="14.525249969465335"><ele>103.0</ele><time>2026-04-26T10:23:32Z</time></trkpt><trkpt lat="40.60990105646956" lon="14.525345667737838"><ele>99.0</ele><time>2026-04-26T10:23:34Z</time></trkpt><trkpt lat="40.60980350790333" lon="14.525381994069674"><ele>96.0</ele><time>2026-04-26T10:23:36Z</time></trkpt><trkpt lat="40.609679650413234" lon="14.52543141761791"><ele>93.0</ele><time>2026-04-26T10:23:38Z</time></trkpt><trkpt lat="40.609594542963066" lon="14.5255152097806"><ele>90.0</ele><time>2026-04-26T10:23:40Z</time></trkpt><trkpt lat="40.60954429153328" lon="14.525588980027825"><ele>87.0</ele><time>2026-04-26T10:23:42Z</time></trkpt><trkpt lat="40.60949562675066" lon="14.52566231280117"><ele>84.0</ele><time>2026-04-26T10:23:45Z</time></trkpt><trkpt lat="40.60944536303281" lon="14.525731839573979"><ele>84.0</ele><time>2026-04-26T10:23:47Z</time></trkpt><trkpt lat="40.60937155598856" lon="14.525833297898075"><ele>84.0</ele><time>2026-04-26T10:23:49Z</time></trkpt><trkpt lat="40.609318710524725" lon="14.525905941534837"><ele>84.0</ele><time>2026-04-26T10:23:50Z</time></trkpt><trkpt lat="40.609267313045486" lon="14.525976594714905"><ele>84.0</ele><time>2026-04-26T10:23:51Z</time></trkpt><trkpt lat="40.60922373430552" lon="14.526036499911372"><ele>84.0</ele><time>2026-04-26T10:23:52Z</time></trkpt><trkpt lat="40.60914178569805" lon="14.52614977077747"><ele>84.0</ele><time>2026-04-26T10:23:54Z</time></trkpt><trkpt lat="40.60905961559178" lon="14.52626373268866"><ele>88.0</ele><time>2026-04-26T10:23:56Z</time></trkpt><trkpt lat="40.608976572810874" lon="14.526378904893003"><ele>92.0</ele><time>2026-04-26T10:23:58Z</time></trkpt><trkpt lat="40.60892916513253" lon="14.526444484489444"><ele>96.0</ele><time>2026-04-26T10:23:59Z</time></trkpt><trkpt lat="40.60887888829284" lon="14.526513938787673"><ele>100.0</ele><time>2026-04-26T10:24:00Z</time></trkpt><trkpt lat="40.60882634247898" lon="14.526586527522824"><ele>104.0</ele><time>2026-04-26T10:24:01Z</time></trkpt><trkpt lat="40.608772414602356" lon="14.526660130023568"><ele>108.0</ele><time>2026-04-26T10:24:02Z</time></trkpt><trkpt lat="40.60871821172258" lon="14.526733205789295"><ele>108.0</ele><time>2026-04-26T10:24:03Z</time></trkpt><trkpt lat="40.60866610642777" lon="14.52680484500444"><ele>108.0</ele><time>2026-04-26T10:24:04Z</time></trkpt><trkpt lat="40.60861463039214" lon="14.526875619060405"><ele>108.0</ele><time>2026-04-26T10:24:05Z</time></trkpt><trkpt lat="40.60856408319046" lon="14.526950752917086"><ele>108.0</ele><time>2026-04-26T10:24:06Z</time></trkpt><trkpt lat="40.608531807598126" lon="14.527036866956552"><ele>108.0</ele><time>2026-04-26T10:24:07Z</time></trkpt><trkpt lat="40.60849071602772" lon="14.527111643368414"><ele>108.0</ele><time>2026-04-26T10:24:08Z</time></trkpt><trkpt lat="40.60848634054988" lon="14.527205330311288"><ele>108.0</ele><time>2026-04-26T10:24:09Z</time></trkpt><trkpt lat="40.60850431916746" lon="14.5272941248916"><ele>121.0</ele><time>2026-04-26T10:24:10Z</time></trkpt><trkpt lat="40.608542654917926" lon="14.527371759405138"><ele>134.0</ele><time>2026-04-26T10:24:11Z</time></trkpt><trkpt lat="40.60858120801925" lon="14.52744714448297"><ele>147.0</ele><time>2026-04-26T10:24:12Z</time></trkpt><trkpt lat="40.60861631739379" lon="14.527522687405579"><ele>160.0</ele><time>2026-04-26T10:24:13Z</time></trkpt><trkpt lat="40.608650031897284" lon="14.527600574920424"><ele>173.0</ele><time>2026-04-26T10:24:14Z</time></trkpt><trkpt lat="40.608682729376255" lon="14.527742052218281"><ele>186.0</ele><time>2026-04-26T10:24:16Z</time></trkpt><trkpt lat="40.60868476536926" lon="14.527925543220258"><ele>186.0</ele><time>2026-04-26T10:24:18Z</time></trkpt><trkpt lat="40.60864429281081" lon="14.528032449928691"><ele>186.0</ele><time>2026-04-26T10:24:19Z</time></trkpt><trkpt lat="40.60861576716316" lon="14.5281484290759"><ele>186.0</ele><time>2026-04-26T10:24:20Z</time></trkpt><trkpt lat="40.60859120606156" lon="14.52825112077582"><ele>186.0</ele><time>2026-04-26T10:24:21Z</time></trkpt><trkpt lat="40.60857121096494" lon="14.528342356692631"><ele>186.0</ele><time>2026-04-26T10:24:22Z</time></trkpt><trkpt lat="40.608546678968956" lon="14.528436355940666"><ele>186.0</ele><time>2026-04-26T10:24:23Z</time></trkpt><trkpt lat="40.608515536515895" lon="14.52853052929269"><ele>186.0</ele><time>2026-04-26T10:24:24Z</time></trkpt><trkpt lat="40.60845507198857" lon="14.528614985680681"><ele>186.0</ele><time>2026-04-26T10:24:25Z</time></trkpt><trkpt lat="40.60838564224794" lon="14.528677479097492"><ele>186.0</ele><time>2026-04-26T10:24:26Z</time></trkpt><trkpt lat="40.60832372819226" lon="14.528733934391486"><ele>186.0</ele><time>2026-04-26T10:24:26.999Z</time></trkpt><trkpt lat="40.608276658010844" lon="14.52880986240329"><ele>186.0</ele><time>2026-04-26T10:24:27.999Z</time></trkpt><trkpt lat="40.608221463868354" lon="14.528898632325102"><ele>186.0</ele><time>2026-04-26T10:24:28.999Z</time></trkpt><trkpt lat="40.60818625522796" lon="14.529025694911873"><ele>167.8</ele><time>2026-04-26T10:24:29.999Z</time></trkpt><trkpt lat="40.60815205471697" lon="14.529154702123183"><ele>149.60000000000002</ele><time>2026-04-26T10:24:30.999Z</time></trkpt><trkpt lat="40.60810854012764" lon="14.529293518805295"><ele>131.4</ele><time>2026-04-26T10:24:31.999Z</time></trkpt><trkpt lat="40.60807252510346" lon="14.529413668617531"><ele>113.2</ele><time>2026-04-26T10:24:32.999Z</time></trkpt><trkpt lat="40.60803911142959" lon="14.529556309696298"><ele>95.0</ele><time>2026-04-26T10:24:33.999Z</time></trkpt><trkpt lat="40.60803791110174" lon="14.52964730790785"><ele>95.0</ele><time>2026-04-26T10:24:34.999Z</time></trkpt><trkpt lat="40.60798799125741" lon="14.52970480968466"><ele>95.0</ele><time>2026-04-26T10:24:35.999Z</time></trkpt><trkpt lat="40.608056500102315" lon="14.529794757181469"><ele>95.0</ele><time>2026-04-26T10:24:36.999Z</time></trkpt><trkpt lat="40.608136188401566" lon="14.52987411473955"><ele>95.0</ele><time>2026-04-26T10:24:37.999Z</time></trkpt><trkpt lat="40.60820482032386" lon="14.52993050075323"><ele>95.0</ele><time>2026-04-26T10:24:38.999Z</time></trkpt><trkpt lat="40.608281973398356" lon="14.529973954248048"><ele>95.0</ele><time>2026-04-26T10:24:39.999Z</time></trkpt><trkpt lat="40.60835848582645" lon="14.530029215276002"><ele>95.0</ele><time>2026-04-26T10:24:40.999Z</time></trkpt><trkpt lat="40.6084307998697" lon="14.530102297014546"><ele>95.0</ele><time>2026-04-26T10:24:41.999Z</time></trkpt><trkpt lat="40.60848807928839" lon="14.530205729883958"><ele>95.0</ele><time>2026-04-26T10:24:42.999Z</time></trkpt><trkpt lat="40.608551531150255" lon="14.530310057666929"><ele>95.0</ele><time>2026-04-26T10:24:43.999Z</time></trkpt><trkpt lat="40.608624665197844" lon="14.530409644536048"><ele>95.0</ele><time>2026-04-26T10:24:44.999Z</time></trkpt><trkpt lat="40.60869064098419" lon="14.530539648570965"><ele>95.4</ele><time>2026-04-26T10:24:45.999Z</time></trkpt><trkpt lat="40.60875727030492" lon="14.530665279804014"><ele>95.8</ele><time>2026-04-26T10:24:46.999Z</time></trkpt><trkpt lat="40.60882472311267" lon="14.530779940979778"><ele>96.19999999999999</ele><time>2026-04-26T10:24:47.999Z</time></trkpt><trkpt lat="40.608882272890405" lon="14.530881272473"><ele>96.6</ele><time>2026-04-26T10:24:48.999Z</time></trkpt><trkpt lat="40.608947973135145" lon="14.530978944821994"><ele>97.0</ele><time>2026-04-26T10:24:49.999Z</time></trkpt><trkpt lat="40.60902294963297" lon="14.53106059465235"><ele>97.0</ele><time>2026-04-26T10:24:50.999Z</time></trkpt><trkpt lat="40.60910657350806" lon="14.531120484073057"><ele>97.0</ele><time>2026-04-26T10:24:51.999Z</time></trkpt><trkpt lat="40.609197383705684" lon="14.531170853133615"><ele>97.0</ele><time>2026-04-26T10:24:52.999Z</time></trkpt><trkpt lat="40.60928787459608" lon="14.531226188917875"><ele>97.0</ele><time>2026-04-26T10:24:53.999Z</time></trkpt><trkpt lat="40.609375109680265" lon="14.531285785347853"><ele>97.0</ele><time>2026-04-26T10:24:54.999Z</time></trkpt><trkpt lat="40.609456564607456" lon="14.531341506326918"><ele>97.19999999999999</ele><time>2026-04-26T10:24:55.999Z</time></trkpt><trkpt lat="40.60951706226232" lon="14.531425351551238"><ele>97.4</ele><time>2026-04-26T10:24:56.999Z</time></trkpt><trkpt lat="40.609575824784784" lon="14.531511386934016"><ele>97.6</ele><time>2026-04-26T10:24:57.999Z</time></trkpt><trkpt lat="40.60964002079214" lon="14.53160026767956"><ele>97.80000000000001</ele><time>2026-04-26T10:24:58.999Z</time></trkpt><trkpt lat="40.60969476337076" lon="14.5317019617592"><ele>98.0</ele><time>2026-04-26T10:24:59.999Z</time></trkpt><trkpt lat="40.60973364991016" lon="14.531816359139532"><ele>97.99999999999999</ele><time>2026-04-26T10:25:00.999Z</time></trkpt><trkpt lat="40.60978216953083" lon="14.531922464016258"><ele>98.0</ele><time>2026-04-26T10:25:01.999Z</time></trkpt><trkpt lat="40.609843673701796" lon="14.532015166694887"><ele>98.0</ele><time>2026-04-26T10:25:02.999Z</time></trkpt><trkpt lat="40.609889443325876" lon="14.532117212616317"><ele>98.0</ele><time>2026-04-26T10:25:03.999Z</time></trkpt><trkpt lat="40.60994296286425" lon="14.532203067156217"><ele>97.99999999999999</ele><time>2026-04-26T10:25:04.999Z</time></trkpt><trkpt lat="40.61001063171265" lon="14.532267935738776"><ele>98.0</ele><time>2026-04-26T10:25:05.999Z</time></trkpt><trkpt lat="40.610091521106476" lon="14.532320002191469"><ele>93.99999999999999</ele><time>2026-04-26T10:25:06.999Z</time></trkpt><trkpt lat="40.61014984292205" lon="14.532404871315672"><ele>90.0</ele><time>2026-04-26T10:25:07.999Z</time></trkpt><trkpt lat="40.610212014783215" lon="14.532467657768857"><ele>86.0</ele><time>2026-04-26T10:25:08.999Z</time></trkpt><trkpt lat="40.610252835649206" lon="14.532550398855387"><ele>82.0</ele><time>2026-04-26T10:25:09.999Z</time></trkpt><trkpt lat="40.610276141795836" lon="14.532642506385061"><ele>78.0</ele><time>2026-04-26T10:25:10.999Z</time></trkpt><trkpt lat="40.61025804048048" lon="14.532752554457405"><ele>74.0</ele><time>2026-04-26T10:25:11.999Z</time></trkpt><trkpt lat="40.61026864869688" lon="14.532862287924981"><ele>70.83333333333334</ele><time>2026-04-26T10:25:12.999Z</time></trkpt><trkpt lat="40.610268188576796" lon="14.532960136440204"><ele>67.66666666666667</ele><time>2026-04-26T10:25:13.999Z</time></trkpt><trkpt lat="40.61027600787757" lon="14.533054978430743"><ele>64.5</ele><time>2026-04-26T10:25:14.999Z</time></trkpt><trkpt lat="40.610301429797424" lon="14.533160987941953"><ele>61.33333333333333</ele><time>2026-04-26T10:25:15.999Z</time></trkpt><trkpt lat="40.61034116259452" lon="14.533268797248592"><ele>58.166666666666664</ele><time>2026-04-26T10:25:16.999Z</time></trkpt><trkpt lat="40.61035697624622" lon="14.533373584509325"><ele>55.0</ele><time>2026-04-26T10:25:17.999Z</time></trkpt><trkpt lat="40.610386670676455" lon="14.53346364199931"><ele>58.33333333333333</ele><time>2026-04-26T10:25:18.999Z</time></trkpt><trkpt lat="40.61041690976878" lon="14.533554210878684"><ele>61.666666666666664</ele><time>2026-04-26T10:25:19.999Z</time></trkpt><trkpt lat="40.61044529998246" lon="14.533639242211917"><ele>65.0</ele><time>2026-04-26T10:25:20.999Z</time></trkpt><trkpt lat="40.61048637141836" lon="14.533756297999691"><ele>68.33333333333333</ele><time>2026-04-26T10:25:22.999Z</time></trkpt><trkpt lat="40.610520109188855" lon="14.533852624859897"><ele>71.66666666666667</ele><time>2026-04-26T10:25:25.999Z</time></trkpt><trkpt lat="40.61056156598196" lon="14.533919016263376"><ele>75.0</ele><time>2026-04-26T10:25:48Z</time></trkpt><trkpt lat="40.61059598039639" lon="14.534000148051941"><ele>75.0</ele><time>2026-04-26T10:26:14Z</time></trkpt><trkpt lat="40.610638290660575" lon="14.534067949673409"><ele>75.0</ele><time>2026-04-26T10:26:16Z</time></trkpt><trkpt lat="40.61069843170564" lon="14.534150173836597"><ele>75.0</ele><time>2026-04-26T10:26:18Z</time></trkpt><trkpt lat="40.61076644899345" lon="14.53423767590951"><ele>75.0</ele><time>2026-04-26T10:26:20Z</time></trkpt><trkpt lat="40.61083658168759" lon="14.53431754400511"><ele>75.0</ele><time>2026-04-26T10:26:22Z</time></trkpt><trkpt lat="40.61089787451816" lon="14.534380016411276"><ele>75.0</ele><time>2026-04-26T10:26:24Z</time></trkpt><trkpt lat="40.610955071574075" lon="14.534455073240375"><ele>75.0</ele><time>2026-04-26T10:26:26Z</time></trkpt><trkpt lat="40.61105576734469" lon="14.534520281001363"><ele>75.0</ele><time>2026-04-26T10:26:28Z</time></trkpt><trkpt lat="40.61114705560078" lon="14.534611941792205"><ele>75.0</ele><time>2026-04-26T10:26:30Z</time></trkpt><trkpt lat="40.61120268481426" lon="14.534735255056436"><ele>75.0</ele><time>2026-04-26T10:26:32Z</time></trkpt><trkpt lat="40.611222884910234" lon="14.534818965271889"><ele>75.0</ele><time>2026-04-26T10:26:32.999Z</time></trkpt><trkpt lat="40.61123983050772" lon="14.534899161223636"><ele>76.2</ele><time>2026-04-26T10:26:33.999Z</time></trkpt><trkpt lat="40.6112561072016" lon="14.535056767969426"><ele>77.4</ele><time>2026-04-26T10:26:35.999Z</time></trkpt><trkpt lat="40.61128548039322" lon="14.53519704600344"><ele>78.6</ele><time>2026-04-26T10:26:37.999Z</time></trkpt><trkpt lat="40.611319183257066" lon="14.535330785466824"><ele>79.8</ele><time>2026-04-26T10:26:39.999Z</time></trkpt><trkpt lat="40.611373984217046" lon="14.53545771810526"><ele>81.0</ele><time>2026-04-26T10:26:41.999Z</time></trkpt><trkpt lat="40.61140079022514" lon="14.535612688146688"><ele>81.0</ele><time>2026-04-26T10:26:43.999Z</time></trkpt><trkpt lat="40.61143365867603" lon="14.535686361926365"><ele>81.0</ele><time>2026-04-26T10:26:44.999Z</time></trkpt><trkpt lat="40.61142916083927" lon="14.535769826442372"><ele>81.0</ele><time>2026-04-26T10:26:45.999Z</time></trkpt><trkpt lat="40.611419766290375" lon="14.535926230943307"><ele>81.0</ele><time>2026-04-26T10:26:47.999Z</time></trkpt><trkpt lat="40.61141344371809" lon="14.536017188309978"><ele>81.0</ele><time>2026-04-26T10:26:48.999Z</time></trkpt><trkpt lat="40.611423168737176" lon="14.536122657497788"><ele>81.0</ele><time>2026-04-26T10:26:49.999Z</time></trkpt><trkpt lat="40.61144779923197" lon="14.53624443197387"><ele>77.2</ele><time>2026-04-26T10:26:50.999Z</time></trkpt><trkpt lat="40.61147403872991" lon="14.53636035742951"><ele>73.39999999999999</ele><time>2026-04-26T10:26:51.999Z</time></trkpt><trkpt lat="40.611502305427706" lon="14.53647435654783"><ele>69.6</ele><time>2026-04-26T10:26:52.999Z</time></trkpt><trkpt lat="40.61153214749725" lon="14.536592083106246"><ele>65.8</ele><time>2026-04-26T10:26:53.999Z</time></trkpt><trkpt lat="40.61156115976611" lon="14.536703501369102"><ele>62.0</ele><time>2026-04-26T10:26:54.999Z</time></trkpt><trkpt lat="40.61159114676897" lon="14.536816760424385"><ele>62.00000000000001</ele><time>2026-04-26T10:26:55.999Z</time></trkpt><trkpt lat="40.61162237975634" lon="14.53693058705822"><ele>62.0</ele><time>2026-04-26T10:26:56.999Z</time></trkpt><trkpt lat="40.61165198750605" lon="14.537039391321864"><ele>62.0</ele><time>2026-04-26T10:26:57.999Z</time></trkpt><trkpt lat="40.61167829960256" lon="14.537137667359971"><ele>62.0</ele><time>2026-04-26T10:26:58.999Z</time></trkpt><trkpt lat="40.61170121054254" lon="14.537229029666225"><ele>62.00000000000001</ele><time>2026-04-26T10:26:59.999Z</time></trkpt><trkpt lat="40.61174730762513" lon="14.537310100888739"><ele>62.0</ele><time>2026-04-26T10:27:00.999Z</time></trkpt><trkpt lat="40.61178559087782" lon="14.537391052540919"><ele>63.66666666666667</ele><time>2026-04-26T10:27:01.999Z</time></trkpt><trkpt lat="40.61184153283227" lon="14.53745231804501"><ele>65.33333333333334</ele><time>2026-04-26T10:27:02.999Z</time></trkpt><trkpt lat="40.61191321999285" lon="14.53748729800094"><ele>67.0</ele><time>2026-04-26T10:27:03.999Z</time></trkpt><trkpt lat="40.61199831738847" lon="14.537521363955358"><ele>68.66666666666667</ele><time>2026-04-26T10:27:04.999Z</time></trkpt><trkpt lat="40.61207518087315" lon="14.53755303334637"><ele>70.33333333333333</ele><time>2026-04-26T10:27:05.999Z</time></trkpt><trkpt lat="40.61214664609021" lon="14.537591519775782"><ele>72.0</ele><time>2026-04-26T10:27:06.999Z</time></trkpt><trkpt lat="40.612206292942794" lon="14.537642196806605"><ele>72.0</ele><time>2026-04-26T10:27:07.999Z</time></trkpt><trkpt lat="40.61226600001097" lon="14.53770071510925"><ele>72.0</ele><time>2026-04-26T10:27:08.999Z</time></trkpt><trkpt lat="40.61232581372618" lon="14.53775848925794"><ele>72.0</ele><time>2026-04-26T10:27:09.999Z</time></trkpt><trkpt lat="40.61238374120717" lon="14.53781419743412"><ele>72.0</ele><time>2026-04-26T10:27:10.999Z</time></trkpt><trkpt lat="40.6124379591048" lon="14.537864465123898"><ele>72.0</ele><time>2026-04-26T10:27:11.999Z</time></trkpt><trkpt lat="40.612535071659046" lon="14.537948994014048"><ele>72.0</ele><time>2026-04-26T10:27:13.999Z</time></trkpt><trkpt lat="40.61259923462651" lon="14.537963271731288"><ele>72.0</ele><time>2026-04-26T10:27:14.999Z</time></trkpt><trkpt lat="40.61266668056911" lon="14.537923975175563"><ele>72.0</ele><time>2026-04-26T10:27:15.999Z</time></trkpt><trkpt lat="40.61272856515115" lon="14.537871480734415"><ele>72.0</ele><time>2026-04-26T10:27:16.999Z</time></trkpt><trkpt lat="40.612784750636834" lon="14.53782854261061"><ele>72.0</ele><time>2026-04-26T10:27:17.999Z</time></trkpt><trkpt lat="40.612903700097355" lon="14.537819113152034"><ele>72.0</ele><time>2026-04-26T10:27:19.999Z</time></trkpt><trkpt lat="40.61296448124257" lon="14.537856508994144"><ele>72.0</ele><time>2026-04-26T10:27:20.999Z</time></trkpt><trkpt lat="40.613036886107096" lon="14.53785607253101"><ele>74.5</ele><time>2026-04-26T10:27:21.999Z</time></trkpt><trkpt lat="40.61310895799652" lon="14.537874174595787"><ele>77.0</ele><time>2026-04-26T10:27:22.999Z</time></trkpt><trkpt lat="40.61318082709039" lon="14.537888620367038"><ele>79.5</ele><time>2026-04-26T10:27:23.999Z</time></trkpt><trkpt lat="40.61325253828858" lon="14.537910755637203"><ele>82.0</ele><time>2026-04-26T10:27:25Z</time></trkpt><trkpt lat="40.61332956210893" lon="14.537941027647454"><ele>84.5</ele><time>2026-04-26T10:27:26Z</time></trkpt><trkpt lat="40.61341068549996" lon="14.537978349191658"><ele>87.0</ele><time>2026-04-26T10:27:27Z</time></trkpt><trkpt lat="40.61349569159869" lon="14.538027103327256"><ele>86.19999999999999</ele><time>2026-04-26T10:27:28Z</time></trkpt><trkpt lat="40.61358526366914" lon="14.538077138108116"><ele>85.4</ele><time>2026-04-26T10:27:29Z</time></trkpt><trkpt lat="40.613677996819106" lon="14.538123054455257"><ele>84.6</ele><time>2026-04-26T10:27:30Z</time></trkpt><trkpt lat="40.613771217025175" lon="14.538175135994004"><ele>83.80000000000001</ele><time>2026-04-26T10:27:31Z</time></trkpt><trkpt lat="40.61386772681535" lon="14.53822927705714"><ele>83.0</ele><time>2026-04-26T10:27:32Z</time></trkpt><trkpt lat="40.61396605808104" lon="14.538286066635234"><ele>83.0</ele><time>2026-04-26T10:27:33Z</time></trkpt><trkpt lat="40.61406470976997" lon="14.538340921531214"><ele>83.0</ele><time>2026-04-26T10:27:34Z</time></trkpt><trkpt lat="40.61415900957538" lon="14.538393596120514"><ele>83.0</ele><time>2026-04-26T10:27:35Z</time></trkpt><trkpt lat="40.61424748281931" lon="14.538441716743053"><ele>83.0</ele><time>2026-04-26T10:27:36Z</time></trkpt><trkpt lat="40.614324725753356" lon="14.53848394531046"><ele>83.0</ele><time>2026-04-26T10:27:37Z</time></trkpt><trkpt lat="40.61440125003184" lon="14.538525408657192"><ele>83.0</ele><time>2026-04-26T10:27:38Z</time></trkpt><trkpt lat="40.61447809131122" lon="14.53854587954049"><ele>83.0</ele><time>2026-04-26T10:27:39Z</time></trkpt><trkpt lat="40.61456773936349" lon="14.538542986551246"><ele>83.0</ele><time>2026-04-26T10:27:40Z</time></trkpt><trkpt lat="40.61464412732078" lon="14.538535586489113"><ele>83.0</ele><time>2026-04-26T10:27:41Z</time></trkpt><trkpt lat="40.614706926162796" lon="14.538553706776558"><ele>83.0</ele><time>2026-04-26T10:27:42Z</time></trkpt><trkpt lat="40.61475785464939" lon="14.538607903702317"><ele>83.0</ele><time>2026-04-26T10:27:43Z</time></trkpt><trkpt lat="40.61481250580889" lon="14.538675246425077"><ele>83.0</ele><time>2026-04-26T10:27:44Z</time></trkpt><trkpt lat="40.61486780376121" lon="14.538737975003352"><ele>83.0</ele><time>2026-04-26T10:27:45Z</time></trkpt><trkpt lat="40.614918597500775" lon="14.538793513240556"><ele>83.0</ele><time>2026-04-26T10:27:46Z</time></trkpt><trkpt lat="40.614993152131646" lon="14.538902220732203"><ele>83.0</ele><time>2026-04-26T10:27:48Z</time></trkpt><trkpt lat="40.61499013391811" lon="14.539040817549266"><ele>83.0</ele><time>2026-04-26T10:27:50Z</time></trkpt><trkpt lat="40.61489056498705" lon="14.539131725473913"><ele>83.0</ele><time>2026-04-26T10:27:52Z</time></trkpt><trkpt lat="40.61482259132926" lon="14.539157620892922"><ele>80.85714285714285</ele><time>2026-04-26T10:27:53Z</time></trkpt><trkpt lat="40.61477014622644" lon="14.53921702478493"><ele>78.71428571428572</ele><time>2026-04-26T10:27:54Z</time></trkpt><trkpt lat="40.61474023949203" lon="14.539298796859974"><ele>76.57142857142857</ele><time>2026-04-26T10:27:55Z</time></trkpt><trkpt lat="40.61472144838951" lon="14.539379168104597"><ele>74.42857142857142</ele><time>2026-04-26T10:27:56Z</time></trkpt><trkpt lat="40.614686763806134" lon="14.539457866153493"><ele>72.28571428571428</ele><time>2026-04-26T10:27:57Z</time></trkpt><trkpt lat="40.61461811847257" lon="14.539509125477965"><ele>70.14285714285714</ele><time>2026-04-26T10:27:58Z</time></trkpt><trkpt lat="40.61454016313807" lon="14.539536363413182"><ele>68.0</ele><time>2026-04-26T10:27:59Z</time></trkpt><trkpt lat="40.614460632436796" lon="14.539554417932674"><ele>68.0</ele><time>2026-04-26T10:28:00Z</time></trkpt><trkpt lat="40.614379414251474" lon="14.539570832831659"><ele>68.0</ele><time>2026-04-26T10:28:01Z</time></trkpt><trkpt lat="40.61430087996161" lon="14.539592997077715"><ele>68.0</ele><time>2026-04-26T10:28:02Z</time></trkpt><trkpt lat="40.61421987471669" lon="14.539615245662297"><ele>68.0</ele><time>2026-04-26T10:28:03Z</time></trkpt><trkpt lat="40.61413977986855" lon="14.539637743546338"><ele>68.0</ele><time>2026-04-26T10:28:04Z</time></trkpt><trkpt lat="40.61406377936865" lon="14.539657455668582"><ele>68.0</ele><time>2026-04-26T10:28:05Z</time></trkpt><trkpt lat="40.613994096937255" lon="14.539678675578488"><ele>68.0</ele><time>2026-04-26T10:28:06Z</time></trkpt><trkpt lat="40.61393374654705" lon="14.539704004175325"><ele>68.0</ele><time>2026-04-26T10:28:07Z</time></trkpt><trkpt lat="40.61382027737219" lon="14.53972902817257"><ele>68.0</ele><time>2026-04-26T10:28:09Z</time></trkpt><trkpt lat="40.61373592399049" lon="14.539770029833013"><ele>68.0</ele><time>2026-04-26T10:28:11Z</time></trkpt><trkpt lat="40.61368623752752" lon="14.539864620388709"><ele>68.0</ele><time>2026-04-26T10:28:13Z</time></trkpt><trkpt lat="40.613644101066456" lon="14.539987681770704"><ele>68.0</ele><time>2026-04-26T10:28:15Z</time></trkpt><trkpt lat="40.61363339667202" lon="14.540152988446676"><ele>68.0</ele><time>2026-04-26T10:28:17Z</time></trkpt><trkpt lat="40.61364411524953" lon="14.5402361658952"><ele>68.0</ele><time>2026-04-26T10:28:18Z</time></trkpt><trkpt lat="40.6136719282683" lon="14.540345632576436"><ele>68.0</ele><time>2026-04-26T10:28:19Z</time></trkpt><trkpt lat="40.613697121005444" lon="14.540443111527697"><ele>68.0</ele><time>2026-04-26T10:28:20Z</time></trkpt><trkpt lat="40.613737591005716" lon="14.540534902555564"><ele>68.0</ele><time>2026-04-26T10:28:21Z</time></trkpt><trkpt lat="40.61378864404744" lon="14.540627382227559"><ele>69.5</ele><time>2026-04-26T10:28:22Z</time></trkpt><trkpt lat="40.61383032219411" lon="14.540724754873034"><ele>71.0</ele><time>2026-04-26T10:28:23Z</time></trkpt><trkpt lat="40.61386326640564" lon="14.540815518230922"><ele>72.5</ele><time>2026-04-26T10:28:24Z</time></trkpt><trkpt lat="40.61386487849522" lon="14.540910566330489"><ele>74.0</ele><time>2026-04-26T10:28:25Z</time></trkpt><trkpt lat="40.613854530273116" lon="14.540998022589944"><ele>75.5</ele><time>2026-04-26T10:28:26Z</time></trkpt><trkpt lat="40.613846675646165" lon="14.541102486555102"><ele>77.0</ele><time>2026-04-26T10:28:27Z</time></trkpt><trkpt lat="40.613816994266855" lon="14.541204195121889"><ele>72.16666666666667</ele><time>2026-04-26T10:28:28Z</time></trkpt><trkpt lat="40.61383127475616" lon="14.541314797988987"><ele>67.33333333333334</ele><time>2026-04-26T10:28:29Z</time></trkpt><trkpt lat="40.613853468113156" lon="14.541422202488095"><ele>62.5</ele><time>2026-04-26T10:28:30Z</time></trkpt><trkpt lat="40.61391048865681" lon="14.541516794844712"><ele>57.66666666666667</ele><time>2026-04-26T10:28:31Z</time></trkpt><trkpt lat="40.61392404859807" lon="14.541624741206201"><ele>52.833333333333336</ele><time>2026-04-26T10:28:32Z</time></trkpt><trkpt lat="40.61395089388996" lon="14.54171532914248"><ele>48.0</ele><time>2026-04-26T10:28:33Z</time></trkpt><trkpt lat="40.61394127183094" lon="14.541809204506997"><ele>48.0</ele><time>2026-04-26T10:28:34Z</time></trkpt><trkpt lat="40.61393770182012" lon="14.541900334947682"><ele>48.0</ele><time>2026-04-26T10:28:35Z</time></trkpt><trkpt lat="40.61397180785172" lon="14.541988894840701"><ele>48.0</ele><time>2026-04-26T10:28:36Z</time></trkpt><trkpt lat="40.614032618955534" lon="14.542070934027272"><ele>48.0</ele><time>2026-04-26T10:28:37Z</time></trkpt><trkpt lat="40.61410200482073" lon="14.542143037138882"><ele>48.0</ele><time>2026-04-26T10:28:38Z</time></trkpt><trkpt lat="40.61416987807229" lon="14.5422177313423"><ele>48.0</ele><time>2026-04-26T10:28:38.999Z</time></trkpt><trkpt lat="40.614239995761736" lon="14.542294550091787"><ele>48.0</ele><time>2026-04-26T10:28:39.999Z</time></trkpt><trkpt lat="40.61431215499193" lon="14.542370195757456"><ele>48.0</ele><time>2026-04-26T10:28:40.999Z</time></trkpt><trkpt lat="40.61438924469911" lon="14.542441494687841"><ele>48.0</ele><time>2026-04-26T10:28:41.999Z</time></trkpt><trkpt lat="40.61447095914543" lon="14.542503020853474"><ele>48.0</ele><time>2026-04-26T10:28:42.999Z</time></trkpt><trkpt lat="40.61454831795116" lon="14.54255250230491"><ele>48.0</ele><time>2026-04-26T10:28:43.999Z</time></trkpt><trkpt lat="40.61462288746866" lon="14.542602871796381"><ele>48.0</ele><time>2026-04-26T10:28:44.999Z</time></trkpt><trkpt lat="40.614688124322775" lon="14.542651824519242"><ele>48.0</ele><time>2026-04-26T10:28:45.999Z</time></trkpt><trkpt lat="40.614746064728585" lon="14.542692515726573"><ele>48.0</ele><time>2026-04-26T10:28:46.999Z</time></trkpt><trkpt lat="40.61483448828804" lon="14.542788759187209"><ele>48.0</ele><time>2026-04-26T10:28:48.999Z</time></trkpt><trkpt lat="40.614824569681645" lon="14.542942106901762"><ele>48.0</ele><time>2026-04-26T10:28:50.999Z</time></trkpt><trkpt lat="40.61478793850354" lon="14.543010480720264"><ele>48.0</ele><time>2026-04-26T10:28:51.999Z</time></trkpt><trkpt lat="40.614738471426854" lon="14.543074208016128"><ele>48.0</ele><time>2026-04-26T10:28:52.999Z</time></trkpt><trkpt lat="40.61469682309882" lon="14.543160344925468"><ele>48.0</ele><time>2026-04-26T10:28:53.999Z</time></trkpt><trkpt lat="40.614628427022886" lon="14.543218124374304"><ele>48.0</ele><time>2026-04-26T10:28:54.999Z</time></trkpt><trkpt lat="40.614567439052664" lon="14.543315561059357"><ele>48.0</ele><time>2026-04-26T10:28:55.999Z</time></trkpt><trkpt lat="40.61450928274048" lon="14.543416765223961"><ele>48.0</ele><time>2026-04-26T10:28:56.999Z</time></trkpt><trkpt lat="40.614453800268336" lon="14.543517279910041"><ele>48.0</ele><time>2026-04-26T10:28:57.999Z</time></trkpt><trkpt lat="40.61440047262362" lon="14.543619099448097"><ele>48.0</ele><time>2026-04-26T10:28:58.999Z</time></trkpt><trkpt lat="40.61435316806562" lon="14.543713249611171"><ele>48.0</ele><time>2026-04-26T10:28:59.999Z</time></trkpt><trkpt lat="40.61430935316659" lon="14.543810921414098"><ele>48.0</ele><time>2026-04-26T10:29:00.999Z</time></trkpt><trkpt lat="40.61427993636822" lon="14.543923036541015"><ele>48.0</ele><time>2026-04-26T10:29:01.999Z</time></trkpt><trkpt lat="40.614267609916084" lon="14.544031290288066"><ele>48.0</ele><time>2026-04-26T10:29:02.999Z</time></trkpt><trkpt lat="40.61424476437167" lon="14.544119053856667"><ele>48.0</ele><time>2026-04-26T10:29:03.999Z</time></trkpt><trkpt lat="40.614213971729825" lon="14.544201618164069"><ele>48.0</ele><time>2026-04-26T10:29:04.999Z</time></trkpt><trkpt lat="40.61418110826935" lon="14.544336895086936"><ele>48.0</ele><time>2026-04-26T10:29:07Z</time></trkpt><trkpt lat="40.61419004304148" lon="14.544420049727195"><ele>48.0</ele><time>2026-04-26T10:29:08Z</time></trkpt><trkpt lat="40.6142268417334" lon="14.54448886811778"><ele>48.0</ele><time>2026-04-26T10:29:09Z</time></trkpt><trkpt lat="40.61430407944504" lon="14.544514036499802"><ele>48.0</ele><time>2026-04-26T10:29:10Z</time></trkpt><trkpt lat="40.61435006384449" lon="14.544581969156143"><ele>48.0</ele><time>2026-04-26T10:29:11Z</time></trkpt><trkpt lat="40.61441029798036" lon="14.54463274258104"><ele>48.0</ele><time>2026-04-26T10:29:12Z</time></trkpt><trkpt lat="40.614477119728036" lon="14.54468826596354"><ele>48.0</ele><time>2026-04-26T10:29:13Z</time></trkpt><trkpt lat="40.61455477390778" lon="14.544723309562755"><ele>48.0</ele><time>2026-04-26T10:29:14Z</time></trkpt><trkpt lat="40.61462106917268" lon="14.544777758588163"><ele>48.0</ele><time>2026-04-26T10:29:15Z</time></trkpt><trkpt lat="40.614679434474915" lon="14.544826878110907"><ele>48.0</ele><time>2026-04-26T10:29:16Z</time></trkpt><trkpt lat="40.61473213751141" lon="14.5449462532329"><ele>48.0</ele><time>2026-04-26T10:29:18Z</time></trkpt><trkpt lat="40.61473236198603" lon="14.545098077186795"><ele>47.99999999999999</ele><time>2026-04-26T10:29:20Z</time></trkpt><trkpt lat="40.61471583214923" lon="14.545186354277778"><ele>48.0</ele><time>2026-04-26T10:29:21Z</time></trkpt><trkpt lat="40.614685305732465" lon="14.545275460099035"><ele>48.0</ele><time>2026-04-26T10:29:22Z</time></trkpt><trkpt lat="40.61464617806356" lon="14.545367922290803"><ele>48.0</ele><time>2026-04-26T10:29:23Z</time></trkpt><trkpt lat="40.614599483418225" lon="14.545456387335925"><ele>48.0</ele><time>2026-04-26T10:29:24Z</time></trkpt><trkpt lat="40.61455945694105" lon="14.545531199226788"><ele>47.99999999999999</ele><time>2026-04-26T10:29:25Z</time></trkpt><trkpt lat="40.61452559241309" lon="14.545601174565354"><ele>48.0</ele><time>2026-04-26T10:29:26Z</time></trkpt><trkpt lat="40.61446765539616" lon="14.545717813152251"><ele>38.4</ele><time>2026-04-26T10:29:28Z</time></trkpt><trkpt lat="40.614378328040374" lon="14.54582889423866"><ele>28.799999999999997</ele><time>2026-04-26T10:29:30Z</time></trkpt><trkpt lat="40.61432043910561" lon="14.545974878653968"><ele>19.2</ele><time>2026-04-26T10:29:32Z</time></trkpt><trkpt lat="40.61431162840146" lon="14.546080380721245"><ele>9.6</ele><time>2026-04-26T10:29:33Z</time></trkpt><trkpt lat="40.6143235055268" lon="14.546192526238027"><ele>0.0</ele><time>2026-04-26T10:29:34Z</time></trkpt><trkpt lat="40.61433816301229" lon="14.546296049252783"><ele>0.0</ele><time>2026-04-26T10:29:35Z</time></trkpt><trkpt lat="40.61435607879291" lon="14.546402552228578"><ele>0.0</ele><time>2026-04-26T10:29:36Z</time></trkpt><trkpt lat="40.61437660176789" lon="14.546514077834852"><ele>0.0</ele><time>2026-04-26T10:29:37Z</time></trkpt><trkpt lat="40.61440519663734" lon="14.546628575842654"><ele>0.0</ele><time>2026-04-26T10:29:38Z</time></trkpt><trkpt lat="40.61444772679108" lon="14.546737849715864"><ele>0.0</ele><time>2026-04-26T10:29:39Z</time></trkpt><trkpt lat="40.614487771616325" lon="14.546837816840048"><ele>0.0</ele><time>2026-04-26T10:29:40Z</time></trkpt><trkpt lat="40.6145257268833" lon="14.546931030531857"><ele>0.0</ele><time>2026-04-26T10:29:41Z</time></trkpt><trkpt lat="40.61455292082296" lon="14.54702390183753"><ele>0.0</ele><time>2026-04-26T10:29:42Z</time></trkpt><trkpt lat="40.614567768313734" lon="14.547108512316065"><ele>0.0</ele><time>2026-04-26T10:29:43Z</time></trkpt><trkpt lat="40.614581209559695" lon="14.547202397723337"><ele>0.0</ele><time>2026-04-26T10:29:44Z</time></trkpt><trkpt lat="40.6145947160069" lon="14.547292194187342"><ele>0.0</ele><time>2026-04-26T10:29:45Z</time></trkpt><trkpt lat="40.61460853521404" lon="14.5473937943329"><ele>0.0</ele><time>2026-04-26T10:29:46Z</time></trkpt><trkpt lat="40.61461493973556" lon="14.547489262615917"><ele>0.0</ele><time>2026-04-26T10:29:47Z</time></trkpt><trkpt lat="40.61461289469488" lon="14.547585238083249"><ele>0.0</ele><time>2026-04-26T10:29:48Z</time></trkpt><trkpt lat="40.614598366115516" lon="14.54767918000627"><ele>0.0</ele><time>2026-04-26T10:29:49Z</time></trkpt><trkpt lat="40.61457065011934" lon="14.54777869216758"><ele>0.0</ele><time>2026-04-26T10:29:50Z</time></trkpt><trkpt lat="40.61454247102243" lon="14.547885047615964"><ele>0.0</ele><time>2026-04-26T10:29:51Z</time></trkpt><trkpt lat="40.61452301814491" lon="14.54798328326576"><ele>0.0</ele><time>2026-04-26T10:29:52Z</time></trkpt><trkpt lat="40.61451447412097" lon="14.548123513666754"><ele>0.0</ele><time>2026-04-26T10:29:54Z</time></trkpt><trkpt lat="40.61450449634407" lon="14.548231411104556"><ele>0.0</ele><time>2026-04-26T10:29:56Z</time></trkpt><trkpt lat="40.61447186923532" lon="14.548369589064613"><ele>0.0</ele><time>2026-04-26T10:29:58Z</time></trkpt><trkpt lat="40.61444144448025" lon="14.548444214723574"><ele>0.0</ele><time>2026-04-26T10:29:59Z</time></trkpt><trkpt lat="40.614407803754354" lon="14.548521608126666"><ele>0.0</ele><time>2026-04-26T10:30:00Z</time></trkpt><trkpt lat="40.614375647331116" lon="14.548599997733175"><ele>0.0</ele><time>2026-04-26T10:30:01Z</time></trkpt><trkpt lat="40.61431419344867" lon="14.548759326694167"><ele>0.0</ele><time>2026-04-26T10:30:03Z</time></trkpt><trkpt lat="40.614282093233015" lon="14.548849362890131"><ele>0.0</ele><time>2026-04-26T10:30:04Z</time></trkpt><trkpt lat="40.614250478670165" lon="14.54893803689956"><ele>0.0</ele><time>2026-04-26T10:30:05Z</time></trkpt><trkpt lat="40.61422384860294" lon="14.549025104293504"><ele>0.0</ele><time>2026-04-26T10:30:06Z</time></trkpt><trkpt lat="40.61422184040625" lon="14.549117053717952"><ele>0.0</ele><time>2026-04-26T10:30:07Z</time></trkpt><trkpt lat="40.61424007639062" lon="14.549196914096894"><ele>0.0</ele><time>2026-04-26T10:30:08Z</time></trkpt><trkpt lat="40.61425736897238" lon="14.549334053655285"><ele>0.0</ele><time>2026-04-26T10:30:10Z</time></trkpt><trkpt lat="40.614246922497" lon="14.549441870010595"><ele>0.0</ele><time>2026-04-26T10:30:11Z</time></trkpt><trkpt lat="40.61423068731466" lon="14.549537449654634"><ele>0.0</ele><time>2026-04-26T10:30:12Z</time></trkpt><trkpt lat="40.61421267523738" lon="14.549621661024583"><ele>0.0</ele><time>2026-04-26T10:30:13Z</time></trkpt><trkpt lat="40.614204328106865" lon="14.549704722078891"><ele>0.0</ele><time>2026-04-26T10:30:14Z</time></trkpt><trkpt lat="40.61414692904319" lon="14.549833368853461"><ele>0.0</ele><time>2026-04-26T10:30:16Z</time></trkpt><trkpt lat="40.61412893758105" lon="14.549990926190043"><ele>0.0</ele><time>2026-04-26T10:30:18Z</time></trkpt><trkpt lat="40.614198292063136" lon="14.550062368955718"><ele>0.0</ele><time>2026-04-26T10:30:19Z</time></trkpt><trkpt lat="40.614251363758434" lon="14.550122321056042"><ele>0.0</ele><time>2026-04-26T10:30:20Z</time></trkpt><trkpt lat="40.61432747362964" lon="14.55020968785743"><ele>0.0</ele><time>2026-04-26T10:30:22Z</time></trkpt><trkpt lat="40.6143343329369" lon="14.550331484541521"><ele>0.0</ele><time>2026-04-26T10:30:24Z</time></trkpt><trkpt lat="40.61432221333777" lon="14.550449885335652"><ele>0.0</ele><time>2026-04-26T10:30:27Z</time></trkpt><trkpt lat="40.614282486690435" lon="14.55059681490795"><ele>0.0</ele><time>2026-04-26T10:30:29Z</time></trkpt><trkpt lat="40.61422973505491" lon="14.550721544866759"><ele>0.0</ele><time>2026-04-26T10:30:31Z</time></trkpt><trkpt lat="40.614154326504824" lon="14.550838258220129"><ele>0.0</ele><time>2026-04-26T10:30:33Z</time></trkpt><trkpt lat="40.614120184606534" lon="14.550994697320414"><ele>0.0</ele><time>2026-04-26T10:30:35Z</time></trkpt><trkpt lat="40.61409687151366" lon="14.551148588528704"><ele>0.0</ele><time>2026-04-26T10:30:37Z</time></trkpt><trkpt lat="40.61408368386981" lon="14.551235641007475"><ele>0.0</ele><time>2026-04-26T10:30:38Z</time></trkpt><trkpt lat="40.614068863848146" lon="14.55132337760785"><ele>0.0</ele><time>2026-04-26T10:30:39Z</time></trkpt><trkpt lat="40.614057043278294" lon="14.551409462162527"><ele>0.0</ele><time>2026-04-26T10:30:40Z</time></trkpt><trkpt lat="40.614052840395345" lon="14.551501902859844"><ele>0.0</ele><time>2026-04-26T10:30:41Z</time></trkpt><trkpt lat="40.61406676612237" lon="14.55159427272343"><ele>0.0</ele><time>2026-04-26T10:30:42Z</time></trkpt><trkpt lat="40.61410786533545" lon="14.551673159991521"><ele>0.0</ele><time>2026-04-26T10:30:43Z</time></trkpt><trkpt lat="40.6141445636233" lon="14.551809542359349"><ele>0.0</ele><time>2026-04-26T10:30:45Z</time></trkpt><trkpt lat="40.61415452826348" lon="14.551984620478581"><ele>0.0</ele><time>2026-04-26T10:30:47Z</time></trkpt><trkpt lat="40.61416676291379" lon="14.552085438909984"><ele>0.0</ele><time>2026-04-26T10:30:47.999Z</time></trkpt><trkpt lat="40.614180831378214" lon="14.552186572603173"><ele>0.0</ele><time>2026-04-26T10:30:48.999Z</time></trkpt><trkpt lat="40.61419875116683" lon="14.552293109244882"><ele>0.0</ele><time>2026-04-26T10:30:49.999Z</time></trkpt><trkpt lat="40.614207853437385" lon="14.55239570044748"><ele>0.0</ele><time>2026-04-26T10:30:50.999Z</time></trkpt><trkpt lat="40.614196276543936" lon="14.552495966907543"><ele>0.0</ele><time>2026-04-26T10:30:51.999Z</time></trkpt><trkpt lat="40.61418565934672" lon="14.55259426320856"><ele>0.0</ele><time>2026-04-26T10:30:52.999Z</time></trkpt><trkpt lat="40.61417451004443" lon="14.552682412919005"><ele>0.0</ele><time>2026-04-26T10:30:53.999Z</time></trkpt><trkpt lat="40.61415398037239" lon="14.552815339295677"><ele>0.0</ele><time>2026-04-26T10:30:55.999Z</time></trkpt><trkpt lat="40.61410864370051" lon="14.552906483051682"><ele>0.0</ele><time>2026-04-26T10:30:57.999Z</time></trkpt><trkpt lat="40.61400028641244" lon="14.552974187518785"><ele>0.0</ele><time>2026-04-26T10:30:59.999Z</time></trkpt><trkpt lat="40.61388350006217" lon="14.553002696031859"><ele>0.0</ele><time>2026-04-26T10:31:01.999Z</time></trkpt><trkpt lat="40.61381546873964" lon="14.553127892060827"><ele>0.0</ele><time>2026-04-26T10:31:04Z</time></trkpt><trkpt lat="40.61381870841172" lon="14.553236577526482"><ele>0.0</ele><time>2026-04-26T10:31:05Z</time></trkpt><trkpt lat="40.61385890243743" lon="14.553386074999622"><ele>0.0</ele><time>2026-04-26T10:31:07Z</time></trkpt><trkpt lat="40.61390749600261" lon="14.553553548053724"><ele>3.0</ele><time>2026-04-26T10:31:09Z</time></trkpt><trkpt lat="40.613922042592804" lon="14.553644021837915"><ele>6.0</ele><time>2026-04-26T10:31:10Z</time></trkpt><trkpt lat="40.61393478384916" lon="14.55373557785078"><ele>9.0</ele><time>2026-04-26T10:31:11Z</time></trkpt><trkpt lat="40.61393959537932" lon="14.553906255241706"><ele>12.0</ele><time>2026-04-26T10:31:13Z</time></trkpt><trkpt lat="40.613939924797855" lon="14.554009551393978"><ele>15.0</ele><time>2026-04-26T10:31:14Z</time></trkpt><trkpt lat="40.613937140772336" lon="14.554117952474279"><ele>18.0</ele><time>2026-04-26T10:31:15Z</time></trkpt><trkpt lat="40.61393744540613" lon="14.554230356153685"><ele>18.0</ele><time>2026-04-26T10:31:16Z</time></trkpt><trkpt lat="40.61393653120648" lon="14.55433922514179"><ele>18.0</ele><time>2026-04-26T10:31:17Z</time></trkpt><trkpt lat="40.61393174520979" lon="14.554437461786492"><ele>18.0</ele><time>2026-04-26T10:31:18Z</time></trkpt><trkpt lat="40.61392214753237" lon="14.554528794947313"><ele>18.0</ele><time>2026-04-26T10:31:19Z</time></trkpt><trkpt lat="40.613885352023" lon="14.5546071120873"><ele>18.0</ele><time>2026-04-26T10:31:20Z</time></trkpt><trkpt lat="40.6138523012424" lon="14.55470772055501"><ele>18.0</ele><time>2026-04-26T10:31:21Z</time></trkpt><trkpt lat="40.61379429353018" lon="14.5547798599457"><ele>17.5</ele><time>2026-04-26T10:31:22Z</time></trkpt><trkpt lat="40.613761876406734" lon="14.554879781837078"><ele>17.0</ele><time>2026-04-26T10:31:23Z</time></trkpt><trkpt lat="40.61374322761297" lon="14.554990183803572"><ele>16.5</ele><time>2026-04-26T10:31:24Z</time></trkpt><trkpt lat="40.61373281474696" lon="14.555082440477054"><ele>16.0</ele><time>2026-04-26T10:31:25Z</time></trkpt><trkpt lat="40.613728040382604" lon="14.555200375841554"><ele>15.5</ele><time>2026-04-26T10:31:26Z</time></trkpt><trkpt lat="40.613741464053426" lon="14.555289936403904"><ele>15.0</ele><time>2026-04-26T10:31:27Z</time></trkpt><trkpt lat="40.61377940514722" lon="14.555409290111815"><ele>20.75</ele><time>2026-04-26T10:31:28Z</time></trkpt><trkpt lat="40.61383633909826" lon="14.555532377287928"><ele>26.5</ele><time>2026-04-26T10:31:29Z</time></trkpt><trkpt lat="40.613898110188764" lon="14.555648175338979"><ele>32.25</ele><time>2026-04-26T10:31:30Z</time></trkpt><trkpt lat="40.613976206619654" lon="14.555798171442518"><ele>38.0</ele><time>2026-04-26T10:31:31Z</time></trkpt><trkpt lat="40.61405810538706" lon="14.555952185058501"><ele>38.0</ele><time>2026-04-26T10:31:32Z</time></trkpt><trkpt lat="40.61413680583004" lon="14.55610018411778"><ele>38.0</ele><time>2026-04-26T10:31:33Z</time></trkpt><trkpt lat="40.61420908681421" lon="14.556236111151279"><ele>38.0</ele><time>2026-04-26T10:31:34Z</time></trkpt><trkpt lat="40.614274042865375" lon="14.556358263378911"><ele>38.0</ele><time>2026-04-26T10:31:35Z</time></trkpt><trkpt lat="40.61432875038273" lon="14.556459791484855"><ele>36.5</ele><time>2026-04-26T10:31:36Z</time></trkpt><trkpt lat="40.61437150691487" lon="14.556552278716222"><ele>35.0</ele><time>2026-04-26T10:31:37Z</time></trkpt><trkpt lat="40.614413589396975" lon="14.556643307920483"><ele>33.5</ele><time>2026-04-26T10:31:38Z</time></trkpt><trkpt lat="40.614454302733016" lon="14.556732975051206"><ele>32.0</ele><time>2026-04-26T10:31:39Z</time></trkpt><trkpt lat="40.614490213426826" lon="14.5568154529388"><ele>30.499999999999996</ele><time>2026-04-26T10:31:40Z</time></trkpt><trkpt lat="40.61453024908211" lon="14.556912418586284"><ele>29.0</ele><time>2026-04-26T10:31:42Z</time></trkpt><trkpt lat="40.614564819487185" lon="14.556997418625421"><ele>34.0</ele><time>2026-04-26T10:31:44Z</time></trkpt><trkpt lat="40.61461532342413" lon="14.55712159525877"><ele>39.0</ele><time>2026-04-26T10:31:46Z</time></trkpt><trkpt lat="40.61464938359199" lon="14.557205340748814"><ele>44.0</ele><time>2026-04-26T10:31:47Z</time></trkpt><trkpt lat="40.614685458873005" lon="14.557294040900567"><ele>49.0</ele><time>2026-04-26T10:31:48Z</time></trkpt><trkpt lat="40.61472664342829" lon="14.557395303492347"><ele>54.00000000000001</ele><time>2026-04-26T10:31:49Z</time></trkpt><trkpt lat="40.614768982815335" lon="14.557503402004388"><ele>59.0</ele><time>2026-04-26T10:31:50Z</time></trkpt><trkpt lat="40.614808806908826" lon="14.55761915919378"><ele>59.00000000000001</ele><time>2026-04-26T10:31:51Z</time></trkpt><trkpt lat="40.61484596501446" lon="14.55774368694778"><ele>59.0</ele><time>2026-04-26T10:31:52Z</time></trkpt><trkpt lat="40.61488152293216" lon="14.557866639041709"><ele>59.0</ele><time>2026-04-26T10:31:53Z</time></trkpt><trkpt lat="40.61491361077694" lon="14.557977592328673"><ele>59.0</ele><time>2026-04-26T10:31:54Z</time></trkpt><trkpt lat="40.61494068801621" lon="14.558071412007411"><ele>59.00000000000001</ele><time>2026-04-26T10:31:55Z</time></trkpt><trkpt lat="40.61496307810553" lon="14.558149696859227"><ele>59.0</ele><time>2026-04-26T10:31:56Z</time></trkpt><trkpt lat="40.61498625992298" lon="14.558230749908894"><ele>58.16666666666667</ele><time>2026-04-26T10:31:57Z</time></trkpt><trkpt lat="40.615013893645155" lon="14.558327368622772"><ele>57.333333333333336</ele><time>2026-04-26T10:31:58Z</time></trkpt><trkpt lat="40.61504249064021" lon="14.55842735533642"><ele>56.5</ele><time>2026-04-26T10:31:59Z</time></trkpt><trkpt lat="40.61506959440649" lon="14.558522121106476"><ele>55.66666666666667</ele><time>2026-04-26T10:32:00Z</time></trkpt><trkpt lat="40.61509643266527" lon="14.558615958561763"><ele>54.833333333333336</ele><time>2026-04-26T10:32:01Z</time></trkpt><trkpt lat="40.61512642129715" lon="14.558720810996338"><ele>54.0</ele><time>2026-04-26T10:32:02Z</time></trkpt><trkpt lat="40.61516066118448" lon="14.558840099872462"><ele>50.25</ele><time>2026-04-26T10:32:03Z</time></trkpt><trkpt lat="40.61519966447009" lon="14.558975444767572"><ele>46.5</ele><time>2026-04-26T10:32:04Z</time></trkpt><trkpt lat="40.61524062210728" lon="14.559117571433402"><ele>42.75</ele><time>2026-04-26T10:32:05Z</time></trkpt><trkpt lat="40.61528273410397" lon="14.559263703840822"><ele>39.0</ele><time>2026-04-26T10:32:06Z</time></trkpt><trkpt lat="40.61532510454514" lon="14.55941073306208"><ele>39.0</ele><time>2026-04-26T10:32:07Z</time></trkpt><trkpt lat="40.6153662812626" lon="14.55955131978149"><ele>39.0</ele><time>2026-04-26T10:32:08Z</time></trkpt><trkpt lat="40.61541846692221" lon="14.559674897009934"><ele>39.0</ele><time>2026-04-26T10:32:09Z</time></trkpt><trkpt lat="40.61544336160609" lon="14.55980720765485"><ele>39.0</ele><time>2026-04-26T10:32:10Z</time></trkpt><trkpt lat="40.61543446152696" lon="14.55993713364943"><ele>39.0</ele><time>2026-04-26T10:32:11Z</time></trkpt><trkpt lat="40.61543031782023" lon="14.560058983864865"><ele>39.0</ele><time>2026-04-26T10:32:12Z</time></trkpt><trkpt lat="40.615415451103466" lon="14.56017433699217"><ele>39.0</ele><time>2026-04-26T10:32:13Z</time></trkpt><trkpt lat="40.615392314780436" lon="14.560294256947703"><ele>39.0</ele><time>2026-04-26T10:32:14Z</time></trkpt><trkpt lat="40.61536511113716" lon="14.5604134031193"><ele>39.0</ele><time>2026-04-26T10:32:15Z</time></trkpt><trkpt lat="40.61532975970482" lon="14.560529645841328"><ele>39.0</ele><time>2026-04-26T10:32:16Z</time></trkpt><trkpt lat="40.615281569465914" lon="14.56064172885631"><ele>39.0</ele><time>2026-04-26T10:32:17.001Z</time></trkpt><trkpt lat="40.61522904703599" lon="14.560748522980775"><ele>39.0</ele><time>2026-04-26T10:32:18.001Z</time></trkpt><trkpt lat="40.615173033294205" lon="14.560853626554279"><ele>39.0</ele><time>2026-04-26T10:32:19.001Z</time></trkpt><trkpt lat="40.61510987269648" lon="14.560937732641628"><ele>39.0</ele><time>2026-04-26T10:32:20.001Z</time></trkpt><trkpt lat="40.61503760821146" lon="14.561009934884046"><ele>39.0</ele><time>2026-04-26T10:32:21.001Z</time></trkpt><trkpt lat="40.61498390112595" lon="14.561102612037578"><ele>39.0</ele><time>2026-04-26T10:32:22.001Z</time></trkpt><trkpt lat="40.614941843237595" lon="14.561204431479979"><ele>39.0</ele><time>2026-04-26T10:32:23.001Z</time></trkpt><trkpt lat="40.61490148170041" lon="14.561304055976585"><ele>39.0</ele><time>2026-04-26T10:32:24.001Z</time></trkpt><trkpt lat="40.61486245295516" lon="14.561404691896286"><ele>39.0</ele><time>2026-04-26T10:32:25.001Z</time></trkpt><trkpt lat="40.61483207004678" lon="14.56149090992118"><ele>39.0</ele><time>2026-04-26T10:32:26.001Z</time></trkpt><trkpt lat="40.61480580533199" lon="14.561653939441683"><ele>32.5</ele><time>2026-04-26T10:32:28.001Z</time></trkpt><trkpt lat="40.61483836046156" lon="14.56175489548259"><ele>26.0</ele><time>2026-04-26T10:32:29.001Z</time></trkpt><trkpt lat="40.614911768582715" lon="14.56181878290595"><ele>19.5</ele><time>2026-04-26T10:32:30.001Z</time></trkpt><trkpt lat="40.61496977167694" lon="14.561904177477764"><ele>13.0</ele><time>2026-04-26T10:32:31.001Z</time></trkpt><trkpt lat="40.61503765253247" lon="14.561972557455112"><ele>6.5</ele><time>2026-04-26T10:32:32.001Z</time></trkpt><trkpt lat="40.61510599068398" lon="14.562041398093106"><ele>0.0</ele><time>2026-04-26T10:32:33.001Z</time></trkpt><trkpt lat="40.61517259697634" lon="14.562109232601149"><ele>0.0</ele><time>2026-04-26T10:32:34.001Z</time></trkpt><trkpt lat="40.61523488052611" lon="14.562173564414366"><ele>0.0</ele><time>2026-04-26T10:32:35.001Z</time></trkpt><trkpt lat="40.615304710697984" lon="14.562245691035145"><ele>0.0</ele><time>2026-04-26T10:32:36.001Z</time></trkpt><trkpt lat="40.615372769202295" lon="14.56231598772723"><ele>0.0</ele><time>2026-04-26T10:32:37.001Z</time></trkpt><trkpt lat="40.615439592140405" lon="14.562379371625942"><ele>0.0</ele><time>2026-04-26T10:32:38.001Z</time></trkpt><trkpt lat="40.61550744473772" lon="14.562446034021615"><ele>0.0</ele><time>2026-04-26T10:32:39.001Z</time></trkpt><trkpt lat="40.615535011571396" lon="14.562568361053653"><ele>16.0</ele><time>2026-04-26T10:32:40.001Z</time></trkpt><trkpt lat="40.6155725867166" lon="14.562702861332989"><ele>32.0</ele><time>2026-04-26T10:32:41.001Z</time></trkpt><trkpt lat="40.61560043814049" lon="14.562819459191262"><ele>48.0</ele><time>2026-04-26T10:32:42.001Z</time></trkpt><trkpt lat="40.615633626985215" lon="14.56295840174442"><ele>64.0</ele><time>2026-04-26T10:32:43.001Z</time></trkpt><trkpt lat="40.615671470888174" lon="14.5631148999747"><ele>80.0</ele><time>2026-04-26T10:32:44.001Z</time></trkpt><trkpt lat="40.61571627313263" lon="14.563269252864114"><ele>80.0</ele><time>2026-04-26T10:32:45.001Z</time></trkpt><trkpt lat="40.6157741465557" lon="14.563410486202006"><ele>80.0</ele><time>2026-04-26T10:32:46.001Z</time></trkpt><trkpt lat="40.61583023089255" lon="14.563542888462393"><ele>80.0</ele><time>2026-04-26T10:32:47.001Z</time></trkpt><trkpt lat="40.61588249584199" lon="14.563647967697289"><ele>80.0</ele><time>2026-04-26T10:32:48.001Z</time></trkpt><trkpt lat="40.61586971718671" lon="14.56376324429294"><ele>80.0</ele><time>2026-04-26T10:32:49.001Z</time></trkpt><trkpt lat="40.61586002614155" lon="14.563863523287981"><ele>76.5</ele><time>2026-04-26T10:32:50Z</time></trkpt><trkpt lat="40.61584649804884" lon="14.563963960543447"><ele>73.0</ele><time>2026-04-26T10:32:51Z</time></trkpt><trkpt lat="40.61583805748136" lon="14.564057553631136"><ele>69.5</ele><time>2026-04-26T10:32:52Z</time></trkpt><trkpt lat="40.61587445258234" lon="14.564218643892348"><ele>66.0</ele><time>2026-04-26T10:32:54Z</time></trkpt><trkpt lat="40.61592324958769" lon="14.564300829580219"><ele>62.50000000000001</ele><time>2026-04-26T10:32:55Z</time></trkpt><trkpt lat="40.615966978735095" lon="14.564392702703591"><ele>59.0</ele><time>2026-04-26T10:32:56Z</time></trkpt><trkpt lat="40.616019937858994" lon="14.564469097384734"><ele>59.0</ele><time>2026-04-26T10:32:57Z</time></trkpt><trkpt lat="40.61608028059721" lon="14.564525516833898"><ele>59.00000000000001</ele><time>2026-04-26T10:32:58Z</time></trkpt><trkpt lat="40.61614077550468" lon="14.56463473367081"><ele>59.00000000000001</ele><time>2026-04-26T10:33:00Z</time></trkpt><trkpt lat="40.616127163895435" lon="14.564773455449146"><ele>59.0</ele><time>2026-04-26T10:33:02Z</time></trkpt><trkpt lat="40.61607868170805" lon="14.564863713920595"><ele>59.0</ele><time>2026-04-26T10:33:03Z</time></trkpt><trkpt lat="40.616010820795005" lon="14.56494474822256"><ele>59.0</ele><time>2026-04-26T10:33:04Z</time></trkpt><trkpt lat="40.61594163550417" lon="14.56503575767238"><ele>59.00000000000001</ele><time>2026-04-26T10:33:05Z</time></trkpt><trkpt lat="40.61587808950807" lon="14.56513645603255"><ele>59.00000000000001</ele><time>2026-04-26T10:33:06Z</time></trkpt><trkpt lat="40.61580155018689" lon="14.565209503656952"><ele>59.0</ele><time>2026-04-26T10:33:07Z</time></trkpt><trkpt lat="40.61571720948886" lon="14.565254540893019"><ele>59.0</ele><time>2026-04-26T10:33:08Z</time></trkpt><trkpt lat="40.61565423693266" lon="14.565327291163566"><ele>59.00000000000001</ele><time>2026-04-26T10:33:09Z</time></trkpt><trkpt lat="40.61559578461071" lon="14.565389744168028"><ele>59.0</ele><time>2026-04-26T10:33:10Z</time></trkpt><trkpt lat="40.61552891576509" lon="14.565457746578307"><ele>59.0</ele><time>2026-04-26T10:33:11Z</time></trkpt><trkpt lat="40.61548622346237" lon="14.565567188453981"><ele>59.0</ele><time>2026-04-26T10:33:12Z</time></trkpt><trkpt lat="40.61545386630351" lon="14.565669517965267"><ele>59.00000000000001</ele><time>2026-04-26T10:33:13Z</time></trkpt><trkpt lat="40.61542395786969" lon="14.565767477965144"><ele>59.0</ele><time>2026-04-26T10:33:14Z</time></trkpt><trkpt lat="40.615410154447154" lon="14.565857110388738"><ele>53.400000000000006</ele><time>2026-04-26T10:33:15Z</time></trkpt><trkpt lat="40.61534580955635" lon="14.565961034505293"><ele>47.800000000000004</ele><time>2026-04-26T10:33:17Z</time></trkpt><trkpt lat="40.615270775452935" lon="14.566055407926248"><ele>42.2</ele><time>2026-04-26T10:33:19Z</time></trkpt><trkpt lat="40.61514759986214" lon="14.566078871837473"><ele>36.6</ele><time>2026-04-26T10:33:21Z</time></trkpt><trkpt lat="40.615093361789455" lon="14.566124682135651"><ele>31.0</ele><time>2026-04-26T10:33:22Z</time></trkpt><trkpt lat="40.615001649817685" lon="14.566193881545153"><ele>30.333333333333336</ele><time>2026-04-26T10:33:24Z</time></trkpt><trkpt lat="40.614941962041435" lon="14.56629950515308"><ele>29.666666666666668</ele><time>2026-04-26T10:33:26Z</time></trkpt><trkpt lat="40.61488272138649" lon="14.566376482341047"><ele>29.0</ele><time>2026-04-26T10:33:28Z</time></trkpt><trkpt lat="40.61484181998783" lon="14.566457203295174"><ele>28.333333333333336</ele><time>2026-04-26T10:33:31Z</time></trkpt><trkpt lat="40.61481169376938" lon="14.566537268884352"><ele>27.666666666666668</ele><time>2026-04-26T10:33:35Z</time></trkpt><trkpt lat="40.614792460694616" lon="14.566634319527303"><ele>27.0</ele><time>2026-04-26T10:33:38Z</time></trkpt><trkpt lat="40.61483341847651" lon="14.566728435796213"><ele>27.0</ele><time>2026-04-26T10:33:42Z</time></trkpt><trkpt lat="40.614898991654" lon="14.566786286054342"><ele>27.0</ele><time>2026-04-26T10:33:52Z</time></trkpt><trkpt lat="40.61496004391955" lon="14.566827095410504"><ele>27.0</ele><time>2026-04-26T10:33:56Z</time></trkpt><trkpt lat="40.61501699189927" lon="14.56686441977757"><ele>27.0</ele><time>2026-04-26T10:33:59Z</time></trkpt><trkpt lat="40.615081217655906" lon="14.566910097037676"><ele>27.0</ele><time>2026-04-26T10:34:02Z</time></trkpt><trkpt lat="40.61514057465817" lon="14.566952311643256"><ele>27.0</ele><time>2026-04-26T10:34:04Z</time></trkpt><trkpt lat="40.61522084391021" lon="14.567009399008551"><ele>27.0</ele><time>2026-04-26T10:34:06Z</time></trkpt><trkpt lat="40.615311952606426" lon="14.567070645256425"><ele>40.5</ele><time>2026-04-26T10:34:08Z</time></trkpt><trkpt lat="40.61539514501658" lon="14.5671240976215"><ele>54.0</ele><time>2026-04-26T10:34:10Z</time></trkpt><trkpt lat="40.61546873712169" lon="14.567167079771892"><ele>67.5</ele><time>2026-04-26T10:34:12Z</time></trkpt><trkpt lat="40.615535328398074" lon="14.567205157286308"><ele>81.0</ele><time>2026-04-26T10:34:14Z</time></trkpt><trkpt lat="40.615562665381205" lon="14.567341842543268"><ele>94.5</ele><time>2026-04-26T10:34:17Z</time></trkpt><trkpt lat="40.61555584422846" lon="14.567437594000147"><ele>108.0</ele><time>2026-04-26T10:34:18Z</time></trkpt><trkpt lat="40.61552536846242" lon="14.567534574801172"><ele>108.0</ele><time>2026-04-26T10:34:19Z</time></trkpt><trkpt lat="40.61547659500673" lon="14.56761730855162"><ele>108.0</ele><time>2026-04-26T10:34:20.001Z</time></trkpt><trkpt lat="40.615421821065425" lon="14.567694917962982"><ele>108.0</ele><time>2026-04-26T10:34:21.001Z</time></trkpt><trkpt lat="40.615377597084425" lon="14.567757364216316"><ele>108.0</ele><time>2026-04-26T10:34:22.001Z</time></trkpt><trkpt lat="40.61532985533991" lon="14.567907501148765"><ele>108.0</ele><time>2026-04-26T10:34:24.001Z</time></trkpt><trkpt lat="40.61534313517363" lon="14.567989391769057"><ele>108.0</ele><time>2026-04-26T10:34:25.001Z</time></trkpt><trkpt lat="40.61536523770146" lon="14.568071840101231"><ele>104.33333333333333</ele><time>2026-04-26T10:34:26.001Z</time></trkpt><trkpt lat="40.61543684112195" lon="14.568135551698076"><ele>100.66666666666667</ele><time>2026-04-26T10:34:27.001Z</time></trkpt><trkpt lat="40.615506022999625" lon="14.568187591725069"><ele>97.0</ele><time>2026-04-26T10:34:28.001Z</time></trkpt><trkpt lat="40.615575407523814" lon="14.568228582510354"><ele>93.33333333333334</ele><time>2026-04-26T10:34:29.001Z</time></trkpt><trkpt lat="40.61565091420396" lon="14.568234291149208"><ele>89.66666666666667</ele><time>2026-04-26T10:34:30.001Z</time></trkpt><trkpt lat="40.61572005367473" lon="14.568247195584847"><ele>86.0</ele><time>2026-04-26T10:34:31.001Z</time></trkpt><trkpt lat="40.61578390212061" lon="14.56826615909708"><ele>86.0</ele><time>2026-04-26T10:34:32.001Z</time></trkpt><trkpt lat="40.615874288428614" lon="14.568320401875308"><ele>86.0</ele><time>2026-04-26T10:34:34.001Z</time></trkpt><trkpt lat="40.61592418472296" lon="14.568451460718439"><ele>86.0</ele><time>2026-04-26T10:34:36.001Z</time></trkpt><trkpt lat="40.61588711592775" lon="14.568615150681845"><ele>86.0</ele><time>2026-04-26T10:34:38.001Z</time></trkpt><trkpt lat="40.61587779877365" lon="14.568716062070107"><ele>86.0</ele><time>2026-04-26T10:34:39.001Z</time></trkpt><trkpt lat="40.61586195734199" lon="14.568805162890682"><ele>87.8</ele><time>2026-04-26T10:34:40.001Z</time></trkpt><trkpt lat="40.615864264761" lon="14.568962177145867"><ele>89.6</ele><time>2026-04-26T10:34:42.001Z</time></trkpt><trkpt lat="40.61589490785132" lon="14.569053849588883"><ele>91.4</ele><time>2026-04-26T10:34:43.001Z</time></trkpt><trkpt lat="40.615928560605305" lon="14.569151935711568"><ele>93.2</ele><time>2026-04-26T10:34:44.001Z</time></trkpt><trkpt lat="40.6159672187228" lon="14.569259980576563"><ele>95.0</ele><time>2026-04-26T10:34:45.001Z</time></trkpt><trkpt lat="40.616008891817366" lon="14.569376445187588"><ele>95.0</ele><time>2026-04-26T10:34:46.001Z</time></trkpt><trkpt lat="40.616052165220665" lon="14.569501693356171"><ele>95.0</ele><time>2026-04-26T10:34:47.001Z</time></trkpt><trkpt lat="40.61609445245628" lon="14.569624087212413"><ele>95.0</ele><time>2026-04-26T10:34:48.001Z</time></trkpt><trkpt lat="40.61613682490665" lon="14.569746727708912"><ele>95.0</ele><time>2026-04-26T10:34:49.001Z</time></trkpt><trkpt lat="40.61616537654335" lon="14.569863883057913"><ele>95.0</ele><time>2026-04-26T10:34:50.001Z</time></trkpt><trkpt lat="40.61616754048503" lon="14.569980396828953"><ele>95.0</ele><time>2026-04-26T10:34:51.001Z</time></trkpt><trkpt lat="40.61615747852298" lon="14.570100336151858"><ele>95.0</ele><time>2026-04-26T10:34:52.001Z</time></trkpt><trkpt lat="40.61614538938912" lon="14.570215226143038"><ele>95.0</ele><time>2026-04-26T10:34:53.001Z</time></trkpt><trkpt lat="40.616125159758525" lon="14.570313150866756"><ele>95.0</ele><time>2026-04-26T10:34:54.001Z</time></trkpt><trkpt lat="40.616099337484904" lon="14.57042043740668"><ele>95.0</ele><time>2026-04-26T10:34:55Z</time></trkpt><trkpt lat="40.616030229745704" lon="14.570508730959583"><ele>95.0</ele><time>2026-04-26T10:34:56Z</time></trkpt><trkpt lat="40.615943767783854" lon="14.570584404923938"><ele>95.0</ele><time>2026-04-26T10:34:57Z</time></trkpt><trkpt lat="40.61585974168601" lon="14.57066952587433"><ele>95.0</ele><time>2026-04-26T10:34:58Z</time></trkpt><trkpt lat="40.61578838397271" lon="14.570759239595834"><ele>95.0</ele><time>2026-04-26T10:34:59Z</time></trkpt><trkpt lat="40.6157336395935" lon="14.570849999597003"><ele>95.0</ele><time>2026-04-26T10:35:00Z</time></trkpt><trkpt lat="40.615704247230134" lon="14.570958743092582"><ele>95.0</ele><time>2026-04-26T10:35:01Z</time></trkpt><trkpt lat="40.615666458993374" lon="14.571047766163636"><ele>95.0</ele><time>2026-04-26T10:35:02Z</time></trkpt><trkpt lat="40.615652045120235" lon="14.571153982430365"><ele>95.0</ele><time>2026-04-26T10:35:03Z</time></trkpt><trkpt lat="40.615641577423595" lon="14.571264074650687"><ele>95.0</ele><time>2026-04-26T10:35:04Z</time></trkpt><trkpt lat="40.61563364170919" lon="14.571383321379495"><ele>95.0</ele><time>2026-04-26T10:35:05Z</time></trkpt><trkpt lat="40.61562745019703" lon="14.57149618498783"><ele>95.0</ele><time>2026-04-26T10:35:06Z</time></trkpt><trkpt lat="40.61561979332555" lon="14.57162697382137"><ele>95.0</ele><time>2026-04-26T10:35:07Z</time></trkpt><trkpt lat="40.615611632034664" lon="14.571752597628969"><ele>95.0</ele><time>2026-04-26T10:35:08Z</time></trkpt><trkpt lat="40.615600988117514" lon="14.571879064778521"><ele>95.0</ele><time>2026-04-26T10:35:09Z</time></trkpt><trkpt lat="40.615578165056334" lon="14.571995198873491"><ele>95.0</ele><time>2026-04-26T10:35:10Z</time></trkpt><trkpt lat="40.61553909630356" lon="14.572110587454523"><ele>95.0</ele><time>2026-04-26T10:35:11Z</time></trkpt><trkpt lat="40.615491788631424" lon="14.572219903085879"><ele>95.0</ele><time>2026-04-26T10:35:12Z</time></trkpt><trkpt lat="40.61544570175921" lon="14.572325420212433"><ele>94.0</ele><time>2026-04-26T10:35:13Z</time></trkpt><trkpt lat="40.615400713083574" lon="14.572428422986315"><ele>93.0</ele><time>2026-04-26T10:35:14Z</time></trkpt><trkpt lat="40.61535689800352" lon="14.572528738784928"><ele>92.0</ele><time>2026-04-26T10:35:15Z</time></trkpt><trkpt lat="40.61531517056091" lon="14.572627094041225"><ele>91.0</ele><time>2026-04-26T10:35:16Z</time></trkpt><trkpt lat="40.61527333579292" lon="14.572728075436082"><ele>90.0</ele><time>2026-04-26T10:35:17Z</time></trkpt><trkpt lat="40.61523291992833" lon="14.57282563185194"><ele>89.0</ele><time>2026-04-26T10:35:18Z</time></trkpt><trkpt lat="40.61519559614279" lon="14.572915724567535"><ele>89.0</ele><time>2026-04-26T10:35:19Z</time></trkpt><trkpt lat="40.61516203663932" lon="14.572988742887786"><ele>89.0</ele><time>2026-04-26T10:35:20Z</time></trkpt><trkpt lat="40.61504493091675" lon="14.573038799601347"><ele>89.0</ele><time>2026-04-26T10:35:22Z</time></trkpt><trkpt lat="40.614970219006466" lon="14.573007204310532"><ele>89.0</ele><time>2026-04-26T10:35:23Z</time></trkpt><trkpt lat="40.614898350845884" lon="14.572975249750561"><ele>89.0</ele><time>2026-04-26T10:35:24Z</time></trkpt><trkpt lat="40.6148171713745" lon="14.572954004254724"><ele>89.0</ele><time>2026-04-26T10:35:25Z</time></trkpt><trkpt lat="40.61473436861864" lon="14.572935809856206"><ele>89.0</ele><time>2026-04-26T10:35:26Z</time></trkpt><trkpt lat="40.614646196635235" lon="14.572911543758023"><ele>89.0</ele><time>2026-04-26T10:35:27Z</time></trkpt><trkpt lat="40.6145637186222" lon="14.572890306230093"><ele>89.0</ele><time>2026-04-26T10:35:28Z</time></trkpt><trkpt lat="40.614500399768204" lon="14.572899621103712"><ele>89.0</ele><time>2026-04-26T10:35:29Z</time></trkpt><trkpt lat="40.61442395147467" lon="14.572904989138458"><ele>89.0</ele><time>2026-04-26T10:35:30Z</time></trkpt><trkpt lat="40.61434528089609" lon="14.572940062064822"><ele>89.0</ele><time>2026-04-26T10:35:31Z</time></trkpt><trkpt lat="40.6142757907575" lon="14.572986269384291"><ele>86.0</ele><time>2026-04-26T10:35:32Z</time></trkpt><trkpt lat="40.61420955423573" lon="14.573031572955003"><ele>83.0</ele><time>2026-04-26T10:35:33Z</time></trkpt><trkpt lat="40.61415432606943" lon="14.573082960570712"><ele>80.0</ele><time>2026-04-26T10:35:34Z</time></trkpt><trkpt lat="40.614108122916434" lon="14.573190515572472"><ele>77.0</ele><time>2026-04-26T10:35:36Z</time></trkpt><trkpt lat="40.614087626667136" lon="14.573282242333816"><ele>74.0</ele><time>2026-04-26T10:35:38Z</time></trkpt><trkpt lat="40.61406859062414" lon="14.573384507397405"><ele>71.0</ele><time>2026-04-26T10:35:40Z</time></trkpt><trkpt lat="40.6139950863296" lon="14.573518717864737"><ele>71.0</ele><time>2026-04-26T10:35:42Z</time></trkpt><trkpt lat="40.61394842040791" lon="14.573659400318386"><ele>71.0</ele><time>2026-04-26T10:35:44Z</time></trkpt><trkpt lat="40.61395169392788" lon="14.57374595310079"><ele>71.0</ele><time>2026-04-26T10:35:45Z</time></trkpt><trkpt lat="40.6139767602186" lon="14.573846102240568"><ele>71.0</ele><time>2026-04-26T10:35:46Z</time></trkpt><trkpt lat="40.61403258447897" lon="14.573920704264273"><ele>71.0</ele><time>2026-04-26T10:35:47Z</time></trkpt><trkpt lat="40.61408896868105" lon="14.573997616079723"><ele>71.0</ele><time>2026-04-26T10:35:48Z</time></trkpt><trkpt lat="40.61414654653382" lon="14.574057065847065"><ele>71.83333333333334</ele><time>2026-04-26T10:35:49Z</time></trkpt><trkpt lat="40.614206091797385" lon="14.574124683577613"><ele>72.66666666666667</ele><time>2026-04-26T10:35:50Z</time></trkpt><trkpt lat="40.61426318938571" lon="14.57420005880433"><ele>73.5</ele><time>2026-04-26T10:35:51Z</time></trkpt><trkpt lat="40.61431850574608" lon="14.574278092687475"><ele>74.33333333333333</ele><time>2026-04-26T10:35:52Z</time></trkpt><trkpt lat="40.614341609116" lon="14.574378379708698"><ele>75.16666666666666</ele><time>2026-04-26T10:35:53Z</time></trkpt><trkpt lat="40.614349544586034" lon="14.574483424266852"><ele>76.0</ele><time>2026-04-26T10:35:54Z</time></trkpt><trkpt lat="40.61436680375981" lon="14.574594694140975"><ele>80.16666666666666</ele><time>2026-04-26T10:35:55Z</time></trkpt><trkpt lat="40.61436631985854" lon="14.574701997730454"><ele>84.33333333333333</ele><time>2026-04-26T10:35:56Z</time></trkpt><trkpt lat="40.6143578518527" lon="14.574802022206681"><ele>88.5</ele><time>2026-04-26T10:35:57Z</time></trkpt><trkpt lat="40.61437587703255" lon="14.574904244375174"><ele>92.66666666666666</ele><time>2026-04-26T10:35:58Z</time></trkpt><trkpt lat="40.614408206017316" lon="14.57500218775787"><ele>96.83333333333333</ele><time>2026-04-26T10:35:59Z</time></trkpt><trkpt lat="40.61444701871363" lon="14.575094010595977"><ele>101.0</ele><time>2026-04-26T10:36:00Z</time></trkpt><trkpt lat="40.614500165004245" lon="14.575170760953148"><ele>101.0</ele><time>2026-04-26T10:36:01Z</time></trkpt><trkpt lat="40.61454519729263" lon="14.575252674651086"><ele>101.0</ele><time>2026-04-26T10:36:02Z</time></trkpt><trkpt lat="40.614592265685665" lon="14.575329543223873"><ele>101.0</ele><time>2026-04-26T10:36:03Z</time></trkpt><trkpt lat="40.61463888499072" lon="14.575397515446298"><ele>101.0</ele><time>2026-04-26T10:36:04Z</time></trkpt><trkpt lat="40.6146931804838" lon="14.575446809325307"><ele>101.0</ele><time>2026-04-26T10:36:05Z</time></trkpt><trkpt lat="40.61475679372891" lon="14.575482532961805"><ele>101.0</ele><time>2026-04-26T10:36:06Z</time></trkpt><trkpt lat="40.61482552652435" lon="14.57550005294208"><ele>101.0</ele><time>2026-04-26T10:36:07Z</time></trkpt><trkpt lat="40.614892538626556" lon="14.575502016858012"><ele>101.0</ele><time>2026-04-26T10:36:08Z</time></trkpt><trkpt lat="40.61496131715724" lon="14.575480993519317"><ele>101.0</ele><time>2026-04-26T10:36:09Z</time></trkpt><trkpt lat="40.61503184800467" lon="14.575451573188584"><ele>101.0</ele><time>2026-04-26T10:36:10Z</time></trkpt><trkpt lat="40.6151036566998" lon="14.575422437221233"><ele>101.0</ele><time>2026-04-26T10:36:11Z</time></trkpt><trkpt lat="40.61517602160566" lon="14.57539520320923"><ele>101.0</ele><time>2026-04-26T10:36:12Z</time></trkpt><trkpt lat="40.6152414933116" lon="14.575360784544356"><ele>101.0</ele><time>2026-04-26T10:36:13Z</time></trkpt><trkpt lat="40.61530852729786" lon="14.575332922962458"><ele>101.0</ele><time>2026-04-26T10:36:14Z</time></trkpt><trkpt lat="40.61537614968108" lon="14.575304613901631"><ele>101.28571428571428</ele><time>2026-04-26T10:36:15Z</time></trkpt><trkpt lat="40.61545126953744" lon="14.575286820764767"><ele>101.57142857142857</ele><time>2026-04-26T10:36:16Z</time></trkpt><trkpt lat="40.61552688395777" lon="14.575279355183243"><ele>101.85714285714286</ele><time>2026-04-26T10:36:17Z</time></trkpt><trkpt lat="40.61559856708822" lon="14.575296300567281"><ele>102.14285714285714</ele><time>2026-04-26T10:36:18Z</time></trkpt><trkpt lat="40.61567501441356" lon="14.575279143110587"><ele>102.42857142857143</ele><time>2026-04-26T10:36:19Z</time></trkpt><trkpt lat="40.615743278747175" lon="14.575280235457901"><ele>102.71428571428571</ele><time>2026-04-26T10:36:20Z</time></trkpt><trkpt lat="40.61581670636562" lon="14.575276468521407"><ele>103.0</ele><time>2026-04-26T10:36:21Z</time></trkpt><trkpt lat="40.615894589242764" lon="14.575279151503283"><ele>103.00000000000001</ele><time>2026-04-26T10:36:22Z</time></trkpt><trkpt lat="40.615972597650604" lon="14.575294949257096"><ele>103.0</ele><time>2026-04-26T10:36:23Z</time></trkpt><trkpt lat="40.61605141972565" lon="14.575321638500983"><ele>103.0</ele><time>2026-04-26T10:36:24Z</time></trkpt><trkpt lat="40.61611828811128" lon="14.575359041031335"><ele>103.0</ele><time>2026-04-26T10:36:25Z</time></trkpt><trkpt lat="40.616233384105335" lon="14.575396810256894"><ele>103.00000000000001</ele><time>2026-04-26T10:36:27Z</time></trkpt><trkpt lat="40.61630041118079" lon="14.57537747456716"><ele>103.0</ele><time>2026-04-26T10:36:28Z</time></trkpt><trkpt lat="40.61637287384009" lon="14.575349210960326"><ele>102.28571428571428</ele><time>2026-04-26T10:36:29Z</time></trkpt><trkpt lat="40.61644472134209" lon="14.575320869522407"><ele>101.57142857142857</ele><time>2026-04-26T10:36:30Z</time></trkpt><trkpt lat="40.616517094448184" lon="14.5752923753352"><ele>100.85714285714286</ele><time>2026-04-26T10:36:31Z</time></trkpt><trkpt lat="40.61658063280832" lon="14.5752668410325"><ele>100.14285714285714</ele><time>2026-04-26T10:36:32Z</time></trkpt><trkpt lat="40.61664435692284" lon="14.575236475809438"><ele>99.42857142857143</ele><time>2026-04-26T10:36:33Z</time></trkpt><trkpt lat="40.61671133187008" lon="14.575211227781665"><ele>98.71428571428571</ele><time>2026-04-26T10:36:34Z</time></trkpt><trkpt lat="40.616777779855695" lon="14.575189274640753"><ele>98.0</ele><time>2026-04-26T10:36:35Z</time></trkpt><trkpt lat="40.616843006722064" lon="14.57516938879117"><ele>98.0</ele><time>2026-04-26T10:36:36Z</time></trkpt><trkpt lat="40.61691239064457" lon="14.575142515430372"><ele>98.0</ele><time>2026-04-26T10:36:37Z</time></trkpt><trkpt lat="40.616974377816284" lon="14.575099514988706"><ele>98.0</ele><time>2026-04-26T10:36:38Z</time></trkpt><trkpt lat="40.61703102856472" lon="14.575043990490544"><ele>98.0</ele><time>2026-04-26T10:36:39.001Z</time></trkpt><trkpt lat="40.61709624779432" lon="14.5749942922236"><ele>98.0</ele><time>2026-04-26T10:36:40.001Z</time></trkpt><trkpt lat="40.61716612438004" lon="14.574973402867874"><ele>98.0</ele><time>2026-04-26T10:36:41.001Z</time></trkpt><trkpt lat="40.61724924046795" lon="14.574976386933589"><ele>98.0</ele><time>2026-04-26T10:36:42.001Z</time></trkpt><trkpt lat="40.61732740141668" lon="14.57498167545804"><ele>101.0</ele><time>2026-04-26T10:36:43.001Z</time></trkpt><trkpt lat="40.617405591092805" lon="14.57498886288214"><ele>104.0</ele><time>2026-04-26T10:36:44.001Z</time></trkpt><trkpt lat="40.61746944303286" lon="14.574929821826666"><ele>107.0</ele><time>2026-04-26T10:36:45.001Z</time></trkpt><trkpt lat="40.61753516970457" lon="14.574918847684115"><ele>110.0</ele><time>2026-04-26T10:36:46.001Z</time></trkpt><trkpt lat="40.61760390869417" lon="14.57493340103029"><ele>113.0</ele><time>2026-04-26T10:36:47.001Z</time></trkpt><trkpt lat="40.617662915111765" lon="14.5749723055687"><ele>116.0</ele><time>2026-04-26T10:36:48.001Z</time></trkpt><trkpt lat="40.61771908510162" lon="14.575046904245987"><ele>119.0</ele><time>2026-04-26T10:36:49.001Z</time></trkpt><trkpt lat="40.61777593590933" lon="14.575142495618538"><ele>118.33333333333333</ele><time>2026-04-26T10:36:50.001Z</time></trkpt><trkpt lat="40.61784414524254" lon="14.575222436002413"><ele>117.66666666666666</ele><time>2026-04-26T10:36:51.001Z</time></trkpt><trkpt lat="40.61792230594644" lon="14.57529340298187"><ele>117.0</ele><time>2026-04-26T10:36:52.001Z</time></trkpt><trkpt lat="40.61800459043636" lon="14.575350631758706"><ele>116.33333333333334</ele><time>2026-04-26T10:36:53.001Z</time></trkpt><trkpt lat="40.61808754407973" lon="14.575393009279908"><ele>115.66666666666667</ele><time>2026-04-26T10:36:54.001Z</time></trkpt><trkpt lat="40.61815329342382" lon="14.575437600381715"><ele>115.0</ele><time>2026-04-26T10:36:55.001Z</time></trkpt><trkpt lat="40.6182059738154" lon="14.575489274218006"><ele>115.0</ele><time>2026-04-26T10:36:56.001Z</time></trkpt><trkpt lat="40.618282028969006" lon="14.575617176907324"><ele>115.0</ele><time>2026-04-26T10:36:58.001Z</time></trkpt><trkpt lat="40.61829687669231" lon="14.575700641201452"><ele>115.0</ele><time>2026-04-26T10:36:59.001Z</time></trkpt><trkpt lat="40.61829190315088" lon="14.57579205807318"><ele>115.0</ele><time>2026-04-26T10:37:00.001Z</time></trkpt><trkpt lat="40.618266685089004" lon="14.575933078454952"><ele>115.0</ele><time>2026-04-26T10:37:02Z</time></trkpt><trkpt lat="40.61827155275088" lon="14.576061127975445"><ele>115.00000000000001</ele><time>2026-04-26T10:37:04Z</time></trkpt><trkpt lat="40.61834823123833" lon="14.576129492407128"><ele>115.0</ele><time>2026-04-26T10:37:06Z</time></trkpt><trkpt lat="40.61846999881625" lon="14.5761282072291"><ele>115.0</ele><time>2026-04-26T10:37:08Z</time></trkpt><trkpt lat="40.618537229223726" lon="14.576124739058928"><ele>115.0</ele><time>2026-04-26T10:37:09Z</time></trkpt><trkpt lat="40.618605037072804" lon="14.576135406644736"><ele>115.00000000000001</ele><time>2026-04-26T10:37:10Z</time></trkpt><trkpt lat="40.61867014800512" lon="14.576173579907147"><ele>115.0</ele><time>2026-04-26T10:37:11Z</time></trkpt><trkpt lat="40.61874278123182" lon="14.57622556752017"><ele>114.2</ele><time>2026-04-26T10:37:12Z</time></trkpt><trkpt lat="40.618823071679515" lon="14.576282994085336"><ele>113.4</ele><time>2026-04-26T10:37:13Z</time></trkpt><trkpt lat="40.61890259606097" lon="14.576341746855293"><ele>112.6</ele><time>2026-04-26T10:37:14Z</time></trkpt><trkpt lat="40.61898182590336" lon="14.576400282024057"><ele>111.8</ele><time>2026-04-26T10:37:15Z</time></trkpt><trkpt lat="40.61906326482709" lon="14.576458915621535"><ele>111.0</ele><time>2026-04-26T10:37:16Z</time></trkpt><trkpt lat="40.619145199773605" lon="14.576516503850447"><ele>111.0</ele><time>2026-04-26T10:37:17Z</time></trkpt><trkpt lat="40.61922454768707" lon="14.576558336367386"><ele>111.0</ele><time>2026-04-26T10:37:18Z</time></trkpt><trkpt lat="40.61929544726356" lon="14.576573500561254"><ele>111.0</ele><time>2026-04-26T10:37:19Z</time></trkpt><trkpt lat="40.61934994644588" lon="14.576623569529328"><ele>111.0</ele><time>2026-04-26T10:37:20Z</time></trkpt><trkpt lat="40.61939638977538" lon="14.576682244960857"><ele>111.0</ele><time>2026-04-26T10:37:21Z</time></trkpt><trkpt lat="40.61942469477265" lon="14.576779874380806"><ele>111.0</ele><time>2026-04-26T10:37:22Z</time></trkpt><trkpt lat="40.61944049877871" lon="14.576885916931241"><ele>111.0</ele><time>2026-04-26T10:37:23Z</time></trkpt><trkpt lat="40.61946050248063" lon="14.576988392853998"><ele>115.66666666666667</ele><time>2026-04-26T10:37:24Z</time></trkpt><trkpt lat="40.61949309709206" lon="14.577092246469801"><ele>120.33333333333334</ele><time>2026-04-26T10:37:25Z</time></trkpt><trkpt lat="40.61952936843537" lon="14.577192226299847"><ele>125.0</ele><time>2026-04-26T10:37:26Z</time></trkpt><trkpt lat="40.61957264162276" lon="14.577291824689905"><ele>129.66666666666669</ele><time>2026-04-26T10:37:27Z</time></trkpt><trkpt lat="40.61962691019548" lon="14.577393280962143"><ele>134.33333333333334</ele><time>2026-04-26T10:37:28Z</time></trkpt><trkpt lat="40.619685884388375" lon="14.577494402865726"><ele>139.0</ele><time>2026-04-26T10:37:29Z</time></trkpt><trkpt lat="40.619743374734455" lon="14.57759299028685"><ele>139.0</ele><time>2026-04-26T10:37:30Z</time></trkpt><trkpt lat="40.61979677397685" lon="14.577697328111213"><ele>139.0</ele><time>2026-04-26T10:37:31Z</time></trkpt><trkpt lat="40.61985642135381" lon="14.577800010135935"><ele>139.0</ele><time>2026-04-26T10:37:32Z</time></trkpt><trkpt lat="40.61991711213525" lon="14.577903195100268"><ele>139.0</ele><time>2026-04-26T10:37:33Z</time></trkpt><trkpt lat="40.61997531922483" lon="14.578010622477953"><ele>139.0</ele><time>2026-04-26T10:37:34Z</time></trkpt><trkpt lat="40.62003795763852" lon="14.578109499435785"><ele>132.4</ele><time>2026-04-26T10:37:35Z</time></trkpt><trkpt lat="40.620107918069266" lon="14.578198837543837"><ele>125.80000000000001</ele><time>2026-04-26T10:37:36Z</time></trkpt><trkpt lat="40.620169679600544" lon="14.578307877864193"><ele>119.19999999999999</ele><time>2026-04-26T10:37:37Z</time></trkpt><trkpt lat="40.62024443865541" lon="14.578398124353436"><ele>112.6</ele><time>2026-04-26T10:37:38Z</time></trkpt><trkpt lat="40.62032689418044" lon="14.578461260920122"><ele>106.0</ele><time>2026-04-26T10:37:39Z</time></trkpt><trkpt lat="40.62039870295082" lon="14.578546525161299"><ele>106.0</ele><time>2026-04-26T10:37:40Z</time></trkpt><trkpt lat="40.620484837677445" lon="14.578641973127521"><ele>106.0</ele><time>2026-04-26T10:37:41Z</time></trkpt><trkpt lat="40.62055750609376" lon="14.578720061530086"><ele>106.0</ele><time>2026-04-26T10:37:42Z</time></trkpt><trkpt lat="40.6206165508567" lon="14.578786711259523"><ele>106.0</ele><time>2026-04-26T10:37:43Z</time></trkpt><trkpt lat="40.62069875774249" lon="14.578894654351648"><ele>106.0</ele><time>2026-04-26T10:37:45Z</time></trkpt><trkpt lat="40.62074745815363" lon="14.578973065403307"><ele>105.00000000000001</ele><time>2026-04-26T10:37:47Z</time></trkpt><trkpt lat="40.62079566179376" lon="14.579034659221476"><ele>104.0</ele><time>2026-04-26T10:37:51Z</time></trkpt><trkpt lat="40.620853558357574" lon="14.579142557336601"><ele>103.0</ele><time>2026-04-26T10:37:53Z</time></trkpt><trkpt lat="40.620908864930065" lon="14.579191751643284"><ele>102.0</ele><time>2026-04-26T10:37:54Z</time></trkpt><trkpt lat="40.620957913525174" lon="14.579256046905002"><ele>101.00000000000001</ele><time>2026-04-26T10:37:55Z</time></trkpt><trkpt lat="40.62103848006284" lon="14.579359368130289"><ele>100.0</ele><time>2026-04-26T10:37:57Z</time></trkpt><trkpt lat="40.62111578878307" lon="14.579384296622738"><ele>102.0</ele><time>2026-04-26T10:37:59Z</time></trkpt><trkpt lat="40.621193114439016" lon="14.579339350183584"><ele>104.0</ele><time>2026-04-26T10:38:01Z</time></trkpt><trkpt lat="40.62127874465591" lon="14.579227416986358"><ele>106.0</ele><time>2026-04-26T10:38:03Z</time></trkpt><trkpt lat="40.62136054870114" lon="14.579126497789428"><ele>108.0</ele><time>2026-04-26T10:38:05Z</time></trkpt><trkpt lat="40.62145819078938" lon="14.579101277100898"><ele>110.0</ele><time>2026-04-26T10:38:07Z</time></trkpt><trkpt lat="40.62155113874765" lon="14.579153320705833"><ele>109.99999999999999</ele><time>2026-04-26T10:38:09Z</time></trkpt><trkpt lat="40.621638607370464" lon="14.57925186383333"><ele>110.0</ele><time>2026-04-26T10:38:11Z</time></trkpt><trkpt lat="40.62168808623906" lon="14.579307283954863"><ele>110.0</ele><time>2026-04-26T10:38:12Z</time></trkpt><trkpt lat="40.621742733199184" lon="14.579370368916335"><ele>110.0</ele><time>2026-04-26T10:38:13Z</time></trkpt><trkpt lat="40.621798688798904" lon="14.579433888738453"><ele>109.99999999999999</ele><time>2026-04-26T10:38:14Z</time></trkpt><trkpt lat="40.62184934440793" lon="14.579499996387094"><ele>110.0</ele><time>2026-04-26T10:38:15Z</time></trkpt><trkpt lat="40.621899160961036" lon="14.579561863582137"><ele>109.99999999999999</ele><time>2026-04-26T10:38:16Z</time></trkpt><trkpt lat="40.62195395931358" lon="14.579621693484512"><ele>110.0</ele><time>2026-04-26T10:38:17Z</time></trkpt><trkpt lat="40.622013821845975" lon="14.579681580746831"><ele>110.0</ele><time>2026-04-26T10:38:18Z</time></trkpt><trkpt lat="40.62207660063731" lon="14.57974262365168"><ele>110.0</ele><time>2026-04-26T10:38:19Z</time></trkpt><trkpt lat="40.62214027677083" lon="14.57980509560549"><ele>109.99999999999999</ele><time>2026-04-26T10:38:20Z</time></trkpt><trkpt lat="40.62219792080287" lon="14.579878396010965"><ele>110.0</ele><time>2026-04-26T10:38:21Z</time></trkpt><trkpt lat="40.62224700322265" lon="14.579966214251195"><ele>109.99999999999999</ele><time>2026-04-26T10:38:22Z</time></trkpt><trkpt lat="40.62229504954584" lon="14.58005651680657"><ele>110.0</ele><time>2026-04-26T10:38:23Z</time></trkpt><trkpt lat="40.62234418002678" lon="14.580148411241423"><ele>110.0</ele><time>2026-04-26T10:38:24Z</time></trkpt><trkpt lat="40.62239593649916" lon="14.580240417931352"><ele>110.0</ele><time>2026-04-26T10:38:25Z</time></trkpt><trkpt lat="40.622447627756245" lon="14.580337752938679"><ele>109.99999999999999</ele><time>2026-04-26T10:38:26Z</time></trkpt><trkpt lat="40.62249518985663" lon="14.580446994804957"><ele>110.0</ele><time>2026-04-26T10:38:27Z</time></trkpt><trkpt lat="40.622526424395275" lon="14.58059191764737"><ele>107.8</ele><time>2026-04-26T10:38:28Z</time></trkpt><trkpt lat="40.62254914960435" lon="14.580744534881351"><ele>105.6</ele><time>2026-04-26T10:38:29Z</time></trkpt><trkpt lat="40.6225785424673" lon="14.580876975455574"><ele>103.4</ele><time>2026-04-26T10:38:30Z</time></trkpt><trkpt lat="40.62260752925271" lon="14.58099007105593"><ele>101.2</ele><time>2026-04-26T10:38:31Z</time></trkpt><trkpt lat="40.622628989046845" lon="14.581098880757406"><ele>99.0</ele><time>2026-04-26T10:38:32Z</time></trkpt><trkpt lat="40.622651920036255" lon="14.581199294639077"><ele>101.14285714285714</ele><time>2026-04-26T10:38:33Z</time></trkpt><trkpt lat="40.62268195741715" lon="14.58128959185808"><ele>103.28571428571428</ele><time>2026-04-26T10:38:34Z</time></trkpt><trkpt lat="40.62272258150419" lon="14.581371412898537"><ele>105.42857142857142</ele><time>2026-04-26T10:38:35Z</time></trkpt><trkpt lat="40.62276747703779" lon="14.581449282484215"><ele>107.57142857142857</ele><time>2026-04-26T10:38:36Z</time></trkpt><trkpt lat="40.62281264499585" lon="14.581524944528587"><ele>109.7142857142857</ele><time>2026-04-26T10:38:37Z</time></trkpt><trkpt lat="40.622854182923575" lon="14.581602513076131"><ele>111.85714285714285</ele><time>2026-04-26T10:38:38Z</time></trkpt><trkpt lat="40.62289976409845" lon="14.58167332639338"><ele>114.0</ele><time>2026-04-26T10:38:39Z</time></trkpt><trkpt lat="40.62294772033803" lon="14.581733626876293"><ele>114.0</ele><time>2026-04-26T10:38:40Z</time></trkpt><trkpt lat="40.62304354129069" lon="14.581828962272402"><ele>114.0</ele><time>2026-04-26T10:38:42Z</time></trkpt><trkpt lat="40.62314994103766" lon="14.58193398813953"><ele>114.0</ele><time>2026-04-26T10:38:44Z</time></trkpt><trkpt lat="40.62321160714731" lon="14.581991516087896"><ele>114.0</ele><time>2026-04-26T10:38:45Z</time></trkpt><trkpt lat="40.62327747335711" lon="14.582053167898884"><ele>114.0</ele><time>2026-04-26T10:38:46Z</time></trkpt><trkpt lat="40.62334077908299" lon="14.582117515104628"><ele>113.14285714285714</ele><time>2026-04-26T10:38:47Z</time></trkpt><trkpt lat="40.62340333933405" lon="14.582179038070123"><ele>112.28571428571428</ele><time>2026-04-26T10:38:48Z</time></trkpt><trkpt lat="40.623464052466666" lon="14.582232648923332"><ele>111.42857142857142</ele><time>2026-04-26T10:38:49Z</time></trkpt><trkpt lat="40.62352105407782" lon="14.582289534684598"><ele>110.57142857142857</ele><time>2026-04-26T10:38:50Z</time></trkpt><trkpt lat="40.62357579342981" lon="14.58234775524834"><ele>109.71428571428571</ele><time>2026-04-26T10:38:51Z</time></trkpt><trkpt lat="40.6236298879192" lon="14.582401838120806"><ele>108.85714285714286</ele><time>2026-04-26T10:38:52Z</time></trkpt><trkpt lat="40.62367853047501" lon="14.58245655914734"><ele>108.0</ele><time>2026-04-26T10:38:53Z</time></trkpt><trkpt lat="40.6237695945819" lon="14.582563439170281"><ele>108.0</ele><time>2026-04-26T10:38:55Z</time></trkpt><trkpt lat="40.623864753976584" lon="14.582663002655226"><ele>108.0</ele><time>2026-04-26T10:38:57Z</time></trkpt><trkpt lat="40.62394617893488" lon="14.582653066384735"><ele>108.0</ele><time>2026-04-26T10:38:58Z</time></trkpt><trkpt lat="40.62402283692101" lon="14.58265374108868"><ele>108.0</ele><time>2026-04-26T10:38:59.001Z</time></trkpt><trkpt lat="40.624093672290094" lon="14.582677244592507"><ele>108.0</ele><time>2026-04-26T10:39:00.001Z</time></trkpt><trkpt lat="40.62415773584541" lon="14.582660051222406"><ele>108.0</ele><time>2026-04-26T10:39:01.001Z</time></trkpt><trkpt lat="40.62427318883678" lon="14.582667138132608"><ele>108.0</ele><time>2026-04-26T10:39:03.001Z</time></trkpt><trkpt lat="40.62436811762774" lon="14.582722913390825"><ele>108.0</ele><time>2026-04-26T10:39:05.001Z</time></trkpt><trkpt lat="40.624418732484514" lon="14.582870103283643"><ele>108.0</ele><time>2026-04-26T10:39:06.999Z</time></trkpt><trkpt lat="40.624418792903114" lon="14.582965267140153"><ele>108.0</ele><time>2026-04-26T10:39:07.999Z</time></trkpt><trkpt lat="40.624407780954954" lon="14.583063449019539"><ele>108.0</ele><time>2026-04-26T10:39:08.999Z</time></trkpt><trkpt lat="40.62440561285259" lon="14.583158938414583"><ele>108.0</ele><time>2026-04-26T10:39:09.999Z</time></trkpt><trkpt lat="40.624406965231444" lon="14.583242858572602"><ele>109.83333333333333</ele><time>2026-04-26T10:39:10.999Z</time></trkpt><trkpt lat="40.62445656222843" lon="14.58337867109176"><ele>111.66666666666666</ele><time>2026-04-26T10:39:12.999Z</time></trkpt><trkpt lat="40.62455784619717" lon="14.583467005782436"><ele>113.5</ele><time>2026-04-26T10:39:14.999Z</time></trkpt><trkpt lat="40.624610284782406" lon="14.583516802489221"><ele>115.33333333333333</ele><time>2026-04-26T10:39:15.999Z</time></trkpt><trkpt lat="40.62466831734221" lon="14.583566055165283"><ele>117.16666666666666</ele><time>2026-04-26T10:39:16.999Z</time></trkpt><trkpt lat="40.62472997581816" lon="14.58361758900975"><ele>119.0</ele><time>2026-04-26T10:39:17.999Z</time></trkpt><trkpt lat="40.62479964768012" lon="14.583669459578129"><ele>113.49999999999999</ele><time>2026-04-26T10:39:18.999Z</time></trkpt><trkpt lat="40.6248697338577" lon="14.583720168984561"><ele>108.0</ele><time>2026-04-26T10:39:19.999Z</time></trkpt><trkpt lat="40.62494678078095" lon="14.583757120577845"><ele>102.5</ele><time>2026-04-26T10:39:20.999Z</time></trkpt><trkpt lat="40.625025720700656" lon="14.583790516524799"><ele>97.0</ele><time>2026-04-26T10:39:21.999Z</time></trkpt><trkpt lat="40.625099857132575" lon="14.583821081422089"><ele>91.5</ele><time>2026-04-26T10:39:22.999Z</time></trkpt><trkpt lat="40.62516346761846" lon="14.583850355824154"><ele>86.0</ele><time>2026-04-26T10:39:23.999Z</time></trkpt><trkpt lat="40.6252604070581" lon="14.583917748969306"><ele>90.8</ele><time>2026-04-26T10:39:26Z</time></trkpt><trkpt lat="40.625345491239145" lon="14.583935316830493"><ele>95.6</ele><time>2026-04-26T10:39:28Z</time></trkpt><trkpt lat="40.6254201917544" lon="14.583975787075444"><ele>100.4</ele><time>2026-04-26T10:39:31Z</time></trkpt><trkpt lat="40.62549738144764" lon="14.583977064113014"><ele>105.2</ele><time>2026-04-26T10:39:35Z</time></trkpt><trkpt lat="40.625609930373216" lon="14.583959141784014"><ele>110.0</ele><time>2026-04-26T10:39:37Z</time></trkpt><trkpt lat="40.625717699086444" lon="14.583884582641055"><ele>109.99999999999999</ele><time>2026-04-26T10:39:39Z</time></trkpt><trkpt lat="40.62577258623241" lon="14.58384090711384"><ele>110.0</ele><time>2026-04-26T10:39:40Z</time></trkpt><trkpt lat="40.625837917192825" lon="14.583788127196593"><ele>110.0</ele><time>2026-04-26T10:39:41Z</time></trkpt><trkpt lat="40.6258978561645" lon="14.583739703415919"><ele>110.0</ele><time>2026-04-26T10:39:42Z</time></trkpt><trkpt lat="40.62599471280129" lon="14.583660167668365"><ele>109.99999999999999</ele><time>2026-04-26T10:39:44Z</time></trkpt><trkpt lat="40.6260511017958" lon="14.583592687124776"><ele>110.0</ele><time>2026-04-26T10:39:46Z</time></trkpt><trkpt lat="40.62612683391002" lon="14.583564113307142"><ele>111.33333333333333</ele><time>2026-04-26T10:39:48Z</time></trkpt><trkpt lat="40.62620811104698" lon="14.583519521646602"><ele>112.66666666666666</ele><time>2026-04-26T10:39:50Z</time></trkpt><trkpt lat="40.626322116339516" lon="14.583480360571597"><ele>114.0</ele><time>2026-04-26T10:39:52Z</time></trkpt><trkpt lat="40.62638552253497" lon="14.58346938267765"><ele>115.33333333333334</ele><time>2026-04-26T10:39:53Z</time></trkpt><trkpt lat="40.62645326088204" lon="14.583466463970872"><ele>116.66666666666667</ele><time>2026-04-26T10:39:54Z</time></trkpt><trkpt lat="40.62652212758104" lon="14.583451752647147"><ele>118.0</ele><time>2026-04-26T10:39:55Z</time></trkpt><trkpt lat="40.626588193512056" lon="14.583462187048477"><ele>118.0</ele><time>2026-04-26T10:39:56Z</time></trkpt><trkpt lat="40.62667885332602" lon="14.583481266446734"><ele>118.00000000000001</ele><time>2026-04-26T10:39:58Z</time></trkpt><trkpt lat="40.62676524281747" lon="14.583500926024811"><ele>118.00000000000001</ele><time>2026-04-26T10:40:12Z</time></trkpt><trkpt lat="40.62686750507752" lon="14.583514461696689"><ele>118.0</ele><time>2026-04-26T10:40:14Z</time></trkpt><trkpt lat="40.62697292445845" lon="14.583523431528212"><ele>118.0</ele><time>2026-04-26T10:40:16Z</time></trkpt><trkpt lat="40.62703513202371" lon="14.583651254458672"><ele>118.00000000000001</ele><time>2026-04-26T10:40:18Z</time></trkpt><trkpt lat="40.62702837036337" lon="14.583800328801118"><ele>118.0</ele><time>2026-04-26T10:40:20Z</time></trkpt><trkpt lat="40.62700652161963" lon="14.583881059996125"><ele>118.0</ele><time>2026-04-26T10:40:21Z</time></trkpt><trkpt lat="40.62698246953859" lon="14.583967292143242"><ele>118.0</ele><time>2026-04-26T10:40:22Z</time></trkpt><trkpt lat="40.62694378674924" lon="14.5840359198405"><ele>118.00000000000001</ele><time>2026-04-26T10:40:23Z</time></trkpt><trkpt lat="40.6268746379379" lon="14.584074423026156"><ele>118.0</ele><time>2026-04-26T10:40:24Z</time></trkpt><trkpt lat="40.62679221121315" lon="14.584082681165206"><ele>114.80000000000001</ele><time>2026-04-26T10:40:25Z</time></trkpt><trkpt lat="40.626708417716436" lon="14.58409356267373"><ele>111.60000000000001</ele><time>2026-04-26T10:40:26Z</time></trkpt><trkpt lat="40.62662509513321" lon="14.584127737234558"><ele>108.4</ele><time>2026-04-26T10:40:27Z</time></trkpt><trkpt lat="40.62654310622578" lon="14.584177391229554"><ele>105.19999999999999</ele><time>2026-04-26T10:40:28Z</time></trkpt><trkpt lat="40.626462578099414" lon="14.584241437692116"><ele>102.0</ele><time>2026-04-26T10:40:29Z</time></trkpt><trkpt lat="40.62637616547049" lon="14.5843085937845"><ele>102.0</ele><time>2026-04-26T10:40:30Z</time></trkpt><trkpt lat="40.626286459200095" lon="14.584380787523465"><ele>102.0</ele><time>2026-04-26T10:40:31Z</time></trkpt><trkpt lat="40.62619668802949" lon="14.58445910676576"><ele>102.0</ele><time>2026-04-26T10:40:32Z</time></trkpt><trkpt lat="40.62610172318801" lon="14.584535156782396"><ele>102.0</ele><time>2026-04-26T10:40:33Z</time></trkpt><trkpt lat="40.62600811267763" lon="14.584609934936895"><ele>102.0</ele><time>2026-04-26T10:40:34Z</time></trkpt><trkpt lat="40.62591616438066" lon="14.584688869495185"><ele>103.0</ele><time>2026-04-26T10:40:35Z</time></trkpt><trkpt lat="40.62583501740143" lon="14.584773359652287"><ele>104.0</ele><time>2026-04-26T10:40:36Z</time></trkpt><trkpt lat="40.62576735708536" lon="14.584870781478802"><ele>104.99999999999999</ele><time>2026-04-26T10:40:37Z</time></trkpt><trkpt lat="40.625710177679196" lon="14.584976541235852"><ele>106.0</ele><time>2026-04-26T10:40:38Z</time></trkpt><trkpt lat="40.625661764868696" lon="14.585083532124182"><ele>107.0</ele><time>2026-04-26T10:40:39Z</time></trkpt><trkpt lat="40.62562182545918" lon="14.585181148224299"><ele>106.99999999999999</ele><time>2026-04-26T10:40:40Z</time></trkpt><trkpt lat="40.6255842585821" lon="14.585265922606714"><ele>107.0</ele><time>2026-04-26T10:40:41Z</time></trkpt><trkpt lat="40.625544153698755" lon="14.585339036662187"><ele>107.0</ele><time>2026-04-26T10:40:42Z</time></trkpt><trkpt lat="40.62547850985932" lon="14.58545072280863"><ele>107.0</ele><time>2026-04-26T10:40:44Z</time></trkpt><trkpt lat="40.62544384198173" lon="14.585545375007824"><ele>106.99999999999999</ele><time>2026-04-26T10:40:46Z</time></trkpt><trkpt lat="40.62544162653015" lon="14.585645665525332"><ele>107.0</ele><time>2026-04-26T10:40:48Z</time></trkpt><trkpt lat="40.62544945730627" lon="14.585728696575607"><ele>105.8</ele><time>2026-04-26T10:40:51Z</time></trkpt><trkpt lat="40.62557207876446" lon="14.585629706101946"><ele>104.6</ele><time>2026-04-26T10:40:54Z</time></trkpt><trkpt lat="40.62552147468278" lon="14.585685656479134"><ele>103.39999999999999</ele><time>2026-04-26T10:41:01Z</time></trkpt><trkpt lat="40.625518292833426" lon="14.58578570309071"><ele>102.19999999999999</ele><time>2026-04-26T10:41:03Z</time></trkpt><trkpt lat="40.62551030484438" lon="14.585894221861764"><ele>101.0</ele><time>2026-04-26T10:41:05Z</time></trkpt><trkpt lat="40.62548397938249" lon="14.585996681867952"><ele>101.0</ele><time>2026-04-26T10:41:07Z</time></trkpt><trkpt lat="40.625427601858235" lon="14.586126958704806"><ele>101.0</ele><time>2026-04-26T10:41:09Z</time></trkpt><trkpt lat="40.62554635348251" lon="14.586354702043561"><ele>101.0</ele><time>2026-04-26T10:41:11Z</time></trkpt><trkpt lat="40.62562561410263" lon="14.586505796566392"><ele>96.0</ele><time>2026-04-26T10:41:12Z</time></trkpt><trkpt lat="40.62570483911291" lon="14.586598084301166"><ele>91.0</ele><time>2026-04-26T10:41:12.999Z</time></trkpt><trkpt lat="40.62578525561372" lon="14.586704983986065"><ele>86.0</ele><time>2026-04-26T10:41:13.999Z</time></trkpt><trkpt lat="40.62588003307079" lon="14.586773454210245"><ele>81.0</ele><time>2026-04-26T10:41:14.999Z</time></trkpt><trkpt lat="40.625966167207025" lon="14.586833793582931"><ele>76.0</ele><time>2026-04-26T10:41:15.999Z</time></trkpt><trkpt lat="40.62605241575432" lon="14.586876509086407"><ele>76.0</ele><time>2026-04-26T10:41:16.999Z</time></trkpt><trkpt lat="40.62610918989989" lon="14.586954228853994"><ele>76.0</ele><time>2026-04-26T10:41:18Z</time></trkpt><trkpt lat="40.62611771414397" lon="14.587067731709308"><ele>76.0</ele><time>2026-04-26T10:41:19Z</time></trkpt><trkpt lat="40.62612324194661" lon="14.587174496676576"><ele>76.0</ele><time>2026-04-26T10:41:20Z</time></trkpt><trkpt lat="40.62615534637545" lon="14.587275448149208"><ele>76.0</ele><time>2026-04-26T10:41:21Z</time></trkpt><trkpt lat="40.62620507552716" lon="14.587367027137912"><ele>76.0</ele><time>2026-04-26T10:41:22Z</time></trkpt><trkpt lat="40.6262600773571" lon="14.587450272733497"><ele>77.0</ele><time>2026-04-26T10:41:23Z</time></trkpt><trkpt lat="40.62631461864823" lon="14.587529962481357"><ele>78.0</ele><time>2026-04-26T10:41:24Z</time></trkpt><trkpt lat="40.626368532403575" lon="14.587606172104602"><ele>79.0</ele><time>2026-04-26T10:41:25Z</time></trkpt><trkpt lat="40.62641678266575" lon="14.587678850823453"><ele>80.0</ele><time>2026-04-26T10:41:26Z</time></trkpt><trkpt lat="40.62645141581326" lon="14.587755791010295"><ele>81.0</ele><time>2026-04-26T10:41:27Z</time></trkpt><trkpt lat="40.62647810235219" lon="14.587843824815975"><ele>82.0</ele><time>2026-04-26T10:41:28Z</time></trkpt><trkpt lat="40.626500366592296" lon="14.587931952978654"><ele>83.0</ele><time>2026-04-26T10:41:29Z</time></trkpt><trkpt lat="40.62651809143507" lon="14.588020614884593"><ele>83.0</ele><time>2026-04-26T10:41:30Z</time></trkpt><trkpt lat="40.62653163156942" lon="14.588109505694835"><ele>83.0</ele><time>2026-04-26T10:41:31Z</time></trkpt><trkpt lat="40.62651703915251" lon="14.58828016670474"><ele>83.0</ele><time>2026-04-26T10:41:33Z</time></trkpt><trkpt lat="40.626509651884774" lon="14.588375407962452"><ele>83.0</ele><time>2026-04-26T10:41:34Z</time></trkpt><trkpt lat="40.62651549643148" lon="14.588471712323747"><ele>83.0</ele><time>2026-04-26T10:41:35Z</time></trkpt><trkpt lat="40.62655809302483" lon="14.58856064003506"><ele>83.0</ele><time>2026-04-26T10:41:36Z</time></trkpt><trkpt lat="40.62659824079885" lon="14.588638838796873"><ele>80.28571428571428</ele><time>2026-04-26T10:41:37Z</time></trkpt><trkpt lat="40.62663673276646" lon="14.58871393311226"><ele>77.57142857142858</ele><time>2026-04-26T10:41:38Z</time></trkpt><trkpt lat="40.62666880445746" lon="14.588788950554896"><ele>74.85714285714286</ele><time>2026-04-26T10:41:39Z</time></trkpt><trkpt lat="40.62669389953894" lon="14.588868882736"><ele>72.14285714285714</ele><time>2026-04-26T10:41:40Z</time></trkpt><trkpt lat="40.62671017920861" lon="14.588950426658615"><ele>69.42857142857142</ele><time>2026-04-26T10:41:41Z</time></trkpt><trkpt lat="40.626728491266874" lon="14.58903873676649"><ele>66.71428571428571</ele><time>2026-04-26T10:41:42Z</time></trkpt><trkpt lat="40.62674763364606" lon="14.58913163765155"><ele>64.0</ele><time>2026-04-26T10:41:43Z</time></trkpt><trkpt lat="40.626768273916845" lon="14.589226207638063"><ele>63.99999999999999</ele><time>2026-04-26T10:41:44Z</time></trkpt><trkpt lat="40.62679337396027" lon="14.589326114014053"><ele>64.0</ele><time>2026-04-26T10:41:45Z</time></trkpt><trkpt lat="40.62682837753318" lon="14.58942648934881"><ele>64.0</ele><time>2026-04-26T10:41:46Z</time></trkpt><trkpt lat="40.62687104816634" lon="14.589528195165013"><ele>64.0</ele><time>2026-04-26T10:41:47Z</time></trkpt><trkpt lat="40.62691453688612" lon="14.589633748912878"><ele>63.99999999999999</ele><time>2026-04-26T10:41:48Z</time></trkpt><trkpt lat="40.62696118356011" lon="14.589740831773248"><ele>64.0</ele><time>2026-04-26T10:41:49Z</time></trkpt><trkpt lat="40.627006657492025" lon="14.589844653629333"><ele>65.16666666666666</ele><time>2026-04-26T10:41:50Z</time></trkpt><trkpt lat="40.62705486927786" lon="14.589947389183731"><ele>66.33333333333333</ele><time>2026-04-26T10:41:51Z</time></trkpt><trkpt lat="40.6271055191152" lon="14.590045377447103"><ele>67.5</ele><time>2026-04-26T10:41:52Z</time></trkpt><trkpt lat="40.62715673138543" lon="14.590139318318517"><ele>68.66666666666667</ele><time>2026-04-26T10:41:53Z</time></trkpt><trkpt lat="40.627211721679885" lon="14.590230066084029"><ele>69.83333333333334</ele><time>2026-04-26T10:41:54Z</time></trkpt><trkpt lat="40.62727060384534" lon="14.590310487872616"><ele>71.0</ele><time>2026-04-26T10:41:55Z</time></trkpt><trkpt lat="40.627332976999966" lon="14.5903797943222"><ele>71.0</ele><time>2026-04-26T10:41:56Z</time></trkpt><trkpt lat="40.62738452045398" lon="14.590457600157164"><ele>71.0</ele><time>2026-04-26T10:41:57Z</time></trkpt><trkpt lat="40.62743194093526" lon="14.590538736930322"><ele>71.0</ele><time>2026-04-26T10:41:58Z</time></trkpt><trkpt lat="40.62747064854377" lon="14.5906232115614"><ele>71.0</ele><time>2026-04-26T10:41:59Z</time></trkpt><trkpt lat="40.62751079281439" lon="14.590713176469865"><ele>71.0</ele><time>2026-04-26T10:42:00Z</time></trkpt><trkpt lat="40.627551329037956" lon="14.59080128114191"><ele>71.0</ele><time>2026-04-26T10:42:01Z</time></trkpt><trkpt lat="40.627591728703194" lon="14.590889088964976"><ele>71.0</ele><time>2026-04-26T10:42:02Z</time></trkpt><trkpt lat="40.62763889281468" lon="14.590974591702976"><ele>71.0</ele><time>2026-04-26T10:42:03Z</time></trkpt><trkpt lat="40.62769161365081" lon="14.591052637541706"><ele>71.0</ele><time>2026-04-26T10:42:04Z</time></trkpt><trkpt lat="40.62774748660677" lon="14.591125093663498"><ele>71.0</ele><time>2026-04-26T10:42:05Z</time></trkpt><trkpt lat="40.6278054944819" lon="14.59119494122607"><ele>71.0</ele><time>2026-04-26T10:42:06Z</time></trkpt><trkpt lat="40.627865618164606" lon="14.591263080591798"><ele>71.0</ele><time>2026-04-26T10:42:07Z</time></trkpt><trkpt lat="40.6279275237655" lon="14.591332816752852"><ele>71.5</ele><time>2026-04-26T10:42:08Z</time></trkpt><trkpt lat="40.627990992687145" lon="14.591403439917372"><ele>72.0</ele><time>2026-04-26T10:42:09Z</time></trkpt><trkpt lat="40.62805232365676" lon="14.591471843464337"><ele>72.5</ele><time>2026-04-26T10:42:10Z</time></trkpt><trkpt lat="40.62812234121779" lon="14.591525223356108"><ele>73.0</ele><time>2026-04-26T10:42:11Z</time></trkpt><trkpt lat="40.628180902121215" lon="14.591591870783121"><ele>73.5</ele><time>2026-04-26T10:42:12Z</time></trkpt><trkpt lat="40.6282409416675" lon="14.59165501196607"><ele>74.0</ele><time>2026-04-26T10:42:13Z</time></trkpt><trkpt lat="40.62829062652513" lon="14.591733815492463"><ele>74.0</ele><time>2026-04-26T10:42:14Z</time></trkpt><trkpt lat="40.62836089053323" lon="14.591768385569972"><ele>74.0</ele><time>2026-04-26T10:42:15Z</time></trkpt><trkpt lat="40.62842879874708" lon="14.591803792580372"><ele>74.0</ele><time>2026-04-26T10:42:16Z</time></trkpt><trkpt lat="40.6284945906442" lon="14.591830662195761"><ele>74.0</ele><time>2026-04-26T10:42:17Z</time></trkpt><trkpt lat="40.628601643500105" lon="14.591886493860006"><ele>74.0</ele><time>2026-04-26T10:42:19Z</time></trkpt><trkpt lat="40.62867719960191" lon="14.591943155110592"><ele>74.0</ele><time>2026-04-26T10:42:21Z</time></trkpt><trkpt lat="40.62874227349302" lon="14.59198796307677"><ele>72.0</ele><time>2026-04-26T10:42:23Z</time></trkpt><trkpt lat="40.6288187888876" lon="14.592038303917537"><ele>70.0</ele><time>2026-04-26T10:42:25Z</time></trkpt><trkpt lat="40.62893188494369" lon="14.592100255625825"><ele>68.0</ele><time>2026-04-26T10:42:27Z</time></trkpt><trkpt lat="40.62904621404345" lon="14.592137104568927"><ele>66.0</ele><time>2026-04-26T10:42:29Z</time></trkpt><trkpt lat="40.62915891087561" lon="14.592168442927361"><ele>64.0</ele><time>2026-04-26T10:42:31Z</time></trkpt><trkpt lat="40.62923927886768" lon="14.592287429719736"><ele>63.99999999999999</ele><time>2026-04-26T10:42:33Z</time></trkpt><trkpt lat="40.629295152787584" lon="14.592344186669418"><ele>64.0</ele><time>2026-04-26T10:42:34Z</time></trkpt><trkpt lat="40.629353089708495" lon="14.592454833202693"><ele>64.0</ele><time>2026-04-26T10:42:36Z</time></trkpt><trkpt lat="40.62941228634692" lon="14.592523269242623"><ele>64.0</ele><time>2026-04-26T10:42:39Z</time></trkpt><trkpt lat="40.62949828725099" lon="14.59256942911641"><ele>63.99999999999999</ele><time>2026-04-26T10:42:50Z</time></trkpt><trkpt lat="40.62957399496681" lon="14.592622090648717"><ele>64.0</ele><time>2026-04-26T10:42:52Z</time></trkpt><trkpt lat="40.62964289953624" lon="14.592648549917309"><ele>66.16666666666666</ele><time>2026-04-26T10:42:54Z</time></trkpt><trkpt lat="40.629699208695655" lon="14.592685928805238"><ele>68.33333333333333</ele><time>2026-04-26T10:42:56Z</time></trkpt><trkpt lat="40.629774147661415" lon="14.592777552867949"><ele>70.5</ele><time>2026-04-26T10:42:58Z</time></trkpt><trkpt lat="40.629821376027905" lon="14.59289467251821"><ele>72.66666666666667</ele><time>2026-04-26T10:43:00Z</time></trkpt><trkpt lat="40.62982497862658" lon="14.593003385156281"><ele>74.83333333333334</ele><time>2026-04-26T10:43:02Z</time></trkpt><trkpt lat="40.6298260126927" lon="14.593088566398533"><ele>77.0</ele><time>2026-04-26T10:43:04Z</time></trkpt><trkpt lat="40.62982422080372" lon="14.593180052289592"><ele>77.0</ele><time>2026-04-26T10:43:06Z</time></trkpt><trkpt lat="40.62980824050275" lon="14.59328016510552"><ele>77.0</ele><time>2026-04-26T10:43:08Z</time></trkpt><trkpt lat="40.62981164821062" lon="14.593375227612263"><ele>77.0</ele><time>2026-04-26T10:43:10Z</time></trkpt><trkpt lat="40.629830739048586" lon="14.593466012722422"><ele>77.0</ele><time>2026-04-26T10:43:12Z</time></trkpt><trkpt lat="40.629853091245344" lon="14.59354358712257"><ele>77.0</ele><time>2026-04-26T10:43:14Z</time></trkpt><trkpt lat="40.6298781703996" lon="14.593628740828501"><ele>77.0</ele><time>2026-04-26T10:43:16Z</time></trkpt><trkpt lat="40.62990822900847" lon="14.593722293083989"><ele>77.0</ele><time>2026-04-26T10:43:19Z</time></trkpt><trkpt lat="40.62994332256874" lon="14.593824971334424"><ele>73.5</ele><time>2026-04-26T10:43:32Z</time></trkpt><trkpt lat="40.62997540446644" lon="14.593910499707006"><ele>70.0</ele><time>2026-04-26T10:43:43Z</time></trkpt><trkpt lat="40.63000688474961" lon="14.59398973262312"><ele>66.5</ele><time>2026-04-26T10:43:47Z</time></trkpt><trkpt lat="40.630044018064766" lon="14.594080502421463"><ele>63.0</ele><time>2026-04-26T10:43:58Z</time></trkpt><trkpt lat="40.63008405509392" lon="14.5941709042538"><ele>59.50000000000001</ele><time>2026-04-26T10:44:01Z</time></trkpt><trkpt lat="40.63013239809704" lon="14.594261650257264"><ele>56.0</ele><time>2026-04-26T10:44:03Z</time></trkpt><trkpt lat="40.63021294222196" lon="14.59436926933929"><ele>56.0</ele><time>2026-04-26T10:44:05Z</time></trkpt><trkpt lat="40.6303078183861" lon="14.594411911321208"><ele>55.99999999999999</ele><time>2026-04-26T10:44:07Z</time></trkpt><trkpt lat="40.63038852799518" lon="14.594469884828527"><ele>55.99999999999999</ele><time>2026-04-26T10:44:09Z</time></trkpt><trkpt lat="40.630477442411525" lon="14.594532506125592"><ele>56.0</ele><time>2026-04-26T10:44:11Z</time></trkpt><trkpt lat="40.63055317467313" lon="14.594614864677471"><ele>56.0</ele><time>2026-04-26T10:44:13Z</time></trkpt><trkpt lat="40.6305989156878" lon="14.594684941764534"><ele>56.333333333333336</ele><time>2026-04-26T10:44:15Z</time></trkpt><trkpt lat="40.63064815293917" lon="14.594761173935215"><ele>56.66666666666667</ele><time>2026-04-26T10:44:17Z</time></trkpt><trkpt lat="40.63073120679606" lon="14.59479341734201"><ele>57.0</ele><time>2026-04-26T10:44:20Z</time></trkpt><trkpt lat="40.6308166130407" lon="14.594832431866891"><ele>57.33333333333333</ele><time>2026-04-26T10:44:23Z</time></trkpt><trkpt lat="40.63088172187172" lon="14.594861313326653"><ele>57.666666666666664</ele><time>2026-04-26T10:44:25Z</time></trkpt><trkpt lat="40.630955406741904" lon="14.594896138132851"><ele>58.0</ele><time>2026-04-26T10:44:27Z</time></trkpt><trkpt lat="40.63103747818596" lon="14.594969985875107"><ele>57.99999999999999</ele><time>2026-04-26T10:44:29Z</time></trkpt><trkpt lat="40.63112891268089" lon="14.595045883966307"><ele>58.0</ele><time>2026-04-26T10:44:31Z</time></trkpt><trkpt lat="40.63115776886402" lon="14.595123013608063"><ele>58.0</ele><time>2026-04-26T10:44:32Z</time></trkpt><trkpt lat="40.63120090774962" lon="14.595195262946534"><ele>58.0</ele><time>2026-04-26T10:44:33Z</time></trkpt><trkpt lat="40.631245264139544" lon="14.595272601166101"><ele>57.99999999999999</ele><time>2026-04-26T10:44:34Z</time></trkpt><trkpt lat="40.63130279806487" lon="14.595348450788482"><ele>58.0</ele><time>2026-04-26T10:44:35Z</time></trkpt><trkpt lat="40.631342742541435" lon="14.595432441037785"><ele>57.166666666666664</ele><time>2026-04-26T10:44:36Z</time></trkpt><trkpt lat="40.63141299379554" lon="14.595557108803789"><ele>56.33333333333333</ele><time>2026-04-26T10:44:38Z</time></trkpt><trkpt lat="40.631468181352325" lon="14.595662255110172"><ele>55.5</ele><time>2026-04-26T10:44:40Z</time></trkpt><trkpt lat="40.63152160281926" lon="14.59573346956726"><ele>54.66666666666667</ele><time>2026-04-26T10:44:43Z</time></trkpt><trkpt lat="40.6315732107584" lon="14.595791972649552"><ele>53.833333333333336</ele><time>2026-04-26T10:44:47Z</time></trkpt><trkpt lat="40.631641094591465" lon="14.595840214779225"><ele>53.0</ele><time>2026-04-26T10:44:50Z</time></trkpt><trkpt lat="40.631718642306836" lon="14.595847492555883"><ele>53.0</ele><time>2026-04-26T10:44:53Z</time></trkpt><trkpt lat="40.631787286960396" lon="14.59585024078042"><ele>53.0</ele><time>2026-04-26T10:44:56Z</time></trkpt><trkpt lat="40.631885890316575" lon="14.595845467354941"><ele>53.0</ele><time>2026-04-26T10:44:58Z</time></trkpt><trkpt lat="40.63199940793319" lon="14.595837052077997"><ele>53.0</ele><time>2026-04-26T10:45:00Z</time></trkpt><trkpt lat="40.63206560330564" lon="14.59582313158218"><ele>53.0</ele><time>2026-04-26T10:45:01Z</time></trkpt><trkpt lat="40.63216914392701" lon="14.595792406745487"><ele>54.833333333333336</ele><time>2026-04-26T10:45:03Z</time></trkpt><trkpt lat="40.632232439112954" lon="14.59581194158251"><ele>56.66666666666667</ele><time>2026-04-26T10:45:05Z</time></trkpt><trkpt lat="40.6323034029283" lon="14.595888085502716"><ele>58.5</ele><time>2026-04-26T10:45:08.001Z</time></trkpt><trkpt lat="40.63234855211388" lon="14.595964532475996"><ele>60.33333333333333</ele><time>2026-04-26T10:45:10.001Z</time></trkpt><trkpt lat="40.632347089909516" lon="14.596074065134143"><ele>62.166666666666664</ele><time>2026-04-26T10:45:13.001Z</time></trkpt><trkpt lat="40.63234716212738" lon="14.59616303308769"><ele>64.0</ele><time>2026-04-26T10:45:16.001Z</time></trkpt><trkpt lat="40.632367400599456" lon="14.59625952606202"><ele>64.0</ele><time>2026-04-26T10:45:20.001Z</time></trkpt><trkpt lat="40.6324122030972" lon="14.59636432828121"><ele>64.0</ele><time>2026-04-26T10:45:30Z</time></trkpt><trkpt lat="40.63243991801472" lon="14.596447185723948"><ele>64.0</ele><time>2026-04-26T10:45:41Z</time></trkpt><trkpt lat="40.63246794366171" lon="14.596527700767808"><ele>64.0</ele><time>2026-04-26T10:45:48Z</time></trkpt><trkpt lat="40.632494118146255" lon="14.59660334279155"><ele>64.0</ele><time>2026-04-26T10:45:58Z</time></trkpt><trkpt lat="40.63256978120584" lon="14.596807532030668"><ele>64.0</ele><time>2026-04-26T10:46:16Z</time></trkpt><trkpt lat="40.63259647039704" lon="14.596934044455189"><ele>64.0</ele><time>2026-04-26T10:46:18Z</time></trkpt><trkpt lat="40.63264405864655" lon="14.59706852381962"><ele>64.0</ele><time>2026-04-26T10:46:20Z</time></trkpt><trkpt lat="40.63268903535445" lon="14.59719693455023"><ele>64.0</ele><time>2026-04-26T10:46:21Z</time></trkpt><trkpt lat="40.63272973394096" lon="14.597318000558037"><ele>64.0</ele><time>2026-04-26T10:46:22Z</time></trkpt><trkpt lat="40.63277035419335" lon="14.597429531035486"><ele>68.6</ele><time>2026-04-26T10:46:23Z</time></trkpt><trkpt lat="40.63282356104446" lon="14.597525602767485"><ele>73.2</ele><time>2026-04-26T10:46:24Z</time></trkpt><trkpt lat="40.63285858936328" lon="14.597622646232814"><ele>77.8</ele><time>2026-04-26T10:46:25Z</time></trkpt><trkpt lat="40.63289137319271" lon="14.597722527365931"><ele>82.39999999999999</ele><time>2026-04-26T10:46:26Z</time></trkpt><trkpt lat="40.632955163933026" lon="14.597825155449488"><ele>87.0</ele><time>2026-04-26T10:46:28Z</time></trkpt><trkpt lat="40.633021733513445" lon="14.597945688108586"><ele>77.6</ele><time>2026-04-26T10:46:30Z</time></trkpt><trkpt lat="40.632992611586985" lon="14.597849096915319"><ele>68.19999999999999</ele><time>2026-04-26T10:46:31Z</time></trkpt><trkpt lat="40.63304880271921" lon="14.59788828640952"><ele>58.8</ele><time>2026-04-26T10:48:04Z</time></trkpt><trkpt lat="40.63315566442879" lon="14.597962684345687"><ele>49.4</ele><time>2026-04-26T10:48:06Z</time></trkpt><trkpt lat="40.633240926814096" lon="14.598038723942807"><ele>40.0</ele><time>2026-04-26T10:48:08Z</time></trkpt><trkpt lat="40.633291747125966" lon="14.598140239364453"><ele>40.0</ele><time>2026-04-26T10:48:10Z</time></trkpt><trkpt lat="40.63332238599625" lon="14.59821873097345"><ele>40.0</ele><time>2026-04-26T10:48:11Z</time></trkpt><trkpt lat="40.633370000876795" lon="14.598343836627112"><ele>40.0</ele><time>2026-04-26T10:48:13Z</time></trkpt><trkpt lat="40.6334059853435" lon="14.598463650633946"><ele>40.0</ele><time>2026-04-26T10:48:15Z</time></trkpt><trkpt lat="40.63341604903459" lon="14.598619923631736"><ele>40.0</ele><time>2026-04-26T10:48:17Z</time></trkpt><trkpt lat="40.63342076333704" lon="14.59870786967518"><ele>38.4</ele><time>2026-04-26T10:48:20Z</time></trkpt><trkpt lat="40.63342572205" lon="14.598820724630428"><ele>36.8</ele><time>2026-04-26T10:48:24Z</time></trkpt><trkpt lat="40.6334309593373" lon="14.598931632225822"><ele>35.2</ele><time>2026-04-26T10:48:28Z</time></trkpt><trkpt lat="40.633448480402755" lon="14.599066478881527"><ele>33.6</ele><time>2026-04-26T10:48:30Z</time></trkpt><trkpt lat="40.63347009153531" lon="14.599156779057541"><ele>32.0</ele><time>2026-04-26T10:48:31Z</time></trkpt><trkpt lat="40.63352117426582" lon="14.599280479556311"><ele>31.999999999999996</ele><time>2026-04-26T10:48:33Z</time></trkpt><trkpt lat="40.633555972152166" lon="14.599379699645944"><ele>32.0</ele><time>2026-04-26T10:48:36Z</time></trkpt><trkpt lat="40.6335858636236" lon="14.599507495578091"><ele>32.0</ele><time>2026-04-26T10:48:38Z</time></trkpt><trkpt lat="40.63360086404835" lon="14.599598960598142"><ele>32.0</ele><time>2026-04-26T10:48:39Z</time></trkpt><trkpt lat="40.63361138084215" lon="14.599685766967442"><ele>31.999999999999996</ele><time>2026-04-26T10:48:40Z</time></trkpt><trkpt lat="40.633620473484534" lon="14.599838377553626"><ele>32.0</ele><time>2026-04-26T10:48:42Z</time></trkpt><trkpt lat="40.6336224992235" lon="14.599970984695675"><ele>31.666666666666664</ele><time>2026-04-26T10:48:44Z</time></trkpt><trkpt lat="40.63362380378161" lon="14.600062825846415"><ele>31.333333333333332</ele><time>2026-04-26T10:49:04Z</time></trkpt><trkpt lat="40.63362919574535" lon="14.600208373726776"><ele>31.0</ele><time>2026-04-26T10:49:10.001Z</time></trkpt><trkpt lat="40.63363721305132" lon="14.600326990045485"><ele>30.666666666666664</ele><time>2026-04-26T10:49:11.001Z</time></trkpt><trkpt lat="40.633639906262964" lon="14.600422811749468"><ele>30.333333333333332</ele><time>2026-04-26T10:49:12.001Z</time></trkpt><trkpt lat="40.63364034664355" lon="14.600507849262451"><ele>30.0</ele><time>2026-04-26T10:49:13.001Z</time></trkpt><trkpt lat="40.633638228138366" lon="14.600621653432253"><ele>28.833333333333332</ele><time>2026-04-26T10:49:15.001Z</time></trkpt><trkpt lat="40.6336356436048" lon="14.60072823233458"><ele>27.666666666666668</ele><time>2026-04-26T10:49:17.001Z</time></trkpt><trkpt lat="40.63364532939097" lon="14.600836789619041"><ele>26.5</ele><time>2026-04-26T10:49:19.001Z</time></trkpt><trkpt lat="40.63366014648309" lon="14.60093034059407"><ele>25.333333333333336</ele><time>2026-04-26T10:49:21.001Z</time></trkpt><trkpt lat="40.63367433864811" lon="14.60101153834836"><ele>24.166666666666668</ele><time>2026-04-26T10:49:23.001Z</time></trkpt><trkpt lat="40.633693180559014" lon="14.601123422301182"><ele>23.0</ele><time>2026-04-26T10:49:26.001Z</time></trkpt><trkpt lat="40.63375147989761" lon="14.601455661964366"><ele>23.0</ele><time>2026-04-26T10:49:29.001Z</time></trkpt><trkpt lat="40.63376808157814" lon="14.601544204254829"><ele>23.0</ele><time>2026-04-26T10:49:32.001Z</time></trkpt><trkpt lat="40.63378560086981" lon="14.601639628328288"><ele>23.0</ele><time>2026-04-26T10:49:37Z</time></trkpt><trkpt lat="40.633803429814186" lon="14.601745824561945"><ele>23.0</ele><time>2026-04-26T10:49:41Z</time></trkpt><trkpt lat="40.6338126865819" lon="14.601838730584717"><ele>23.0</ele><time>2026-04-26T10:49:54Z</time></trkpt><trkpt lat="40.63382048020622" lon="14.601942660707794"><ele>23.0</ele><time>2026-04-26T10:49:57Z</time></trkpt><trkpt lat="40.633826926763255" lon="14.60202727622896"><ele>23.0</ele><time>2026-04-26T10:50:00Z</time></trkpt><trkpt lat="40.63383511326227" lon="14.602124102723867"><ele>21.833333333333336</ele><time>2026-04-26T10:50:04Z</time></trkpt><trkpt lat="40.63384423567326" lon="14.60223199897784"><ele>20.666666666666668</ele><time>2026-04-26T10:50:17Z</time></trkpt><trkpt lat="40.633852617138665" lon="14.602352974149925"><ele>19.5</ele><time>2026-04-26T10:50:20Z</time></trkpt><trkpt lat="40.63385770264698" lon="14.602439574520062"><ele>18.333333333333332</ele><time>2026-04-26T10:50:24Z</time></trkpt><trkpt lat="40.63385166608424" lon="14.60253522363329"><ele>17.166666666666664</ele><time>2026-04-26T10:50:28Z</time></trkpt><trkpt lat="40.63383575938157" lon="14.60264794053758"><ele>16.0</ele><time>2026-04-26T10:50:31Z</time></trkpt><trkpt lat="40.63379132469595" lon="14.602748421110395"><ele>16.0</ele><time>2026-04-26T10:50:34Z</time></trkpt><trkpt lat="40.633821422610815" lon="14.602837528826866"><ele>15.999999999999998</ele><time>2026-04-26T10:50:37Z</time></trkpt><trkpt lat="40.63382432599398" lon="14.602926217212035"><ele>16.0</ele><time>2026-04-26T10:50:39Z</time></trkpt><trkpt lat="40.63383725852661" lon="14.603010761489037"><ele>16.0</ele><time>2026-04-26T10:50:40Z</time></trkpt><trkpt lat="40.63385426336581" lon="14.603101969256837"><ele>15.999999999999998</ele><time>2026-04-26T10:50:41Z</time></trkpt><trkpt lat="40.63387419348118" lon="14.603230035587265"><ele>16.0</ele><time>2026-04-26T10:50:43Z</time></trkpt><trkpt lat="40.63388739755102" lon="14.6033219021649"><ele>16.0</ele><time>2026-04-26T10:50:45Z</time></trkpt><trkpt lat="40.633903710876226" lon="14.603434082803417"><ele>15.999999999999998</ele><time>2026-04-26T10:50:47Z</time></trkpt><trkpt lat="40.633920796467955" lon="14.60356493093249"><ele>16.0</ele><time>2026-04-26T10:50:49Z</time></trkpt><trkpt lat="40.63393511128023" lon="14.603677337403926"><ele>16.0</ele><time>2026-04-26T10:50:51Z</time></trkpt><trkpt lat="40.633947290459524" lon="14.603772973891203"><ele>16.0</ele><time>2026-04-26T10:50:53Z</time></trkpt><trkpt lat="40.63395946587701" lon="14.603869974490408"><ele>15.999999999999998</ele><time>2026-04-26T10:50:56Z</time></trkpt><trkpt lat="40.633974638855506" lon="14.60398770313379"><ele>16.0</ele><time>2026-04-26T10:50:59Z</time></trkpt><trkpt lat="40.63398815243403" lon="14.60408895820885"><ele>16.833333333333332</ele><time>2026-04-26T10:51:01Z</time></trkpt><trkpt lat="40.63400122866452" lon="14.604184401837799"><ele>17.666666666666664</ele><time>2026-04-26T10:51:03Z</time></trkpt><trkpt lat="40.63401239961365" lon="14.604271208630468"><ele>18.5</ele><time>2026-04-26T10:51:05Z</time></trkpt><trkpt lat="40.63401899418785" lon="14.604361639425928"><ele>19.333333333333332</ele><time>2026-04-26T10:51:07Z</time></trkpt><trkpt lat="40.63401320577426" lon="14.604458138606931"><ele>20.166666666666668</ele><time>2026-04-26T10:51:09Z</time></trkpt><trkpt lat="40.63398568534806" lon="14.604565013654485"><ele>21.0</ele><time>2026-04-26T10:51:11Z</time></trkpt><trkpt lat="40.63393186592677" lon="14.604653988728694"><ele>19.6</ele><time>2026-04-26T10:51:13Z</time></trkpt><trkpt lat="40.63386949737959" lon="14.60475101482805"><ele>18.200000000000003</ele><time>2026-04-26T10:51:15Z</time></trkpt><trkpt lat="40.633785289584736" lon="14.604779108245511"><ele>16.799999999999997</ele><time>2026-04-26T10:51:17Z</time></trkpt><trkpt lat="40.633698923820624" lon="14.604833616874394"><ele>15.399999999999999</ele><time>2026-04-26T10:51:19Z</time></trkpt><trkpt lat="40.633620726597165" lon="14.604853952540344"><ele>14.0</ele><time>2026-04-26T10:51:21Z</time></trkpt><trkpt lat="40.63353555288989" lon="14.604904246791047"><ele>14.0</ele><time>2026-04-26T10:51:24Z</time></trkpt><trkpt lat="40.633471105453054" lon="14.604961841154257"><ele>14.0</ele><time>2026-04-26T10:51:27Z</time></trkpt><trkpt lat="40.63343288355356" lon="14.605032235262295"><ele>14.0</ele><time>2026-04-26T10:51:30Z</time></trkpt><trkpt lat="40.633419968785496" lon="14.605118005715184"><ele>14.0</ele><time>2026-04-26T10:51:33Z</time></trkpt><trkpt lat="40.63341572620449" lon="14.605223595850143"><ele>14.0</ele><time>2026-04-26T10:51:36Z</time></trkpt><trkpt lat="40.63341324000078" lon="14.605320229897211"><ele>14.0</ele><time>2026-04-26T10:51:41Z</time></trkpt><trkpt lat="40.6334122488348" lon="14.605415976552646"><ele>14.0</ele><time>2026-04-26T10:51:44Z</time></trkpt><trkpt lat="40.63341075938675" lon="14.60549975760861"><ele>17.0</ele><time>2026-04-26T10:51:52Z</time></trkpt><trkpt lat="40.633407457059946" lon="14.605593154557143"><ele>20.0</ele><time>2026-04-26T10:51:55Z</time></trkpt><trkpt lat="40.63339602443838" lon="14.605706687673289"><ele>23.0</ele><time>2026-04-26T10:52:02Z</time></trkpt><trkpt lat="40.633365591412584" lon="14.605830058031062"><ele>26.0</ele><time>2026-04-26T10:52:14Z</time></trkpt><trkpt lat="40.63334108099378" lon="14.60593856454158"><ele>28.999999999999996</ele><time>2026-04-26T10:52:17Z</time></trkpt><trkpt lat="40.63332302616619" lon="14.606041481539263"><ele>32.0</ele><time>2026-04-26T10:52:20Z</time></trkpt><trkpt lat="40.63330675476037" lon="14.606134232541802"><ele>28.833333333333332</ele><time>2026-04-26T10:52:26Z</time></trkpt><trkpt lat="40.6332796592529" lon="14.606233259670502"><ele>25.666666666666664</ele><time>2026-04-26T10:52:28Z</time></trkpt><trkpt lat="40.63324342926254" lon="14.606308601954181"><ele>22.5</ele><time>2026-04-26T10:52:30Z</time></trkpt><trkpt lat="40.63319843915636" lon="14.606370829043847"><ele>19.333333333333332</ele><time>2026-04-26T10:52:32Z</time></trkpt><trkpt lat="40.633130491022854" lon="14.606445102786049"><ele>16.166666666666664</ele><time>2026-04-26T10:52:34Z</time></trkpt><trkpt lat="40.633085661644834" lon="14.60654201133443"><ele>13.0</ele><time>2026-04-26T10:52:36Z</time></trkpt><trkpt lat="40.63305171708619" lon="14.606646249849554"><ele>13.0</ele><time>2026-04-26T10:52:38Z</time></trkpt><trkpt lat="40.63301760762276" lon="14.606771131826694"><ele>13.0</ele><time>2026-04-26T10:52:40Z</time></trkpt><trkpt lat="40.63304015833174" lon="14.606907068410438"><ele>13.0</ele><time>2026-04-26T10:52:42Z</time></trkpt><trkpt lat="40.633146762873494" lon="14.606966792709914"><ele>13.0</ele><time>2026-04-26T10:52:44Z</time></trkpt><trkpt lat="40.633268241440206" lon="14.60702250027055"><ele>11.833333333333332</ele><time>2026-04-26T10:52:46Z</time></trkpt><trkpt lat="40.63333601050516" lon="14.607054439127646"><ele>10.666666666666666</ele><time>2026-04-26T10:52:47Z</time></trkpt><trkpt lat="40.63339769543294" lon="14.607082679264174"><ele>9.5</ele><time>2026-04-26T10:52:48Z</time></trkpt><trkpt lat="40.63348968926753" lon="14.60710948601108"><ele>8.333333333333332</ele><time>2026-04-26T10:52:50Z</time></trkpt><trkpt lat="40.63356075505288" lon="14.607123965368736"><ele>7.166666666666666</ele><time>2026-04-26T10:52:52Z</time></trkpt><trkpt lat="40.63365376305314" lon="14.607112567920195"><ele>6.0</ele><time>2026-04-26T10:52:55Z</time></trkpt><trkpt lat="40.63373473360434" lon="14.607100772222353"><ele>9.666666666666668</ele><time>2026-04-26T10:52:58Z</time></trkpt><trkpt lat="40.63380803749504" lon="14.607096505330663"><ele>13.333333333333334</ele><time>2026-04-26T10:53:01Z</time></trkpt><trkpt lat="40.63387154075988" lon="14.607109499363494"><ele>17.0</ele><time>2026-04-26T10:53:03Z</time></trkpt><trkpt lat="40.63393736817625" lon="14.607122425283366"><ele>20.666666666666668</ele><time>2026-04-26T10:53:05Z</time></trkpt><trkpt lat="40.63400216834321" lon="14.607122282035325"><ele>24.333333333333336</ele><time>2026-04-26T10:53:08Z</time></trkpt><trkpt lat="40.63407744024724" lon="14.607171221956197"><ele>28.0</ele><time>2026-04-26T10:53:22Z</time></trkpt><trkpt lat="40.63419554002006" lon="14.607215771558659"><ele>28.0</ele><time>2026-04-26T10:53:24Z</time></trkpt><trkpt lat="40.634267543344755" lon="14.607241069129252"><ele>27.999999999999996</ele><time>2026-04-26T10:53:25Z</time></trkpt><trkpt lat="40.63433180645968" lon="14.607315515290173"><ele>27.999999999999996</ele><time>2026-04-26T10:53:26Z</time></trkpt><trkpt lat="40.63439240422728" lon="14.60741485375551"><ele>28.0</ele><time>2026-04-26T10:53:27Z</time></trkpt><trkpt lat="40.63444968292879" lon="14.607530965244788"><ele>28.0</ele><time>2026-04-26T10:53:28Z</time></trkpt><trkpt lat="40.6345152748208" lon="14.607644235414059"><ele>26.599999999999998</ele><time>2026-04-26T10:53:29Z</time></trkpt><trkpt lat="40.63457414753817" lon="14.607765722709745"><ele>25.199999999999996</ele><time>2026-04-26T10:53:30Z</time></trkpt><trkpt lat="40.6346315268347" lon="14.607880374592298"><ele>23.8</ele><time>2026-04-26T10:53:31Z</time></trkpt><trkpt lat="40.634683391756575" lon="14.607986414909943"><ele>22.4</ele><time>2026-04-26T10:53:32Z</time></trkpt><trkpt lat="40.63473258107388" lon="14.608081473397279"><ele>21.0</ele><time>2026-04-26T10:53:33Z</time></trkpt><trkpt lat="40.63478418840266" lon="14.608157772336714"><ele>21.0</ele><time>2026-04-26T10:53:34Z</time></trkpt><trkpt lat="40.63483827160646" lon="14.60821582020782"><ele>21.0</ele><time>2026-04-26T10:53:35Z</time></trkpt><trkpt lat="40.634905113255165" lon="14.60826221370136"><ele>21.0</ele><time>2026-04-26T10:53:36Z</time></trkpt><trkpt lat="40.63498573801991" lon="14.608280130375036"><ele>21.0</ele><time>2026-04-26T10:53:37Z</time></trkpt><trkpt lat="40.63509206469393" lon="14.608272308141546"><ele>21.0</ele><time>2026-04-26T10:53:38Z</time></trkpt><trkpt lat="40.63516870905507" lon="14.608315354119885"><ele>21.0</ele><time>2026-04-26T10:53:39Z</time></trkpt><trkpt lat="40.63525561489519" lon="14.60833882375474"><ele>21.333333333333332</ele><time>2026-04-26T10:53:40Z</time></trkpt><trkpt lat="40.63533940961988" lon="14.608362078083033"><ele>21.666666666666668</ele><time>2026-04-26T10:53:41Z</time></trkpt><trkpt lat="40.63543102146509" lon="14.608393028179474"><ele>22.0</ele><time>2026-04-26T10:53:42Z</time></trkpt><trkpt lat="40.635500964526216" lon="14.60842607171534"><ele>22.333333333333336</ele><time>2026-04-26T10:53:43Z</time></trkpt><trkpt lat="40.63556740725959" lon="14.608453873465825"><ele>22.666666666666668</ele><time>2026-04-26T10:53:44Z</time></trkpt><trkpt lat="40.635621984519" lon="14.608520544834505"><ele>23.0</ele><time>2026-04-26T10:53:45Z</time></trkpt><trkpt lat="40.63566285761366" lon="14.608592245237482"><ele>20.599999999999998</ele><time>2026-04-26T10:53:46Z</time></trkpt><trkpt lat="40.63569286653948" lon="14.608665580062555"><ele>18.2</ele><time>2026-04-26T10:53:46.999Z</time></trkpt><trkpt lat="40.63571568937901" lon="14.60874756084787"><ele>15.8</ele><time>2026-04-26T10:53:47.999Z</time></trkpt><trkpt lat="40.635746588439666" lon="14.60890180417032"><ele>13.4</ele><time>2026-04-26T10:53:49.999Z</time></trkpt><trkpt lat="40.63576829922002" lon="14.609036626779135"><ele>11.0</ele><time>2026-04-26T10:53:51.999Z</time></trkpt><trkpt lat="40.63579353949416" lon="14.609172473827812"><ele>11.0</ele><time>2026-04-26T10:53:53.999Z</time></trkpt><trkpt lat="40.63581045459363" lon="14.609268906652582"><ele>11.0</ele><time>2026-04-26T10:53:55.999Z</time></trkpt><trkpt lat="40.63583326451429" lon="14.609367501286659"><ele>11.0</ele><time>2026-04-26T10:53:57.999Z</time></trkpt><trkpt lat="40.63585594010959" lon="14.609487061033644"><ele>11.0</ele><time>2026-04-26T10:53:59.999Z</time></trkpt><trkpt lat="40.63581450949605" lon="14.609598128955254"><ele>11.0</ele><time>2026-04-26T10:54:01.999Z</time></trkpt><trkpt lat="40.635764404565386" lon="14.609651165982909"><ele>11.0</ele><time>2026-04-26T10:54:03.999Z</time></trkpt><trkpt lat="40.63572161365566" lon="14.609721553887578"><ele>10.666666666666666</ele><time>2026-04-26T10:54:05.999Z</time></trkpt><trkpt lat="40.63567390755992" lon="14.609833975271473"><ele>10.333333333333332</ele><time>2026-04-26T10:54:07.999Z</time></trkpt><trkpt lat="40.63568064761086" lon="14.610000868281864"><ele>10.0</ele><time>2026-04-26T10:54:09.999Z</time></trkpt><trkpt lat="40.635707144256585" lon="14.610077807567087"><ele>9.666666666666666</ele><time>2026-04-26T10:54:10.999Z</time></trkpt><trkpt lat="40.63574556700303" lon="14.610152205678071"><ele>9.333333333333334</ele><time>2026-04-26T10:54:11.999Z</time></trkpt><trkpt lat="40.635797416094" lon="14.610216473852642"><ele>9.0</ele><time>2026-04-26T10:54:12.999Z</time></trkpt><trkpt lat="40.63587417630256" lon="14.610231489908045"><ele>9.0</ele><time>2026-04-26T10:54:13.999Z</time></trkpt><trkpt lat="40.63599229498877" lon="14.610258254070688"><ele>9.0</ele><time>2026-04-26T10:54:15.999Z</time></trkpt><trkpt lat="40.636078409297724" lon="14.610271481088272"><ele>9.0</ele><time>2026-04-26T10:54:17.999Z</time></trkpt><trkpt lat="40.63614388969286" lon="14.610262799585495"><ele>9.0</ele><time>2026-04-26T10:54:21Z</time></trkpt><trkpt lat="40.63621295774527" lon="14.610254773979376"><ele>9.0</ele><time>2026-04-26T10:54:24Z</time></trkpt><trkpt lat="40.636291323092024" lon="14.610244346325842"><ele>9.0</ele><time>2026-04-26T10:54:28Z</time></trkpt><trkpt lat="40.6363650647777" lon="14.610230766861743"><ele>15.666666666666666</ele><time>2026-04-26T10:54:31Z</time></trkpt><trkpt lat="40.63645013160629" lon="14.610234916539019"><ele>22.333333333333332</ele><time>2026-04-26T10:54:35Z</time></trkpt><trkpt lat="40.63651280263918" lon="14.610204804427003"><ele>29.0</ele><time>2026-04-26T10:54:37Z</time></trkpt><trkpt lat="40.636583045473664" lon="14.610179273659822"><ele>35.666666666666664</ele><time>2026-04-26T10:54:39Z</time></trkpt><trkpt lat="40.63666210280749" lon="14.610185031078919"><ele>42.33333333333333</ele><time>2026-04-26T10:54:41Z</time></trkpt><trkpt lat="40.63672953255234" lon="14.610215921027953"><ele>49.0</ele><time>2026-04-26T10:54:43Z</time></trkpt><trkpt lat="40.63681070858415" lon="14.610263022691518"><ele>49.0</ele><time>2026-04-26T10:54:45Z</time></trkpt><trkpt lat="40.63689250134093" lon="14.610322136431392"><ele>49.0</ele><time>2026-04-26T10:54:47Z</time></trkpt><trkpt lat="40.636969970548755" lon="14.610394520392077"><ele>49.0</ele><time>2026-04-26T10:54:49Z</time></trkpt><trkpt lat="40.63704726470905" lon="14.610481682736925"><ele>49.0</ele><time>2026-04-26T10:54:51Z</time></trkpt><trkpt lat="40.637127920755454" lon="14.610588479997034"><ele>49.0</ele><time>2026-04-26T10:54:53Z</time></trkpt><trkpt lat="40.637211943450154" lon="14.610685032375807"><ele>49.0</ele><time>2026-04-26T10:54:55Z</time></trkpt><trkpt lat="40.63728747610697" lon="14.610794203118024"><ele>49.0</ele><time>2026-04-26T10:54:57Z</time></trkpt><trkpt lat="40.63736899273034" lon="14.610896120212802"><ele>49.0</ele><time>2026-04-26T10:54:59Z</time></trkpt><trkpt lat="40.63743230044947" lon="14.61104011370688"><ele>49.0</ele><time>2026-04-26T10:55:01Z</time></trkpt><trkpt lat="40.63745304532085" lon="14.611193241844404"><ele>49.0</ele><time>2026-04-26T10:55:03Z</time></trkpt><trkpt lat="40.63744655893231" lon="14.611305193807597"><ele>49.0</ele><time>2026-04-26T10:55:05Z</time></trkpt><trkpt lat="40.637404357261026" lon="14.6114007672061"><ele>49.0</ele><time>2026-04-26T10:55:07Z</time></trkpt><trkpt lat="40.637347161505474" lon="14.61144789718186"><ele>49.0</ele><time>2026-04-26T10:55:09Z</time></trkpt><trkpt lat="40.63729826858919" lon="14.611503827428427"><ele>49.0</ele><time>2026-04-26T10:55:11Z</time></trkpt><trkpt lat="40.63724220603534" lon="14.611566431469713"><ele>49.0</ele><time>2026-04-26T10:55:13Z</time></trkpt><trkpt lat="40.63719958249158" lon="14.61162984122398"><ele>49.0</ele><time>2026-04-26T10:55:16Z</time></trkpt><trkpt lat="40.63715433192315" lon="14.61169956715498"><ele>48.99999999999999</ele><time>2026-04-26T10:55:31Z</time></trkpt><trkpt lat="40.63721277531046" lon="14.61187460558659"><ele>49.0</ele><time>2026-04-26T10:55:36Z</time></trkpt><trkpt lat="40.637260586874426" lon="14.611963182409527"><ele>49.0</ele><time>2026-04-26T10:55:38Z</time></trkpt><trkpt lat="40.63730832421833" lon="14.612045308512615"><ele>49.0</ele><time>2026-04-26T10:55:40Z</time></trkpt><trkpt lat="40.637357224888405" lon="14.612117046822998"><ele>48.99999999999999</ele><time>2026-04-26T10:55:42Z</time></trkpt><trkpt lat="40.637413674560335" lon="14.612170674780113"><ele>49.0</ele><time>2026-04-26T10:55:45Z</time></trkpt><trkpt lat="40.6374759286695" lon="14.612221530642062"><ele>47.42857142857143</ele><time>2026-04-26T10:55:48Z</time></trkpt><trkpt lat="40.637546415278926" lon="14.612267222943252"><ele>45.85714285714286</ele><time>2026-04-26T10:55:56.999Z</time></trkpt><trkpt lat="40.63759639850486" lon="14.612331915810115"><ele>44.285714285714285</ele><time>2026-04-26T10:55:58.999Z</time></trkpt><trkpt lat="40.637642438622116" lon="14.612407399051092"><ele>42.714285714285715</ele><time>2026-04-26T10:56:01.999Z</time></trkpt><trkpt lat="40.63769038134304" lon="14.612492348507999"><ele>41.142857142857146</ele><time>2026-04-26T10:56:04.999Z</time></trkpt><trkpt lat="40.63773430378553" lon="14.612553803435237"><ele>39.57142857142857</ele><time>2026-04-26T10:56:07.999Z</time></trkpt><trkpt lat="40.63778808624179" lon="14.612611806771143"><ele>38.0</ele><time>2026-04-26T10:56:18.999Z</time></trkpt><trkpt lat="40.63786136724055" lon="14.612659883684843"><ele>42.8</ele><time>2026-04-26T10:56:21.999Z</time></trkpt><trkpt lat="40.63792059371854" lon="14.61268992195308"><ele>47.599999999999994</ele><time>2026-04-26T10:56:25Z</time></trkpt><trkpt lat="40.638001415386626" lon="14.612721933569205"><ele>52.400000000000006</ele><time>2026-04-26T10:56:28Z</time></trkpt><trkpt lat="40.63807564521756" lon="14.612737359498427"><ele>57.2</ele><time>2026-04-26T10:56:31Z</time></trkpt><trkpt lat="40.63803721989376" lon="14.612519803902822"><ele>62.0</ele><time>2026-04-26T10:56:34Z</time></trkpt><trkpt lat="40.637921033532905" lon="14.612502178642803"><ele>62.00000000000001</ele><time>2026-04-26T10:56:36Z</time></trkpt><trkpt lat="40.637822655398075" lon="14.612459553232505"><ele>62.0</ele><time>2026-04-26T10:56:38Z</time></trkpt><trkpt lat="40.637769760083145" lon="14.612404679983173"><ele>62.0</ele><time>2026-04-26T10:56:39Z</time></trkpt><trkpt lat="40.63772504737241" lon="14.612324421361409"><ele>62.0</ele><time>2026-04-26T10:56:40Z</time></trkpt><trkpt lat="40.63768291705691" lon="14.612245486021505"><ele>62.00000000000001</ele><time>2026-04-26T10:56:41Z</time></trkpt><trkpt lat="40.63762422520368" lon="14.612182778611384"><ele>62.0</ele><time>2026-04-26T10:56:42Z</time></trkpt><trkpt lat="40.637565763092454" lon="14.612125539918491"><ele>59.833333333333336</ele><time>2026-04-26T10:56:43Z</time></trkpt><trkpt lat="40.63750937913609" lon="14.612072759196442"><ele>57.66666666666667</ele><time>2026-04-26T10:56:44Z</time></trkpt><trkpt lat="40.63745153464631" lon="14.612034104551633"><ele>55.5</ele><time>2026-04-26T10:56:45Z</time></trkpt><trkpt lat="40.63740061132427" lon="14.61189524699783"><ele>53.33333333333333</ele><time>2026-04-26T10:56:47Z</time></trkpt><trkpt lat="40.63736795332676" lon="14.611790096049432"><ele>51.166666666666664</ele><time>2026-04-26T10:56:49Z</time></trkpt><trkpt lat="40.63740253849326" lon="14.611687405107372"><ele>49.0</ele><time>2026-04-26T10:56:51Z</time></trkpt><trkpt lat="40.6374979151417" lon="14.61159633246551"><ele>48.99999999999999</ele><time>2026-04-26T10:56:53Z</time></trkpt><trkpt lat="40.63758399838543" lon="14.611526979702692"><ele>49.0</ele><time>2026-04-26T10:56:55Z</time></trkpt><trkpt lat="40.63765092400628" lon="14.611526470327576"><ele>49.0</ele><time>2026-04-26T10:56:58Z</time></trkpt><trkpt lat="40.63761709723238" lon="14.611618324514678"><ele>49.0</ele><time>2026-04-26T10:57:00Z</time></trkpt><trkpt lat="40.63753664634751" lon="14.611650986649638"><ele>48.99999999999999</ele><time>2026-04-26T10:57:01Z</time></trkpt><trkpt lat="40.63746907687766" lon="14.611680143505831"><ele>49.0</ele><time>2026-04-26T10:57:02Z</time></trkpt><trkpt lat="40.63742927247998" lon="14.611750282720408"><ele>48.99999999999999</ele><time>2026-04-26T10:57:03Z</time></trkpt><trkpt lat="40.63743464336131" lon="14.611917288835103"><ele>49.0</ele><time>2026-04-26T10:57:05Z</time></trkpt><trkpt lat="40.63747485151485" lon="14.61198960140652"><ele>49.0</ele><time>2026-04-26T10:57:06Z</time></trkpt><trkpt lat="40.63752880956552" lon="14.612055651097458"><ele>49.0</ele><time>2026-04-26T10:57:07Z</time></trkpt><trkpt lat="40.63758518894251" lon="14.612125428412554"><ele>48.99999999999999</ele><time>2026-04-26T10:57:08Z</time></trkpt><trkpt lat="40.63764473396698" lon="14.61219301651078"><ele>49.0</ele><time>2026-04-26T10:57:09Z</time></trkpt><trkpt lat="40.63772076289724" lon="14.612251566937347"><ele>47.166666666666664</ele><time>2026-04-26T10:57:10Z</time></trkpt><trkpt lat="40.637789959176395" lon="14.612310492494014"><ele>45.33333333333333</ele><time>2026-04-26T10:57:11Z</time></trkpt><trkpt lat="40.637865834535226" lon="14.612354395964175"><ele>43.5</ele><time>2026-04-26T10:57:12Z</time></trkpt><trkpt lat="40.637945517098686" lon="14.612401955727343"><ele>41.666666666666664</ele><time>2026-04-26T10:57:13Z</time></trkpt><trkpt lat="40.63803066533564" lon="14.612411536722467"><ele>39.83333333333333</ele><time>2026-04-26T10:57:14Z</time></trkpt><trkpt lat="40.638115438875595" lon="14.612420757532044"><ele>38.0</ele><time>2026-04-26T10:57:15Z</time></trkpt><trkpt lat="40.638209387803705" lon="14.612439544180551"><ele>42.0</ele><time>2026-04-26T10:57:16Z</time></trkpt><trkpt lat="40.638303640457096" lon="14.612448691060202"><ele>46.0</ele><time>2026-04-26T10:57:17Z</time></trkpt><trkpt lat="40.638390149063014" lon="14.61240609785755"><ele>50.0</ele><time>2026-04-26T10:57:18Z</time></trkpt><trkpt lat="40.638471667575864" lon="14.612388611628537"><ele>54.0</ele><time>2026-04-26T10:57:19Z</time></trkpt><trkpt lat="40.63854202912009" lon="14.61235840004075"><ele>58.00000000000001</ele><time>2026-04-26T10:57:20Z</time></trkpt><trkpt lat="40.6386112480103" lon="14.6123320078818"><ele>62.0</ele><time>2026-04-26T10:57:21Z</time></trkpt><trkpt lat="40.63868294533132" lon="14.612322410038468"><ele>65.16666666666667</ele><time>2026-04-26T10:57:22Z</time></trkpt><trkpt lat="40.638745707494415" lon="14.612363714908138"><ele>68.33333333333334</ele><time>2026-04-26T10:57:23Z</time></trkpt><trkpt lat="40.638808995393454" lon="14.61241021726815"><ele>71.5</ele><time>2026-04-26T10:57:24Z</time></trkpt><trkpt lat="40.63887703091045" lon="14.612449200121347"><ele>74.66666666666667</ele><time>2026-04-26T10:57:25Z</time></trkpt><trkpt lat="40.63894777384157" lon="14.612480721018684"><ele>77.83333333333333</ele><time>2026-04-26T10:57:26Z</time></trkpt><trkpt lat="40.6390256919979" lon="14.612500070722977"><ele>81.0</ele><time>2026-04-26T10:57:27Z</time></trkpt><trkpt lat="40.63910691475129" lon="14.612511556829011"><ele>81.0</ele><time>2026-04-26T10:57:28Z</time></trkpt><trkpt lat="40.639190475569336" lon="14.612513927069415"><ele>81.0</ele><time>2026-04-26T10:57:29Z</time></trkpt><trkpt lat="40.639278645400765" lon="14.612514191731748"><ele>81.0</ele><time>2026-04-26T10:57:30Z</time></trkpt><trkpt lat="40.63936751962698" lon="14.61252860849732"><ele>81.0</ele><time>2026-04-26T10:57:31Z</time></trkpt><trkpt lat="40.639451737784526" lon="14.612480944277177"><ele>81.0</ele><time>2026-04-26T10:57:32Z</time></trkpt><trkpt lat="40.63954156114518" lon="14.612472916144862"><ele>81.0</ele><time>2026-04-26T10:57:33Z</time></trkpt><trkpt lat="40.63961867075383" lon="14.61243625616137"><ele>81.0</ele><time>2026-04-26T10:57:34Z</time></trkpt><trkpt lat="40.63968697572943" lon="14.612446782859891"><ele>81.0</ele><time>2026-04-26T10:57:35Z</time></trkpt><trkpt lat="40.63975196096698" lon="14.612492207406204"><ele>81.0</ele><time>2026-04-26T10:57:36Z</time></trkpt><trkpt lat="40.63979820029877" lon="14.612575757626953"><ele>81.0</ele><time>2026-04-26T10:57:37Z</time></trkpt><trkpt lat="40.63982945882949" lon="14.61267846322478"><ele>81.0</ele><time>2026-04-26T10:57:38Z</time></trkpt><trkpt lat="40.63986178480572" lon="14.612785537736022"><ele>81.0</ele><time>2026-04-26T10:57:39Z</time></trkpt><trkpt lat="40.63990189867198" lon="14.612888769555054"><ele>81.0</ele><time>2026-04-26T10:57:40Z</time></trkpt><trkpt lat="40.63995544118435" lon="14.61298206087333"><ele>81.0</ele><time>2026-04-26T10:57:41Z</time></trkpt><trkpt lat="40.6400227245773" lon="14.613064201564903"><ele>81.0</ele><time>2026-04-26T10:57:42Z</time></trkpt><trkpt lat="40.640094567010216" lon="14.613144398667933"><ele>81.0</ele><time>2026-04-26T10:57:43Z</time></trkpt><trkpt lat="40.64017001405006" lon="14.613225561891612"><ele>81.0</ele><time>2026-04-26T10:57:44Z</time></trkpt><trkpt lat="40.64024164223189" lon="14.613304249781404"><ele>86.4</ele><time>2026-04-26T10:57:45Z</time></trkpt><trkpt lat="40.64030555436656" lon="14.613401068175829"><ele>91.8</ele><time>2026-04-26T10:57:46Z</time></trkpt><trkpt lat="40.640353371251045" lon="14.613525310860759"><ele>97.20000000000002</ele><time>2026-04-26T10:57:47Z</time></trkpt><trkpt lat="40.64038676848682" lon="14.613660473659676"><ele>102.60000000000001</ele><time>2026-04-26T10:57:48Z</time></trkpt><trkpt lat="40.640403517884096" lon="14.613793712956245"><ele>108.0</ele><time>2026-04-26T10:57:49Z</time></trkpt><trkpt lat="40.64044270401633" lon="14.613913813663649"><ele>108.0</ele><time>2026-04-26T10:57:50Z</time></trkpt><trkpt lat="40.640473876284545" lon="14.614035280877893"><ele>108.00000000000001</ele><time>2026-04-26T10:57:51Z</time></trkpt><trkpt lat="40.640520080731704" lon="14.614145025370425"><ele>108.00000000000001</ele><time>2026-04-26T10:57:52Z</time></trkpt><trkpt lat="40.6405797276526" lon="14.614245646070959"><ele>108.0</ele><time>2026-04-26T10:57:53Z</time></trkpt><trkpt lat="40.64066548944612" lon="14.61432918881258"><ele>108.0</ele><time>2026-04-26T10:57:54Z</time></trkpt><trkpt lat="40.640749954673886" lon="14.614415148987243"><ele>107.2</ele><time>2026-04-26T10:57:55Z</time></trkpt><trkpt lat="40.64084247514052" lon="14.61450820354739"><ele>106.4</ele><time>2026-04-26T10:57:56Z</time></trkpt><trkpt lat="40.640935990428595" lon="14.614589915722261"><ele>105.60000000000001</ele><time>2026-04-26T10:57:57Z</time></trkpt><trkpt lat="40.64102671697741" lon="14.61465338248938"><ele>104.80000000000001</ele><time>2026-04-26T10:57:58Z</time></trkpt><trkpt lat="40.64111977377358" lon="14.614677198609327"><ele>104.0</ele><time>2026-04-26T10:57:58.999Z</time></trkpt><trkpt lat="40.64120297366418" lon="14.614656908179835"><ele>103.99999999999999</ele><time>2026-04-26T10:57:59.999Z</time></trkpt><trkpt lat="40.641267128402866" lon="14.614641619292577"><ele>104.0</ele><time>2026-04-26T10:58:00.999Z</time></trkpt><trkpt lat="40.641306620677085" lon="14.614536270971117"><ele>104.0</ele><time>2026-04-26T10:58:02.999Z</time></trkpt><trkpt lat="40.6412418691106" lon="14.614427663320734"><ele>104.0</ele><time>2026-04-26T10:58:04.999Z</time></trkpt><trkpt lat="40.64114920934115" lon="14.614449110327318"><ele>103.99999999999999</ele><time>2026-04-26T10:58:05.999Z</time></trkpt><trkpt lat="40.64108373927227" lon="14.614481392123205"><ele>104.0</ele><time>2026-04-26T10:58:06.999Z</time></trkpt><trkpt lat="40.64097077706903" lon="14.61443875410146"><ele>104.80000000000001</ele><time>2026-04-26T10:58:08.999Z</time></trkpt><trkpt lat="40.64092891192228" lon="14.614366770441412"><ele>105.60000000000001</ele><time>2026-04-26T10:58:09.999Z</time></trkpt><trkpt lat="40.64086533052265" lon="14.61429607649123"><ele>106.4</ele><time>2026-04-26T10:58:10.999Z</time></trkpt><trkpt lat="40.64080431317339" lon="14.614220497934898"><ele>107.2</ele><time>2026-04-26T10:58:11.999Z</time></trkpt><trkpt lat="40.640700023817885" lon="14.614051357303016"><ele>108.0</ele><time>2026-04-26T10:58:13.999Z</time></trkpt><trkpt lat="40.64067222193348" lon="14.613954850081372"><ele>108.0</ele><time>2026-04-26T10:58:14.999Z</time></trkpt><trkpt lat="40.64066238183751" lon="14.61385255681206"><ele>108.0</ele><time>2026-04-26T10:58:15.999Z</time></trkpt><trkpt lat="40.64063833326473" lon="14.613753558107549"><ele>108.0</ele><time>2026-04-26T10:58:16.999Z</time></trkpt><trkpt lat="40.64063396502767" lon="14.613639838895677"><ele>108.0</ele><time>2026-04-26T10:58:17.999Z</time></trkpt><trkpt lat="40.64065820116451" lon="14.613524464604762"><ele>108.0</ele><time>2026-04-26T10:58:18.999Z</time></trkpt><trkpt lat="40.64068024640188" lon="14.613404361945475"><ele>108.0</ele><time>2026-04-26T10:58:19.999Z</time></trkpt><trkpt lat="40.64069025231648" lon="14.613286689640585"><ele>112.16666666666667</ele><time>2026-04-26T10:58:20.999Z</time></trkpt><trkpt lat="40.64069301201771" lon="14.61318249555921"><ele>116.33333333333334</ele><time>2026-04-26T10:58:21.999Z</time></trkpt><trkpt lat="40.64066272858889" lon="14.613079536251819"><ele>120.5</ele><time>2026-04-26T10:58:22.999Z</time></trkpt><trkpt lat="40.64060907981243" lon="14.612982059717883"><ele>124.66666666666667</ele><time>2026-04-26T10:58:23.999Z</time></trkpt><trkpt lat="40.64054923028167" lon="14.612889869425324"><ele>128.83333333333334</ele><time>2026-04-26T10:58:24.999Z</time></trkpt><trkpt lat="40.64048897244947" lon="14.612799894326612"><ele>133.0</ele><time>2026-04-26T10:58:25.999Z</time></trkpt><trkpt lat="40.640432403368784" lon="14.612697176804701"><ele>136.6</ele><time>2026-04-26T10:58:26.999Z</time></trkpt><trkpt lat="40.640381446199285" lon="14.612583999278197"><ele>140.20000000000002</ele><time>2026-04-26T10:58:27.999Z</time></trkpt><trkpt lat="40.64033630764343" lon="14.612463919380481"><ele>143.8</ele><time>2026-04-26T10:58:28.999Z</time></trkpt><trkpt lat="40.640299713177555" lon="14.61234289675862"><ele>147.4</ele><time>2026-04-26T10:58:29.999Z</time></trkpt><trkpt lat="40.64026432368917" lon="14.612222926195031"><ele>151.0</ele><time>2026-04-26T10:58:30.999Z</time></trkpt><trkpt lat="40.64023142162045" lon="14.612109033890452"><ele>150.4</ele><time>2026-04-26T10:58:31.999Z</time></trkpt><trkpt lat="40.6401953829316" lon="14.612003484472032"><ele>149.8</ele><time>2026-04-26T10:58:32.999Z</time></trkpt><trkpt lat="40.64015470910666" lon="14.611907490517602"><ele>149.20000000000002</ele><time>2026-04-26T10:58:33.999Z</time></trkpt><trkpt lat="40.640109002592276" lon="14.611822089194897"><ele>148.6</ele><time>2026-04-26T10:58:34.999Z</time></trkpt><trkpt lat="40.63998407274847" lon="14.611677782196857"><ele>148.0</ele><time>2026-04-26T10:58:36.999Z</time></trkpt><trkpt lat="40.63988991601832" lon="14.611676150468028"><ele>148.0</ele><time>2026-04-26T10:58:37.999Z</time></trkpt><trkpt lat="40.63979876076753" lon="14.61166395676049"><ele>148.0</ele><time>2026-04-26T10:58:38.999Z</time></trkpt><trkpt lat="40.63970889884148" lon="14.611658497009389"><ele>148.0</ele><time>2026-04-26T10:58:39.999Z</time></trkpt><trkpt lat="40.639630987632245" lon="14.61164289308818"><ele>148.0</ele><time>2026-04-26T10:58:40.999Z</time></trkpt><trkpt lat="40.63956733669551" lon="14.611621219297634"><ele>148.0</ele><time>2026-04-26T10:58:41.999Z</time></trkpt><trkpt lat="40.63948604978887" lon="14.611593687943103"><ele>148.0</ele><time>2026-04-26T10:58:43.999Z</time></trkpt><trkpt lat="40.6394247708458" lon="14.611538976452678"><ele>144.57142857142858</ele><time>2026-04-26T10:58:45.999Z</time></trkpt><trkpt lat="40.63933780487538" lon="14.611473944730566"><ele>141.14285714285714</ele><time>2026-04-26T10:58:47.999Z</time></trkpt><trkpt lat="40.6392842119112" lon="14.61142796268887"><ele>137.71428571428572</ele><time>2026-04-26T10:58:48.999Z</time></trkpt><trkpt lat="40.63922501244539" lon="14.611376742267838"><ele>134.28571428571428</ele><time>2026-04-26T10:58:49.999Z</time></trkpt><trkpt lat="40.639168537869345" lon="14.611327879157276"><ele>130.85714285714286</ele><time>2026-04-26T10:58:51Z</time></trkpt><trkpt lat="40.63911233053898" lon="14.61127856581349"><ele>127.42857142857143</ele><time>2026-04-26T10:58:52Z</time></trkpt><trkpt lat="40.639057098408955" lon="14.611230375308491"><ele>124.0</ele><time>2026-04-26T10:58:53Z</time></trkpt><trkpt lat="40.63900174126014" lon="14.61118347628587"><ele>129.66666666666669</ele><time>2026-04-26T10:58:54Z</time></trkpt><trkpt lat="40.63893354818069" lon="14.611124363170953"><ele>135.33333333333334</ele><time>2026-04-26T10:58:56Z</time></trkpt><trkpt lat="40.63887284394485" lon="14.61108974772992"><ele>141.0</ele><time>2026-04-26T11:01:34Z</time></trkpt><trkpt lat="40.638805676245" lon="14.611026035362972"><ele>146.66666666666666</ele><time>2026-04-26T11:07:15.001Z</time></trkpt><trkpt lat="40.638741314545896" lon="14.61093621334746"><ele>152.33333333333331</ele><time>2026-04-26T11:07:17.001Z</time></trkpt><trkpt lat="40.63872256617573" lon="14.610829924366985"><ele>158.0</ele><time>2026-04-26T11:07:18.001Z</time></trkpt><trkpt lat="40.63868429425547" lon="14.61071557291822"><ele>156.25</ele><time>2026-04-26T11:07:19.001Z</time></trkpt><trkpt lat="40.638629073831005" lon="14.610587089125355"><ele>154.5</ele><time>2026-04-26T11:07:20.001Z</time></trkpt><trkpt lat="40.638549649902764" lon="14.610458233284925"><ele>152.75</ele><time>2026-04-26T11:07:21.001Z</time></trkpt><trkpt lat="40.638462847076504" lon="14.610345461001147"><ele>151.0</ele><time>2026-04-26T11:07:22.001Z</time></trkpt><trkpt lat="40.63836848810399" lon="14.610234272183964"><ele>151.0</ele><time>2026-04-26T11:07:23.001Z</time></trkpt><trkpt lat="40.638278753430086" lon="14.610139470490097"><ele>151.0</ele><time>2026-04-26T11:07:24.001Z</time></trkpt><trkpt lat="40.63817081037241" lon="14.610086345948641"><ele>151.0</ele><time>2026-04-26T11:07:25.001Z</time></trkpt><trkpt lat="40.638071027463596" lon="14.610048597823281"><ele>151.0</ele><time>2026-04-26T11:07:26.001Z</time></trkpt><trkpt lat="40.63797493216153" lon="14.610007054880146"><ele>151.0</ele><time>2026-04-26T11:07:27.001Z</time></trkpt><trkpt lat="40.637893565161164" lon="14.60994890613421"><ele>151.0</ele><time>2026-04-26T11:07:28.001Z</time></trkpt><trkpt lat="40.637827686094745" lon="14.609862260217717"><ele>151.0</ele><time>2026-04-26T11:07:29.001Z</time></trkpt><trkpt lat="40.63777459206591" lon="14.60975084873085"><ele>151.0</ele><time>2026-04-26T11:07:30.001Z</time></trkpt><trkpt lat="40.63772333692161" lon="14.60963538054331"><ele>151.0</ele><time>2026-04-26T11:07:31.001Z</time></trkpt><trkpt lat="40.63768520378822" lon="14.609511228479946"><ele>151.0</ele><time>2026-04-26T11:07:32.001Z</time></trkpt><trkpt lat="40.637653091144834" lon="14.609246134505721"><ele>152.5</ele><time>2026-04-26T11:07:34.001Z</time></trkpt><trkpt lat="40.63766061091057" lon="14.609130554324521"><ele>154.0</ele><time>2026-04-26T11:07:35.001Z</time></trkpt><trkpt lat="40.6376876768067" lon="14.609028857129662"><ele>155.5</ele><time>2026-04-26T11:07:36.001Z</time></trkpt><trkpt lat="40.63773871405364" lon="14.608939510348248"><ele>157.0</ele><time>2026-04-26T11:07:37.001Z</time></trkpt><trkpt lat="40.63781473360408" lon="14.608868975224773"><ele>158.5</ele><time>2026-04-26T11:07:38.001Z</time></trkpt><trkpt lat="40.63788535730215" lon="14.608786345015705"><ele>160.0</ele><time>2026-04-26T11:07:39.001Z</time></trkpt><trkpt lat="40.637959717716356" lon="14.608701577508025"><ele>152.5</ele><time>2026-04-26T11:07:40.001Z</time></trkpt><trkpt lat="40.6380436181781" lon="14.60862814425249"><ele>145.0</ele><time>2026-04-26T11:07:41.001Z</time></trkpt><trkpt lat="40.63813279446617" lon="14.608551918585562"><ele>137.5</ele><time>2026-04-26T11:07:42.001Z</time></trkpt><trkpt lat="40.638210978969894" lon="14.608481262623227"><ele>130.0</ele><time>2026-04-26T11:07:43.001Z</time></trkpt><trkpt lat="40.638267203149866" lon="14.608406746287573"><ele>122.50000000000001</ele><time>2026-04-26T11:07:44.001Z</time></trkpt><trkpt lat="40.63832614493505" lon="14.608364253438278"><ele>115.0</ele><time>2026-04-26T11:07:45.001Z</time></trkpt><trkpt lat="40.63838802332021" lon="14.608339662931495"><ele>115.00000000000001</ele><time>2026-04-26T11:07:46.001Z</time></trkpt><trkpt lat="40.63845982310943" lon="14.60834086601782"><ele>115.0</ele><time>2026-04-26T11:07:47.001Z</time></trkpt><trkpt lat="40.63852729648149" lon="14.608355614648687"><ele>115.0</ele><time>2026-04-26T11:07:48.001Z</time></trkpt><trkpt lat="40.63863245557798" lon="14.60843663218034"><ele>115.0</ele><time>2026-04-26T11:07:50.001Z</time></trkpt><trkpt lat="40.63867685979346" lon="14.608500356319949"><ele>115.00000000000001</ele><time>2026-04-26T11:07:51.001Z</time></trkpt><trkpt lat="40.638734554480614" lon="14.608564340287893"><ele>115.0</ele><time>2026-04-26T11:07:52.001Z</time></trkpt><trkpt lat="40.63880377966639" lon="14.608596195499047"><ele>118.85714285714283</ele><time>2026-04-26T11:07:53.001Z</time></trkpt><trkpt lat="40.63887446733342" lon="14.608637636317967"><ele>122.71428571428571</ele><time>2026-04-26T11:07:54.001Z</time></trkpt><trkpt lat="40.63894759254078" lon="14.6086117766996"><ele>126.57142857142856</ele><time>2026-04-26T11:07:55.001Z</time></trkpt><trkpt lat="40.63901633126152" lon="14.608593518188808"><ele>130.42857142857142</ele><time>2026-04-26T11:07:56.001Z</time></trkpt><trkpt lat="40.639088370404664" lon="14.608582853940124"><ele>134.28571428571428</ele><time>2026-04-26T11:07:57.001Z</time></trkpt><trkpt lat="40.6391489765042" lon="14.608536824439406"><ele>138.14285714285714</ele><time>2026-04-26T11:07:58.001Z</time></trkpt><trkpt lat="40.639175222264335" lon="14.608438188239308"><ele>142.0</ele><time>2026-04-26T11:07:59.001Z</time></trkpt><trkpt lat="40.63923492244831" lon="14.608314778564662"><ele>142.0</ele><time>2026-04-26T11:08:01.001Z</time></trkpt><trkpt lat="40.6393424176657" lon="14.608258227256801"><ele>142.0</ele><time>2026-04-26T11:08:03.001Z</time></trkpt><trkpt lat="40.63940521456066" lon="14.608280673217447"><ele>142.0</ele><time>2026-04-26T11:08:04.001Z</time></trkpt><trkpt lat="40.639459270101554" lon="14.608348010817968"><ele>142.0</ele><time>2026-04-26T11:08:05.001Z</time></trkpt><trkpt lat="40.63952766778666" lon="14.60838156130203"><ele>142.0</ele><time>2026-04-26T11:08:06.001Z</time></trkpt><trkpt lat="40.639590364749836" lon="14.608442174222445"><ele>142.0</ele><time>2026-04-26T11:08:07.001Z</time></trkpt><trkpt lat="40.63965392607605" lon="14.608491786691822"><ele>143.66666666666669</ele><time>2026-04-26T11:08:08.001Z</time></trkpt><trkpt lat="40.63971834497051" lon="14.608527114960186"><ele>145.33333333333334</ele><time>2026-04-26T11:08:09.001Z</time></trkpt><trkpt lat="40.639794386785" lon="14.608537886198567"><ele>147.0</ele><time>2026-04-26T11:08:10.001Z</time></trkpt><trkpt lat="40.63986576552381" lon="14.608517031347333"><ele>148.66666666666666</ele><time>2026-04-26T11:08:11.001Z</time></trkpt><trkpt lat="40.63993192988919" lon="14.608475364407486"><ele>150.33333333333331</ele><time>2026-04-26T11:08:12.001Z</time></trkpt><trkpt lat="40.64000021126533" lon="14.608425668398173"><ele>152.0</ele><time>2026-04-26T11:08:13.001Z</time></trkpt><trkpt lat="40.64005667573337" lon="14.608331574900252"><ele>152.0</ele><time>2026-04-26T11:08:14.001Z</time></trkpt><trkpt lat="40.640096883652824" lon="14.608229088046768"><ele>152.0</ele><time>2026-04-26T11:08:15.001Z</time></trkpt><trkpt lat="40.640133153505886" lon="14.608133929578058"><ele>152.0</ele><time>2026-04-26T11:08:16.001Z</time></trkpt><trkpt lat="40.64017781503255" lon="14.60806005881722"><ele>152.0</ele><time>2026-04-26T11:08:17.001Z</time></trkpt><trkpt lat="40.64023009674086" lon="14.607993047631545"><ele>152.0</ele><time>2026-04-26T11:08:18.001Z</time></trkpt><trkpt lat="40.640373730662354" lon="14.607930674860146"><ele>158.2</ele><time>2026-04-26T11:08:20.001Z</time></trkpt><trkpt lat="40.640462353858645" lon="14.607913834561705"><ele>164.39999999999998</ele><time>2026-04-26T11:08:21.001Z</time></trkpt><trkpt lat="40.640555687775326" lon="14.607885700008477"><ele>170.60000000000002</ele><time>2026-04-26T11:08:22.001Z</time></trkpt><trkpt lat="40.640650097995405" lon="14.607879934089944"><ele>176.8</ele><time>2026-04-26T11:08:23.001Z</time></trkpt><trkpt lat="40.640744536747476" lon="14.607869739881718"><ele>183.0</ele><time>2026-04-26T11:08:24.001Z</time></trkpt><trkpt lat="40.640831635907354" lon="14.607851166065696"><ele>183.0</ele><time>2026-04-26T11:08:25.001Z</time></trkpt><trkpt lat="40.64091726053995" lon="14.60784702487777"><ele>183.0</ele><time>2026-04-26T11:08:26.001Z</time></trkpt><trkpt lat="40.64100424981617" lon="14.60785723852234"><ele>183.0</ele><time>2026-04-26T11:08:27.001Z</time></trkpt><trkpt lat="40.64109373321881" lon="14.607867394010539"><ele>183.0</ele><time>2026-04-26T11:08:28.001Z</time></trkpt><trkpt lat="40.641187921620684" lon="14.607874912249907"><ele>183.0</ele><time>2026-04-26T11:08:29Z</time></trkpt><trkpt lat="40.641283912421976" lon="14.607860030737452"><ele>174.8</ele><time>2026-04-26T11:08:30Z</time></trkpt><trkpt lat="40.64137468351451" lon="14.607818985947079"><ele>166.60000000000002</ele><time>2026-04-26T11:08:31Z</time></trkpt><trkpt lat="40.64146806982674" lon="14.60777420556803"><ele>158.39999999999998</ele><time>2026-04-26T11:08:32Z</time></trkpt><trkpt lat="40.641552898279386" lon="14.607708139408269"><ele>150.2</ele><time>2026-04-26T11:08:33Z</time></trkpt><trkpt lat="40.641637091991925" lon="14.607642121203506"><ele>142.0</ele><time>2026-04-26T11:08:34Z</time></trkpt><trkpt lat="40.641721217801994" lon="14.607587356734578"><ele>142.0</ele><time>2026-04-26T11:08:35Z</time></trkpt><trkpt lat="40.641806005532835" lon="14.607538609163463"><ele>142.0</ele><time>2026-04-26T11:08:36Z</time></trkpt><trkpt lat="40.64188344709835" lon="14.607498901643911"><ele>142.0</ele><time>2026-04-26T11:08:37Z</time></trkpt><trkpt lat="40.64195283935141" lon="14.607467402239713"><ele>142.0</ele><time>2026-04-26T11:08:38Z</time></trkpt><trkpt lat="40.64201819945982" lon="14.607444004138273"><ele>142.0</ele><time>2026-04-26T11:08:39Z</time></trkpt><trkpt lat="40.642101683579945" lon="14.607476193348118"><ele>142.0</ele><time>2026-04-26T11:08:40Z</time></trkpt><trkpt lat="40.64220074869913" lon="14.607519825326609"><ele>144.75</ele><time>2026-04-26T11:08:41Z</time></trkpt><trkpt lat="40.6423311237986" lon="14.607553437531003"><ele>147.5</ele><time>2026-04-26T11:08:42Z</time></trkpt><trkpt lat="40.642461089212766" lon="14.607583133396465"><ele>150.25</ele><time>2026-04-26T11:08:43Z</time></trkpt><trkpt lat="40.64259451393643" lon="14.607592467620437"><ele>153.0</ele><time>2026-04-26T11:08:44Z</time></trkpt><trkpt lat="40.64272152792186" lon="14.607591014574805"><ele>153.0</ele><time>2026-04-26T11:08:45Z</time></trkpt><trkpt lat="40.642845301004044" lon="14.607588066759007"><ele>153.0</ele><time>2026-04-26T11:08:46Z</time></trkpt><trkpt lat="40.64297585304538" lon="14.607590793640572"><ele>153.0</ele><time>2026-04-26T11:08:47Z</time></trkpt><trkpt lat="40.64310672958069" lon="14.607606145008994"><ele>153.0</ele><time>2026-04-26T11:08:48Z</time></trkpt><trkpt lat="40.6432359568037" lon="14.607613449860416"><ele>160.5</ele><time>2026-04-26T11:08:49Z</time></trkpt><trkpt lat="40.643363553477" lon="14.607606397815013"><ele>168.0</ele><time>2026-04-26T11:08:50Z</time></trkpt><trkpt lat="40.643487028969595" lon="14.607586737304976"><ele>175.5</ele><time>2026-04-26T11:08:51Z</time></trkpt><trkpt lat="40.643598998143844" lon="14.60756221087636"><ele>183.0</ele><time>2026-04-26T11:08:52Z</time></trkpt><trkpt lat="40.6436992000366" lon="14.60753967122573"><ele>183.0</ele><time>2026-04-26T11:08:53Z</time></trkpt><trkpt lat="40.64379064389427" lon="14.607530210060359"><ele>183.0</ele><time>2026-04-26T11:08:54Z</time></trkpt><trkpt lat="40.64387106543564" lon="14.607562376192682"><ele>183.0</ele><time>2026-04-26T11:08:55Z</time></trkpt><trkpt lat="40.64395158120965" lon="14.607617687099715"><ele>183.0</ele><time>2026-04-26T11:08:56Z</time></trkpt><trkpt lat="40.6440203094998" lon="14.607700958627015"><ele>183.0</ele><time>2026-04-26T11:08:57Z</time></trkpt><trkpt lat="40.64408732008455" lon="14.607788015496007"><ele>186.60000000000002</ele><time>2026-04-26T11:08:58Z</time></trkpt><trkpt lat="40.64415303614156" lon="14.607880691374818"><ele>190.20000000000002</ele><time>2026-04-26T11:08:59Z</time></trkpt><trkpt lat="40.644247562202416" lon="14.607927189673271"><ele>193.8</ele><time>2026-04-26T11:09:00Z</time></trkpt><trkpt lat="40.64434280746671" lon="14.607937014313691"><ele>197.4</ele><time>2026-04-26T11:09:01Z</time></trkpt><trkpt lat="40.644439182978005" lon="14.607973851633012"><ele>201.0</ele><time>2026-04-26T11:09:02Z</time></trkpt><trkpt lat="40.644526073964556" lon="14.60804401670555"><ele>201.0</ele><time>2026-04-26T11:09:03Z</time></trkpt><trkpt lat="40.64461162074179" lon="14.60811827832268"><ele>201.0</ele><time>2026-04-26T11:09:04Z</time></trkpt><trkpt lat="40.64470149174752" lon="14.608178225197008"><ele>201.0</ele><time>2026-04-26T11:09:05Z</time></trkpt><trkpt lat="40.64479412169367" lon="14.60821421474893"><ele>201.0</ele><time>2026-04-26T11:09:06Z</time></trkpt><trkpt lat="40.644889994135525" lon="14.608223763314433"><ele>201.0</ele><time>2026-04-26T11:09:07Z</time></trkpt><trkpt lat="40.64498323314075" lon="14.608236706931285"><ele>201.0</ele><time>2026-04-26T11:09:08Z</time></trkpt><trkpt lat="40.645067061054235" lon="14.608206772750277"><ele>201.0</ele><time>2026-04-26T11:09:09Z</time></trkpt><trkpt lat="40.64511822639198" lon="14.608149040406769"><ele>201.0</ele><time>2026-04-26T11:09:10Z</time></trkpt><trkpt lat="40.645189901932994" lon="14.6080812475728"><ele>201.0</ele><time>2026-04-26T11:09:12Z</time></trkpt><trkpt lat="40.64522356192647" lon="14.608171159560793"><ele>201.0</ele><time>2026-04-26T11:09:14Z</time></trkpt><trkpt lat="40.64512366954094" lon="14.608263411140467"><ele>201.0</ele><time>2026-04-26T11:09:16Z</time></trkpt><trkpt lat="40.64504052870882" lon="14.608282072374658"><ele>201.0</ele><time>2026-04-26T11:09:17Z</time></trkpt><trkpt lat="40.64496210268245" lon="14.608293757456796"><ele>201.0</ele><time>2026-04-26T11:09:18Z</time></trkpt><trkpt lat="40.64487119802223" lon="14.608299643086674"><ele>201.0</ele><time>2026-04-26T11:09:19Z</time></trkpt><trkpt lat="40.64478188197708" lon="14.608301894137213"><ele>201.0</ele><time>2026-04-26T11:09:20Z</time></trkpt><trkpt lat="40.6446938168261" lon="14.60830188230293"><ele>201.0</ele><time>2026-04-26T11:09:21Z</time></trkpt><trkpt lat="40.64460162841227" lon="14.608265147749343"><ele>201.0</ele><time>2026-04-26T11:09:22Z</time></trkpt><trkpt lat="40.64451741263262" lon="14.608202722726807"><ele>219.8</ele><time>2026-04-26T11:09:23Z</time></trkpt><trkpt lat="40.64442750451332" lon="14.608147444465732"><ele>238.60000000000002</ele><time>2026-04-26T11:09:24Z</time></trkpt><trkpt lat="40.644330614569625" lon="14.608128338988728"><ele>257.4</ele><time>2026-04-26T11:09:25Z</time></trkpt><trkpt lat="40.644234184584654" lon="14.608147377866151"><ele>276.2</ele><time>2026-04-26T11:09:26Z</time></trkpt><trkpt lat="40.64415915467077" lon="14.608149370767064"><ele>295.0</ele><time>2026-04-26T11:09:27Z</time></trkpt><trkpt lat="40.64404559432107" lon="14.608138738097145"><ele>295.0</ele><time>2026-04-26T11:09:29Z</time></trkpt><trkpt lat="40.643998272112746" lon="14.60806073087369"><ele>295.0</ele><time>2026-04-26T11:09:30Z</time></trkpt><trkpt lat="40.643965380766225" lon="14.607955576101697"><ele>295.0</ele><time>2026-04-26T11:09:31Z</time></trkpt><trkpt lat="40.64393108559917" lon="14.60787008033955"><ele>295.0</ele><time>2026-04-26T11:09:32.001Z</time></trkpt><trkpt lat="40.64385753157767" lon="14.60778098369218"><ele>295.0</ele><time>2026-04-26T11:09:34.001Z</time></trkpt><trkpt lat="40.64377723091071" lon="14.607877279047447"><ele>295.0</ele><time>2026-04-26T11:09:36.001Z</time></trkpt><trkpt lat="40.64383381445497" lon="14.607999219482396"><ele>295.0</ele><time>2026-04-26T11:09:38.001Z</time></trkpt><trkpt lat="40.643896398601825" lon="14.608062576824619"><ele>295.0</ele><time>2026-04-26T11:09:39.001Z</time></trkpt><trkpt lat="40.64395541458018" lon="14.608156393556948"><ele>295.0</ele><time>2026-04-26T11:09:40.001Z</time></trkpt><trkpt lat="40.64402286245458" lon="14.608234730792907"><ele>295.0</ele><time>2026-04-26T11:09:41.001Z</time></trkpt><trkpt lat="40.644106365143244" lon="14.608272433581043"><ele>295.0</ele><time>2026-04-26T11:09:42.001Z</time></trkpt><trkpt lat="40.644194646735" lon="14.608299174449972"><ele>295.0</ele><time>2026-04-26T11:09:43.001Z</time></trkpt><trkpt lat="40.644291131054004" lon="14.60831641841702"><ele>295.0</ele><time>2026-04-26T11:09:44.001Z</time></trkpt><trkpt lat="40.64438401343512" lon="14.608361663637586"><ele>295.0</ele><time>2026-04-26T11:09:45.001Z</time></trkpt><trkpt lat="40.64448911067378" lon="14.608415784377511"><ele>295.0</ele><time>2026-04-26T11:09:46.001Z</time></trkpt><trkpt lat="40.64458830739495" lon="14.608493696895184"><ele>295.0</ele><time>2026-04-26T11:09:47.001Z</time></trkpt><trkpt lat="40.64469011810036" lon="14.60855676167221"><ele>295.0</ele><time>2026-04-26T11:09:48.001Z</time></trkpt><trkpt lat="40.64479585444644" lon="14.608591227408574"><ele>271.5</ele><time>2026-04-26T11:09:49.001Z</time></trkpt><trkpt lat="40.64491967255825" lon="14.608571935653774"><ele>248.0</ele><time>2026-04-26T11:09:50.001Z</time></trkpt><trkpt lat="40.64505499344519" lon="14.608532134109561"><ele>224.5</ele><time>2026-04-26T11:09:51.001Z</time></trkpt><trkpt lat="40.645171536230606" lon="14.608493447423836"><ele>201.0</ele><time>2026-04-26T11:09:52.001Z</time></trkpt><trkpt lat="40.645270586463795" lon="14.608421188713143"><ele>207.8</ele><time>2026-04-26T11:09:53.001Z</time></trkpt><trkpt lat="40.645353193739446" lon="14.608324209420172"><ele>214.60000000000002</ele><time>2026-04-26T11:09:54.001Z</time></trkpt><trkpt lat="40.645436565529316" lon="14.608234029899132"><ele>221.4</ele><time>2026-04-26T11:09:55.001Z</time></trkpt><trkpt lat="40.6455391684981" lon="14.608189130847377"><ele>228.2</ele><time>2026-04-26T11:09:56.001Z</time></trkpt><trkpt lat="40.64564088592005" lon="14.608167761484793"><ele>235.0</ele><time>2026-04-26T11:09:57.001Z</time></trkpt><trkpt lat="40.64574061199453" lon="14.608141552735237"><ele>235.0</ele><time>2026-04-26T11:09:58.001Z</time></trkpt><trkpt lat="40.6458410414202" lon="14.608119847377802"><ele>235.0</ele><time>2026-04-26T11:09:59.001Z</time></trkpt><trkpt lat="40.645944177928335" lon="14.608109335836707"><ele>235.0</ele><time>2026-04-26T11:10:00.001Z</time></trkpt><trkpt lat="40.64605416796859" lon="14.608105303179382"><ele>235.0</ele><time>2026-04-26T11:10:01.001Z</time></trkpt><trkpt lat="40.64617323188348" lon="14.60809118578013"><ele>235.0</ele><time>2026-04-26T11:10:02.001Z</time></trkpt><trkpt lat="40.646293355500845" lon="14.608045840983204"><ele>240.0</ele><time>2026-04-26T11:10:03.001Z</time></trkpt><trkpt lat="40.64642705535153" lon="14.6080070126867"><ele>245.0</ele><time>2026-04-26T11:10:04.001Z</time></trkpt><trkpt lat="40.646564435803306" lon="14.607968620551539"><ele>250.0</ele><time>2026-04-26T11:10:05.001Z</time></trkpt><trkpt lat="40.64670065091035" lon="14.607929839140603"><ele>255.0</ele><time>2026-04-26T11:10:06.001Z</time></trkpt><trkpt lat="40.64683005605232" lon="14.60788991644786"><ele>255.0</ele><time>2026-04-26T11:10:07.001Z</time></trkpt><trkpt lat="40.64695282912998" lon="14.607845486147253"><ele>255.0</ele><time>2026-04-26T11:10:08.001Z</time></trkpt><trkpt lat="40.64706452889801" lon="14.607810180071574"><ele>255.0</ele><time>2026-04-26T11:10:09.001Z</time></trkpt><trkpt lat="40.647174801371854" lon="14.607806544049787"><ele>255.0</ele><time>2026-04-26T11:10:10.001Z</time></trkpt><trkpt lat="40.647268405027106" lon="14.607777341734868"><ele>255.0</ele><time>2026-04-26T11:10:11.001Z</time></trkpt><trkpt lat="40.64735860218936" lon="14.607771162590591"><ele>254.0</ele><time>2026-04-26T11:10:12.001Z</time></trkpt><trkpt lat="40.647449134952865" lon="14.607762088377358"><ele>253.0</ele><time>2026-04-26T11:10:13.001Z</time></trkpt><trkpt lat="40.64754020134106" lon="14.60778130787175"><ele>252.0</ele><time>2026-04-26T11:10:14.001Z</time></trkpt><trkpt lat="40.6476455266922" lon="14.607817469370765"><ele>251.0</ele><time>2026-04-26T11:10:15.001Z</time></trkpt><trkpt lat="40.64775190231609" lon="14.60785253070029"><ele>250.0</ele><time>2026-04-26T11:10:16.001Z</time></trkpt><trkpt lat="40.647981582859956" lon="14.60790593934023"><ele>253.5</ele><time>2026-04-26T11:10:18.001Z</time></trkpt><trkpt lat="40.64809862022729" lon="14.607934370389762"><ele>257.0</ele><time>2026-04-26T11:10:19.001Z</time></trkpt><trkpt lat="40.648214060978255" lon="14.607971051294497"><ele>260.5</ele><time>2026-04-26T11:10:20.001Z</time></trkpt><trkpt lat="40.64832434851521" lon="14.607999194645092"><ele>264.0</ele><time>2026-04-26T11:10:21.001Z</time></trkpt><trkpt lat="40.64843154173709" lon="14.608017486047984"><ele>264.0</ele><time>2026-04-26T11:10:22.001Z</time></trkpt><trkpt lat="40.6485299992939" lon="14.608024237956505"><ele>264.0</ele><time>2026-04-26T11:10:23.001Z</time></trkpt><trkpt lat="40.64861819035081" lon="14.608023518986768"><ele>264.0</ele><time>2026-04-26T11:10:24.001Z</time></trkpt><trkpt lat="40.64869831995992" lon="14.60801779524252"><ele>264.0</ele><time>2026-04-26T11:10:25.001Z</time></trkpt><trkpt lat="40.64876505807485" lon="14.608015621964718"><ele>264.0</ele><time>2026-04-26T11:10:26.001Z</time></trkpt><trkpt lat="40.6488451088361" lon="14.608109816867897"><ele>264.0</ele><time>2026-04-26T11:10:28.001Z</time></trkpt><trkpt lat="40.648766533875275" lon="14.608232698673074"><ele>264.0</ele><time>2026-04-26T11:10:30.001Z</time></trkpt><trkpt lat="40.64868846150377" lon="14.608201558351608"><ele>264.0</ele><time>2026-04-26T11:10:31.001Z</time></trkpt><trkpt lat="40.64859748637161" lon="14.608187239179138"><ele>264.0</ele><time>2026-04-26T11:10:32.001Z</time></trkpt><trkpt lat="40.64848698540362" lon="14.608152203062689"><ele>264.0</ele><time>2026-04-26T11:10:33.001Z</time></trkpt><trkpt lat="40.64836426410987" lon="14.608142062854002"><ele>264.0</ele><time>2026-04-26T11:10:34.001Z</time></trkpt><trkpt lat="40.648239404816316" lon="14.608129682889874"><ele>264.0</ele><time>2026-04-26T11:10:35Z</time></trkpt><trkpt lat="40.64811664596021" lon="14.608116560099734"><ele>264.0</ele><time>2026-04-26T11:10:36Z</time></trkpt><trkpt lat="40.64800304244609" lon="14.608100569163044"><ele>264.0</ele><time>2026-04-26T11:10:37Z</time></trkpt><trkpt lat="40.64789738160123" lon="14.608079353243125"><ele>264.0</ele><time>2026-04-26T11:10:38Z</time></trkpt><trkpt lat="40.64780075019557" lon="14.608047804059488"><ele>264.0</ele><time>2026-04-26T11:10:39Z</time></trkpt><trkpt lat="40.64770992453637" lon="14.608017670077409"><ele>264.2857142857143</ele><time>2026-04-26T11:10:40Z</time></trkpt><trkpt lat="40.64762872985229" lon="14.60798811056253"><ele>264.57142857142856</ele><time>2026-04-26T11:10:41Z</time></trkpt><trkpt lat="40.64755601206527" lon="14.607956438821654"><ele>264.8571428571429</ele><time>2026-04-26T11:10:42Z</time></trkpt><trkpt lat="40.64748776259979" lon="14.607938471114753"><ele>265.1428571428571</ele><time>2026-04-26T11:10:43Z</time></trkpt><trkpt lat="40.64741583518873" lon="14.60796431747938"><ele>265.42857142857144</ele><time>2026-04-26T11:10:44Z</time></trkpt><trkpt lat="40.64736527010412" lon="14.608030988102211"><ele>265.7142857142857</ele><time>2026-04-26T11:10:45Z</time></trkpt><trkpt lat="40.64737196249808" lon="14.608124453296519"><ele>266.0</ele><time>2026-04-26T11:10:46Z</time></trkpt><trkpt lat="40.64742298837133" lon="14.608200556155749"><ele>266.0</ele><time>2026-04-26T11:10:47Z</time></trkpt><trkpt lat="40.64751101862839" lon="14.608226345332076"><ele>266.0</ele><time>2026-04-26T11:10:48Z</time></trkpt><trkpt lat="40.64761347440541" lon="14.608233906999336"><ele>266.0</ele><time>2026-04-26T11:10:49Z</time></trkpt><trkpt lat="40.6477253835477" lon="14.608266323329975"><ele>266.0</ele><time>2026-04-26T11:10:50Z</time></trkpt><trkpt lat="40.64784740855334" lon="14.608266160610732"><ele>266.0</ele><time>2026-04-26T11:10:51Z</time></trkpt><trkpt lat="40.647975390265756" lon="14.608302246964557"><ele>265.33333333333337</ele><time>2026-04-26T11:10:52Z</time></trkpt><trkpt lat="40.64811429985982" lon="14.608332225986135"><ele>264.6666666666667</ele><time>2026-04-26T11:10:53Z</time></trkpt><trkpt lat="40.64825977124924" lon="14.60840177369752"><ele>264.0</ele><time>2026-04-26T11:10:54Z</time></trkpt><trkpt lat="40.648411777647574" lon="14.60847085554685"><ele>264.0</ele><time>2026-04-26T11:10:55Z</time></trkpt><trkpt lat="40.64856036825203" lon="14.608531941022479"><ele>264.0</ele><time>2026-04-26T11:10:56Z</time></trkpt><trkpt lat="40.648701663900304" lon="14.608590797353308"><ele>264.0</ele><time>2026-04-26T11:10:57Z</time></trkpt><trkpt lat="40.64882686220294" lon="14.608648639754085"><ele>264.0</ele><time>2026-04-26T11:10:58Z</time></trkpt><trkpt lat="40.648923234762776" lon="14.608694474692038"><ele>269.3333333333333</ele><time>2026-04-26T11:10:59Z</time></trkpt><trkpt lat="40.64901141646801" lon="14.60873399882569"><ele>274.6666666666667</ele><time>2026-04-26T11:11:00Z</time></trkpt><trkpt lat="40.64909244707626" lon="14.608769412105437"><ele>280.0</ele><time>2026-04-26T11:11:01Z</time></trkpt><trkpt lat="40.64916931806665" lon="14.608808985353239"><ele>285.33333333333337</ele><time>2026-04-26T11:11:02Z</time></trkpt><trkpt lat="40.6492493858728" lon="14.608842899353892"><ele>290.6666666666667</ele><time>2026-04-26T11:11:03Z</time></trkpt><trkpt lat="40.649331361990434" lon="14.608874730806368"><ele>296.0</ele><time>2026-04-26T11:11:04Z</time></trkpt><trkpt lat="40.64941118420971" lon="14.608908703966971"><ele>293.6</ele><time>2026-04-26T11:11:05Z</time></trkpt><trkpt lat="40.64949386148619" lon="14.608946524894918"><ele>291.20000000000005</ele><time>2026-04-26T11:11:06Z</time></trkpt><trkpt lat="40.649579299361356" lon="14.608996636969998"><ele>288.79999999999995</ele><time>2026-04-26T11:11:07Z</time></trkpt><trkpt lat="40.6496660101801" lon="14.609058018389838"><ele>286.4</ele><time>2026-04-26T11:11:08Z</time></trkpt><trkpt lat="40.64975306313269" lon="14.609121547555327"><ele>284.0</ele><time>2026-04-26T11:11:09Z</time></trkpt><trkpt lat="40.64984289636607" lon="14.609192673851203"><ele>284.0</ele><time>2026-04-26T11:11:10Z</time></trkpt><trkpt lat="40.649933103663145" lon="14.60926894588597"><ele>284.0</ele><time>2026-04-26T11:11:11Z</time></trkpt><trkpt lat="40.650029128571525" lon="14.609342360753962"><ele>284.0</ele><time>2026-04-26T11:11:12Z</time></trkpt><trkpt lat="40.65012621762602" lon="14.609417098353852"><ele>284.0</ele><time>2026-04-26T11:11:13Z</time></trkpt><trkpt lat="40.65022983221485" lon="14.609487357577725"><ele>284.0</ele><time>2026-04-26T11:11:14Z</time></trkpt><trkpt lat="40.6503292880379" lon="14.609572052425364"><ele>287.0</ele><time>2026-04-26T11:11:15Z</time></trkpt><trkpt lat="40.650427848871075" lon="14.609658886966193"><ele>290.0</ele><time>2026-04-26T11:11:16Z</time></trkpt><trkpt lat="40.65053153149444" lon="14.609752130939167"><ele>293.0</ele><time>2026-04-26T11:11:17Z</time></trkpt><trkpt lat="40.65062354606403" lon="14.60984731447804"><ele>296.0</ele><time>2026-04-26T11:11:18Z</time></trkpt><trkpt lat="40.6507077949776" lon="14.609946119633728"><ele>296.0</ele><time>2026-04-26T11:11:19Z</time></trkpt><trkpt lat="40.65078521517828" lon="14.610041402279146"><ele>296.0</ele><time>2026-04-26T11:11:20Z</time></trkpt><trkpt lat="40.65086228646612" lon="14.610133171842739"><ele>296.0</ele><time>2026-04-26T11:11:21Z</time></trkpt><trkpt lat="40.65094218623029" lon="14.61023139313871"><ele>296.0</ele><time>2026-04-26T11:11:22Z</time></trkpt><trkpt lat="40.65102840435795" lon="14.610333253174828"><ele>296.0</ele><time>2026-04-26T11:11:23Z</time></trkpt><trkpt lat="40.65111225580739" lon="14.610436229953532"><ele>297.40000000000003</ele><time>2026-04-26T11:11:24Z</time></trkpt><trkpt lat="40.65119581598754" lon="14.610527108484561"><ele>298.8</ele><time>2026-04-26T11:11:25Z</time></trkpt><trkpt lat="40.651281215772194" lon="14.610607460170163"><ele>300.20000000000005</ele><time>2026-04-26T11:11:26Z</time></trkpt><trkpt lat="40.651371088711706" lon="14.610669913656128"><ele>301.6</ele><time>2026-04-26T11:11:27Z</time></trkpt><trkpt lat="40.65146991952354" lon="14.610726006889347"><ele>303.0</ele><time>2026-04-26T11:11:28Z</time></trkpt><trkpt lat="40.65156136012277" lon="14.610770518417079"><ele>303.0</ele><time>2026-04-26T11:11:29Z</time></trkpt><trkpt lat="40.65164200094286" lon="14.610809194525823"><ele>303.0</ele><time>2026-04-26T11:11:30Z</time></trkpt><trkpt lat="40.65172985790528" lon="14.610817596626706"><ele>303.0</ele><time>2026-04-26T11:11:31Z</time></trkpt><trkpt lat="40.65180690388674" lon="14.610825092860752"><ele>303.0</ele><time>2026-04-26T11:11:32Z</time></trkpt><trkpt lat="40.6518820163875" lon="14.610833018565657"><ele>303.0</ele><time>2026-04-26T11:11:33Z</time></trkpt><trkpt lat="40.651952819968514" lon="14.610860543676795"><ele>303.0</ele><time>2026-04-26T11:11:34Z</time></trkpt><trkpt lat="40.65202032739713" lon="14.610920389707545"><ele>301.6666666666667</ele><time>2026-04-26T11:11:35.001Z</time></trkpt><trkpt lat="40.65207796064842" lon="14.610989566385687"><ele>300.3333333333333</ele><time>2026-04-26T11:11:36.001Z</time></trkpt><trkpt lat="40.65213509238264" lon="14.611065492411416"><ele>299.0</ele><time>2026-04-26T11:11:37.001Z</time></trkpt><trkpt lat="40.6522015950438" lon="14.61114056426959"><ele>297.66666666666663</ele><time>2026-04-26T11:11:38.001Z</time></trkpt><trkpt lat="40.65227258895211" lon="14.611240151606506"><ele>296.3333333333333</ele><time>2026-04-26T11:11:39.001Z</time></trkpt><trkpt lat="40.65236121302527" lon="14.611280131812292"><ele>295.0</ele><time>2026-04-26T11:11:40.001Z</time></trkpt><trkpt lat="40.65243659618758" lon="14.611328208186837"><ele>302.66666666666663</ele><time>2026-04-26T11:11:41.001Z</time></trkpt><trkpt lat="40.65250223614585" lon="14.611369479891849"><ele>310.3333333333333</ele><time>2026-04-26T11:11:42.001Z</time></trkpt><trkpt lat="40.65256041184488" lon="14.611402168596657"><ele>318.0</ele><time>2026-04-26T11:11:43.001Z</time></trkpt><trkpt lat="40.654780725005025" lon="14.61125446200236"><ele>318.0</ele><time>2026-04-26T11:12:22.001Z</time></trkpt><trkpt lat="40.65484066779706" lon="14.611299847600765"><ele>318.0</ele><time>2026-04-26T11:12:23.001Z</time></trkpt><trkpt lat="40.65489571106342" lon="14.611360004843906"><ele>318.0</ele><time>2026-04-26T11:12:24.001Z</time></trkpt><trkpt lat="40.65494201458877" lon="14.611439330315696"><ele>318.0</ele><time>2026-04-26T11:12:25.001Z</time></trkpt><trkpt lat="40.65499201357595" lon="14.611516027250804"><ele>318.0</ele><time>2026-04-26T11:12:26.001Z</time></trkpt><trkpt lat="40.65504021781878" lon="14.61159779717398"><ele>318.0</ele><time>2026-04-26T11:12:27.001Z</time></trkpt><trkpt lat="40.655092778407905" lon="14.611677489259726"><ele>318.0</ele><time>2026-04-26T11:12:28.001Z</time></trkpt><trkpt lat="40.65515502085835" lon="14.611745591589807"><ele>318.0</ele><time>2026-04-26T11:12:29.001Z</time></trkpt><trkpt lat="40.65523168100193" lon="14.611793253565384"><ele>318.0</ele><time>2026-04-26T11:12:30.001Z</time></trkpt><trkpt lat="40.65530808142462" lon="14.611833418521503"><ele>318.0</ele><time>2026-04-26T11:12:31.001Z</time></trkpt><trkpt lat="40.6553822704914" lon="14.611864025925227"><ele>318.0</ele><time>2026-04-26T11:12:32.001Z</time></trkpt><trkpt lat="40.65545377607634" lon="14.611888417540685"><ele>318.0</ele><time>2026-04-26T11:12:33.001Z</time></trkpt><trkpt lat="40.65551825302725" lon="14.611910521362146"><ele>318.3333333333333</ele><time>2026-04-26T11:12:34.001Z</time></trkpt><trkpt lat="40.65561904974043" lon="14.611945653080584"><ele>318.6666666666667</ele><time>2026-04-26T11:12:36.001Z</time></trkpt><trkpt lat="40.655662895844266" lon="14.612034809965682"><ele>319.0</ele><time>2026-04-26T11:12:38.001Z</time></trkpt><trkpt lat="40.655637284068945" lon="14.612127453596255"><ele>319.33333333333337</ele><time>2026-04-26T11:12:42.001Z</time></trkpt><trkpt lat="40.655568824782875" lon="14.612140408219261"><ele>319.6666666666667</ele><time>2026-04-26T11:12:44.001Z</time></trkpt><trkpt lat="40.65548180057281" lon="14.612101176283788"><ele>320.0</ele><time>2026-04-26T11:12:46.001Z</time></trkpt><trkpt lat="40.65536099551681" lon="14.612045420472812"><ele>319.6666666666667</ele><time>2026-04-26T11:12:48.001Z</time></trkpt><trkpt lat="40.65529190366272" lon="14.612007369597958"><ele>319.33333333333337</ele><time>2026-04-26T11:12:49.001Z</time></trkpt><trkpt lat="40.655220990165944" lon="14.611963551582992"><ele>319.0</ele><time>2026-04-26T11:12:50.001Z</time></trkpt><trkpt lat="40.65514576228897" lon="14.61191049533235"><ele>318.6666666666667</ele><time>2026-04-26T11:12:51.001Z</time></trkpt><trkpt lat="40.65507699697382" lon="14.611844732596275"><ele>318.3333333333333</ele><time>2026-04-26T11:12:52.001Z</time></trkpt><trkpt lat="40.65500356532921" lon="14.611777875512391"><ele>318.0</ele><time>2026-04-26T11:12:53.001Z</time></trkpt><trkpt lat="40.654960328369384" lon="14.611677808822586"><ele>318.0</ele><time>2026-04-26T11:12:54.001Z</time></trkpt><trkpt lat="40.654906900791346" lon="14.611607281865137"><ele>318.0</ele><time>2026-04-26T11:12:55.001Z</time></trkpt><trkpt lat="40.65483929503124" lon="14.611573804102548"><ele>318.0</ele><time>2026-04-26T11:12:56.001Z</time></trkpt><trkpt lat="40.6547748704296" lon="14.611550988523673"><ele>318.0</ele><time>2026-04-26T11:12:57.001Z</time></trkpt><trkpt lat="40.654710114743445" lon="14.611559126793358"><ele>318.0</ele><time>2026-04-26T11:12:58.001Z</time></trkpt><trkpt lat="40.654645992932906" lon="14.61160846099257"><ele>318.0</ele><time>2026-04-26T11:12:59.001Z</time></trkpt><trkpt lat="40.65459736867528" lon="14.611683553663855"><ele>318.0</ele><time>2026-04-26T11:13:00.001Z</time></trkpt><trkpt lat="40.65454277061105" lon="14.611755524373928"><ele>318.0</ele><time>2026-04-26T11:13:01.001Z</time></trkpt><trkpt lat="40.654488735613256" lon="14.61182399109901"><ele>318.0</ele><time>2026-04-26T11:13:02.001Z</time></trkpt><trkpt lat="40.65444161622659" lon="14.611891975620123"><ele>318.0</ele><time>2026-04-26T11:13:03.001Z</time></trkpt><trkpt lat="40.654393820847815" lon="14.611953768533086"><ele>318.0</ele><time>2026-04-26T11:13:04.001Z</time></trkpt><trkpt lat="40.65434563298376" lon="14.612024097131785"><ele>318.0</ele><time>2026-04-26T11:13:05.001Z</time></trkpt><trkpt lat="40.65429190696388" lon="14.612095396758017"><ele>318.0</ele><time>2026-04-26T11:13:06.001Z</time></trkpt><trkpt lat="40.65423534821855" lon="14.612167871322837"><ele>318.0</ele><time>2026-04-26T11:13:07.001Z</time></trkpt><trkpt lat="40.65417530382657" lon="14.612237933118493"><ele>322.3333333333333</ele><time>2026-04-26T11:13:08.001Z</time></trkpt><trkpt lat="40.65410529178273" lon="14.61229689294698"><ele>326.6666666666667</ele><time>2026-04-26T11:13:09.001Z</time></trkpt><trkpt lat="40.654029172563185" lon="14.612347810979642"><ele>331.0</ele><time>2026-04-26T11:13:10.001Z</time></trkpt><trkpt lat="40.65395201553246" lon="14.612394538019037"><ele>335.33333333333337</ele><time>2026-04-26T11:13:11.001Z</time></trkpt><trkpt lat="40.65387594116387" lon="14.61244367325883"><ele>339.6666666666667</ele><time>2026-04-26T11:13:12.001Z</time></trkpt><trkpt lat="40.65380369587704" lon="14.61248374151137"><ele>344.0</ele><time>2026-04-26T11:13:13.001Z</time></trkpt><trkpt lat="40.65373803787132" lon="14.612516964542186"><ele>344.0</ele><time>2026-04-26T11:13:14.001Z</time></trkpt><trkpt lat="40.653649293986014" lon="14.612563270840385"><ele>344.0</ele><time>2026-04-26T11:13:16.001Z</time></trkpt><trkpt lat="40.65357777742491" lon="14.612626250913886"><ele>344.0</ele><time>2026-04-26T11:13:19.001Z</time></trkpt><trkpt lat="40.653527918714545" lon="14.612703689823816"><ele>344.0</ele><time>2026-04-26T11:13:22.001Z</time></trkpt><trkpt lat="40.65347158190714" lon="14.612821697473802"><ele>344.0</ele><time>2026-04-26T11:13:24.001Z</time></trkpt><trkpt lat="40.65341715722983" lon="14.612896839516553"><ele>344.0</ele><time>2026-04-26T11:13:25.001Z</time></trkpt><trkpt lat="40.65334066282409" lon="14.612962584580503"><ele>347.2</ele><time>2026-04-26T11:13:26.001Z</time></trkpt><trkpt lat="40.653263399622205" lon="14.613044019962208"><ele>350.4</ele><time>2026-04-26T11:13:27.001Z</time></trkpt><trkpt lat="40.653176010548364" lon="14.613126102821072"><ele>353.6</ele><time>2026-04-26T11:13:28.001Z</time></trkpt><trkpt lat="40.65307156026348" lon="14.613174153330293"><ele>356.8</ele><time>2026-04-26T11:13:29.001Z</time></trkpt><trkpt lat="40.65294942382474" lon="14.613215821302223"><ele>360.0</ele><time>2026-04-26T11:13:30.054Z</time></trkpt><trkpt lat="40.652828771217536" lon="14.613238876716492"><ele>358.25</ele><time>2026-04-26T11:13:31.055Z</time></trkpt><trkpt lat="40.65269441376625" lon="14.613263410788452"><ele>356.5</ele><time>2026-04-26T11:13:32.054Z</time></trkpt><trkpt lat="40.652559410184594" lon="14.613307816652068"><ele>354.75</ele><time>2026-04-26T11:13:33.052Z</time></trkpt><trkpt lat="40.65243028883899" lon="14.61333046250955"><ele>353.0</ele><time>2026-04-26T11:13:34.036Z</time></trkpt><trkpt lat="40.65119470832651" lon="14.61384839831285"><ele>353.0</ele><time>2026-04-26T11:13:47.256Z</time></trkpt><trkpt lat="40.65154257053641" lon="14.613811338527663"><ele>353.0</ele><time>2026-04-26T11:13:52.001Z</time></trkpt><trkpt lat="40.651412764812136" lon="14.61392316677285"><ele>353.0</ele><time>2026-04-26T11:13:54.001Z</time></trkpt><trkpt lat="40.6513813063551" lon="14.614014407106549"><ele>353.0</ele><time>2026-04-26T11:13:56.001Z</time></trkpt><trkpt lat="40.65128904016622" lon="14.614017914730386"><ele>353.0</ele><time>2026-04-26T11:14:42.001Z</time></trkpt><trkpt lat="40.65122276960267" lon="14.614009881451405"><ele>353.0</ele><time>2026-04-26T11:14:43.001Z</time></trkpt><trkpt lat="40.65114310433121" lon="14.61398184202982"><ele>353.0</ele><time>2026-04-26T11:14:44.001Z</time></trkpt><trkpt lat="40.651082057874795" lon="14.613956819103464"><ele>353.0</ele><time>2026-04-26T11:14:45.001Z</time></trkpt><trkpt lat="40.650951144503075" lon="14.613915378153694"><ele>352.0</ele><time>2026-04-26T11:14:47.001Z</time></trkpt><trkpt lat="40.650871127204134" lon="14.613894312307478"><ele>351.0</ele><time>2026-04-26T11:14:48.001Z</time></trkpt><trkpt lat="40.65078643782673" lon="14.613866528212071"><ele>350.0</ele><time>2026-04-26T11:14:49.001Z</time></trkpt><trkpt lat="40.65069832222985" lon="14.613840628287596"><ele>349.0</ele><time>2026-04-26T11:14:50.001Z</time></trkpt><trkpt lat="40.65060832193561" lon="14.613811583848484"><ele>348.0</ele><time>2026-04-26T11:14:51.001Z</time></trkpt><trkpt lat="40.65051448776373" lon="14.613774021548465"><ele>348.0</ele><time>2026-04-26T11:14:52.001Z</time></trkpt><trkpt lat="40.65042269008147" lon="14.613747905471554"><ele>348.0</ele><time>2026-04-26T11:14:53.001Z</time></trkpt><trkpt lat="40.65033172077216" lon="14.61372195881865"><ele>348.0</ele><time>2026-04-26T11:14:54.001Z</time></trkpt><trkpt lat="40.65024067185605" lon="14.613694503356939"><ele>348.0</ele><time>2026-04-26T11:14:55.001Z</time></trkpt><trkpt lat="40.65014825735212" lon="14.613671865059976"><ele>348.0</ele><time>2026-04-26T11:14:56.001Z</time></trkpt><trkpt lat="40.65005999118212" lon="14.613649009327217"><ele>351.5</ele><time>2026-04-26T11:14:57.001Z</time></trkpt><trkpt lat="40.64998585953094" lon="14.613623027897438"><ele>355.0</ele><time>2026-04-26T11:14:58.001Z</time></trkpt><trkpt lat="40.649892655014135" lon="14.613594174243282"><ele>358.5</ele><time>2026-04-26T11:15:00.001Z</time></trkpt><trkpt lat="40.649813456527546" lon="14.613569312470654"><ele>362.0</ele><time>2026-04-26T11:15:02.001Z</time></trkpt><trkpt lat="40.649715122372136" lon="14.613533567704229"><ele>365.5</ele><time>2026-04-26T11:15:04.001Z</time></trkpt><trkpt lat="40.649630585187346" lon="14.61350492142889"><ele>369.0</ele><time>2026-04-26T11:15:06.001Z</time></trkpt><trkpt lat="40.64956135099581" lon="14.613466061896807"><ele>369.0</ele><time>2026-04-26T11:15:08.001Z</time></trkpt><trkpt lat="40.64948938449635" lon="14.613443762242827"><ele>369.0</ele><time>2026-04-26T11:15:11.001Z</time></trkpt><trkpt lat="40.64941933187895" lon="14.613425720503743"><ele>369.0</ele><time>2026-04-26T11:15:30.001Z</time></trkpt><trkpt lat="40.64940895840373" lon="14.613521435808337"><ele>369.0</ele><time>2026-04-26T11:16:27.001Z</time></trkpt><trkpt lat="40.64947114380004" lon="14.613573913824052"><ele>369.0</ele><time>2026-04-26T11:16:30.001Z</time></trkpt><trkpt lat="40.64955293423345" lon="14.613605876183392"><ele>369.0</ele><time>2026-04-26T11:16:33.001Z</time></trkpt><trkpt lat="40.64964647055531" lon="14.613633515080267"><ele>364.2857142857143</ele><time>2026-04-26T11:16:36.001Z</time></trkpt><trkpt lat="40.64970850829192" lon="14.613657121528409"><ele>359.57142857142856</ele><time>2026-04-26T11:16:38.001Z</time></trkpt><trkpt lat="40.64977390377212" lon="14.61367867187127"><ele>354.8571428571429</ele><time>2026-04-26T11:16:40.001Z</time></trkpt><trkpt lat="40.649840984197425" lon="14.613694192021157"><ele>350.1428571428571</ele><time>2026-04-26T11:16:42.001Z</time></trkpt><trkpt lat="40.64990784436121" lon="14.613713425929728"><ele>345.42857142857144</ele><time>2026-04-26T11:16:44.001Z</time></trkpt><trkpt lat="40.64997016648181" lon="14.613732688588541"><ele>340.7142857142857</ele><time>2026-04-26T11:16:46.001Z</time></trkpt><trkpt lat="40.65003301215921" lon="14.613753769182415"><ele>336.0</ele><time>2026-04-26T11:16:48.001Z</time></trkpt><trkpt lat="40.65013056967088" lon="14.613776754955666"><ele>336.0</ele><time>2026-04-26T11:16:51.001Z</time></trkpt><trkpt lat="40.65020555173856" lon="14.61379348455705"><ele>336.0</ele><time>2026-04-26T11:16:53.001Z</time></trkpt><trkpt lat="40.6502737221148" lon="14.613812097451932"><ele>336.0</ele><time>2026-04-26T11:16:55.001Z</time></trkpt><trkpt lat="40.65034375157228" lon="14.613836236121317"><ele>336.0</ele><time>2026-04-26T11:16:57.001Z</time></trkpt><trkpt lat="40.65041178422503" lon="14.613861743622094"><ele>336.0</ele><time>2026-04-26T11:16:59.001Z</time></trkpt><trkpt lat="40.6505038595534" lon="14.613913565991044"><ele>336.0</ele><time>2026-04-26T11:17:02.001Z</time></trkpt><trkpt lat="40.65057596714101" lon="14.61396063143474"><ele>336.0</ele><time>2026-04-26T11:17:10.001Z</time></trkpt><trkpt lat="40.65063541254767" lon="14.613989369097405"><ele>336.0</ele><time>2026-04-26T11:17:13.001Z</time></trkpt><trkpt lat="40.650568292771744" lon="14.613952005950793"><ele>336.0</ele><time>2026-04-26T11:29:42Z</time></trkpt><trkpt lat="40.65051959781816" lon="14.613868874382817"><ele>336.0</ele><time>2026-04-26T11:30:14Z</time></trkpt><trkpt lat="40.6504621756332" lon="14.613831640210181"><ele>336.0</ele><time>2026-04-26T11:30:27Z</time></trkpt><trkpt lat="40.65038915800984" lon="14.613832363107484"><ele>336.0</ele><time>2026-04-26T11:30:34Z</time></trkpt><trkpt lat="40.65032393818891" lon="14.613812182907887"><ele>336.0</ele><time>2026-04-26T11:30:41Z</time></trkpt><trkpt lat="40.65025570579651" lon="14.613808075499986"><ele>336.0</ele><time>2026-04-26T11:30:48Z</time></trkpt><trkpt lat="40.650185152754446" lon="14.613780321841773"><ele>336.0</ele><time>2026-04-26T11:30:55Z</time></trkpt><trkpt lat="40.65011446223404" lon="14.613754039723784"><ele>336.0</ele><time>2026-04-26T11:31:02Z</time></trkpt><trkpt lat="40.650047290819835" lon="14.613723387609271"><ele>336.0</ele><time>2026-04-26T11:31:09Z</time></trkpt><trkpt lat="40.64997857305342" lon="14.613693915020008"><ele>336.0</ele><time>2026-04-26T11:31:16Z</time></trkpt><trkpt lat="40.6499098413692" lon="14.613687274846411"><ele>336.0</ele><time>2026-04-26T11:31:22Z</time></trkpt><trkpt lat="40.649845542850706" lon="14.613677890266667"><ele>336.0</ele><time>2026-04-26T11:31:28Z</time></trkpt><trkpt lat="40.64977621672194" lon="14.61367707276689"><ele>339.7142857142857</ele><time>2026-04-26T11:31:36.001Z</time></trkpt><trkpt lat="40.64971635100388" lon="14.613626052314928"><ele>343.42857142857144</ele><time>2026-04-26T11:34:07.001Z</time></trkpt><trkpt lat="40.649652152247214" lon="14.613610727665986"><ele>347.1428571428571</ele><time>2026-04-26T11:34:14.001Z</time></trkpt><trkpt lat="40.64958237237881" lon="14.61360095326104"><ele>350.8571428571429</ele><time>2026-04-26T11:34:21.001Z</time></trkpt><trkpt lat="40.649514616157205" lon="14.613609437934928"><ele>354.57142857142856</ele><time>2026-04-26T11:34:28.001Z</time></trkpt><trkpt lat="40.64945429450244" lon="14.613576077290926"><ele>358.2857142857143</ele><time>2026-04-26T11:34:36.001Z</time></trkpt><trkpt lat="40.64939528549468" lon="14.613520351567276"><ele>362.0</ele><time>2026-04-26T11:34:44.001Z</time></trkpt><trkpt lat="40.64933396038828" lon="14.613493978487586"><ele>362.0</ele><time>2026-04-26T11:34:52.001Z</time></trkpt><trkpt lat="40.64926820335752" lon="14.6134862205608"><ele>362.0</ele><time>2026-04-26T11:34:57.001Z</time></trkpt><trkpt lat="40.64920581061779" lon="14.613506144631968"><ele>362.0</ele><time>2026-04-26T11:35:04.001Z</time></trkpt><trkpt lat="40.64914227832825" lon="14.613493948454586"><ele>362.0</ele><time>2026-04-26T11:35:14Z</time></trkpt><trkpt lat="40.64909046646752" lon="14.613444766817576"><ele>362.0</ele><time>2026-04-26T11:35:22Z</time></trkpt><trkpt lat="40.64905001461797" lon="14.613350748463283"><ele>362.0</ele><time>2026-04-26T11:35:52.001Z</time></trkpt><trkpt lat="40.64904690363725" lon="14.613242839989319"><ele>362.0</ele><time>2026-04-26T11:36:24.001Z</time></trkpt><trkpt lat="40.64905313950338" lon="14.613155921042612"><ele>362.0</ele><time>2026-04-26T11:36:31.001Z</time></trkpt><trkpt lat="40.6490723004015" lon="14.613070617650736"><ele>362.0</ele><time>2026-04-26T11:36:40.001Z</time></trkpt><trkpt lat="40.6490875608624" lon="14.612977216556775"><ele>362.0</ele><time>2026-04-26T11:36:43.001Z</time></trkpt><trkpt lat="40.64911397466201" lon="14.612852995403173"><ele>362.0</ele><time>2026-04-26T11:37:01Z</time></trkpt><trkpt lat="40.649128288450385" lon="14.612743422869377"><ele>362.0</ele><time>2026-04-26T11:37:10.497Z</time></trkpt><trkpt lat="40.64914259264031" lon="14.612637101286388"><ele>362.0</ele><time>2026-04-26T11:37:22Z</time></trkpt><trkpt lat="40.64911409831264" lon="14.612534424249372"><ele>362.5</ele><time>2026-04-26T11:37:23Z</time></trkpt><trkpt lat="40.649093451874506" lon="14.61243507055522"><ele>363.0</ele><time>2026-04-26T11:37:24Z</time></trkpt><trkpt lat="40.649068980139305" lon="14.612268850554672"><ele>363.5</ele><time>2026-04-26T11:37:27Z</time></trkpt><trkpt lat="40.64905753426271" lon="14.612180460005549"><ele>364.0</ele><time>2026-04-26T11:37:37Z</time></trkpt><trkpt lat="40.649049661738296" lon="14.612090033581017"><ele>364.5</ele><time>2026-04-26T11:37:45Z</time></trkpt><trkpt lat="40.649033213797615" lon="14.612002920154122"><ele>365.0</ele><time>2026-04-26T11:37:52.001Z</time></trkpt><trkpt lat="40.648997943202254" lon="14.61193189286903"><ele>365.00000000000006</ele><time>2026-04-26T11:38:03.001Z</time></trkpt><trkpt lat="40.64900734670289" lon="14.611841922982684"><ele>365.0</ele><time>2026-04-26T11:38:10.001Z</time></trkpt><trkpt lat="40.64903988291599" lon="14.611763158507777"><ele>365.0</ele><time>2026-04-26T11:38:18.001Z</time></trkpt><trkpt lat="40.649091606253776" lon="14.611691932195786"><ele>365.0</ele><time>2026-04-26T11:38:34.001Z</time></trkpt><trkpt lat="40.649154673264334" lon="14.611672946104537"><ele>365.0</ele><time>2026-04-26T11:38:42.001Z</time></trkpt><trkpt lat="40.6492131069719" lon="14.611617277666452"><ele>365.00000000000006</ele><time>2026-04-26T11:38:52Z</time></trkpt><trkpt lat="40.64926588323086" lon="14.611565111005238"><ele>365.0</ele><time>2026-04-26T11:38:59Z</time></trkpt><trkpt lat="40.649311239424335" lon="14.611501044095748"><ele>365.00000000000006</ele><time>2026-04-26T11:39:10Z</time></trkpt><trkpt lat="40.6492839903891" lon="14.61142431811055"><ele>365.0</ele><time>2026-04-26T11:39:27Z</time></trkpt><trkpt lat="40.64926981499755" lon="14.61133703733677"><ele>365.0</ele><time>2026-04-26T11:39:34Z</time></trkpt><trkpt lat="40.649284415262606" lon="14.611253867666958"><ele>365.0</ele><time>2026-04-26T11:39:42Z</time></trkpt><trkpt lat="40.649248946384084" lon="14.611177015764234"><ele>365.0</ele><time>2026-04-26T11:39:49Z</time></trkpt><trkpt lat="40.64924632237804" lon="14.611082006250085"><ele>365.00000000000006</ele><time>2026-04-26T11:39:57.001Z</time></trkpt><trkpt lat="40.649273651169345" lon="14.611162202157331"><ele>365.0</ele><time>2026-04-26T11:40:12.001Z</time></trkpt><trkpt lat="40.64933790876589" lon="14.611183137397632"><ele>365.00000000000006</ele><time>2026-04-26T11:40:20.001Z</time></trkpt><trkpt lat="40.649395204183186" lon="14.611238104415591"><ele>365.0</ele><time>2026-04-26T11:40:27.001Z</time></trkpt><trkpt lat="40.64945828904338" lon="14.61127450244691"><ele>365.0</ele><time>2026-04-26T11:40:35.001Z</time></trkpt><trkpt lat="40.649523434417965" lon="14.611290280479357"><ele>365.0</ele><time>2026-04-26T11:40:41.001Z</time></trkpt><trkpt lat="40.649591582591036" lon="14.611275129551325"><ele>365.0</ele><time>2026-04-26T11:40:48Z</time></trkpt><trkpt lat="40.64965969307917" lon="14.611262044254374"><ele>365.00000000000006</ele><time>2026-04-26T11:40:55Z</time></trkpt><trkpt lat="40.649722613567675" lon="14.611245243596066"><ele>365.0</ele><time>2026-04-26T11:41:01Z</time></trkpt><trkpt lat="40.649784717472706" lon="14.611202599321828"><ele>363.42857142857144</ele><time>2026-04-26T11:41:08Z</time></trkpt><trkpt lat="40.64983914697571" lon="14.611152381881194"><ele>361.8571428571429</ele><time>2026-04-26T11:41:41Z</time></trkpt><trkpt lat="40.649907619819736" lon="14.61114873738564"><ele>360.28571428571433</ele><time>2026-04-26T11:41:48Z</time></trkpt><trkpt lat="40.649974460249595" lon="14.611116256595478"><ele>358.7142857142857</ele><time>2026-04-26T11:41:55Z</time></trkpt><trkpt lat="40.65004008007048" lon="14.61108012608004"><ele>357.1428571428571</ele><time>2026-04-26T11:42:02Z</time></trkpt><trkpt lat="40.6501030793738" lon="14.61105457414405"><ele>355.5714285714286</ele><time>2026-04-26T11:42:09.001Z</time></trkpt><trkpt lat="40.65016695170086" lon="14.611021894358636"><ele>354.0</ele><time>2026-04-26T11:42:16.001Z</time></trkpt><trkpt lat="40.65021898716966" lon="14.610968777545626"><ele>354.0</ele><time>2026-04-26T11:42:23.001Z</time></trkpt><trkpt lat="40.65028461446455" lon="14.610938186764017"><ele>354.0</ele><time>2026-04-26T11:42:30.001Z</time></trkpt><trkpt lat="40.65023294497294" lon="14.611000796284621"><ele>354.0</ele><time>2026-04-26T11:43:34Z</time></trkpt><trkpt lat="40.65016830965903" lon="14.611046716873808"><ele>354.0</ele><time>2026-04-26T11:43:41Z</time></trkpt><trkpt lat="40.65009540510074" lon="14.611084632559367"><ele>354.0</ele><time>2026-04-26T11:43:49Z</time></trkpt><trkpt lat="40.65003183785391" lon="14.611102627736356"><ele>354.0</ele><time>2026-04-26T11:43:56Z</time></trkpt><trkpt lat="40.6499568080061" lon="14.611121812222876"><ele>354.0</ele><time>2026-04-26T11:44:02Z</time></trkpt><trkpt lat="40.649895423876984" lon="14.611165311765106"><ele>355.5714285714286</ele><time>2026-04-26T11:44:10.001Z</time></trkpt><trkpt lat="40.64983282407674" lon="14.611185620555068"><ele>357.1428571428571</ele><time>2026-04-26T11:44:18.001Z</time></trkpt><trkpt lat="40.64975702774138" lon="14.611221472235059"><ele>358.7142857142857</ele><time>2026-04-26T11:44:26.001Z</time></trkpt><trkpt lat="40.649684160811795" lon="14.6112485200903"><ele>360.28571428571433</ele><time>2026-04-26T11:44:33Z</time></trkpt><trkpt lat="40.64961607585283" lon="14.611259615805062"><ele>361.8571428571429</ele><time>2026-04-26T11:44:39Z</time></trkpt><trkpt lat="40.64955890320342" lon="14.611296613459183"><ele>363.42857142857144</ele><time>2026-04-26T11:44:46Z</time></trkpt><trkpt lat="40.649489887906164" lon="14.611302949381141"><ele>365.0</ele><time>2026-04-26T11:44:52Z</time></trkpt><trkpt lat="40.64942409420367" lon="14.611324983914804"><ele>365.00000000000006</ele><time>2026-04-26T11:45:00Z</time></trkpt><trkpt lat="40.649347743471225" lon="14.611360286941304"><ele>365.0</ele><time>2026-04-26T11:45:07Z</time></trkpt><trkpt lat="40.64927640785769" lon="14.611358131784794"><ele>365.0</ele><time>2026-04-26T11:45:15Z</time></trkpt><trkpt lat="40.649213719163335" lon="14.611375539706838"><ele>365.0</ele><time>2026-04-26T11:45:22Z</time></trkpt><trkpt lat="40.649174873402316" lon="14.611443539710411"><ele>365.0</ele><time>2026-04-26T11:45:30Z</time></trkpt><trkpt lat="40.64918199706559" lon="14.611537255146425"><ele>365.00000000000006</ele><time>2026-04-26T11:45:41Z</time></trkpt><trkpt lat="40.64919368005737" lon="14.611625022678782"><ele>365.0</ele><time>2026-04-26T11:45:49Z</time></trkpt><trkpt lat="40.649248734440356" lon="14.611668802358441"><ele>365.00000000000006</ele><time>2026-04-26T11:46:03.999Z</time></trkpt><trkpt lat="40.64918046450362" lon="14.6116738270704"><ele>365.0</ele><time>2026-04-26T12:14:50Z</time></trkpt><trkpt lat="40.64911193486327" lon="14.611678086990239"><ele>365.0</ele><time>2026-04-26T12:14:57Z</time></trkpt><trkpt lat="40.649048403549116" lon="14.61166068196347"><ele>365.0</ele><time>2026-04-26T12:15:10Z</time></trkpt><trkpt lat="40.64897371201585" lon="14.611658389007045"><ele>365.0</ele><time>2026-04-26T12:15:19Z</time></trkpt><trkpt lat="40.648906721120454" lon="14.611695971055587"><ele>365.00000000000006</ele><time>2026-04-26T12:15:27Z</time></trkpt><trkpt lat="40.64885776432517" lon="14.6117570043716"><ele>365.0</ele><time>2026-04-26T12:15:41Z</time></trkpt><trkpt lat="40.64879001099313" lon="14.611728343387558"><ele>365.0</ele><time>2026-04-26T12:16:01Z</time></trkpt><trkpt lat="40.64872765406721" lon="14.611746607889385"><ele>365.0</ele><time>2026-04-26T12:16:08Z</time></trkpt><trkpt lat="40.648682044799976" lon="14.611662823294592"><ele>365.0</ele><time>2026-04-26T12:16:11Z</time></trkpt><trkpt lat="40.64883048653669" lon="14.611668294641989"><ele>365.0</ele><time>2026-04-26T12:16:18Z</time></trkpt><trkpt lat="40.64869473000434" lon="14.611657700604031"><ele>365.0</ele><time>2026-04-26T12:17:22Z</time></trkpt><trkpt lat="40.648835753293206" lon="14.611503976661325"><ele>365.0</ele><time>2026-04-26T12:17:31Z</time></trkpt><trkpt lat="40.64873619748885" lon="14.611685447964298"><ele>365.0</ele><time>2026-04-26T12:17:53.386Z</time></trkpt><trkpt lat="40.648789926598006" lon="14.611764313974149"><ele>365.0</ele><time>2026-04-26T12:20:57.014Z</time></trkpt><trkpt lat="40.64876207875591" lon="14.611688253071264"><ele>365.0</ele><time>2026-04-26T12:21:37.013Z</time></trkpt><trkpt lat="40.64872049747618" lon="14.611753755340327"><ele>365.0</ele><time>2026-04-26T12:23:48.021Z</time></trkpt><trkpt lat="40.648664879866075" lon="14.611807241306828"><ele>365.0</ele><time>2026-04-26T12:25:30Z</time></trkpt><trkpt lat="40.64856945760832" lon="14.611915114618705"><ele>365.0</ele><time>2026-04-26T12:25:57.999Z</time></trkpt><trkpt lat="40.64864263810461" lon="14.611915161218793"><ele>365.0</ele><time>2026-04-26T12:26:24.999Z</time></trkpt><trkpt lat="40.648512256733596" lon="14.611849302320007"><ele>365.0</ele><time>2026-04-26T12:26:42Z</time></trkpt><trkpt lat="40.648616541551704" lon="14.611831416239202"><ele>365.0</ele><time>2026-04-26T12:26:44Z</time></trkpt><trkpt lat="40.64866263324729" lon="14.61177222543377"><ele>365.0</ele><time>2026-04-26T12:27:37Z</time></trkpt><trkpt lat="40.64874365715446" lon="14.611768342957555"><ele>365.00000000000006</ele><time>2026-04-26T12:27:47.999Z</time></trkpt><trkpt lat="40.64880576328095" lon="14.61172595169449"><ele>365.0</ele><time>2026-04-26T12:27:54.999Z</time></trkpt><trkpt lat="40.64886919491095" lon="14.611673163953654"><ele>365.0</ele><time>2026-04-26T12:28:00.999Z</time></trkpt><trkpt lat="40.64893779073841" lon="14.61165800767398"><ele>365.0</ele><time>2026-04-26T12:28:03.999Z</time></trkpt><trkpt lat="40.64901417319626" lon="14.611659687528666"><ele>365.0</ele><time>2026-04-26T12:28:08.999Z</time></trkpt><trkpt lat="40.64900410985536" lon="14.611772856248471"><ele>365.00000000000006</ele><time>2026-04-26T12:28:24.999Z</time></trkpt><trkpt lat="40.6490485570207" lon="14.611845403009724"><ele>365.0</ele><time>2026-04-26T12:29:07Z</time></trkpt><trkpt lat="40.64906732305125" lon="14.6119246235666"><ele>365.8571428571429</ele><time>2026-04-26T12:29:13Z</time></trkpt><trkpt lat="40.6490540546253" lon="14.612006230663189"><ele>366.7142857142857</ele><time>2026-04-26T12:29:21Z</time></trkpt><trkpt lat="40.649016809799434" lon="14.612075353611079"><ele>367.57142857142856</ele><time>2026-04-26T12:29:27Z</time></trkpt><trkpt lat="40.64910187912541" lon="14.612067919535418"><ele>368.42857142857144</ele><time>2026-04-26T12:29:41.999Z</time></trkpt><trkpt lat="40.64915324495738" lon="14.612140423040392"><ele>369.2857142857143</ele><time>2026-04-26T12:29:51.999Z</time></trkpt><trkpt lat="40.649170877783966" lon="14.612225647233483"><ele>370.14285714285717</ele><time>2026-04-26T12:30:04.999Z</time></trkpt><trkpt lat="40.649162979922444" lon="14.612308969344609"><ele>371.0</ele><time>2026-04-26T12:30:13.999Z</time></trkpt><trkpt lat="40.64914292680988" lon="14.612392276560701"><ele>371.0</ele><time>2026-04-26T12:30:26.999Z</time></trkpt><trkpt lat="40.649125983190515" lon="14.612476880866723"><ele>371.0</ele><time>2026-04-26T12:30:31.999Z</time></trkpt><trkpt lat="40.64909382075263" lon="14.612551165024586"><ele>371.0</ele><time>2026-04-26T12:30:36.999Z</time></trkpt><trkpt lat="40.64908569228564" lon="14.612639665584869"><ele>371.0</ele><time>2026-04-26T12:30:42.999Z</time></trkpt><trkpt lat="40.64912957030243" lon="14.612703008973902"><ele>371.0</ele><time>2026-04-26T12:30:46.999Z</time></trkpt><trkpt lat="40.64917267178473" lon="14.612783124444421"><ele>371.0</ele><time>2026-04-26T12:31:00Z</time></trkpt><trkpt lat="40.6491660708392" lon="14.612869828362014"><ele>371.0</ele><time>2026-04-26T12:31:03Z</time></trkpt><trkpt lat="40.64916836399545" lon="14.61297161196217"><ele>369.5</ele><time>2026-04-26T12:31:06Z</time></trkpt><trkpt lat="40.64917549576961" lon="14.613088939965293"><ele>368.0</ele><time>2026-04-26T12:31:09Z</time></trkpt><trkpt lat="40.64917008768127" lon="14.613229213455108"><ele>366.5</ele><time>2026-04-26T12:31:11Z</time></trkpt><trkpt lat="40.649164605289556" lon="14.61331935011643"><ele>365.0</ele><time>2026-04-26T12:31:13Z</time></trkpt><trkpt lat="40.64909885965064" lon="14.613264706567907"><ele>363.5</ele><time>2026-04-26T12:31:19.999Z</time></trkpt><trkpt lat="40.64909368579095" lon="14.613353520681965"><ele>362.0</ele><time>2026-04-26T12:31:32.999Z</time></trkpt><trkpt lat="40.64915069271011" lon="14.613420987492683"><ele>362.0</ele><time>2026-04-26T12:31:41.999Z</time></trkpt><trkpt lat="40.64917696555915" lon="14.613497154631217"><ele>362.0</ele><time>2026-04-26T12:31:49.999Z</time></trkpt><trkpt lat="40.64923331403522" lon="14.613548920195777"><ele>362.0</ele><time>2026-04-26T12:32:31.999Z</time></trkpt><trkpt lat="40.649298908019084" lon="14.613524030282498"><ele>362.0</ele><time>2026-04-26T12:32:41.999Z</time></trkpt><trkpt lat="40.64936497101888" lon="14.613513958671996"><ele>362.0</ele><time>2026-04-26T12:32:50.999Z</time></trkpt><trkpt lat="40.64942599747231" lon="14.61355317958718"><ele>362.0</ele><time>2026-04-26T12:32:58Z</time></trkpt><trkpt lat="40.64948709047699" lon="14.613579579557994"><ele>362.0</ele><time>2026-04-26T12:33:28Z</time></trkpt><trkpt lat="40.6495536280909" lon="14.613601165057064"><ele>363.0</ele><time>2026-04-26T12:33:35Z</time></trkpt><trkpt lat="40.649627042299315" lon="14.613619026556284"><ele>364.0</ele><time>2026-04-26T12:33:40.999Z</time></trkpt><trkpt lat="40.649701278416394" lon="14.613639771371918"><ele>365.0</ele><time>2026-04-26T12:33:47.999Z</time></trkpt><trkpt lat="40.64977163825204" lon="14.613653952676374"><ele>366.0</ele><time>2026-04-26T12:33:54.999Z</time></trkpt><trkpt lat="40.649841416047714" lon="14.61366500344661"><ele>367.0</ele><time>2026-04-26T12:34:02.999Z</time></trkpt><trkpt lat="40.649905657265315" lon="14.613679163902487"><ele>368.0</ele><time>2026-04-26T12:34:09.999Z</time></trkpt><trkpt lat="40.64997780588535" lon="14.613697340317364"><ele>369.0</ele><time>2026-04-26T12:34:14.999Z</time></trkpt><trkpt lat="40.65004666802883" lon="14.61371392812543"><ele>366.0</ele><time>2026-04-26T12:34:20.999Z</time></trkpt><trkpt lat="40.6501159624279" lon="14.613741988714557"><ele>363.0</ele><time>2026-04-26T12:34:27.999Z</time></trkpt><trkpt lat="40.65018830158195" lon="14.61376582794739"><ele>360.0</ele><time>2026-04-26T12:34:38.999Z</time></trkpt><trkpt lat="40.65025125216947" lon="14.613790426531217"><ele>357.0</ele><time>2026-04-26T12:34:43.999Z</time></trkpt><trkpt lat="40.65031260048408" lon="14.61381437231655"><ele>354.0</ele><time>2026-04-26T12:34:48.999Z</time></trkpt><trkpt lat="40.6503748432728" lon="14.61384777203327"><ele>351.0</ele><time>2026-04-26T12:34:54.999Z</time></trkpt><trkpt lat="40.65043746642267" lon="14.613875805159761"><ele>348.0</ele><time>2026-04-26T12:35:01.999Z</time></trkpt><trkpt lat="40.65050828073183" lon="14.613910859881305"><ele>348.0</ele><time>2026-04-26T12:35:07.999Z</time></trkpt><trkpt lat="40.65057375087013" lon="14.613944444129713"><ele>348.0</ele><time>2026-04-26T12:35:12.999Z</time></trkpt><trkpt lat="40.650642707720365" lon="14.613973993323151"><ele>348.0</ele><time>2026-04-26T12:35:18.999Z</time></trkpt><trkpt lat="40.6507192255027" lon="14.614032190748226"><ele>348.0</ele><time>2026-04-26T12:44:24Z</time></trkpt><trkpt lat="40.650823404825175" lon="14.61405759372244"><ele>348.0</ele><time>2026-04-26T12:44:26Z</time></trkpt><trkpt lat="40.650932372341614" lon="14.614113222708006"><ele>348.0</ele><time>2026-04-26T12:44:28Z</time></trkpt><trkpt lat="40.651052047973124" lon="14.61415332820751"><ele>348.0</ele><time>2026-04-26T12:44:30Z</time></trkpt><trkpt lat="40.65113166192133" lon="14.614235240529005"><ele>348.0</ele><time>2026-04-26T12:44:32Z</time></trkpt><trkpt lat="40.65120957289421" lon="14.614144137854126"><ele>348.0</ele><time>2026-04-26T12:44:33Z</time></trkpt><trkpt lat="40.651320311657884" lon="14.614194864749452"><ele>348.0</ele><time>2026-04-26T12:44:35Z</time></trkpt><trkpt lat="40.65141592318993" lon="14.61425042455782"><ele>349.0</ele><time>2026-04-26T12:44:37Z</time></trkpt><trkpt lat="40.65152258949008" lon="14.614282937580438"><ele>350.0</ele><time>2026-04-26T12:44:39Z</time></trkpt><trkpt lat="40.651628563839864" lon="14.614306969922866"><ele>351.0</ele><time>2026-04-26T12:44:40.999Z</time></trkpt><trkpt lat="40.65173365188061" lon="14.614328355851013"><ele>352.0</ele><time>2026-04-26T12:44:42.999Z</time></trkpt><trkpt lat="40.65182757251272" lon="14.614348613064482"><ele>353.0</ele><time>2026-04-26T12:44:44.999Z</time></trkpt><trkpt lat="40.651910429500994" lon="14.614374060893153"><ele>353.0</ele><time>2026-04-26T12:44:46.999Z</time></trkpt><trkpt lat="40.651988967551986" lon="14.61434512240789"><ele>353.0</ele><time>2026-04-26T12:44:48.999Z</time></trkpt><trkpt lat="40.65204644198619" lon="14.614291678557027"><ele>353.0</ele><time>2026-04-26T12:44:51.999Z</time></trkpt><trkpt lat="40.65178243414678" lon="14.614160060801"><ele>353.0</ele><time>2026-04-26T12:45:51Z</time></trkpt><trkpt lat="40.65172244016286" lon="14.61412200738741"><ele>353.0</ele><time>2026-04-26T12:45:52Z</time></trkpt><trkpt lat="40.651675681272174" lon="14.614065194879693"><ele>353.0</ele><time>2026-04-26T12:45:53Z</time></trkpt><trkpt lat="40.65158976180049" lon="14.614030587022107"><ele>353.0</ele><time>2026-04-26T12:45:55Z</time></trkpt><trkpt lat="40.651603839439204" lon="14.613834101756941"><ele>353.0</ele><time>2026-04-26T12:45:56Z</time></trkpt><trkpt lat="40.65161555201618" lon="14.613740794069736"><ele>353.0</ele><time>2026-04-26T12:45:57Z</time></trkpt><trkpt lat="40.65164705965245" lon="14.613653613651769"><ele>353.0</ele><time>2026-04-26T12:45:58Z</time></trkpt><trkpt lat="40.651695928238176" lon="14.613584063644259"><ele>357.2</ele><time>2026-04-26T12:45:59Z</time></trkpt><trkpt lat="40.65176564152868" lon="14.61353404753365"><ele>361.4</ele><time>2026-04-26T12:46:00Z</time></trkpt><trkpt lat="40.651855840839374" lon="14.613505531005924"><ele>365.59999999999997</ele><time>2026-04-26T12:46:00.999Z</time></trkpt><trkpt lat="40.65195637598722" lon="14.61349493667942"><ele>369.79999999999995</ele><time>2026-04-26T12:46:01.999Z</time></trkpt><trkpt lat="40.652059586765574" lon="14.613483223423671"><ele>374.0</ele><time>2026-04-26T12:46:02.999Z</time></trkpt><trkpt lat="40.6521675591582" lon="14.61346474891049"><ele>374.0</ele><time>2026-04-26T12:46:03.999Z</time></trkpt><trkpt lat="40.65229208383492" lon="14.61343362644644"><ele>374.0</ele><time>2026-04-26T12:46:05.06Z</time></trkpt><trkpt lat="40.65240964484507" lon="14.613408964365258"><ele>374.0</ele><time>2026-04-26T12:46:06.061Z</time></trkpt><trkpt lat="40.65253917922971" lon="14.61338997584446"><ele>374.0</ele><time>2026-04-26T12:46:07.052Z</time></trkpt><trkpt lat="40.652674656600276" lon="14.613371173203245"><ele>369.33333333333337</ele><time>2026-04-26T12:46:08.046Z</time></trkpt><trkpt lat="40.652799791106226" lon="14.613352737196504"><ele>364.6666666666667</ele><time>2026-04-26T12:46:09.038Z</time></trkpt><trkpt lat="40.652912179041515" lon="14.613331438893773"><ele>360.0</ele><time>2026-04-26T12:46:10.037Z</time></trkpt><trkpt lat="40.65333287599209" lon="14.613028528959068"><ele>360.0</ele><time>2026-04-26T12:46:13.808Z</time></trkpt><trkpt lat="40.653424499397424" lon="14.612920994086615"><ele>360.0</ele><time>2026-04-26T12:46:14.805Z</time></trkpt><trkpt lat="40.65349956686993" lon="14.612792176355143"><ele>360.0</ele><time>2026-04-26T12:46:15.803Z</time></trkpt><trkpt lat="40.65392192421421" lon="14.612387776661155"><ele>356.0</ele><time>2026-04-26T12:46:23.999Z</time></trkpt><trkpt lat="40.65401845277307" lon="14.612347658295166"><ele>352.0</ele><time>2026-04-26T12:46:24.999Z</time></trkpt><trkpt lat="40.65423277964511" lon="14.612328860191733"><ele>348.0</ele><time>2026-04-26T12:46:25.999Z</time></trkpt><trkpt lat="40.65429582168858" lon="14.612238892144932"><ele>344.0</ele><time>2026-04-26T12:46:26.999Z</time></trkpt><trkpt lat="40.654363643191" lon="14.612158132744247"><ele>344.0</ele><time>2026-04-26T12:46:27.999Z</time></trkpt><trkpt lat="40.65441487071527" lon="14.612044864631956"><ele>344.0</ele><time>2026-04-26T12:46:28.999Z</time></trkpt><trkpt lat="40.65445812350238" lon="14.611932074549873"><ele>344.0</ele><time>2026-04-26T12:46:29.999Z</time></trkpt><trkpt lat="40.65451685100055" lon="14.611871899610936"><ele>344.0</ele><time>2026-04-26T12:46:30.999Z</time></trkpt><trkpt lat="40.654567321030775" lon="14.611804717688942"><ele>344.0</ele><time>2026-04-26T12:46:31.999Z</time></trkpt><trkpt lat="40.65461918201234" lon="14.61174064319201"><ele>344.0</ele><time>2026-04-26T12:46:32.999Z</time></trkpt><trkpt lat="40.65466909745502" lon="14.611681616984095"><ele>340.28571428571433</ele><time>2026-04-26T12:46:33.999Z</time></trkpt><trkpt lat="40.654722123654274" lon="14.611635392472555"><ele>336.57142857142856</ele><time>2026-04-26T12:46:34.999Z</time></trkpt><trkpt lat="40.65478661671134" lon="14.611623015942486"><ele>332.8571428571429</ele><time>2026-04-26T12:46:35.999Z</time></trkpt><trkpt lat="40.65485512006191" lon="14.611644579799076"><ele>329.14285714285717</ele><time>2026-04-26T12:46:36.999Z</time></trkpt><trkpt lat="40.65490935078527" lon="14.61169669179999"><ele>325.42857142857144</ele><time>2026-04-26T12:46:37.999Z</time></trkpt><trkpt lat="40.65496766744945" lon="14.611757186645072"><ele>321.7142857142857</ele><time>2026-04-26T12:46:38.999Z</time></trkpt><trkpt lat="40.655023147435216" lon="14.611828886465457"><ele>318.0</ele><time>2026-04-26T12:46:39.999Z</time></trkpt><trkpt lat="40.655077200347336" lon="14.61190448439367"><ele>318.0</ele><time>2026-04-26T12:46:40.999Z</time></trkpt><trkpt lat="40.655140618136436" lon="14.61197016133973"><ele>318.0</ele><time>2026-04-26T12:46:41.999Z</time></trkpt><trkpt lat="40.655207914199124" lon="14.612015828978253"><ele>318.0</ele><time>2026-04-26T12:46:42.999Z</time></trkpt><trkpt lat="40.655272820023356" lon="14.612052641131617"><ele>318.0</ele><time>2026-04-26T12:46:43.999Z</time></trkpt><trkpt lat="40.655339342792594" lon="14.61208871268399"><ele>318.0</ele><time>2026-04-26T12:46:44.999Z</time></trkpt><trkpt lat="40.65540795810442" lon="14.612127445879246"><ele>318.0</ele><time>2026-04-26T12:46:45.999Z</time></trkpt><trkpt lat="40.65547937184194" lon="14.61216316186824"><ele>318.4</ele><time>2026-04-26T12:46:46.999Z</time></trkpt><trkpt lat="40.655547407769205" lon="14.612188029506045"><ele>318.8</ele><time>2026-04-26T12:46:47.999Z</time></trkpt><trkpt lat="40.65560984509626" lon="14.612198705856368"><ele>319.2</ele><time>2026-04-26T12:46:48.999Z</time></trkpt><trkpt lat="40.65570163494831" lon="14.612154966654526"><ele>319.6</ele><time>2026-04-26T12:46:50.999Z</time></trkpt><trkpt lat="40.65571903713079" lon="14.61201520113446"><ele>320.0</ele><time>2026-04-26T12:46:52.999Z</time></trkpt><trkpt lat="40.655626967956586" lon="14.611914871289322"><ele>320.0</ele><time>2026-04-26T12:46:54.999Z</time></trkpt><trkpt lat="40.655551518099465" lon="14.611898976870675"><ele>320.0</ele><time>2026-04-26T12:46:55.999Z</time></trkpt><trkpt lat="40.655472259960085" lon="14.611879971459361"><ele>320.0</ele><time>2026-04-26T12:46:56.999Z</time></trkpt><trkpt lat="40.65538979359268" lon="14.611847708953198"><ele>320.0</ele><time>2026-04-26T12:46:57.999Z</time></trkpt><trkpt lat="40.65530687542496" lon="14.611810627814613"><ele>320.0</ele><time>2026-04-26T12:46:58.999Z</time></trkpt><trkpt lat="40.65522210235154" lon="14.61176806287478"><ele>320.0</ele><time>2026-04-26T12:46:59.999Z</time></trkpt><trkpt lat="40.655145005241046" lon="14.611704900469809"><ele>319.6666666666667</ele><time>2026-04-26T12:47:00.999Z</time></trkpt><trkpt lat="40.655078588161146" lon="14.61162231373711"><ele>319.33333333333337</ele><time>2026-04-26T12:47:01.999Z</time></trkpt><trkpt lat="40.65502658668437" lon="14.61152662275141"><ele>319.0</ele><time>2026-04-26T12:47:02.999Z</time></trkpt><trkpt lat="40.65497834495989" lon="14.61143024085807"><ele>318.6666666666667</ele><time>2026-04-26T12:47:03.999Z</time></trkpt><trkpt lat="40.65492453077882" lon="14.611342106595957"><ele>318.3333333333333</ele><time>2026-04-26T12:47:04.999Z</time></trkpt><trkpt lat="40.65486869926004" lon="14.611271105368184"><ele>318.0</ele><time>2026-04-26T12:47:05.999Z</time></trkpt><trkpt lat="40.65480364744553" lon="14.611218342875526"><ele>318.0</ele><time>2026-04-26T12:47:06.999Z</time></trkpt><trkpt lat="40.6547310919572" lon="14.61118310585744"><ele>318.0</ele><time>2026-04-26T12:47:07.999Z</time></trkpt><trkpt lat="40.654651362651336" lon="14.611172813845883"><ele>318.0</ele><time>2026-04-26T12:47:08.999Z</time></trkpt><trkpt lat="40.65457749331356" lon="14.611196330338972"><ele>318.0</ele><time>2026-04-26T12:47:09.999Z</time></trkpt><trkpt lat="40.65450749846672" lon="14.611231827481978"><ele>318.0</ele><time>2026-04-26T12:47:10.999Z</time></trkpt><trkpt lat="40.65447800203963" lon="14.611339055662894"><ele>318.0</ele><time>2026-04-26T12:47:11.999Z</time></trkpt><trkpt lat="40.6544516777604" lon="14.611436545465333"><ele>317.1666666666667</ele><time>2026-04-26T12:47:12.999Z</time></trkpt><trkpt lat="40.65442208054991" lon="14.611536778173308"><ele>316.3333333333333</ele><time>2026-04-26T12:47:13.999Z</time></trkpt><trkpt lat="40.65437596553953" lon="14.611629930880843"><ele>315.5</ele><time>2026-04-26T12:47:14.999Z</time></trkpt><trkpt lat="40.65431535082336" lon="14.611707320026039"><ele>314.66666666666663</ele><time>2026-04-26T12:47:15.999Z</time></trkpt><trkpt lat="40.654254101299834" lon="14.611777366209061"><ele>313.8333333333333</ele><time>2026-04-26T12:47:16.999Z</time></trkpt><trkpt lat="40.6541928865277" lon="14.611838998892377"><ele>313.0</ele><time>2026-04-26T12:47:17.999Z</time></trkpt><trkpt lat="40.65412478857235" lon="14.611887443785932"><ele>313.0</ele><time>2026-04-26T12:47:18.999Z</time></trkpt><trkpt lat="40.65405167567407" lon="14.611916086364788"><ele>313.0</ele><time>2026-04-26T12:47:19.999Z</time></trkpt><trkpt lat="40.65397655526421" lon="14.611934042999504"><ele>313.0</ele><time>2026-04-26T12:47:20.999Z</time></trkpt><trkpt lat="40.65390095331001" lon="14.611950433512371"><ele>313.0</ele><time>2026-04-26T12:47:21.999Z</time></trkpt><trkpt lat="40.65382099868835" lon="14.611961325132606"><ele>313.0</ele><time>2026-04-26T12:47:22.999Z</time></trkpt><trkpt lat="40.653737298191444" lon="14.611975700635385"><ele>313.0</ele><time>2026-04-26T12:47:23.999Z</time></trkpt><trkpt lat="40.65364938884722" lon="14.61199080832004"><ele>311.6</ele><time>2026-04-26T12:47:24.999Z</time></trkpt><trkpt lat="40.65355663808309" lon="14.611995077315036"><ele>310.20000000000005</ele><time>2026-04-26T12:47:25.999Z</time></trkpt><trkpt lat="40.65346532391673" lon="14.611978650025467"><ele>308.8</ele><time>2026-04-26T12:47:26.999Z</time></trkpt><trkpt lat="40.6533761401942" lon="14.611945269554742"><ele>307.40000000000003</ele><time>2026-04-26T12:47:27.999Z</time></trkpt><trkpt lat="40.65329030314043" lon="14.611898835372562"><ele>306.0</ele><time>2026-04-26T12:47:28.999Z</time></trkpt><trkpt lat="40.65320841247628" lon="14.61183977588503"><ele>306.0</ele><time>2026-04-26T12:47:29.999Z</time></trkpt><trkpt lat="40.65312443566653" lon="14.611781707757782"><ele>306.0</ele><time>2026-04-26T12:47:30.999Z</time></trkpt><trkpt lat="40.65303410278985" lon="14.61173459263687"><ele>306.0</ele><time>2026-04-26T12:47:31.999Z</time></trkpt><trkpt lat="40.652938339917135" lon="14.611696441824844"><ele>306.0</ele><time>2026-04-26T12:47:32.999Z</time></trkpt><trkpt lat="40.65284369005644" lon="14.611648047078189"><ele>306.0</ele><time>2026-04-26T12:47:33.999Z</time></trkpt><trkpt lat="40.65275371415698" lon="14.611580889364054"><ele>310.0</ele><time>2026-04-26T12:47:34.999Z</time></trkpt><trkpt lat="40.652675642629646" lon="14.611496007946943"><ele>314.0</ele><time>2026-04-26T12:47:35.999Z</time></trkpt><trkpt lat="40.652602508482225" lon="14.611409829405016"><ele>318.0</ele><time>2026-04-26T12:47:36.999Z</time></trkpt><trkpt lat="40.65251826897535" lon="14.61134336753369"><ele>322.0</ele><time>2026-04-26T12:47:37.999Z</time></trkpt><trkpt lat="40.652427131450885" lon="14.611299411385884"><ele>326.0</ele><time>2026-04-26T12:47:38.999Z</time></trkpt><trkpt lat="40.65233791113322" lon="14.611253971578247"><ele>326.0</ele><time>2026-04-26T12:47:39.999Z</time></trkpt><trkpt lat="40.652258823221224" lon="14.611183961158297"><ele>326.0</ele><time>2026-04-26T12:47:40.999Z</time></trkpt><trkpt lat="40.65218896380913" lon="14.61109337476422"><ele>326.0</ele><time>2026-04-26T12:47:41.999Z</time></trkpt><trkpt lat="40.65212652555477" lon="14.610991805491494"><ele>326.0</ele><time>2026-04-26T12:47:42.999Z</time></trkpt><trkpt lat="40.65206549718034" lon="14.610904204747811"><ele>326.0</ele><time>2026-04-26T12:47:43.999Z</time></trkpt><trkpt lat="40.651988819347224" lon="14.610840010367975"><ele>321.40000000000003</ele><time>2026-04-26T12:47:44.999Z</time></trkpt><trkpt lat="40.6518965218728" lon="14.610809023026821"><ele>316.8</ele><time>2026-04-26T12:47:45.999Z</time></trkpt><trkpt lat="40.65180140398023" lon="14.610804609405125"><ele>312.20000000000005</ele><time>2026-04-26T12:47:46.999Z</time></trkpt><trkpt lat="40.65170989321962" lon="14.610800080666833"><ele>307.6</ele><time>2026-04-26T12:47:47.999Z</time></trkpt><trkpt lat="40.6516155427075" lon="14.610770039194769"><ele>303.0</ele><time>2026-04-26T12:47:48.999Z</time></trkpt><trkpt lat="40.65152707839617" lon="14.610717564256044"><ele>303.0</ele><time>2026-04-26T12:47:49.999Z</time></trkpt><trkpt lat="40.651438555043406" lon="14.610672279670453"><ele>303.0</ele><time>2026-04-26T12:47:50.999Z</time></trkpt><trkpt lat="40.651350396978756" lon="14.61062371622278"><ele>303.0</ele><time>2026-04-26T12:47:51.999Z</time></trkpt><trkpt lat="40.65126639570548" lon="14.610551405196347"><ele>303.0</ele><time>2026-04-26T12:47:52.999Z</time></trkpt><trkpt lat="40.65118142404396" lon="14.610464020821498"><ele>303.0</ele><time>2026-04-26T12:47:53.999Z</time></trkpt><trkpt lat="40.651094028741205" lon="14.610370306174799"><ele>301.25</ele><time>2026-04-26T12:47:54.999Z</time></trkpt><trkpt lat="40.65101011837264" lon="14.610260439504104"><ele>299.5</ele><time>2026-04-26T12:47:55.999Z</time></trkpt><trkpt lat="40.65092441380825" lon="14.610153246711057"><ele>297.75</ele><time>2026-04-26T12:47:56.999Z</time></trkpt><trkpt lat="40.65083988442526" lon="14.610047337469602"><ele>296.0</ele><time>2026-04-26T12:47:57.999Z</time></trkpt><trkpt lat="40.65076031035284" lon="14.609952031895055"><ele>296.0</ele><time>2026-04-26T12:47:58.999Z</time></trkpt><trkpt lat="40.650691012682" lon="14.609870520395928"><ele>296.0</ele><time>2026-04-26T12:47:59.999Z</time></trkpt><trkpt lat="40.65062136580811" lon="14.60978897342485"><ele>296.0</ele><time>2026-04-26T12:48:00.999Z</time></trkpt><trkpt lat="40.65054092592067" lon="14.609707850751652"><ele>296.0</ele><time>2026-04-26T12:48:01.999Z</time></trkpt><trkpt lat="40.650447386141344" lon="14.609626152505024"><ele>296.0</ele><time>2026-04-26T12:48:02.999Z</time></trkpt><trkpt lat="40.65034398820691" lon="14.60954432846942"><ele>293.0</ele><time>2026-04-26T12:48:03.999Z</time></trkpt><trkpt lat="40.65024145488505" lon="14.609456717576604"><ele>290.0</ele><time>2026-04-26T12:48:04.999Z</time></trkpt><trkpt lat="40.65013832562618" lon="14.609366201852033"><ele>287.0</ele><time>2026-04-26T12:48:05.999Z</time></trkpt><trkpt lat="40.650033690356736" lon="14.609281330390173"><ele>284.0</ele><time>2026-04-26T12:48:06.999Z</time></trkpt><trkpt lat="40.64993081003493" lon="14.609197178653522"><ele>284.0</ele><time>2026-04-26T12:48:07.999Z</time></trkpt><trkpt lat="40.64982852187138" lon="14.609114066883038"><ele>284.0</ele><time>2026-04-26T12:48:08.999Z</time></trkpt><trkpt lat="40.649725277867276" lon="14.609036468136784"><ele>284.0</ele><time>2026-04-26T12:48:09.999Z</time></trkpt><trkpt lat="40.649618538223066" lon="14.608972416682985"><ele>284.0</ele><time>2026-04-26T12:48:10.999Z</time></trkpt><trkpt lat="40.64950829797428" lon="14.608920102404957"><ele>287.0</ele><time>2026-04-26T12:48:11.999Z</time></trkpt><trkpt lat="40.649396773076504" lon="14.608868095341744"><ele>290.0</ele><time>2026-04-26T12:48:12.999Z</time></trkpt><trkpt lat="40.649284507807955" lon="14.608812815059697"><ele>293.0</ele><time>2026-04-26T12:48:13.999Z</time></trkpt><trkpt lat="40.64917088704144" lon="14.608761790870334"><ele>296.0</ele><time>2026-04-26T12:48:14.999Z</time></trkpt><trkpt lat="40.64905504717963" lon="14.608710212994612"><ele>288.0</ele><time>2026-04-26T12:48:15.999Z</time></trkpt><trkpt lat="40.64893948964298" lon="14.60865599405284"><ele>280.0</ele><time>2026-04-26T12:48:16.999Z</time></trkpt><trkpt lat="40.648822914935366" lon="14.608597676089284"><ele>272.0</ele><time>2026-04-26T12:48:17.999Z</time></trkpt><trkpt lat="40.64870502264309" lon="14.60854898903739"><ele>264.0</ele><time>2026-04-26T12:48:18.999Z</time></trkpt><trkpt lat="40.64858809221685" lon="14.608497841059531"><ele>264.0</ele><time>2026-04-26T12:48:19.999Z</time></trkpt><trkpt lat="40.64847137882167" lon="14.60844387797725"><ele>264.0</ele><time>2026-04-26T12:48:20.999Z</time></trkpt><trkpt lat="40.64835447755586" lon="14.608391237788297"><ele>264.0</ele><time>2026-04-26T12:48:21.999Z</time></trkpt><trkpt lat="40.64823659241099" lon="14.608344839357647"><ele>264.0</ele><time>2026-04-26T12:48:22.999Z</time></trkpt><trkpt lat="40.64811092181514" lon="14.6083071649237"><ele>264.0</ele><time>2026-04-26T12:48:23.999Z</time></trkpt><trkpt lat="40.64798431058004" lon="14.608277368760934"><ele>264.0</ele><time>2026-04-26T12:48:24.999Z</time></trkpt><trkpt lat="40.6478649959813" lon="14.608255774868734"><ele>264.0</ele><time>2026-04-26T12:48:25.999Z</time></trkpt><trkpt lat="40.64775482391618" lon="14.608239968659165"><ele>264.0</ele><time>2026-04-26T12:48:26.999Z</time></trkpt><trkpt lat="40.64765344698281" lon="14.608224689216255"><ele>264.4</ele><time>2026-04-26T12:48:27.999Z</time></trkpt><trkpt lat="40.64756091518357" lon="14.608210804190476"><ele>264.79999999999995</ele><time>2026-04-26T12:48:28.999Z</time></trkpt><trkpt lat="40.64748812860952" lon="14.608195107974492"><ele>265.20000000000005</ele><time>2026-04-26T12:48:29.999Z</time></trkpt><trkpt lat="40.64738848400789" lon="14.60806544342904"><ele>265.6</ele><time>2026-04-26T12:48:31.999Z</time></trkpt><trkpt lat="40.64745505135077" lon="14.60799421236615"><ele>266.0</ele><time>2026-04-26T12:48:33.999Z</time></trkpt><trkpt lat="40.64753174759184" lon="14.607995570890278"><ele>266.0</ele><time>2026-04-26T12:48:34.999Z</time></trkpt><trkpt lat="40.647616253720244" lon="14.608039709082544"><ele>266.0</ele><time>2026-04-26T12:48:35.999Z</time></trkpt><trkpt lat="40.64771081460056" lon="14.608075541259316"><ele>266.0</ele><time>2026-04-26T12:48:36.999Z</time></trkpt><trkpt lat="40.64781913125245" lon="14.608104952166437"><ele>266.0</ele><time>2026-04-26T12:48:37.999Z</time></trkpt><trkpt lat="40.64793888738317" lon="14.608128121294897"><ele>266.0</ele><time>2026-04-26T12:48:38.999Z</time></trkpt><trkpt lat="40.648071100739834" lon="14.608149613643377"><ele>265.5</ele><time>2026-04-26T12:48:39.999Z</time></trkpt><trkpt lat="40.64820211983849" lon="14.608170288082933"><ele>265.0</ele><time>2026-04-26T12:48:40.999Z</time></trkpt><trkpt lat="40.648326470486985" lon="14.6081880877646"><ele>264.5</ele><time>2026-04-26T12:48:41.999Z</time></trkpt><trkpt lat="40.6484421486812" lon="14.60820977911216"><ele>264.0</ele><time>2026-04-26T12:48:42.999Z</time></trkpt><trkpt lat="40.64854289941807" lon="14.608234761051921"><ele>262.3333333333333</ele><time>2026-04-26T12:48:43.999Z</time></trkpt><trkpt lat="40.64863043553959" lon="14.608247408690746"><ele>260.6666666666667</ele><time>2026-04-26T12:48:44.999Z</time></trkpt><trkpt lat="40.64871395525931" lon="14.60826944101698"><ele>259.0</ele><time>2026-04-26T12:48:45.999Z</time></trkpt><trkpt lat="40.648788090839076" lon="14.608277291962427"><ele>257.33333333333337</ele><time>2026-04-26T12:48:46.999Z</time></trkpt><trkpt lat="40.64884611071781" lon="14.608244832709516"><ele>255.66666666666669</ele><time>2026-04-26T12:48:47.999Z</time></trkpt><trkpt lat="40.648877371045536" lon="14.608085073429264"><ele>254.0</ele><time>2026-04-26T12:48:49.999Z</time></trkpt><trkpt lat="40.64882467055807" lon="14.608001897958971"><ele>254.0</ele><time>2026-04-26T12:48:50.999Z</time></trkpt><trkpt lat="40.64873944999388" lon="14.607972803831428"><ele>253.99999999999997</ele><time>2026-04-26T12:48:51.999Z</time></trkpt><trkpt lat="40.64864969800305" lon="14.607981908408453"><ele>253.99999999999997</ele><time>2026-04-26T12:48:52.999Z</time></trkpt><trkpt lat="40.64856069824255" lon="14.608002740416525"><ele>254.0</ele><time>2026-04-26T12:48:53.999Z</time></trkpt><trkpt lat="40.6484680044571" lon="14.607980194472706"><ele>254.0</ele><time>2026-04-26T12:48:54.999Z</time></trkpt><trkpt lat="40.64837031229652" lon="14.60796490881485"><ele>256.5</ele><time>2026-04-26T12:48:55.999Z</time></trkpt><trkpt lat="40.648263912021136" lon="14.607941866011318"><ele>259.0</ele><time>2026-04-26T12:48:56.999Z</time></trkpt><trkpt lat="40.64815492053568" lon="14.607912370479982"><ele>261.5</ele><time>2026-04-26T12:48:57.999Z</time></trkpt><trkpt lat="40.64804055958593" lon="14.607880588103194"><ele>264.0</ele><time>2026-04-26T12:48:58.999Z</time></trkpt><trkpt lat="40.647924070494156" lon="14.607867219007142"><ele>264.0</ele><time>2026-04-26T12:48:59.999Z</time></trkpt><trkpt lat="40.647814603640974" lon="14.607833923091778"><ele>264.0</ele><time>2026-04-26T12:49:00.999Z</time></trkpt><trkpt lat="40.64770697250601" lon="14.60780226581774"><ele>264.0</ele><time>2026-04-26T12:49:01.999Z</time></trkpt><trkpt lat="40.647599681123374" lon="14.607769267127573"><ele>264.0</ele><time>2026-04-26T12:49:02.999Z</time></trkpt><trkpt lat="40.64749064609918" lon="14.607748479027302"><ele>264.0</ele><time>2026-04-26T12:49:03.999Z</time></trkpt><trkpt lat="40.647382755719846" lon="14.607737973124117"><ele>264.3333333333333</ele><time>2026-04-26T12:49:04.999Z</time></trkpt><trkpt lat="40.64728631596919" lon="14.607739374166533"><ele>264.6666666666667</ele><time>2026-04-26T12:49:05.999Z</time></trkpt><trkpt lat="40.647199742932706" lon="14.607764080545053"><ele>265.0</ele><time>2026-04-26T12:49:06.999Z</time></trkpt><trkpt lat="40.64712457198971" lon="14.607793919155608"><ele>265.33333333333337</ele><time>2026-04-26T12:49:07.999Z</time></trkpt><trkpt lat="40.64705245247755" lon="14.607818662860437"><ele>265.6666666666667</ele><time>2026-04-26T12:49:08.999Z</time></trkpt><trkpt lat="40.64698416944286" lon="14.607843011745219"><ele>266.0</ele><time>2026-04-26T12:49:09.999Z</time></trkpt><trkpt lat="40.64691631586593" lon="14.607866134639691"><ele>264.1666666666667</ele><time>2026-04-26T12:49:10.999Z</time></trkpt><trkpt lat="40.64685439024948" lon="14.60788328302812"><ele>262.33333333333337</ele><time>2026-04-26T12:49:11.999Z</time></trkpt><trkpt lat="40.64674812828404" lon="14.607907508749076"><ele>260.5</ele><time>2026-04-26T12:49:13.999Z</time></trkpt><trkpt lat="40.64666317347214" lon="14.607919336099089"><ele>258.6666666666667</ele><time>2026-04-26T12:49:15.999Z</time></trkpt><trkpt lat="40.64659214723458" lon="14.607931454107073"><ele>256.8333333333333</ele><time>2026-04-26T12:49:17.999Z</time></trkpt><trkpt lat="40.646518867917415" lon="14.607941880196176"><ele>255.0</ele><time>2026-04-26T12:49:20.999Z</time></trkpt><trkpt lat="40.646447499028035" lon="14.607889766004812"><ele>255.0</ele><time>2026-04-26T12:55:50Z</time></trkpt><trkpt lat="40.64637114281203" lon="14.60793407659821"><ele>255.0</ele><time>2026-04-26T12:55:55.001Z</time></trkpt><trkpt lat="40.64630818158432" lon="14.607963509905213"><ele>255.0</ele><time>2026-04-26T12:55:56.001Z</time></trkpt><trkpt lat="40.646234627512456" lon="14.607976799347883"><ele>255.0</ele><time>2026-04-26T12:55:57.001Z</time></trkpt><trkpt lat="40.64615308542572" lon="14.608003834884963"><ele>255.0</ele><time>2026-04-26T12:55:58.001Z</time></trkpt><trkpt lat="40.6460744880435" lon="14.608015646209003"><ele>255.0</ele><time>2026-04-26T12:55:59.001Z</time></trkpt><trkpt lat="40.64600480307503" lon="14.608022114499136"><ele>252.14285714285717</ele><time>2026-04-26T12:56:00.001Z</time></trkpt><trkpt lat="40.64593694203472" lon="14.608032783832478"><ele>249.2857142857143</ele><time>2026-04-26T12:56:01.001Z</time></trkpt><trkpt lat="40.64586976854904" lon="14.608050631638532"><ele>246.42857142857144</ele><time>2026-04-26T12:56:02.001Z</time></trkpt><trkpt lat="40.645792148341805" lon="14.608076597150149"><ele>243.57142857142856</ele><time>2026-04-26T12:56:03.001Z</time></trkpt><trkpt lat="40.645723942936655" lon="14.608098491717728"><ele>240.7142857142857</ele><time>2026-04-26T12:56:04.001Z</time></trkpt><trkpt lat="40.645658442372806" lon="14.608119142378001"><ele>237.85714285714283</ele><time>2026-04-26T12:56:05.001Z</time></trkpt><trkpt lat="40.64559180954313" lon="14.60814325285742"><ele>235.0</ele><time>2026-04-26T12:56:06.001Z</time></trkpt><trkpt lat="40.6455195913998" lon="14.608167713619421"><ele>234.99999999999997</ele><time>2026-04-26T12:56:07.001Z</time></trkpt><trkpt lat="40.6454502992311" lon="14.608203588574023"><ele>235.0</ele><time>2026-04-26T12:56:08.001Z</time></trkpt><trkpt lat="40.64538395588523" lon="14.608264079010997"><ele>235.0</ele><time>2026-04-26T12:56:09.001Z</time></trkpt><trkpt lat="40.645332013937356" lon="14.608341916051193"><ele>235.0</ele><time>2026-04-26T12:56:10.001Z</time></trkpt><trkpt lat="40.64528303976046" lon="14.60841052960647"><ele>234.99999999999997</ele><time>2026-04-26T12:56:11.001Z</time></trkpt><trkpt lat="40.645221223257764" lon="14.608465840671506"><ele>235.0</ele><time>2026-04-26T12:56:12.001Z</time></trkpt><trkpt lat="40.64514995461023" lon="14.608501488024014"><ele>229.33333333333331</ele><time>2026-04-26T12:56:13Z</time></trkpt><trkpt lat="40.64507487326736" lon="14.608516656287184"><ele>223.66666666666666</ele><time>2026-04-26T12:56:14Z</time></trkpt><trkpt lat="40.644998688773576" lon="14.608518064451145"><ele>218.0</ele><time>2026-04-26T12:56:15Z</time></trkpt><trkpt lat="40.644924223198025" lon="14.608523363880712"><ele>212.33333333333331</ele><time>2026-04-26T12:56:16Z</time></trkpt><trkpt lat="40.644844403276636" lon="14.608537882341018"><ele>206.66666666666666</ele><time>2026-04-26T12:56:17Z</time></trkpt><trkpt lat="40.64476432857698" lon="14.608544935874113"><ele>201.0</ele><time>2026-04-26T12:56:18Z</time></trkpt><trkpt lat="40.644687548207344" lon="14.608526191147792"><ele>201.0</ele><time>2026-04-26T12:56:19Z</time></trkpt><trkpt lat="40.64460459070242" lon="14.608469068036458"><ele>201.0</ele><time>2026-04-26T12:56:20Z</time></trkpt><trkpt lat="40.64453276912551" lon="14.60841429332648"><ele>201.0</ele><time>2026-04-26T12:56:21Z</time></trkpt><trkpt lat="40.64446441940962" lon="14.60836876099717"><ele>201.0</ele><time>2026-04-26T12:56:22Z</time></trkpt><trkpt lat="40.6443967547874" lon="14.608335568676734"><ele>201.0</ele><time>2026-04-26T12:56:23Z</time></trkpt><trkpt lat="40.64430533208937" lon="14.608302087689449"><ele>201.0</ele><time>2026-04-26T12:56:25Z</time></trkpt><trkpt lat="40.64422583947339" lon="14.60828767269387"><ele>216.66666666666666</ele><time>2026-04-26T12:56:27Z</time></trkpt><trkpt lat="40.64414530090089" lon="14.60826693609301"><ele>232.33333333333331</ele><time>2026-04-26T12:56:29Z</time></trkpt><trkpt lat="40.64406550572956" lon="14.608244199976998"><ele>248.0</ele><time>2026-04-26T12:56:31Z</time></trkpt><trkpt lat="40.64396844488823" lon="14.608187739088093"><ele>263.66666666666663</ele><time>2026-04-26T12:56:33Z</time></trkpt><trkpt lat="40.6439019935652" lon="14.608102582275931"><ele>279.3333333333333</ele><time>2026-04-26T12:56:35Z</time></trkpt><trkpt lat="40.643863013089856" lon="14.60803068991514"><ele>295.0</ele><time>2026-04-26T12:56:37Z</time></trkpt><trkpt lat="40.64381601050371" lon="14.607973478803356"><ele>295.0</ele><time>2026-04-26T12:56:39Z</time></trkpt><trkpt lat="40.64377675333142" lon="14.607893259211005"><ele>295.0</ele><time>2026-04-26T12:56:42Z</time></trkpt><trkpt lat="40.64386420710132" lon="14.60783553381921"><ele>295.0</ele><time>2026-04-26T12:56:45Z</time></trkpt><trkpt lat="40.64391941298752" lon="14.607921915051175"><ele>295.0</ele><time>2026-04-26T12:56:47Z</time></trkpt><trkpt lat="40.643951269334266" lon="14.608028413038754"><ele>295.0</ele><time>2026-04-26T12:56:49Z</time></trkpt><trkpt lat="40.64400016962518" lon="14.608120031765685"><ele>295.0</ele><time>2026-04-26T12:56:51Z</time></trkpt><trkpt lat="40.644075474958704" lon="14.60818674845187"><ele>295.0</ele><time>2026-04-26T12:56:53Z</time></trkpt><trkpt lat="40.64419714326578" lon="14.60817765904119"><ele>295.0</ele><time>2026-04-26T12:56:55Z</time></trkpt><trkpt lat="40.64432431331794" lon="14.608144463703795"><ele>295.0</ele><time>2026-04-26T12:56:57Z</time></trkpt><trkpt lat="40.6443945000749" lon="14.608149491675388"><ele>295.0</ele><time>2026-04-26T12:56:58Z</time></trkpt><trkpt lat="40.64445578818034" lon="14.60817939142925"><ele>295.0</ele><time>2026-04-26T12:56:59Z</time></trkpt><trkpt lat="40.64451705663865" lon="14.608218159542742"><ele>279.3333333333333</ele><time>2026-04-26T12:57:00Z</time></trkpt><trkpt lat="40.64458170022746" lon="14.608254164168871"><ele>263.66666666666663</ele><time>2026-04-26T12:57:01Z</time></trkpt><trkpt lat="40.6446446287817" lon="14.60828748525755"><ele>248.0</ele><time>2026-04-26T12:57:02Z</time></trkpt><trkpt lat="40.6447061248316" lon="14.608311606773452"><ele>232.33333333333331</ele><time>2026-04-26T12:57:03Z</time></trkpt><trkpt lat="40.644822678078285" lon="14.608325642221933"><ele>216.66666666666666</ele><time>2026-04-26T12:57:05Z</time></trkpt><trkpt lat="40.64492290005017" lon="14.608320747670087"><ele>201.0</ele><time>2026-04-26T12:57:07Z</time></trkpt><trkpt lat="40.64501671332989" lon="14.608294352279481"><ele>201.0</ele><time>2026-04-26T12:57:09Z</time></trkpt><trkpt lat="40.645108881692494" lon="14.60826818247394"><ele>201.0</ele><time>2026-04-26T12:57:11Z</time></trkpt><trkpt lat="40.645193586632864" lon="14.608214884242743"><ele>201.0</ele><time>2026-04-26T12:57:13Z</time></trkpt><trkpt lat="40.645248669072764" lon="14.608141085624274"><ele>201.0</ele><time>2026-04-26T12:57:15Z</time></trkpt><trkpt lat="40.645200992886366" lon="14.608037755385238"><ele>201.0</ele><time>2026-04-26T12:57:17Z</time></trkpt><trkpt lat="40.645103864688" lon="14.608103225391595"><ele>201.0</ele><time>2026-04-26T12:57:19Z</time></trkpt><trkpt lat="40.64501075591626" lon="14.608193856545986"><ele>201.0</ele><time>2026-04-26T12:57:21Z</time></trkpt><trkpt lat="40.64490641275987" lon="14.60819844712922"><ele>201.0</ele><time>2026-04-26T12:57:23Z</time></trkpt><trkpt lat="40.6448428804227" lon="14.608196998718665"><ele>201.0</ele><time>2026-04-26T12:57:24Z</time></trkpt><trkpt lat="40.64477354212114" lon="14.608182422334304"><ele>201.0</ele><time>2026-04-26T12:57:25Z</time></trkpt><trkpt lat="40.64469809486116" lon="14.608141102102632"><ele>201.0</ele><time>2026-04-26T12:57:26Z</time></trkpt><trkpt lat="40.64461568381748" lon="14.608081538654949"><ele>201.0</ele><time>2026-04-26T12:57:27Z</time></trkpt><trkpt lat="40.644529805258145" lon="14.608015104268656"><ele>201.0</ele><time>2026-04-26T12:57:28Z</time></trkpt><trkpt lat="40.64443858458059" lon="14.607950904226813"><ele>201.0</ele><time>2026-04-26T12:57:29Z</time></trkpt><trkpt lat="40.64434250706666" lon="14.607910607600838"><ele>201.0</ele><time>2026-04-26T12:57:30Z</time></trkpt><trkpt lat="40.64424823162531" lon="14.607882304341679"><ele>201.0</ele><time>2026-04-26T12:57:31Z</time></trkpt><trkpt lat="40.644165406334736" lon="14.607843997660368"><ele>197.4</ele><time>2026-04-26T12:57:32Z</time></trkpt><trkpt lat="40.64410470211403" lon="14.607764741737569"><ele>193.8</ele><time>2026-04-26T12:57:33Z</time></trkpt><trkpt lat="40.644027989841575" lon="14.607693398907843"><ele>190.20000000000002</ele><time>2026-04-26T12:57:34Z</time></trkpt><trkpt lat="40.6439601407011" lon="14.607616710244319"><ele>186.60000000000002</ele><time>2026-04-26T12:57:35Z</time></trkpt><trkpt lat="40.6438955960524" lon="14.607535317360648"><ele>183.0</ele><time>2026-04-26T12:57:36Z</time></trkpt><trkpt lat="40.643804827644836" lon="14.607496129678676"><ele>183.0</ele><time>2026-04-26T12:57:37Z</time></trkpt><trkpt lat="40.64370941530195" lon="14.607493128672091"><ele>183.0</ele><time>2026-04-26T12:57:38Z</time></trkpt><trkpt lat="40.64361533469499" lon="14.607513290827995"><ele>183.0</ele><time>2026-04-26T12:57:39Z</time></trkpt><trkpt lat="40.64352387921529" lon="14.607534842040685"><ele>183.0</ele><time>2026-04-26T12:57:40Z</time></trkpt><trkpt lat="40.64343237967301" lon="14.607552480107456"><ele>183.0</ele><time>2026-04-26T12:57:41Z</time></trkpt><trkpt lat="40.643337806305944" lon="14.607564764483707"><ele>183.0</ele><time>2026-04-26T12:57:42Z</time></trkpt><trkpt lat="40.6432355255947" lon="14.607587575197572"><ele>183.0</ele><time>2026-04-26T12:57:43Z</time></trkpt><trkpt lat="40.643131437815455" lon="14.607578151753769"><ele>183.0</ele><time>2026-04-26T12:57:44Z</time></trkpt><trkpt lat="40.64302256862382" lon="14.607568220722527"><ele>183.0</ele><time>2026-04-26T12:57:45Z</time></trkpt><trkpt lat="40.642913094059814" lon="14.607555066833694"><ele>183.0</ele><time>2026-04-26T12:57:46Z</time></trkpt><trkpt lat="40.64280101835597" lon="14.607547186055314"><ele>177.0</ele><time>2026-04-26T12:57:47Z</time></trkpt><trkpt lat="40.6426931198487" lon="14.607549883045367"><ele>171.0</ele><time>2026-04-26T12:57:48Z</time></trkpt><trkpt lat="40.64259223761088" lon="14.607555761486333"><ele>165.0</ele><time>2026-04-26T12:57:49Z</time></trkpt><trkpt lat="40.642495910020884" lon="14.607553110439138"><ele>159.0</ele><time>2026-04-26T12:57:50Z</time></trkpt><trkpt lat="40.64240473121844" lon="14.607539497553894"><ele>153.0</ele><time>2026-04-26T12:57:51Z</time></trkpt><trkpt lat="40.642316366702175" lon="14.607518080640778"><ele>153.0</ele><time>2026-04-26T12:57:52Z</time></trkpt><trkpt lat="40.642233894966566" lon="14.607489396599723"><ele>153.0</ele><time>2026-04-26T12:57:53Z</time></trkpt><trkpt lat="40.642153388733966" lon="14.607469438356278"><ele>153.0</ele><time>2026-04-26T12:57:54Z</time></trkpt><trkpt lat="40.64207342439527" lon="14.607446570845552"><ele>153.0</ele><time>2026-04-26T12:57:55Z</time></trkpt><trkpt lat="40.64199304891098" lon="14.607428687572211"><ele>153.0</ele><time>2026-04-26T12:57:56Z</time></trkpt><trkpt lat="40.641912779499954" lon="14.60743919020364"><ele>153.0</ele><time>2026-04-26T12:57:57Z</time></trkpt><trkpt lat="40.64183259379231" lon="14.607479939155374"><ele>150.8</ele><time>2026-04-26T12:57:58Z</time></trkpt><trkpt lat="40.64175330720327" lon="14.607532425377554"><ele>148.60000000000002</ele><time>2026-04-26T12:57:59Z</time></trkpt><trkpt lat="40.64166848732005" lon="14.607581699923442"><ele>146.39999999999998</ele><time>2026-04-26T12:58:00Z</time></trkpt><trkpt lat="40.64158153202569" lon="14.60763674993546"><ele>144.2</ele><time>2026-04-26T12:58:01Z</time></trkpt><trkpt lat="40.64149938376075" lon="14.607700872570975"><ele>142.0</ele><time>2026-04-26T12:58:02Z</time></trkpt><trkpt lat="40.64141700882418" lon="14.607759387012194"><ele>142.0</ele><time>2026-04-26T12:58:03Z</time></trkpt><trkpt lat="40.6413329520282" lon="14.607808336816387"><ele>142.0</ele><time>2026-04-26T12:58:04Z</time></trkpt><trkpt lat="40.641244632572324" lon="14.607839612507362"><ele>142.0</ele><time>2026-04-26T12:58:05Z</time></trkpt><trkpt lat="40.64115062595223" lon="14.607827900174355"><ele>142.0</ele><time>2026-04-26T12:58:06Z</time></trkpt><trkpt lat="40.64104097485233" lon="14.60780363024676"><ele>142.0</ele><time>2026-04-26T12:58:07Z</time></trkpt><trkpt lat="40.640925076070516" lon="14.607798471173306"><ele>132.75</ele><time>2026-04-26T12:58:08Z</time></trkpt><trkpt lat="40.6408041918423" lon="14.607809466575802"><ele>123.5</ele><time>2026-04-26T12:58:09Z</time></trkpt><trkpt lat="40.64068645278901" lon="14.607834199761013"><ele>114.25</ele><time>2026-04-26T12:58:10Z</time></trkpt><trkpt lat="40.64056902215959" lon="14.607849540254989"><ele>105.0</ele><time>2026-04-26T12:58:11Z</time></trkpt><trkpt lat="40.640457405752336" lon="14.607870949356993"><ele>114.4</ele><time>2026-04-26T12:58:12Z</time></trkpt><trkpt lat="40.64035028392448" lon="14.607892787294169"><ele>123.8</ele><time>2026-04-26T12:58:13Z</time></trkpt><trkpt lat="40.64025546021799" lon="14.60793570119122"><ele>133.2</ele><time>2026-04-26T12:58:14Z</time></trkpt><trkpt lat="40.64018030467735" lon="14.607994762155387"><ele>142.6</ele><time>2026-04-26T12:58:15Z</time></trkpt><trkpt lat="40.6401227945772" lon="14.608083798435857"><ele>152.0</ele><time>2026-04-26T12:58:16Z</time></trkpt><trkpt lat="40.640083856943335" lon="14.608177027573243"><ele>152.0</ele><time>2026-04-26T12:58:17Z</time></trkpt><trkpt lat="40.64005280152473" lon="14.60826268140823"><ele>152.0</ele><time>2026-04-26T12:58:18Z</time></trkpt><trkpt lat="40.64002390089933" lon="14.60833645343288"><ele>152.0</ele><time>2026-04-26T12:58:19Z</time></trkpt><trkpt lat="40.639938740892184" lon="14.60844477109527"><ele>152.0</ele><time>2026-04-26T12:58:21Z</time></trkpt><trkpt lat="40.63988281342275" lon="14.608488921674242"><ele>152.0</ele><time>2026-04-26T12:58:22Z</time></trkpt><trkpt lat="40.6398198334891" lon="14.608517485549584"><ele>152.0</ele><time>2026-04-26T12:58:23Z</time></trkpt><trkpt lat="40.63974619613451" lon="14.608517683372423"><ele>152.0</ele><time>2026-04-26T12:58:24Z</time></trkpt><trkpt lat="40.63966835243829" lon="14.608490474100465"><ele>152.0</ele><time>2026-04-26T12:58:25Z</time></trkpt><trkpt lat="40.63960339985743" lon="14.608407571764944"><ele>152.0</ele><time>2026-04-26T12:58:26Z</time></trkpt><trkpt lat="40.63952274094956" lon="14.608355781849477"><ele>152.0</ele><time>2026-04-26T12:58:27Z</time></trkpt><trkpt lat="40.63945022496501" lon="14.608296753819003"><ele>152.0</ele><time>2026-04-26T12:58:28Z</time></trkpt><trkpt lat="40.639375141065024" lon="14.60826058257301"><ele>152.0</ele><time>2026-04-26T12:58:29Z</time></trkpt><trkpt lat="40.63931535419129" lon="14.608227832210167"><ele>150.33333333333331</ele><time>2026-04-26T12:58:30Z</time></trkpt><trkpt lat="40.639257002948845" lon="14.608280974265531"><ele>148.66666666666666</ele><time>2026-04-26T12:58:31Z</time></trkpt><trkpt lat="40.63919510005216" lon="14.608329449258903"><ele>147.0</ele><time>2026-04-26T12:58:32Z</time></trkpt><trkpt lat="40.63915904831911" lon="14.60843013424147"><ele>145.33333333333334</ele><time>2026-04-26T12:58:33Z</time></trkpt><trkpt lat="40.63911625504516" lon="14.608513396204089"><ele>143.66666666666669</ele><time>2026-04-26T12:58:34Z</time></trkpt><trkpt lat="40.639054259322386" lon="14.608563213366375"><ele>142.0</ele><time>2026-04-26T12:58:35Z</time></trkpt><trkpt lat="40.638978625472234" lon="14.608581278850439"><ele>142.0</ele><time>2026-04-26T12:58:36Z</time></trkpt><trkpt lat="40.63889944447474" lon="14.608596110351735"><ele>142.0</ele><time>2026-04-26T12:58:37Z</time></trkpt><trkpt lat="40.63882432156158" lon="14.60858165420404"><ele>142.0</ele><time>2026-04-26T12:58:38Z</time></trkpt><trkpt lat="40.63875648337013" lon="14.608532821325763"><ele>142.0</ele><time>2026-04-26T12:58:39Z</time></trkpt><trkpt lat="40.63869622832044" lon="14.608464306241169"><ele>142.0</ele><time>2026-04-26T12:58:40Z</time></trkpt><trkpt lat="40.63862540741252" lon="14.608406396827721"><ele>142.0</ele><time>2026-04-26T12:58:41Z</time></trkpt><trkpt lat="40.63856995802033" lon="14.608333022869319"><ele>137.5</ele><time>2026-04-26T12:58:42Z</time></trkpt><trkpt lat="40.638496102259104" lon="14.608307334271588"><ele>133.0</ele><time>2026-04-26T12:58:43Z</time></trkpt><trkpt lat="40.638423211455475" lon="14.608303230763239"><ele>128.5</ele><time>2026-04-26T12:58:44Z</time></trkpt><trkpt lat="40.63834866856451" lon="14.60831816441904"><ele>124.0</ele><time>2026-04-26T12:58:45Z</time></trkpt><trkpt lat="40.638271879064426" lon="14.60836827366205"><ele>119.50000000000001</ele><time>2026-04-26T12:58:46Z</time></trkpt><trkpt lat="40.638193296549005" lon="14.608444138346162"><ele>115.0</ele><time>2026-04-26T12:58:47Z</time></trkpt><trkpt lat="40.6381339505125" lon="14.608497952094943"><ele>115.00000000000001</ele><time>2026-04-26T12:58:48Z</time></trkpt><trkpt lat="40.638076350355966" lon="14.608572285281411"><ele>115.0</ele><time>2026-04-26T12:58:49Z</time></trkpt><trkpt lat="40.63800664690979" lon="14.608620269063083"><ele>115.0</ele><time>2026-04-26T12:58:50Z</time></trkpt><trkpt lat="40.63794018540269" lon="14.608674783873152"><ele>115.0</ele><time>2026-04-26T12:58:51Z</time></trkpt><trkpt lat="40.63788179372606" lon="14.608741033067515"><ele>115.00000000000001</ele><time>2026-04-26T12:58:52Z</time></trkpt><trkpt lat="40.637827847801404" lon="14.60881262503944"><ele>115.0</ele><time>2026-04-26T12:58:53Z</time></trkpt><trkpt lat="40.63776476247146" lon="14.60886885206485"><ele>111.0</ele><time>2026-04-26T12:58:54Z</time></trkpt><trkpt lat="40.6377096238367" lon="14.608936934061061"><ele>107.0</ele><time>2026-04-26T12:58:55Z</time></trkpt><trkpt lat="40.63766854365336" lon="14.609008453281012"><ele>103.0</ele><time>2026-04-26T12:58:56Z</time></trkpt><trkpt lat="40.637638871565414" lon="14.609167652115374"><ele>99.0</ele><time>2026-04-26T12:58:58Z</time></trkpt><trkpt lat="40.63762350738183" lon="14.609325147217605"><ele>95.0</ele><time>2026-04-26T12:59:00Z</time></trkpt><trkpt lat="40.63764234907026" lon="14.60948673229408"><ele>98.0</ele><time>2026-04-26T12:59:02Z</time></trkpt><trkpt lat="40.637682175085075" lon="14.609562841873705"><ele>101.0</ele><time>2026-04-26T12:59:03Z</time></trkpt><trkpt lat="40.63770362926688" lon="14.609645418977305"><ele>104.0</ele><time>2026-04-26T12:59:04Z</time></trkpt><trkpt lat="40.63773932112341" lon="14.609726802337557"><ele>107.0</ele><time>2026-04-26T12:59:05Z</time></trkpt><trkpt lat="40.637782182437796" lon="14.609808395335243"><ele>110.0</ele><time>2026-04-26T12:59:06Z</time></trkpt><trkpt lat="40.6378128179796" lon="14.6099023529782"><ele>113.00000000000001</ele><time>2026-04-26T12:59:07Z</time></trkpt><trkpt lat="40.63787613002812" lon="14.609967843547244"><ele>116.00000000000001</ele><time>2026-04-26T12:59:08Z</time></trkpt><trkpt lat="40.63792547898" lon="14.610053143247642"><ele>123.0</ele><time>2026-04-26T12:59:09Z</time></trkpt><trkpt lat="40.63802149830443" lon="14.610068753735913"><ele>130.0</ele><time>2026-04-26T12:59:10Z</time></trkpt><trkpt lat="40.63810266533645" lon="14.610113150228978"><ele>137.0</ele><time>2026-04-26T12:59:11Z</time></trkpt><trkpt lat="40.63818944674665" lon="14.610122245674129"><ele>144.0</ele><time>2026-04-26T12:59:12Z</time></trkpt><trkpt lat="40.63826917012385" lon="14.610174224851576"><ele>151.0</ele><time>2026-04-26T12:59:13Z</time></trkpt><trkpt lat="40.63834208509425" lon="14.6102457808926"><ele>151.0</ele><time>2026-04-26T12:59:14Z</time></trkpt><trkpt lat="40.6384086824189" lon="14.610324213218732"><ele>151.0</ele><time>2026-04-26T12:59:15Z</time></trkpt><trkpt lat="40.6384766604285" lon="14.610407433487804"><ele>151.0</ele><time>2026-04-26T12:59:16Z</time></trkpt><trkpt lat="40.63854269985077" lon="14.610498302724242"><ele>151.0</ele><time>2026-04-26T12:59:17Z</time></trkpt><trkpt lat="40.63860081561476" lon="14.610605514786313"><ele>151.0</ele><time>2026-04-26T12:59:18Z</time></trkpt><trkpt lat="40.638648951700404" lon="14.610715917851277"><ele>152.16666666666669</ele><time>2026-04-26T12:59:19Z</time></trkpt><trkpt lat="40.638691983484684" lon="14.610821318064987"><ele>153.33333333333334</ele><time>2026-04-26T12:59:20Z</time></trkpt><trkpt lat="40.63873237118788" lon="14.610920940560701"><ele>154.5</ele><time>2026-04-26T12:59:21Z</time></trkpt><trkpt lat="40.638784534920646" lon="14.611013486994757"><ele>155.66666666666666</ele><time>2026-04-26T12:59:22Z</time></trkpt><trkpt lat="40.638849026912126" lon="14.611088020725575"><ele>156.83333333333331</ele><time>2026-04-26T12:59:23Z</time></trkpt><trkpt lat="40.6389257848339" lon="14.611157902210927"><ele>158.0</ele><time>2026-04-26T12:59:24Z</time></trkpt><trkpt lat="40.639004877456784" lon="14.611225953644666"><ele>151.20000000000002</ele><time>2026-04-26T12:59:25Z</time></trkpt><trkpt lat="40.639083102901935" lon="14.61129734463687"><ele>144.4</ele><time>2026-04-26T12:59:26Z</time></trkpt><trkpt lat="40.6391634031771" lon="14.611371149616637"><ele>137.60000000000002</ele><time>2026-04-26T12:59:27Z</time></trkpt><trkpt lat="40.63924488314369" lon="14.611439264270969"><ele>130.8</ele><time>2026-04-26T12:59:28Z</time></trkpt><trkpt lat="40.63932511328372" lon="14.611502200471511"><ele>124.0</ele><time>2026-04-26T12:59:29Z</time></trkpt><trkpt lat="40.63940320204563" lon="14.611563565299676"><ele>128.0</ele><time>2026-04-26T12:59:30Z</time></trkpt><trkpt lat="40.63948033770379" lon="14.611610704423748"><ele>132.0</ele><time>2026-04-26T12:59:31Z</time></trkpt><trkpt lat="40.63955788483408" lon="14.611646778285616"><ele>136.0</ele><time>2026-04-26T12:59:32Z</time></trkpt><trkpt lat="40.63963331118025" lon="14.611675343216724"><ele>140.0</ele><time>2026-04-26T12:59:33Z</time></trkpt><trkpt lat="40.63970439142099" lon="14.611689546062244"><ele>144.0</ele><time>2026-04-26T12:59:34Z</time></trkpt><trkpt lat="40.639771308997936" lon="14.611690477367237"><ele>148.0</ele><time>2026-04-26T12:59:35Z</time></trkpt><trkpt lat="40.63988885449847" lon="14.611696059154006"><ele>148.0</ele><time>2026-04-26T12:59:36.999Z</time></trkpt><trkpt lat="40.63999669518101" lon="14.611730216418904"><ele>148.0</ele><time>2026-04-26T12:59:38.999Z</time></trkpt><trkpt lat="40.64008326782982" lon="14.611809857905563"><ele>148.0</ele><time>2026-04-26T12:59:40.999Z</time></trkpt><trkpt lat="40.640148484148355" lon="14.611936521238986"><ele>148.0</ele><time>2026-04-26T12:59:42.999Z</time></trkpt><trkpt lat="40.64020570425935" lon="14.612087469415549"><ele>148.5</ele><time>2026-04-26T12:59:44.999Z</time></trkpt><trkpt lat="40.64023449294214" lon="14.612181657030009"><ele>149.0</ele><time>2026-04-26T12:59:45.999Z</time></trkpt><trkpt lat="40.640265435805695" lon="14.612277550529098"><ele>149.5</ele><time>2026-04-26T12:59:46.999Z</time></trkpt><trkpt lat="40.64029658928115" lon="14.612375090388326"><ele>150.0</ele><time>2026-04-26T12:59:47.999Z</time></trkpt><trkpt lat="40.64032659263826" lon="14.612464414654145"><ele>150.5</ele><time>2026-04-26T12:59:48.999Z</time></trkpt><trkpt lat="40.64035393072185" lon="14.612551746149412"><ele>151.0</ele><time>2026-04-26T12:59:49.999Z</time></trkpt><trkpt lat="40.64038456205362" lon="14.612640521524874"><ele>151.0</ele><time>2026-04-26T12:59:50.999Z</time></trkpt><trkpt lat="40.640422684128936" lon="14.612730519083417"><ele>151.0</ele><time>2026-04-26T12:59:51.999Z</time></trkpt><trkpt lat="40.64047863980953" lon="14.61281355235921"><ele>151.0</ele><time>2026-04-26T12:59:52.999Z</time></trkpt><trkpt lat="40.64053156537987" lon="14.612897909582848"><ele>151.0</ele><time>2026-04-26T12:59:53.999Z</time></trkpt><trkpt lat="40.640583922704806" lon="14.612984927916482"><ele>151.0</ele><time>2026-04-26T12:59:54.999Z</time></trkpt><trkpt lat="40.64063004469955" lon="14.613077539500466"><ele>151.0</ele><time>2026-04-26T12:59:55.999Z</time></trkpt><trkpt lat="40.6406563206416" lon="14.613179539609616"><ele>147.4</ele><time>2026-04-26T12:59:56.999Z</time></trkpt><trkpt lat="40.64065673603853" lon="14.613290390960373"><ele>143.8</ele><time>2026-04-26T12:59:57.999Z</time></trkpt><trkpt lat="40.64064260208551" lon="14.61340264576516"><ele>140.20000000000002</ele><time>2026-04-26T12:59:58.999Z</time></trkpt><trkpt lat="40.640616414673104" lon="14.613517431488654"><ele>136.6</ele><time>2026-04-26T12:59:59.999Z</time></trkpt><trkpt lat="40.64059032435708" lon="14.613634080362601"><ele>133.0</ele><time>2026-04-26T13:00:00.999Z</time></trkpt><trkpt lat="40.64058825756968" lon="14.613766550531805"><ele>128.0</ele><time>2026-04-26T13:00:01.999Z</time></trkpt><trkpt lat="40.64061473526651" lon="14.613901752289143"><ele>123.00000000000001</ele><time>2026-04-26T13:00:02.999Z</time></trkpt><trkpt lat="40.64064949534407" lon="14.614030272564383"><ele>118.00000000000001</ele><time>2026-04-26T13:00:03.999Z</time></trkpt><trkpt lat="40.640697432961616" lon="14.614148477975316"><ele>113.0</ele><time>2026-04-26T13:00:04.999Z</time></trkpt><trkpt lat="40.64076473889096" lon="14.614247467154607"><ele>108.0</ele><time>2026-04-26T13:00:05.999Z</time></trkpt><trkpt lat="40.64084023379918" lon="14.614334552513368"><ele>108.0</ele><time>2026-04-26T13:00:07Z</time></trkpt><trkpt lat="40.64090281392546" lon="14.614427612877455"><ele>108.0</ele><time>2026-04-26T13:00:08Z</time></trkpt><trkpt lat="40.64097969322005" lon="14.614481566000354"><ele>108.0</ele><time>2026-04-26T13:00:09Z</time></trkpt><trkpt lat="40.64103750491418" lon="14.614523208726506"><ele>108.0</ele><time>2026-04-26T13:00:10Z</time></trkpt><trkpt lat="40.641149118073095" lon="14.614519418005344"><ele>108.0</ele><time>2026-04-26T13:00:12Z</time></trkpt><trkpt lat="40.64121732810853" lon="14.614539569418369"><ele>108.0</ele><time>2026-04-26T13:00:14Z</time></trkpt><trkpt lat="40.64113550921333" lon="14.614619404949906"><ele>108.0</ele><time>2026-04-26T13:00:20Z</time></trkpt><trkpt lat="40.64107026108612" lon="14.614588126218424"><ele>108.0</ele><time>2026-04-26T13:00:21Z</time></trkpt><trkpt lat="40.64099599916079" lon="14.614565258007074"><ele>108.0</ele><time>2026-04-26T13:00:22Z</time></trkpt><trkpt lat="40.64092759574215" lon="14.614513870510233"><ele>108.0</ele><time>2026-04-26T13:00:23Z</time></trkpt><trkpt lat="40.640863241912456" lon="14.614447351487792"><ele>108.0</ele><time>2026-04-26T13:00:24Z</time></trkpt><trkpt lat="40.64080039705495" lon="14.614381274717935"><ele>108.0</ele><time>2026-04-26T13:00:25Z</time></trkpt><trkpt lat="40.640740065647655" lon="14.614321542938972"><ele>108.0</ele><time>2026-04-26T13:00:26Z</time></trkpt><trkpt lat="40.6406869265345" lon="14.61427509458522"><ele>108.00000000000001</ele><time>2026-04-26T13:00:27Z</time></trkpt><trkpt lat="40.640594151206585" lon="14.614167760821232"><ele>108.00000000000001</ele><time>2026-04-26T13:00:29Z</time></trkpt><trkpt lat="40.64052089472514" lon="14.614026151309915"><ele>108.0</ele><time>2026-04-26T13:00:31Z</time></trkpt><trkpt lat="40.64049053440789" lon="14.6139335112782"><ele>108.0</ele><time>2026-04-26T13:00:32Z</time></trkpt><trkpt lat="40.64045350451847" lon="14.613830756504024"><ele>108.0</ele><time>2026-04-26T13:00:33Z</time></trkpt><trkpt lat="40.64042951692915" lon="14.613714920614743"><ele>108.00000000000001</ele><time>2026-04-26T13:00:34Z</time></trkpt><trkpt lat="40.64041929028291" lon="14.613593979926385"><ele>108.00000000000001</ele><time>2026-04-26T13:00:35Z</time></trkpt><trkpt lat="40.640396304080134" lon="14.613474767320799"><ele>108.0</ele><time>2026-04-26T13:00:36Z</time></trkpt><trkpt lat="40.64033580278946" lon="14.613371542548334"><ele>108.0</ele><time>2026-04-26T13:00:37Z</time></trkpt><trkpt lat="40.64026035701205" lon="14.613279947071925"><ele>107.4</ele><time>2026-04-26T13:00:38Z</time></trkpt><trkpt lat="40.64011346935158" lon="14.613113439667407"><ele>106.80000000000001</ele><time>2026-04-26T13:00:40Z</time></trkpt><trkpt lat="40.640048357201024" lon="14.613047239397185"><ele>106.2</ele><time>2026-04-26T13:00:41Z</time></trkpt><trkpt lat="40.63998993250033" lon="14.612970559753666"><ele>105.6</ele><time>2026-04-26T13:00:42Z</time></trkpt><trkpt lat="40.63994631704294" lon="14.612880993591983"><ele>105.0</ele><time>2026-04-26T13:00:43Z</time></trkpt><trkpt lat="40.63991287705711" lon="14.612788698011554"><ele>105.0</ele><time>2026-04-26T13:00:44Z</time></trkpt><trkpt lat="40.63988200586149" lon="14.612690399220423"><ele>105.0</ele><time>2026-04-26T13:00:45Z</time></trkpt><trkpt lat="40.63985400155263" lon="14.612585864589402"><ele>105.0</ele><time>2026-04-26T13:00:46Z</time></trkpt><trkpt lat="40.63981504733847" lon="14.612488741434328"><ele>105.0</ele><time>2026-04-26T13:00:47Z</time></trkpt><trkpt lat="40.63975192548353" lon="14.612419550813582"><ele>105.0</ele><time>2026-04-26T13:00:48Z</time></trkpt><trkpt lat="40.639666901301794" lon="14.612393150591018"><ele>105.0</ele><time>2026-04-26T13:00:49Z</time></trkpt><trkpt lat="40.639581435726946" lon="14.612413360413262"><ele>105.0</ele><time>2026-04-26T13:00:50Z</time></trkpt><trkpt lat="40.63950131099557" lon="14.612443119362325"><ele>105.0</ele><time>2026-04-26T13:00:51Z</time></trkpt><trkpt lat="40.639419562735775" lon="14.612467752248852"><ele>105.0</ele><time>2026-04-26T13:00:52Z</time></trkpt><trkpt lat="40.63933920007768" lon="14.612487249693373"><ele>105.0</ele><time>2026-04-26T13:00:53Z</time></trkpt><trkpt lat="40.639256175464546" lon="14.61249266460794"><ele>105.0</ele><time>2026-04-26T13:00:54Z</time></trkpt><trkpt lat="40.639169400658574" lon="14.612491499335864"><ele>105.0</ele><time>2026-04-26T13:00:55Z</time></trkpt><trkpt lat="40.639093079864864" lon="14.612480236808327"><ele>101.57142857142857</ele><time>2026-04-26T13:00:56Z</time></trkpt><trkpt lat="40.63902051691254" lon="14.612467057910175"><ele>98.14285714285714</ele><time>2026-04-26T13:00:57Z</time></trkpt><trkpt lat="40.63895501008812" lon="14.612457318370206"><ele>94.71428571428572</ele><time>2026-04-26T13:00:58Z</time></trkpt><trkpt lat="40.63889199930188" lon="14.612427299236233"><ele>91.28571428571428</ele><time>2026-04-26T13:00:59Z</time></trkpt><trkpt lat="40.63883430024933" lon="14.612393662842418"><ele>87.85714285714286</ele><time>2026-04-26T13:01:00Z</time></trkpt><trkpt lat="40.638777846824375" lon="14.61234959158258"><ele>84.42857142857143</ele><time>2026-04-26T13:01:01Z</time></trkpt><trkpt lat="40.63871554761123" lon="14.61231814651957"><ele>81.0</ele><time>2026-04-26T13:01:02Z</time></trkpt><trkpt lat="40.63859767763444" lon="14.612290247001743"><ele>77.2</ele><time>2026-04-26T13:01:04Z</time></trkpt><trkpt lat="40.63848042496543" lon="14.612341110374565"><ele>73.39999999999999</ele><time>2026-04-26T13:01:06Z</time></trkpt><trkpt lat="40.63839228866221" lon="14.612370503815903"><ele>69.6</ele><time>2026-04-26T13:01:08Z</time></trkpt><trkpt lat="40.638302962590195" lon="14.612393309738042"><ele>65.8</ele><time>2026-04-26T13:01:10Z</time></trkpt><trkpt lat="40.63820916257224" lon="14.612386349246814"><ele>62.0</ele><time>2026-04-26T13:01:12Z</time></trkpt><trkpt lat="40.63809234608013" lon="14.612353012329558"><ele>62.0</ele><time>2026-04-26T13:01:14Z</time></trkpt><trkpt lat="40.638028148015565" lon="14.612337248894512"><ele>62.0</ele><time>2026-04-26T13:01:15Z</time></trkpt><trkpt lat="40.63790518215982" lon="14.612313073525009"><ele>62.0</ele><time>2026-04-26T13:01:17Z</time></trkpt><trkpt lat="40.637790402388674" lon="14.612256655332011"><ele>62.0</ele><time>2026-04-26T13:01:19Z</time></trkpt><trkpt lat="40.637689684322844" lon="14.612163027568633"><ele>62.0</ele><time>2026-04-26T13:01:20.999Z</time></trkpt><trkpt lat="40.63759583817109" lon="14.612062075272553"><ele>59.400000000000006</ele><time>2026-04-26T13:01:22.999Z</time></trkpt><trkpt lat="40.63751826463671" lon="14.611954329991097"><ele>56.800000000000004</ele><time>2026-04-26T13:01:24.999Z</time></trkpt><trkpt lat="40.63746643346855" lon="14.611841085661112"><ele>54.2</ele><time>2026-04-26T13:01:26.999Z</time></trkpt><trkpt lat="40.63748635145167" lon="14.61171163315986"><ele>51.6</ele><time>2026-04-26T13:01:28.999Z</time></trkpt><trkpt lat="40.637593173395004" lon="14.61164436185344"><ele>49.0</ele><time>2026-04-26T13:01:30.999Z</time></trkpt><trkpt lat="40.63768824943529" lon="14.611607559631375"><ele>49.0</ele><time>2026-04-26T13:01:32.999Z</time></trkpt><trkpt lat="40.63770885971642" lon="14.611511715014439"><ele>49.0</ele><time>2026-04-26T13:01:34.999Z</time></trkpt><trkpt lat="40.63764362046929" lon="14.611465189000514"><ele>49.0</ele><time>2026-04-26T13:01:36.999Z</time></trkpt><trkpt lat="40.63753430167199" lon="14.611512132144348"><ele>49.0</ele><time>2026-04-26T13:01:38.999Z</time></trkpt><trkpt lat="40.63745619518065" lon="14.611590733979748"><ele>49.0</ele><time>2026-04-26T13:01:40.999Z</time></trkpt><trkpt lat="40.63737499159397" lon="14.61169659917149"><ele>49.0</ele><time>2026-04-26T13:01:42.999Z</time></trkpt><trkpt lat="40.637349640531205" lon="14.611857179313622"><ele>49.0</ele><time>2026-04-26T13:01:44.999Z</time></trkpt><trkpt lat="40.63737820171277" lon="14.611934276926938"><ele>49.0</ele><time>2026-04-26T13:01:45.999Z</time></trkpt><trkpt lat="40.637456351168446" lon="14.612072588583734"><ele>49.0</ele><time>2026-04-26T13:01:47.999Z</time></trkpt><trkpt lat="40.63750848977381" lon="14.612125646707778"><ele>49.0</ele><time>2026-04-26T13:01:48.999Z</time></trkpt><trkpt lat="40.63759753043638" lon="14.61221113209715"><ele>47.166666666666664</ele><time>2026-04-26T13:01:50.999Z</time></trkpt><trkpt lat="40.6376706616976" lon="14.61229356522716"><ele>45.33333333333333</ele><time>2026-04-26T13:01:52.999Z</time></trkpt><trkpt lat="40.63772865281866" lon="14.61238928376382"><ele>43.5</ele><time>2026-04-26T13:01:54.999Z</time></trkpt><trkpt lat="40.63778695317313" lon="14.612473396188026"><ele>41.666666666666664</ele><time>2026-04-26T13:01:56.999Z</time></trkpt><trkpt lat="40.63784376557626" lon="14.612522967976407"><ele>39.83333333333333</ele><time>2026-04-26T13:02:00.999Z</time></trkpt><trkpt lat="40.637906529866235" lon="14.612556954710428"><ele>38.0</ele><time>2026-04-26T13:02:04.999Z</time></trkpt><trkpt lat="40.63797946210952" lon="14.612570462954636"><ele>42.0</ele><time>2026-04-26T13:02:11.999Z</time></trkpt><trkpt lat="40.63804018273769" lon="14.612609347180403"><ele>46.0</ele><time>2026-04-26T13:02:16Z</time></trkpt><trkpt lat="40.638095794616646" lon="14.612711852231355"><ele>50.0</ele><time>2026-04-26T13:02:19Z</time></trkpt><trkpt lat="40.63820196517009" lon="14.612742159486084"><ele>54.0</ele><time>2026-04-26T13:02:20Z</time></trkpt><trkpt lat="40.63826989904511" lon="14.612743999233384"><ele>58.00000000000001</ele><time>2026-04-26T13:02:21Z</time></trkpt><trkpt lat="40.63835066389407" lon="14.612736354188893"><ele>62.0</ele><time>2026-04-26T13:02:22Z</time></trkpt><trkpt lat="40.63843189214266" lon="14.612727623842693"><ele>62.00000000000001</ele><time>2026-04-26T13:02:23Z</time></trkpt><trkpt lat="40.638513915828625" lon="14.612724799981427"><ele>62.0</ele><time>2026-04-26T13:02:24Z</time></trkpt><trkpt lat="40.63858316997795" lon="14.612735655195513"><ele>62.0</ele><time>2026-04-26T13:02:25Z</time></trkpt><trkpt lat="40.638666577287644" lon="14.612845696047547"><ele>62.0</ele><time>2026-04-26T13:02:27Z</time></trkpt><trkpt lat="40.63871710936607" lon="14.61291315973839"><ele>62.00000000000001</ele><time>2026-04-26T13:02:28Z</time></trkpt><trkpt lat="40.63880978748427" lon="14.612958133411947"><ele>62.0</ele><time>2026-04-26T13:02:29Z</time></trkpt><trkpt lat="40.63890253854055" lon="14.61297366676698"><ele>59.50000000000001</ele><time>2026-04-26T13:02:30Z</time></trkpt><trkpt lat="40.63899285359174" lon="14.612978369617496"><ele>57.0</ele><time>2026-04-26T13:02:31Z</time></trkpt><trkpt lat="40.639075573995605" lon="14.61297836961947"><ele>54.5</ele><time>2026-04-26T13:02:32Z</time></trkpt><trkpt lat="40.639153412868644" lon="14.612985260331406"><ele>52.0</ele><time>2026-04-26T13:02:33Z</time></trkpt><trkpt lat="40.63922468314528" lon="14.613014331465948"><ele>49.5</ele><time>2026-04-26T13:02:34Z</time></trkpt><trkpt lat="40.63929238586666" lon="14.613062258432477"><ele>47.0</ele><time>2026-04-26T13:02:35Z</time></trkpt><trkpt lat="40.6393555940655" lon="14.613132999801591"><ele>47.0</ele><time>2026-04-26T13:02:36Z</time></trkpt><trkpt lat="40.639426347394746" lon="14.613204875538957"><ele>47.0</ele><time>2026-04-26T13:02:37Z</time></trkpt><trkpt lat="40.63945110089556" lon="14.613329373057413"><ele>47.0</ele><time>2026-04-26T13:02:38Z</time></trkpt><trkpt lat="40.639520461692456" lon="14.613420668075857"><ele>47.0</ele><time>2026-04-26T13:02:39Z</time></trkpt><trkpt lat="40.63959929275426" lon="14.613489742738052"><ele>47.0</ele><time>2026-04-26T13:02:40Z</time></trkpt><trkpt lat="40.639676359671746" lon="14.613551002755607"><ele>47.42857142857143</ele><time>2026-04-26T13:02:41Z</time></trkpt><trkpt lat="40.63973948834876" lon="14.613612793042773"><ele>47.857142857142854</ele><time>2026-04-26T13:02:42Z</time></trkpt><trkpt lat="40.63980191336857" lon="14.613667779536224"><ele>48.28571428571429</ele><time>2026-04-26T13:02:43Z</time></trkpt><trkpt lat="40.639832719716566" lon="14.613743308801773"><ele>48.714285714285715</ele><time>2026-04-26T13:02:44Z</time></trkpt><trkpt lat="40.639825692011755" lon="14.613827129323765"><ele>49.142857142857146</ele><time>2026-04-26T13:02:45Z</time></trkpt><trkpt lat="40.63979064531388" lon="14.613911681303131"><ele>49.57142857142858</ele><time>2026-04-26T13:02:46Z</time></trkpt><trkpt lat="40.639758199078926" lon="14.614002802055907"><ele>50.0</ele><time>2026-04-26T13:02:47Z</time></trkpt><trkpt lat="40.6397344030242" lon="14.614099114958682"><ele>50.00000000000001</ele><time>2026-04-26T13:02:48Z</time></trkpt><trkpt lat="40.63975115367161" lon="14.614210094405538"><ele>50.0</ele><time>2026-04-26T13:02:49Z</time></trkpt><trkpt lat="40.63979774024744" lon="14.614294256110746"><ele>50.0</ele><time>2026-04-26T13:02:50Z</time></trkpt><trkpt lat="40.639860620052765" lon="14.614357837143187"><ele>50.0</ele><time>2026-04-26T13:02:51Z</time></trkpt><trkpt lat="40.639904671865814" lon="14.61444061047662"><ele>50.00000000000001</ele><time>2026-04-26T13:02:52Z</time></trkpt><trkpt lat="40.639959167695" lon="14.614509464937903"><ele>50.0</ele><time>2026-04-26T13:02:53Z</time></trkpt><trkpt lat="40.64001506584431" lon="14.614580091315547"><ele>46.16666666666667</ele><time>2026-04-26T13:02:54Z</time></trkpt><trkpt lat="40.64006618127094" lon="14.61465724959908"><ele>42.333333333333336</ele><time>2026-04-26T13:02:55Z</time></trkpt><trkpt lat="40.640110204090334" lon="14.61474542774074"><ele>38.5</ele><time>2026-04-26T13:02:56Z</time></trkpt><trkpt lat="40.64014968722829" lon="14.614837749571981"><ele>34.66666666666667</ele><time>2026-04-26T13:02:57Z</time></trkpt><trkpt lat="40.64017260832049" lon="14.614946600211482"><ele>30.833333333333336</ele><time>2026-04-26T13:02:58Z</time></trkpt><trkpt lat="40.64021754528612" lon="14.615042679268777"><ele>27.0</ele><time>2026-04-26T13:02:59Z</time></trkpt><trkpt lat="40.640271230146645" lon="14.615125130276365"><ele>29.0</ele><time>2026-04-26T13:03:00Z</time></trkpt><trkpt lat="40.64032727477167" lon="14.615195477117211"><ele>31.0</ele><time>2026-04-26T13:03:01Z</time></trkpt><trkpt lat="40.64037956600933" lon="14.615264736302628"><ele>33.0</ele><time>2026-04-26T13:03:01.999Z</time></trkpt><trkpt lat="40.64045734735984" lon="14.615276408667382"><ele>35.0</ele><time>2026-04-26T13:03:02.999Z</time></trkpt><trkpt lat="40.64052467714119" lon="14.615303407042152"><ele>37.0</ele><time>2026-04-26T13:03:03.999Z</time></trkpt><trkpt lat="40.64058017760054" lon="14.615365207724075"><ele>38.99999999999999</ele><time>2026-04-26T13:03:04.999Z</time></trkpt><trkpt lat="40.64063953378789" lon="14.615423054810218"><ele>41.0</ele><time>2026-04-26T13:03:05.999Z</time></trkpt><trkpt lat="40.640712879740335" lon="14.61547472204407"><ele>40.99999999999999</ele><time>2026-04-26T13:03:06.999Z</time></trkpt><trkpt lat="40.64077667123972" lon="14.615544722853613"><ele>41.0</ele><time>2026-04-26T13:03:07.999Z</time></trkpt><trkpt lat="40.64083616252831" lon="14.615612161681096"><ele>41.0</ele><time>2026-04-26T13:03:08.999Z</time></trkpt><trkpt lat="40.64089274016637" lon="14.615672085768496"><ele>41.0</ele><time>2026-04-26T13:03:09.999Z</time></trkpt><trkpt lat="40.64094756457351" lon="14.615732450733596"><ele>41.0</ele><time>2026-04-26T13:03:10.999Z</time></trkpt><trkpt lat="40.641002948740365" lon="14.61579184350963"><ele>40.99999999999999</ele><time>2026-04-26T13:03:11.999Z</time></trkpt><trkpt lat="40.64105818007001" lon="14.615850757779414"><ele>41.0</ele><time>2026-04-26T13:03:12.999Z</time></trkpt><trkpt lat="40.641118010453965" lon="14.615907697546572"><ele>41.5</ele><time>2026-04-26T13:03:13.999Z</time></trkpt><trkpt lat="40.6411807033872" lon="14.615965518986144"><ele>42.0</ele><time>2026-04-26T13:03:14.999Z</time></trkpt><trkpt lat="40.64124985960872" lon="14.616015739587535"><ele>42.5</ele><time>2026-04-26T13:03:15.999Z</time></trkpt><trkpt lat="40.64132258003723" lon="14.61606231584508"><ele>43.0</ele><time>2026-04-26T13:03:16.999Z</time></trkpt><trkpt lat="40.64138606527356" lon="14.616122035154223"><ele>43.5</ele><time>2026-04-26T13:03:17.999Z</time></trkpt><trkpt lat="40.64143593037784" lon="14.616198787421466"><ele>44.0</ele><time>2026-04-26T13:03:18.999Z</time></trkpt><trkpt lat="40.641484939177516" lon="14.616265184784009"><ele>44.0</ele><time>2026-04-26T13:03:19.999Z</time></trkpt><trkpt lat="40.64154009941753" lon="14.616318613690302"><ele>44.0</ele><time>2026-04-26T13:03:20.999Z</time></trkpt><trkpt lat="40.64159788965209" lon="14.61635526473865"><ele>44.0</ele><time>2026-04-26T13:03:21.999Z</time></trkpt><trkpt lat="40.641655558784244" lon="14.616390492978434"><ele>44.0</ele><time>2026-04-26T13:03:22.999Z</time></trkpt><trkpt lat="40.641748970221535" lon="14.616347225011712"><ele>44.0</ele><time>2026-04-26T13:03:24.999Z</time></trkpt><trkpt lat="40.64181716995472" lon="14.616349376840018"><ele>44.0</ele><time>2026-04-26T13:03:26.999Z</time></trkpt><trkpt lat="40.64188808006726" lon="14.616415670779153"><ele>44.0</ele><time>2026-04-26T13:03:29.999Z</time></trkpt><trkpt lat="40.64194211441227" lon="14.616510103645675"><ele>44.0</ele><time>2026-04-26T13:03:31.999Z</time></trkpt><trkpt lat="40.64197409209564" lon="14.616651710136104"><ele>44.0</ele><time>2026-04-26T13:03:33.999Z</time></trkpt><trkpt lat="40.64194707183639" lon="14.616793686367295"><ele>44.0</ele><time>2026-04-26T13:03:35.999Z</time></trkpt><trkpt lat="40.64192916918618" lon="14.616925322547736"><ele>44.0</ele><time>2026-04-26T13:03:37.999Z</time></trkpt><trkpt lat="40.641945751284794" lon="14.617079221765705"><ele>46.166666666666664</ele><time>2026-04-26T13:03:39.999Z</time></trkpt><trkpt lat="40.641976666703435" lon="14.617240499745478"><ele>48.33333333333333</ele><time>2026-04-26T13:03:41.999Z</time></trkpt><trkpt lat="40.64199492802213" lon="14.617321957868995"><ele>50.5</ele><time>2026-04-26T13:03:42.999Z</time></trkpt><trkpt lat="40.642020082583876" lon="14.617404074762137"><ele>52.666666666666664</ele><time>2026-04-26T13:03:43.999Z</time></trkpt><trkpt lat="40.64204007745127" lon="14.617489082756721"><ele>54.833333333333336</ele><time>2026-04-26T13:03:44.999Z</time></trkpt><trkpt lat="40.64207866288499" lon="14.617639690499216"><ele>57.0</ele><time>2026-04-26T13:03:46.999Z</time></trkpt><trkpt lat="40.64212765598499" lon="14.617781405310842"><ele>50.2</ele><time>2026-04-26T13:03:48.999Z</time></trkpt><trkpt lat="40.64214627315401" lon="14.617910635709777"><ele>43.400000000000006</ele><time>2026-04-26T13:03:50.999Z</time></trkpt><trkpt lat="40.6422190373468" lon="14.618033016790303"><ele>36.6</ele><time>2026-04-26T13:03:52.999Z</time></trkpt><trkpt lat="40.64229627527347" lon="14.6180923310618"><ele>29.799999999999997</ele><time>2026-04-26T13:03:54.999Z</time></trkpt><trkpt lat="40.64238854603018" lon="14.618114939885057"><ele>23.0</ele><time>2026-04-26T13:03:56.999Z</time></trkpt><trkpt lat="40.64250479839769" lon="14.61812607276029"><ele>23.0</ele><time>2026-04-26T13:03:58.999Z</time></trkpt><trkpt lat="40.64261600956741" lon="14.618137411492572"><ele>23.0</ele><time>2026-04-26T13:04:00.999Z</time></trkpt><trkpt lat="40.642715648703664" lon="14.618137949960042"><ele>23.0</ele><time>2026-04-26T13:04:02.999Z</time></trkpt><trkpt lat="40.64280722851546" lon="14.618126444322726"><ele>23.0</ele><time>2026-04-26T13:04:04.999Z</time></trkpt><trkpt lat="40.642889878746274" lon="14.618085304139521"><ele>23.0</ele><time>2026-04-26T13:04:06.999Z</time></trkpt><trkpt lat="40.64297890887294" lon="14.618028928220811"><ele>23.2</ele><time>2026-04-26T13:04:08.999Z</time></trkpt><trkpt lat="40.64309497220992" lon="14.61799315533808"><ele>23.4</ele><time>2026-04-26T13:04:10.999Z</time></trkpt><trkpt lat="40.64319555767947" lon="14.617925740726433"><ele>23.599999999999998</ele><time>2026-04-26T13:04:12.999Z</time></trkpt><trkpt lat="40.64328459692271" lon="14.617837067777423"><ele>23.799999999999997</ele><time>2026-04-26T13:04:14.999Z</time></trkpt><trkpt lat="40.64335695981187" lon="14.617747275949899"><ele>24.0</ele><time>2026-04-26T13:04:16.999Z</time></trkpt><trkpt lat="40.643414593047204" lon="14.617643403393178"><ele>27.4</ele><time>2026-04-26T13:04:18.999Z</time></trkpt><trkpt lat="40.64348637891308" lon="14.617574902496573"><ele>30.799999999999997</ele><time>2026-04-26T13:04:20.999Z</time></trkpt><trkpt lat="40.64356462164937" lon="14.617637146001366"><ele>34.199999999999996</ele><time>2026-04-26T13:04:22.999Z</time></trkpt><trkpt lat="40.64360105207757" lon="14.61776286936553"><ele>37.599999999999994</ele><time>2026-04-26T13:04:24.999Z</time></trkpt><trkpt lat="40.64364309380071" lon="14.61787676044372"><ele>41.0</ele><time>2026-04-26T13:04:26.999Z</time></trkpt><trkpt lat="40.64370492961047" lon="14.617946569292643"><ele>41.0</ele><time>2026-04-26T13:04:28.999Z</time></trkpt><trkpt lat="40.64377532699581" lon="14.617968693556477"><ele>41.0</ele><time>2026-04-26T13:04:30.999Z</time></trkpt><trkpt lat="40.64385512829484" lon="14.61795410844408"><ele>41.0</ele><time>2026-04-26T13:04:32.999Z</time></trkpt><trkpt lat="40.64394828601922" lon="14.617952881647795"><ele>41.0</ele><time>2026-04-26T13:04:34.999Z</time></trkpt><trkpt lat="40.644025794118164" lon="14.618035719258897"><ele>41.0</ele><time>2026-04-26T13:04:36.999Z</time></trkpt><trkpt lat="40.64405731646163" lon="14.61817518543138"><ele>41.0</ele><time>2026-04-26T13:04:38.999Z</time></trkpt><trkpt lat="40.64408290301118" lon="14.618331513776686"><ele>41.0</ele><time>2026-04-26T13:04:40.999Z</time></trkpt><trkpt lat="40.64411419081463" lon="14.618472856901699"><ele>41.0</ele><time>2026-04-26T13:04:42.999Z</time></trkpt><trkpt lat="40.64416715229216" lon="14.618526642336459"><ele>41.0</ele><time>2026-04-26T13:04:43.999Z</time></trkpt><trkpt lat="40.64423932320666" lon="14.618531053358371"><ele>41.0</ele><time>2026-04-26T13:04:44.999Z</time></trkpt><trkpt lat="40.64430324748823" lon="14.618537821859523"><ele>41.0</ele><time>2026-04-26T13:04:45.999Z</time></trkpt><trkpt lat="40.644425372481976" lon="14.618510459888913"><ele>44.0</ele><time>2026-04-26T13:04:47.999Z</time></trkpt><trkpt lat="40.64454999306515" lon="14.618507801758861"><ele>47.0</ele><time>2026-04-26T13:04:49.999Z</time></trkpt><trkpt lat="40.64461456242407" lon="14.618512471049316"><ele>50.0</ele><time>2026-04-26T13:04:50.999Z</time></trkpt><trkpt lat="40.64467826225076" lon="14.618512689560099"><ele>53.0</ele><time>2026-04-26T13:04:51.999Z</time></trkpt><trkpt lat="40.64474214695622" lon="14.618503119142392"><ele>56.00000000000001</ele><time>2026-04-26T13:04:52.999Z</time></trkpt><trkpt lat="40.644807731531614" lon="14.618498751893114"><ele>59.0</ele><time>2026-04-26T13:04:53.999Z</time></trkpt><trkpt lat="40.64487335998566" lon="14.618515123422085"><ele>59.0</ele><time>2026-04-26T13:04:54.999Z</time></trkpt><trkpt lat="40.64493311861718" lon="14.618555662931271"><ele>59.0</ele><time>2026-04-26T13:04:55.999Z</time></trkpt><trkpt lat="40.64498717069473" lon="14.618610911947728"><ele>59.0</ele><time>2026-04-26T13:04:56.999Z</time></trkpt><trkpt lat="40.64504041175389" lon="14.618671640883896"><ele>59.0</ele><time>2026-04-26T13:04:57.999Z</time></trkpt><trkpt lat="40.64509569405846" lon="14.618729333907973"><ele>59.0</ele><time>2026-04-26T13:04:58.999Z</time></trkpt><trkpt lat="40.645158099375486" lon="14.618779964184329"><ele>59.0</ele><time>2026-04-26T13:04:59.999Z</time></trkpt><trkpt lat="40.64522469836079" lon="14.6188137557453"><ele>59.0</ele><time>2026-04-26T13:05:00.999Z</time></trkpt><trkpt lat="40.645294675658135" lon="14.618842176989755"><ele>55.0</ele><time>2026-04-26T13:05:01.999Z</time></trkpt><trkpt lat="40.64536796049848" lon="14.618862428013857"><ele>51.0</ele><time>2026-04-26T13:05:02.999Z</time></trkpt><trkpt lat="40.64544160319578" lon="14.618880098845032"><ele>47.0</ele><time>2026-04-26T13:05:03.999Z</time></trkpt><trkpt lat="40.64551499942417" lon="14.618885708176993"><ele>43.0</ele><time>2026-04-26T13:05:04.999Z</time></trkpt><trkpt lat="40.64558890886198" lon="14.618880736673331"><ele>39.0</ele><time>2026-04-26T13:05:05.999Z</time></trkpt><trkpt lat="40.645660302853535" lon="14.61887302175694"><ele>35.0</ele><time>2026-04-26T13:05:06.999Z</time></trkpt><trkpt lat="40.6457261527799" lon="14.6188632823507"><ele>31.0</ele><time>2026-04-26T13:05:07.999Z</time></trkpt><trkpt lat="40.64583320521543" lon="14.61879937243998"><ele>31.0</ele><time>2026-04-26T13:05:09.999Z</time></trkpt><trkpt lat="40.645923033500196" lon="14.618725337231554"><ele>31.0</ele><time>2026-04-26T13:05:11.999Z</time></trkpt><trkpt lat="40.646012106054194" lon="14.618676704135504"><ele>31.0</ele><time>2026-04-26T13:05:13.999Z</time></trkpt><trkpt lat="40.64609766321064" lon="14.61869929003492"><ele>31.0</ele><time>2026-04-26T13:05:15.999Z</time></trkpt><trkpt lat="40.646143581260915" lon="14.618821987309"><ele>31.0</ele><time>2026-04-26T13:05:17.999Z</time></trkpt><trkpt lat="40.646124678993274" lon="14.61897488008459"><ele>31.0</ele><time>2026-04-26T13:05:19.999Z</time></trkpt><trkpt lat="40.64609294478164" lon="14.61913313233932"><ele>31.0</ele><time>2026-04-26T13:05:21.999Z</time></trkpt><trkpt lat="40.64608385220589" lon="14.619276785695213"><ele>31.0</ele><time>2026-04-26T13:05:23.999Z</time></trkpt><trkpt lat="40.64612382821342" lon="14.619418255270318"><ele>31.0</ele><time>2026-04-26T13:05:25.999Z</time></trkpt><trkpt lat="40.64619480475356" lon="14.619448138918031"><ele>31.0</ele><time>2026-04-26T13:05:26.999Z</time></trkpt><trkpt lat="40.646253795789114" lon="14.61947982493878"><ele>33.5</ele><time>2026-04-26T13:05:27.999Z</time></trkpt><trkpt lat="40.64637899345178" lon="14.619507763326459"><ele>36.0</ele><time>2026-04-26T13:05:29.999Z</time></trkpt><trkpt lat="40.64644186324267" lon="14.6195412158713"><ele>38.5</ele><time>2026-04-26T13:05:30.999Z</time></trkpt><trkpt lat="40.646494137330116" lon="14.619599826708965"><ele>41.0</ele><time>2026-04-26T13:05:31.999Z</time></trkpt><trkpt lat="40.646543059230304" lon="14.61965741444335"><ele>43.5</ele><time>2026-04-26T13:05:32.999Z</time></trkpt><trkpt lat="40.646602608588026" lon="14.61977783237997"><ele>46.0</ele><time>2026-04-26T13:05:34.999Z</time></trkpt><trkpt lat="40.646650875510325" lon="14.619906226795433"><ele>46.0</ele><time>2026-04-26T13:05:36.999Z</time></trkpt><trkpt lat="40.64660456600353" lon="14.620053515852577"><ele>46.0</ele><time>2026-04-26T13:05:38.999Z</time></trkpt><trkpt lat="40.646561108266255" lon="14.62017493759794"><ele>46.0</ele><time>2026-04-26T13:05:40.999Z</time></trkpt><trkpt lat="40.646494703104494" lon="14.620205311753338"><ele>46.0</ele><time>2026-04-26T13:06:29.998Z</time></trkpt><trkpt lat="40.646526464554505" lon="14.620286214551843"><ele>46.0</ele><time>2026-04-26T13:10:24.999Z</time></trkpt><trkpt lat="40.64648820298139" lon="14.62037340762511"><ele>46.0</ele><time>2026-04-26T13:10:26.999Z</time></trkpt><trkpt lat="40.64647240421021" lon="14.620454437535347"><ele>45.333333333333336</ele><time>2026-04-26T13:10:27.999Z</time></trkpt><trkpt lat="40.64645956400742" lon="14.620550963541989"><ele>44.66666666666667</ele><time>2026-04-26T13:10:28.999Z</time></trkpt><trkpt lat="40.646445638045975" lon="14.620647051829884"><ele>44.0</ele><time>2026-04-26T13:10:29.999Z</time></trkpt><trkpt lat="40.6464274874992" lon="14.620748943827696"><ele>43.333333333333336</ele><time>2026-04-26T13:10:30.999Z</time></trkpt><trkpt lat="40.646417918161816" lon="14.620865678512684"><ele>42.666666666666664</ele><time>2026-04-26T13:10:31.999Z</time></trkpt><trkpt lat="40.64640590030918" lon="14.62098634659531"><ele>42.0</ele><time>2026-04-26T13:10:32.999Z</time></trkpt><trkpt lat="40.64644308395831" lon="14.621103786741777"><ele>39.166666666666664</ele><time>2026-04-26T13:10:33.999Z</time></trkpt><trkpt lat="40.646470942979946" lon="14.621221204196347"><ele>36.333333333333336</ele><time>2026-04-26T13:10:34.999Z</time></trkpt><trkpt lat="40.64650177254509" lon="14.62132888200804"><ele>33.5</ele><time>2026-04-26T13:10:35.999Z</time></trkpt><trkpt lat="40.646542988167376" lon="14.621418172385303"><ele>30.666666666666668</ele><time>2026-04-26T13:10:36.997Z</time></trkpt><trkpt lat="40.64660294658316" lon="14.621477786958263"><ele>27.833333333333336</ele><time>2026-04-26T13:10:37.997Z</time></trkpt><trkpt lat="40.64667314173825" lon="14.621498114748775"><ele>25.0</ele><time>2026-04-26T13:10:38.997Z</time></trkpt><trkpt lat="40.64674623752684" lon="14.62150181961275"><ele>25.000000000000004</ele><time>2026-04-26T13:10:39.997Z</time></trkpt><trkpt lat="40.646819257637155" lon="14.62152354859085"><ele>25.0</ele><time>2026-04-26T13:10:40.997Z</time></trkpt><trkpt lat="40.646894279158374" lon="14.6215493085598"><ele>25.0</ele><time>2026-04-26T13:10:41.997Z</time></trkpt><trkpt lat="40.64698224694778" lon="14.621589431573115"><ele>25.0</ele><time>2026-04-26T13:10:42.997Z</time></trkpt><trkpt lat="40.64706740390485" lon="14.621627086313689"><ele>25.000000000000004</ele><time>2026-04-26T13:10:43.997Z</time></trkpt><trkpt lat="40.64715423827621" lon="14.621653638468825"><ele>25.0</ele><time>2026-04-26T13:10:44.997Z</time></trkpt><trkpt lat="40.6472370869853" lon="14.621697139905857"><ele>28.500000000000004</ele><time>2026-04-26T13:10:45.997Z</time></trkpt><trkpt lat="40.64730944072927" lon="14.621755563339015"><ele>32.0</ele><time>2026-04-26T13:10:46.998Z</time></trkpt><trkpt lat="40.64738532099535" lon="14.621806636862607"><ele>35.5</ele><time>2026-04-26T13:10:47.998Z</time></trkpt><trkpt lat="40.64743238992218" lon="14.621891623713067"><ele>39.0</ele><time>2026-04-26T13:10:48.998Z</time></trkpt><trkpt lat="40.64746479139212" lon="14.621982253099018"><ele>42.5</ele><time>2026-04-26T13:10:49.998Z</time></trkpt><trkpt lat="40.64747955745837" lon="14.622088473608859"><ele>46.0</ele><time>2026-04-26T13:10:50.998Z</time></trkpt><trkpt lat="40.64752871113815" lon="14.622191720212076"><ele>46.0</ele><time>2026-04-26T13:10:51.998Z</time></trkpt><trkpt lat="40.647568426643254" lon="14.622302272893226"><ele>46.0</ele><time>2026-04-26T13:10:52.998Z</time></trkpt><trkpt lat="40.64760340195534" lon="14.622419723215828"><ele>46.0</ele><time>2026-04-26T13:10:53.998Z</time></trkpt><trkpt lat="40.647633292282876" lon="14.622542736583037"><ele>46.0</ele><time>2026-04-26T13:10:54.998Z</time></trkpt><trkpt lat="40.64765673357738" lon="14.622671037264343"><ele>46.0</ele><time>2026-04-26T13:10:55.998Z</time></trkpt><trkpt lat="40.64771417576627" lon="14.622782081383727"><ele>43.5</ele><time>2026-04-26T13:10:56.998Z</time></trkpt><trkpt lat="40.64776614585801" lon="14.622885030452666"><ele>41.0</ele><time>2026-04-26T13:10:57.998Z</time></trkpt><trkpt lat="40.647814639435836" lon="14.622987070800686"><ele>38.5</ele><time>2026-04-26T13:10:58.998Z</time></trkpt><trkpt lat="40.6478698233763" lon="14.623074030759454"><ele>36.0</ele><time>2026-04-26T13:10:59.998Z</time></trkpt><trkpt lat="40.64786233132009" lon="14.623182511360717"><ele>33.5</ele><time>2026-04-26T13:11:00.998Z</time></trkpt><trkpt lat="40.64788039382102" lon="14.623290504943242"><ele>31.0</ele><time>2026-04-26T13:11:01.998Z</time></trkpt><trkpt lat="40.64791469455308" lon="14.623390826414617"><ele>36.16666666666667</ele><time>2026-04-26T13:11:02.998Z</time></trkpt><trkpt lat="40.64796540847903" lon="14.6234830671062"><ele>41.333333333333336</ele><time>2026-04-26T13:11:03.998Z</time></trkpt><trkpt lat="40.64800688276322" lon="14.623566116465085"><ele>46.5</ele><time>2026-04-26T13:11:04.998Z</time></trkpt><trkpt lat="40.64803571954031" lon="14.623643249002209"><ele>51.66666666666667</ele><time>2026-04-26T13:11:05.998Z</time></trkpt><trkpt lat="40.648029508486935" lon="14.623776305205286"><ele>56.833333333333336</ele><time>2026-04-26T13:11:07.998Z</time></trkpt><trkpt lat="40.64799542757354" lon="14.623849979936557"><ele>62.0</ele><time>2026-04-26T13:11:08.998Z</time></trkpt><trkpt lat="40.64794900982422" lon="14.623929375254242"><ele>62.00000000000001</ele><time>2026-04-26T13:11:09.998Z</time></trkpt><trkpt lat="40.647895923278035" lon="14.624004441202096"><ele>62.0</ele><time>2026-04-26T13:11:10.998Z</time></trkpt><trkpt lat="40.64785153262474" lon="14.624072072163989"><ele>62.0</ele><time>2026-04-26T13:11:11.998Z</time></trkpt><trkpt lat="40.64782077041588" lon="14.624169385354566"><ele>62.0</ele><time>2026-04-26T13:11:12.998Z</time></trkpt><trkpt lat="40.647814945628134" lon="14.624282911113196"><ele>62.00000000000001</ele><time>2026-04-26T13:11:13.998Z</time></trkpt><trkpt lat="40.64781288466576" lon="14.624394496968113"><ele>62.0</ele><time>2026-04-26T13:11:14.998Z</time></trkpt><trkpt lat="40.64783573971541" lon="14.62450213968092"><ele>59.333333333333336</ele><time>2026-04-26T13:11:15.998Z</time></trkpt><trkpt lat="40.64788539364302" lon="14.624602431711514"><ele>56.66666666666667</ele><time>2026-04-26T13:11:16.998Z</time></trkpt><trkpt lat="40.64794711689375" lon="14.624676360218155"><ele>54.0</ele><time>2026-04-26T13:11:17.998Z</time></trkpt><trkpt lat="40.64802420961592" lon="14.624725122329023"><ele>51.333333333333336</ele><time>2026-04-26T13:11:18.998Z</time></trkpt><trkpt lat="40.648088758808285" lon="14.624756127243064"><ele>48.66666666666667</ele><time>2026-04-26T13:11:19.998Z</time></trkpt><trkpt lat="40.6481545164238" lon="14.62478565675617"><ele>46.0</ele><time>2026-04-26T13:11:20.998Z</time></trkpt><trkpt lat="40.64821538438856" lon="14.62482239208648"><ele>46.0</ele><time>2026-04-26T13:11:21.998Z</time></trkpt><trkpt lat="40.648300526490885" lon="14.624913499200375"><ele>46.0</ele><time>2026-04-26T13:11:23.999Z</time></trkpt><trkpt lat="40.6483116404931" lon="14.625042132311151"><ele>46.0</ele><time>2026-04-26T13:11:25.999Z</time></trkpt><trkpt lat="40.64830859903678" lon="14.625125558366413"><ele>46.0</ele><time>2026-04-26T13:11:26.999Z</time></trkpt><trkpt lat="40.64830410411818" lon="14.625211030229217"><ele>46.0</ele><time>2026-04-26T13:11:27.999Z</time></trkpt><trkpt lat="40.648299649629564" lon="14.625296730913703"><ele>46.0</ele><time>2026-04-26T13:11:28.999Z</time></trkpt><trkpt lat="40.64830159215149" lon="14.625458327100176"><ele>44.66666666666667</ele><time>2026-04-26T13:11:30.999Z</time></trkpt><trkpt lat="40.64832421959304" lon="14.625538768508646"><ele>43.333333333333336</ele><time>2026-04-26T13:11:31.999Z</time></trkpt><trkpt lat="40.64837395397861" lon="14.625608477053214"><ele>42.0</ele><time>2026-04-26T13:11:32.999Z</time></trkpt><trkpt lat="40.64843542251198" lon="14.625636187274777"><ele>40.666666666666664</ele><time>2026-04-26T13:11:33.999Z</time></trkpt><trkpt lat="40.648550988831765" lon="14.625702848809178"><ele>39.33333333333333</ele><time>2026-04-26T13:11:35.999Z</time></trkpt><trkpt lat="40.64860769128292" lon="14.625756570341446"><ele>38.0</ele><time>2026-04-26T13:11:36.999Z</time></trkpt><trkpt lat="40.64866735630322" lon="14.62579767113658"><ele>38.0</ele><time>2026-04-26T13:11:37.999Z</time></trkpt><trkpt lat="40.64873051015401" lon="14.625814573885894"><ele>38.0</ele><time>2026-04-26T13:11:38.999Z</time></trkpt><trkpt lat="40.64885300941973" lon="14.625843790419443"><ele>38.0</ele><time>2026-04-26T13:11:40.999Z</time></trkpt><trkpt lat="40.648976336192625" lon="14.62584618391627"><ele>38.0</ele><time>2026-04-26T13:11:42.999Z</time></trkpt><trkpt lat="40.64908879427376" lon="14.625893883656957"><ele>38.0</ele><time>2026-04-26T13:11:44.999Z</time></trkpt><trkpt lat="40.64916782093137" lon="14.625914881427517"><ele>38.0</ele><time>2026-04-26T13:11:46.999Z</time></trkpt><trkpt lat="40.64928799358746" lon="14.62586396871695"><ele>38.0</ele><time>2026-04-26T13:11:48.999Z</time></trkpt><trkpt lat="40.64933074847483" lon="14.625794241665316"><ele>38.0</ele><time>2026-04-26T13:11:49.999Z</time></trkpt><trkpt lat="40.64939984557371" lon="14.625675163799642"><ele>38.0</ele><time>2026-04-26T13:11:51.999Z</time></trkpt><trkpt lat="40.649448699141914" lon="14.62562186703984"><ele>38.0</ele><time>2026-04-26T13:11:52.999Z</time></trkpt><trkpt lat="40.649492482613596" lon="14.62555798708008"><ele>38.0</ele><time>2026-04-26T13:11:53.999Z</time></trkpt><trkpt lat="40.649603424630236" lon="14.625511469094508"><ele>35.0</ele><time>2026-04-26T13:11:55.999Z</time></trkpt><trkpt lat="40.64970135038151" lon="14.625450855237819"><ele>31.999999999999996</ele><time>2026-04-26T13:11:57.999Z</time></trkpt><trkpt lat="40.64979277742482" lon="14.625425154091216"><ele>29.0</ele><time>2026-04-26T13:11:59.999Z</time></trkpt><trkpt lat="40.64988080141588" lon="14.625512916020083"><ele>26.0</ele><time>2026-04-26T13:12:01.999Z</time></trkpt><trkpt lat="40.649969662712664" lon="14.625614143945432"><ele>23.0</ele><time>2026-04-26T13:12:03.999Z</time></trkpt><trkpt lat="40.650036932482756" lon="14.625586164069555"><ele>23.0</ele><time>2026-04-26T13:12:04.999Z</time></trkpt><trkpt lat="40.650099795160855" lon="14.62555421273097"><ele>23.0</ele><time>2026-04-26T13:12:05.999Z</time></trkpt><trkpt lat="40.65016119893031" lon="14.625527125535253"><ele>23.0</ele><time>2026-04-26T13:12:06.999Z</time></trkpt><trkpt lat="40.65022143907186" lon="14.625498451923619"><ele>23.0</ele><time>2026-04-26T13:12:07.999Z</time></trkpt><trkpt lat="40.65028033505457" lon="14.625468276046613"><ele>23.0</ele><time>2026-04-26T13:12:08.999Z</time></trkpt><trkpt lat="40.65034363338478" lon="14.625436304218615"><ele>23.0</ele><time>2026-04-26T13:12:09.999Z</time></trkpt><trkpt lat="40.65040893408425" lon="14.625405618616545"><ele>23.0</ele><time>2026-04-26T13:12:10.999Z</time></trkpt><trkpt lat="40.65048182190519" lon="14.625374296641041"><ele>22.333333333333336</ele><time>2026-04-26T13:12:11.999Z</time></trkpt><trkpt lat="40.65055440222643" lon="14.625353084220292"><ele>21.666666666666668</ele><time>2026-04-26T13:12:12.999Z</time></trkpt><trkpt lat="40.65062509795536" lon="14.625325221378072"><ele>21.0</ele><time>2026-04-26T13:12:13.999Z</time></trkpt><trkpt lat="40.650694118897" lon="14.625300065110636"><ele>20.333333333333332</ele><time>2026-04-26T13:12:14.999Z</time></trkpt><trkpt lat="40.65080947021646" lon="14.625269408533821"><ele>19.666666666666664</ele><time>2026-04-26T13:12:16.999Z</time></trkpt><trkpt lat="40.650895926210616" lon="14.62526734578055"><ele>19.0</ele><time>2026-04-26T13:12:18.999Z</time></trkpt><trkpt lat="40.650951698752415" lon="14.625322145715081"><ele>19.0</ele><time>2026-04-26T13:12:20.999Z</time></trkpt><trkpt lat="40.65093868562904" lon="14.625418564291174"><ele>19.0</ele><time>2026-04-26T13:12:22.999Z</time></trkpt><trkpt lat="40.650861149236455" lon="14.62547933059824"><ele>19.0</ele><time>2026-04-26T13:12:24.999Z</time></trkpt><trkpt lat="40.65074543684782" lon="14.62552127027098"><ele>19.0</ele><time>2026-04-26T13:12:26.999Z</time></trkpt><trkpt lat="40.65062396425071" lon="14.625571628685416"><ele>19.0</ele><time>2026-04-26T13:12:28.999Z</time></trkpt><trkpt lat="40.650504621482355" lon="14.625620324919982"><ele>19.0</ele><time>2026-04-26T13:12:30.999Z</time></trkpt><trkpt lat="40.65039531025213" lon="14.625668622759633"><ele>19.0</ele><time>2026-04-26T13:12:32.999Z</time></trkpt><trkpt lat="40.650303244374804" lon="14.625709098855292"><ele>19.0</ele><time>2026-04-26T13:12:34.999Z</time></trkpt><trkpt lat="40.650184306333905" lon="14.625766532920615"><ele>19.0</ele><time>2026-04-26T13:12:36.999Z</time></trkpt><trkpt lat="40.65011505469742" lon="14.625792406297691"><ele>19.0</ele><time>2026-04-26T13:12:37.999Z</time></trkpt><trkpt lat="40.65004412887594" lon="14.625824206383239"><ele>19.666666666666664</ele><time>2026-04-26T13:12:38.999Z</time></trkpt><trkpt lat="40.64997204260251" lon="14.625853644568787"><ele>20.333333333333332</ele><time>2026-04-26T13:12:39.999Z</time></trkpt><trkpt lat="40.649900971303836" lon="14.625887142994637"><ele>21.0</ele><time>2026-04-26T13:12:40.999Z</time></trkpt><trkpt lat="40.64982860040927" lon="14.625926239185814"><ele>21.666666666666668</ele><time>2026-04-26T13:12:41.999Z</time></trkpt><trkpt lat="40.64975502492756" lon="14.625958937442023"><ele>22.333333333333336</ele><time>2026-04-26T13:12:42.997Z</time></trkpt><trkpt lat="40.64969131850835" lon="14.625993584331626"><ele>23.0</ele><time>2026-04-26T13:12:43.997Z</time></trkpt><trkpt lat="40.64959264409256" lon="14.626040585889879"><ele>23.0</ele><time>2026-04-26T13:12:45.997Z</time></trkpt><trkpt lat="40.649541065091945" lon="14.626093859482484"><ele>23.0</ele><time>2026-04-26T13:12:48.997Z</time></trkpt><trkpt lat="40.64948909351504" lon="14.626146076386414"><ele>23.0</ele><time>2026-04-26T13:12:52.997Z</time></trkpt><trkpt lat="40.64940422990598" lon="14.62619952159259"><ele>23.0</ele><time>2026-04-26T13:12:55.997Z</time></trkpt><trkpt lat="40.64934881008543" lon="14.626250110655072"><ele>23.0</ele><time>2026-04-26T13:12:57.997Z</time></trkpt><trkpt lat="40.64930713740141" lon="14.626329210423002"><ele>23.0</ele><time>2026-04-26T13:12:59.998Z</time></trkpt><trkpt lat="40.64929030467393" lon="14.626448795487377"><ele>20.799999999999997</ele><time>2026-04-26T13:13:01.998Z</time></trkpt><trkpt lat="40.64932781914752" lon="14.626587927753643"><ele>18.599999999999998</ele><time>2026-04-26T13:13:03.998Z</time></trkpt><trkpt lat="40.649362581027205" lon="14.626732952314763"><ele>16.4</ele><time>2026-04-26T13:13:05.998Z</time></trkpt><trkpt lat="40.649375375143684" lon="14.626852746215675"><ele>14.2</ele><time>2026-04-26T13:13:07.998Z</time></trkpt><trkpt lat="40.649384093944555" lon="14.626953747531914"><ele>12.0</ele><time>2026-04-26T13:13:09.998Z</time></trkpt><trkpt lat="40.6494123283063" lon="14.627105014747816"><ele>12.6</ele><time>2026-04-26T13:13:11.998Z</time></trkpt><trkpt lat="40.64942916118727" lon="14.627260040209174"><ele>13.2</ele><time>2026-04-26T13:13:13.998Z</time></trkpt><trkpt lat="40.64944491178161" lon="14.627392904448657"><ele>13.8</ele><time>2026-04-26T13:13:15.998Z</time></trkpt><trkpt lat="40.649459972219674" lon="14.627510582705048"><ele>14.4</ele><time>2026-04-26T13:13:17.998Z</time></trkpt><trkpt lat="40.649473876279295" lon="14.627606105390907"><ele>15.0</ele><time>2026-04-26T13:13:19.998Z</time></trkpt><trkpt lat="40.64947174590027" lon="14.627699909722185"><ele>15.0</ele><time>2026-04-26T13:13:21.998Z</time></trkpt><trkpt lat="40.649483711696234" lon="14.627804934662379"><ele>15.0</ele><time>2026-04-26T13:13:23.998Z</time></trkpt><trkpt lat="40.64949828371401" lon="14.627932834649057"><ele>15.0</ele><time>2026-04-26T13:13:25.998Z</time></trkpt><trkpt lat="40.64952665393896" lon="14.628040792227688"><ele>15.0</ele><time>2026-04-26T13:13:27.999Z</time></trkpt><trkpt lat="40.6495202405743" lon="14.628125553577535"><ele>15.0</ele><time>2026-04-26T13:13:29.999Z</time></trkpt><trkpt lat="40.64954365079636" lon="14.628215213097628"><ele>15.0</ele><time>2026-04-26T13:13:31.999Z</time></trkpt><trkpt lat="40.64955656181501" lon="14.62830455017361"><ele>14.333333333333334</ele><time>2026-04-26T13:13:35.999Z</time></trkpt><trkpt lat="40.64956431833509" lon="14.62841062746028"><ele>13.666666666666666</ele><time>2026-04-26T13:13:38.999Z</time></trkpt><trkpt lat="40.6495720768344" lon="14.628513461887566"><ele>13.0</ele><time>2026-04-26T13:13:40.999Z</time></trkpt><trkpt lat="40.64958475023701" lon="14.628616123084672"><ele>12.333333333333332</ele><time>2026-04-26T13:13:42.999Z</time></trkpt><trkpt lat="40.64960644320873" lon="14.628711905934452"><ele>11.666666666666666</ele><time>2026-04-26T13:14:00.999Z</time></trkpt><trkpt lat="40.649616120196896" lon="14.62880587277136"><ele>11.0</ele><time>2026-04-26T13:14:02.999Z</time></trkpt><trkpt lat="40.64962056543817" lon="14.628959248280774"><ele>11.666666666666666</ele><time>2026-04-26T13:14:04.999Z</time></trkpt><trkpt lat="40.649586661188394" lon="14.629039026455915"><ele>12.333333333333332</ele><time>2026-04-26T13:14:05.999Z</time></trkpt><trkpt lat="40.64954536763224" lon="14.6291185799025"><ele>13.0</ele><time>2026-04-26T13:14:06.999Z</time></trkpt><trkpt lat="40.64948518093023" lon="14.629207370263474"><ele>13.666666666666666</ele><time>2026-04-26T13:14:07.999Z</time></trkpt><trkpt lat="40.649411002741786" lon="14.629274365355307"><ele>14.333333333333334</ele><time>2026-04-26T13:14:08.999Z</time></trkpt><trkpt lat="40.64932728714661" lon="14.629330884345363"><ele>15.0</ele><time>2026-04-26T13:14:09.999Z</time></trkpt><trkpt lat="40.649248270111336" lon="14.629396647960608"><ele>15.0</ele><time>2026-04-26T13:14:10.999Z</time></trkpt><trkpt lat="40.64916723806086" lon="14.629455389097169"><ele>15.0</ele><time>2026-04-26T13:14:11.999Z</time></trkpt><trkpt lat="40.64908804050025" lon="14.629512808116075"><ele>15.0</ele><time>2026-04-26T13:14:12.999Z</time></trkpt><trkpt lat="40.64901336187355" lon="14.629571135533588"><ele>15.0</ele><time>2026-04-26T13:14:13.999Z</time></trkpt><trkpt lat="40.64893593823569" lon="14.629624641187275"><ele>15.0</ele><time>2026-04-26T13:14:14.999Z</time></trkpt><trkpt lat="40.64886581644196" lon="14.62967824313571"><ele>15.0</ele><time>2026-04-26T13:14:15.999Z</time></trkpt><trkpt lat="40.648795521785345" lon="14.629727003603424"><ele>14.333333333333334</ele><time>2026-04-26T13:14:16.999Z</time></trkpt><trkpt lat="40.64872499697594" lon="14.629775886060981"><ele>13.666666666666666</ele><time>2026-04-26T13:14:17.999Z</time></trkpt><trkpt lat="40.64865770791909" lon="14.62982000773399"><ele>13.0</ele><time>2026-04-26T13:14:18.999Z</time></trkpt><trkpt lat="40.648591841148324" lon="14.629854050218787"><ele>12.333333333333332</ele><time>2026-04-26T13:14:19.999Z</time></trkpt><trkpt lat="40.6485045243514" lon="14.629948328388611"><ele>11.666666666666666</ele><time>2026-04-26T13:14:21.999Z</time></trkpt><trkpt lat="40.648455251117944" lon="14.63007431548142"><ele>11.0</ele><time>2026-04-26T13:14:23.999Z</time></trkpt><trkpt lat="40.64843564411627" lon="14.630154233433425"><ele>11.0</ele><time>2026-04-26T13:14:24.999Z</time></trkpt><trkpt lat="40.648403986044386" lon="14.630305164193668"><ele>11.0</ele><time>2026-04-26T13:14:26.999Z</time></trkpt><trkpt lat="40.64837134725872" lon="14.630444889393079"><ele>11.0</ele><time>2026-04-26T13:14:28.999Z</time></trkpt><trkpt lat="40.648346928679636" lon="14.630551915974612"><ele>11.0</ele><time>2026-04-26T13:14:30.999Z</time></trkpt><trkpt lat="40.64833103959788" lon="14.630634601851906"><ele>11.0</ele><time>2026-04-26T13:14:33.999Z</time></trkpt><trkpt lat="40.64829903259411" lon="14.630784840188836"><ele>12.833333333333332</ele><time>2026-04-26T13:15:10.998Z</time></trkpt><trkpt lat="40.64829687003961" lon="14.630878186999615"><ele>14.666666666666666</ele><time>2026-04-26T13:15:11.998Z</time></trkpt><trkpt lat="40.64829760345577" lon="14.630980425418318"><ele>16.5</ele><time>2026-04-26T13:15:12.998Z</time></trkpt><trkpt lat="40.6482921246309" lon="14.63108426795017"><ele>18.333333333333332</ele><time>2026-04-26T13:15:13.999Z</time></trkpt><trkpt lat="40.64828568469147" lon="14.631194811332529"><ele>20.166666666666664</ele><time>2026-04-26T13:15:14.999Z</time></trkpt><trkpt lat="40.64827410518347" lon="14.631310389628174"><ele>22.0</ele><time>2026-04-26T13:15:15.999Z</time></trkpt><trkpt lat="40.64825422560417" lon="14.631430136798896"><ele>24.400000000000002</ele><time>2026-04-26T13:15:16.999Z</time></trkpt><trkpt lat="40.6482255601617" lon="14.63155029645347"><ele>26.8</ele><time>2026-04-26T13:15:17.999Z</time></trkpt><trkpt lat="40.64819425420224" lon="14.631673024624503"><ele>29.2</ele><time>2026-04-26T13:15:18.999Z</time></trkpt><trkpt lat="40.648165667105346" lon="14.631785094224957"><ele>31.6</ele><time>2026-04-26T13:15:19.999Z</time></trkpt><trkpt lat="40.64813786126796" lon="14.631894100999327"><ele>34.0</ele><time>2026-04-26T13:15:20.999Z</time></trkpt><trkpt lat="40.64811235142523" lon="14.631993603323245"><ele>34.857142857142854</ele><time>2026-04-26T13:15:21.999Z</time></trkpt><trkpt lat="40.648088376425314" lon="14.632086582688457"><ele>35.714285714285715</ele><time>2026-04-26T13:15:22.999Z</time></trkpt><trkpt lat="40.64806804029059" lon="14.632165277705278"><ele>36.57142857142857</ele><time>2026-04-26T13:15:23.999Z</time></trkpt><trkpt lat="40.64804287207229" lon="14.632259571738041"><ele>37.42857142857143</ele><time>2026-04-26T13:15:25.999Z</time></trkpt><trkpt lat="40.648020248667365" lon="14.632344331470817"><ele>38.285714285714285</ele><time>2026-04-26T13:16:07.999Z</time></trkpt><trkpt lat="40.647999598844436" lon="14.632423633786859"><ele>39.14285714285714</ele><time>2026-04-26T13:16:34Z</time></trkpt><trkpt lat="40.64797976110434" lon="14.63255429058593"><ele>40.0</ele><time>2026-04-26T13:16:36Z</time></trkpt><trkpt lat="40.647943154362245" lon="14.632680876838915"><ele>38.0</ele><time>2026-04-26T13:16:38Z</time></trkpt><trkpt lat="40.64793940893454" lon="14.632806034834275"><ele>36.0</ele><time>2026-04-26T13:16:40Z</time></trkpt><trkpt lat="40.64792193106718" lon="14.632953469669658"><ele>34.0</ele><time>2026-04-26T13:16:42Z</time></trkpt><trkpt lat="40.64789443430309" lon="14.633083786685933"><ele>32.0</ele><time>2026-04-26T13:16:44Z</time></trkpt><trkpt lat="40.647863207923265" lon="14.63321692267642"><ele>30.0</ele><time>2026-04-26T13:16:46Z</time></trkpt><trkpt lat="40.64784104996652" lon="14.633368472978649"><ele>30.0</ele><time>2026-04-26T13:16:48Z</time></trkpt><trkpt lat="40.647856919656824" lon="14.63345750667544"><ele>30.0</ele><time>2026-04-26T13:16:49Z</time></trkpt><trkpt lat="40.64791017409629" lon="14.63358674441433"><ele>30.0</ele><time>2026-04-26T13:16:51Z</time></trkpt><trkpt lat="40.64798243303083" lon="14.633687978179532"><ele>30.0</ele><time>2026-04-26T13:16:53Z</time></trkpt><trkpt lat="40.648104600713694" lon="14.633727540150938"><ele>30.0</ele><time>2026-04-26T13:16:54.999Z</time></trkpt><trkpt lat="40.64817453740798" lon="14.633676017475748"><ele>30.0</ele><time>2026-04-26T13:16:55.999Z</time></trkpt><trkpt lat="40.648240936228085" lon="14.633645662583838"><ele>30.0</ele><time>2026-04-26T13:16:56.999Z</time></trkpt><trkpt lat="40.64830646687362" lon="14.633597065130532"><ele>30.0</ele><time>2026-04-26T13:16:57.999Z</time></trkpt><trkpt lat="40.648367130960196" lon="14.63355867430585"><ele>30.0</ele><time>2026-04-26T13:16:58.999Z</time></trkpt><trkpt lat="40.64841382247544" lon="14.6334985894016"><ele>30.0</ele><time>2026-04-26T13:16:59.999Z</time></trkpt><trkpt lat="40.64852981543049" lon="14.633463832892405"><ele>30.0</ele><time>2026-04-26T13:17:01.999Z</time></trkpt><trkpt lat="40.64859519358664" lon="14.63349018757308"><ele>30.333333333333332</ele><time>2026-04-26T13:17:02.999Z</time></trkpt><trkpt lat="40.64866079887934" lon="14.633541213378573"><ele>30.666666666666664</ele><time>2026-04-26T13:17:03.999Z</time></trkpt><trkpt lat="40.648724919757484" lon="14.633612821270312"><ele>31.0</ele><time>2026-04-26T13:17:04.999Z</time></trkpt><trkpt lat="40.648790584600484" lon="14.633676238168713"><ele>31.333333333333332</ele><time>2026-04-26T13:17:05.999Z</time></trkpt><trkpt lat="40.64886205064761" lon="14.633738968706476"><ele>31.666666666666664</ele><time>2026-04-26T13:17:06.999Z</time></trkpt><trkpt lat="40.648932443680415" lon="14.633793691406547"><ele>32.0</ele><time>2026-04-26T13:17:07.999Z</time></trkpt><trkpt lat="40.648996896848224" lon="14.63385869844618"><ele>31.999999999999996</ele><time>2026-04-26T13:17:08.999Z</time></trkpt><trkpt lat="40.64905854513801" lon="14.633926935573914"><ele>32.0</ele><time>2026-04-26T13:17:09.999Z</time></trkpt><trkpt lat="40.64911963182148" lon="14.633993288088126"><ele>32.0</ele><time>2026-04-26T13:17:10.999Z</time></trkpt><trkpt lat="40.649177531903746" lon="14.63405709217385"><ele>32.0</ele><time>2026-04-26T13:17:11.999Z</time></trkpt><trkpt lat="40.64923024813515" lon="14.634120734391905"><ele>31.999999999999996</ele><time>2026-04-26T13:17:12.999Z</time></trkpt><trkpt lat="40.64927838820032" lon="14.634202757696121"><ele>32.0</ele><time>2026-04-26T13:17:13.999Z</time></trkpt><trkpt lat="40.649328266356775" lon="14.634293050720633"><ele>31.999999999999996</ele><time>2026-04-26T13:17:14.999Z</time></trkpt><trkpt lat="40.64936631911207" lon="14.63439605812697"><ele>32.0</ele><time>2026-04-26T13:17:15.999Z</time></trkpt><trkpt lat="40.649391938283514" lon="14.634499626655348"><ele>32.0</ele><time>2026-04-26T13:17:16.999Z</time></trkpt><trkpt lat="40.64941876476914" lon="14.634600013201851"><ele>32.0</ele><time>2026-04-26T13:17:17.999Z</time></trkpt><trkpt lat="40.64943051707864" lon="14.634702212883056"><ele>31.999999999999996</ele><time>2026-04-26T13:17:18.999Z</time></trkpt><trkpt lat="40.649440574493156" lon="14.634800615627672"><ele>32.0</ele><time>2026-04-26T13:17:19.999Z</time></trkpt><trkpt lat="40.649449733872075" lon="14.634896156340492"><ele>27.999999999999996</ele><time>2026-04-26T13:17:20.999Z</time></trkpt><trkpt lat="40.64945437843969" lon="14.634987592786695"><ele>24.0</ele><time>2026-04-26T13:17:21.999Z</time></trkpt><trkpt lat="40.64945763309231" lon="14.635074569426587"><ele>20.0</ele><time>2026-04-26T13:17:22.999Z</time></trkpt><trkpt lat="40.64945822792242" lon="14.63515812670807"><ele>16.0</ele><time>2026-04-26T13:17:23.999Z</time></trkpt><trkpt lat="40.6494525917298" lon="14.635316221783537"><ele>12.0</ele><time>2026-04-26T13:17:25.999Z</time></trkpt><trkpt lat="40.64944459797846" lon="14.635411738360677"><ele>8.0</ele><time>2026-04-26T13:17:26.999Z</time></trkpt><trkpt lat="40.64943756198405" lon="14.635512833098298"><ele>7.999999999999999</ele><time>2026-04-26T13:17:27.999Z</time></trkpt><trkpt lat="40.64942174760537" lon="14.635618543249338"><ele>8.0</ele><time>2026-04-26T13:17:28.999Z</time></trkpt><trkpt lat="40.649405083490855" lon="14.635719895138008"><ele>8.0</ele><time>2026-04-26T13:17:29.999Z</time></trkpt><trkpt lat="40.649386088936204" lon="14.635816809880163"><ele>8.0</ele><time>2026-04-26T13:17:30.999Z</time></trkpt><trkpt lat="40.649368475550176" lon="14.63591555893762"><ele>7.999999999999999</ele><time>2026-04-26T13:17:31.999Z</time></trkpt><trkpt lat="40.64935643060812" lon="14.636011581140217"><ele>8.0</ele><time>2026-04-26T13:17:32.999Z</time></trkpt><trkpt lat="40.64934293746148" lon="14.636099176484565"><ele>8.285714285714285</ele><time>2026-04-26T13:17:33.999Z</time></trkpt><trkpt lat="40.649325147418374" lon="14.636185789787893"><ele>8.571428571428571</ele><time>2026-04-26T13:17:34.999Z</time></trkpt><trkpt lat="40.64930540369728" lon="14.63627228390212"><ele>8.857142857142858</ele><time>2026-04-26T13:17:35.999Z</time></trkpt><trkpt lat="40.649286561572005" lon="14.636360712800927"><ele>9.142857142857142</ele><time>2026-04-26T13:17:36.999Z</time></trkpt><trkpt lat="40.64927249776405" lon="14.636446611604182"><ele>9.428571428571429</ele><time>2026-04-26T13:17:38Z</time></trkpt><trkpt lat="40.6492615942957" lon="14.636537161378365"><ele>9.714285714285714</ele><time>2026-04-26T13:17:39Z</time></trkpt><trkpt lat="40.6492464013621" lon="14.63662955146465"><ele>10.0</ele><time>2026-04-26T13:17:40Z</time></trkpt><trkpt lat="40.64923106573084" lon="14.636726537903701"><ele>10.0</ele><time>2026-04-26T13:17:41Z</time></trkpt><trkpt lat="40.64921534562188" lon="14.636817163572198"><ele>10.0</ele><time>2026-04-26T13:17:42Z</time></trkpt><trkpt lat="40.64920226575648" lon="14.636902183774692"><ele>10.0</ele><time>2026-04-26T13:17:43Z</time></trkpt><trkpt lat="40.64918972725954" lon="14.636987873462832"><ele>10.0</ele><time>2026-04-26T13:17:44Z</time></trkpt><trkpt lat="40.64917726401751" lon="14.637072723164778"><ele>10.0</ele><time>2026-04-26T13:17:45Z</time></trkpt><trkpt lat="40.64915206446545" lon="14.637221332989943"><ele>10.0</ele><time>2026-04-26T13:17:47Z</time></trkpt><trkpt lat="40.64911332173182" lon="14.637372229286656"><ele>10.166666666666668</ele><time>2026-04-26T13:17:49Z</time></trkpt><trkpt lat="40.6490982993929" lon="14.637539091139928"><ele>10.333333333333334</ele><time>2026-04-26T13:17:51Z</time></trkpt><trkpt lat="40.64908501300763" lon="14.637628794957111"><ele>10.5</ele><time>2026-04-26T13:17:52Z</time></trkpt><trkpt lat="40.6490676863568" lon="14.63771765955857"><ele>10.666666666666666</ele><time>2026-04-26T13:17:53Z</time></trkpt><trkpt lat="40.6490526921077" lon="14.637805539524342"><ele>10.833333333333332</ele><time>2026-04-26T13:17:54Z</time></trkpt><trkpt lat="40.64903777688574" lon="14.637893573999131"><ele>11.0</ele><time>2026-04-26T13:17:55Z</time></trkpt><trkpt lat="40.64902004625177" lon="14.637979193418557"><ele>11.5</ele><time>2026-04-26T13:17:56Z</time></trkpt><trkpt lat="40.64899304327594" lon="14.638137712829092"><ele>12.0</ele><time>2026-04-26T13:17:58Z</time></trkpt><trkpt lat="40.64897016877329" lon="14.638283584166885"><ele>12.5</ele><time>2026-04-26T13:18:00Z</time></trkpt><trkpt lat="40.64895774780853" lon="14.63836768329795"><ele>13.0</ele><time>2026-04-26T13:18:01Z</time></trkpt><trkpt lat="40.648941172773654" lon="14.63845594566047"><ele>13.500000000000002</ele><time>2026-04-26T13:18:02Z</time></trkpt><trkpt lat="40.64892354621169" lon="14.638552751563477"><ele>14.0</ele><time>2026-04-26T13:18:03Z</time></trkpt><trkpt lat="40.648907113593125" lon="14.638651743580144"><ele>14.333333333333334</ele><time>2026-04-26T13:18:04Z</time></trkpt><trkpt lat="40.648889560175235" lon="14.63875549989809"><ele>14.666666666666668</ele><time>2026-04-26T13:18:05Z</time></trkpt><trkpt lat="40.64886820990725" lon="14.638859382098877"><ele>15.0</ele><time>2026-04-26T13:18:06Z</time></trkpt><trkpt lat="40.64884185892574" lon="14.638967351627386"><ele>15.333333333333332</ele><time>2026-04-26T13:18:07Z</time></trkpt><trkpt lat="40.648814592199535" lon="14.639071433434971"><ele>15.666666666666666</ele><time>2026-04-26T13:18:08Z</time></trkpt><trkpt lat="40.648782771158224" lon="14.639178188419118"><ele>16.0</ele><time>2026-04-26T13:18:09Z</time></trkpt><trkpt lat="40.64874934089878" lon="14.639278546145112"><ele>15.999999999999998</ele><time>2026-04-26T13:18:10Z</time></trkpt><trkpt lat="40.64871596972034" lon="14.639375851179448"><ele>16.0</ele><time>2026-04-26T13:18:11Z</time></trkpt><trkpt lat="40.64868362973087" lon="14.639465089947784"><ele>16.0</ele><time>2026-04-26T13:18:12Z</time></trkpt><trkpt lat="40.64865214151928" lon="14.639557237288225"><ele>16.0</ele><time>2026-04-26T13:18:13Z</time></trkpt><trkpt lat="40.6486185661962" lon="14.639648500865663"><ele>15.999999999999998</ele><time>2026-04-26T13:18:14Z</time></trkpt><trkpt lat="40.6485691620086" lon="14.639730207939461"><ele>16.0</ele><time>2026-04-26T13:18:15Z</time></trkpt><trkpt lat="40.648535481863" lon="14.639818939483076"><ele>15.571428571428571</ele><time>2026-04-26T13:18:16Z</time></trkpt><trkpt lat="40.648503832939355" lon="14.639903603443294"><ele>15.142857142857142</ele><time>2026-04-26T13:18:17Z</time></trkpt><trkpt lat="40.64847296186873" lon="14.639986186573589"><ele>14.714285714285714</ele><time>2026-04-26T13:18:18Z</time></trkpt><trkpt lat="40.64844215262052" lon="14.640068724924141"><ele>14.285714285714285</ele><time>2026-04-26T13:18:19Z</time></trkpt><trkpt lat="40.64841250155776" lon="14.640149074217119"><ele>13.857142857142858</ele><time>2026-04-26T13:18:20Z</time></trkpt><trkpt lat="40.648380571372954" lon="14.640235599536139"><ele>13.428571428571427</ele><time>2026-04-26T13:18:21Z</time></trkpt><trkpt lat="40.64834576883321" lon="14.640329908438646"><ele>13.0</ele><time>2026-04-26T13:18:22Z</time></trkpt><trkpt lat="40.6483108542208" lon="14.640424521278298"><ele>13.0</ele><time>2026-04-26T13:18:23Z</time></trkpt><trkpt lat="40.64826559925595" lon="14.640548677672516"><ele>13.0</ele><time>2026-04-26T13:18:25Z</time></trkpt><trkpt lat="40.64823018557432" lon="14.640645684343127"><ele>13.0</ele><time>2026-04-26T13:18:28Z</time></trkpt><trkpt lat="40.648184083328424" lon="14.640771969522616"><ele>13.0</ele><time>2026-04-26T13:18:39Z</time></trkpt><trkpt lat="40.64814273909034" lon="14.640883983057495"><ele>13.0</ele><time>2026-04-26T13:18:41Z</time></trkpt><trkpt lat="40.648108602699416" lon="14.640978557813945"><ele>12.999999999999998</ele><time>2026-04-26T13:18:43Z</time></trkpt><trkpt lat="40.64806652382945" lon="14.641093657578152"><ele>13.0</ele><time>2026-04-26T13:18:45Z</time></trkpt><trkpt lat="40.648024781519524" lon="14.641250353881972"><ele>13.0</ele><time>2026-04-26T13:18:47Z</time></trkpt><trkpt lat="40.6479824918267" lon="14.641323634928023"><ele>13.0</ele><time>2026-04-26T13:18:48Z</time></trkpt><trkpt lat="40.647967551646396" lon="14.641412203275078"><ele>12.999999999999998</ele><time>2026-04-26T13:18:49Z</time></trkpt><trkpt lat="40.64793681888479" lon="14.641488826638218"><ele>13.0</ele><time>2026-04-26T13:18:50.001Z</time></trkpt><trkpt lat="40.64790908063225" lon="14.641567755564951"><ele>12.833333333333332</ele><time>2026-04-26T13:18:51.001Z</time></trkpt><trkpt lat="40.647880648450936" lon="14.641650199101264"><ele>12.666666666666666</ele><time>2026-04-26T13:18:52.001Z</time></trkpt><trkpt lat="40.6478487139215" lon="14.641736172823885"><ele>12.5</ele><time>2026-04-26T13:18:53.001Z</time></trkpt><trkpt lat="40.6478116171882" lon="14.641826107469349"><ele>12.333333333333332</ele><time>2026-04-26T13:18:54.001Z</time></trkpt><trkpt lat="40.64777409764738" lon="14.641910030070653"><ele>12.166666666666666</ele><time>2026-04-26T13:18:55.001Z</time></trkpt><trkpt lat="40.64774165924257" lon="14.641991109030375"><ele>12.0</ele><time>2026-04-26T13:18:56.001Z</time></trkpt><trkpt lat="40.64768818979557" lon="14.64213241579058"><ele>11.5</ele><time>2026-04-26T13:18:58.001Z</time></trkpt><trkpt lat="40.64762349889533" lon="14.642274622739786"><ele>11.0</ele><time>2026-04-26T13:19:00.001Z</time></trkpt><trkpt lat="40.6475913474508" lon="14.64235377701192"><ele>10.5</ele><time>2026-04-26T13:19:00.999Z</time></trkpt><trkpt lat="40.64755517421348" lon="14.642439507942568"><ele>10.0</ele><time>2026-04-26T13:19:01.999Z</time></trkpt><trkpt lat="40.64751752938123" lon="14.642531459139791"><ele>9.5</ele><time>2026-04-26T13:19:02.999Z</time></trkpt><trkpt lat="40.64747715128221" lon="14.642628793415039"><ele>9.0</ele><time>2026-04-26T13:19:03.999Z</time></trkpt><trkpt lat="40.647430918239664" lon="14.64273442203856"><ele>9.0</ele><time>2026-04-26T13:19:04.999Z</time></trkpt><trkpt lat="40.64738480652474" lon="14.64284153082163"><ele>9.0</ele><time>2026-04-26T13:19:05.999Z</time></trkpt><trkpt lat="40.64734305180715" lon="14.642943376517852"><ele>9.0</ele><time>2026-04-26T13:19:06.999Z</time></trkpt><trkpt lat="40.64730531367635" lon="14.643040244560897"><ele>9.0</ele><time>2026-04-26T13:19:07.999Z</time></trkpt><trkpt lat="40.647270117360236" lon="14.643129360827926"><ele>9.0</ele><time>2026-04-26T13:19:08.999Z</time></trkpt><trkpt lat="40.64723135957032" lon="14.643210244015979"><ele>9.0</ele><time>2026-04-26T13:19:09.999Z</time></trkpt><trkpt lat="40.6471966591089" lon="14.643290068851382"><ele>9.000000000000002</ele><time>2026-04-26T13:19:10.999Z</time></trkpt><trkpt lat="40.647164188375335" lon="14.643375164423139"><ele>9.0</ele><time>2026-04-26T13:19:11.999Z</time></trkpt><trkpt lat="40.64713121629018" lon="14.64346135187981"><ele>9.0</ele><time>2026-04-26T13:19:12.999Z</time></trkpt><trkpt lat="40.64710015615887" lon="14.643549850288617"><ele>9.0</ele><time>2026-04-26T13:19:13.999Z</time></trkpt><trkpt lat="40.647063939740576" lon="14.643635354408259"><ele>9.0</ele><time>2026-04-26T13:19:14.999Z</time></trkpt><trkpt lat="40.647024963043336" lon="14.643718972225626"><ele>9.000000000000002</ele><time>2026-04-26T13:19:15.999Z</time></trkpt><trkpt lat="40.64698961589174" lon="14.643805342020137"><ele>9.0</ele><time>2026-04-26T13:19:16.999Z</time></trkpt><trkpt lat="40.64695610913166" lon="14.643889255423776"><ele>7.8571428571428585</ele><time>2026-04-26T13:19:17.999Z</time></trkpt><trkpt lat="40.64692546050079" lon="14.643967640115262"><ele>6.714285714285714</ele><time>2026-04-26T13:19:18.999Z</time></trkpt><trkpt lat="40.64689915514049" lon="14.644047311767238"><ele>5.571428571428572</ele><time>2026-04-26T13:19:19.999Z</time></trkpt><trkpt lat="40.646865400005105" lon="14.644132702015574"><ele>4.428571428571429</ele><time>2026-04-26T13:19:20.999Z</time></trkpt><trkpt lat="40.646833012628804" lon="14.644220912976074"><ele>3.2857142857142856</ele><time>2026-04-26T13:19:21.999Z</time></trkpt><trkpt lat="40.64679576328358" lon="14.644301577481583"><ele>2.142857142857143</ele><time>2026-04-26T13:19:22.999Z</time></trkpt><trkpt lat="40.646762538175146" lon="14.644378995081942"><ele>1.0</ele><time>2026-04-26T13:19:23.999Z</time></trkpt><trkpt lat="40.646731235358565" lon="14.64445324516745"><ele>2.0</ele><time>2026-04-26T13:19:24.999Z</time></trkpt><trkpt lat="40.64668578547411" lon="14.644576125827335"><ele>3.0</ele><time>2026-04-26T13:19:26.999Z</time></trkpt><trkpt lat="40.64663880052182" lon="14.644682895388279"><ele>3.9999999999999996</ele><time>2026-04-26T13:19:28.999Z</time></trkpt><trkpt lat="40.64660709739756" lon="14.644827120036648"><ele>5.0</ele><time>2026-04-26T13:19:31Z</time></trkpt><trkpt lat="40.646605230638464" lon="14.644994994893672"><ele>6.0</ele><time>2026-04-26T13:19:33Z</time></trkpt><trkpt lat="40.646660150292284" lon="14.645083231641241"><ele>6.0</ele><time>2026-04-26T13:19:34Z</time></trkpt><trkpt lat="40.64672370588761" lon="14.64517561762088"><ele>6.0</ele><time>2026-04-26T13:19:35Z</time></trkpt><trkpt lat="40.64678476336533" lon="14.645264935758536"><ele>6.0</ele><time>2026-04-26T13:19:36Z</time></trkpt><trkpt lat="40.64683130195793" lon="14.645375980965087"><ele>6.0</ele><time>2026-04-26T13:19:37Z</time></trkpt><trkpt lat="40.646853201345536" lon="14.645494372551298"><ele>6.0</ele><time>2026-04-26T13:19:38Z</time></trkpt><trkpt lat="40.64683827032654" lon="14.645620356758291"><ele>9.0</ele><time>2026-04-26T13:19:39Z</time></trkpt><trkpt lat="40.646792608068736" lon="14.64572596666859"><ele>12.0</ele><time>2026-04-26T13:19:40Z</time></trkpt><trkpt lat="40.64673107082358" lon="14.645796297786589"><ele>15.000000000000002</ele><time>2026-04-26T13:19:41Z</time></trkpt><trkpt lat="40.64663642706618" lon="14.64589258848986"><ele>18.0</ele><time>2026-04-26T13:19:42Z</time></trkpt><trkpt lat="40.64652762473941" lon="14.645896924105644"><ele>21.0</ele><time>2026-04-26T13:19:43Z</time></trkpt><trkpt lat="40.64645299994381" lon="14.645905683771842"><ele>21.0</ele><time>2026-04-26T13:19:44Z</time></trkpt><trkpt lat="40.64630412303362" lon="14.645828708652544"><ele>21.0</ele><time>2026-04-26T13:19:46Z</time></trkpt><trkpt lat="40.6461223717583" lon="14.645825465093436"><ele>21.0</ele><time>2026-04-26T13:19:47Z</time></trkpt><trkpt lat="40.64599018711538" lon="14.645880355399045"><ele>17.6</ele><time>2026-04-26T13:19:48Z</time></trkpt><trkpt lat="40.64588886195051" lon="14.645939714736858"><ele>14.200000000000001</ele><time>2026-04-26T13:19:49Z</time></trkpt><trkpt lat="40.645795923778785" lon="14.646040511974853"><ele>10.8</ele><time>2026-04-26T13:19:50Z</time></trkpt><trkpt lat="40.645718174844106" lon="14.646121889336799"><ele>7.4</ele><time>2026-04-26T13:19:51Z</time></trkpt><trkpt lat="40.6456470437286" lon="14.646196536520426"><ele>4.0</ele><time>2026-04-26T13:19:52Z</time></trkpt><trkpt lat="40.645579162935036" lon="14.64626777258091"><ele>6.4</ele><time>2026-04-26T13:19:53Z</time></trkpt><trkpt lat="40.64549969099085" lon="14.646351172776846"><ele>8.8</ele><time>2026-04-26T13:19:54Z</time></trkpt><trkpt lat="40.645412506735205" lon="14.646442666484312"><ele>11.200000000000001</ele><time>2026-04-26T13:19:55Z</time></trkpt><trkpt lat="40.64532683231803" lon="14.646532575740483"><ele>13.600000000000001</ele><time>2026-04-26T13:19:56Z</time></trkpt><trkpt lat="40.64524807133138" lon="14.646612192504739"><ele>16.0</ele><time>2026-04-26T13:19:57Z</time></trkpt><trkpt lat="40.64516458674679" lon="14.646690887327765"><ele>16.0</ele><time>2026-04-26T13:19:58Z</time></trkpt><trkpt lat="40.645077724871086" lon="14.646771272423479"><ele>16.0</ele><time>2026-04-26T13:19:59Z</time></trkpt><trkpt lat="40.64499296471189" lon="14.64685395529291"><ele>16.0</ele><time>2026-04-26T13:20:00Z</time></trkpt><trkpt lat="40.6449144395024" lon="14.646953995803315"><ele>16.0</ele><time>2026-04-26T13:20:01Z</time></trkpt><trkpt lat="40.64488293447206" lon="14.647053885444528"><ele>16.0</ele><time>2026-04-26T13:20:02Z</time></trkpt><trkpt lat="40.644819876643446" lon="14.647154234404331"><ele>23.4</ele><time>2026-04-26T13:20:03Z</time></trkpt><trkpt lat="40.644767920627444" lon="14.647267034285049"><ele>30.8</ele><time>2026-04-26T13:20:04Z</time></trkpt><trkpt lat="40.64470989065373" lon="14.647388615162695"><ele>38.199999999999996</ele><time>2026-04-26T13:20:05Z</time></trkpt><trkpt lat="40.64464891713468" lon="14.647512539303603"><ele>45.6</ele><time>2026-04-26T13:20:06Z</time></trkpt><trkpt lat="40.644606663789105" lon="14.64763049131491"><ele>53.0</ele><time>2026-04-26T13:20:07Z</time></trkpt><trkpt lat="40.64454931435033" lon="14.647721247767695"><ele>53.0</ele><time>2026-04-26T13:20:08Z</time></trkpt><trkpt lat="40.64448380727783" lon="14.647792306001236"><ele>53.0</ele><time>2026-04-26T13:20:09Z</time></trkpt><trkpt lat="40.64442428379105" lon="14.647866842656228"><ele>53.0</ele><time>2026-04-26T13:20:10Z</time></trkpt><trkpt lat="40.64438224005455" lon="14.64793151973911"><ele>53.0</ele><time>2026-04-26T13:20:11Z</time></trkpt><trkpt lat="40.64432751566801" lon="14.648042904199244"><ele>53.0</ele><time>2026-04-26T13:20:13Z</time></trkpt><trkpt lat="40.64427022161752" lon="14.648196161086728"><ele>48.714285714285715</ele><time>2026-04-26T13:20:15Z</time></trkpt><trkpt lat="40.64423861895717" lon="14.648291306322223"><ele>44.42857142857142</ele><time>2026-04-26T13:20:16Z</time></trkpt><trkpt lat="40.64420210361163" lon="14.648383584198896"><ele>40.14285714285714</ele><time>2026-04-26T13:20:17Z</time></trkpt><trkpt lat="40.64416381375201" lon="14.64847098526505"><ele>35.85714285714286</ele><time>2026-04-26T13:20:18Z</time></trkpt><trkpt lat="40.64412635211239" lon="14.648546082199239"><ele>31.57142857142857</ele><time>2026-04-26T13:20:19Z</time></trkpt><trkpt lat="40.64408790416061" lon="14.648619884118263"><ele>27.285714285714285</ele><time>2026-04-26T13:20:20Z</time></trkpt><trkpt lat="40.64405051815781" lon="14.648705764958386"><ele>23.0</ele><time>2026-04-26T13:20:21Z</time></trkpt><trkpt lat="40.644021233804054" lon="14.648808860558267"><ele>23.0</ele><time>2026-04-26T13:20:22Z</time></trkpt><trkpt lat="40.644028824142445" lon="14.648926306483833"><ele>23.0</ele><time>2026-04-26T13:20:23Z</time></trkpt><trkpt lat="40.644056670847895" lon="14.64903488349309"><ele>23.0</ele><time>2026-04-26T13:20:24Z</time></trkpt><trkpt lat="40.64409676461514" lon="14.649132671891076"><ele>23.0</ele><time>2026-04-26T13:20:25Z</time></trkpt><trkpt lat="40.644131913336096" lon="14.64921281537461"><ele>23.0</ele><time>2026-04-26T13:20:26Z</time></trkpt><trkpt lat="40.64421322070214" lon="14.64929724835696"><ele>23.0</ele><time>2026-04-26T13:20:28Z</time></trkpt><trkpt lat="40.64429560426016" lon="14.64932696252727"><ele>23.0</ele><time>2026-04-26T13:20:30Z</time></trkpt><trkpt lat="40.64436209299929" lon="14.649305966592756"><ele>23.0</ele><time>2026-04-26T13:20:31Z</time></trkpt><trkpt lat="40.64442697082128" lon="14.649306942494771"><ele>23.0</ele><time>2026-04-26T13:20:32Z</time></trkpt><trkpt lat="40.644570880251166" lon="14.64926666942569"><ele>23.0</ele><time>2026-04-26T13:20:34Z</time></trkpt><trkpt lat="40.64464921751168" lon="14.649270975910419"><ele>23.0</ele><time>2026-04-26T13:20:35Z</time></trkpt><trkpt lat="40.64471970113203" lon="14.64933191189535"><ele>23.0</ele><time>2026-04-26T13:20:36.001Z</time></trkpt><trkpt lat="40.64478689243075" lon="14.649404680009628"><ele>24.2</ele><time>2026-04-26T13:20:37.001Z</time></trkpt><trkpt lat="40.644887724512884" lon="14.649471095502648"><ele>25.4</ele><time>2026-04-26T13:20:38.001Z</time></trkpt><trkpt lat="40.64499435237158" lon="14.649503643221939"><ele>26.599999999999998</ele><time>2026-04-26T13:20:39.001Z</time></trkpt><trkpt lat="40.64509339351598" lon="14.649536753695466"><ele>27.799999999999997</ele><time>2026-04-26T13:20:40.001Z</time></trkpt><trkpt lat="40.64518090605507" lon="14.649582945343992"><ele>29.0</ele><time>2026-04-26T13:20:41.001Z</time></trkpt><trkpt lat="40.64525706413249" lon="14.649597374007044"><ele>35.83333333333333</ele><time>2026-04-26T13:20:42.001Z</time></trkpt><trkpt lat="40.645336831351514" lon="14.649606257068989"><ele>42.666666666666664</ele><time>2026-04-26T13:20:43.001Z</time></trkpt><trkpt lat="40.645380293148364" lon="14.649710102985825"><ele>49.5</ele><time>2026-04-26T13:20:44.001Z</time></trkpt><trkpt lat="40.645447623654746" lon="14.649808420614967"><ele>56.33333333333333</ele><time>2026-04-26T13:20:45.001Z</time></trkpt><trkpt lat="40.645513920370135" lon="14.649899822735147"><ele>63.166666666666664</ele><time>2026-04-26T13:20:46.001Z</time></trkpt><trkpt lat="40.64556533493488" lon="14.64997070753468"><ele>70.0</ele><time>2026-04-26T13:20:47.001Z</time></trkpt><trkpt lat="40.645609432380574" lon="14.650035707778256"><ele>70.0</ele><time>2026-04-26T13:20:48.001Z</time></trkpt><trkpt lat="40.64563417626219" lon="14.650176763246542"><ele>70.0</ele><time>2026-04-26T13:20:50.001Z</time></trkpt><trkpt lat="40.64559489890297" lon="14.650274602595038"><ele>70.0</ele><time>2026-04-26T13:20:51.001Z</time></trkpt><trkpt lat="40.645569703569514" lon="14.650413384522198"><ele>70.0</ele><time>2026-04-26T13:20:52.001Z</time></trkpt><trkpt lat="40.645526609819264" lon="14.650524783240956"><ele>70.0</ele><time>2026-04-26T13:20:53.001Z</time></trkpt><trkpt lat="40.64548883314591" lon="14.650601614825483"><ele>69.42857142857143</ele><time>2026-04-26T13:20:54.001Z</time></trkpt><trkpt lat="40.645459061938844" lon="14.65068823088982"><ele>68.85714285714286</ele><time>2026-04-26T13:20:55.001Z</time></trkpt><trkpt lat="40.64543018941503" lon="14.650771196475233"><ele>68.28571428571428</ele><time>2026-04-26T13:20:56.001Z</time></trkpt><trkpt lat="40.64540481781593" lon="14.650859613642627"><ele>67.71428571428572</ele><time>2026-04-26T13:20:57.001Z</time></trkpt><trkpt lat="40.64538828126175" lon="14.650947864663099"><ele>67.14285714285714</ele><time>2026-04-26T13:20:58.001Z</time></trkpt><trkpt lat="40.64537974050964" lon="14.651038473499986"><ele>66.57142857142857</ele><time>2026-04-26T13:20:59.001Z</time></trkpt><trkpt lat="40.64540852064636" lon="14.651130816900626"><ele>66.0</ele><time>2026-04-26T13:21:00.001Z</time></trkpt><trkpt lat="40.64550138868238" lon="14.651192331050469"><ele>65.5</ele><time>2026-04-26T13:21:01.001Z</time></trkpt><trkpt lat="40.645577186929216" lon="14.65124695337219"><ele>65.0</ele><time>2026-04-26T13:21:02.001Z</time></trkpt><trkpt lat="40.64564638259357" lon="14.651312220023529"><ele>64.5</ele><time>2026-04-26T13:21:03.001Z</time></trkpt><trkpt lat="40.645702077914024" lon="14.651389360938584"><ele>64.0</ele><time>2026-04-26T13:21:04.001Z</time></trkpt><trkpt lat="40.64576218131345" lon="14.65148862032921"><ele>63.5</ele><time>2026-04-26T13:21:06.001Z</time></trkpt><trkpt lat="40.64572102440146" lon="14.651594113777398"><ele>63.0</ele><time>2026-04-26T13:21:08Z</time></trkpt><trkpt lat="40.6457100824672" lon="14.651680757885423"><ele>63.0</ele><time>2026-04-26T13:21:09Z</time></trkpt><trkpt lat="40.645671964522585" lon="14.651750287578304"><ele>63.0</ele><time>2026-04-26T13:21:10Z</time></trkpt><trkpt lat="40.645545585843706" lon="14.651822523415511"><ele>63.0</ele><time>2026-04-26T13:21:12Z</time></trkpt><trkpt lat="40.645449399295266" lon="14.65178920624354"><ele>63.0</ele><time>2026-04-26T13:21:13Z</time></trkpt><trkpt lat="40.64535172577793" lon="14.651769726841426"><ele>63.0</ele><time>2026-04-26T13:21:14Z</time></trkpt><trkpt lat="40.645258358240774" lon="14.65175291154582"><ele>63.599999999999994</ele><time>2026-04-26T13:21:15Z</time></trkpt><trkpt lat="40.64516162275638" lon="14.651733670051737"><ele>64.19999999999999</ele><time>2026-04-26T13:21:16Z</time></trkpt><trkpt lat="40.64506294254363" lon="14.651701385596061"><ele>64.8</ele><time>2026-04-26T13:21:17Z</time></trkpt><trkpt lat="40.64497569438723" lon="14.65164297958839"><ele>65.39999999999999</ele><time>2026-04-26T13:21:18Z</time></trkpt><trkpt lat="40.644890015619204" lon="14.651563675326006"><ele>66.0</ele><time>2026-04-26T13:21:19Z</time></trkpt><trkpt lat="40.64483511723624" lon="14.651457663154153"><ele>66.0</ele><time>2026-04-26T13:21:20Z</time></trkpt><trkpt lat="40.64476952664527" lon="14.651343191909541"><ele>66.0</ele><time>2026-04-26T13:21:21Z</time></trkpt><trkpt lat="40.64469398927256" lon="14.651242461152384"><ele>66.0</ele><time>2026-04-26T13:21:22Z</time></trkpt><trkpt lat="40.64465117480007" lon="14.651156550382439"><ele>66.0</ele><time>2026-04-26T13:21:23Z</time></trkpt><trkpt lat="40.64461727640805" lon="14.651080474925008"><ele>66.0</ele><time>2026-04-26T13:21:24Z</time></trkpt><trkpt lat="40.644573019290526" lon="14.651008876305317"><ele>66.0</ele><time>2026-04-26T13:21:25Z</time></trkpt><trkpt lat="40.64453356427316" lon="14.65093892580381"><ele>60.8</ele><time>2026-04-26T13:21:26Z</time></trkpt><trkpt lat="40.644489283439" lon="14.65082191794367"><ele>55.599999999999994</ele><time>2026-04-26T13:21:28Z</time></trkpt><trkpt lat="40.64435555163947" lon="14.650898211931535"><ele>50.4</ele><time>2026-04-26T13:21:29Z</time></trkpt><trkpt lat="40.64426743779792" lon="14.65094464245071"><ele>45.2</ele><time>2026-04-26T13:21:30Z</time></trkpt><trkpt lat="40.644175608300436" lon="14.65101882343256"><ele>40.0</ele><time>2026-04-26T13:21:31Z</time></trkpt><trkpt lat="40.644087564900836" lon="14.651107060326368"><ele>48.6</ele><time>2026-04-26T13:21:32Z</time></trkpt><trkpt lat="40.64399673609981" lon="14.651183661282756"><ele>57.2</ele><time>2026-04-26T13:21:33Z</time></trkpt><trkpt lat="40.64390263310758" lon="14.651222418180607"><ele>65.80000000000001</ele><time>2026-04-26T13:21:34Z</time></trkpt><trkpt lat="40.6438245934022" lon="14.651255302915892"><ele>74.4</ele><time>2026-04-26T13:21:35Z</time></trkpt><trkpt lat="40.64374762945911" lon="14.651274652675575"><ele>83.0</ele><time>2026-04-26T13:21:36Z</time></trkpt><trkpt lat="40.64365938382415" lon="14.651285241300924"><ele>79.16666666666667</ele><time>2026-04-26T13:21:37Z</time></trkpt><trkpt lat="40.6435785346205" lon="14.651301824175254"><ele>75.33333333333334</ele><time>2026-04-26T13:21:38Z</time></trkpt><trkpt lat="40.64349909871408" lon="14.651316578569272"><ele>71.5</ele><time>2026-04-26T13:21:39Z</time></trkpt><trkpt lat="40.64343558961215" lon="14.651342930750445"><ele>67.66666666666667</ele><time>2026-04-26T13:21:40Z</time></trkpt><trkpt lat="40.643372840596214" lon="14.65137117874501"><ele>63.833333333333336</ele><time>2026-04-26T13:21:41Z</time></trkpt><trkpt lat="40.64328557988391" lon="14.651422287649858"><ele>60.0</ele><time>2026-04-26T13:21:43Z</time></trkpt><trkpt lat="40.64327421458421" lon="14.651506556743852"><ele>60.0</ele><time>2026-04-26T13:21:44Z</time></trkpt><trkpt lat="40.64329507527627" lon="14.651588941353465"><ele>60.0</ele><time>2026-04-26T13:21:45Z</time></trkpt><trkpt lat="40.64332134254015" lon="14.651676713122693"><ele>60.0</ele><time>2026-04-26T13:21:46Z</time></trkpt><trkpt lat="40.64332008734844" lon="14.651798875758594"><ele>60.0</ele><time>2026-04-26T13:21:47Z</time></trkpt><trkpt lat="40.643328989360214" lon="14.651925753362931"><ele>60.0</ele><time>2026-04-26T13:21:48Z</time></trkpt><trkpt lat="40.64330796452973" lon="14.652037276714015"><ele>60.0</ele><time>2026-04-26T13:21:49Z</time></trkpt><trkpt lat="40.64326969669676" lon="14.652139614640193"><ele>64.2</ele><time>2026-04-26T13:21:50Z</time></trkpt><trkpt lat="40.64320317092466" lon="14.652211423748572"><ele>68.4</ele><time>2026-04-26T13:21:51Z</time></trkpt><trkpt lat="40.64312557866818" lon="14.65229843167931"><ele>72.6</ele><time>2026-04-26T13:21:52Z</time></trkpt><trkpt lat="40.64305724531236" lon="14.652397709941745"><ele>76.8</ele><time>2026-04-26T13:21:53Z</time></trkpt><trkpt lat="40.642997141210834" lon="14.652499690964195"><ele>81.0</ele><time>2026-04-26T13:21:54Z</time></trkpt><trkpt lat="40.64294152528483" lon="14.652618566138619"><ele>81.0</ele><time>2026-04-26T13:21:55Z</time></trkpt><trkpt lat="40.6428904965575" lon="14.652733819784887"><ele>81.0</ele><time>2026-04-26T13:21:56Z</time></trkpt><trkpt lat="40.642844270146014" lon="14.652837963928743"><ele>81.0</ele><time>2026-04-26T13:21:57Z</time></trkpt><trkpt lat="40.64280363297849" lon="14.652928318610634"><ele>81.0</ele><time>2026-04-26T13:21:58Z</time></trkpt><trkpt lat="40.64277633237047" lon="14.65300352069798"><ele>81.0</ele><time>2026-04-26T13:21:59Z</time></trkpt><trkpt lat="40.64274258206165" lon="14.653153169929803"><ele>81.33333333333333</ele><time>2026-04-26T13:22:01Z</time></trkpt><trkpt lat="40.64274694057911" lon="14.653241681775485"><ele>81.66666666666667</ele><time>2026-04-26T13:22:02Z</time></trkpt><trkpt lat="40.642806298605635" lon="14.653327427233041"><ele>82.0</ele><time>2026-04-26T13:22:03Z</time></trkpt><trkpt lat="40.64282716124071" lon="14.653428964892976"><ele>82.33333333333334</ele><time>2026-04-26T13:22:04Z</time></trkpt><trkpt lat="40.642866814737296" lon="14.653530515857776"><ele>82.66666666666667</ele><time>2026-04-26T13:22:05Z</time></trkpt><trkpt lat="40.642925109567585" lon="14.653619995794752"><ele>83.0</ele><time>2026-04-26T13:22:06Z</time></trkpt><trkpt lat="40.64298020348756" lon="14.653710794332062"><ele>83.0</ele><time>2026-04-26T13:22:07Z</time></trkpt><trkpt lat="40.64303717252141" lon="14.653785987386028"><ele>83.0</ele><time>2026-04-26T13:22:08Z</time></trkpt><trkpt lat="40.64309105469089" lon="14.653845003452268"><ele>83.0</ele><time>2026-04-26T13:22:09Z</time></trkpt><trkpt lat="40.64316264314295" lon="14.653964767549484"><ele>83.0</ele><time>2026-04-26T13:22:11Z</time></trkpt><trkpt lat="40.643180267480005" lon="14.654053165942756"><ele>83.0</ele><time>2026-04-26T13:22:12Z</time></trkpt><trkpt lat="40.64317644448017" lon="14.654154984227501"><ele>83.0</ele><time>2026-04-26T13:22:13Z</time></trkpt><trkpt lat="40.64311864758719" lon="14.654239004791828"><ele>83.0</ele><time>2026-04-26T13:22:14Z</time></trkpt><trkpt lat="40.64308295373218" lon="14.654361373394883"><ele>83.0</ele><time>2026-04-26T13:22:15Z</time></trkpt><trkpt lat="40.6430542408868" lon="14.654488264482145"><ele>83.0</ele><time>2026-04-26T13:22:16Z</time></trkpt><trkpt lat="40.643026915979114" lon="14.654592351167787"><ele>83.0</ele><time>2026-04-26T13:22:17Z</time></trkpt><trkpt lat="40.642971535411256" lon="14.654714081965944"><ele>83.0</ele><time>2026-04-26T13:22:19Z</time></trkpt><trkpt lat="40.64293904286307" lon="14.654786698070762"><ele>85.4</ele><time>2026-04-26T13:22:20Z</time></trkpt><trkpt lat="40.6429091464039" lon="14.654950923807105"><ele>87.80000000000001</ele><time>2026-04-26T13:22:22.001Z</time></trkpt><trkpt lat="40.642925171186725" lon="14.655052746231622"><ele>90.2</ele><time>2026-04-26T13:22:23.001Z</time></trkpt><trkpt lat="40.64296889769315" lon="14.655149817483867"><ele>92.6</ele><time>2026-04-26T13:22:24.001Z</time></trkpt><trkpt lat="40.64300779195781" lon="14.655253092728044"><ele>95.0</ele><time>2026-04-26T13:22:25.001Z</time></trkpt><trkpt lat="40.64304103382707" lon="14.655347289997684"><ele>95.0</ele><time>2026-04-26T13:22:26.001Z</time></trkpt><trkpt lat="40.64306193398894" lon="14.655439790011263"><ele>95.0</ele><time>2026-04-26T13:22:27.001Z</time></trkpt><trkpt lat="40.64304775531357" lon="14.655529753646832"><ele>95.0</ele><time>2026-04-26T13:22:28.001Z</time></trkpt><trkpt lat="40.64303000263648" lon="14.65562554942767"><ele>95.0</ele><time>2026-04-26T13:22:29.001Z</time></trkpt><trkpt lat="40.64301087541885" lon="14.655740017138745"><ele>95.0</ele><time>2026-04-26T13:22:30.001Z</time></trkpt><trkpt lat="40.64300854061236" lon="14.655860193602363"><ele>95.0</ele><time>2026-04-26T13:22:31.001Z</time></trkpt><trkpt lat="40.643022437307586" lon="14.655970368784377"><ele>95.0</ele><time>2026-04-26T13:22:32.001Z</time></trkpt><trkpt lat="40.643027624279874" lon="14.656060378384815"><ele>95.0</ele><time>2026-04-26T13:22:33.001Z</time></trkpt><trkpt lat="40.64298330883029" lon="14.656161499076987"><ele>95.0</ele><time>2026-04-26T13:22:35.001Z</time></trkpt><trkpt lat="40.64288914903204" lon="14.656218041163456"><ele>95.0</ele><time>2026-04-26T13:22:37.001Z</time></trkpt><trkpt lat="40.64281942502227" lon="14.656247936546825"><ele>95.0</ele><time>2026-04-26T13:22:38.001Z</time></trkpt><trkpt lat="40.64275494132956" lon="14.656301202306159"><ele>95.0</ele><time>2026-04-26T13:22:39.001Z</time></trkpt><trkpt lat="40.64269543423724" lon="14.656371921866846"><ele>93.5</ele><time>2026-04-26T13:22:40.001Z</time></trkpt><trkpt lat="40.64265193418089" lon="14.65643774354993"><ele>92.0</ele><time>2026-04-26T13:22:41.001Z</time></trkpt><trkpt lat="40.64262025699458" lon="14.656588362736096"><ele>90.5</ele><time>2026-04-26T13:22:43.001Z</time></trkpt><trkpt lat="40.64266042559748" lon="14.656675786155441"><ele>89.0</ele><time>2026-04-26T13:22:44.001Z</time></trkpt><trkpt lat="40.6426275765494" lon="14.65680932617095"><ele>87.5</ele><time>2026-04-26T13:22:46.001Z</time></trkpt><trkpt lat="40.64258110888169" lon="14.656890871115582"><ele>86.0</ele><time>2026-04-26T13:22:47.001Z</time></trkpt><trkpt lat="40.64252733929294" lon="14.657007332237155"><ele>86.0</ele><time>2026-04-26T13:22:48.001Z</time></trkpt><trkpt lat="40.64247758409053" lon="14.657118553140231"><ele>86.0</ele><time>2026-04-26T13:22:49.001Z</time></trkpt><trkpt lat="40.642444395362865" lon="14.65722283893404"><ele>86.0</ele><time>2026-04-26T13:22:50.001Z</time></trkpt><trkpt lat="40.642425522133465" lon="14.657336974465288"><ele>86.0</ele><time>2026-04-26T13:22:51.001Z</time></trkpt><trkpt lat="40.64242832238345" lon="14.657437592852682"><ele>86.0</ele><time>2026-04-26T13:22:52.001Z</time></trkpt><trkpt lat="40.64242627047291" lon="14.657561259785338"><ele>86.0</ele><time>2026-04-26T13:22:53.001Z</time></trkpt><trkpt lat="40.64244030475784" lon="14.657678610607785"><ele>85.19999999999999</ele><time>2026-04-26T13:22:54.001Z</time></trkpt><trkpt lat="40.64246545855455" lon="14.657797035291173"><ele>84.39999999999999</ele><time>2026-04-26T13:22:55.001Z</time></trkpt><trkpt lat="40.64249412773487" lon="14.657912178396664"><ele>83.6</ele><time>2026-04-26T13:22:56.001Z</time></trkpt><trkpt lat="40.642536906878554" lon="14.65802113558508"><ele>82.8</ele><time>2026-04-26T13:22:57.001Z</time></trkpt><trkpt lat="40.6425900847554" lon="14.658120922180187"><ele>82.0</ele><time>2026-04-26T13:22:58.001Z</time></trkpt><trkpt lat="40.64266103752165" lon="14.658206345609564"><ele>82.0</ele><time>2026-04-26T13:22:59.001Z</time></trkpt><trkpt lat="40.6427205380401" lon="14.65829047751743"><ele>82.0</ele><time>2026-04-26T13:23:00.001Z</time></trkpt><trkpt lat="40.642773065069335" lon="14.658380209728216"><ele>82.0</ele><time>2026-04-26T13:23:01.001Z</time></trkpt><trkpt lat="40.64281829473726" lon="14.658468670773486"><ele>82.0</ele><time>2026-04-26T13:23:02.001Z</time></trkpt><trkpt lat="40.64284220072183" lon="14.65856131252029"><ele>82.0</ele><time>2026-04-26T13:23:03.001Z</time></trkpt><trkpt lat="40.642834523009604" lon="14.658670433348282"><ele>82.0</ele><time>2026-04-26T13:23:04.001Z</time></trkpt><trkpt lat="40.642823361299065" lon="14.658783637743959"><ele>88.16666666666666</ele><time>2026-04-26T13:23:05.001Z</time></trkpt><trkpt lat="40.64283166797682" lon="14.65889035605686"><ele>94.33333333333333</ele><time>2026-04-26T13:23:06.001Z</time></trkpt><trkpt lat="40.6428719055559" lon="14.65898915977896"><ele>100.5</ele><time>2026-04-26T13:23:07.001Z</time></trkpt><trkpt lat="40.64294207230993" lon="14.659069414047417"><ele>106.66666666666666</ele><time>2026-04-26T13:23:08.001Z</time></trkpt><trkpt lat="40.64300908201224" lon="14.659133170037306"><ele>112.83333333333333</ele><time>2026-04-26T13:23:09.001Z</time></trkpt><trkpt lat="40.6430806070382" lon="14.659176750658625"><ele>119.0</ele><time>2026-04-26T13:23:10.001Z</time></trkpt><trkpt lat="40.64314387716058" lon="14.659215823466202"><ele>119.0</ele><time>2026-04-26T13:23:11.001Z</time></trkpt><trkpt lat="40.64322477695552" lon="14.659308015519256"><ele>119.0</ele><time>2026-04-26T13:23:13Z</time></trkpt><trkpt lat="40.64319034976184" lon="14.659455936783235"><ele>119.0</ele><time>2026-04-26T13:23:15Z</time></trkpt><trkpt lat="40.6431618646613" lon="14.659530106119732"><ele>119.0</ele><time>2026-04-26T13:23:16Z</time></trkpt><trkpt lat="40.643074696176654" lon="14.659561518369088"><ele>119.0</ele><time>2026-04-26T13:23:17Z</time></trkpt><trkpt lat="40.64299057924622" lon="14.659569118680647"><ele>120.49999999999999</ele><time>2026-04-26T13:23:18Z</time></trkpt><trkpt lat="40.642908033149595" lon="14.659588892428648"><ele>122.0</ele><time>2026-04-26T13:23:19Z</time></trkpt><trkpt lat="40.64284638533336" lon="14.659647695750403"><ele>123.5</ele><time>2026-04-26T13:23:20Z</time></trkpt><trkpt lat="40.64279742453107" lon="14.659730877536898"><ele>125.0</ele><time>2026-04-26T13:23:21Z</time></trkpt><trkpt lat="40.642750012755776" lon="14.659837551771101"><ele>126.49999999999999</ele><time>2026-04-26T13:23:22Z</time></trkpt><trkpt lat="40.64268344183661" lon="14.659927171785686"><ele>128.0</ele><time>2026-04-26T13:23:23Z</time></trkpt><trkpt lat="40.64263605575043" lon="14.660028309803899"><ele>121.33333333333333</ele><time>2026-04-26T13:23:24Z</time></trkpt><trkpt lat="40.64259777619435" lon="14.66013412320699"><ele>114.66666666666666</ele><time>2026-04-26T13:23:25Z</time></trkpt><trkpt lat="40.64258995975212" lon="14.660244007822154"><ele>108.0</ele><time>2026-04-26T13:23:26Z</time></trkpt><trkpt lat="40.64256193726451" lon="14.660340064866686"><ele>101.33333333333333</ele><time>2026-04-26T13:23:27Z</time></trkpt><trkpt lat="40.6425569868677" lon="14.660431211715428"><ele>94.66666666666666</ele><time>2026-04-26T13:23:28Z</time></trkpt><trkpt lat="40.64257164285552" lon="14.660525050808056"><ele>88.0</ele><time>2026-04-26T13:23:29Z</time></trkpt><trkpt lat="40.64261710797724" lon="14.660597359924207"><ele>86.4</ele><time>2026-04-26T13:23:30Z</time></trkpt><trkpt lat="40.642696621694526" lon="14.660631791258497"><ele>84.80000000000001</ele><time>2026-04-26T13:23:31Z</time></trkpt><trkpt lat="40.64276368545146" lon="14.66064160927531"><ele>83.2</ele><time>2026-04-26T13:23:32Z</time></trkpt><trkpt lat="40.64284483891615" lon="14.660624961438552"><ele>81.6</ele><time>2026-04-26T13:23:34Z</time></trkpt><trkpt lat="40.642978125285495" lon="14.66060369745062"><ele>80.0</ele><time>2026-04-26T13:23:36Z</time></trkpt><trkpt lat="40.64305846793739" lon="14.66062766108814"><ele>90.4</ele><time>2026-04-26T13:23:37Z</time></trkpt><trkpt lat="40.64312680262462" lon="14.66065996570385"><ele>100.8</ele><time>2026-04-26T13:23:38Z</time></trkpt><trkpt lat="40.643173402529335" lon="14.660723956425826"><ele>111.19999999999999</ele><time>2026-04-26T13:23:39Z</time></trkpt><trkpt lat="40.64321548452684" lon="14.660791470241705"><ele>121.6</ele><time>2026-04-26T13:23:40Z</time></trkpt><trkpt lat="40.6432447860706" lon="14.66094272376998"><ele>132.0</ele><time>2026-04-26T13:23:42Z</time></trkpt><trkpt lat="40.64316379663261" lon="14.661081289594732"><ele>134.79999999999998</ele><time>2026-04-26T13:23:44Z</time></trkpt><trkpt lat="40.64308351843046" lon="14.66122164681044"><ele>137.6</ele><time>2026-04-26T13:23:45Z</time></trkpt><trkpt lat="40.64302371207088" lon="14.661330575610418"><ele>140.39999999999998</ele><time>2026-04-26T13:23:46Z</time></trkpt><trkpt lat="40.64296800195433" lon="14.661432043631693"><ele>143.2</ele><time>2026-04-26T13:23:47Z</time></trkpt><trkpt lat="40.642919086408455" lon="14.661537965416757"><ele>146.0</ele><time>2026-04-26T13:23:48Z</time></trkpt><trkpt lat="40.6428626440916" lon="14.661632150399374"><ele>141.83333333333331</ele><time>2026-04-26T13:23:49Z</time></trkpt><trkpt lat="40.642797269778875" lon="14.661716787649492"><ele>137.66666666666666</ele><time>2026-04-26T13:23:50Z</time></trkpt><trkpt lat="40.64271134998973" lon="14.66175111186234"><ele>133.5</ele><time>2026-04-26T13:23:51Z</time></trkpt><trkpt lat="40.642634252686044" lon="14.66180396319678"><ele>129.33333333333334</ele><time>2026-04-26T13:23:52Z</time></trkpt><trkpt lat="40.64256210340495" lon="14.661855862380147"><ele>125.16666666666667</ele><time>2026-04-26T13:23:53Z</time></trkpt><trkpt lat="40.64250627398491" lon="14.661925677945082"><ele>121.0</ele><time>2026-04-26T13:23:54Z</time></trkpt><trkpt lat="40.642445060602945" lon="14.661990414473694"><ele>121.00000000000001</ele><time>2026-04-26T13:23:55Z</time></trkpt><trkpt lat="40.64240305075016" lon="14.66209060146013"><ele>121.0</ele><time>2026-04-26T13:23:56Z</time></trkpt><trkpt lat="40.64240233912731" lon="14.662210252689126"><ele>121.0</ele><time>2026-04-26T13:23:57Z</time></trkpt><trkpt lat="40.642435707780535" lon="14.662325190472268"><ele>121.0</ele><time>2026-04-26T13:23:58Z</time></trkpt><trkpt lat="40.6424599779699" lon="14.662437636926526"><ele>121.00000000000001</ele><time>2026-04-26T13:23:59Z</time></trkpt><trkpt lat="40.64245172126217" lon="14.662546978683753"><ele>121.0</ele><time>2026-04-26T13:24:00Z</time></trkpt><trkpt lat="40.64244230044633" lon="14.662671189514517"><ele>130.83333333333334</ele><time>2026-04-26T13:24:01Z</time></trkpt><trkpt lat="40.64241028725807" lon="14.662781463095483"><ele>140.66666666666669</ele><time>2026-04-26T13:24:02Z</time></trkpt><trkpt lat="40.642386341879224" lon="14.66291434710858"><ele>150.5</ele><time>2026-04-26T13:24:03Z</time></trkpt><trkpt lat="40.64235746261082" lon="14.663019557423436"><ele>160.33333333333334</ele><time>2026-04-26T13:24:04Z</time></trkpt><trkpt lat="40.64231062284192" lon="14.663098370799393"><ele>170.16666666666666</ele><time>2026-04-26T13:24:05Z</time></trkpt><trkpt lat="40.64225899677829" lon="14.663179862100566"><ele>180.0</ele><time>2026-04-26T13:24:06Z</time></trkpt><trkpt lat="40.64220913293119" lon="14.663253332304736"><ele>180.0</ele><time>2026-04-26T13:24:07Z</time></trkpt><trkpt lat="40.64211937384747" lon="14.663348518182795"><ele>180.0</ele><time>2026-04-26T13:24:09Z</time></trkpt><trkpt lat="40.642018754094686" lon="14.66340690800562"><ele>180.0</ele><time>2026-04-26T13:24:11Z</time></trkpt><trkpt lat="40.641906134863" lon="14.663460349706149"><ele>180.0</ele><time>2026-04-26T13:24:13Z</time></trkpt><trkpt lat="40.6418057230237" lon="14.663524297189925"><ele>177.14285714285714</ele><time>2026-04-26T13:24:15Z</time></trkpt><trkpt lat="40.641757872896" lon="14.663584101818161"><ele>174.2857142857143</ele><time>2026-04-26T13:24:16.001Z</time></trkpt><trkpt lat="40.6417259501699" lon="14.663663568590485"><ele>171.42857142857144</ele><time>2026-04-26T13:24:17.001Z</time></trkpt><trkpt lat="40.64169581985868" lon="14.663766010825094"><ele>168.57142857142856</ele><time>2026-04-26T13:24:18.001Z</time></trkpt><trkpt lat="40.64166758868606" lon="14.66385847724722"><ele>165.71428571428572</ele><time>2026-04-26T13:24:19.001Z</time></trkpt><trkpt lat="40.64164941802625" lon="14.66395507409078"><ele>162.85714285714286</ele><time>2026-04-26T13:24:20.001Z</time></trkpt><trkpt lat="40.641599143941626" lon="14.66402073436007"><ele>160.0</ele><time>2026-04-26T13:24:21.001Z</time></trkpt><trkpt lat="40.641528959729776" lon="14.664059922200222"><ele>160.0</ele><time>2026-04-26T13:24:22.001Z</time></trkpt><trkpt lat="40.64144524944456" lon="14.664069133901743"><ele>160.0</ele><time>2026-04-26T13:24:23.001Z</time></trkpt><trkpt lat="40.64137029644762" lon="14.66407528199127"><ele>160.0</ele><time>2026-04-26T13:24:24.001Z</time></trkpt><trkpt lat="40.64126170359779" lon="14.664039687878224"><ele>160.0</ele><time>2026-04-26T13:24:26.001Z</time></trkpt><trkpt lat="40.6411358114297" lon="14.663857022571294"><ele>156.8</ele><time>2026-04-26T13:24:28.001Z</time></trkpt><trkpt lat="40.64105634236207" lon="14.663767204804598"><ele>153.6</ele><time>2026-04-26T13:24:29.001Z</time></trkpt><trkpt lat="40.64097962726369" lon="14.663683680590506"><ele>150.4</ele><time>2026-04-26T13:24:30.001Z</time></trkpt><trkpt lat="40.64089485490827" lon="14.663621702639244"><ele>147.2</ele><time>2026-04-26T13:24:31.001Z</time></trkpt><trkpt lat="40.640811613404004" lon="14.663600321492202"><ele>144.0</ele><time>2026-04-26T13:24:32.001Z</time></trkpt><trkpt lat="40.64073763685015" lon="14.663578134560206"><ele>144.0</ele><time>2026-04-26T13:24:33.001Z</time></trkpt><trkpt lat="40.64063870634176" lon="14.663572829218042"><ele>144.0</ele><time>2026-04-26T13:24:34.001Z</time></trkpt><trkpt lat="40.640551787934626" lon="14.663592855256121"><ele>144.0</ele><time>2026-04-26T13:24:35.001Z</time></trkpt><trkpt lat="40.640481156462705" lon="14.663640177779564"><ele>144.0</ele><time>2026-04-26T13:24:36.001Z</time></trkpt><trkpt lat="40.64041684406277" lon="14.663704370118966"><ele>144.0</ele><time>2026-04-26T13:24:37.001Z</time></trkpt><trkpt lat="40.640363386408055" lon="14.663801840760573"><ele>144.0</ele><time>2026-04-26T13:24:38.001Z</time></trkpt><trkpt lat="40.6403278649953" lon="14.663905749827693"><ele>144.0</ele><time>2026-04-26T13:24:39.001Z</time></trkpt><trkpt lat="40.64031707811324" lon="14.664015235197972"><ele>144.0</ele><time>2026-04-26T13:24:40.001Z</time></trkpt><trkpt lat="40.64033353008432" lon="14.664138766463278"><ele>144.0</ele><time>2026-04-26T13:24:41.001Z</time></trkpt><trkpt lat="40.64035289988329" lon="14.664263545535574"><ele>144.0</ele><time>2026-04-26T13:24:42.001Z</time></trkpt><trkpt lat="40.640364784322074" lon="14.664393742658598"><ele>144.0</ele><time>2026-04-26T13:24:43.001Z</time></trkpt><trkpt lat="40.64036794288252" lon="14.664537088732427"><ele>145.6</ele><time>2026-04-26T13:24:44.001Z</time></trkpt><trkpt lat="40.64035409457358" lon="14.664683549598177"><ele>147.2</ele><time>2026-04-26T13:24:45.001Z</time></trkpt><trkpt lat="40.640327425816515" lon="14.664828381598678"><ele>148.79999999999998</ele><time>2026-04-26T13:24:46.001Z</time></trkpt><trkpt lat="40.64030481193085" lon="14.66497012606781"><ele>150.4</ele><time>2026-04-26T13:24:47.001Z</time></trkpt><trkpt lat="40.640289106032476" lon="14.665104873140738"><ele>152.0</ele><time>2026-04-26T13:24:48.001Z</time></trkpt><trkpt lat="40.64027473334212" lon="14.665227712078854"><ele>148.5</ele><time>2026-04-26T13:24:49.001Z</time></trkpt><trkpt lat="40.640266080591026" lon="14.665347774002866"><ele>145.0</ele><time>2026-04-26T13:24:50.001Z</time></trkpt><trkpt lat="40.640266207047105" lon="14.66546458180527"><ele>141.5</ele><time>2026-04-26T13:24:51.001Z</time></trkpt><trkpt lat="40.64027954108402" lon="14.665578020890926"><ele>138.0</ele><time>2026-04-26T13:24:52.001Z</time></trkpt><trkpt lat="40.64029131847881" lon="14.665675630458452"><ele>134.5</ele><time>2026-04-26T13:24:53.001Z</time></trkpt><trkpt lat="40.64031489154016" lon="14.665777641509575"><ele>131.0</ele><time>2026-04-26T13:24:54.001Z</time></trkpt><trkpt lat="40.640355919199365" lon="14.665858898168544"><ele>131.0</ele><time>2026-04-26T13:24:55.001Z</time></trkpt><trkpt lat="40.64044092622982" lon="14.665879931650736"><ele>131.0</ele><time>2026-04-26T13:24:56.001Z</time></trkpt><trkpt lat="40.640532728350074" lon="14.665869489471815"><ele>131.0</ele><time>2026-04-26T13:24:57.001Z</time></trkpt><trkpt lat="40.64062035755821" lon="14.665849338718672"><ele>131.0</ele><time>2026-04-26T13:24:58.001Z</time></trkpt><trkpt lat="40.64070247423876" lon="14.665848035668729"><ele>131.0</ele><time>2026-04-26T13:24:59.001Z</time></trkpt><trkpt lat="40.64077550224922" lon="14.66584299614429"><ele>131.0</ele><time>2026-04-26T13:25:00.001Z</time></trkpt><trkpt lat="40.64083950764797" lon="14.665835160351902"><ele>131.0</ele><time>2026-04-26T13:25:01.001Z</time></trkpt><trkpt lat="40.64089981361913" lon="14.665783930535273"><ele>131.0</ele><time>2026-04-26T13:25:02.001Z</time></trkpt><trkpt lat="40.64094750262811" lon="14.665701500204621"><ele>131.0</ele><time>2026-04-26T13:25:03.001Z</time></trkpt><trkpt lat="40.641000372781654" lon="14.665636812966225"><ele>131.0</ele><time>2026-04-26T13:25:04.001Z</time></trkpt><trkpt lat="40.64106961235893" lon="14.665606667577775"><ele>131.0</ele><time>2026-04-26T13:25:05.001Z</time></trkpt><trkpt lat="40.641146059559375" lon="14.665610395330825"><ele>131.0</ele><time>2026-04-26T13:25:06.001Z</time></trkpt><trkpt lat="40.64122962182299" lon="14.665648412024561"><ele>130.2</ele><time>2026-04-26T13:25:07.001Z</time></trkpt><trkpt lat="40.64131384949793" lon="14.665717747609404"><ele>129.39999999999998</ele><time>2026-04-26T13:25:08.001Z</time></trkpt><trkpt lat="40.641400987544436" lon="14.665799215763478"><ele>128.6</ele><time>2026-04-26T13:25:09.001Z</time></trkpt><trkpt lat="40.641478776195044" lon="14.665900384160135"><ele>127.8</ele><time>2026-04-26T13:25:10.001Z</time></trkpt><trkpt lat="40.64155292613877" lon="14.666029687463233"><ele>127.0</ele><time>2026-04-26T13:25:11.001Z</time></trkpt><trkpt lat="40.64162892681279" lon="14.666160063863929"><ele>127.0</ele><time>2026-04-26T13:25:12.001Z</time></trkpt><trkpt lat="40.641720911692985" lon="14.666289802531042"><ele>127.0</ele><time>2026-04-26T13:25:13.001Z</time></trkpt><trkpt lat="40.64180936554109" lon="14.666412641711236"><ele>127.0</ele><time>2026-04-26T13:25:14.001Z</time></trkpt><trkpt lat="40.64188765472808" lon="14.666533011452783"><ele>127.0</ele><time>2026-04-26T13:25:15.001Z</time></trkpt><trkpt lat="40.64195752615398" lon="14.666643357971763"><ele>133.6</ele><time>2026-04-26T13:25:16.001Z</time></trkpt><trkpt lat="40.64202445427005" lon="14.666744937471547"><ele>140.2</ele><time>2026-04-26T13:25:17.001Z</time></trkpt><trkpt lat="40.64208333970788" lon="14.666845405150587"><ele>146.8</ele><time>2026-04-26T13:25:18.001Z</time></trkpt><trkpt lat="40.64212822290582" lon="14.666962950115822"><ele>153.4</ele><time>2026-04-26T13:25:19Z</time></trkpt><trkpt lat="40.64211693210845" lon="14.667112841715996"><ele>160.0</ele><time>2026-04-26T13:25:20Z</time></trkpt><trkpt lat="40.64209349482428" lon="14.66725889893531"><ele>160.0</ele><time>2026-04-26T13:25:21Z</time></trkpt><trkpt lat="40.64206102096275" lon="14.667410730082034"><ele>160.0</ele><time>2026-04-26T13:25:22Z</time></trkpt><trkpt lat="40.64202945297037" lon="14.667571930369604"><ele>160.0</ele><time>2026-04-26T13:25:23Z</time></trkpt><trkpt lat="40.64199501286814" lon="14.66771624458883"><ele>160.0</ele><time>2026-04-26T13:25:24Z</time></trkpt><trkpt lat="40.641967342426156" lon="14.667846270988704"><ele>160.5</ele><time>2026-04-26T13:25:25Z</time></trkpt><trkpt lat="40.64194115536594" lon="14.66796102211043"><ele>161.0</ele><time>2026-04-26T13:25:26Z</time></trkpt><trkpt lat="40.64191606461543" lon="14.668060196592302"><ele>161.5</ele><time>2026-04-26T13:25:27Z</time></trkpt><trkpt lat="40.64188163703673" lon="14.668141339055211"><ele>162.0</ele><time>2026-04-26T13:25:28Z</time></trkpt><trkpt lat="40.64182489439791" lon="14.668178581530709"><ele>162.5</ele><time>2026-04-26T13:25:29Z</time></trkpt><trkpt lat="40.64174245969481" lon="14.66816640218317"><ele>163.0</ele><time>2026-04-26T13:25:30Z</time></trkpt><trkpt lat="40.641650157096166" lon="14.668106974780748"><ele>163.0</ele><time>2026-04-26T13:25:31Z</time></trkpt><trkpt lat="40.64155604338253" lon="14.668012122247593"><ele>163.0</ele><time>2026-04-26T13:25:32Z</time></trkpt><trkpt lat="40.641471373439494" lon="14.667899194302"><ele>163.0</ele><time>2026-04-26T13:25:33Z</time></trkpt><trkpt lat="40.641401652409364" lon="14.667768361212138"><ele>163.0</ele><time>2026-04-26T13:25:34Z</time></trkpt><trkpt lat="40.64133874353597" lon="14.667661350338504"><ele>158.0</ele><time>2026-04-26T13:25:35Z</time></trkpt><trkpt lat="40.641275618077884" lon="14.667585150681598"><ele>153.0</ele><time>2026-04-26T13:25:36Z</time></trkpt><trkpt lat="40.64120430539059" lon="14.667479927875284"><ele>148.0</ele><time>2026-04-26T13:25:38Z</time></trkpt><trkpt lat="40.64115148073717" lon="14.667420060798863"><ele>143.0</ele><time>2026-04-26T13:25:40Z</time></trkpt><trkpt lat="40.64103928042873" lon="14.667413470514186"><ele>138.0</ele><time>2026-04-26T13:25:42Z</time></trkpt><trkpt lat="40.64096815507958" lon="14.667429193884125"><ele>133.0</ele><time>2026-04-26T13:25:43Z</time></trkpt><trkpt lat="40.640897875767" lon="14.667454190179768"><ele>133.0</ele><time>2026-04-26T13:25:44Z</time></trkpt><trkpt lat="40.64083149799377" lon="14.667494826289225"><ele>133.0</ele><time>2026-04-26T13:25:45Z</time></trkpt><trkpt lat="40.64076897945459" lon="14.66755120626794"><ele>133.0</ele><time>2026-04-26T13:25:46Z</time></trkpt><trkpt lat="40.64070760762823" lon="14.667612896980835"><ele>133.0</ele><time>2026-04-26T13:25:47Z</time></trkpt><trkpt lat="40.64063754042235" lon="14.667670182947619"><ele>133.0</ele><time>2026-04-26T13:25:48Z</time></trkpt><trkpt lat="40.640553309278594" lon="14.66772213052622"><ele>133.0</ele><time>2026-04-26T13:25:49Z</time></trkpt><trkpt lat="40.64046154405689" lon="14.667754999313344"><ele>137.6</ele><time>2026-04-26T13:25:50Z</time></trkpt><trkpt lat="40.64037105802271" lon="14.66777762772149"><ele>142.20000000000002</ele><time>2026-04-26T13:25:51Z</time></trkpt><trkpt lat="40.64027977266632" lon="14.667815225605196"><ele>146.8</ele><time>2026-04-26T13:25:52Z</time></trkpt><trkpt lat="40.6401918771414" lon="14.667855235712958"><ele>151.4</ele><time>2026-04-26T13:25:53Z</time></trkpt><trkpt lat="40.64012631065211" lon="14.66791914112021"><ele>156.0</ele><time>2026-04-26T13:25:54Z</time></trkpt><trkpt lat="40.64006335931875" lon="14.66802666800116"><ele>156.0</ele><time>2026-04-26T13:25:55Z</time></trkpt><trkpt lat="40.640008531683975" lon="14.668140631712635"><ele>156.0</ele><time>2026-04-26T13:25:56Z</time></trkpt><trkpt lat="40.63994009970267" lon="14.668234719515896"><ele>156.0</ele><time>2026-04-26T13:25:57Z</time></trkpt><trkpt lat="40.63986447493665" lon="14.668313650685555"><ele>156.0</ele><time>2026-04-26T13:25:58Z</time></trkpt><trkpt lat="40.63977515602394" lon="14.668377556590709"><ele>156.0</ele><time>2026-04-26T13:25:59Z</time></trkpt><trkpt lat="40.63966962348282" lon="14.668421440811677"><ele>156.0</ele><time>2026-04-26T13:26:00Z</time></trkpt><trkpt lat="40.63954824172322" lon="14.668443768268208"><ele>156.0</ele><time>2026-04-26T13:26:01Z</time></trkpt><trkpt lat="40.63942532977723" lon="14.668450090148854"><ele>156.0</ele><time>2026-04-26T13:26:02Z</time></trkpt><trkpt lat="40.639306684377225" lon="14.668459192103354"><ele>156.0</ele><time>2026-04-26T13:26:03Z</time></trkpt><trkpt lat="40.63919752358392" lon="14.668483554949212"><ele>155.6</ele><time>2026-04-26T13:26:04Z</time></trkpt><trkpt lat="40.639102064895475" lon="14.668519786019008"><ele>155.2</ele><time>2026-04-26T13:26:05Z</time></trkpt><trkpt lat="40.63901253977974" lon="14.668582445371056"><ele>154.8</ele><time>2026-04-26T13:26:06Z</time></trkpt><trkpt lat="40.63893173923072" lon="14.668666950028241"><ele>154.4</ele><time>2026-04-26T13:26:07Z</time></trkpt><trkpt lat="40.63888041135395" lon="14.668804655005836"><ele>154.0</ele><time>2026-04-26T13:26:08Z</time></trkpt><trkpt lat="40.63884617600751" lon="14.668968125441493"><ele>154.0</ele><time>2026-04-26T13:26:09Z</time></trkpt><trkpt lat="40.63882468116772" lon="14.669122437544393"><ele>154.0</ele><time>2026-04-26T13:26:10Z</time></trkpt><trkpt lat="40.63878758714318" lon="14.669251751646458"><ele>154.0</ele><time>2026-04-26T13:26:11Z</time></trkpt><trkpt lat="40.638785511271685" lon="14.66939056112872"><ele>154.0</ele><time>2026-04-26T13:26:12Z</time></trkpt><trkpt lat="40.63883262238457" lon="14.669550047987423"><ele>154.0</ele><time>2026-04-26T13:26:13Z</time></trkpt><trkpt lat="40.63884420429157" lon="14.669681493627749"><ele>154.0</ele><time>2026-04-26T13:26:14Z</time></trkpt><trkpt lat="40.63887244789328" lon="14.669804041916436"><ele>154.0</ele><time>2026-04-26T13:26:15Z</time></trkpt><trkpt lat="40.63890625518424" lon="14.669904196432379"><ele>154.0</ele><time>2026-04-26T13:26:16Z</time></trkpt><trkpt lat="40.63894839551608" lon="14.669995078836342"><ele>154.0</ele><time>2026-04-26T13:26:17Z</time></trkpt><trkpt lat="40.63900474517902" lon="14.670083922009375"><ele>154.0</ele><time>2026-04-26T13:26:18Z</time></trkpt><trkpt lat="40.63907845054418" lon="14.670167445165598"><ele>154.0</ele><time>2026-04-26T13:26:19Z</time></trkpt><trkpt lat="40.639149072790744" lon="14.670246763451637"><ele>154.0</ele><time>2026-04-26T13:26:20Z</time></trkpt><trkpt lat="40.639208410418206" lon="14.670341776973874"><ele>154.0</ele><time>2026-04-26T13:26:21Z</time></trkpt><trkpt lat="40.639241918033065" lon="14.670436228364498"><ele>154.0</ele><time>2026-04-26T13:26:22Z</time></trkpt><trkpt lat="40.63923853732064" lon="14.670553839275748"><ele>154.0</ele><time>2026-04-26T13:26:23Z</time></trkpt><trkpt lat="40.63921478284619" lon="14.670698215322986"><ele>154.0</ele><time>2026-04-26T13:26:24Z</time></trkpt><trkpt lat="40.639188181471965" lon="14.670851547665382"><ele>154.0</ele><time>2026-04-26T13:26:25Z</time></trkpt><trkpt lat="40.639152313141814" lon="14.670997903549297"><ele>154.0</ele><time>2026-04-26T13:26:26.001Z</time></trkpt><trkpt lat="40.63911523734904" lon="14.671154441805859"><ele>154.0</ele><time>2026-04-26T13:26:27.001Z</time></trkpt><trkpt lat="40.639091892906784" lon="14.671285895167506"><ele>156.66666666666669</ele><time>2026-04-26T13:26:28.001Z</time></trkpt><trkpt lat="40.63907127254586" lon="14.671407942258847"><ele>159.33333333333334</ele><time>2026-04-26T13:26:29.001Z</time></trkpt><trkpt lat="40.6390576668692" lon="14.671523545130496"><ele>162.0</ele><time>2026-04-26T13:26:30.001Z</time></trkpt><trkpt lat="40.63905212972565" lon="14.671631426570052"><ele>164.66666666666666</ele><time>2026-04-26T13:26:31.001Z</time></trkpt><trkpt lat="40.63905777830607" lon="14.671736733233704"><ele>167.33333333333331</ele><time>2026-04-26T13:26:32.001Z</time></trkpt><trkpt lat="40.63906026480627" lon="14.67182516362645"><ele>170.0</ele><time>2026-04-26T13:26:33.001Z</time></trkpt><trkpt lat="40.63905301408779" lon="14.671916671838165"><ele>173.8</ele><time>2026-04-26T13:26:34.001Z</time></trkpt><trkpt lat="40.638956031500385" lon="14.672018474330295"><ele>177.6</ele><time>2026-04-26T13:26:36.001Z</time></trkpt><trkpt lat="40.638869146661314" lon="14.672008817380389"><ele>181.39999999999998</ele><time>2026-04-26T13:26:37.001Z</time></trkpt><trkpt lat="40.63877439794764" lon="14.672001811788263"><ele>185.2</ele><time>2026-04-26T13:26:38.001Z</time></trkpt><trkpt lat="40.638690526182565" lon="14.671987357789948"><ele>189.0</ele><time>2026-04-26T13:26:39.001Z</time></trkpt><trkpt lat="40.63862563919827" lon="14.671991809505704"><ele>181.5</ele><time>2026-04-26T13:26:40.001Z</time></trkpt><trkpt lat="40.63850551730875" lon="14.672032586627218"><ele>174.0</ele><time>2026-04-26T13:26:42.001Z</time></trkpt><trkpt lat="40.63845094123076" lon="14.672085821036895"><ele>166.5</ele><time>2026-04-26T13:26:43.001Z</time></trkpt><trkpt lat="40.638419026237614" lon="14.672165256612153"><ele>159.0</ele><time>2026-04-26T13:26:44.001Z</time></trkpt><trkpt lat="40.63841204388616" lon="14.672268982377911"><ele>151.5</ele><time>2026-04-26T13:26:45.001Z</time></trkpt><trkpt lat="40.63841020048583" lon="14.67239599081224"><ele>144.0</ele><time>2026-04-26T13:26:46.001Z</time></trkpt><trkpt lat="40.63841758366529" lon="14.672546246720541"><ele>144.0</ele><time>2026-04-26T13:26:47.001Z</time></trkpt><trkpt lat="40.63842693719839" lon="14.672699123022408"><ele>144.0</ele><time>2026-04-26T13:26:48.001Z</time></trkpt><trkpt lat="40.63844614376164" lon="14.672848795872124"><ele>144.0</ele><time>2026-04-26T13:26:49.001Z</time></trkpt><trkpt lat="40.63844561067094" lon="14.67297762068039"><ele>144.0</ele><time>2026-04-26T13:26:50.001Z</time></trkpt><trkpt lat="40.63844563465043" lon="14.673090365370136"><ele>144.0</ele><time>2026-04-26T13:26:51.001Z</time></trkpt><trkpt lat="40.638447126720834" lon="14.673196851806459"><ele>147.0</ele><time>2026-04-26T13:26:52.001Z</time></trkpt><trkpt lat="40.63844814603672" lon="14.673300369321206"><ele>150.0</ele><time>2026-04-26T13:26:53.001Z</time></trkpt><trkpt lat="40.63844441212884" lon="14.67340608946306"><ele>153.0</ele><time>2026-04-26T13:26:54.001Z</time></trkpt><trkpt lat="40.638425887951605" lon="14.673503867539567"><ele>156.0</ele><time>2026-04-26T13:26:55.001Z</time></trkpt><trkpt lat="40.63838440571677" lon="14.673576963402388"><ele>159.0</ele><time>2026-04-26T13:26:56.001Z</time></trkpt><trkpt lat="40.6383206095455" lon="14.673614988207149"><ele>162.0</ele><time>2026-04-26T13:26:57.001Z</time></trkpt><trkpt lat="40.638240430479165" lon="14.673614110337173"><ele>162.0</ele><time>2026-04-26T13:26:58.001Z</time></trkpt><trkpt lat="40.63814549539191" lon="14.673598997867664"><ele>162.0</ele><time>2026-04-26T13:26:59.001Z</time></trkpt><trkpt lat="40.63804406414863" lon="14.673593948557594"><ele>162.0</ele><time>2026-04-26T13:27:00.001Z</time></trkpt><trkpt lat="40.637942350114905" lon="14.673589325901276"><ele>162.0</ele><time>2026-04-26T13:27:01.001Z</time></trkpt><trkpt lat="40.637846611581566" lon="14.673607133271075"><ele>162.0</ele><time>2026-04-26T13:27:02.001Z</time></trkpt><trkpt lat="40.63775668193383" lon="14.673661806201656"><ele>164.2</ele><time>2026-04-26T13:27:03.001Z</time></trkpt><trkpt lat="40.637675453813124" lon="14.673733796359503"><ele>166.39999999999998</ele><time>2026-04-26T13:27:04.001Z</time></trkpt><trkpt lat="40.63759290980626" lon="14.673797880186694"><ele>168.60000000000002</ele><time>2026-04-26T13:27:05.001Z</time></trkpt><trkpt lat="40.63750481866218" lon="14.673835768309269"><ele>170.8</ele><time>2026-04-26T13:27:06.001Z</time></trkpt><trkpt lat="40.63741510502807" lon="14.673854814109735"><ele>173.0</ele><time>2026-04-26T13:27:07.001Z</time></trkpt><trkpt lat="40.63733278966711" lon="14.673875969091355"><ele>173.0</ele><time>2026-04-26T13:27:08.001Z</time></trkpt><trkpt lat="40.63726308776164" lon="14.673886671170123"><ele>173.0</ele><time>2026-04-26T13:27:09.001Z</time></trkpt><trkpt lat="40.63720146751943" lon="14.673909970270213"><ele>173.0</ele><time>2026-04-26T13:27:10.001Z</time></trkpt><trkpt lat="40.63715146593544" lon="14.673965326015036"><ele>173.0</ele><time>2026-04-26T13:27:11.001Z</time></trkpt><trkpt lat="40.637119002222" lon="14.674056208998582"><ele>173.0</ele><time>2026-04-26T13:27:12.001Z</time></trkpt><trkpt lat="40.63711717573186" lon="14.674162683748285"><ele>173.0</ele><time>2026-04-26T13:27:13.001Z</time></trkpt><trkpt lat="40.637107243027216" lon="14.674272659429056"><ele>173.0</ele><time>2026-04-26T13:27:14.001Z</time></trkpt><trkpt lat="40.637110047978325" lon="14.67438826779943"><ele>175.60000000000002</ele><time>2026-04-26T13:27:15.001Z</time></trkpt><trkpt lat="40.63711638495495" lon="14.674502235115307"><ele>178.20000000000002</ele><time>2026-04-26T13:27:16.001Z</time></trkpt><trkpt lat="40.6371598642569" lon="14.674610721036851"><ele>180.8</ele><time>2026-04-26T13:27:17.001Z</time></trkpt><trkpt lat="40.637199868906066" lon="14.674711073104906"><ele>183.4</ele><time>2026-04-26T13:27:18.001Z</time></trkpt><trkpt lat="40.63722743878057" lon="14.674827215177883"><ele>186.0</ele><time>2026-04-26T13:27:19.001Z</time></trkpt><trkpt lat="40.6372748060648" lon="14.674932227110517"><ele>186.0</ele><time>2026-04-26T13:27:20.001Z</time></trkpt><trkpt lat="40.63727328872691" lon="14.675065255016"><ele>186.0</ele><time>2026-04-26T13:27:21.001Z</time></trkpt><trkpt lat="40.6372891212678" lon="14.67520062874158"><ele>186.0</ele><time>2026-04-26T13:27:22.001Z</time></trkpt><trkpt lat="40.637291099708285" lon="14.675350199540766"><ele>186.0</ele><time>2026-04-26T13:27:23.001Z</time></trkpt><trkpt lat="40.637298123187186" lon="14.67550531626722"><ele>186.0</ele><time>2026-04-26T13:27:24.001Z</time></trkpt><trkpt lat="40.63728741845301" lon="14.675660769942528"><ele>185.4</ele><time>2026-04-26T13:27:25Z</time></trkpt><trkpt lat="40.63731411461223" lon="14.67579867402737"><ele>184.8</ele><time>2026-04-26T13:27:26Z</time></trkpt><trkpt lat="40.6373211714802" lon="14.67593364757708"><ele>184.20000000000002</ele><time>2026-04-26T13:27:27Z</time></trkpt><trkpt lat="40.63732098065022" lon="14.676073887263332"><ele>183.60000000000002</ele><time>2026-04-26T13:27:28Z</time></trkpt><trkpt lat="40.63731353250811" lon="14.676212789812443"><ele>183.0</ele><time>2026-04-26T13:27:29Z</time></trkpt><trkpt lat="40.63730797840749" lon="14.6763508629867"><ele>183.0</ele><time>2026-04-26T13:27:30Z</time></trkpt><trkpt lat="40.63730696766763" lon="14.676479604394066"><ele>183.0</ele><time>2026-04-26T13:27:31Z</time></trkpt><trkpt lat="40.63730945941373" lon="14.676594914723575"><ele>183.0</ele><time>2026-04-26T13:27:32Z</time></trkpt><trkpt lat="40.63731136849102" lon="14.676703522061299"><ele>183.0</ele><time>2026-04-26T13:27:33Z</time></trkpt><trkpt lat="40.637288894581154" lon="14.676801193850558"><ele>183.0</ele><time>2026-04-26T13:27:34Z</time></trkpt><trkpt lat="40.63722819802159" lon="14.676883299946054"><ele>183.0</ele><time>2026-04-26T13:27:35Z</time></trkpt><trkpt lat="40.63715485083715" lon="14.676959490074822"><ele>187.8</ele><time>2026-04-26T13:27:36Z</time></trkpt><trkpt lat="40.63707626728492" lon="14.677047005359892"><ele>192.60000000000002</ele><time>2026-04-26T13:27:37Z</time></trkpt><trkpt lat="40.637000663539595" lon="14.677155600488167"><ele>197.39999999999998</ele><time>2026-04-26T13:27:38Z</time></trkpt><trkpt lat="40.6369350212025" lon="14.677268963425458"><ele>202.2</ele><time>2026-04-26T13:27:39Z</time></trkpt><trkpt lat="40.63687492988966" lon="14.677388327720918"><ele>207.0</ele><time>2026-04-26T13:27:40Z</time></trkpt><trkpt lat="40.636820866118455" lon="14.677510342716676"><ele>200.8</ele><time>2026-04-26T13:27:41Z</time></trkpt><trkpt lat="40.6367734143073" lon="14.677631515233843"><ele>194.6</ele><time>2026-04-26T13:27:42Z</time></trkpt><trkpt lat="40.636744212276035" lon="14.677751717821085"><ele>188.4</ele><time>2026-04-26T13:27:43Z</time></trkpt><trkpt lat="40.6367505045121" lon="14.677881658858972"><ele>182.20000000000002</ele><time>2026-04-26T13:27:44Z</time></trkpt><trkpt lat="40.63677859662142" lon="14.678002804175915"><ele>176.0</ele><time>2026-04-26T13:27:45Z</time></trkpt><trkpt lat="40.63678486954922" lon="14.678126059065695"><ele>176.0</ele><time>2026-04-26T13:27:46Z</time></trkpt><trkpt lat="40.63679243725768" lon="14.67823592628888"><ele>176.0</ele><time>2026-04-26T13:27:47Z</time></trkpt><trkpt lat="40.63680459870386" lon="14.678332522466704"><ele>176.0</ele><time>2026-04-26T13:27:48Z</time></trkpt><trkpt lat="40.63677259558335" lon="14.678414979331233"><ele>176.0</ele><time>2026-04-26T13:27:49Z</time></trkpt><trkpt lat="40.63672190542848" lon="14.678480951466703"><ele>176.0</ele><time>2026-04-26T13:27:50Z</time></trkpt><trkpt lat="40.63663676714929" lon="14.67852998745362"><ele>176.0</ele><time>2026-04-26T13:27:51Z</time></trkpt><trkpt lat="40.63654072180944" lon="14.678555361471224"><ele>176.0</ele><time>2026-04-26T13:27:52Z</time></trkpt><trkpt lat="40.63643560629054" lon="14.678547191767876"><ele>176.0</ele><time>2026-04-26T13:27:53Z</time></trkpt><trkpt lat="40.63634253514336" lon="14.678499288538687"><ele>176.0</ele><time>2026-04-26T13:27:54Z</time></trkpt><trkpt lat="40.63623605482607" lon="14.67846353329685"><ele>176.0</ele><time>2026-04-26T13:27:55Z</time></trkpt><trkpt lat="40.63614023427786" lon="14.678413942874165"><ele>176.0</ele><time>2026-04-26T13:27:56Z</time></trkpt><trkpt lat="40.63604638682871" lon="14.678346894847978"><ele>176.0</ele><time>2026-04-26T13:27:57Z</time></trkpt><trkpt lat="40.63594784602907" lon="14.67828682357853"><ele>176.0</ele><time>2026-04-26T13:27:58Z</time></trkpt><trkpt lat="40.63586641113688" lon="14.67822245328068"><ele>176.0</ele><time>2026-04-26T13:27:59Z</time></trkpt><trkpt lat="40.63578633772322" lon="14.678182263719647"><ele>176.0</ele><time>2026-04-26T13:28:00Z</time></trkpt><trkpt lat="40.63571349319425" lon="14.678155829066943"><ele>176.0</ele><time>2026-04-26T13:28:01Z</time></trkpt><trkpt lat="40.63562948504393" lon="14.67819594947712"><ele>176.0</ele><time>2026-04-26T13:28:02Z</time></trkpt><trkpt lat="40.63553931963376" lon="14.678285572999409"><ele>176.0</ele><time>2026-04-26T13:28:03Z</time></trkpt><trkpt lat="40.635467542463445" lon="14.678442666181322"><ele>176.0</ele><time>2026-04-26T13:28:04Z</time></trkpt><trkpt lat="40.635390026824155" lon="14.67856152819486"><ele>176.0</ele><time>2026-04-26T13:28:05Z</time></trkpt><trkpt lat="40.63527743055227" lon="14.678650770526131"><ele>174.5</ele><time>2026-04-26T13:28:06Z</time></trkpt><trkpt lat="40.63516314743061" lon="14.678713347282798"><ele>173.0</ele><time>2026-04-26T13:28:07Z</time></trkpt><trkpt lat="40.63505354111553" lon="14.678753647197468"><ele>171.5</ele><time>2026-04-26T13:28:08Z</time></trkpt><trkpt lat="40.63494684280586" lon="14.678802617537821"><ele>170.0</ele><time>2026-04-26T13:28:09Z</time></trkpt><trkpt lat="40.63484605146898" lon="14.678881254618462"><ele>170.0</ele><time>2026-04-26T13:28:10Z</time></trkpt><trkpt lat="40.63476279332733" lon="14.678973809529504"><ele>170.0</ele><time>2026-04-26T13:28:11Z</time></trkpt><trkpt lat="40.63469544340573" lon="14.679056636049813"><ele>170.0</ele><time>2026-04-26T13:28:12Z</time></trkpt><trkpt lat="40.63465373891425" lon="14.679148617652615"><ele>170.0</ele><time>2026-04-26T13:28:13Z</time></trkpt><trkpt lat="40.63463248634491" lon="14.679234755312242"><ele>170.0</ele><time>2026-04-26T13:28:14Z</time></trkpt><trkpt lat="40.63462685651252" lon="14.679318083873241"><ele>170.0</ele><time>2026-04-26T13:28:15Z</time></trkpt><trkpt lat="40.63467773577667" lon="14.679390002197641"><ele>168.57142857142858</ele><time>2026-04-26T13:28:16Z</time></trkpt><trkpt lat="40.63472004863322" lon="14.679456639756019"><ele>167.14285714285714</ele><time>2026-04-26T13:28:17Z</time></trkpt><trkpt lat="40.6347676780153" lon="14.679511291056238"><ele>165.71428571428572</ele><time>2026-04-26T13:28:18Z</time></trkpt><trkpt lat="40.6348194673727" lon="14.679565648572192"><ele>164.28571428571428</ele><time>2026-04-26T13:28:19Z</time></trkpt><trkpt lat="40.63488089294128" lon="14.6796089900015"><ele>162.85714285714286</ele><time>2026-04-26T13:28:20Z</time></trkpt><trkpt lat="40.63494140426887" lon="14.679656016393155"><ele>161.42857142857142</ele><time>2026-04-26T13:28:21Z</time></trkpt><trkpt lat="40.63499927047174" lon="14.679706418126187"><ele>160.0</ele><time>2026-04-26T13:28:22Z</time></trkpt><trkpt lat="40.635054860967735" lon="14.679765910825004"><ele>160.0</ele><time>2026-04-26T13:28:23Z</time></trkpt><trkpt lat="40.63510237565662" lon="14.679843897422137"><ele>160.0</ele><time>2026-04-26T13:28:24.001Z</time></trkpt><trkpt lat="40.63513920500688" lon="14.679946172573231"><ele>160.0</ele><time>2026-04-26T13:28:25.001Z</time></trkpt><trkpt lat="40.63517254374927" lon="14.680062653642132"><ele>160.0</ele><time>2026-04-26T13:28:26.001Z</time></trkpt><trkpt lat="40.635204784727264" lon="14.680192188977871"><ele>160.0</ele><time>2026-04-26T13:28:27.001Z</time></trkpt><trkpt lat="40.635227559709264" lon="14.680329114477418"><ele>160.0</ele><time>2026-04-26T13:28:28.001Z</time></trkpt><trkpt lat="40.635230672261436" lon="14.680460637772095"><ele>160.0</ele><time>2026-04-26T13:28:29.001Z</time></trkpt><trkpt lat="40.63522268531185" lon="14.680588003290458"><ele>160.0</ele><time>2026-04-26T13:28:30.001Z</time></trkpt><trkpt lat="40.63520351969635" lon="14.680706639310094"><ele>160.0</ele><time>2026-04-26T13:28:31.001Z</time></trkpt><trkpt lat="40.635167962331714" lon="14.680819256747519"><ele>160.0</ele><time>2026-04-26T13:28:32.001Z</time></trkpt><trkpt lat="40.63510756526435" lon="14.680915161468013"><ele>160.0</ele><time>2026-04-26T13:28:33.001Z</time></trkpt><trkpt lat="40.6350421823343" lon="14.680999556387484"><ele>160.0</ele><time>2026-04-26T13:28:34.001Z</time></trkpt><trkpt lat="40.63497429291486" lon="14.68108796225058"><ele>160.0</ele><time>2026-04-26T13:28:35.001Z</time></trkpt><trkpt lat="40.63489810935843" lon="14.681161199289324"><ele>160.0</ele><time>2026-04-26T13:28:36.001Z</time></trkpt><trkpt lat="40.63482794771021" lon="14.681243247911102"><ele>160.0</ele><time>2026-04-26T13:28:37.001Z</time></trkpt><trkpt lat="40.63477018270856" lon="14.681326171828648"><ele>162.0</ele><time>2026-04-26T13:28:38.001Z</time></trkpt><trkpt lat="40.634725463473856" lon="14.681417320197127"><ele>164.0</ele><time>2026-04-26T13:28:39.001Z</time></trkpt><trkpt lat="40.634702709855894" lon="14.681522612538732"><ele>166.0</ele><time>2026-04-26T13:28:40.001Z</time></trkpt><trkpt lat="40.63470964404126" lon="14.681627820572459"><ele>168.0</ele><time>2026-04-26T13:28:41.001Z</time></trkpt><trkpt lat="40.63474425258159" lon="14.68173924274382"><ele>170.0</ele><time>2026-04-26T13:28:42.001Z</time></trkpt><trkpt lat="40.63478344960223" lon="14.681875399617269"><ele>172.0</ele><time>2026-04-26T13:28:43.001Z</time></trkpt><trkpt lat="40.634832188295675" lon="14.68203937973245"><ele>172.0</ele><time>2026-04-26T13:28:44.001Z</time></trkpt><trkpt lat="40.63488796955382" lon="14.682217318820088"><ele>172.0</ele><time>2026-04-26T13:28:45.001Z</time></trkpt><trkpt lat="40.63494169278097" lon="14.682390795071575"><ele>172.0</ele><time>2026-04-26T13:28:46.001Z</time></trkpt><trkpt lat="40.63500239799857" lon="14.682552340674258"><ele>172.0</ele><time>2026-04-26T13:28:47.001Z</time></trkpt><trkpt lat="40.635046113223034" lon="14.682704188098972"><ele>166.4</ele><time>2026-04-26T13:28:48.001Z</time></trkpt><trkpt lat="40.63508704066398" lon="14.682840961411385"><ele>160.79999999999998</ele><time>2026-04-26T13:28:49.001Z</time></trkpt><trkpt lat="40.6351262066849" lon="14.682973032979731"><ele>155.2</ele><time>2026-04-26T13:28:50.001Z</time></trkpt><trkpt lat="40.63516798036701" lon="14.68310951734237"><ele>149.6</ele><time>2026-04-26T13:28:51.059Z</time></trkpt><trkpt lat="40.63520345107536" lon="14.68322573848617"><ele>144.0</ele><time>2026-04-26T13:28:52.059Z</time></trkpt><trkpt lat="40.63523362953097" lon="14.683328648251107"><ele>152.0</ele><time>2026-04-26T13:28:53.001Z</time></trkpt><trkpt lat="40.63528862575253" lon="14.683671899528079"><ele>160.0</ele><time>2026-04-26T13:28:54.001Z</time></trkpt><trkpt lat="40.63526131984605" lon="14.683807891304522"><ele>168.0</ele><time>2026-04-26T13:28:55.001Z</time></trkpt><trkpt lat="40.63522979686329" lon="14.683966339530668"><ele>168.0</ele><time>2026-04-26T13:28:56.001Z</time></trkpt><trkpt lat="40.63517833468857" lon="14.683896764995755"><ele>168.0</ele><time>2026-04-26T13:28:57.001Z</time></trkpt><trkpt lat="40.63520838742305" lon="14.683793253024007"><ele>168.0</ele><time>2026-04-26T13:28:58.001Z</time></trkpt><trkpt lat="40.635151502306115" lon="14.68385768675327"><ele>168.0</ele><time>2026-04-26T13:28:59.001Z</time></trkpt><trkpt lat="40.635081682455045" lon="14.683936518703653"><ele>168.0</ele><time>2026-04-26T13:29:00.001Z</time></trkpt><trkpt lat="40.63501887287771" lon="14.684020764895394"><ele>168.0</ele><time>2026-04-26T13:29:01.001Z</time></trkpt><trkpt lat="40.63495173559999" lon="14.684120983704894"><ele>168.0</ele><time>2026-04-26T13:29:02.001Z</time></trkpt><trkpt lat="40.634898642331905" lon="14.684207580858502"><ele>168.0</ele><time>2026-04-26T13:29:03.001Z</time></trkpt><trkpt lat="40.63485207878202" lon="14.684288981372472"><ele>168.0</ele><time>2026-04-26T13:29:04.001Z</time></trkpt><trkpt lat="40.63480673560875" lon="14.684376469094506"><ele>168.0</ele><time>2026-04-26T13:29:05.001Z</time></trkpt><trkpt lat="40.63476828583648" lon="14.68446626961509"><ele>168.0</ele><time>2026-04-26T13:29:06.001Z</time></trkpt><trkpt lat="40.634756969684865" lon="14.68457490996769"><ele>168.0</ele><time>2026-04-26T13:29:07.001Z</time></trkpt><trkpt lat="40.63478048045222" lon="14.684669936374133"><ele>168.0</ele><time>2026-04-26T13:29:08.001Z</time></trkpt><trkpt lat="40.634786729770916" lon="14.684763125014369"><ele>168.0</ele><time>2026-04-26T13:29:09.001Z</time></trkpt><trkpt lat="40.63478425628467" lon="14.68486422836646"><ele>168.0</ele><time>2026-04-26T13:29:10.001Z</time></trkpt><trkpt lat="40.63475879562861" lon="14.684962780092167"><ele>168.0</ele><time>2026-04-26T13:29:11.001Z</time></trkpt><trkpt lat="40.634719309111944" lon="14.685073455011068"><ele>168.0</ele><time>2026-04-26T13:29:12.001Z</time></trkpt><trkpt lat="40.634672388541006" lon="14.685159907190647"><ele>168.0</ele><time>2026-04-26T13:29:13.001Z</time></trkpt><trkpt lat="40.63461966491762" lon="14.685239819108688"><ele>168.85714285714286</ele><time>2026-04-26T13:29:14.001Z</time></trkpt><trkpt lat="40.63458647129435" lon="14.685344895498151"><ele>169.71428571428572</ele><time>2026-04-26T13:29:15.001Z</time></trkpt><trkpt lat="40.6345615246992" lon="14.685437884403537"><ele>170.57142857142856</ele><time>2026-04-26T13:29:16.001Z</time></trkpt><trkpt lat="40.63454269569577" lon="14.685522766395056"><ele>171.42857142857144</ele><time>2026-04-26T13:29:17.001Z</time></trkpt><trkpt lat="40.63453219240347" lon="14.685605296598688"><ele>172.28571428571428</ele><time>2026-04-26T13:29:18.001Z</time></trkpt><trkpt lat="40.63453610005989" lon="14.685688493642614"><ele>173.14285714285714</ele><time>2026-04-26T13:29:19.001Z</time></trkpt><trkpt lat="40.63458197817352" lon="14.685760502597882"><ele>174.0</ele><time>2026-04-26T13:29:20.001Z</time></trkpt><trkpt lat="40.63462566294224" lon="14.685843001407592"><ele>174.0</ele><time>2026-04-26T13:29:21.001Z</time></trkpt><trkpt lat="40.634690051420726" lon="14.6859003660268"><ele>174.0</ele><time>2026-04-26T13:29:22.001Z</time></trkpt><trkpt lat="40.63472499798357" lon="14.685995247901001"><ele>174.0</ele><time>2026-04-26T13:29:23.001Z</time></trkpt><trkpt lat="40.63477112735555" lon="14.686072865715822"><ele>174.0</ele><time>2026-04-26T13:29:24.001Z</time></trkpt><trkpt lat="40.63477577133285" lon="14.686172128075565"><ele>174.0</ele><time>2026-04-26T13:29:25.001Z</time></trkpt><trkpt lat="40.63474565346985" lon="14.686269484056503"><ele>174.0</ele><time>2026-04-26T13:29:26.001Z</time></trkpt><trkpt lat="40.634698589268396" lon="14.686353339201462"><ele>175.83333333333334</ele><time>2026-04-26T13:29:27.001Z</time></trkpt><trkpt lat="40.63463944129988" lon="14.686426595217888"><ele>177.66666666666666</ele><time>2026-04-26T13:29:28.001Z</time></trkpt><trkpt lat="40.634562496547986" lon="14.686484411428578"><ele>179.5</ele><time>2026-04-26T13:29:29.001Z</time></trkpt><trkpt lat="40.63448185122815" lon="14.686533315516911"><ele>181.33333333333331</ele><time>2026-04-26T13:29:30.001Z</time></trkpt><trkpt lat="40.634409827928856" lon="14.68657446066817"><ele>183.16666666666666</ele><time>2026-04-26T13:29:31Z</time></trkpt><trkpt lat="40.63434924191126" lon="14.686623357220705"><ele>185.0</ele><time>2026-04-26T13:29:32Z</time></trkpt><trkpt lat="40.63429448840852" lon="14.686686775331234"><ele>185.0</ele><time>2026-04-26T13:29:33Z</time></trkpt><trkpt lat="40.63425145672625" lon="14.686759955140912"><ele>185.0</ele><time>2026-04-26T13:29:34Z</time></trkpt><trkpt lat="40.6342104662287" lon="14.686842703406072"><ele>185.0</ele><time>2026-04-26T13:29:35Z</time></trkpt><trkpt lat="40.63417133506221" lon="14.686934102772163"><ele>185.0</ele><time>2026-04-26T13:29:36Z</time></trkpt><trkpt lat="40.6341467654024" lon="14.687038748812833"><ele>185.0</ele><time>2026-04-26T13:29:37Z</time></trkpt><trkpt lat="40.634118568487864" lon="14.687146275639034"><ele>185.0</ele><time>2026-04-26T13:29:38Z</time></trkpt><trkpt lat="40.63411418615488" lon="14.687266863103245"><ele>185.0</ele><time>2026-04-26T13:29:39Z</time></trkpt><trkpt lat="40.634141080682646" lon="14.68738216068523"><ele>185.0</ele><time>2026-04-26T13:29:40Z</time></trkpt><trkpt lat="40.63414466577909" lon="14.687497772943258"><ele>185.0</ele><time>2026-04-26T13:29:41Z</time></trkpt><trkpt lat="40.634139380749424" lon="14.687605821610052"><ele>185.0</ele><time>2026-04-26T13:29:42Z</time></trkpt><trkpt lat="40.634126415372364" lon="14.68770065123082"><ele>185.0</ele><time>2026-04-26T13:29:43Z</time></trkpt><trkpt lat="40.63409409259955" lon="14.687847679787863"><ele>185.0</ele><time>2026-04-26T13:29:45Z</time></trkpt><trkpt lat="40.634087221029866" lon="14.688001597119367"><ele>185.0</ele><time>2026-04-26T13:29:47Z</time></trkpt><trkpt lat="40.63412434257382" lon="14.688080249573051"><ele>185.0</ele><time>2026-04-26T13:29:48Z</time></trkpt><trkpt lat="40.63417490674713" lon="14.688153957415087"><ele>185.0</ele><time>2026-04-26T13:29:49Z</time></trkpt><trkpt lat="40.63424126228424" lon="14.688213544209137"><ele>185.0</ele><time>2026-04-26T13:29:50Z</time></trkpt><trkpt lat="40.63429460229879" lon="14.688302896283487"><ele>185.0</ele><time>2026-04-26T13:29:51Z</time></trkpt><trkpt lat="40.634342470771884" lon="14.68841314079514"><ele>177.0</ele><time>2026-04-26T13:29:52Z</time></trkpt><trkpt lat="40.63437980053015" lon="14.688531912746605"><ele>169.0</ele><time>2026-04-26T13:29:53Z</time></trkpt><trkpt lat="40.63442046639892" lon="14.688644801357027"><ele>161.0</ele><time>2026-04-26T13:29:54Z</time></trkpt><trkpt lat="40.634481007626405" lon="14.68874531660157"><ele>153.0</ele><time>2026-04-26T13:29:55Z</time></trkpt><trkpt lat="40.634561238574975" lon="14.688824598904116"><ele>145.0</ele><time>2026-04-26T13:29:56Z</time></trkpt><trkpt lat="40.63463134833049" lon="14.688890478417324"><ele>145.0</ele><time>2026-04-26T13:29:57Z</time></trkpt><trkpt lat="40.63469512914279" lon="14.688958689500517"><ele>145.0</ele><time>2026-04-26T13:29:58Z</time></trkpt><trkpt lat="40.63475425145202" lon="14.689037261936516"><ele>145.0</ele><time>2026-04-26T13:29:59Z</time></trkpt><trkpt lat="40.634811617792714" lon="14.689122700665603"><ele>145.0</ele><time>2026-04-26T13:30:00Z</time></trkpt><trkpt lat="40.63486276184678" lon="14.68921388813121"><ele>145.0</ele><time>2026-04-26T13:30:01Z</time></trkpt><trkpt lat="40.63490559671562" lon="14.689315188019044"><ele>145.0</ele><time>2026-04-26T13:30:02Z</time></trkpt><trkpt lat="40.6349353600416" lon="14.689427823180987"><ele>142.4</ele><time>2026-04-26T13:30:03Z</time></trkpt><trkpt lat="40.63495588645433" lon="14.689547654470212"><ele>139.8</ele><time>2026-04-26T13:30:04Z</time></trkpt><trkpt lat="40.63496798574795" lon="14.68967094504973"><ele>137.2</ele><time>2026-04-26T13:30:05Z</time></trkpt><trkpt lat="40.63497562135479" lon="14.689792059751017"><ele>134.6</ele><time>2026-04-26T13:30:06Z</time></trkpt><trkpt lat="40.634980379268505" lon="14.689907933814165"><ele>132.0</ele><time>2026-04-26T13:30:07Z</time></trkpt><trkpt lat="40.634989846878874" lon="14.690021472539405"><ele>132.0</ele><time>2026-04-26T13:30:08Z</time></trkpt><trkpt lat="40.63502263147979" lon="14.690124492571432"><ele>132.0</ele><time>2026-04-26T13:30:09Z</time></trkpt><trkpt lat="40.635064159421994" lon="14.69022462830709"><ele>132.0</ele><time>2026-04-26T13:30:10Z</time></trkpt><trkpt lat="40.635116993001276" lon="14.69032262514614"><ele>132.0</ele><time>2026-04-26T13:30:11Z</time></trkpt><trkpt lat="40.635166638452965" lon="14.690428306998447"><ele>132.0</ele><time>2026-04-26T13:30:12Z</time></trkpt><trkpt lat="40.63521371231653" lon="14.690541149760511"><ele>133.79999999999998</ele><time>2026-04-26T13:30:13Z</time></trkpt><trkpt lat="40.63525434460126" lon="14.690655932865374"><ele>135.6</ele><time>2026-04-26T13:30:14Z</time></trkpt><trkpt lat="40.63529164626361" lon="14.690768700542106"><ele>137.39999999999998</ele><time>2026-04-26T13:30:15Z</time></trkpt><trkpt lat="40.635324405072225" lon="14.690881101264555"><ele>139.2</ele><time>2026-04-26T13:30:16Z</time></trkpt><trkpt lat="40.6353562006657" lon="14.690990045774432"><ele>141.0</ele><time>2026-04-26T13:30:17Z</time></trkpt><trkpt lat="40.635389593266986" lon="14.691096085608908"><ele>134.0</ele><time>2026-04-26T13:30:18Z</time></trkpt><trkpt lat="40.63542658709235" lon="14.69119303509868"><ele>127.0</ele><time>2026-04-26T13:30:19Z</time></trkpt><trkpt lat="40.635474015053305" lon="14.691276232588992"><ele>120.0</ele><time>2026-04-26T13:30:20Z</time></trkpt><trkpt lat="40.635534618004876" lon="14.691339031733703"><ele>113.0</ele><time>2026-04-26T13:30:21Z</time></trkpt><trkpt lat="40.635606647335685" lon="14.691372289062262"><ele>106.0</ele><time>2026-04-26T13:30:22Z</time></trkpt><trkpt lat="40.63567766152722" lon="14.69139101681975"><ele>99.0</ele><time>2026-04-26T13:30:23Z</time></trkpt><trkpt lat="40.63574749075438" lon="14.69139935992574"><ele>99.0</ele><time>2026-04-26T13:30:24Z</time></trkpt><trkpt lat="40.63581635779716" lon="14.691413532802297"><ele>99.0</ele><time>2026-04-26T13:30:25Z</time></trkpt><trkpt lat="40.63588283741424" lon="14.691433031223006"><ele>99.0</ele><time>2026-04-26T13:30:26Z</time></trkpt><trkpt lat="40.635952425391714" lon="14.691459607733409"><ele>99.0</ele><time>2026-04-26T13:30:27Z</time></trkpt><trkpt lat="40.63601880930529" lon="14.691488664040731"><ele>99.0</ele><time>2026-04-26T13:30:28Z</time></trkpt><trkpt lat="40.63608541227255" lon="14.691519908969639"><ele>99.0</ele><time>2026-04-26T13:30:29Z</time></trkpt><trkpt lat="40.636153038608015" lon="14.691550392550354"><ele>99.0</ele><time>2026-04-26T13:30:30Z</time></trkpt><trkpt lat="40.63622179536082" lon="14.691585649784221"><ele>100.33333333333333</ele><time>2026-04-26T13:30:31Z</time></trkpt><trkpt lat="40.63629269479919" lon="14.691617122444644"><ele>101.66666666666666</ele><time>2026-04-26T13:30:32Z</time></trkpt><trkpt lat="40.63636654562092" lon="14.691644388288287"><ele>103.0</ele><time>2026-04-26T13:30:33Z</time></trkpt><trkpt lat="40.63644349672678" lon="14.691669850129554"><ele>104.33333333333333</ele><time>2026-04-26T13:30:34Z</time></trkpt><trkpt lat="40.636520301815324" lon="14.691683068609024"><ele>105.66666666666666</ele><time>2026-04-26T13:30:35Z</time></trkpt><trkpt lat="40.63659542302209" lon="14.691672024795414"><ele>107.0</ele><time>2026-04-26T13:30:36Z</time></trkpt><trkpt lat="40.63666900500206" lon="14.691652689373413"><ele>106.99999999999999</ele><time>2026-04-26T13:30:37Z</time></trkpt><trkpt lat="40.63673771111776" lon="14.691612582068197"><ele>107.0</ele><time>2026-04-26T13:30:38Z</time></trkpt><trkpt lat="40.63679951662924" lon="14.691550636412124"><ele>107.0</ele><time>2026-04-26T13:30:39Z</time></trkpt><trkpt lat="40.636846714913794" lon="14.691469376344724"><ele>107.0</ele><time>2026-04-26T13:30:40Z</time></trkpt><trkpt lat="40.63687658274236" lon="14.691374003647434"><ele>106.99999999999999</ele><time>2026-04-26T13:30:41Z</time></trkpt><trkpt lat="40.636895727830186" lon="14.691266368355913"><ele>107.0</ele><time>2026-04-26T13:30:42.001Z</time></trkpt><trkpt lat="40.63690796242071" lon="14.691160658723012"><ele>104.16666666666666</ele><time>2026-04-26T13:30:43.001Z</time></trkpt><trkpt lat="40.63692328638209" lon="14.691058706736378"><ele>101.33333333333333</ele><time>2026-04-26T13:30:44.001Z</time></trkpt><trkpt lat="40.63695606468767" lon="14.690961030983562"><ele>98.5</ele><time>2026-04-26T13:30:45.001Z</time></trkpt><trkpt lat="40.63700547496817" lon="14.69086875892966"><ele>95.66666666666666</ele><time>2026-04-26T13:30:46.001Z</time></trkpt><trkpt lat="40.6370567765141" lon="14.690768470824148"><ele>92.83333333333333</ele><time>2026-04-26T13:30:47.001Z</time></trkpt><trkpt lat="40.637099686630975" lon="14.690664569344102"><ele>90.0</ele><time>2026-04-26T13:30:48.001Z</time></trkpt><trkpt lat="40.63713751519659" lon="14.690560954503711"><ele>90.0</ele><time>2026-04-26T13:30:49.001Z</time></trkpt><trkpt lat="40.63717665109029" lon="14.690462828175686"><ele>90.0</ele><time>2026-04-26T13:30:50.001Z</time></trkpt><trkpt lat="40.63721176892234" lon="14.690368216334482"><ele>90.0</ele><time>2026-04-26T13:30:51.001Z</time></trkpt><trkpt lat="40.63724988945437" lon="14.690283531559402"><ele>90.0</ele><time>2026-04-26T13:30:52.001Z</time></trkpt><trkpt lat="40.63729812876265" lon="14.690208402109835"><ele>90.0</ele><time>2026-04-26T13:30:53.001Z</time></trkpt><trkpt lat="40.637355286586896" lon="14.690137642553188"><ele>90.0</ele><time>2026-04-26T13:30:54.001Z</time></trkpt><trkpt lat="40.637414427218175" lon="14.690070969837304"><ele>91.0</ele><time>2026-04-26T13:30:55.001Z</time></trkpt><trkpt lat="40.63748069844078" lon="14.690014775262943"><ele>92.0</ele><time>2026-04-26T13:30:56.001Z</time></trkpt><trkpt lat="40.63755510050017" lon="14.689984671255647"><ele>93.0</ele><time>2026-04-26T13:30:57.001Z</time></trkpt><trkpt lat="40.63763494328292" lon="14.689979894342232"><ele>94.0</ele><time>2026-04-26T13:30:58.001Z</time></trkpt><trkpt lat="40.63771693904626" lon="14.689999020684134"><ele>95.0</ele><time>2026-04-26T13:30:59.001Z</time></trkpt><trkpt lat="40.63780361884979" lon="14.69001924096391"><ele>96.0</ele><time>2026-04-26T13:31:00.001Z</time></trkpt><trkpt lat="40.63789051995796" lon="14.690044889774876"><ele>96.0</ele><time>2026-04-26T13:31:01.001Z</time></trkpt><trkpt lat="40.63796864331363" lon="14.69007076632784"><ele>96.0</ele><time>2026-04-26T13:31:02.001Z</time></trkpt><trkpt lat="40.63803245875421" lon="14.690086439574767"><ele>96.0</ele><time>2026-04-26T13:31:03.001Z</time></trkpt><trkpt lat="40.63815375268927" lon="14.690122064919871"><ele>96.0</ele><time>2026-04-26T13:31:05.001Z</time></trkpt><trkpt lat="40.63826875590047" lon="14.690136206619238"><ele>96.0</ele><time>2026-04-26T13:31:07.001Z</time></trkpt><trkpt lat="40.638357748535796" lon="14.690109288019732"><ele>96.0</ele><time>2026-04-26T13:31:09.001Z</time></trkpt><trkpt lat="40.638449915506314" lon="14.689994031358724"><ele>96.0</ele><time>2026-04-26T13:31:11.001Z</time></trkpt><trkpt lat="40.63850897743987" lon="14.689910467121937"><ele>96.0</ele><time>2026-04-26T13:31:12.001Z</time></trkpt><trkpt lat="40.63857490327587" lon="14.689827219709246"><ele>96.0</ele><time>2026-04-26T13:31:13.001Z</time></trkpt><trkpt lat="40.63863731233356" lon="14.689757393041601"><ele>96.0</ele><time>2026-04-26T13:31:14.001Z</time></trkpt><trkpt lat="40.638692684108506" lon="14.689698227834318"><ele>97.57142857142857</ele><time>2026-04-26T13:31:15.001Z</time></trkpt><trkpt lat="40.63874596187908" lon="14.689641039401721"><ele>99.14285714285714</ele><time>2026-04-26T13:31:16.001Z</time></trkpt><trkpt lat="40.63879925828293" lon="14.689583109799289"><ele>100.71428571428572</ele><time>2026-04-26T13:31:17.001Z</time></trkpt><trkpt lat="40.63885408567605" lon="14.689526539094393"><ele>102.28571428571428</ele><time>2026-04-26T13:31:18.001Z</time></trkpt><trkpt lat="40.638918154082766" lon="14.689477005591312"><ele>103.85714285714286</ele><time>2026-04-26T13:31:19.001Z</time></trkpt><trkpt lat="40.63898997736734" lon="14.689438514993471"><ele>105.42857142857143</ele><time>2026-04-26T13:31:20.001Z</time></trkpt><trkpt lat="40.63907633291932" lon="14.689432059850471"><ele>107.0</ele><time>2026-04-26T13:31:21.001Z</time></trkpt><trkpt lat="40.63916451253793" lon="14.68941929204344"><ele>107.00000000000001</ele><time>2026-04-26T13:31:22.001Z</time></trkpt><trkpt lat="40.63922802139742" lon="14.689403771902724"><ele>107.0</ele><time>2026-04-26T13:31:23.001Z</time></trkpt><trkpt lat="40.63929726733928" lon="14.689395340691547"><ele>107.0</ele><time>2026-04-26T13:31:24.001Z</time></trkpt><trkpt lat="40.639362710986" lon="14.689360610643018"><ele>107.0</ele><time>2026-04-26T13:31:25.001Z</time></trkpt><trkpt lat="40.639429068259666" lon="14.689315300109705"><ele>107.0</ele><time>2026-04-26T13:31:26.001Z</time></trkpt><trkpt lat="40.6394977319047" lon="14.68926287142313"><ele>107.00000000000001</ele><time>2026-04-26T13:31:27.001Z</time></trkpt><trkpt lat="40.63956055504133" lon="14.689208468046013"><ele>107.0</ele><time>2026-04-26T13:31:28.001Z</time></trkpt><trkpt lat="40.63961715911446" lon="14.689165010889381"><ele>102.33333333333333</ele><time>2026-04-26T13:31:29.001Z</time></trkpt><trkpt lat="40.63969956759134" lon="14.689105251607552"><ele>97.66666666666666</ele><time>2026-04-26T13:31:32.001Z</time></trkpt><trkpt lat="40.63979717295445" lon="14.689045378036141"><ele>93.0</ele><time>2026-04-26T13:31:34.001Z</time></trkpt><trkpt lat="40.63986252066574" lon="14.689008842202945"><ele>88.33333333333333</ele><time>2026-04-26T13:31:35.001Z</time></trkpt><trkpt lat="40.63993202015723" lon="14.68896691024139"><ele>83.66666666666666</ele><time>2026-04-26T13:31:36.001Z</time></trkpt><trkpt lat="40.640007294663285" lon="14.688930058203542"><ele>79.0</ele><time>2026-04-26T13:31:37Z</time></trkpt><trkpt lat="40.64008741872808" lon="14.688890931709725"><ele>79.0</ele><time>2026-04-26T13:31:38Z</time></trkpt><trkpt lat="40.64016845143881" lon="14.688863568673414"><ele>79.0</ele><time>2026-04-26T13:31:39Z</time></trkpt><trkpt lat="40.64024269038096" lon="14.68885450706659"><ele>79.0</ele><time>2026-04-26T13:31:40Z</time></trkpt><trkpt lat="40.64031453015998" lon="14.688841565714739"><ele>79.0</ele><time>2026-04-26T13:31:41Z</time></trkpt><trkpt lat="40.64037906216618" lon="14.688795876167687"><ele>79.0</ele><time>2026-04-26T13:31:42Z</time></trkpt><trkpt lat="40.64042945936489" lon="14.688716142141448"><ele>79.0</ele><time>2026-04-26T13:31:43Z</time></trkpt><trkpt lat="40.640458504322524" lon="14.688613580533387"><ele>80.5</ele><time>2026-04-26T13:31:44Z</time></trkpt><trkpt lat="40.640467608605945" lon="14.688513568866794"><ele>82.0</ele><time>2026-04-26T13:31:45Z</time></trkpt><trkpt lat="40.64047827881329" lon="14.688417626073738"><ele>83.5</ele><time>2026-04-26T13:31:46Z</time></trkpt><trkpt lat="40.64048562262522" lon="14.688326363079215"><ele>85.0</ele><time>2026-04-26T13:31:47Z</time></trkpt><trkpt lat="40.64050196193063" lon="14.68817967276678"><ele>86.5</ele><time>2026-04-26T13:31:49Z</time></trkpt><trkpt lat="40.64054362719389" lon="14.68807656638368"><ele>88.0</ele><time>2026-04-26T13:31:51Z</time></trkpt><trkpt lat="40.640657975205016" lon="14.6880768493293"><ele>88.0</ele><time>2026-04-26T13:31:53Z</time></trkpt><trkpt lat="40.64072228180712" lon="14.68810958931984"><ele>88.0</ele><time>2026-04-26T13:31:54Z</time></trkpt><trkpt lat="40.64079178449678" lon="14.688134439252243"><ele>88.0</ele><time>2026-04-26T13:31:55Z</time></trkpt><trkpt lat="40.64086384748957" lon="14.688153771872857"><ele>88.0</ele><time>2026-04-26T13:31:56Z</time></trkpt><trkpt lat="40.640938022293724" lon="14.68817695064451"><ele>88.0</ele><time>2026-04-26T13:31:57Z</time></trkpt><trkpt lat="40.64100847748421" lon="14.68821122423627"><ele>88.0</ele><time>2026-04-26T13:31:58Z</time></trkpt><trkpt lat="40.64106866123106" lon="14.688268862295557"><ele>88.0</ele><time>2026-04-26T13:31:59Z</time></trkpt><trkpt lat="40.641119339688565" lon="14.688350428185931"><ele>96.0</ele><time>2026-04-26T13:32:00Z</time></trkpt><trkpt lat="40.64116775331171" lon="14.688439270880975"><ele>104.0</ele><time>2026-04-26T13:32:01Z</time></trkpt><trkpt lat="40.64120465225204" lon="14.688540399490167"><ele>112.0</ele><time>2026-04-26T13:32:02Z</time></trkpt><trkpt lat="40.641227469387246" lon="14.688650014923486"><ele>120.0</ele><time>2026-04-26T13:32:03Z</time></trkpt><trkpt lat="40.64123664774737" lon="14.688766959755338"><ele>128.0</ele><time>2026-04-26T13:32:04Z</time></trkpt><trkpt lat="40.64123643603452" lon="14.688885975588901"><ele>136.0</ele><time>2026-04-26T13:32:05Z</time></trkpt><trkpt lat="40.641238938040594" lon="14.688999526350697"><ele>138.28571428571428</ele><time>2026-04-26T13:32:06Z</time></trkpt><trkpt lat="40.64124060000141" lon="14.689104515927287"><ele>140.57142857142856</ele><time>2026-04-26T13:32:07Z</time></trkpt><trkpt lat="40.64122974513296" lon="14.689189943725392"><ele>142.85714285714283</ele><time>2026-04-26T13:32:08Z</time></trkpt><trkpt lat="40.64120331260264" lon="14.689265516451618"><ele>145.14285714285714</ele><time>2026-04-26T13:32:09Z</time></trkpt><trkpt lat="40.64114564366513" lon="14.689321334887643"><ele>147.42857142857144</ele><time>2026-04-26T13:32:10Z</time></trkpt><trkpt lat="40.64106711931468" lon="14.689348749813512"><ele>149.7142857142857</ele><time>2026-04-26T13:32:11Z</time></trkpt><trkpt lat="40.64099215501428" lon="14.689386899436887"><ele>152.0</ele><time>2026-04-26T13:32:12Z</time></trkpt><trkpt lat="40.64093591954572" lon="14.689459699451278"><ele>142.16666666666666</ele><time>2026-04-26T13:32:13Z</time></trkpt><trkpt lat="40.64088796661227" lon="14.689540698992092"><ele>132.33333333333331</ele><time>2026-04-26T13:32:14Z</time></trkpt><trkpt lat="40.64083502777172" lon="14.689611651863464"><ele>122.5</ele><time>2026-04-26T13:32:15Z</time></trkpt><trkpt lat="40.64075813658832" lon="14.689676706228791"><ele>112.66666666666666</ele><time>2026-04-26T13:32:16Z</time></trkpt><trkpt lat="40.64069752384392" lon="14.689782429514409"><ele>102.83333333333333</ele><time>2026-04-26T13:32:17Z</time></trkpt><trkpt lat="40.64065118065796" lon="14.689892674526538"><ele>93.0</ele><time>2026-04-26T13:32:18Z</time></trkpt><trkpt lat="40.64060626489258" lon="14.690005119249959"><ele>93.0</ele><time>2026-04-26T13:32:19Z</time></trkpt><trkpt lat="40.64055804813343" lon="14.690114110693749"><ele>93.0</ele><time>2026-04-26T13:32:20Z</time></trkpt><trkpt lat="40.640517926884755" lon="14.690232607493357"><ele>93.0</ele><time>2026-04-26T13:32:21Z</time></trkpt><trkpt lat="40.640499022391815" lon="14.690357921542114"><ele>93.0</ele><time>2026-04-26T13:32:22Z</time></trkpt><trkpt lat="40.640482820032815" lon="14.690474400353086"><ele>93.0</ele><time>2026-04-26T13:32:23Z</time></trkpt><trkpt lat="40.640468321757396" lon="14.690578628311389"><ele>88.0</ele><time>2026-04-26T13:32:24Z</time></trkpt><trkpt lat="40.640447362797694" lon="14.690660993237652"><ele>83.0</ele><time>2026-04-26T13:32:25Z</time></trkpt><trkpt lat="40.64041082341784" lon="14.690734357861288"><ele>78.0</ele><time>2026-04-26T13:32:26Z</time></trkpt><trkpt lat="40.64032240470756" lon="14.690722488986552"><ele>73.0</ele><time>2026-04-26T13:32:27Z</time></trkpt><trkpt lat="40.64022626868955" lon="14.690746176652631"><ele>68.0</ele><time>2026-04-26T13:32:28Z</time></trkpt><trkpt lat="40.640150692500896" lon="14.69078147170682"><ele>63.0</ele><time>2026-04-26T13:32:29Z</time></trkpt><trkpt lat="40.640088826317715" lon="14.690873238576078"><ele>63.0</ele><time>2026-04-26T13:32:30Z</time></trkpt><trkpt lat="40.64005847733331" lon="14.690988352649073"><ele>63.0</ele><time>2026-04-26T13:32:31Z</time></trkpt><trkpt lat="40.64001618165774" lon="14.691092014359198"><ele>63.0</ele><time>2026-04-26T13:32:32Z</time></trkpt><trkpt lat="40.640002547766" lon="14.691199222754225"><ele>63.0</ele><time>2026-04-26T13:32:33Z</time></trkpt><trkpt lat="40.63995244350615" lon="14.691281573292425"><ele>63.0</ele><time>2026-04-26T13:32:34Z</time></trkpt><trkpt lat="40.639915263091545" lon="14.691381106983744"><ele>63.0</ele><time>2026-04-26T13:32:35Z</time></trkpt><trkpt lat="40.6398604069397" lon="14.691474987478873"><ele>68.4</ele><time>2026-04-26T13:32:36Z</time></trkpt><trkpt lat="40.63981612493513" lon="14.69158410617354"><ele>73.8</ele><time>2026-04-26T13:32:37Z</time></trkpt><trkpt lat="40.639779321483935" lon="14.69170271177377"><ele>79.2</ele><time>2026-04-26T13:32:38Z</time></trkpt><trkpt lat="40.63974537333253" lon="14.69181342763532"><ele>84.6</ele><time>2026-04-26T13:32:39Z</time></trkpt><trkpt lat="40.63971708495913" lon="14.69192765838509"><ele>90.0</ele><time>2026-04-26T13:32:40Z</time></trkpt><trkpt lat="40.63968434552838" lon="14.6920358017847"><ele>91.5</ele><time>2026-04-26T13:32:41Z</time></trkpt><trkpt lat="40.63966465731832" lon="14.692145588335002"><ele>93.0</ele><time>2026-04-26T13:32:42Z</time></trkpt><trkpt lat="40.63966072332909" lon="14.692252728360028"><ele>94.5</ele><time>2026-04-26T13:32:43Z</time></trkpt><trkpt lat="40.639657576977754" lon="14.692358943122512"><ele>96.0</ele><time>2026-04-26T13:32:44Z</time></trkpt><trkpt lat="40.63968508269977" lon="14.692466741904912"><ele>97.5</ele><time>2026-04-26T13:32:45Z</time></trkpt><trkpt lat="40.63970994156707" lon="14.692568468977276"><ele>99.0</ele><time>2026-04-26T13:32:46Z</time></trkpt><trkpt lat="40.63972845998154" lon="14.692671921365466"><ele>99.66666666666667</ele><time>2026-04-26T13:32:47Z</time></trkpt><trkpt lat="40.63974757902583" lon="14.6927739858391"><ele>100.33333333333334</ele><time>2026-04-26T13:32:48Z</time></trkpt><trkpt lat="40.63971078786581" lon="14.692869397246751"><ele>101.0</ele><time>2026-04-26T13:32:49Z</time></trkpt><trkpt lat="40.63964753227144" lon="14.692946789842717"><ele>101.66666666666667</ele><time>2026-04-26T13:32:50Z</time></trkpt><trkpt lat="40.639596410374125" lon="14.69303771858439"><ele>102.33333333333334</ele><time>2026-04-26T13:32:51Z</time></trkpt><trkpt lat="40.639556539392125" lon="14.693141222274047"><ele>103.0</ele><time>2026-04-26T13:32:52Z</time></trkpt><trkpt lat="40.639565975386965" lon="14.693262813342288"><ele>103.00000000000001</ele><time>2026-04-26T13:32:53Z</time></trkpt><trkpt lat="40.639574714592214" lon="14.693358925241226"><ele>103.0</ele><time>2026-04-26T13:32:54Z</time></trkpt><trkpt lat="40.63952756813537" lon="14.693451815653372"><ele>103.0</ele><time>2026-04-26T13:32:55Z</time></trkpt><trkpt lat="40.63946411957751" lon="14.693545351333537"><ele>103.0</ele><time>2026-04-26T13:32:56Z</time></trkpt><trkpt lat="40.63942388684794" lon="14.69366125339878"><ele>103.00000000000001</ele><time>2026-04-26T13:32:57Z</time></trkpt><trkpt lat="40.63937137198296" lon="14.693769537059358"><ele>103.0</ele><time>2026-04-26T13:32:58Z</time></trkpt><trkpt lat="40.63931269532587" lon="14.693868296116461"><ele>96.2</ele><time>2026-04-26T13:32:59Z</time></trkpt><trkpt lat="40.63925040118078" lon="14.6939590890699"><ele>89.4</ele><time>2026-04-26T13:33:00Z</time></trkpt><trkpt lat="40.63918442778624" lon="14.694036775821365"><ele>82.60000000000001</ele><time>2026-04-26T13:33:01Z</time></trkpt><trkpt lat="40.639115025329296" lon="14.69410994362798"><ele>75.80000000000001</ele><time>2026-04-26T13:33:02Z</time></trkpt><trkpt lat="40.639045423158215" lon="14.69418585583757"><ele>69.0</ele><time>2026-04-26T13:33:03Z</time></trkpt><trkpt lat="40.63897360901701" lon="14.694261824701892"><ele>69.0</ele><time>2026-04-26T13:33:04Z</time></trkpt><trkpt lat="40.638901824641486" lon="14.69433093788898"><ele>69.0</ele><time>2026-04-26T13:33:05Z</time></trkpt><trkpt lat="40.63883042262641" lon="14.694400314770679"><ele>69.0</ele><time>2026-04-26T13:33:06Z</time></trkpt><trkpt lat="40.63876231772097" lon="14.694472670571493"><ele>69.0</ele><time>2026-04-26T13:33:07Z</time></trkpt><trkpt lat="40.63870039651449" lon="14.694543528929886"><ele>69.0</ele><time>2026-04-26T13:33:08Z</time></trkpt><trkpt lat="40.63864809934505" lon="14.694610418873529"><ele>69.0</ele><time>2026-04-26T13:33:09Z</time></trkpt><trkpt lat="40.63860736423134" lon="14.694689997204812"><ele>70.28571428571429</ele><time>2026-04-26T13:33:10Z</time></trkpt><trkpt lat="40.6385580778853" lon="14.694766706313395"><ele>71.57142857142858</ele><time>2026-04-26T13:33:11Z</time></trkpt><trkpt lat="40.63853286775751" lon="14.694858243453535"><ele>72.85714285714286</ele><time>2026-04-26T13:33:12Z</time></trkpt><trkpt lat="40.638551538021076" lon="14.694952167835647"><ele>74.14285714285714</ele><time>2026-04-26T13:33:13Z</time></trkpt><trkpt lat="40.63856118369995" lon="14.69504359835944"><ele>75.42857142857142</ele><time>2026-04-26T13:33:14Z</time></trkpt><trkpt lat="40.63862906363653" lon="14.695098450526338"><ele>76.71428571428572</ele><time>2026-04-26T13:33:15Z</time></trkpt><trkpt lat="40.63869186365798" lon="14.695152572743345"><ele>78.0</ele><time>2026-04-26T13:33:16Z</time></trkpt><trkpt lat="40.63874490976627" lon="14.695229406314507"><ele>74.66666666666667</ele><time>2026-04-26T13:33:17Z</time></trkpt><trkpt lat="40.63880373393543" lon="14.69529453170708"><ele>71.33333333333333</ele><time>2026-04-26T13:33:18.001Z</time></trkpt><trkpt lat="40.638858351267395" lon="14.695373401766926"><ele>68.0</ele><time>2026-04-26T13:33:19.001Z</time></trkpt><trkpt lat="40.63890420339904" lon="14.695461445090539"><ele>64.66666666666666</ele><time>2026-04-26T13:33:20.001Z</time></trkpt><trkpt lat="40.63894848045965" lon="14.695555621766072"><ele>61.33333333333333</ele><time>2026-04-26T13:33:21.001Z</time></trkpt><trkpt lat="40.63898737291996" lon="14.695651797439028"><ele>58.0</ele><time>2026-04-26T13:33:22.001Z</time></trkpt><trkpt lat="40.63903635861138" lon="14.695744129819582"><ele>57.99999999999999</ele><time>2026-04-26T13:33:23.001Z</time></trkpt><trkpt lat="40.63907550665367" lon="14.69583796084682"><ele>58.0</ele><time>2026-04-26T13:33:24.001Z</time></trkpt><trkpt lat="40.63913055901297" lon="14.69591267905873"><ele>58.0</ele><time>2026-04-26T13:33:25.001Z</time></trkpt><trkpt lat="40.63920294757861" lon="14.69595446157233"><ele>58.0</ele><time>2026-04-26T13:33:26.001Z</time></trkpt><trkpt lat="40.63929139629981" lon="14.695932929280925"><ele>57.99999999999999</ele><time>2026-04-26T13:33:27.001Z</time></trkpt><trkpt lat="40.63938034973028" lon="14.695874598271898"><ele>58.0</ele><time>2026-04-26T13:33:28.001Z</time></trkpt><trkpt lat="40.639463849802745" lon="14.695814978477603"><ele>56.83333333333333</ele><time>2026-04-26T13:33:29.001Z</time></trkpt><trkpt lat="40.639538126532564" lon="14.695757699835804"><ele>55.666666666666664</ele><time>2026-04-26T13:33:30.001Z</time></trkpt><trkpt lat="40.639611086804095" lon="14.695702390030865"><ele>54.5</ele><time>2026-04-26T13:33:31.001Z</time></trkpt><trkpt lat="40.639681839761266" lon="14.69564476718047"><ele>53.33333333333333</ele><time>2026-04-26T13:33:32.001Z</time></trkpt><trkpt lat="40.63975494819681" lon="14.69558704137437"><ele>52.166666666666664</ele><time>2026-04-26T13:33:33.001Z</time></trkpt><trkpt lat="40.63983210388868" lon="14.69552812594528"><ele>51.0</ele><time>2026-04-26T13:33:34.001Z</time></trkpt><trkpt lat="40.63991676903775" lon="14.695475208021463"><ele>51.0</ele><time>2026-04-26T13:33:35.001Z</time></trkpt><trkpt lat="40.64001284022279" lon="14.695431708033952"><ele>51.0</ele><time>2026-04-26T13:33:36.001Z</time></trkpt><trkpt lat="40.64010699252581" lon="14.695391871757579"><ele>51.0</ele><time>2026-04-26T13:33:37.001Z</time></trkpt><trkpt lat="40.6402098925108" lon="14.695361546761818"><ele>51.0</ele><time>2026-04-26T13:33:38.001Z</time></trkpt><trkpt lat="40.64030905006212" lon="14.695338033564168"><ele>51.0</ele><time>2026-04-26T13:33:39.001Z</time></trkpt><trkpt lat="40.64040243981218" lon="14.695325119021962"><ele>52.4</ele><time>2026-04-26T13:33:40.001Z</time></trkpt><trkpt lat="40.64049699453255" lon="14.6953356744161"><ele>53.8</ele><time>2026-04-26T13:33:41.001Z</time></trkpt><trkpt lat="40.64058914524908" lon="14.695374668130002"><ele>55.199999999999996</ele><time>2026-04-26T13:33:42.001Z</time></trkpt><trkpt lat="40.6406698925474" lon="14.695438520951896"><ele>56.599999999999994</ele><time>2026-04-26T13:33:43Z</time></trkpt><trkpt lat="40.64074137311158" lon="14.695526911851909"><ele>58.0</ele><time>2026-04-26T13:33:44Z</time></trkpt><trkpt lat="40.64079597489362" lon="14.695622807757289"><ele>57.99999999999999</ele><time>2026-04-26T13:33:45Z</time></trkpt><trkpt lat="40.64084629480945" lon="14.695718469228044"><ele>58.0</ele><time>2026-04-26T13:33:46Z</time></trkpt><trkpt lat="40.64089261362295" lon="14.695803749767514"><ele>58.0</ele><time>2026-04-26T13:33:47Z</time></trkpt><trkpt lat="40.640981358972645" lon="14.69583139102171"><ele>58.0</ele><time>2026-04-26T13:33:48Z</time></trkpt><trkpt lat="40.64105783153242" lon="14.695859536277561"><ele>57.99999999999999</ele><time>2026-04-26T13:33:49Z</time></trkpt><trkpt lat="40.64111045760169" lon="14.695918095530379"><ele>58.0</ele><time>2026-04-26T13:33:50Z</time></trkpt><trkpt lat="40.64115321067571" lon="14.695993042849324"><ele>56.599999999999994</ele><time>2026-04-26T13:33:51Z</time></trkpt><trkpt lat="40.64110558477873" lon="14.696139870536237"><ele>55.199999999999996</ele><time>2026-04-26T13:33:53Z</time></trkpt><trkpt lat="40.641054765197985" lon="14.696226942490403"><ele>53.8</ele><time>2026-04-26T13:33:54Z</time></trkpt><trkpt lat="40.64100296084982" lon="14.696327000532252"><ele>52.4</ele><time>2026-04-26T13:33:55Z</time></trkpt><trkpt lat="40.6409322686923" lon="14.69642028676672"><ele>51.0</ele><time>2026-04-26T13:33:55.999Z</time></trkpt><trkpt lat="40.64084341276713" lon="14.69647055414006"><ele>51.0</ele><time>2026-04-26T13:33:57Z</time></trkpt><trkpt lat="40.64075907710477" lon="14.696509547717135"><ele>51.0</ele><time>2026-04-26T13:33:58Z</time></trkpt><trkpt lat="40.64065970139054" lon="14.696560389243588"><ele>51.0</ele><time>2026-04-26T13:33:59Z</time></trkpt><trkpt lat="40.640577839017595" lon="14.696664337168151"><ele>51.0</ele><time>2026-04-26T13:34:00Z</time></trkpt><trkpt lat="40.640533856942994" lon="14.696778526841227"><ele>51.0</ele><time>2026-04-26T13:34:01Z</time></trkpt><trkpt lat="40.640491306780724" lon="14.696886148639951"><ele>48.8</ele><time>2026-04-26T13:34:02Z</time></trkpt><trkpt lat="40.640438038372494" lon="14.696996076335381"><ele>46.599999999999994</ele><time>2026-04-26T13:34:03Z</time></trkpt><trkpt lat="40.64037974739058" lon="14.697109201255916"><ele>44.4</ele><time>2026-04-26T13:34:04Z</time></trkpt><trkpt lat="40.64032626843192" lon="14.697212262375388"><ele>42.2</ele><time>2026-04-26T13:34:05Z</time></trkpt><trkpt lat="40.64029820656183" lon="14.69731520916132"><ele>40.0</ele><time>2026-04-26T13:34:06Z</time></trkpt><trkpt lat="40.64026636488455" lon="14.697407433485795"><ele>40.0</ele><time>2026-04-26T13:34:07Z</time></trkpt><trkpt lat="40.64030966806009" lon="14.697509096278507"><ele>40.0</ele><time>2026-04-26T13:34:08Z</time></trkpt><trkpt lat="40.640375149608225" lon="14.69757624762741"><ele>40.0</ele><time>2026-04-26T13:34:09Z</time></trkpt><trkpt lat="40.64045538865299" lon="14.697607018882545"><ele>40.0</ele><time>2026-04-26T13:34:10Z</time></trkpt><trkpt lat="40.64053706288613" lon="14.697587184104629"><ele>40.0</ele><time>2026-04-26T13:34:11Z</time></trkpt><trkpt lat="40.64061717287055" lon="14.697554968728195"><ele>40.0</ele><time>2026-04-26T13:34:12Z</time></trkpt><trkpt lat="40.64070409974694" lon="14.697515017062866"><ele>40.0</ele><time>2026-04-26T13:34:13Z</time></trkpt><trkpt lat="40.64079337702915" lon="14.697467382215512"><ele>40.0</ele><time>2026-04-26T13:34:14Z</time></trkpt><trkpt lat="40.64088724897294" lon="14.69741507053756"><ele>40.0</ele><time>2026-04-26T13:34:15Z</time></trkpt><trkpt lat="40.64098077535468" lon="14.697358236538488"><ele>40.0</ele><time>2026-04-26T13:34:16Z</time></trkpt><trkpt lat="40.64107145763863" lon="14.6973082095811"><ele>40.0</ele><time>2026-04-26T13:34:17Z</time></trkpt><trkpt lat="40.64116100177481" lon="14.697261958714602"><ele>40.0</ele><time>2026-04-26T13:34:18Z</time></trkpt><trkpt lat="40.64125186342366" lon="14.697217637975664"><ele>40.0</ele><time>2026-04-26T13:34:19Z</time></trkpt><trkpt lat="40.64134563585199" lon="14.697187804702459"><ele>40.0</ele><time>2026-04-26T13:34:20Z</time></trkpt><trkpt lat="40.641443100551044" lon="14.697192839052988"><ele>40.0</ele><time>2026-04-26T13:34:21Z</time></trkpt><trkpt lat="40.64154306194082" lon="14.697212119844238"><ele>40.0</ele><time>2026-04-26T13:34:22Z</time></trkpt><trkpt lat="40.641644091938424" lon="14.697219623358402"><ele>40.0</ele><time>2026-04-26T13:34:23Z</time></trkpt><trkpt lat="40.641745794829326" lon="14.697218233409314"><ele>40.0</ele><time>2026-04-26T13:34:24Z</time></trkpt><trkpt lat="40.64183780734095" lon="14.697216160662302"><ele>40.0</ele><time>2026-04-26T13:34:25Z</time></trkpt><trkpt lat="40.6419226674635" lon="14.697215468207617"><ele>40.0</ele><time>2026-04-26T13:34:26Z</time></trkpt><trkpt lat="40.64200338220608" lon="14.69721690113333"><ele>40.0</ele><time>2026-04-26T13:34:27Z</time></trkpt><trkpt lat="40.64206740612766" lon="14.697244108881529"><ele>40.0</ele><time>2026-04-26T13:34:28Z</time></trkpt><trkpt lat="40.642133060561385" lon="14.697351234468902"><ele>37.0</ele><time>2026-04-26T13:34:30Z</time></trkpt><trkpt lat="40.64206722307736" lon="14.697503871018439"><ele>34.0</ele><time>2026-04-26T13:34:32Z</time></trkpt><trkpt lat="40.64205670630783" lon="14.69760092934303"><ele>31.0</ele><time>2026-04-26T13:34:33Z</time></trkpt><trkpt lat="40.64202622382023" lon="14.697753904739205"><ele>28.0</ele><time>2026-04-26T13:34:35Z</time></trkpt><trkpt lat="40.64205661845528" lon="14.697895348114333"><ele>25.0</ele><time>2026-04-26T13:34:37Z</time></trkpt><trkpt lat="40.64215874692395" lon="14.69796270358717"><ele>25.000000000000004</ele><time>2026-04-26T13:34:39Z</time></trkpt><trkpt lat="40.642221244764336" lon="14.697988096231363"><ele>25.0</ele><time>2026-04-26T13:34:40Z</time></trkpt><trkpt lat="40.64228663812638" lon="14.698015999888318"><ele>25.0</ele><time>2026-04-26T13:34:41Z</time></trkpt><trkpt lat="40.64235691619172" lon="14.698046125239404"><ele>25.0</ele><time>2026-04-26T13:34:42Z</time></trkpt><trkpt lat="40.642434112346784" lon="14.698075736833006"><ele>25.000000000000004</ele><time>2026-04-26T13:34:43Z</time></trkpt><trkpt lat="40.64251533750159" lon="14.698110624588939"><ele>25.0</ele><time>2026-04-26T13:34:44Z</time></trkpt><trkpt lat="40.642595757399974" lon="14.698147107727728"><ele>25.000000000000004</ele><time>2026-04-26T13:34:45Z</time></trkpt><trkpt lat="40.64267648772521" lon="14.698182524362556"><ele>25.0</ele><time>2026-04-26T13:34:46Z</time></trkpt><trkpt lat="40.64275366014015" lon="14.698203142623086"><ele>25.0</ele><time>2026-04-26T13:34:47Z</time></trkpt><trkpt lat="40.642827501866066" lon="14.698205447865107"><ele>25.0</ele><time>2026-04-26T13:34:48Z</time></trkpt><trkpt lat="40.642898728762745" lon="14.698192344478816"><ele>25.000000000000004</ele><time>2026-04-26T13:34:49Z</time></trkpt><trkpt lat="40.64297349150408" lon="14.698165609528226"><ele>25.0</ele><time>2026-04-26T13:34:50Z</time></trkpt><trkpt lat="40.64304855136077" lon="14.698135873511513"><ele>25.8</ele><time>2026-04-26T13:34:51Z</time></trkpt><trkpt lat="40.64312304552468" lon="14.698097799116955"><ele>26.6</ele><time>2026-04-26T13:34:52Z</time></trkpt><trkpt lat="40.643193099398616" lon="14.698046942628734"><ele>27.4</ele><time>2026-04-26T13:34:53Z</time></trkpt><trkpt lat="40.64325118547047" lon="14.69799456328728"><ele>28.2</ele><time>2026-04-26T13:34:54Z</time></trkpt><trkpt lat="40.643350012525886" lon="14.697909946154308"><ele>29.0</ele><time>2026-04-26T13:34:56Z</time></trkpt><trkpt lat="40.64344030905884" lon="14.697846291293905"><ele>29.0</ele><time>2026-04-26T13:34:58Z</time></trkpt><trkpt lat="40.64353079559569" lon="14.697789545598882"><ele>29.0</ele><time>2026-04-26T13:35:00Z</time></trkpt><trkpt lat="40.6436299438316" lon="14.697749834619163"><ele>29.0</ele><time>2026-04-26T13:35:02Z</time></trkpt><trkpt lat="40.64374675991786" lon="14.69775855700782"><ele>29.0</ele><time>2026-04-26T13:35:04Z</time></trkpt><trkpt lat="40.64380971938497" lon="14.69782145761946"><ele>29.0</ele><time>2026-04-26T13:35:05Z</time></trkpt><trkpt lat="40.64387310875384" lon="14.697892725381822"><ele>31.799999999999997</ele><time>2026-04-26T13:35:06Z</time></trkpt><trkpt lat="40.64393389266185" lon="14.69797459473364"><ele>34.599999999999994</ele><time>2026-04-26T13:35:07Z</time></trkpt><trkpt lat="40.643995166895266" lon="14.698066412475272"><ele>37.4</ele><time>2026-04-26T13:35:08Z</time></trkpt><trkpt lat="40.64405331444639" lon="14.698165606070223"><ele>40.199999999999996</ele><time>2026-04-26T13:35:09Z</time></trkpt><trkpt lat="40.64411624399357" lon="14.698265161734328"><ele>43.0</ele><time>2026-04-26T13:35:10Z</time></trkpt><trkpt lat="40.64418171204385" lon="14.698358784765439"><ele>43.0</ele><time>2026-04-26T13:35:11Z</time></trkpt><trkpt lat="40.644249914518056" lon="14.69845422153744"><ele>43.0</ele><time>2026-04-26T13:35:12Z</time></trkpt><trkpt lat="40.644315818637054" lon="14.69855776702775"><ele>43.0</ele><time>2026-04-26T13:35:13Z</time></trkpt><trkpt lat="40.64437936252421" lon="14.698665193653875"><ele>43.0</ele><time>2026-04-26T13:35:14Z</time></trkpt><trkpt lat="40.64444309248911" lon="14.69877008944967"><ele>43.0</ele><time>2026-04-26T13:35:15Z</time></trkpt><trkpt lat="40.64450061520617" lon="14.698881321161338"><ele>40.8</ele><time>2026-04-26T13:35:16Z</time></trkpt><trkpt lat="40.64455729683068" lon="14.698992049324469"><ele>38.599999999999994</ele><time>2026-04-26T13:35:17Z</time></trkpt><trkpt lat="40.644615088931324" lon="14.699101924739235"><ele>36.400000000000006</ele><time>2026-04-26T13:35:18Z</time></trkpt><trkpt lat="40.644671499050375" lon="14.699213199604847"><ele>34.2</ele><time>2026-04-26T13:35:19Z</time></trkpt><trkpt lat="40.644726303904974" lon="14.699321128044476"><ele>32.0</ele><time>2026-04-26T13:35:20Z</time></trkpt><trkpt lat="40.644784770912665" lon="14.699427005955622"><ele>31.999999999999996</ele><time>2026-04-26T13:35:21Z</time></trkpt><trkpt lat="40.64484124363628" lon="14.699531388432124"><ele>32.0</ele><time>2026-04-26T13:35:22Z</time></trkpt><trkpt lat="40.64489029948718" lon="14.699628645738732"><ele>32.0</ele><time>2026-04-26T13:35:23Z</time></trkpt><trkpt lat="40.64493404891348" lon="14.699722107155527"><ele>32.0</ele><time>2026-04-26T13:35:24Z</time></trkpt><trkpt lat="40.64497288283738" lon="14.699811073432645"><ele>31.999999999999996</ele><time>2026-04-26T13:35:25Z</time></trkpt><trkpt lat="40.645010997651035" lon="14.699899936543396"><ele>32.0</ele><time>2026-04-26T13:35:26Z</time></trkpt><trkpt lat="40.645046969158436" lon="14.69998733624363"><ele>32.0</ele><time>2026-04-26T13:35:27Z</time></trkpt><trkpt lat="40.645081537889865" lon="14.700073536716411"><ele>31.999999999999996</ele><time>2026-04-26T13:35:28Z</time></trkpt><trkpt lat="40.645110885166766" lon="14.700159743799535"><ele>32.0</ele><time>2026-04-26T13:35:29Z</time></trkpt><trkpt lat="40.645137347515316" lon="14.700249256093057"><ele>32.0</ele><time>2026-04-26T13:35:30Z</time></trkpt><trkpt lat="40.64516467159745" lon="14.700338417641124"><ele>31.999999999999996</ele><time>2026-04-26T13:35:31Z</time></trkpt><trkpt lat="40.645196543617345" lon="14.700425971556996"><ele>32.0</ele><time>2026-04-26T13:35:32Z</time></trkpt><trkpt lat="40.645226602797" lon="14.700518075741785"><ele>32.0</ele><time>2026-04-26T13:35:33.001Z</time></trkpt><trkpt lat="40.64525615225102" lon="14.700611477686207"><ele>33.33333333333333</ele><time>2026-04-26T13:35:34.001Z</time></trkpt><trkpt lat="40.64528693957307" lon="14.70070712352182"><ele>34.666666666666664</ele><time>2026-04-26T13:35:35.001Z</time></trkpt><trkpt lat="40.645320843367564" lon="14.700801816175785"><ele>36.0</ele><time>2026-04-26T13:35:36.001Z</time></trkpt><trkpt lat="40.64534336729795" lon="14.700902668716587"><ele>37.333333333333336</ele><time>2026-04-26T13:35:37.001Z</time></trkpt><trkpt lat="40.64539187605534" lon="14.70099171331313"><ele>38.66666666666667</ele><time>2026-04-26T13:35:38.001Z</time></trkpt><trkpt lat="40.64546607096819" lon="14.701050888353494"><ele>40.0</ele><time>2026-04-26T13:35:39.001Z</time></trkpt><trkpt lat="40.64555230644" lon="14.701065504977956"><ele>34.66666666666667</ele><time>2026-04-26T13:35:40.001Z</time></trkpt><trkpt lat="40.645618850055065" lon="14.70112208179037"><ele>29.333333333333336</ele><time>2026-04-26T13:35:41.001Z</time></trkpt><trkpt lat="40.64569595165374" lon="14.701145131037947"><ele>24.0</ele><time>2026-04-26T13:35:42.001Z</time></trkpt><trkpt lat="40.645735879030326" lon="14.70123258100598"><ele>18.666666666666668</ele><time>2026-04-26T13:35:43.001Z</time></trkpt><trkpt lat="40.645789095429606" lon="14.701292616689381"><ele>13.333333333333332</ele><time>2026-04-26T13:35:44.001Z</time></trkpt><trkpt lat="40.64584894018571" lon="14.701420322890502"><ele>8.0</ele><time>2026-04-26T13:35:46.001Z</time></trkpt><trkpt lat="40.64596067521863" lon="14.701470147548955"><ele>7.999999999999999</ele><time>2026-04-26T13:35:48.001Z</time></trkpt><trkpt lat="40.64606327892025" lon="14.701440629135123"><ele>8.0</ele><time>2026-04-26T13:35:49.999Z</time></trkpt><trkpt lat="40.6461470652063" lon="14.701349707755385"><ele>8.0</ele><time>2026-04-26T13:35:51.999Z</time></trkpt><trkpt lat="40.6461905660387" lon="14.701262457673396"><ele>8.0</ele><time>2026-04-26T13:36:02.999Z</time></trkpt><trkpt lat="40.64623091491413" lon="14.701173137212221"><ele>7.999999999999999</ele><time>2026-04-26T13:36:04.999Z</time></trkpt><trkpt lat="40.64626766936196" lon="14.701092354874229"><ele>8.0</ele><time>2026-04-26T13:36:06.999Z</time></trkpt><trkpt lat="40.646325350393624" lon="14.700992657548134"><ele>10.714285714285714</ele><time>2026-04-26T13:36:09.999Z</time></trkpt><trkpt lat="40.646370278333244" lon="14.700923613385637"><ele>13.428571428571427</ele><time>2026-04-26T13:36:11.999Z</time></trkpt><trkpt lat="40.646405173628175" lon="14.700843964418583"><ele>16.142857142857142</ele><time>2026-04-26T13:36:13.999Z</time></trkpt><trkpt lat="40.6464606618746" lon="14.700786419767605"><ele>18.857142857142858</ele><time>2026-04-26T13:36:15.999Z</time></trkpt><trkpt lat="40.64651705032015" lon="14.700730693354114"><ele>21.57142857142857</ele><time>2026-04-26T13:36:17.999Z</time></trkpt><trkpt lat="40.64658073866697" lon="14.700685247570144"><ele>24.285714285714285</ele><time>2026-04-26T13:36:19.999Z</time></trkpt><trkpt lat="40.646637139086515" lon="14.70064006779323"><ele>27.0</ele><time>2026-04-26T13:36:21.999Z</time></trkpt><trkpt lat="40.64670760333931" lon="14.700597075986186"><ele>27.0</ele><time>2026-04-26T13:36:23.999Z</time></trkpt><trkpt lat="40.64680169360502" lon="14.700548270425259"><ele>27.000000000000004</ele><time>2026-04-26T13:36:25.999Z</time></trkpt><trkpt lat="40.64687862366104" lon="14.700502925558313"><ele>27.000000000000004</ele><time>2026-04-26T13:36:27.999Z</time></trkpt><trkpt lat="40.646956050796796" lon="14.700457029992444"><ele>27.0</ele><time>2026-04-26T13:36:29.999Z</time></trkpt><trkpt lat="40.64704069027831" lon="14.700416632196493"><ele>27.0</ele><time>2026-04-26T13:36:31.999Z</time></trkpt><trkpt lat="40.64712570567948" lon="14.700379781687667"><ele>26.0</ele><time>2026-04-26T13:36:33.999Z</time></trkpt><trkpt lat="40.64720404793376" lon="14.700349204265684"><ele>25.0</ele><time>2026-04-26T13:36:36Z</time></trkpt><trkpt lat="40.647272150449" lon="14.700341836632322"><ele>24.0</ele><time>2026-04-26T13:36:45Z</time></trkpt><trkpt lat="40.64734615560842" lon="14.700348585357919"><ele>23.0</ele><time>2026-04-26T13:36:53Z</time></trkpt><trkpt lat="40.64743190223316" lon="14.700371501100184"><ele>22.0</ele><time>2026-04-26T13:36:56Z</time></trkpt><trkpt lat="40.64749590899681" lon="14.70043665112305"><ele>21.0</ele><time>2026-04-26T13:36:58Z</time></trkpt><trkpt lat="40.64756554816441" lon="14.700517726820248"><ele>21.0</ele><time>2026-04-26T13:37:00Z</time></trkpt><trkpt lat="40.64762986218821" lon="14.700600820736508"><ele>21.0</ele><time>2026-04-26T13:37:02Z</time></trkpt><trkpt lat="40.647688595497335" lon="14.700680614986636"><ele>21.0</ele><time>2026-04-26T13:37:04Z</time></trkpt><trkpt lat="40.64771772612538" lon="14.700763891785193"><ele>21.0</ele><time>2026-04-26T13:37:06Z</time></trkpt><trkpt lat="40.647697744475785" lon="14.700856938024067"><ele>21.0</ele><time>2026-04-26T13:37:08Z</time></trkpt><trkpt lat="40.64764386371276" lon="14.700979449646546"><ele>21.0</ele><time>2026-04-26T13:37:10Z</time></trkpt><trkpt lat="40.64758151462146" lon="14.701106140209605"><ele>23.25</ele><time>2026-04-26T13:37:12Z</time></trkpt><trkpt lat="40.64754869445596" lon="14.70124306636339"><ele>25.5</ele><time>2026-04-26T13:37:14Z</time></trkpt><trkpt lat="40.64751702502302" lon="14.701389255439507"><ele>27.75</ele><time>2026-04-26T13:37:16Z</time></trkpt><trkpt lat="40.64746385643854" lon="14.70153458419086"><ele>30.0</ele><time>2026-04-26T13:37:18Z</time></trkpt><trkpt lat="40.64738943982138" lon="14.70166487129087"><ele>30.0</ele><time>2026-04-26T13:37:20Z</time></trkpt><trkpt lat="40.64733475134701" lon="14.701807511857975"><ele>30.0</ele><time>2026-04-26T13:37:22Z</time></trkpt><trkpt lat="40.64732050253217" lon="14.70196122889634"><ele>30.0</ele><time>2026-04-26T13:37:24.001Z</time></trkpt><trkpt lat="40.64729838339165" lon="14.702041969291036"><ele>30.0</ele><time>2026-04-26T13:37:25.001Z</time></trkpt><trkpt lat="40.64728144327843" lon="14.702125782882732"><ele>30.0</ele><time>2026-04-26T13:37:26.001Z</time></trkpt><trkpt lat="40.647282985645994" lon="14.702279013109209"><ele>30.166666666666668</ele><time>2026-04-26T13:37:28.001Z</time></trkpt><trkpt lat="40.64725536946101" lon="14.702442068106539"><ele>30.333333333333336</ele><time>2026-04-26T13:37:30.001Z</time></trkpt><trkpt lat="40.647221492277254" lon="14.702521480550088"><ele>30.5</ele><time>2026-04-26T13:37:31.001Z</time></trkpt><trkpt lat="40.64718676182234" lon="14.70260153827411"><ele>30.666666666666668</ele><time>2026-04-26T13:37:32.001Z</time></trkpt><trkpt lat="40.64713572362433" lon="14.702677758297863"><ele>30.833333333333336</ele><time>2026-04-26T13:37:33.001Z</time></trkpt><trkpt lat="40.64709796552798" lon="14.702772749638326"><ele>31.0</ele><time>2026-04-26T13:37:34.001Z</time></trkpt><trkpt lat="40.64707110556501" lon="14.702869048068326"><ele>31.000000000000004</ele><time>2026-04-26T13:37:35.001Z</time></trkpt><trkpt lat="40.647055891672714" lon="14.702968661753973"><ele>31.0</ele><time>2026-04-26T13:37:36.001Z</time></trkpt><trkpt lat="40.64706222636388" lon="14.703070169620107"><ele>31.0</ele><time>2026-04-26T13:37:37.001Z</time></trkpt><trkpt lat="40.64706757812311" lon="14.70316134631641"><ele>31.0</ele><time>2026-04-26T13:37:38.001Z</time></trkpt><trkpt lat="40.64707346495358" lon="14.703252863902188"><ele>31.000000000000004</ele><time>2026-04-26T13:37:39.001Z</time></trkpt><trkpt lat="40.64708621833757" lon="14.703347489100604"><ele>31.0</ele><time>2026-04-26T13:37:40.001Z</time></trkpt><trkpt lat="40.647120339526" lon="14.703450595249489"><ele>31.000000000000004</ele><time>2026-04-26T13:37:41.001Z</time></trkpt><trkpt lat="40.647173792633716" lon="14.703544386624415"><ele>31.0</ele><time>2026-04-26T13:37:42.001Z</time></trkpt><trkpt lat="40.64723820370741" lon="14.703628121976854"><ele>31.0</ele><time>2026-04-26T13:37:43.001Z</time></trkpt><trkpt lat="40.64732148160994" lon="14.703679833416366"><ele>31.0</ele><time>2026-04-26T13:37:44.001Z</time></trkpt><trkpt lat="40.647395963050016" lon="14.70373868383044"><ele>31.000000000000004</ele><time>2026-04-26T13:37:45.001Z</time></trkpt><trkpt lat="40.64747483840468" lon="14.703780299121714"><ele>31.0</ele><time>2026-04-26T13:37:46.001Z</time></trkpt><trkpt lat="40.64755956194337" lon="14.703803365783267"><ele>28.833333333333336</ele><time>2026-04-26T13:37:47.001Z</time></trkpt><trkpt lat="40.64764587781516" lon="14.703802521021402"><ele>26.666666666666668</ele><time>2026-04-26T13:37:48.001Z</time></trkpt><trkpt lat="40.6477202270184" lon="14.703768117893862"><ele>24.5</ele><time>2026-04-26T13:37:49.001Z</time></trkpt><trkpt lat="40.64778984175307" lon="14.703730539327209"><ele>22.333333333333336</ele><time>2026-04-26T13:37:50.001Z</time></trkpt><trkpt lat="40.647847688638834" lon="14.70367050572195"><ele>20.166666666666668</ele><time>2026-04-26T13:37:51.001Z</time></trkpt><trkpt lat="40.6479040464811" lon="14.703608311003796"><ele>18.0</ele><time>2026-04-26T13:37:52.001Z</time></trkpt><trkpt lat="40.6479626576645" lon="14.703545559806996"><ele>24.142857142857146</ele><time>2026-04-26T13:37:53.001Z</time></trkpt><trkpt lat="40.648029083881305" lon="14.703496109627542"><ele>30.285714285714285</ele><time>2026-04-26T13:37:54.001Z</time></trkpt><trkpt lat="40.64809009797189" lon="14.703448119700758"><ele>36.42857142857142</ele><time>2026-04-26T13:37:55Z</time></trkpt><trkpt lat="40.648154450655625" lon="14.703410574447153"><ele>42.57142857142857</ele><time>2026-04-26T13:37:56Z</time></trkpt><trkpt lat="40.64822502157989" lon="14.703385654795909"><ele>48.714285714285715</ele><time>2026-04-26T13:37:57Z</time></trkpt><trkpt lat="40.648298512435176" lon="14.703366875915219"><ele>54.85714285714285</ele><time>2026-04-26T13:37:58Z</time></trkpt><trkpt lat="40.64837308690548" lon="14.703355309164559"><ele>60.99999999999999</ele><time>2026-04-26T13:37:59Z</time></trkpt><trkpt lat="40.64844389945118" lon="14.703342333719853"><ele>60.99999999999999</ele><time>2026-04-26T13:38:00Z</time></trkpt><trkpt lat="40.64851286471389" lon="14.7033279645081"><ele>61.0</ele><time>2026-04-26T13:38:01Z</time></trkpt><trkpt lat="40.64857867256053" lon="14.703333712808183"><ele>60.99999999999999</ele><time>2026-04-26T13:38:02Z</time></trkpt><trkpt lat="40.64864249219788" lon="14.703351248440303"><ele>60.99999999999999</ele><time>2026-04-26T13:38:03Z</time></trkpt><trkpt lat="40.648700233435115" lon="14.703391105952145"><ele>61.0</ele><time>2026-04-26T13:38:04Z</time></trkpt><trkpt lat="40.648741013606" lon="14.703455923872552"><ele>60.99999999999999</ele><time>2026-04-26T13:38:05Z</time></trkpt><trkpt lat="40.648768025991785" lon="14.703538105030098"><ele>60.99999999999999</ele><time>2026-04-26T13:38:06Z</time></trkpt><trkpt lat="40.64879341671059" lon="14.7036172434919"><ele>57.28571428571428</ele><time>2026-04-26T13:38:07Z</time></trkpt><trkpt lat="40.64881880644323" lon="14.70370079632808"><ele>53.57142857142857</ele><time>2026-04-26T13:38:08Z</time></trkpt><trkpt lat="40.6488481011346" lon="14.70378416043782"><ele>49.857142857142854</ele><time>2026-04-26T13:38:09Z</time></trkpt><trkpt lat="40.64888265398025" lon="14.703868747220863"><ele>46.14285714285714</ele><time>2026-04-26T13:38:10Z</time></trkpt><trkpt lat="40.6489243538926" lon="14.703953385703045"><ele>42.42857142857143</ele><time>2026-04-26T13:38:11Z</time></trkpt><trkpt lat="40.64897326792126" lon="14.70402796049978"><ele>38.714285714285715</ele><time>2026-04-26T13:38:12Z</time></trkpt><trkpt lat="40.64902845216061" lon="14.7040915067628"><ele>35.0</ele><time>2026-04-26T13:38:13Z</time></trkpt><trkpt lat="40.64908946660473" lon="14.704140112221172"><ele>35.0</ele><time>2026-04-26T13:38:14Z</time></trkpt><trkpt lat="40.64915820215035" lon="14.704174390100373"><ele>35.0</ele><time>2026-04-26T13:38:15Z</time></trkpt><trkpt lat="40.64922274957671" lon="14.70423173824826"><ele>35.0</ele><time>2026-04-26T13:38:16Z</time></trkpt><trkpt lat="40.64930305872665" lon="14.704244836736791"><ele>35.0</ele><time>2026-04-26T13:38:17Z</time></trkpt><trkpt lat="40.6493825132912" lon="14.70426679731062"><ele>35.0</ele><time>2026-04-26T13:38:18Z</time></trkpt><trkpt lat="40.64946072162556" lon="14.704277200844151"><ele>35.0</ele><time>2026-04-26T13:38:19Z</time></trkpt><trkpt lat="40.64953650199104" lon="14.704290872256319"><ele>38.83333333333333</ele><time>2026-04-26T13:38:20Z</time></trkpt><trkpt lat="40.64960886422554" lon="14.704321684721352"><ele>42.666666666666664</ele><time>2026-04-26T13:38:21Z</time></trkpt><trkpt lat="40.649681376145715" lon="14.704365666660053"><ele>46.5</ele><time>2026-04-26T13:38:22Z</time></trkpt><trkpt lat="40.64975667729575" lon="14.704398458256488"><ele>50.33333333333333</ele><time>2026-04-26T13:38:23Z</time></trkpt><trkpt lat="40.6498403520201" lon="14.704396243760575"><ele>54.166666666666664</ele><time>2026-04-26T13:38:24Z</time></trkpt><trkpt lat="40.64993338046029" lon="14.70437900012447"><ele>58.0</ele><time>2026-04-26T13:38:25Z</time></trkpt><trkpt lat="40.65001400391688" lon="14.704304590682979"><ele>58.0</ele><time>2026-04-26T13:38:26Z</time></trkpt><trkpt lat="40.65010049161182" lon="14.70425250899081"><ele>58.0</ele><time>2026-04-26T13:38:27Z</time></trkpt><trkpt lat="40.65018659546354" lon="14.704211257143777"><ele>58.0</ele><time>2026-04-26T13:38:28Z</time></trkpt><trkpt lat="40.650270740588745" lon="14.704178278714062"><ele>58.0</ele><time>2026-04-26T13:38:29Z</time></trkpt><trkpt lat="40.650340882932746" lon="14.704152977761455"><ele>58.0</ele><time>2026-04-26T13:38:30Z</time></trkpt><trkpt lat="40.650454039475754" lon="14.70411264369201"><ele>55.599999999999994</ele><time>2026-04-26T13:38:32Z</time></trkpt><trkpt lat="40.65054271517806" lon="14.704087701278121"><ele>53.199999999999996</ele><time>2026-04-26T13:38:34Z</time></trkpt><trkpt lat="40.650627174720945" lon="14.704093629663124"><ele>50.8</ele><time>2026-04-26T13:38:36Z</time></trkpt><trkpt lat="40.650699459079874" lon="14.70419445369134"><ele>48.4</ele><time>2026-04-26T13:38:38Z</time></trkpt><trkpt lat="40.65067189825542" lon="14.704354900818714"><ele>46.0</ele><time>2026-04-26T13:38:40Z</time></trkpt><trkpt lat="40.650644162769645" lon="14.704432024893515"><ele>46.0</ele><time>2026-04-26T13:38:41Z</time></trkpt><trkpt lat="40.65060870446425" lon="14.70458339845767"><ele>46.0</ele><time>2026-04-26T13:38:43.001Z</time></trkpt><trkpt lat="40.65063014631428" lon="14.70466283195936"><ele>46.0</ele><time>2026-04-26T13:38:44.001Z</time></trkpt><trkpt lat="40.65067156793224" lon="14.704756618650089"><ele>46.0</ele><time>2026-04-26T13:38:45.001Z</time></trkpt><trkpt lat="40.65074717137609" lon="14.704819979651061"><ele>46.0</ele><time>2026-04-26T13:38:46.001Z</time></trkpt><trkpt lat="40.65083534496629" lon="14.704856738015607"><ele>46.0</ele><time>2026-04-26T13:38:47.001Z</time></trkpt><trkpt lat="40.650914671001274" lon="14.704908910789943"><ele>46.0</ele><time>2026-04-26T13:38:48.001Z</time></trkpt><trkpt lat="40.650986004619014" lon="14.704955878729539"><ele>46.0</ele><time>2026-04-26T13:38:49.001Z</time></trkpt><trkpt lat="40.651052665987585" lon="14.704998118587437"><ele>46.0</ele><time>2026-04-26T13:38:50.001Z</time></trkpt><trkpt lat="40.65111523346645" lon="14.705038612972556"><ele>46.0</ele><time>2026-04-26T13:38:51.001Z</time></trkpt><trkpt lat="40.651182489966715" lon="14.705077971097728"><ele>46.0</ele><time>2026-04-26T13:38:52.001Z</time></trkpt><trkpt lat="40.65125639706658" lon="14.705095807891587"><ele>46.0</ele><time>2026-04-26T13:38:53.001Z</time></trkpt><trkpt lat="40.651329985244345" lon="14.705108408594505"><ele>46.0</ele><time>2026-04-26T13:38:54.001Z</time></trkpt><trkpt lat="40.651402608125856" lon="14.70511782769945"><ele>47.285714285714285</ele><time>2026-04-26T13:38:55.001Z</time></trkpt><trkpt lat="40.65146144538875" lon="14.705154229172361"><ele>48.57142857142857</ele><time>2026-04-26T13:38:56.001Z</time></trkpt><trkpt lat="40.65149736421876" lon="14.705223991664854"><ele>49.857142857142854</ele><time>2026-04-26T13:38:57.001Z</time></trkpt><trkpt lat="40.6514967808588" lon="14.705313102494678"><ele>51.14285714285714</ele><time>2026-04-26T13:38:58.001Z</time></trkpt><trkpt lat="40.651486677841895" lon="14.705402430791489"><ele>52.42857142857143</ele><time>2026-04-26T13:38:59.001Z</time></trkpt><trkpt lat="40.65149270474528" lon="14.705498150707493"><ele>53.71428571428571</ele><time>2026-04-26T13:39:00.001Z</time></trkpt><trkpt lat="40.651519373391686" lon="14.70559733393799"><ele>55.0</ele><time>2026-04-26T13:39:01.001Z</time></trkpt><trkpt lat="40.651567474266905" lon="14.705686359948784"><ele>54.99999999999999</ele><time>2026-04-26T13:39:02.001Z</time></trkpt><trkpt lat="40.65162215840031" lon="14.705764603498125"><ele>55.0</ele><time>2026-04-26T13:39:03.001Z</time></trkpt><trkpt lat="40.65166008908802" lon="14.705853444018079"><ele>55.0</ele><time>2026-04-26T13:39:04.001Z</time></trkpt><trkpt lat="40.65173008325878" lon="14.705901795046044"><ele>55.0</ele><time>2026-04-26T13:39:05.001Z</time></trkpt><trkpt lat="40.6517965827392" lon="14.705952642903243"><ele>54.99999999999999</ele><time>2026-04-26T13:39:06.001Z</time></trkpt><trkpt lat="40.65187596901212" lon="14.705981783690419"><ele>55.0</ele><time>2026-04-26T13:39:07.001Z</time></trkpt><trkpt lat="40.65196040824291" lon="14.705988504471893"><ele>52.83333333333333</ele><time>2026-04-26T13:39:08.001Z</time></trkpt><trkpt lat="40.652044246992006" lon="14.70598209616543"><ele>50.666666666666664</ele><time>2026-04-26T13:39:09.001Z</time></trkpt><trkpt lat="40.65212824258688" lon="14.705981578463255"><ele>48.5</ele><time>2026-04-26T13:39:10.001Z</time></trkpt><trkpt lat="40.65220412112373" lon="14.70601881512975"><ele>46.33333333333333</ele><time>2026-04-26T13:39:11.001Z</time></trkpt><trkpt lat="40.652269052697235" lon="14.706078889512694"><ele>44.166666666666664</ele><time>2026-04-26T13:39:12.001Z</time></trkpt><trkpt lat="40.65234137781877" lon="14.706131248326626"><ele>42.0</ele><time>2026-04-26T13:39:13.001Z</time></trkpt><trkpt lat="40.65242067198044" lon="14.706151284974116"><ele>42.0</ele><time>2026-04-26T13:39:14.001Z</time></trkpt><trkpt lat="40.65249388000111" lon="14.706167434459493"><ele>42.0</ele><time>2026-04-26T13:39:15.001Z</time></trkpt><trkpt lat="40.65256187860678" lon="14.706190528032629"><ele>42.0</ele><time>2026-04-26T13:39:16.001Z</time></trkpt><trkpt lat="40.652626541866134" lon="14.706235082435848"><ele>42.0</ele><time>2026-04-26T13:39:17.001Z</time></trkpt><trkpt lat="40.65267454987201" lon="14.706311106745032"><ele>42.0</ele><time>2026-04-26T13:39:18.001Z</time></trkpt><trkpt lat="40.65271250043633" lon="14.706407257055716"><ele>42.0</ele><time>2026-04-26T13:39:19.001Z</time></trkpt><trkpt lat="40.65276980790527" lon="14.706494349982774"><ele>40.666666666666664</ele><time>2026-04-26T13:39:20.001Z</time></trkpt><trkpt lat="40.6528369544597" lon="14.706568361177904"><ele>39.333333333333336</ele><time>2026-04-26T13:39:21.001Z</time></trkpt><trkpt lat="40.6529017555152" lon="14.706650048601864"><ele>38.0</ele><time>2026-04-26T13:39:22.001Z</time></trkpt><trkpt lat="40.65296076947987" lon="14.7067336678973"><ele>36.66666666666667</ele><time>2026-04-26T13:39:23.001Z</time></trkpt><trkpt lat="40.653016707403616" lon="14.706820133463482"><ele>35.333333333333336</ele><time>2026-04-26T13:39:24.001Z</time></trkpt><trkpt lat="40.653075657187664" lon="14.706898614422215"><ele>34.0</ele><time>2026-04-26T13:39:25.001Z</time></trkpt><trkpt lat="40.653146231975896" lon="14.706945878029005"><ele>34.0</ele><time>2026-04-26T13:39:26.001Z</time></trkpt><trkpt lat="40.65323264213657" lon="14.706964026900597"><ele>34.0</ele><time>2026-04-26T13:39:27.001Z</time></trkpt><trkpt lat="40.65332329079265" lon="14.706960505371816"><ele>34.0</ele><time>2026-04-26T13:39:28.001Z</time></trkpt><trkpt lat="40.65341331433844" lon="14.706971206308575"><ele>34.0</ele><time>2026-04-26T13:39:29.001Z</time></trkpt><trkpt lat="40.65350333746399" lon="14.706987866413003"><ele>34.0</ele><time>2026-04-26T13:39:30.001Z</time></trkpt><trkpt lat="40.6535885168049" lon="14.707014220891145"><ele>34.0</ele><time>2026-04-26T13:39:31.001Z</time></trkpt><trkpt lat="40.65366510538377" lon="14.707033462512095"><ele>39.66666666666667</ele><time>2026-04-26T13:39:32.001Z</time></trkpt><trkpt lat="40.65373159288376" lon="14.707051830307016"><ele>45.333333333333336</ele><time>2026-04-26T13:39:33.001Z</time></trkpt><trkpt lat="40.65380608151654" lon="14.707140435491791"><ele>51.0</ele><time>2026-04-26T13:39:35.001Z</time></trkpt><trkpt lat="40.653811013340935" lon="14.707285623680312"><ele>56.66666666666667</ele><time>2026-04-26T13:39:37.001Z</time></trkpt><trkpt lat="40.6538301332749" lon="14.707382959404885"><ele>62.333333333333336</ele><time>2026-04-26T13:39:38.001Z</time></trkpt><trkpt lat="40.65387769266934" lon="14.707468902998615"><ele>68.0</ele><time>2026-04-26T13:39:39.001Z</time></trkpt><trkpt lat="40.65392199616141" lon="14.707546177161397"><ele>68.0</ele><time>2026-04-26T13:39:40.001Z</time></trkpt><trkpt lat="40.65395846753013" lon="14.707642400821507"><ele>68.0</ele><time>2026-04-26T13:39:41.001Z</time></trkpt><trkpt lat="40.65402364887958" lon="14.707728061638417"><ele>68.0</ele><time>2026-04-26T13:39:42.001Z</time></trkpt><trkpt lat="40.65411403222146" lon="14.707785721809769"><ele>68.0</ele><time>2026-04-26T13:39:43.001Z</time></trkpt><trkpt lat="40.65421158329991" lon="14.707796797882498"><ele>68.0</ele><time>2026-04-26T13:39:44.001Z</time></trkpt><trkpt lat="40.65429697034698" lon="14.707848642878682"><ele>66.16666666666667</ele><time>2026-04-26T13:39:45.001Z</time></trkpt><trkpt lat="40.6543855464618" lon="14.707879682345752"><ele>64.33333333333334</ele><time>2026-04-26T13:39:46.001Z</time></trkpt><trkpt lat="40.65447570959639" lon="14.707900005667614"><ele>62.5</ele><time>2026-04-26T13:39:47.001Z</time></trkpt><trkpt lat="40.65454745023808" lon="14.707972685373516"><ele>60.66666666666667</ele><time>2026-04-26T13:39:48.001Z</time></trkpt><trkpt lat="40.654614077026515" lon="14.70803442148886"><ele>58.833333333333336</ele><time>2026-04-26T13:39:49.001Z</time></trkpt><trkpt lat="40.6546947907495" lon="14.708080900225836"><ele>57.0</ele><time>2026-04-26T13:39:50.001Z</time></trkpt><trkpt lat="40.65479042874687" lon="14.708086074928687"><ele>57.0</ele><time>2026-04-26T13:39:51.001Z</time></trkpt><trkpt lat="40.65486774324983" lon="14.708088976292965"><ele>57.0</ele><time>2026-04-26T13:39:52.001Z</time></trkpt><trkpt lat="40.654950042695695" lon="14.708116190703828"><ele>57.0</ele><time>2026-04-26T13:39:53.001Z</time></trkpt><trkpt lat="40.65501209717249" lon="14.708182242525925"><ele>57.0</ele><time>2026-04-26T13:39:54.001Z</time></trkpt><trkpt lat="40.65508663870765" lon="14.70824265073603"><ele>57.0</ele><time>2026-04-26T13:39:55.001Z</time></trkpt><trkpt lat="40.65518205692459" lon="14.708282223040593"><ele>57.0</ele><time>2026-04-26T13:39:56.001Z</time></trkpt><trkpt lat="40.655279091078846" lon="14.708282174616027"><ele>59.333333333333336</ele><time>2026-04-26T13:39:57.001Z</time></trkpt><trkpt lat="40.65536159195906" lon="14.708283706600636"><ele>61.66666666666667</ele><time>2026-04-26T13:39:58.001Z</time></trkpt><trkpt lat="40.65543577883192" lon="14.708303002855393"><ele>64.0</ele><time>2026-04-26T13:39:59.001Z</time></trkpt><trkpt lat="40.65551478920459" lon="14.708327074810061"><ele>66.33333333333334</ele><time>2026-04-26T13:40:00Z</time></trkpt><trkpt lat="40.65559590363432" lon="14.708332569370233"><ele>68.66666666666667</ele><time>2026-04-26T13:40:01Z</time></trkpt><trkpt lat="40.65567029111704" lon="14.708367193686163"><ele>71.0</ele><time>2026-04-26T13:40:02Z</time></trkpt><trkpt lat="40.65575222789053" lon="14.70836338084277"><ele>71.0</ele><time>2026-04-26T13:40:03Z</time></trkpt><trkpt lat="40.65583215344966" lon="14.708325954920117"><ele>71.0</ele><time>2026-04-26T13:40:04Z</time></trkpt><trkpt lat="40.65590114805852" lon="14.708291134636303"><ele>71.0</ele><time>2026-04-26T13:40:05Z</time></trkpt><trkpt lat="40.65600304217314" lon="14.708229927653013"><ele>71.0</ele><time>2026-04-26T13:40:07Z</time></trkpt><trkpt lat="40.656114481795285" lon="14.708233398167565"><ele>71.0</ele><time>2026-04-26T13:40:09Z</time></trkpt><trkpt lat="40.65617311896646" lon="14.708270944976903"><ele>71.0</ele><time>2026-04-26T13:40:10Z</time></trkpt><trkpt lat="40.656221156303175" lon="14.708339341976899"><ele>68.66666666666667</ele><time>2026-04-26T13:40:11Z</time></trkpt><trkpt lat="40.65624584199609" lon="14.708434999335775"><ele>66.33333333333334</ele><time>2026-04-26T13:40:12Z</time></trkpt><trkpt lat="40.656253395754206" lon="14.708540451336301"><ele>64.0</ele><time>2026-04-26T13:40:13Z</time></trkpt><trkpt lat="40.656274507173606" lon="14.70863987082791"><ele>61.66666666666667</ele><time>2026-04-26T13:40:14Z</time></trkpt><trkpt lat="40.65632321225005" lon="14.708730460809797"><ele>59.333333333333336</ele><time>2026-04-26T13:40:15Z</time></trkpt><trkpt lat="40.65639415433982" lon="14.708800686307912"><ele>57.0</ele><time>2026-04-26T13:40:16Z</time></trkpt><trkpt lat="40.656477560325186" lon="14.708852110363209"><ele>57.0</ele><time>2026-04-26T13:40:17Z</time></trkpt><trkpt lat="40.65656026935031" lon="14.708896679958167"><ele>57.0</ele><time>2026-04-26T13:40:18Z</time></trkpt><trkpt lat="40.656638903663364" lon="14.70894779571677"><ele>57.0</ele><time>2026-04-26T13:40:19Z</time></trkpt><trkpt lat="40.65671814446446" lon="14.708992969501177"><ele>57.0</ele><time>2026-04-26T13:40:20Z</time></trkpt><trkpt lat="40.65679764797843" lon="14.709032636627931"><ele>57.0</ele><time>2026-04-26T13:40:21Z</time></trkpt><trkpt lat="40.65687526048787" lon="14.709056938029255"><ele>57.0</ele><time>2026-04-26T13:40:22Z</time></trkpt><trkpt lat="40.656947449144035" lon="14.70908349477057"><ele>58.166666666666664</ele><time>2026-04-26T13:40:23Z</time></trkpt><trkpt lat="40.65701363477072" lon="14.709128000921837"><ele>59.33333333333333</ele><time>2026-04-26T13:40:24Z</time></trkpt><trkpt lat="40.65707760604385" lon="14.709181363498754"><ele>60.5</ele><time>2026-04-26T13:40:25Z</time></trkpt><trkpt lat="40.65713962722689" lon="14.709237702795866"><ele>61.666666666666664</ele><time>2026-04-26T13:40:26Z</time></trkpt><trkpt lat="40.657196159223375" lon="14.709305387812979"><ele>62.83333333333333</ele><time>2026-04-26T13:40:27Z</time></trkpt><trkpt lat="40.65723953477686" lon="14.709389224098631"><ele>64.0</ele><time>2026-04-26T13:40:28Z</time></trkpt><trkpt lat="40.65728879126751" lon="14.709471370338628"><ele>63.99999999999999</ele><time>2026-04-26T13:40:29Z</time></trkpt><trkpt lat="40.65733931803955" lon="14.709555614106955"><ele>64.0</ele><time>2026-04-26T13:40:30Z</time></trkpt><trkpt lat="40.657386174744204" lon="14.70964975423481"><ele>64.0</ele><time>2026-04-26T13:40:31Z</time></trkpt><trkpt lat="40.657438977641185" lon="14.709742584367232"><ele>64.0</ele><time>2026-04-26T13:40:32Z</time></trkpt><trkpt lat="40.65749913753851" lon="14.709830920759478"><ele>63.99999999999999</ele><time>2026-04-26T13:40:33Z</time></trkpt><trkpt lat="40.65755914170998" lon="14.709914609323489"><ele>64.0</ele><time>2026-04-26T13:40:34.001Z</time></trkpt><trkpt lat="40.65761617318387" lon="14.709998818602106"><ele>63.99999999999999</ele><time>2026-04-26T13:40:35.001Z</time></trkpt><trkpt lat="40.65768290143948" lon="14.710067155839319"><ele>64.0</ele><time>2026-04-26T13:40:36.001Z</time></trkpt><trkpt lat="40.657759674629666" lon="14.710108803696416"><ele>64.0</ele><time>2026-04-26T13:40:37.001Z</time></trkpt><trkpt lat="40.65784155410865" lon="14.710130392739236"><ele>64.0</ele><time>2026-04-26T13:40:38.001Z</time></trkpt><trkpt lat="40.6579213315872" lon="14.710173718047614"><ele>63.99999999999999</ele><time>2026-04-26T13:40:39.001Z</time></trkpt><trkpt lat="40.65800991897211" lon="14.710181696001685"><ele>64.0</ele><time>2026-04-26T13:40:40.001Z</time></trkpt><trkpt lat="40.65809047285173" lon="14.710208477950959"><ele>65.5</ele><time>2026-04-26T13:40:41.001Z</time></trkpt><trkpt lat="40.65816486058712" lon="14.710241383655232"><ele>67.0</ele><time>2026-04-26T13:40:42.001Z</time></trkpt><trkpt lat="40.65822594791888" lon="14.710301567752142"><ele>68.5</ele><time>2026-04-26T13:40:43.001Z</time></trkpt><trkpt lat="40.65827447808823" lon="14.710390584985607"><ele>70.0</ele><time>2026-04-26T13:40:44.001Z</time></trkpt><trkpt lat="40.65829267827501" lon="14.710501590177875"><ele>71.5</ele><time>2026-04-26T13:40:45.001Z</time></trkpt><trkpt lat="40.65826629338479" lon="14.710616312291352"><ele>73.0</ele><time>2026-04-26T13:40:46.001Z</time></trkpt><trkpt lat="40.658216166927836" lon="14.710720409937563"><ele>73.0</ele><time>2026-04-26T13:40:47.001Z</time></trkpt><trkpt lat="40.65817161681175" lon="14.71083264054175"><ele>73.0</ele><time>2026-04-26T13:40:48.001Z</time></trkpt><trkpt lat="40.658135851491586" lon="14.710946148971642"><ele>73.0</ele><time>2026-04-26T13:40:49.001Z</time></trkpt><trkpt lat="40.65812377216071" lon="14.711060205316958"><ele>73.0</ele><time>2026-04-26T13:40:50.001Z</time></trkpt><trkpt lat="40.65816076563226" lon="14.711164849806622"><ele>73.0</ele><time>2026-04-26T13:40:51.001Z</time></trkpt><trkpt lat="40.65822706481108" lon="14.711251820255235"><ele>72.6</ele><time>2026-04-26T13:40:52.001Z</time></trkpt><trkpt lat="40.658310047677304" lon="14.711305058245115"><ele>72.19999999999999</ele><time>2026-04-26T13:40:53.001Z</time></trkpt><trkpt lat="40.658405259349145" lon="14.711315078699126"><ele>71.8</ele><time>2026-04-26T13:40:54.001Z</time></trkpt><trkpt lat="40.65850344162131" lon="14.711278985170207"><ele>71.39999999999999</ele><time>2026-04-26T13:40:55.001Z</time></trkpt><trkpt lat="40.65860599812447" lon="14.711273369967461"><ele>71.0</ele><time>2026-04-26T13:40:56.001Z</time></trkpt><trkpt lat="40.65869156199181" lon="14.711239465777865"><ele>71.0</ele><time>2026-04-26T13:40:57.001Z</time></trkpt><trkpt lat="40.65877582492336" lon="14.711228479009034"><ele>71.0</ele><time>2026-04-26T13:40:58.001Z</time></trkpt><trkpt lat="40.65886052736785" lon="14.711223275910701"><ele>71.0</ele><time>2026-04-26T13:40:59.001Z</time></trkpt><trkpt lat="40.65894843831269" lon="14.71124974971445"><ele>71.0</ele><time>2026-04-26T13:41:00.001Z</time></trkpt><trkpt lat="40.65903057393193" lon="14.711303152892894"><ele>71.0</ele><time>2026-04-26T13:41:01.001Z</time></trkpt><trkpt lat="40.659107005460825" lon="14.711380458270186"><ele>71.0</ele><time>2026-04-26T13:41:02.001Z</time></trkpt><trkpt lat="40.659173218100335" lon="14.711474632153772"><ele>71.0</ele><time>2026-04-26T13:41:03.001Z</time></trkpt><trkpt lat="40.65923001232976" lon="14.711565371238738"><ele>71.0</ele><time>2026-04-26T13:41:04.001Z</time></trkpt><trkpt lat="40.65930241768781" lon="14.711642531661255"><ele>71.0</ele><time>2026-04-26T13:41:05.001Z</time></trkpt><trkpt lat="40.65938166048379" lon="14.71169907554173"><ele>71.0</ele><time>2026-04-26T13:41:06.001Z</time></trkpt><trkpt lat="40.659462195997094" lon="14.711751458451364"><ele>71.0</ele><time>2026-04-26T13:41:07.001Z</time></trkpt><trkpt lat="40.65954574305567" lon="14.711799930485734"><ele>66.8</ele><time>2026-04-26T13:41:08.001Z</time></trkpt><trkpt lat="40.65963218271877" lon="14.711849630386835"><ele>62.599999999999994</ele><time>2026-04-26T13:41:09.001Z</time></trkpt><trkpt lat="40.65972046919939" lon="14.711899414340799"><ele>58.4</ele><time>2026-04-26T13:41:10.001Z</time></trkpt><trkpt lat="40.65981137135307" lon="14.711943505326671"><ele>54.2</ele><time>2026-04-26T13:41:11.001Z</time></trkpt><trkpt lat="40.6599073247426" lon="14.711972077884163"><ele>50.0</ele><time>2026-04-26T13:41:12.001Z</time></trkpt><trkpt lat="40.66000937833004" lon="14.711981161565229"><ele>50.0</ele><time>2026-04-26T13:41:13.001Z</time></trkpt><trkpt lat="40.66011120568099" lon="14.711989911112253"><ele>50.0</ele><time>2026-04-26T13:41:14.001Z</time></trkpt><trkpt lat="40.66021137733461" lon="14.712012807693975"><ele>50.0</ele><time>2026-04-26T13:41:15.001Z</time></trkpt><trkpt lat="40.66030643058007" lon="14.712041372020424"><ele>50.0</ele><time>2026-04-26T13:41:16.001Z</time></trkpt><trkpt lat="40.660397348810726" lon="14.712074528714803"><ele>50.0</ele><time>2026-04-26T13:41:17.001Z</time></trkpt><trkpt lat="40.6604927007055" lon="14.71211575939216"><ele>52.8</ele><time>2026-04-26T13:41:18.001Z</time></trkpt><trkpt lat="40.66059194505907" lon="14.712166882933207"><ele>55.6</ele><time>2026-04-26T13:41:19.001Z</time></trkpt><trkpt lat="40.66069556561228" lon="14.712208326841207"><ele>58.400000000000006</ele><time>2026-04-26T13:41:20.001Z</time></trkpt><trkpt lat="40.66079996822133" lon="14.7122554706552"><ele>61.2</ele><time>2026-04-26T13:41:21.001Z</time></trkpt><trkpt lat="40.66090110797747" lon="14.712299938403204"><ele>64.0</ele><time>2026-04-26T13:41:22.001Z</time></trkpt><trkpt lat="40.66099658566858" lon="14.7123396955612"><ele>63.99999999999999</ele><time>2026-04-26T13:41:23.001Z</time></trkpt><trkpt lat="40.66108704473304" lon="14.712378844530294"><ele>64.0</ele><time>2026-04-26T13:41:24.001Z</time></trkpt><trkpt lat="40.66117350121512" lon="14.712413384590189"><ele>64.0</ele><time>2026-04-26T13:41:25.001Z</time></trkpt><trkpt lat="40.66124589440867" lon="14.71243761438885"><ele>64.0</ele><time>2026-04-26T13:41:26.001Z</time></trkpt><trkpt lat="40.6613174582903" lon="14.712466424838466"><ele>63.99999999999999</ele><time>2026-04-26T13:41:27.001Z</time></trkpt><trkpt lat="40.66138036794384" lon="14.712490966530677"><ele>64.0</ele><time>2026-04-26T13:41:28.001Z</time></trkpt><trkpt lat="40.66150234936889" lon="14.712488209534865"><ele>66.66666666666666</ele><time>2026-04-26T13:41:30.001Z</time></trkpt><trkpt lat="40.661562678921406" lon="14.71245013186263"><ele>69.33333333333333</ele><time>2026-04-26T13:41:31.001Z</time></trkpt><trkpt lat="40.66161932873639" lon="14.712393189255936"><ele>72.0</ele><time>2026-04-26T13:41:32.001Z</time></trkpt><trkpt lat="40.661669756967655" lon="14.712319129112704"><ele>74.66666666666667</ele><time>2026-04-26T13:41:33.001Z</time></trkpt><trkpt lat="40.66172163671925" lon="14.712239764194077"><ele>77.33333333333334</ele><time>2026-04-26T13:41:34.001Z</time></trkpt><trkpt lat="40.66177575844194" lon="14.712157847375307"><ele>80.0</ele><time>2026-04-26T13:41:35.001Z</time></trkpt><trkpt lat="40.66183225032092" lon="14.712084102001912"><ele>80.0</ele><time>2026-04-26T13:41:36.001Z</time></trkpt><trkpt lat="40.66188541302555" lon="14.712017576618587"><ele>80.0</ele><time>2026-04-26T13:41:37.001Z</time></trkpt><trkpt lat="40.66193760659101" lon="14.711955886571795"><ele>80.0</ele><time>2026-04-26T13:41:38.001Z</time></trkpt><trkpt lat="40.662002226078855" lon="14.71192137782409"><ele>80.0</ele><time>2026-04-26T13:41:39.001Z</time></trkpt><trkpt lat="40.66207171185989" lon="14.711912047656567"><ele>80.0</ele><time>2026-04-26T13:41:40.001Z</time></trkpt><trkpt lat="40.66214863088663" lon="14.711964413886376"><ele>80.0</ele><time>2026-04-26T13:41:41.001Z</time></trkpt><trkpt lat="40.662194817494736" lon="14.712064852955494"><ele>83.8</ele><time>2026-04-26T13:41:42.001Z</time></trkpt><trkpt lat="40.66221566330497" lon="14.712170637796179"><ele>87.6</ele><time>2026-04-26T13:41:43.001Z</time></trkpt><trkpt lat="40.66223390453482" lon="14.712288682102994"><ele>91.4</ele><time>2026-04-26T13:41:44.001Z</time></trkpt><trkpt lat="40.66224495832006" lon="14.712441766440119"><ele>95.2</ele><time>2026-04-26T13:41:45.002Z</time></trkpt><trkpt lat="40.66225496165125" lon="14.712567092826138"><ele>99.0</ele><time>2026-04-26T13:41:46.002Z</time></trkpt><trkpt lat="40.66227710036005" lon="14.712698470807043"><ele>94.8</ele><time>2026-04-26T13:41:47.002Z</time></trkpt><trkpt lat="40.662289937521294" lon="14.712824424439837"><ele>90.60000000000001</ele><time>2026-04-26T13:41:48.002Z</time></trkpt><trkpt lat="40.66230694502702" lon="14.712952394871284"><ele>86.4</ele><time>2026-04-26T13:41:49.002Z</time></trkpt><trkpt lat="40.66232143037487" lon="14.71307547733868"><ele>82.2</ele><time>2026-04-26T13:41:50.002Z</time></trkpt><trkpt lat="40.66233560479173" lon="14.713191757622022"><ele>78.0</ele><time>2026-04-26T13:41:51.002Z</time></trkpt><trkpt lat="40.662353458577954" lon="14.713300780334952"><ele>78.0</ele><time>2026-04-26T13:41:52.002Z</time></trkpt><trkpt lat="40.66237468468775" lon="14.713385690684273"><ele>78.0</ele><time>2026-04-26T13:41:53.002Z</time></trkpt><trkpt lat="40.66241881861945" lon="14.713453059093007"><ele>78.0</ele><time>2026-04-26T13:41:54.002Z</time></trkpt><trkpt lat="40.66248973403058" lon="14.713490373009225"><ele>78.0</ele><time>2026-04-26T13:41:55.002Z</time></trkpt><trkpt lat="40.66256497457473" lon="14.713499512999658"><ele>78.0</ele><time>2026-04-26T13:41:56.002Z</time></trkpt><trkpt lat="40.662637334048746" lon="14.713503911912818"><ele>78.0</ele><time>2026-04-26T13:41:57.002Z</time></trkpt><trkpt lat="40.662708138312496" lon="14.713517063171613"><ele>78.0</ele><time>2026-04-26T13:41:58.002Z</time></trkpt><trkpt lat="40.66277794831546" lon="14.713545930694462"><ele>75.16666666666667</ele><time>2026-04-26T13:41:59.002Z</time></trkpt><trkpt lat="40.66284766089005" lon="14.713595922257472"><ele>72.33333333333333</ele><time>2026-04-26T13:42:00.002Z</time></trkpt><trkpt lat="40.66290977730344" lon="14.713666793933355"><ele>69.5</ele><time>2026-04-26T13:42:01.002Z</time></trkpt><trkpt lat="40.662956519967814" lon="14.713755610408796"><ele>66.66666666666666</ele><time>2026-04-26T13:42:02.002Z</time></trkpt><trkpt lat="40.663001180892245" lon="14.713848309117875"><ele>63.83333333333333</ele><time>2026-04-26T13:42:03.002Z</time></trkpt><trkpt lat="40.663054300415716" lon="14.713933552108113"><ele>61.0</ele><time>2026-04-26T13:42:04.002Z</time></trkpt><trkpt lat="40.66311571378818" lon="14.71400283739801"><ele>60.99999999999999</ele><time>2026-04-26T13:42:05.002Z</time></trkpt><trkpt lat="40.66318539908766" lon="14.714047974160849"><ele>61.0</ele><time>2026-04-26T13:42:06Z</time></trkpt><trkpt lat="40.66326982059445" lon="14.714062181668917"><ele>61.0</ele><time>2026-04-26T13:42:07Z</time></trkpt><trkpt lat="40.663357752675466" lon="14.71405066396482"><ele>61.0</ele><time>2026-04-26T13:42:08Z</time></trkpt><trkpt lat="40.66344566900551" lon="14.714024982119895"><ele>60.99999999999999</ele><time>2026-04-26T13:42:09Z</time></trkpt><trkpt lat="40.66352553861832" lon="14.714003852289954"><ele>61.0</ele><time>2026-04-26T13:42:10Z</time></trkpt><trkpt lat="40.66359573637894" lon="14.713984853824067"><ele>60.14285714285713</ele><time>2026-04-26T13:42:11Z</time></trkpt><trkpt lat="40.66366492218295" lon="14.713960453227466"><ele>59.285714285714285</ele><time>2026-04-26T13:42:12Z</time></trkpt><trkpt lat="40.66373410810026" lon="14.71394271630771"><ele>58.42857142857142</ele><time>2026-04-26T13:42:13Z</time></trkpt><trkpt lat="40.663805045741405" lon="14.713923961036215"><ele>57.57142857142857</ele><time>2026-04-26T13:42:14Z</time></trkpt><trkpt lat="40.663875383988724" lon="14.713897695645379"><ele>56.71428571428571</ele><time>2026-04-26T13:42:15Z</time></trkpt><trkpt lat="40.66393358641192" lon="14.713840321996669"><ele>55.857142857142854</ele><time>2026-04-26T13:42:16Z</time></trkpt><trkpt lat="40.66398997857758" lon="14.71376923421165"><ele>55.0</ele><time>2026-04-26T13:42:17Z</time></trkpt><trkpt lat="40.66403017896407" lon="14.713684595817906"><ele>54.99999999999999</ele><time>2026-04-26T13:42:18Z</time></trkpt><trkpt lat="40.66406828306542" lon="14.713600094118938"><ele>55.0</ele><time>2026-04-26T13:42:19Z</time></trkpt><trkpt lat="40.66412126877431" lon="14.713520145599691"><ele>55.0</ele><time>2026-04-26T13:42:20Z</time></trkpt><trkpt lat="40.66417783074289" lon="14.713447376370361"><ele>55.0</ele><time>2026-04-26T13:42:21Z</time></trkpt><trkpt lat="40.6642407156096" lon="14.713390765297582"><ele>54.99999999999999</ele><time>2026-04-26T13:42:22Z</time></trkpt><trkpt lat="40.66430731489701" lon="14.713349045663607"><ele>55.0</ele><time>2026-04-26T13:42:23Z</time></trkpt><trkpt lat="40.66437730047455" lon="14.713315782479023"><ele>56.14285714285714</ele><time>2026-04-26T13:42:24Z</time></trkpt><trkpt lat="40.66444733165122" lon="14.713289322393749"><ele>57.285714285714285</ele><time>2026-04-26T13:42:25Z</time></trkpt><trkpt lat="40.66451122812443" lon="14.713259145106347"><ele>58.42857142857143</ele><time>2026-04-26T13:42:26Z</time></trkpt><trkpt lat="40.66457068394541" lon="14.713222043044453"><ele>59.57142857142857</ele><time>2026-04-26T13:42:27Z</time></trkpt><trkpt lat="40.664624157521644" lon="14.713175372049632"><ele>60.714285714285715</ele><time>2026-04-26T13:42:28Z</time></trkpt><trkpt lat="40.66467007977635" lon="14.713112321199539"><ele>61.857142857142854</ele><time>2026-04-26T13:42:29Z</time></trkpt><trkpt lat="40.664714271062635" lon="14.713045856546335"><ele>63.0</ele><time>2026-04-26T13:42:30Z</time></trkpt><trkpt lat="40.664760854494865" lon="14.71298197943966"><ele>63.0</ele><time>2026-04-26T13:42:31.001Z</time></trkpt><trkpt lat="40.66480737579597" lon="14.712920840835864"><ele>63.0</ele><time>2026-04-26T13:42:32.001Z</time></trkpt><trkpt lat="40.66489801901854" lon="14.712806236267706"><ele>63.0</ele><time>2026-04-26T13:42:34.001Z</time></trkpt><trkpt lat="40.66494560157001" lon="14.712744159796507"><ele>63.0</ele><time>2026-04-26T13:42:35.001Z</time></trkpt><trkpt lat="40.664991143784185" lon="14.712683470904423"><ele>63.0</ele><time>2026-04-26T13:42:36.001Z</time></trkpt><trkpt lat="40.665059651897444" lon="14.712588880035339"><ele>63.0</ele><time>2026-04-26T13:42:38.001Z</time></trkpt><trkpt lat="40.665130760429655" lon="14.712525844167278"><ele>66.4</ele><time>2026-04-26T13:42:40.001Z</time></trkpt><trkpt lat="40.665231636277426" lon="14.712510923581519"><ele>69.8</ele><time>2026-04-26T13:42:42.001Z</time></trkpt><trkpt lat="40.66535219362715" lon="14.712566836492686"><ele>73.2</ele><time>2026-04-26T13:42:44.001Z</time></trkpt><trkpt lat="40.66543570333527" lon="14.712612050047388"><ele>76.6</ele><time>2026-04-26T13:42:46.001Z</time></trkpt><trkpt lat="40.665505169239374" lon="14.71265277373918"><ele>80.0</ele><time>2026-04-26T13:42:48.001Z</time></trkpt><trkpt lat="40.6655980392093" lon="14.712706664758633"><ele>81.0</ele><time>2026-04-26T13:42:50.001Z</time></trkpt><trkpt lat="40.66568015357393" lon="14.712817443915267"><ele>82.0</ele><time>2026-04-26T13:42:52.001Z</time></trkpt><trkpt lat="40.66569992022629" lon="14.712898268148393"><ele>83.0</ele><time>2026-04-26T13:42:53.001Z</time></trkpt><trkpt lat="40.66570210959157" lon="14.712989197272439"><ele>84.0</ele><time>2026-04-26T13:42:54.001Z</time></trkpt><trkpt lat="40.66569129014243" lon="14.713087276360763"><ele>85.0</ele><time>2026-04-26T13:42:55.001Z</time></trkpt><trkpt lat="40.6656670951593" lon="14.713187995718451"><ele>86.0</ele><time>2026-04-26T13:42:56.001Z</time></trkpt><trkpt lat="40.66563485067209" lon="14.713293731012467"><ele>86.0</ele><time>2026-04-26T13:42:57.001Z</time></trkpt><trkpt lat="40.6656019259758" lon="14.713406366774764"><ele>86.0</ele><time>2026-04-26T13:42:58.001Z</time></trkpt><trkpt lat="40.665563772208195" lon="14.713522693887493"><ele>86.0</ele><time>2026-04-26T13:42:59.001Z</time></trkpt><trkpt lat="40.66552588627182" lon="14.713644648008982"><ele>86.0</ele><time>2026-04-26T13:43:00.001Z</time></trkpt><trkpt lat="40.665484925804186" lon="14.713770268464987"><ele>86.0</ele><time>2026-04-26T13:43:01.001Z</time></trkpt><trkpt lat="40.66544528033844" lon="14.713895020697013"><ele>89.6</ele><time>2026-04-26T13:43:02.001Z</time></trkpt><trkpt lat="40.66539521248047" lon="14.714017354000301"><ele>93.19999999999999</ele><time>2026-04-26T13:43:03.001Z</time></trkpt><trkpt lat="40.66535118823667" lon="14.714141737220048"><ele>96.80000000000001</ele><time>2026-04-26T13:43:04.001Z</time></trkpt><trkpt lat="40.66530994533346" lon="14.714267980151195"><ele>100.4</ele><time>2026-04-26T13:43:05.001Z</time></trkpt><trkpt lat="40.665269868044454" lon="14.714389117423346"><ele>104.0</ele><time>2026-04-26T13:43:06.001Z</time></trkpt><trkpt lat="40.66522231037769" lon="14.714509737012838"><ele>96.8</ele><time>2026-04-26T13:43:07.001Z</time></trkpt><trkpt lat="40.66517526803681" lon="14.714630369207923"><ele>89.60000000000001</ele><time>2026-04-26T13:43:08.001Z</time></trkpt><trkpt lat="40.665125661241525" lon="14.714752085085747"><ele>82.4</ele><time>2026-04-26T13:43:09.001Z</time></trkpt><trkpt lat="40.665079548915166" lon="14.714864032486107"><ele>75.2</ele><time>2026-04-26T13:43:10.001Z</time></trkpt><trkpt lat="40.66503919317751" lon="14.714969965545142"><ele>68.0</ele><time>2026-04-26T13:43:11.001Z</time></trkpt><trkpt lat="40.6650005169702" lon="14.715064763827934"><ele>68.0</ele><time>2026-04-26T13:43:12.001Z</time></trkpt><trkpt lat="40.66496459592321" lon="14.715158864806615"><ele>68.0</ele><time>2026-04-26T13:43:13.001Z</time></trkpt><trkpt lat="40.664925752269546" lon="14.715248152719191"><ele>68.0</ele><time>2026-04-26T13:43:14.001Z</time></trkpt><trkpt lat="40.66488236980378" lon="14.715342018872342"><ele>68.0</ele><time>2026-04-26T13:43:15.001Z</time></trkpt><trkpt lat="40.66483678674675" lon="14.71544397616258"><ele>68.0</ele><time>2026-04-26T13:43:16.001Z</time></trkpt><trkpt lat="40.66479514186524" lon="14.715551597186996"><ele>68.0</ele><time>2026-04-26T13:43:17.001Z</time></trkpt><trkpt lat="40.66475037677844" lon="14.715658657196835"><ele>68.2</ele><time>2026-04-26T13:43:18.001Z</time></trkpt><trkpt lat="40.66470413473737" lon="14.715765282269258"><ele>68.4</ele><time>2026-04-26T13:43:19.001Z</time></trkpt><trkpt lat="40.66465926326462" lon="14.715870562839276"><ele>68.60000000000001</ele><time>2026-04-26T13:43:20.001Z</time></trkpt><trkpt lat="40.66461808724562" lon="14.715976528761486"><ele>68.8</ele><time>2026-04-26T13:43:21.001Z</time></trkpt><trkpt lat="40.66460018087015" lon="14.716091718973672"><ele>69.0</ele><time>2026-04-26T13:43:22.001Z</time></trkpt><trkpt lat="40.66459656117482" lon="14.716208015660644"><ele>69.0</ele><time>2026-04-26T13:43:23.001Z</time></trkpt><trkpt lat="40.66461198983355" lon="14.716322704834907"><ele>69.0</ele><time>2026-04-26T13:43:24.001Z</time></trkpt><trkpt lat="40.66464451726801" lon="14.716432465712726"><ele>69.0</ele><time>2026-04-26T13:43:25.001Z</time></trkpt><trkpt lat="40.6646959059581" lon="14.716520498616566"><ele>69.0</ele><time>2026-04-26T13:43:26.001Z</time></trkpt><trkpt lat="40.66475655241984" lon="14.716602003123727"><ele>69.0</ele><time>2026-04-26T13:43:27.001Z</time></trkpt><trkpt lat="40.664836299232036" lon="14.716654935209343"><ele>69.0</ele><time>2026-04-26T13:43:28.001Z</time></trkpt><trkpt lat="40.66492260593017" lon="14.716697267415551"><ele>69.0</ele><time>2026-04-26T13:43:29.001Z</time></trkpt><trkpt lat="40.66500207068677" lon="14.71675319060751"><ele>69.0</ele><time>2026-04-26T13:43:30.001Z</time></trkpt><trkpt lat="40.6650827101379" lon="14.716813597550855"><ele>69.0</ele><time>2026-04-26T13:43:31.001Z</time></trkpt><trkpt lat="40.665159937946406" lon="14.716874146482205"><ele>69.0</ele><time>2026-04-26T13:43:32.001Z</time></trkpt><trkpt lat="40.66524548918931" lon="14.716920987005059"><ele>69.0</ele><time>2026-04-26T13:43:33.001Z</time></trkpt><trkpt lat="40.66532668783135" lon="14.716984655667437"><ele>68.4</ele><time>2026-04-26T13:43:34.001Z</time></trkpt><trkpt lat="40.665405346256755" lon="14.71704188199158"><ele>67.80000000000001</ele><time>2026-04-26T13:43:35.001Z</time></trkpt><trkpt lat="40.66548175792476" lon="14.717096353911346"><ele>67.19999999999999</ele><time>2026-04-26T13:43:36.001Z</time></trkpt><trkpt lat="40.665563181134104" lon="14.717147608820872"><ele>66.6</ele><time>2026-04-26T13:43:37.001Z</time></trkpt><trkpt lat="40.66564800185776" lon="14.717202418941774"><ele>66.0</ele><time>2026-04-26T13:43:38.001Z</time></trkpt><trkpt lat="40.665735271454196" lon="14.717257014376253"><ele>66.0</ele><time>2026-04-26T13:43:39.001Z</time></trkpt><trkpt lat="40.66580734390599" lon="14.717305530682186"><ele>66.0</ele><time>2026-04-26T13:43:40.001Z</time></trkpt><trkpt lat="40.665899275381264" lon="14.71736306739616"><ele>66.0</ele><time>2026-04-26T13:43:42.002Z</time></trkpt><trkpt lat="40.66597081298715" lon="14.717403202387153"><ele>66.0</ele><time>2026-04-26T13:43:44.002Z</time></trkpt><trkpt lat="40.66604962552766" lon="14.717438138457926"><ele>66.0</ele><time>2026-04-26T13:43:46.002Z</time></trkpt><trkpt lat="40.66614685501195" lon="14.71747880679831"><ele>66.0</ele><time>2026-04-26T13:43:48.002Z</time></trkpt><trkpt lat="40.66620660122735" lon="14.717506711961597"><ele>64.0</ele><time>2026-04-26T13:43:49.002Z</time></trkpt><trkpt lat="40.666272493471205" lon="14.717537808510693"><ele>62.0</ele><time>2026-04-26T13:43:50.002Z</time></trkpt><trkpt lat="40.66634765441825" lon="14.717576270011095"><ele>60.0</ele><time>2026-04-26T13:43:51.002Z</time></trkpt><trkpt lat="40.666430441455006" lon="14.71762372635874"><ele>58.0</ele><time>2026-04-26T13:43:52.002Z</time></trkpt><trkpt lat="40.666511788355635" lon="14.717687268903424"><ele>56.0</ele><time>2026-04-26T13:43:53.002Z</time></trkpt><trkpt lat="40.666597311216066" lon="14.717741015794045"><ele>54.0</ele><time>2026-04-26T13:43:54.002Z</time></trkpt><trkpt lat="40.66667889191669" lon="14.717802343726623"><ele>54.0</ele><time>2026-04-26T13:43:55.002Z</time></trkpt><trkpt lat="40.66674738753046" lon="14.717861723141668"><ele>54.00000000000001</ele><time>2026-04-26T13:43:56.002Z</time></trkpt><trkpt lat="40.666796696772444" lon="14.71791739730616"><ele>54.00000000000001</ele><time>2026-04-26T13:43:57.002Z</time></trkpt><trkpt lat="40.66685994601002" lon="14.718061052800763"><ele>54.0</ele><time>2026-04-26T13:43:59.002Z</time></trkpt><trkpt lat="40.666899436781605" lon="14.718129123023584"><ele>54.0</ele><time>2026-04-26T13:44:00.002Z</time></trkpt><trkpt lat="40.66700631845791" lon="14.71823503558184"><ele>58.166666666666664</ele><time>2026-04-26T13:44:02.002Z</time></trkpt><trkpt lat="40.667079015030346" lon="14.718258016706848"><ele>62.33333333333333</ele><time>2026-04-26T13:44:03.002Z</time></trkpt><trkpt lat="40.66715581176264" lon="14.718265381461613"><ele>66.5</ele><time>2026-04-26T13:44:04.002Z</time></trkpt><trkpt lat="40.66723918395493" lon="14.71825291663809"><ele>70.66666666666666</ele><time>2026-04-26T13:44:05.002Z</time></trkpt><trkpt lat="40.66731825679695" lon="14.718284236911128"><ele>74.83333333333333</ele><time>2026-04-26T13:44:06.002Z</time></trkpt><trkpt lat="40.667395517917384" lon="14.718337871318969"><ele>79.0</ele><time>2026-04-26T13:44:07.002Z</time></trkpt><trkpt lat="40.667464234254645" lon="14.718395769318946"><ele>79.0</ele><time>2026-04-26T13:44:08.002Z</time></trkpt><trkpt lat="40.667515535851486" lon="14.71848251597387"><ele>79.0</ele><time>2026-04-26T13:44:09.002Z</time></trkpt><trkpt lat="40.667551673838204" lon="14.718572887958654"><ele>79.0</ele><time>2026-04-26T13:44:10.002Z</time></trkpt><trkpt lat="40.667591558423645" lon="14.718654316096698"><ele>79.0</ele><time>2026-04-26T13:44:11.002Z</time></trkpt><trkpt lat="40.667638153349124" lon="14.71872441666196"><ele>79.0</ele><time>2026-04-26T13:44:12.001Z</time></trkpt><trkpt lat="40.66770382893402" lon="14.718774584656384"><ele>79.0</ele><time>2026-04-26T13:44:13.001Z</time></trkpt><trkpt lat="40.66778355857708" lon="14.718814411675899"><ele>77.60000000000001</ele><time>2026-04-26T13:44:14.001Z</time></trkpt><trkpt lat="40.667875001688344" lon="14.718788775685525"><ele>76.2</ele><time>2026-04-26T13:44:15.001Z</time></trkpt><trkpt lat="40.66796656103378" lon="14.718804914488668"><ele>74.80000000000001</ele><time>2026-04-26T13:44:16.001Z</time></trkpt><trkpt lat="40.668062547730564" lon="14.718856361247719"><ele>73.4</ele><time>2026-04-26T13:44:17.001Z</time></trkpt><trkpt lat="40.66814952453157" lon="14.718912849739654"><ele>72.0</ele><time>2026-04-26T13:44:18.001Z</time></trkpt><trkpt lat="40.668233705874535" lon="14.718972499736818"><ele>72.0</ele><time>2026-04-26T13:44:19.001Z</time></trkpt><trkpt lat="40.668306621105415" lon="14.71904369994677"><ele>72.0</ele><time>2026-04-26T13:44:20.001Z</time></trkpt><trkpt lat="40.66836858758124" lon="14.71909086819694"><ele>72.0</ele><time>2026-04-26T13:44:21.001Z</time></trkpt><trkpt lat="40.668463342702104" lon="14.71912876066253"><ele>72.0</ele><time>2026-04-26T13:44:23.001Z</time></trkpt><trkpt lat="40.66853581780352" lon="14.7191510069011"><ele>72.0</ele><time>2026-04-26T13:44:25.001Z</time></trkpt><trkpt lat="40.66860285941427" lon="14.719231218265879"><ele>72.0</ele><time>2026-04-26T13:44:27.001Z</time></trkpt><trkpt lat="40.6686790446243" lon="14.719343412435883"><ele>76.16666666666667</ele><time>2026-04-26T13:44:29.001Z</time></trkpt><trkpt lat="40.66872596724842" lon="14.719471644708076"><ele>80.33333333333334</ele><time>2026-04-26T13:44:31.001Z</time></trkpt><trkpt lat="40.66874950484521" lon="14.719571699179642"><ele>84.5</ele><time>2026-04-26T13:44:33.001Z</time></trkpt><trkpt lat="40.66875050898507" lon="14.719680649660013"><ele>88.66666666666667</ele><time>2026-04-26T13:44:36.001Z</time></trkpt><trkpt lat="40.668736892381055" lon="14.719780417740873"><ele>92.83333333333334</ele><time>2026-04-26T13:46:16.002Z</time></trkpt><trkpt lat="40.66871468040192" lon="14.719860868543378"><ele>97.0</ele><time>2026-04-26T13:46:19.001Z</time></trkpt><trkpt lat="40.66869690072595" lon="14.719955369810005"><ele>97.0</ele><time>2026-04-26T13:46:22.001Z</time></trkpt><trkpt lat="40.66867848854302" lon="14.720070758700672"><ele>97.0</ele><time>2026-04-26T13:46:25.001Z</time></trkpt><trkpt lat="40.66868305261108" lon="14.720188111662948"><ele>97.0</ele><time>2026-04-26T13:46:27.001Z</time></trkpt><trkpt lat="40.66871824983561" lon="14.720305348407384"><ele>97.0</ele><time>2026-04-26T13:46:29.001Z</time></trkpt><trkpt lat="40.66877750368532" lon="14.72043767585431"><ele>97.0</ele><time>2026-04-26T13:46:31.001Z</time></trkpt><trkpt lat="40.668847088528196" lon="14.720567912945132"><ele>90.8</ele><time>2026-04-26T13:46:33.001Z</time></trkpt><trkpt lat="40.66891563132933" lon="14.72069531504762"><ele>84.6</ele><time>2026-04-26T13:46:35.001Z</time></trkpt><trkpt lat="40.66900138304561" lon="14.72082550626835"><ele>78.39999999999999</ele><time>2026-04-26T13:46:37.001Z</time></trkpt><trkpt lat="40.66903924095659" lon="14.720899040532908"><ele>72.19999999999999</ele><time>2026-04-26T13:46:38.001Z</time></trkpt><trkpt lat="40.66908480090963" lon="14.720969758337954"><ele>66.0</ele><time>2026-04-26T13:46:39.001Z</time></trkpt><trkpt lat="40.66914591784484" lon="14.72102111310684"><ele>66.0</ele><time>2026-04-26T13:46:40.001Z</time></trkpt><trkpt lat="40.669261224888686" lon="14.721057384270697"><ele>66.0</ele><time>2026-04-26T13:46:42.001Z</time></trkpt><trkpt lat="40.66936487505912" lon="14.721055180012998"><ele>66.0</ele><time>2026-04-26T13:46:44.001Z</time></trkpt><trkpt lat="40.669455794162225" lon="14.721169886228928"><ele>66.0</ele><time>2026-04-26T13:46:46.001Z</time></trkpt><trkpt lat="40.66948955324068" lon="14.721251050969812"><ele>66.0</ele><time>2026-04-26T13:46:47.001Z</time></trkpt><trkpt lat="40.66952530460544" lon="14.721332442974273"><ele>67.0</ele><time>2026-04-26T13:46:48.001Z</time></trkpt><trkpt lat="40.66956986598717" lon="14.721407539390883"><ele>68.0</ele><time>2026-04-26T13:46:49.001Z</time></trkpt><trkpt lat="40.66963131523985" lon="14.721468471761101"><ele>69.0</ele><time>2026-04-26T13:46:50.001Z</time></trkpt><trkpt lat="40.66969404614272" lon="14.721529377887489"><ele>70.0</ele><time>2026-04-26T13:46:51.001Z</time></trkpt><trkpt lat="40.66976819269987" lon="14.721533107627346"><ele>71.0</ele><time>2026-04-26T13:46:52.001Z</time></trkpt><trkpt lat="40.66989078223332" lon="14.721536775366255"><ele>72.0</ele><time>2026-04-26T13:46:54.001Z</time></trkpt><trkpt lat="40.67000800025641" lon="14.721593971193556"><ele>72.00000000000001</ele><time>2026-04-26T13:46:56.001Z</time></trkpt><trkpt lat="40.670054794818846" lon="14.721667107176701"><ele>72.0</ele><time>2026-04-26T13:46:57.001Z</time></trkpt><trkpt lat="40.670091870951815" lon="14.721750741220065"><ele>72.0</ele><time>2026-04-26T13:46:58.001Z</time></trkpt><trkpt lat="40.67013231829341" lon="14.721822728407224"><ele>72.0</ele><time>2026-04-26T13:46:59.001Z</time></trkpt><trkpt lat="40.67016686938305" lon="14.721902391506802"><ele>72.0</ele><time>2026-04-26T13:47:00.001Z</time></trkpt><trkpt lat="40.67019684897256" lon="14.721984502235383"><ele>72.00000000000001</ele><time>2026-04-26T13:47:01.001Z</time></trkpt><trkpt lat="40.670236627015115" lon="14.722060522589668"><ele>72.0</ele><time>2026-04-26T13:47:02.001Z</time></trkpt><trkpt lat="40.67028126131754" lon="14.722136083757672"><ele>71.00000000000001</ele><time>2026-04-26T13:47:03.001Z</time></trkpt><trkpt lat="40.67035945560024" lon="14.722151323149204"><ele>70.0</ele><time>2026-04-26T13:47:04.001Z</time></trkpt><trkpt lat="40.6704320702554" lon="14.72215622438577"><ele>69.0</ele><time>2026-04-26T13:47:05.001Z</time></trkpt><trkpt lat="40.6705019581481" lon="14.722144297495804"><ele>68.0</ele><time>2026-04-26T13:47:06.001Z</time></trkpt><trkpt lat="40.67057096297808" lon="14.722109241601846"><ele>67.0</ele><time>2026-04-26T13:47:07.001Z</time></trkpt><trkpt lat="40.67063910834393" lon="14.722068832467658"><ele>66.00000000000001</ele><time>2026-04-26T13:47:08.001Z</time></trkpt><trkpt lat="40.67070969363391" lon="14.722029287114077"><ele>65.0</ele><time>2026-04-26T13:47:09.001Z</time></trkpt><trkpt lat="40.670767997258494" lon="14.72198726144086"><ele>68.2</ele><time>2026-04-26T13:47:10.001Z</time></trkpt><trkpt lat="40.67085533672099" lon="14.721866569584545"><ele>71.4</ele><time>2026-04-26T13:47:12.001Z</time></trkpt><trkpt lat="40.67089039459304" lon="14.721792528489598"><ele>74.6</ele><time>2026-04-26T13:47:13.001Z</time></trkpt><trkpt lat="40.67095302131843" lon="14.721658614038965"><ele>77.8</ele><time>2026-04-26T13:47:15.001Z</time></trkpt><trkpt lat="40.67104499835532" lon="14.721567588283804"><ele>81.0</ele><time>2026-04-26T13:47:17.001Z</time></trkpt><trkpt lat="40.67115740018344" lon="14.721522947364251"><ele>82.85714285714286</ele><time>2026-04-26T13:47:19.001Z</time></trkpt><trkpt lat="40.67122124368754" lon="14.721552569958737"><ele>84.71428571428571</ele><time>2026-04-26T13:47:20.001Z</time></trkpt><trkpt lat="40.67127261791849" lon="14.721617502862378"><ele>86.57142857142857</ele><time>2026-04-26T13:47:21.001Z</time></trkpt><trkpt lat="40.67130324550395" lon="14.721708567569411"><ele>88.42857142857143</ele><time>2026-04-26T13:47:22.001Z</time></trkpt><trkpt lat="40.67131416544962" lon="14.721813755967917"><ele>90.28571428571428</ele><time>2026-04-26T13:47:23.001Z</time></trkpt><trkpt lat="40.67133054514552" lon="14.721907952707936"><ele>92.14285714285714</ele><time>2026-04-26T13:47:24.001Z</time></trkpt><trkpt lat="40.67134184358694" lon="14.722007605092418"><ele>94.0</ele><time>2026-04-26T13:47:25.001Z</time></trkpt><trkpt lat="40.67134126151151" lon="14.722111193302709"><ele>94.0</ele><time>2026-04-26T13:47:26.001Z</time></trkpt><trkpt lat="40.671313427917816" lon="14.722214531190431"><ele>94.0</ele><time>2026-04-26T13:47:27.001Z</time></trkpt><trkpt lat="40.67126262957692" lon="14.722313704202953"><ele>94.0</ele><time>2026-04-26T13:47:28.001Z</time></trkpt><trkpt lat="40.67120686695651" lon="14.722412301179345"><ele>94.0</ele><time>2026-04-26T13:47:29.001Z</time></trkpt><trkpt lat="40.67116542752821" lon="14.722525399342103"><ele>94.0</ele><time>2026-04-26T13:47:30.001Z</time></trkpt><trkpt lat="40.671125474849084" lon="14.722645160725223"><ele>89.8</ele><time>2026-04-26T13:47:31.001Z</time></trkpt><trkpt lat="40.67106734404339" lon="14.722755728982634"><ele>85.60000000000001</ele><time>2026-04-26T13:47:32.001Z</time></trkpt><trkpt lat="40.67098788898916" lon="14.722847410664675"><ele>81.4</ele><time>2026-04-26T13:47:33.001Z</time></trkpt><trkpt lat="40.67089847643525" lon="14.722926512289279"><ele>77.2</ele><time>2026-04-26T13:47:34.002Z</time></trkpt><trkpt lat="40.670807356060585" lon="14.722993912700394"><ele>73.0</ele><time>2026-04-26T13:47:35.002Z</time></trkpt><trkpt lat="40.6707177386157" lon="14.72304275985963"><ele>73.0</ele><time>2026-04-26T13:47:36.002Z</time></trkpt><trkpt lat="40.67064244492764" lon="14.723085478102371"><ele>73.0</ele><time>2026-04-26T13:47:37.002Z</time></trkpt><trkpt lat="40.6705798059869" lon="14.723152595411966"><ele>73.0</ele><time>2026-04-26T13:47:38.002Z</time></trkpt><trkpt lat="40.67053671731275" lon="14.723239745282031"><ele>73.0</ele><time>2026-04-26T13:47:39.002Z</time></trkpt><trkpt lat="40.67051681347313" lon="14.723348346288883"><ele>73.0</ele><time>2026-04-26T13:47:40.002Z</time></trkpt><trkpt lat="40.67053287753689" lon="14.723462222558089"><ele>73.0</ele><time>2026-04-26T13:47:41.002Z</time></trkpt><trkpt lat="40.67056981168958" lon="14.723571193853003"><ele>71.6</ele><time>2026-04-26T13:47:42.002Z</time></trkpt><trkpt lat="40.67060666632015" lon="14.723686297757421"><ele>70.19999999999999</ele><time>2026-04-26T13:47:43.002Z</time></trkpt><trkpt lat="40.67064672674919" lon="14.723800709769788"><ele>68.8</ele><time>2026-04-26T13:47:44.002Z</time></trkpt><trkpt lat="40.67068730072328" lon="14.723911966363467"><ele>67.39999999999999</ele><time>2026-04-26T13:47:45.002Z</time></trkpt><trkpt lat="40.67073511387296" lon="14.724016186716478"><ele>66.0</ele><time>2026-04-26T13:47:46.002Z</time></trkpt><trkpt lat="40.67078536252597" lon="14.724125287563758"><ele>66.0</ele><time>2026-04-26T13:47:47.002Z</time></trkpt><trkpt lat="40.67083885968096" lon="14.72423640443179"><ele>66.0</ele><time>2026-04-26T13:47:48.002Z</time></trkpt><trkpt lat="40.670891552868305" lon="14.724347579543744"><ele>66.0</ele><time>2026-04-26T13:47:49.002Z</time></trkpt><trkpt lat="40.67093688012858" lon="14.724460145407704"><ele>66.0</ele><time>2026-04-26T13:47:50.002Z</time></trkpt><trkpt lat="40.67097983252093" lon="14.724568940627302"><ele>66.0</ele><time>2026-04-26T13:47:51.002Z</time></trkpt><trkpt lat="40.67102092448286" lon="14.724669146642169"><ele>66.5</ele><time>2026-04-26T13:47:52.002Z</time></trkpt><trkpt lat="40.67105985010908" lon="14.72476501468393"><ele>67.0</ele><time>2026-04-26T13:47:53.002Z</time></trkpt><trkpt lat="40.671097493061104" lon="14.724853086501868"><ele>67.5</ele><time>2026-04-26T13:47:54.002Z</time></trkpt><trkpt lat="40.67114880673394" lon="14.724923689960502"><ele>68.0</ele><time>2026-04-26T13:47:55.002Z</time></trkpt><trkpt lat="40.67122338717569" lon="14.724957392082896"><ele>68.5</ele><time>2026-04-26T13:47:56.002Z</time></trkpt><trkpt lat="40.67130959123402" lon="14.724961496106312"><ele>69.0</ele><time>2026-04-26T13:47:57.002Z</time></trkpt><trkpt lat="40.67140035326058" lon="14.724949899874973"><ele>69.0</ele><time>2026-04-26T13:47:58.002Z</time></trkpt><trkpt lat="40.671492543223785" lon="14.724935101411624"><ele>69.0</ele><time>2026-04-26T13:47:59.002Z</time></trkpt><trkpt lat="40.6715810438393" lon="14.724933220598597"><ele>69.0</ele><time>2026-04-26T13:48:00.002Z</time></trkpt><trkpt lat="40.67166457249162" lon="14.724962476188194"><ele>69.0</ele><time>2026-04-26T13:48:01.002Z</time></trkpt><trkpt lat="40.67173794457154" lon="14.72502282119145"><ele>69.0</ele><time>2026-04-26T13:48:02.002Z</time></trkpt><trkpt lat="40.671807394075216" lon="14.725087965041526"><ele>69.0</ele><time>2026-04-26T13:48:03.002Z</time></trkpt><trkpt lat="40.67188025107056" lon="14.725146562537004"><ele>69.16666666666667</ele><time>2026-04-26T13:48:04.002Z</time></trkpt><trkpt lat="40.6719594437792" lon="14.725188233371046"><ele>69.33333333333333</ele><time>2026-04-26T13:48:05.002Z</time></trkpt><trkpt lat="40.67204317953701" lon="14.725197302024247"><ele>69.5</ele><time>2026-04-26T13:48:06.002Z</time></trkpt><trkpt lat="40.672129620044736" lon="14.725176574278262"><ele>69.66666666666666</ele><time>2026-04-26T13:48:07.002Z</time></trkpt><trkpt lat="40.67221339275084" lon="14.725130117361417"><ele>69.83333333333333</ele><time>2026-04-26T13:48:08.002Z</time></trkpt><trkpt lat="40.67230069356914" lon="14.72506316766083"><ele>70.0</ele><time>2026-04-26T13:48:09.002Z</time></trkpt><trkpt lat="40.6723922104204" lon="14.72499998006849"><ele>70.0</ele><time>2026-04-26T13:48:10.002Z</time></trkpt><trkpt lat="40.672494444368425" lon="14.724950164811709"><ele>70.0</ele><time>2026-04-26T13:48:11.002Z</time></trkpt><trkpt lat="40.67260336968415" lon="14.724907498172367"><ele>70.0</ele><time>2026-04-26T13:48:12.002Z</time></trkpt><trkpt lat="40.672715296790265" lon="14.72486620053945"><ele>70.0</ele><time>2026-04-26T13:48:13.002Z</time></trkpt><trkpt lat="40.6728217707224" lon="14.724836116119244"><ele>70.0</ele><time>2026-04-26T13:48:14.002Z</time></trkpt><trkpt lat="40.672922999916615" lon="14.724814270231896"><ele>67.5</ele><time>2026-04-26T13:48:15.002Z</time></trkpt><trkpt lat="40.6730205582583" lon="14.72479540069972"><ele>65.0</ele><time>2026-04-26T13:48:16.002Z</time></trkpt><trkpt lat="40.67311600997523" lon="14.724774060405384"><ele>62.5</ele><time>2026-04-26T13:48:17.002Z</time></trkpt><trkpt lat="40.673202532876246" lon="14.72475206607188"><ele>60.0</ele><time>2026-04-26T13:48:18.002Z</time></trkpt><trkpt lat="40.67328303226732" lon="14.72473596751323"><ele>57.49999999999999</ele><time>2026-04-26T13:48:19.002Z</time></trkpt><trkpt lat="40.673362288154266" lon="14.724717510162753"><ele>55.0</ele><time>2026-04-26T13:48:20.002Z</time></trkpt><trkpt lat="40.67344016495951" lon="14.724700185808848"><ele>54.99999999999999</ele><time>2026-04-26T13:48:21.002Z</time></trkpt><trkpt lat="40.67351507415958" lon="14.724685863433988"><ele>55.0</ele><time>2026-04-26T13:48:22.002Z</time></trkpt><trkpt lat="40.673589894415166" lon="14.72468561890323"><ele>55.0</ele><time>2026-04-26T13:48:23.002Z</time></trkpt><trkpt lat="40.6736603278077" lon="14.724715561606407"><ele>55.0</ele><time>2026-04-26T13:48:24.001Z</time></trkpt><trkpt lat="40.67372457164793" lon="14.724774579007118"><ele>54.99999999999999</ele><time>2026-04-26T13:48:25.001Z</time></trkpt><trkpt lat="40.67377144874003" lon="14.72486496198672"><ele>55.0</ele><time>2026-04-26T13:48:26.001Z</time></trkpt><trkpt lat="40.67380571100184" lon="14.724975125643661"><ele>53.666666666666664</ele><time>2026-04-26T13:48:27.001Z</time></trkpt><trkpt lat="40.67384747585895" lon="14.725083280586416"><ele>52.33333333333333</ele><time>2026-04-26T13:48:28.001Z</time></trkpt><trkpt lat="40.673891861864305" lon="14.725188993869757"><ele>51.0</ele><time>2026-04-26T13:48:29.001Z</time></trkpt><trkpt lat="40.67393605998954" lon="14.725291580369447"><ele>49.666666666666664</ele><time>2026-04-26T13:48:30.001Z</time></trkpt><trkpt lat="40.6739757271777" lon="14.725388829160158"><ele>48.33333333333333</ele><time>2026-04-26T13:48:31.001Z</time></trkpt><trkpt lat="40.67401080132764" lon="14.725481096933292"><ele>47.0</ele><time>2026-04-26T13:48:32.001Z</time></trkpt><trkpt lat="40.674027760802495" lon="14.72557185768249"><ele>52.166666666666664</ele><time>2026-04-26T13:48:33.001Z</time></trkpt><trkpt lat="40.67400926837136" lon="14.725669557753362"><ele>57.33333333333333</ele><time>2026-04-26T13:48:34.001Z</time></trkpt><trkpt lat="40.673951483770324" lon="14.725753800404009"><ele>62.5</ele><time>2026-04-26T13:48:35.001Z</time></trkpt><trkpt lat="40.67388377664093" lon="14.725813242446383"><ele>67.66666666666667</ele><time>2026-04-26T13:48:36.001Z</time></trkpt><trkpt lat="40.67382334644481" lon="14.72589161228568"><ele>72.83333333333333</ele><time>2026-04-26T13:48:37.001Z</time></trkpt><trkpt lat="40.67376607145451" lon="14.72599189610063"><ele>78.0</ele><time>2026-04-26T13:48:38.001Z</time></trkpt><trkpt lat="40.673715884870326" lon="14.726097944285334"><ele>79.0</ele><time>2026-04-26T13:48:39.001Z</time></trkpt><trkpt lat="40.67368248917865" lon="14.726207718053445"><ele>80.0</ele><time>2026-04-26T13:48:40.001Z</time></trkpt><trkpt lat="40.67365264308804" lon="14.726312207808366"><ele>81.0</ele><time>2026-04-26T13:48:41.001Z</time></trkpt><trkpt lat="40.67362022112194" lon="14.726411527273227"><ele>82.0</ele><time>2026-04-26T13:48:42.001Z</time></trkpt><trkpt lat="40.67358424181508" lon="14.726501940556137"><ele>83.0</ele><time>2026-04-26T13:48:43.001Z</time></trkpt><trkpt lat="40.67355473328341" lon="14.726597847468875"><ele>84.0</ele><time>2026-04-26T13:48:44.001Z</time></trkpt><trkpt lat="40.6735273599639" lon="14.726692131504526"><ele>83.14285714285714</ele><time>2026-04-26T13:48:45.001Z</time></trkpt><trkpt lat="40.67350015707709" lon="14.726786810816272"><ele>82.28571428571428</ele><time>2026-04-26T13:48:46.001Z</time></trkpt><trkpt lat="40.67346842941671" lon="14.72687661047846"><ele>81.42857142857143</ele><time>2026-04-26T13:48:47.001Z</time></trkpt><trkpt lat="40.67344080408893" lon="14.726969458494077"><ele>80.57142857142857</ele><time>2026-04-26T13:48:48.001Z</time></trkpt><trkpt lat="40.67341274472871" lon="14.727050079418058"><ele>79.71428571428571</ele><time>2026-04-26T13:48:49.001Z</time></trkpt><trkpt lat="40.67338019740874" lon="14.727136369991879"><ele>78.85714285714286</ele><time>2026-04-26T13:48:51.001Z</time></trkpt><trkpt lat="40.67335781616055" lon="14.727232842618527"><ele>78.0</ele><time>2026-04-26T13:48:55.001Z</time></trkpt><trkpt lat="40.67330435206605" lon="14.727311989917467"><ele>78.0</ele><time>2026-04-26T13:48:59.001Z</time></trkpt><trkpt lat="40.6732798400521" lon="14.727398446154679"><ele>78.0</ele><time>2026-04-26T13:49:01.001Z</time></trkpt><trkpt lat="40.673249533560536" lon="14.727502017613192"><ele>78.0</ele><time>2026-04-26T13:49:04.001Z</time></trkpt><trkpt lat="40.67320892526459" lon="14.727588870413149"><ele>78.0</ele><time>2026-04-26T13:49:07.001Z</time></trkpt><trkpt lat="40.67318434726261" lon="14.727668996224402"><ele>78.0</ele><time>2026-04-26T13:49:10.001Z</time></trkpt><trkpt lat="40.67317224170342" lon="14.727768764658322"><ele>78.0</ele><time>2026-04-26T13:49:15.001Z</time></trkpt><trkpt lat="40.67318285949889" lon="14.727868607296255"><ele>80.0</ele><time>2026-04-26T13:49:23.001Z</time></trkpt><trkpt lat="40.673239868830954" lon="14.727973906735428"><ele>82.0</ele><time>2026-04-26T13:49:25.001Z</time></trkpt><trkpt lat="40.67329559883272" lon="14.7280934448759"><ele>84.0</ele><time>2026-04-26T13:49:27.001Z</time></trkpt><trkpt lat="40.67329125521159" lon="14.728217717638088"><ele>86.0</ele><time>2026-04-26T13:49:29.001Z</time></trkpt><trkpt lat="40.67326331738868" lon="14.728313068622311"><ele>88.0</ele><time>2026-04-26T13:49:31.001Z</time></trkpt><trkpt lat="40.67322456720108" lon="14.728391330510345"><ele>90.0</ele><time>2026-04-26T13:49:33.001Z</time></trkpt><trkpt lat="40.67316926137995" lon="14.728465859814499"><ele>90.0</ele><time>2026-04-26T13:49:35.001Z</time></trkpt><trkpt lat="40.673098857116514" lon="14.728521907273612"><ele>90.0</ele><time>2026-04-26T13:49:37.001Z</time></trkpt><trkpt lat="40.67301526073171" lon="14.728546394786632"><ele>90.0</ele><time>2026-04-26T13:49:39.001Z</time></trkpt><trkpt lat="40.67293686182476" lon="14.728586458881784"><ele>90.0</ele><time>2026-04-26T13:49:41.001Z</time></trkpt><trkpt lat="40.67287083292781" lon="14.728616829128198"><ele>90.0</ele><time>2026-04-26T13:49:43.001Z</time></trkpt><trkpt lat="40.672777240163796" lon="14.72865884588475"><ele>90.0</ele><time>2026-04-26T13:49:46.001Z</time></trkpt><trkpt lat="40.672711971621666" lon="14.72867957467883"><ele>91.8</ele><time>2026-04-26T13:49:48.001Z</time></trkpt><trkpt lat="40.67263242144712" lon="14.728703512827037"><ele>93.6</ele><time>2026-04-26T13:49:51.001Z</time></trkpt><trkpt lat="40.672558336323014" lon="14.728728849970116"><ele>95.4</ele><time>2026-04-26T13:49:54.001Z</time></trkpt><trkpt lat="40.672484263402396" lon="14.728720064236784"><ele>97.2</ele><time>2026-04-26T13:49:57.002Z</time></trkpt><trkpt lat="40.67240374116412" lon="14.7287387063889"><ele>99.0</ele><time>2026-04-26T13:50:00.002Z</time></trkpt><trkpt lat="40.672340122243675" lon="14.728979060894666"><ele>99.0</ele><time>2026-04-26T13:50:02.002Z</time></trkpt><trkpt lat="40.672277069017284" lon="14.728987661079199"><ele>99.0</ele><time>2026-04-26T13:50:03.002Z</time></trkpt><trkpt lat="40.67220848650036" lon="14.729014199108283"><ele>99.0</ele><time>2026-04-26T13:50:04.002Z</time></trkpt><trkpt lat="40.67213335617675" lon="14.729046080377687"><ele>99.0</ele><time>2026-04-26T13:50:05.002Z</time></trkpt><trkpt lat="40.67205490299668" lon="14.729080549765817"><ele>99.0</ele><time>2026-04-26T13:50:06.002Z</time></trkpt><trkpt lat="40.67197511548781" lon="14.729118151912363"><ele>99.0</ele><time>2026-04-26T13:50:07.002Z</time></trkpt><trkpt lat="40.671901896411335" lon="14.729166782822583"><ele>99.16666666666667</ele><time>2026-04-26T13:50:08.002Z</time></trkpt><trkpt lat="40.671832291954345" lon="14.729225499011987"><ele>99.33333333333334</ele><time>2026-04-26T13:50:09.002Z</time></trkpt><trkpt lat="40.67176847298753" lon="14.729296237625963"><ele>99.5</ele><time>2026-04-26T13:50:10.002Z</time></trkpt><trkpt lat="40.67170169824172" lon="14.729371382380904"><ele>99.66666666666667</ele><time>2026-04-26T13:50:11.002Z</time></trkpt><trkpt lat="40.671642720251114" lon="14.729459821659988"><ele>99.83333333333334</ele><time>2026-04-26T13:50:12.002Z</time></trkpt><trkpt lat="40.671593437854725" lon="14.729563987428364"><ele>100.0</ele><time>2026-04-26T13:50:13.002Z</time></trkpt><trkpt lat="40.671553211582946" lon="14.729664147150507"><ele>100.00000000000001</ele><time>2026-04-26T13:50:14.002Z</time></trkpt><trkpt lat="40.67152841321366" lon="14.729759024622046"><ele>100.0</ele><time>2026-04-26T13:50:15.002Z</time></trkpt><trkpt lat="40.67150645777275" lon="14.729856674180448"><ele>100.0</ele><time>2026-04-26T13:50:16.002Z</time></trkpt><trkpt lat="40.67148651904882" lon="14.729962390437004"><ele>100.0</ele><time>2026-04-26T13:50:17.002Z</time></trkpt><trkpt lat="40.671470192928" lon="14.730082020633848"><ele>100.00000000000001</ele><time>2026-04-26T13:50:18.002Z</time></trkpt><trkpt lat="40.67143997265705" lon="14.730198555801152"><ele>100.0</ele><time>2026-04-26T13:50:19.002Z</time></trkpt><trkpt lat="40.67141905689374" lon="14.730317608765636"><ele>101.16666666666667</ele><time>2026-04-26T13:50:20.002Z</time></trkpt><trkpt lat="40.671399851756945" lon="14.730442033263946"><ele>102.33333333333334</ele><time>2026-04-26T13:50:21.002Z</time></trkpt><trkpt lat="40.67137496513829" lon="14.730555953899762"><ele>103.5</ele><time>2026-04-26T13:50:22.002Z</time></trkpt><trkpt lat="40.671357432703225" lon="14.730668629745137"><ele>104.66666666666666</ele><time>2026-04-26T13:50:23.002Z</time></trkpt><trkpt lat="40.67131725346204" lon="14.730768470441713"><ele>105.83333333333333</ele><time>2026-04-26T13:50:24.002Z</time></trkpt><trkpt lat="40.67126618467394" lon="14.730854802009631"><ele>107.0</ele><time>2026-04-26T13:50:25.002Z</time></trkpt><trkpt lat="40.67121586017397" lon="14.730934898444435"><ele>106.99999999999999</ele><time>2026-04-26T13:50:26.002Z</time></trkpt><trkpt lat="40.67116600897762" lon="14.731013112886382"><ele>107.0</ele><time>2026-04-26T13:50:27.002Z</time></trkpt><trkpt lat="40.671121252680784" lon="14.731094118209285"><ele>107.0</ele><time>2026-04-26T13:50:28.002Z</time></trkpt><trkpt lat="40.671074714521815" lon="14.731174885986487"><ele>107.0</ele><time>2026-04-26T13:50:29.002Z</time></trkpt><trkpt lat="40.67103505197835" lon="14.73125908006876"><ele>106.99999999999999</ele><time>2026-04-26T13:50:30.001Z</time></trkpt><trkpt lat="40.67100791275282" lon="14.731351382239298"><ele>107.0</ele><time>2026-04-26T13:50:31.001Z</time></trkpt><trkpt lat="40.67099603293905" lon="14.731456303710429"><ele>100.83333333333333</ele><time>2026-04-26T13:50:32.001Z</time></trkpt><trkpt lat="40.670997154026644" lon="14.731568179418366"><ele>94.66666666666666</ele><time>2026-04-26T13:50:33.001Z</time></trkpt><trkpt lat="40.671012561474264" lon="14.731682296280315"><ele>88.5</ele><time>2026-04-26T13:50:34.001Z</time></trkpt><trkpt lat="40.67103217186811" lon="14.731798369637753"><ele>82.33333333333333</ele><time>2026-04-26T13:50:35.001Z</time></trkpt><trkpt lat="40.671053725788575" lon="14.731905596230995"><ele>76.16666666666666</ele><time>2026-04-26T13:50:36.001Z</time></trkpt><trkpt lat="40.67107921749827" lon="14.732000728026602"><ele>70.0</ele><time>2026-04-26T13:50:37.001Z</time></trkpt><trkpt lat="40.67110481125585" lon="14.732093345480996"><ele>72.66666666666666</ele><time>2026-04-26T13:50:38.001Z</time></trkpt><trkpt lat="40.67112759900494" lon="14.732187706994145"><ele>75.33333333333333</ele><time>2026-04-26T13:50:39.001Z</time></trkpt><trkpt lat="40.671150316415776" lon="14.732288679948812"><ele>78.0</ele><time>2026-04-26T13:50:40.001Z</time></trkpt><trkpt lat="40.67117441300945" lon="14.732397967739733"><ele>80.66666666666667</ele><time>2026-04-26T13:50:41.001Z</time></trkpt><trkpt lat="40.671200213416526" lon="14.732514437989513"><ele>83.33333333333334</ele><time>2026-04-26T13:50:42.001Z</time></trkpt><trkpt lat="40.671227681147734" lon="14.732634524068233"><ele>86.0</ele><time>2026-04-26T13:50:43.001Z</time></trkpt><trkpt lat="40.671256181855476" lon="14.732753934492045"><ele>86.0</ele><time>2026-04-26T13:50:44.001Z</time></trkpt><trkpt lat="40.671279595403625" lon="14.732874284193358"><ele>86.0</ele><time>2026-04-26T13:50:45.001Z</time></trkpt><trkpt lat="40.67129623899934" lon="14.732995914624263"><ele>86.0</ele><time>2026-04-26T13:50:46.001Z</time></trkpt><trkpt lat="40.671309138898614" lon="14.733115884955255"><ele>86.0</ele><time>2026-04-26T13:50:47.001Z</time></trkpt><trkpt lat="40.6712858254066" lon="14.733240208535312"><ele>86.0</ele><time>2026-04-26T13:50:48.001Z</time></trkpt><trkpt lat="40.671323467248925" lon="14.733352422220943"><ele>86.0</ele><time>2026-04-26T13:50:49.001Z</time></trkpt><trkpt lat="40.67133692288599" lon="14.733465003627638"><ele>86.0</ele><time>2026-04-26T13:50:50.001Z</time></trkpt><trkpt lat="40.67135604288779" lon="14.733574885192368"><ele>86.0</ele><time>2026-04-26T13:50:51.001Z</time></trkpt><trkpt lat="40.671385484256014" lon="14.733677405614797"><ele>86.0</ele><time>2026-04-26T13:50:52.001Z</time></trkpt><trkpt lat="40.67142848827506" lon="14.733771978612161"><ele>86.0</ele><time>2026-04-26T13:50:53.001Z</time></trkpt><trkpt lat="40.67147510939439" lon="14.733866670674644"><ele>86.0</ele><time>2026-04-26T13:50:54.001Z</time></trkpt><trkpt lat="40.671528514514584" lon="14.73395914904707"><ele>83.0</ele><time>2026-04-26T13:50:55.001Z</time></trkpt><trkpt lat="40.67159347914995" lon="14.734047142638934"><ele>80.0</ele><time>2026-04-26T13:50:56.001Z</time></trkpt><trkpt lat="40.67166213703225" lon="14.734134303152178"><ele>77.0</ele><time>2026-04-26T13:50:57.001Z</time></trkpt><trkpt lat="40.67172825076809" lon="14.73422775382019"><ele>74.0</ele><time>2026-04-26T13:50:58.001Z</time></trkpt><trkpt lat="40.67179117744056" lon="14.734323532761271"><ele>71.0</ele><time>2026-04-26T13:50:59.001Z</time></trkpt><trkpt lat="40.67185920165012" lon="14.734407819971059"><ele>70.39999999999999</ele><time>2026-04-26T13:51:00.001Z</time></trkpt><trkpt lat="40.67193775009562" lon="14.734471698095286"><ele>69.8</ele><time>2026-04-26T13:51:01.001Z</time></trkpt><trkpt lat="40.67202523920524" lon="14.734525627982682"><ele>69.19999999999999</ele><time>2026-04-26T13:51:02.001Z</time></trkpt><trkpt lat="40.67210920689705" lon="14.734583030740728"><ele>68.6</ele><time>2026-04-26T13:51:03.001Z</time></trkpt><trkpt lat="40.6721884748488" lon="14.734650091026813"><ele>68.0</ele><time>2026-04-26T13:51:04.001Z</time></trkpt><trkpt lat="40.67226558511883" lon="14.73472629984345"><ele>68.0</ele><time>2026-04-26T13:51:05.001Z</time></trkpt><trkpt lat="40.67234406106698" lon="14.734803312718332"><ele>68.0</ele><time>2026-04-26T13:51:06.001Z</time></trkpt><trkpt lat="40.67242069006751" lon="14.734884314210664"><ele>68.0</ele><time>2026-04-26T13:51:07.001Z</time></trkpt><trkpt lat="40.67249972368722" lon="14.734966659387249"><ele>68.0</ele><time>2026-04-26T13:51:08.001Z</time></trkpt><trkpt lat="40.672574414493916" lon="14.735051913017"><ele>68.0</ele><time>2026-04-26T13:51:09.001Z</time></trkpt><trkpt lat="40.67265266530919" lon="14.735126544785158"><ele>68.0</ele><time>2026-04-26T13:51:10.001Z</time></trkpt><trkpt lat="40.67273002585699" lon="14.735190975059007"><ele>68.0</ele><time>2026-04-26T13:51:11.001Z</time></trkpt><trkpt lat="40.67280812511135" lon="14.735244989878304"><ele>68.0</ele><time>2026-04-26T13:51:12.001Z</time></trkpt><trkpt lat="40.672889366811056" lon="14.735287333934803"><ele>68.0</ele><time>2026-04-26T13:51:13.001Z</time></trkpt><trkpt lat="40.67296480528804" lon="14.735330521899444"><ele>68.0</ele><time>2026-04-26T13:51:14.001Z</time></trkpt><trkpt lat="40.673039376924415" lon="14.735368530440974"><ele>68.0</ele><time>2026-04-26T13:51:15.001Z</time></trkpt><trkpt lat="40.67311135473538" lon="14.735413542511806"><ele>65.5</ele><time>2026-04-26T13:51:16.001Z</time></trkpt><trkpt lat="40.673180722233624" lon="14.73546124559019"><ele>63.0</ele><time>2026-04-26T13:51:17.001Z</time></trkpt><trkpt lat="40.67325334704226" lon="14.735514129993815"><ele>60.5</ele><time>2026-04-26T13:51:18.001Z</time></trkpt><trkpt lat="40.67332787380465" lon="14.735566956358326"><ele>58.0</ele><time>2026-04-26T13:51:19.001Z</time></trkpt><trkpt lat="40.673402623640314" lon="14.7356199368033"><ele>55.50000000000001</ele><time>2026-04-26T13:51:20.001Z</time></trkpt><trkpt lat="40.67347869046966" lon="14.735672636907545"><ele>53.0</ele><time>2026-04-26T13:51:21.001Z</time></trkpt><trkpt lat="40.6735567658288" lon="14.735729160186834"><ele>48.199999999999996</ele><time>2026-04-26T13:51:22.001Z</time></trkpt><trkpt lat="40.67363364314791" lon="14.735794073027975"><ele>43.4</ele><time>2026-04-26T13:51:23.001Z</time></trkpt><trkpt lat="40.67370560905255" lon="14.73586761958317"><ele>38.599999999999994</ele><time>2026-04-26T13:51:24.001Z</time></trkpt><trkpt lat="40.67377300025058" lon="14.735950925222784"><ele>33.8</ele><time>2026-04-26T13:51:25.001Z</time></trkpt><trkpt lat="40.673838897419486" lon="14.736034904456336"><ele>29.0</ele><time>2026-04-26T13:51:26.001Z</time></trkpt><trkpt lat="40.673905749391004" lon="14.73612324768114"><ele>29.0</ele><time>2026-04-26T13:51:27.001Z</time></trkpt><trkpt lat="40.673976227690396" lon="14.73621106762764"><ele>29.0</ele><time>2026-04-26T13:51:28.001Z</time></trkpt><trkpt lat="40.674054431547184" lon="14.73629272149843"><ele>29.0</ele><time>2026-04-26T13:51:29.001Z</time></trkpt><trkpt lat="40.67413120446342" lon="14.736385245137164"><ele>29.0</ele><time>2026-04-26T13:51:30.001Z</time></trkpt><trkpt lat="40.67422339652934" lon="14.736453528879924"><ele>29.0</ele><time>2026-04-26T13:51:31.001Z</time></trkpt><trkpt lat="40.67432657760465" lon="14.73651455031273"><ele>29.0</ele><time>2026-04-26T13:51:32.001Z</time></trkpt><trkpt lat="40.6744326459926" lon="14.73656864334753"><ele>29.0</ele><time>2026-04-26T13:51:33.001Z</time></trkpt><trkpt lat="40.67454133588289" lon="14.736608050936624"><ele>29.0</ele><time>2026-04-26T13:51:34.001Z</time></trkpt><trkpt lat="40.674651179088464" lon="14.736652574600484"><ele>29.0</ele><time>2026-04-26T13:51:35.001Z</time></trkpt><trkpt lat="40.674757941050395" lon="14.736690990347455"><ele>35.6</ele><time>2026-04-26T13:51:36.001Z</time></trkpt><trkpt lat="40.674858532301855" lon="14.736735231558345"><ele>42.2</ele><time>2026-04-26T13:51:37.001Z</time></trkpt><trkpt lat="40.674959069542574" lon="14.736765744915463"><ele>48.800000000000004</ele><time>2026-04-26T13:51:38.001Z</time></trkpt><trkpt lat="40.675053740226964" lon="14.736798706680839"><ele>55.4</ele><time>2026-04-26T13:51:39.001Z</time></trkpt><trkpt lat="40.67514560580374" lon="14.736837930941846"><ele>62.0</ele><time>2026-04-26T13:51:40.001Z</time></trkpt><trkpt lat="40.67523442114544" lon="14.736878797267035"><ele>59.0</ele><time>2026-04-26T13:51:41.001Z</time></trkpt><trkpt lat="40.67532265013077" lon="14.736914355755859"><ele>56.0</ele><time>2026-04-26T13:51:42.001Z</time></trkpt><trkpt lat="40.6754061601336" lon="14.736954983620612"><ele>53.0</ele><time>2026-04-26T13:51:43.001Z</time></trkpt><trkpt lat="40.675486183648275" lon="14.73700917920766"><ele>50.0</ele><time>2026-04-26T13:51:44.001Z</time></trkpt><trkpt lat="40.67556433750646" lon="14.737067720609847"><ele>47.0</ele><time>2026-04-26T13:51:45.001Z</time></trkpt><trkpt lat="40.67564023369082" lon="14.737146797582"><ele>47.0</ele><time>2026-04-26T13:51:46.001Z</time></trkpt><trkpt lat="40.6757103109648" lon="14.73723762845881"><ele>47.0</ele><time>2026-04-26T13:51:47.001Z</time></trkpt><trkpt lat="40.6757762815815" lon="14.737339230670045"><ele>47.0</ele><time>2026-04-26T13:51:48.001Z</time></trkpt><trkpt lat="40.67583385295906" lon="14.737452628896078"><ele>47.0</ele><time>2026-04-26T13:51:49.001Z</time></trkpt><trkpt lat="40.675891357451135" lon="14.737572224709767"><ele>47.0</ele><time>2026-04-26T13:51:50.001Z</time></trkpt><trkpt lat="40.67594734430364" lon="14.737692592446301"><ele>49.2</ele><time>2026-04-26T13:51:51.001Z</time></trkpt><trkpt lat="40.676009015709845" lon="14.73781200270064"><ele>51.400000000000006</ele><time>2026-04-26T13:51:52.001Z</time></trkpt><trkpt lat="40.67607710860108" lon="14.737927864557662"><ele>53.599999999999994</ele><time>2026-04-26T13:51:53.001Z</time></trkpt><trkpt lat="40.676149113392796" lon="14.738035914912249"><ele>55.8</ele><time>2026-04-26T13:51:54.001Z</time></trkpt><trkpt lat="40.67622497711786" lon="14.738145100532645"><ele>58.0</ele><time>2026-04-26T13:51:55.001Z</time></trkpt><trkpt lat="40.67630129413459" lon="14.738252398690719"><ele>58.0</ele><time>2026-04-26T13:51:56.001Z</time></trkpt><trkpt lat="40.67637498233457" lon="14.738351037869474"><ele>58.0</ele><time>2026-04-26T13:51:57.001Z</time></trkpt><trkpt lat="40.6764444164258" lon="14.73844890610007"><ele>58.0</ele><time>2026-04-26T13:51:58.001Z</time></trkpt><trkpt lat="40.67651207531715" lon="14.738542435954743"><ele>58.0</ele><time>2026-04-26T13:51:59.001Z</time></trkpt><trkpt lat="40.6765726325011" lon="14.738636995160071"><ele>58.0</ele><time>2026-04-26T13:52:00.001Z</time></trkpt><trkpt lat="40.67663089340861" lon="14.738733320858804"><ele>52.8</ele><time>2026-04-26T13:52:01.001Z</time></trkpt><trkpt lat="40.67668418453347" lon="14.738837510472802"><ele>47.599999999999994</ele><time>2026-04-26T13:52:02.002Z</time></trkpt><trkpt lat="40.67672783547626" lon="14.738953518662763"><ele>42.400000000000006</ele><time>2026-04-26T13:52:03.002Z</time></trkpt><trkpt lat="40.676769671038855" lon="14.739078903929755"><ele>37.2</ele><time>2026-04-26T13:52:04.002Z</time></trkpt><trkpt lat="40.67680922474627" lon="14.739206466266236"><ele>32.0</ele><time>2026-04-26T13:52:05.002Z</time></trkpt><trkpt lat="40.67684599770729" lon="14.739339508087797"><ele>29.6</ele><time>2026-04-26T13:52:06.002Z</time></trkpt><trkpt lat="40.67688306311288" lon="14.739470985186163"><ele>27.200000000000003</ele><time>2026-04-26T13:52:07.002Z</time></trkpt><trkpt lat="40.67691622391221" lon="14.739598434154104"><ele>24.8</ele><time>2026-04-26T13:52:08.002Z</time></trkpt><trkpt lat="40.67694740363055" lon="14.739714473626433"><ele>22.4</ele><time>2026-04-26T13:52:09.002Z</time></trkpt><trkpt lat="40.67697744367098" lon="14.739821952930887"><ele>20.0</ele><time>2026-04-26T13:52:10.002Z</time></trkpt><trkpt lat="40.67700666912896" lon="14.739922126827013"><ele>21.6</ele><time>2026-04-26T13:52:11.002Z</time></trkpt><trkpt lat="40.6770357322219" lon="14.740022456148035"><ele>23.2</ele><time>2026-04-26T13:52:12.002Z</time></trkpt><trkpt lat="40.677066166533" lon="14.740128317824018"><ele>24.799999999999997</ele><time>2026-04-26T13:52:13.002Z</time></trkpt><trkpt lat="40.67709818285261" lon="14.740241165411346"><ele>26.4</ele><time>2026-04-26T13:52:14.002Z</time></trkpt><trkpt lat="40.67712288986068" lon="14.740367115778586"><ele>28.0</ele><time>2026-04-26T13:52:15.002Z</time></trkpt><trkpt lat="40.67718246710055" lon="14.740484414490863"><ele>28.0</ele><time>2026-04-26T13:52:16.002Z</time></trkpt><trkpt lat="40.677265794486736" lon="14.74057549956343"><ele>27.999999999999996</ele><time>2026-04-26T13:52:17.002Z</time></trkpt><trkpt lat="40.67735164251485" lon="14.740643692857127"><ele>27.999999999999996</ele><time>2026-04-26T13:52:18.002Z</time></trkpt><trkpt lat="40.677423003643746" lon="14.740730790394347"><ele>28.0</ele><time>2026-04-26T13:52:19.002Z</time></trkpt><trkpt lat="40.67749494694665" lon="14.740812873816894"><ele>28.0</ele><time>2026-04-26T13:52:20.002Z</time></trkpt><trkpt lat="40.67756859993184" lon="14.74089199635884"><ele>28.000000000000004</ele><time>2026-04-26T13:52:21.002Z</time></trkpt><trkpt lat="40.67764154104865" lon="14.740971276088825"><ele>28.0</ele><time>2026-04-26T13:52:22.002Z</time></trkpt><trkpt lat="40.677703575399555" lon="14.741057683841737"><ele>28.0</ele><time>2026-04-26T13:52:23.002Z</time></trkpt><trkpt lat="40.67775292164233" lon="14.741151077289683"><ele>28.0</ele><time>2026-04-26T13:52:24.002Z</time></trkpt><trkpt lat="40.67777349053093" lon="14.741258683963483"><ele>28.000000000000004</ele><time>2026-04-26T13:52:25.002Z</time></trkpt><trkpt lat="40.67779965637321" lon="14.741368881911306"><ele>28.0</ele><time>2026-04-26T13:52:26.002Z</time></trkpt><trkpt lat="40.677840020199966" lon="14.741477230427398"><ele>32.833333333333336</ele><time>2026-04-26T13:52:27.002Z</time></trkpt><trkpt lat="40.67786012022079" lon="14.741595543838178"><ele>37.66666666666667</ele><time>2026-04-26T13:52:28.002Z</time></trkpt><trkpt lat="40.6778841302849" lon="14.741704760881536"><ele>42.5</ele><time>2026-04-26T13:52:29.002Z</time></trkpt><trkpt lat="40.67791112000795" lon="14.741813239410824"><ele>47.333333333333336</ele><time>2026-04-26T13:52:30.002Z</time></trkpt><trkpt lat="40.67793405353244" lon="14.741918158580933"><ele>52.166666666666664</ele><time>2026-04-26T13:52:31.002Z</time></trkpt><trkpt lat="40.67795583793769" lon="14.742016969701966"><ele>57.0</ele><time>2026-04-26T13:52:32.002Z</time></trkpt><trkpt lat="40.67796493353553" lon="14.742196902453136"><ele>57.0</ele><time>2026-04-26T13:52:34.002Z</time></trkpt><trkpt lat="40.67795840369221" lon="14.742375252088516"><ele>57.0</ele><time>2026-04-26T13:52:36Z</time></trkpt><trkpt lat="40.67790820487823" lon="14.742473283363744"><ele>57.0</ele><time>2026-04-26T13:52:37Z</time></trkpt><trkpt lat="40.67779779504264" lon="14.742522687933796"><ele>57.0</ele><time>2026-04-26T13:52:39Z</time></trkpt><trkpt lat="40.677750671626974" lon="14.742582286622518"><ele>57.0</ele><time>2026-04-26T13:52:40Z</time></trkpt><trkpt lat="40.67769541004609" lon="14.74266023299561"><ele>56.2</ele><time>2026-04-26T13:52:42Z</time></trkpt><trkpt lat="40.677649105994846" lon="14.742770518334593"><ele>55.400000000000006</ele><time>2026-04-26T13:52:45Z</time></trkpt><trkpt lat="40.67771138929087" lon="14.742918814112882"><ele>54.599999999999994</ele><time>2026-04-26T13:52:47Z</time></trkpt><trkpt lat="40.67776350354345" lon="14.74298527479264"><ele>53.8</ele><time>2026-04-26T13:52:48Z</time></trkpt><trkpt lat="40.677818291310345" lon="14.7430593031803"><ele>53.0</ele><time>2026-04-26T13:52:49Z</time></trkpt><trkpt lat="40.67788246798543" lon="14.743139838775287"><ele>53.0</ele><time>2026-04-26T13:52:50Z</time></trkpt><trkpt lat="40.677950162370415" lon="14.743222740950477"><ele>53.0</ele><time>2026-04-26T13:52:51Z</time></trkpt><trkpt lat="40.678017462827206" lon="14.7433194833424"><ele>53.0</ele><time>2026-04-26T13:52:52Z</time></trkpt><trkpt lat="40.678081985887424" lon="14.743427022547108"><ele>53.0</ele><time>2026-04-26T13:52:53Z</time></trkpt><trkpt lat="40.67814299965628" lon="14.743543573418664"><ele>53.0</ele><time>2026-04-26T13:52:54Z</time></trkpt><trkpt lat="40.678197999604045" lon="14.743672531650162"><ele>50.5</ele><time>2026-04-26T13:52:55Z</time></trkpt><trkpt lat="40.67824420652246" lon="14.743816874276325"><ele>48.0</ele><time>2026-04-26T13:52:56Z</time></trkpt><trkpt lat="40.67828649745643" lon="14.74396537233482"><ele>45.5</ele><time>2026-04-26T13:52:57Z</time></trkpt><trkpt lat="40.6783318066626" lon="14.74411446824996"><ele>43.0</ele><time>2026-04-26T13:52:58Z</time></trkpt><trkpt lat="40.678381073883486" lon="14.744272625238933"><ele>41.25</ele><time>2026-04-26T13:52:59Z</time></trkpt><trkpt lat="40.67842817955651" lon="14.744436863733277"><ele>39.5</ele><time>2026-04-26T13:53:00Z</time></trkpt><trkpt lat="40.67847846245295" lon="14.744599356880814"><ele>37.75</ele><time>2026-04-26T13:53:01Z</time></trkpt><trkpt lat="40.678525130613465" lon="14.74476376939692"><ele>36.0</ele><time>2026-04-26T13:53:02Z</time></trkpt><trkpt lat="40.67856448880732" lon="14.744930682856355"><ele>36.0</ele><time>2026-04-26T13:53:03Z</time></trkpt><trkpt lat="40.67859483154005" lon="14.745102729716224"><ele>36.0</ele><time>2026-04-26T13:53:04Z</time></trkpt><trkpt lat="40.678610643195825" lon="14.74527562561192"><ele>36.0</ele><time>2026-04-26T13:53:05Z</time></trkpt><trkpt lat="40.678620477276375" lon="14.745445036096484"><ele>36.0</ele><time>2026-04-26T13:53:06Z</time></trkpt><trkpt lat="40.67863568481031" lon="14.74561426835677"><ele>43.75</ele><time>2026-04-26T13:53:07Z</time></trkpt><trkpt lat="40.67864827170596" lon="14.745782296111093"><ele>51.5</ele><time>2026-04-26T13:53:08.001Z</time></trkpt><trkpt lat="40.67865703129505" lon="14.745947281250595"><ele>59.25</ele><time>2026-04-26T13:53:09.001Z</time></trkpt><trkpt lat="40.67866785589573" lon="14.74611202104056"><ele>67.0</ele><time>2026-04-26T13:53:10.001Z</time></trkpt><trkpt lat="40.67868123150405" lon="14.746277426833995"><ele>67.0</ele><time>2026-04-26T13:53:11.001Z</time></trkpt><trkpt lat="40.67869418398756" lon="14.746443087282978"><ele>67.0</ele><time>2026-04-26T13:53:12.001Z</time></trkpt><trkpt lat="40.678704455475376" lon="14.746607520994715"><ele>67.0</ele><time>2026-04-26T13:53:13.001Z</time></trkpt><trkpt lat="40.678714001929855" lon="14.746767186444886"><ele>67.0</ele><time>2026-04-26T13:53:14.001Z</time></trkpt><trkpt lat="40.67872281486454" lon="14.7469253975126"><ele>67.25</ele><time>2026-04-26T13:53:15.001Z</time></trkpt><trkpt lat="40.678715638836564" lon="14.747083437474444"><ele>67.5</ele><time>2026-04-26T13:53:16.001Z</time></trkpt><trkpt lat="40.67869602483099" lon="14.747239315696172"><ele>67.75</ele><time>2026-04-26T13:53:17.001Z</time></trkpt><trkpt lat="40.67867728714731" lon="14.747391435564674"><ele>68.0</ele><time>2026-04-26T13:53:18.001Z</time></trkpt><trkpt lat="40.67867367412186" lon="14.747546743314167"><ele>68.0</ele><time>2026-04-26T13:53:19.001Z</time></trkpt><trkpt lat="40.678690806421194" lon="14.747700665790207"><ele>68.0</ele><time>2026-04-26T13:53:20.001Z</time></trkpt><trkpt lat="40.678732586382935" lon="14.747852610291266"><ele>68.0</ele><time>2026-04-26T13:53:21.001Z</time></trkpt><trkpt lat="40.67878771136426" lon="14.748002788816983"><ele>68.0</ele><time>2026-04-26T13:53:22.001Z</time></trkpt><trkpt lat="40.678852029530134" lon="14.748146880277185"><ele>66.6</ele><time>2026-04-26T13:53:23.001Z</time></trkpt><trkpt lat="40.67891157823156" lon="14.748283283855796"><ele>65.19999999999999</ele><time>2026-04-26T13:53:24.001Z</time></trkpt><trkpt lat="40.678978862329735" lon="14.748403635585337"><ele>63.8</ele><time>2026-04-26T13:53:25.001Z</time></trkpt><trkpt lat="40.67905815595947" lon="14.748499159703826"><ele>62.4</ele><time>2026-04-26T13:53:26.001Z</time></trkpt><trkpt lat="40.67914981979189" lon="14.748573851852017"><ele>61.0</ele><time>2026-04-26T13:53:27.001Z</time></trkpt><trkpt lat="40.679251915953955" lon="14.748631855834848"><ele>58.75</ele><time>2026-04-26T13:53:28.001Z</time></trkpt><trkpt lat="40.67935653703852" lon="14.748682714318601"><ele>56.5</ele><time>2026-04-26T13:53:29.001Z</time></trkpt><trkpt lat="40.67946797117358" lon="14.74872478630195"><ele>54.25</ele><time>2026-04-26T13:53:30.001Z</time></trkpt><trkpt lat="40.67958284949211" lon="14.748768445959694"><ele>52.0</ele><time>2026-04-26T13:53:31.001Z</time></trkpt><trkpt lat="40.679695422211424" lon="14.748815655505194"><ele>58.25</ele><time>2026-04-26T13:53:32.001Z</time></trkpt><trkpt lat="40.67980485400386" lon="14.748863733564484"><ele>64.5</ele><time>2026-04-26T13:53:33.001Z</time></trkpt><trkpt lat="40.679912117292076" lon="14.748910666011676"><ele>70.75</ele><time>2026-04-26T13:53:34.001Z</time></trkpt><trkpt lat="40.68001724634833" lon="14.748966206807372"><ele>77.0</ele><time>2026-04-26T13:53:35.001Z</time></trkpt><trkpt lat="40.680114024159366" lon="14.749042147763422"><ele>77.0</ele><time>2026-04-26T13:53:36.001Z</time></trkpt><trkpt lat="40.68020419175538" lon="14.74913162183981"><ele>77.0</ele><time>2026-04-26T13:53:37.001Z</time></trkpt><trkpt lat="40.68028245524391" lon="14.74924315461925"><ele>77.0</ele><time>2026-04-26T13:53:38.001Z</time></trkpt><trkpt lat="40.68033762481715" lon="14.74938426931976"><ele>77.0</ele><time>2026-04-26T13:53:39.001Z</time></trkpt><trkpt lat="40.680387865023995" lon="14.749546677444169"><ele>78.75</ele><time>2026-04-26T13:53:40.001Z</time></trkpt><trkpt lat="40.68043385212356" lon="14.749717461244453"><ele>80.5</ele><time>2026-04-26T13:53:41.001Z</time></trkpt><trkpt lat="40.6804830645032" lon="14.749892743494932"><ele>82.25</ele><time>2026-04-26T13:53:42.001Z</time></trkpt><trkpt lat="40.68053640969902" lon="14.750074189080298"><ele>84.0</ele><time>2026-04-26T13:53:43.001Z</time></trkpt><trkpt lat="40.68058728992922" lon="14.750254640295545"><ele>84.0</ele><time>2026-04-26T13:53:44.001Z</time></trkpt><trkpt lat="40.680634434062455" lon="14.750428076945123"><ele>84.0</ele><time>2026-04-26T13:53:45.001Z</time></trkpt><trkpt lat="40.68068784300132" lon="14.750590836223278"><ele>84.0</ele><time>2026-04-26T13:53:46.001Z</time></trkpt><trkpt lat="40.680758771354085" lon="14.75073947904343"><ele>84.0</ele><time>2026-04-26T13:53:47.001Z</time></trkpt><trkpt lat="40.680844659338455" lon="14.750873757088101"><ele>84.0</ele><time>2026-04-26T13:53:48.001Z</time></trkpt><trkpt lat="40.68094370666517" lon="14.750989774121518"><ele>84.0</ele><time>2026-04-26T13:53:49.001Z</time></trkpt><trkpt lat="40.681054085975056" lon="14.75108173776023"><ele>84.0</ele><time>2026-04-26T13:53:50.001Z</time></trkpt><trkpt lat="40.68117211617428" lon="14.751155123193053"><ele>84.0</ele><time>2026-04-26T13:53:51.001Z</time></trkpt><trkpt lat="40.681289073511685" lon="14.751220474686054"><ele>83.5</ele><time>2026-04-26T13:53:52.001Z</time></trkpt><trkpt lat="40.681399516944516" lon="14.751296871687954"><ele>83.0</ele><time>2026-04-26T13:53:53.001Z</time></trkpt><trkpt lat="40.68150704672256" lon="14.751375170400319"><ele>82.5</ele><time>2026-04-26T13:53:54.001Z</time></trkpt><trkpt lat="40.681615893116984" lon="14.751436634909936"><ele>82.0</ele><time>2026-04-26T13:53:55.001Z</time></trkpt><trkpt lat="40.68171773582304" lon="14.751494715887478"><ele>82.0</ele><time>2026-04-26T13:53:56.001Z</time></trkpt><trkpt lat="40.68181422263011" lon="14.75155623573525"><ele>82.0</ele><time>2026-04-26T13:53:57.001Z</time></trkpt><trkpt lat="40.68190213827394" lon="14.751612158349912"><ele>82.0</ele><time>2026-04-26T13:53:58.001Z</time></trkpt><trkpt lat="40.68198128824778" lon="14.751667515134049"><ele>82.0</ele><time>2026-04-26T13:53:59.001Z</time></trkpt><trkpt lat="40.682052611657554" lon="14.75172752258274"><ele>82.0</ele><time>2026-04-26T13:54:00.001Z</time></trkpt><trkpt lat="40.68211412490578" lon="14.751802463442436"><ele>86.5</ele><time>2026-04-26T13:54:01.001Z</time></trkpt><trkpt lat="40.682163654419746" lon="14.751889889266177"><ele>91.0</ele><time>2026-04-26T13:54:02.001Z</time></trkpt><trkpt lat="40.68219365251427" lon="14.751990244559291"><ele>95.5</ele><time>2026-04-26T13:54:03.001Z</time></trkpt><trkpt lat="40.682208224037765" lon="14.75210639186626"><ele>100.0</ele><time>2026-04-26T13:54:04.001Z</time></trkpt><trkpt lat="40.6822225160048" lon="14.75223125786577"><ele>104.50000000000001</ele><time>2026-04-26T13:54:05.001Z</time></trkpt><trkpt lat="40.68223678110617" lon="14.752361110302939"><ele>109.0</ele><time>2026-04-26T13:54:06.001Z</time></trkpt><trkpt lat="40.68223828888257" lon="14.752502457183738"><ele>109.0</ele><time>2026-04-26T13:54:07.001Z</time></trkpt><trkpt lat="40.68222871039696" lon="14.752647689696438"><ele>109.0</ele><time>2026-04-26T13:54:08.001Z</time></trkpt><trkpt lat="40.682218774661244" lon="14.75280431008721"><ele>109.0</ele><time>2026-04-26T13:54:09.001Z</time></trkpt><trkpt lat="40.68221441822773" lon="14.752968789803074"><ele>109.0</ele><time>2026-04-26T13:54:10.001Z</time></trkpt><trkpt lat="40.682206710073444" lon="14.753138513168468"><ele>112.5</ele><time>2026-04-26T13:54:11.001Z</time></trkpt><trkpt lat="40.682197333356655" lon="14.753318461319992"><ele>116.0</ele><time>2026-04-26T13:54:12.001Z</time></trkpt><trkpt lat="40.682185033204625" lon="14.753495798956534"><ele>119.5</ele><time>2026-04-26T13:54:13.001Z</time></trkpt><trkpt lat="40.68217314181498" lon="14.75367615379593"><ele>123.0</ele><time>2026-04-26T13:54:14.001Z</time></trkpt><trkpt lat="40.68218269256221" lon="14.753764087482791"><ele>123.0</ele><time>2026-04-26T13:54:15.001Z</time></trkpt><trkpt lat="40.68218269256221" lon="14.75392210334736"><ele>123.0</ele><time>2026-04-26T13:54:16.001Z</time></trkpt><trkpt lat="40.68218269256221" lon="14.754090695163892"><ele>123.0</ele><time>2026-04-26T13:54:17.068Z</time></trkpt><trkpt lat="40.68218046436972" lon="14.754877843509817"><ele>122.25</ele><time>2026-04-26T13:54:21.001Z</time></trkpt><trkpt lat="40.68215642137137" lon="14.755059478393266"><ele>121.5</ele><time>2026-04-26T13:54:22.001Z</time></trkpt><trkpt lat="40.68211724580492" lon="14.755224773949452"><ele>120.75</ele><time>2026-04-26T13:54:23.001Z</time></trkpt><trkpt lat="40.682070138579974" lon="14.755413906496317"><ele>120.0</ele><time>2026-04-26T13:54:24.001Z</time></trkpt><trkpt lat="40.68203194888105" lon="14.755592291777091"><ele>122.5</ele><time>2026-04-26T13:54:25.001Z</time></trkpt><trkpt lat="40.68198481671012" lon="14.755778590264924"><ele>125.0</ele><time>2026-04-26T13:54:26.001Z</time></trkpt><trkpt lat="40.68201371972706" lon="14.755978963489962"><ele>127.5</ele><time>2026-04-26T13:54:27.002Z</time></trkpt><trkpt lat="40.68203000639806" lon="14.756144929692534"><ele>130.0</ele><time>2026-04-26T13:54:28.002Z</time></trkpt><trkpt lat="40.68205690803858" lon="14.756316645295346"><ele>130.0</ele><time>2026-04-26T13:54:29.002Z</time></trkpt><trkpt lat="40.68209151601258" lon="14.75648407719887"><ele>130.0</ele><time>2026-04-26T13:54:30.002Z</time></trkpt><trkpt lat="40.682146950962775" lon="14.75664628481376"><ele>130.0</ele><time>2026-04-26T13:54:31.002Z</time></trkpt><trkpt lat="40.682220272549465" lon="14.756802261378247"><ele>130.0</ele><time>2026-04-26T13:54:32.002Z</time></trkpt><trkpt lat="40.682301556942484" lon="14.756946816757965"><ele>125.0</ele><time>2026-04-26T13:54:33.002Z</time></trkpt><trkpt lat="40.68239953647147" lon="14.757077004511522"><ele>120.0</ele><time>2026-04-26T13:54:34.002Z</time></trkpt><trkpt lat="40.682502571165045" lon="14.757207065736017"><ele>115.0</ele><time>2026-04-26T13:54:35.002Z</time></trkpt><trkpt lat="40.68260421342491" lon="14.757340565331539"><ele>110.0</ele><time>2026-04-26T13:54:36.002Z</time></trkpt><trkpt lat="40.68270192619441" lon="14.757478183267002"><ele>108.75</ele><time>2026-04-26T13:54:37.002Z</time></trkpt><trkpt lat="40.68279390802859" lon="14.757612492750953"><ele>107.5</ele><time>2026-04-26T13:54:38.002Z</time></trkpt><trkpt lat="40.682882630851196" lon="14.757730567228272"><ele>106.25</ele><time>2026-04-26T13:54:39.002Z</time></trkpt><trkpt lat="40.68296833214887" lon="14.757842365780252"><ele>105.0</ele><time>2026-04-26T13:54:40.002Z</time></trkpt><trkpt lat="40.68305006914346" lon="14.757942460521024"><ele>105.0</ele><time>2026-04-26T13:54:41.002Z</time></trkpt><trkpt lat="40.68313956128368" lon="14.758038688642523"><ele>105.0</ele><time>2026-04-26T13:54:42Z</time></trkpt><trkpt lat="40.68324544677501" lon="14.758114202736438"><ele>105.0</ele><time>2026-04-26T13:54:43Z</time></trkpt><trkpt lat="40.68336527078365" lon="14.75815725631447"><ele>105.0</ele><time>2026-04-26T13:54:44Z</time></trkpt><trkpt lat="40.683498073818605" lon="14.758193306392332"><ele>106.5</ele><time>2026-04-26T13:54:45Z</time></trkpt><trkpt lat="40.68362848868552" lon="14.758258356029346"><ele>108.0</ele><time>2026-04-26T13:54:46Z</time></trkpt><trkpt lat="40.683769251279045" lon="14.758281343276886"><ele>109.5</ele><time>2026-04-26T13:54:47Z</time></trkpt><trkpt lat="40.683910169420784" lon="14.758331777812488"><ele>111.0</ele><time>2026-04-26T13:54:48Z</time></trkpt><trkpt lat="40.68405336014652" lon="14.758352378152095"><ele>111.0</ele><time>2026-04-26T13:54:49Z</time></trkpt><trkpt lat="40.684184782799136" lon="14.758383460335041"><ele>111.0</ele><time>2026-04-26T13:54:50Z</time></trkpt><trkpt lat="40.68430095983654" lon="14.758413438741712"><ele>111.0</ele><time>2026-04-26T13:54:51Z</time></trkpt><trkpt lat="40.684410705676015" lon="14.758438628526154"><ele>111.0</ele><time>2026-04-26T13:54:52Z</time></trkpt><trkpt lat="40.68451253835641" lon="14.75846526386163"><ele>110.19999999999999</ele><time>2026-04-26T13:54:53Z</time></trkpt><trkpt lat="40.684611529783396" lon="14.758494172562783"><ele>109.39999999999999</ele><time>2026-04-26T13:54:54Z</time></trkpt><trkpt lat="40.684707210481335" lon="14.758528772106816"><ele>108.6</ele><time>2026-04-26T13:54:55Z</time></trkpt><trkpt lat="40.684794708187255" lon="14.758570000361406"><ele>107.8</ele><time>2026-04-26T13:54:56Z</time></trkpt><trkpt lat="40.68486846263344" lon="14.758632313964895"><ele>107.0</ele><time>2026-04-26T13:54:57Z</time></trkpt><trkpt lat="40.68492756482509" lon="14.758717015903125"><ele>107.0</ele><time>2026-04-26T13:54:58Z</time></trkpt><trkpt lat="40.684964139661716" lon="14.758827749954651"><ele>106.99999999999999</ele><time>2026-04-26T13:54:59Z</time></trkpt><trkpt lat="40.6849877257142" lon="14.758949295324335"><ele>106.99999999999999</ele><time>2026-04-26T13:55:00Z</time></trkpt><trkpt lat="40.68499766275526" lon="14.759073924111135"><ele>107.0</ele><time>2026-04-26T13:55:01Z</time></trkpt><trkpt lat="40.68500296458359" lon="14.759203302806059"><ele>107.0</ele><time>2026-04-26T13:55:02Z</time></trkpt><trkpt lat="40.685013122759926" lon="14.759330517026855"><ele>107.19999999999999</ele><time>2026-04-26T13:55:03Z</time></trkpt><trkpt lat="40.68502593131386" lon="14.759452709173022"><ele>107.39999999999999</ele><time>2026-04-26T13:55:04Z</time></trkpt><trkpt lat="40.685035135372196" lon="14.759578228613162"><ele>107.60000000000001</ele><time>2026-04-26T13:55:05Z</time></trkpt><trkpt lat="40.68504365153258" lon="14.75971444314908"><ele>107.80000000000001</ele><time>2026-04-26T13:55:06Z</time></trkpt><trkpt lat="40.68505005656484" lon="14.759853404939195"><ele>108.0</ele><time>2026-04-26T13:55:07Z</time></trkpt><trkpt lat="40.68505569483576" lon="14.759992857242201"><ele>108.0</ele><time>2026-04-26T13:55:08Z</time></trkpt><trkpt lat="40.68506197319303" lon="14.760129127928813"><ele>108.00000000000001</ele><time>2026-04-26T13:55:09Z</time></trkpt><trkpt lat="40.685067273124545" lon="14.760266242693223"><ele>108.00000000000001</ele><time>2026-04-26T13:55:10Z</time></trkpt><trkpt lat="40.685075652995685" lon="14.760400737706483"><ele>108.0</ele><time>2026-04-26T13:55:11Z</time></trkpt><trkpt lat="40.68508786385993" lon="14.76051811012861"><ele>108.0</ele><time>2026-04-26T13:55:12Z</time></trkpt><trkpt lat="40.6851050066882" lon="14.760626205125877"><ele>107.4</ele><time>2026-04-26T13:55:13Z</time></trkpt><trkpt lat="40.685135517465994" lon="14.760743315640374"><ele>106.80000000000001</ele><time>2026-04-26T13:55:14Z</time></trkpt><trkpt lat="40.68518462959242" lon="14.760858657692173"><ele>106.2</ele><time>2026-04-26T13:55:15Z</time></trkpt><trkpt lat="40.685236245075046" lon="14.760962856360239"><ele>105.6</ele><time>2026-04-26T13:55:16Z</time></trkpt><trkpt lat="40.68529024836589" lon="14.761043154236953"><ele>105.0</ele><time>2026-04-26T13:55:17Z</time></trkpt><trkpt lat="40.68534912715912" lon="14.761116541873044"><ele>103.33333333333333</ele><time>2026-04-26T13:55:18Z</time></trkpt><trkpt lat="40.6854128063959" lon="14.761187055766742"><ele>101.66666666666667</ele><time>2026-04-26T13:55:19Z</time></trkpt><trkpt lat="40.68547421084809" lon="14.761249086796914"><ele>100.0</ele><time>2026-04-26T13:55:20Z</time></trkpt><trkpt lat="40.68552480823722" lon="14.761318392394795"><ele>98.33333333333334</ele><time>2026-04-26T13:55:21Z</time></trkpt><trkpt lat="40.685583980978066" lon="14.761459565916706"><ele>96.66666666666667</ele><time>2026-04-26T13:55:23Z</time></trkpt><trkpt lat="40.685590566088266" lon="14.761547450699842"><ele>95.0</ele><time>2026-04-26T13:55:24Z</time></trkpt><trkpt lat="40.68557095583382" lon="14.76164457841347"><ele>95.0</ele><time>2026-04-26T13:55:25Z</time></trkpt><trkpt lat="40.68552603493322" lon="14.76173619029136"><ele>95.0</ele><time>2026-04-26T13:55:26.001Z</time></trkpt><trkpt lat="40.685460863246796" lon="14.761816142666683"><ele>95.0</ele><time>2026-04-26T13:55:27.001Z</time></trkpt><trkpt lat="40.68538519319803" lon="14.761845785021517"><ele>95.0</ele><time>2026-04-26T13:55:28.001Z</time></trkpt><trkpt lat="40.68530890848733" lon="14.761887591159915"><ele>95.0</ele><time>2026-04-26T13:55:29.001Z</time></trkpt><trkpt lat="40.68521834313931" lon="14.761859606632294"><ele>95.0</ele><time>2026-04-26T13:55:30.001Z</time></trkpt><trkpt lat="40.685122229573345" lon="14.76180574949371"><ele>96.2</ele><time>2026-04-26T13:55:31.001Z</time></trkpt><trkpt lat="40.68503824768804" lon="14.761748483148786"><ele>97.4</ele><time>2026-04-26T13:55:32.001Z</time></trkpt><trkpt lat="40.68496073310878" lon="14.761668458973855"><ele>98.6</ele><time>2026-04-26T13:55:33.001Z</time></trkpt><trkpt lat="40.68489377505524" lon="14.76157035124845"><ele>99.8</ele><time>2026-04-26T13:55:34.001Z</time></trkpt><trkpt lat="40.684833376268294" lon="14.761469496806898"><ele>101.0</ele><time>2026-04-26T13:55:35.001Z</time></trkpt><trkpt lat="40.684785927815014" lon="14.76137096667396"><ele>101.0</ele><time>2026-04-26T13:55:36.001Z</time></trkpt><trkpt lat="40.68476486358364" lon="14.761272890254308"><ele>101.0</ele><time>2026-04-26T13:55:37.001Z</time></trkpt><trkpt lat="40.68478357595523" lon="14.761188387010792"><ele>101.0</ele><time>2026-04-26T13:55:38.001Z</time></trkpt><trkpt lat="40.68483431302633" lon="14.761122276368635"><ele>101.0</ele><time>2026-04-26T13:55:39.001Z</time></trkpt><trkpt lat="40.684893985100246" lon="14.76106215377731"><ele>101.0</ele><time>2026-04-26T13:55:40.001Z</time></trkpt><trkpt lat="40.684965343429944" lon="14.761075642144089"><ele>101.0</ele><time>2026-04-26T13:55:41.001Z</time></trkpt><trkpt lat="40.685022790145624" lon="14.761146629590915"><ele>101.0</ele><time>2026-04-26T13:55:42.001Z</time></trkpt><trkpt lat="40.685070196457474" lon="14.7612193101515"><ele>101.0</ele><time>2026-04-26T13:55:43.001Z</time></trkpt><trkpt lat="40.6851214407639" lon="14.761314902193522"><ele>101.0</ele><time>2026-04-26T13:55:44.001Z</time></trkpt><trkpt lat="40.68519164207805" lon="14.761430446592891"><ele>101.0</ele><time>2026-04-26T13:55:45.001Z</time></trkpt><trkpt lat="40.68527849633647" lon="14.761563612407485"><ele>101.0</ele><time>2026-04-26T13:55:46.001Z</time></trkpt><trkpt lat="40.68537005462751" lon="14.761710822677886"><ele>99.0</ele><time>2026-04-26T13:55:47.001Z</time></trkpt><trkpt lat="40.6854661218633" lon="14.761861141965362"><ele>97.0</ele><time>2026-04-26T13:55:48.001Z</time></trkpt><trkpt lat="40.6855721156267" lon="14.762017649468032"><ele>95.0</ele><time>2026-04-26T13:55:49.001Z</time></trkpt><trkpt lat="40.68567809933931" lon="14.76218106429114"><ele>91.66666666666667</ele><time>2026-04-26T13:55:50.001Z</time></trkpt><trkpt lat="40.685787942225396" lon="14.762351067903266"><ele>88.33333333333333</ele><time>2026-04-26T13:55:51.001Z</time></trkpt><trkpt lat="40.68590223914678" lon="14.762526891568237"><ele>85.0</ele><time>2026-04-26T13:55:52.001Z</time></trkpt><trkpt lat="40.68600864478256" lon="14.762712117688507"><ele>92.33333333333333</ele><time>2026-04-26T13:55:53.001Z</time></trkpt><trkpt lat="40.686102725269414" lon="14.762902712599628"><ele>99.66666666666666</ele><time>2026-04-26T13:55:54.001Z</time></trkpt><trkpt lat="40.686193444754494" lon="14.763100980331053"><ele>107.0</ele><time>2026-04-26T13:55:55.001Z</time></trkpt><trkpt lat="40.68628202747127" lon="14.76330467350411"><ele>107.0</ele><time>2026-04-26T13:55:56.001Z</time></trkpt><trkpt lat="40.68636772618607" lon="14.763515959101019"><ele>107.0</ele><time>2026-04-26T13:55:57.001Z</time></trkpt><trkpt lat="40.686447847334385" lon="14.76373220544655"><ele>107.0</ele><time>2026-04-26T13:55:58.001Z</time></trkpt><trkpt lat="40.686524173137066" lon="14.763949900902542"><ele>108.33333333333333</ele><time>2026-04-26T13:55:59.001Z</time></trkpt><trkpt lat="40.686588169132825" lon="14.76417083285497"><ele>109.66666666666666</ele><time>2026-04-26T13:56:00.001Z</time></trkpt><trkpt lat="40.686639827746426" lon="14.764393024060611"><ele>111.0</ele><time>2026-04-26T13:56:01.001Z</time></trkpt><trkpt lat="40.68668614490575" lon="14.764615332502293"><ele>119.5</ele><time>2026-04-26T13:56:02.001Z</time></trkpt><trkpt lat="40.68674313017739" lon="14.765083021456821"><ele>128.0</ele><time>2026-04-26T13:56:04.001Z</time></trkpt><trkpt lat="40.68675689334542" lon="14.765321694062177"><ele>126.33333333333333</ele><time>2026-04-26T13:56:05.001Z</time></trkpt><trkpt lat="40.686751801199605" lon="14.765582278912792"><ele>124.66666666666666</ele><time>2026-04-26T13:56:06.065Z</time></trkpt><trkpt lat="40.68673355128196" lon="14.765827936052219"><ele>123.0</ele><time>2026-04-26T13:56:07.063Z</time></trkpt><trkpt lat="40.686704239488954" lon="14.766078677067728"><ele>105.0</ele><time>2026-04-26T13:56:08.06Z</time></trkpt><trkpt lat="40.68674634605089" lon="14.76847105399492"><ele>80.0</ele><time>2026-04-26T13:56:18.68Z</time></trkpt><trkpt lat="40.68657826708203" lon="14.769951503823027"><ele>78.0</ele><time>2026-04-26T13:56:23.001Z</time></trkpt><trkpt lat="40.68660143888694" lon="14.770239650933979"><ele>76.0</ele><time>2026-04-26T13:56:24.001Z</time></trkpt><trkpt lat="40.686565184239896" lon="14.77050686213237"><ele>74.0</ele><time>2026-04-26T13:56:25.001Z</time></trkpt><trkpt lat="40.68657117915867" lon="14.77083105445356"><ele>73.0</ele><time>2026-04-26T13:56:26.001Z</time></trkpt><trkpt lat="40.68663326450467" lon="14.771065516080181"><ele>72.0</ele><time>2026-04-26T13:56:27.001Z</time></trkpt><trkpt lat="40.68671826621693" lon="14.77129519388134"><ele>71.0</ele><time>2026-04-26T13:56:28.001Z</time></trkpt><trkpt lat="40.6868186916696" lon="14.771520380891008"><ele>71.33333333333334</ele><time>2026-04-26T13:56:29.001Z</time></trkpt><trkpt lat="40.686935476235455" lon="14.771708130164173"><ele>71.66666666666667</ele><time>2026-04-26T13:56:30.001Z</time></trkpt><trkpt lat="40.6870558342472" lon="14.771894790535587"><ele>72.0</ele><time>2026-04-26T13:56:31.001Z</time></trkpt><trkpt lat="40.68718958302684" lon="14.772067859774653"><ele>72.0</ele><time>2026-04-26T13:56:32.001Z</time></trkpt><trkpt lat="40.68733199638281" lon="14.772226626407994"><ele>72.0</ele><time>2026-04-26T13:56:33.001Z</time></trkpt><trkpt lat="40.687477858610286" lon="14.77237343123252"><ele>72.0</ele><time>2026-04-26T13:56:34.001Z</time></trkpt><trkpt lat="40.68762995124219" lon="14.772500643302555"><ele>72.0</ele><time>2026-04-26T13:56:35.001Z</time></trkpt><trkpt lat="40.687785574547206" lon="14.772615587868433"><ele>72.0</ele><time>2026-04-26T13:56:36.001Z</time></trkpt><trkpt lat="40.68794359704992" lon="14.772718944773299"><ele>72.0</ele><time>2026-04-26T13:56:37.001Z</time></trkpt><trkpt lat="40.68810504395696" lon="14.772816175336798"><ele>72.0</ele><time>2026-04-26T13:56:38.001Z</time></trkpt><trkpt lat="40.68827543922276" lon="14.77291408795163"><ele>72.0</ele><time>2026-04-26T13:56:39.002Z</time></trkpt><trkpt lat="40.68844827537925" lon="14.773002812547409"><ele>72.0</ele><time>2026-04-26T13:56:40.002Z</time></trkpt><trkpt lat="40.6886203025054" lon="14.77309576006539"><ele>72.66666666666667</ele><time>2026-04-26T13:56:41.002Z</time></trkpt><trkpt lat="40.68879072188954" lon="14.773196541446511"><ele>73.33333333333334</ele><time>2026-04-26T13:56:42.002Z</time></trkpt><trkpt lat="40.688954965138166" lon="14.773296131963942"><ele>74.0</ele><time>2026-04-26T13:56:43.002Z</time></trkpt><trkpt lat="40.68911705697052" lon="14.77338705427469"><ele>74.0</ele><time>2026-04-26T13:56:44.002Z</time></trkpt><trkpt lat="40.68928153458753" lon="14.77346368613264"><ele>74.0</ele><time>2026-04-26T13:56:45.002Z</time></trkpt><trkpt lat="40.68944590330671" lon="14.773530367065845"><ele>74.0</ele><time>2026-04-26T13:56:46.002Z</time></trkpt><trkpt lat="40.689611145959205" lon="14.773584291585177"><ele>64.0</ele><time>2026-04-26T13:56:47.002Z</time></trkpt><trkpt lat="40.68977585735692" lon="14.773625415533937"><ele>54.0</ele><time>2026-04-26T13:56:48Z</time></trkpt><trkpt lat="40.6899430632955" lon="14.773652227564849"><ele>44.0</ele><time>2026-04-26T13:56:49Z</time></trkpt><trkpt lat="40.69011094217118" lon="14.773673271568596"><ele>44.0</ele><time>2026-04-26T13:56:50Z</time></trkpt><trkpt lat="40.690285874468124" lon="14.773687400456613"><ele>44.0</ele><time>2026-04-26T13:56:51Z</time></trkpt><trkpt lat="40.69046847694901" lon="14.773702028836137"><ele>44.0</ele><time>2026-04-26T13:56:52Z</time></trkpt><trkpt lat="40.69065257735314" lon="14.773720941075549"><ele>44.0</ele><time>2026-04-26T13:56:53Z</time></trkpt><trkpt lat="40.690836279540804" lon="14.773745069739554"><ele>44.0</ele><time>2026-04-26T13:56:54Z</time></trkpt><trkpt lat="40.69101589485173" lon="14.773779567714728"><ele>44.0</ele><time>2026-04-26T13:56:55Z</time></trkpt><trkpt lat="40.69118992969454" lon="14.77383404023815"><ele>47.33333333333333</ele><time>2026-04-26T13:56:56Z</time></trkpt><trkpt lat="40.69136233476083" lon="14.773902633347719"><ele>50.666666666666664</ele><time>2026-04-26T13:56:57Z</time></trkpt><trkpt lat="40.69153218304403" lon="14.773984316527736"><ele>54.0</ele><time>2026-04-26T13:56:58Z</time></trkpt><trkpt lat="40.69169888066472" lon="14.77408037915529"><ele>54.0</ele><time>2026-04-26T13:56:59Z</time></trkpt><trkpt lat="40.69186021516086" lon="14.77419107184975"><ele>54.0</ele><time>2026-04-26T13:57:00Z</time></trkpt><trkpt lat="40.69201516257317" lon="14.774319313272398"><ele>54.0</ele><time>2026-04-26T13:57:01Z</time></trkpt><trkpt lat="40.692164328570314" lon="14.774459744212677"><ele>50.666666666666664</ele><time>2026-04-26T13:57:02Z</time></trkpt><trkpt lat="40.692305242208214" lon="14.774611244064738"><ele>47.33333333333333</ele><time>2026-04-26T13:57:03Z</time></trkpt><trkpt lat="40.692434134901546" lon="14.774768865135265"><ele>44.0</ele><time>2026-04-26T13:57:04Z</time></trkpt><trkpt lat="40.69254869895558" lon="14.77493183267837"><ele>44.0</ele><time>2026-04-26T13:57:05Z</time></trkpt><trkpt lat="40.69265310006341" lon="14.775097497371336"><ele>44.0</ele><time>2026-04-26T13:57:06Z</time></trkpt><trkpt lat="40.692749929861144" lon="14.77526549815271"><ele>44.0</ele><time>2026-04-26T13:57:07Z</time></trkpt><trkpt lat="40.69283853120351" lon="14.775436280518571"><ele>42.0</ele><time>2026-04-26T13:57:08Z</time></trkpt><trkpt lat="40.69291383502242" lon="14.775616438541052"><ele>40.0</ele><time>2026-04-26T13:57:09Z</time></trkpt><trkpt lat="40.69298375898454" lon="14.77580460937593"><ele>38.0</ele><time>2026-04-26T13:57:10Z</time></trkpt><trkpt lat="40.693049409907424" lon="14.776001756276527"><ele>38.666666666666664</ele><time>2026-04-26T13:57:11Z</time></trkpt><trkpt lat="40.69311072971436" lon="14.776202179215078"><ele>39.333333333333336</ele><time>2026-04-26T13:57:12Z</time></trkpt><trkpt lat="40.693167635636456" lon="14.77640202097817"><ele>40.0</ele><time>2026-04-26T13:57:13Z</time></trkpt><trkpt lat="40.69322568046268" lon="14.776597436207952"><ele>40.0</ele><time>2026-04-26T13:57:14Z</time></trkpt><trkpt lat="40.69328348578539" lon="14.776793969759042"><ele>40.0</ele><time>2026-04-26T13:57:15Z</time></trkpt><trkpt lat="40.69334099002244" lon="14.7769895326966"><ele>40.0</ele><time>2026-04-26T13:57:16.001Z</time></trkpt><trkpt lat="40.693396174284004" lon="14.777178221704357"><ele>40.25</ele><time>2026-04-26T13:57:17.001Z</time></trkpt><trkpt lat="40.693445142982014" lon="14.77734839685858"><ele>40.5</ele><time>2026-04-26T13:57:18.001Z</time></trkpt><trkpt lat="40.693493023665226" lon="14.777512604766738"><ele>40.75</ele><time>2026-04-26T13:57:19.001Z</time></trkpt><trkpt lat="40.69354160603811" lon="14.777674976637963"><ele>41.0</ele><time>2026-04-26T13:57:20.001Z</time></trkpt><trkpt lat="40.693590258539835" lon="14.777835086210507"><ele>42.25</ele><time>2026-04-26T13:57:21.001Z</time></trkpt><trkpt lat="40.693638914661456" lon="14.778003967600394"><ele>43.5</ele><time>2026-04-26T13:57:22.001Z</time></trkpt><trkpt lat="40.69368718927049" lon="14.778181333429291"><ele>44.75</ele><time>2026-04-26T13:57:23.001Z</time></trkpt><trkpt lat="40.6937419698416" lon="14.778369073373"><ele>46.0</ele><time>2026-04-26T13:57:24.001Z</time></trkpt><trkpt lat="40.69379966983129" lon="14.778564217894047"><ele>46.333333333333336</ele><time>2026-04-26T13:57:25.001Z</time></trkpt><trkpt lat="40.69385874533903" lon="14.778768773698747"><ele>46.666666666666664</ele><time>2026-04-26T13:57:26.001Z</time></trkpt><trkpt lat="40.69392197353172" lon="14.77897588585707"><ele>47.0</ele><time>2026-04-26T13:57:27.001Z</time></trkpt><trkpt lat="40.6939946664048" lon="14.779182546782513"><ele>48.0</ele><time>2026-04-26T13:57:28.001Z</time></trkpt><trkpt lat="40.69407833320325" lon="14.779386910038447"><ele>49.0</ele><time>2026-04-26T13:57:29.001Z</time></trkpt><trkpt lat="40.69416646295598" lon="14.779589953910662"><ele>50.0</ele><time>2026-04-26T13:57:30.001Z</time></trkpt><trkpt lat="40.694261500224684" lon="14.77978573490464"><ele>50.0</ele><time>2026-04-26T13:57:31.001Z</time></trkpt><trkpt lat="40.694364717530185" lon="14.779968386490488"><ele>50.0</ele><time>2026-04-26T13:57:32.001Z</time></trkpt><trkpt lat="40.69447341128741" lon="14.780148441150835"><ele>50.0</ele><time>2026-04-26T13:57:33.001Z</time></trkpt><trkpt lat="40.694596723579394" lon="14.780324001552987"><ele>50.66666666666667</ele><time>2026-04-26T13:57:34.001Z</time></trkpt><trkpt lat="40.694729763618" lon="14.780498406347155"><ele>51.33333333333333</ele><time>2026-04-26T13:57:35.001Z</time></trkpt><trkpt lat="40.69487075347972" lon="14.780678851768531"><ele>52.0</ele><time>2026-04-26T13:57:36.001Z</time></trkpt><trkpt lat="40.6950172156628" lon="14.78086377659589"><ele>52.666666666666664</ele><time>2026-04-26T13:57:37.001Z</time></trkpt><trkpt lat="40.69516077851387" lon="14.781054386904383"><ele>53.33333333333333</ele><time>2026-04-26T13:57:38.001Z</time></trkpt><trkpt lat="40.69530447168942" lon="14.781243502766944"><ele>54.0</ele><time>2026-04-26T13:57:39.001Z</time></trkpt><trkpt lat="40.695449264363084" lon="14.781429690356525"><ele>55.0</ele><time>2026-04-26T13:57:40.001Z</time></trkpt><trkpt lat="40.695591069269824" lon="14.781619387179317"><ele>56.0</ele><time>2026-04-26T13:57:41.001Z</time></trkpt><trkpt lat="40.695726515600285" lon="14.781813519221629"><ele>57.0</ele><time>2026-04-26T13:57:42.001Z</time></trkpt><trkpt lat="40.695850247176395" lon="14.782024718222942"><ele>57.33333333333333</ele><time>2026-04-26T13:57:43.001Z</time></trkpt><trkpt lat="40.6959638909403" lon="14.782248495036676"><ele>57.666666666666664</ele><time>2026-04-26T13:57:44.001Z</time></trkpt><trkpt lat="40.69607111432057" lon="14.782478827389674"><ele>58.0</ele><time>2026-04-26T13:57:45.001Z</time></trkpt><trkpt lat="40.696165596460496" lon="14.78272298334799"><ele>62.33333333333333</ele><time>2026-04-26T13:57:46.001Z</time></trkpt><trkpt lat="40.69624035789849" lon="14.782978193816858"><ele>66.66666666666667</ele><time>2026-04-26T13:57:47.001Z</time></trkpt><trkpt lat="40.696316029478126" lon="14.783239258794469"><ele>71.0</ele><time>2026-04-26T13:57:48.001Z</time></trkpt><trkpt lat="40.69637362087975" lon="14.783521765781012"><ele>71.0</ele><time>2026-04-26T13:57:49.001Z</time></trkpt><trkpt lat="40.696426062172506" lon="14.783809090779751"><ele>71.0</ele><time>2026-04-26T13:57:50.001Z</time></trkpt><trkpt lat="40.69648101501441" lon="14.784100539129453"><ele>71.0</ele><time>2026-04-26T13:57:51.001Z</time></trkpt><trkpt lat="40.69653352729467" lon="14.7843919692663"><ele>71.0</ele><time>2026-04-26T13:57:52.001Z</time></trkpt><trkpt lat="40.69658489524831" lon="14.784682209409745"><ele>71.0</ele><time>2026-04-26T13:57:53.001Z</time></trkpt><trkpt lat="40.69663567480002" lon="14.784968434677715"><ele>71.0</ele><time>2026-04-26T13:57:54.001Z</time></trkpt><trkpt lat="40.69668653761948" lon="14.785249790802188"><ele>71.0</ele><time>2026-04-26T13:57:55.001Z</time></trkpt><trkpt lat="40.6967383241018" lon="14.785530114083251"><ele>71.66666666666667</ele><time>2026-04-26T13:57:56.001Z</time></trkpt><trkpt lat="40.69678866790953" lon="14.785808756203005"><ele>72.33333333333333</ele><time>2026-04-26T13:57:57.001Z</time></trkpt><trkpt lat="40.696840088676865" lon="14.786082955865034"><ele>73.0</ele><time>2026-04-26T13:57:58.001Z</time></trkpt><trkpt lat="40.69688980291396" lon="14.786355225772098"><ele>77.0</ele><time>2026-04-26T13:57:59.001Z</time></trkpt><trkpt lat="40.69693949860928" lon="14.786627550368845"><ele>81.0</ele><time>2026-04-26T13:58:00.001Z</time></trkpt><trkpt lat="40.696987587291716" lon="14.786900976775708"><ele>85.0</ele><time>2026-04-26T13:58:01.001Z</time></trkpt><trkpt lat="40.69703045357017" lon="14.787178161505668"><ele>85.0</ele><time>2026-04-26T13:58:02.001Z</time></trkpt><trkpt lat="40.69707184874788" lon="14.787459899373774"><ele>85.0</ele><time>2026-04-26T13:58:03.001Z</time></trkpt><trkpt lat="40.6971144321086" lon="14.787746190458245"><ele>85.0</ele><time>2026-04-26T13:58:04.001Z</time></trkpt><trkpt lat="40.69715472515708" lon="14.788045191061705"><ele>87.5</ele><time>2026-04-26T13:58:05.001Z</time></trkpt><trkpt lat="40.69719246900259" lon="14.788350064573077"><ele>90.0</ele><time>2026-04-26T13:58:06.001Z</time></trkpt><trkpt lat="40.69721898330471" lon="14.788657365319303"><ele>93.0</ele><time>2026-04-26T13:58:07.001Z</time></trkpt><trkpt lat="40.697235466194556" lon="14.788965424183695"><ele>96.0</ele><time>2026-04-26T13:58:08.001Z</time></trkpt><trkpt lat="40.69724486726901" lon="14.789274026247647"><ele>96.5</ele><time>2026-04-26T13:58:09.001Z</time></trkpt><trkpt lat="40.69725035686936" lon="14.7895853878324"><ele>97.0</ele><time>2026-04-26T13:58:10.001Z</time></trkpt><trkpt lat="40.697257297844246" lon="14.789898305905263"><ele>99.0</ele><time>2026-04-26T13:58:11.001Z</time></trkpt><trkpt lat="40.69725549412496" lon="14.790209326650592"><ele>101.0</ele><time>2026-04-26T13:58:12.001Z</time></trkpt><trkpt lat="40.69724648913532" lon="14.79053359331895"><ele>101.0</ele><time>2026-04-26T13:58:13.001Z</time></trkpt><trkpt lat="40.69723095268602" lon="14.790860570307244"><ele>101.0</ele><time>2026-04-26T13:58:14.001Z</time></trkpt><trkpt lat="40.697213718157734" lon="14.791191765777693"><ele>103.0</ele><time>2026-04-26T13:58:15.001Z</time></trkpt><trkpt lat="40.69719170529094" lon="14.791525557766317"><ele>105.0</ele><time>2026-04-26T13:58:16.001Z</time></trkpt><trkpt lat="40.697165878132665" lon="14.791857535004679"><ele>107.5</ele><time>2026-04-26T13:58:17.001Z</time></trkpt><trkpt lat="40.69714035902736" lon="14.792188923630833"><ele>110.0</ele><time>2026-04-26T13:58:18.001Z</time></trkpt><trkpt lat="40.69711849593286" lon="14.79251292968827"><ele>112.5</ele><time>2026-04-26T13:58:19.001Z</time></trkpt><trkpt lat="40.697095102443846" lon="14.792828755634815"><ele>115.0</ele><time>2026-04-26T13:58:20.001Z</time></trkpt><trkpt lat="40.697071094743016" lon="14.793139484129762"><ele>115.0</ele><time>2026-04-26T13:58:21.001Z</time></trkpt><trkpt lat="40.69704935880865" lon="14.793446303891777"><ele>115.0</ele><time>2026-04-26T13:58:22.001Z</time></trkpt><trkpt lat="40.697028559768455" lon="14.79375096178098"><ele>115.0</ele><time>2026-04-26T13:58:23.001Z</time></trkpt><trkpt lat="40.69700967824415" lon="14.794052011055689"><ele>115.0</ele><time>2026-04-26T13:58:24.001Z</time></trkpt><trkpt lat="40.69699094677282" lon="14.79435515676725"><ele>114.0</ele><time>2026-04-26T13:58:25.001Z</time></trkpt><trkpt lat="40.696978379558125" lon="14.794670368032056"><ele>113.0</ele><time>2026-04-26T13:58:26.001Z</time></trkpt><trkpt lat="40.69697290425798" lon="14.795000034744767"><ele>111.5</ele><time>2026-04-26T13:58:27.001Z</time></trkpt><trkpt lat="40.69697214520153" lon="14.795339854302068"><ele>110.0</ele><time>2026-04-26T13:58:28.001Z</time></trkpt><trkpt lat="40.69697363798185" lon="14.795685433411464"><ele>111.0</ele><time>2026-04-26T13:58:29.001Z</time></trkpt><trkpt lat="40.69697922472659" lon="14.796038051079183"><ele>112.0</ele><time>2026-04-26T13:58:30.001Z</time></trkpt><trkpt lat="40.69698966775979" lon="14.796390793230612"><ele>112.0</ele><time>2026-04-26T13:58:31.002Z</time></trkpt><trkpt lat="40.69700658526954" lon="14.796745237236555"><ele>112.0</ele><time>2026-04-26T13:58:32.002Z</time></trkpt><trkpt lat="40.69702652546056" lon="14.797100233849298"><ele>114.0</ele><time>2026-04-26T13:58:33.002Z</time></trkpt><trkpt lat="40.69705197207026" lon="14.797456453631687"><ele>116.0</ele><time>2026-04-26T13:58:34.002Z</time></trkpt><trkpt lat="40.697084873140874" lon="14.797813564385935"><ele>118.0</ele><time>2026-04-26T13:58:35.002Z</time></trkpt><trkpt lat="40.69712179717083" lon="14.798168247632715"><ele>120.0</ele><time>2026-04-26T13:58:36.002Z</time></trkpt><trkpt lat="40.69716277075641" lon="14.798514145375663"><ele>122.5</ele><time>2026-04-26T13:58:37.002Z</time></trkpt><trkpt lat="40.697207253985404" lon="14.798858296077961"><ele>125.0</ele><time>2026-04-26T13:58:38.002Z</time></trkpt><trkpt lat="40.697258317827334" lon="14.799199186723664"><ele>125.0</ele><time>2026-04-26T13:58:39.002Z</time></trkpt><trkpt lat="40.69731552704895" lon="14.799531000998174"><ele>125.0</ele><time>2026-04-26T13:58:40.002Z</time></trkpt><trkpt lat="40.69737433697526" lon="14.799860728394522"><ele>125.0</ele><time>2026-04-26T13:58:41.002Z</time></trkpt><trkpt lat="40.69743505408279" lon="14.80018658508418"><ele>125.0</ele><time>2026-04-26T13:58:42.002Z</time></trkpt><trkpt lat="40.69750026833097" lon="14.8005079127029"><ele>125.0</ele><time>2026-04-26T13:58:43.002Z</time></trkpt><trkpt lat="40.697567989720895" lon="14.800825036896372"><ele>125.0</ele><time>2026-04-26T13:58:44.002Z</time></trkpt><trkpt lat="40.69763302660608" lon="14.801141691041405"><ele>126.5</ele><time>2026-04-26T13:58:45.002Z</time></trkpt><trkpt lat="40.697698215374444" lon="14.801452500393996"><ele>128.0</ele><time>2026-04-26T13:58:46.002Z</time></trkpt><trkpt lat="40.69776363943103" lon="14.801760256080012"><ele>136.0</ele><time>2026-04-26T13:58:47.002Z</time></trkpt><trkpt lat="40.69783051583525" lon="14.802068062746944"><ele>144.0</ele><time>2026-04-26T13:58:48.002Z</time></trkpt><trkpt lat="40.6978977573546" lon="14.802370554416916"><ele>142.5</ele><time>2026-04-26T13:58:49.002Z</time></trkpt><trkpt lat="40.69796174202979" lon="14.802676235583034"><ele>141.0</ele><time>2026-04-26T13:58:50.002Z</time></trkpt><trkpt lat="40.69802455964024" lon="14.802982563583758"><ele>141.0</ele><time>2026-04-26T13:58:51.002Z</time></trkpt><trkpt lat="40.69808697044621" lon="14.803288350146309"><ele>141.0</ele><time>2026-04-26T13:58:52.002Z</time></trkpt><trkpt lat="40.698151098518274" lon="14.803591356661315"><ele>139.5</ele><time>2026-04-26T13:58:53.002Z</time></trkpt><trkpt lat="40.698218025472585" lon="14.803891211239993"><ele>138.0</ele><time>2026-04-26T13:58:54.001Z</time></trkpt><trkpt lat="40.69828513992285" lon="14.804188498227838"><ele>140.0</ele><time>2026-04-26T13:58:55.001Z</time></trkpt><trkpt lat="40.69835226979422" lon="14.80448301659887"><ele>142.0</ele><time>2026-04-26T13:58:56.001Z</time></trkpt><trkpt lat="40.69842048926022" lon="14.804775507528262"><ele>142.0</ele><time>2026-04-26T13:58:57.001Z</time></trkpt><trkpt lat="40.698487569427556" lon="14.80506720777172"><ele>142.0</ele><time>2026-04-26T13:58:58.001Z</time></trkpt><trkpt lat="40.6985549682011" lon="14.805357893631001"><ele>149.5</ele><time>2026-04-26T13:58:59.001Z</time></trkpt><trkpt lat="40.698621006177014" lon="14.80564453970641"><ele>157.0</ele><time>2026-04-26T13:59:00.001Z</time></trkpt><trkpt lat="40.69868803788746" lon="14.805933715577043"><ele>156.0</ele><time>2026-04-26T13:59:01.001Z</time></trkpt><trkpt lat="40.69875308490206" lon="14.806224411363496"><ele>155.0</ele><time>2026-04-26T13:59:02.001Z</time></trkpt><trkpt lat="40.69881592597328" lon="14.806513104027962"><ele>155.0</ele><time>2026-04-26T13:59:03.001Z</time></trkpt><trkpt lat="40.69887279202865" lon="14.806806317207474"><ele>155.0</ele><time>2026-04-26T13:59:04.001Z</time></trkpt><trkpt lat="40.698929089722405" lon="14.807099595481032"><ele>154.0</ele><time>2026-04-26T13:59:05.001Z</time></trkpt><trkpt lat="40.698981104889235" lon="14.807388586817453"><ele>153.0</ele><time>2026-04-26T13:59:06.001Z</time></trkpt><trkpt lat="40.699028726771004" lon="14.807680327506038"><ele>156.5</ele><time>2026-04-26T13:59:07.001Z</time></trkpt><trkpt lat="40.69907245049662" lon="14.807976401063849"><ele>160.0</ele><time>2026-04-26T13:59:08.001Z</time></trkpt><trkpt lat="40.69911297105864" lon="14.808273765303367"><ele>164.0</ele><time>2026-04-26T13:59:09.001Z</time></trkpt><trkpt lat="40.69914797029235" lon="14.808573958362814"><ele>168.0</ele><time>2026-04-26T13:59:10.001Z</time></trkpt><trkpt lat="40.69917958797848" lon="14.80887670778086"><ele>168.0</ele><time>2026-04-26T13:59:11.001Z</time></trkpt><trkpt lat="40.699205918878995" lon="14.809180589126422"><ele>168.0</ele><time>2026-04-26T13:59:12.001Z</time></trkpt><trkpt lat="40.69922610665251" lon="14.809486483631943"><ele>169.0</ele><time>2026-04-26T13:59:13.001Z</time></trkpt><trkpt lat="40.699242742878155" lon="14.809795473634077"><ele>170.0</ele><time>2026-04-26T13:59:14.001Z</time></trkpt><trkpt lat="40.69925208435084" lon="14.810108182325589"><ele>169.0</ele><time>2026-04-26T13:59:15.001Z</time></trkpt><trkpt lat="40.69925526895021" lon="14.810418972049423"><ele>168.0</ele><time>2026-04-26T13:59:16.001Z</time></trkpt><trkpt lat="40.699250756234086" lon="14.81073972229419"><ele>165.5</ele><time>2026-04-26T13:59:17.001Z</time></trkpt><trkpt lat="40.69924646156268" lon="14.811051372392118"><ele>163.0</ele><time>2026-04-26T13:59:18.001Z</time></trkpt><trkpt lat="40.69923713885731" lon="14.811360232663365"><ele>163.0</ele><time>2026-04-26T13:59:19.001Z</time></trkpt><trkpt lat="40.699221933197194" lon="14.811662702160582"><ele>163.0</ele><time>2026-04-26T13:59:20.001Z</time></trkpt><trkpt lat="40.699206613499655" lon="14.81196095854447"><ele>167.0</ele><time>2026-04-26T13:59:21.001Z</time></trkpt><trkpt lat="40.699183771506455" lon="14.812257311832012"><ele>171.0</ele><time>2026-04-26T13:59:22.001Z</time></trkpt><trkpt lat="40.6991554083204" lon="14.81255357124215"><ele>174.0</ele><time>2026-04-26T13:59:23.001Z</time></trkpt><trkpt lat="40.699115542090844" lon="14.812844605450634"><ele>177.0</ele><time>2026-04-26T13:59:24.001Z</time></trkpt><trkpt lat="40.69907488628883" lon="14.813135694768217"><ele>180.0</ele><time>2026-04-26T13:59:25.001Z</time></trkpt><trkpt lat="40.69905320305161" lon="14.813426810611434"><ele>183.66666666666666</ele><time>2026-04-26T13:59:26.001Z</time></trkpt><trkpt lat="40.69902679149815" lon="14.813708534182524"><ele>187.33333333333331</ele><time>2026-04-26T13:59:27.001Z</time></trkpt><trkpt lat="40.6989996479128" lon="14.813993430393221"><ele>191.0</ele><time>2026-04-26T13:59:28.001Z</time></trkpt><trkpt lat="40.69897238830927" lon="14.814273432361432"><ele>192.66666666666666</ele><time>2026-04-26T13:59:29.001Z</time></trkpt><trkpt lat="40.698947848470645" lon="14.814541850627721"><ele>194.33333333333331</ele><time>2026-04-26T13:59:30.001Z</time></trkpt><trkpt lat="40.69892220929616" lon="14.814825350789143"><ele>196.0</ele><time>2026-04-26T13:59:31.066Z</time></trkpt><trkpt lat="40.69889676470286" lon="14.815106700550222"><ele>195.0</ele><time>2026-04-26T13:59:32.057Z</time></trkpt><trkpt lat="40.69887295565786" lon="14.81536521881494"><ele>194.0</ele><time>2026-04-26T13:59:33.058Z</time></trkpt><trkpt lat="40.698686669764086" lon="14.818033665482004"><ele>179.0</ele><time>2026-04-26T13:59:36.842Z</time></trkpt><trkpt lat="40.69837990561971" lon="14.820257758015082"><ele>179.0</ele><time>2026-04-26T13:59:49.001Z</time></trkpt><trkpt lat="40.698414418442965" lon="14.820526955599778"><ele>179.0</ele><time>2026-04-26T13:59:50.001Z</time></trkpt><trkpt lat="40.69837718002176" lon="14.82081025827357"><ele>179.0</ele><time>2026-04-26T13:59:51.001Z</time></trkpt><trkpt lat="40.698346145045114" lon="14.82110209928854"><ele>178.33333333333331</ele><time>2026-04-26T13:59:52.001Z</time></trkpt><trkpt lat="40.69831549681133" lon="14.821387921687078"><ele>177.66666666666666</ele><time>2026-04-26T13:59:53.001Z</time></trkpt><trkpt lat="40.6982807468883" lon="14.821673547874799"><ele>177.0</ele><time>2026-04-26T13:59:54.001Z</time></trkpt><trkpt lat="40.698240774458796" lon="14.821963394943344"><ele>177.0</ele><time>2026-04-26T13:59:55.001Z</time></trkpt><trkpt lat="40.698201344545474" lon="14.822256838704897"><ele>177.0</ele><time>2026-04-26T13:59:56.001Z</time></trkpt><trkpt lat="40.698162769270745" lon="14.822549271521082"><ele>176.66666666666666</ele><time>2026-04-26T13:59:57.001Z</time></trkpt><trkpt lat="40.69812247237819" lon="14.82284043881776"><ele>176.33333333333331</ele><time>2026-04-26T13:59:58.001Z</time></trkpt><trkpt lat="40.69807814088312" lon="14.823129122217598"><ele>176.0</ele><time>2026-04-26T13:59:59.001Z</time></trkpt><trkpt lat="40.69802730342952" lon="14.823421482752348"><ele>175.5</ele><time>2026-04-26T14:00:00.001Z</time></trkpt><trkpt lat="40.69797481806755" lon="14.823709036520286"><ele>175.0</ele><time>2026-04-26T14:00:01.001Z</time></trkpt><trkpt lat="40.697917116177344" lon="14.823997245714716"><ele>175.0</ele><time>2026-04-26T14:00:02.001Z</time></trkpt><trkpt lat="40.697854328940515" lon="14.824289196096467"><ele>175.0</ele><time>2026-04-26T14:00:03.001Z</time></trkpt><trkpt lat="40.6977900815063" lon="14.824583213596808"><ele>174.5</ele><time>2026-04-26T14:00:04.001Z</time></trkpt><trkpt lat="40.69772068573697" lon="14.824874939799287"><ele>174.0</ele><time>2026-04-26T14:00:05.001Z</time></trkpt><trkpt lat="40.697646607472926" lon="14.825167146639666"><ele>174.0</ele><time>2026-04-26T14:00:06.001Z</time></trkpt><trkpt lat="40.69757002533568" lon="14.825460293284795"><ele>174.0</ele><time>2026-04-26T14:00:07.001Z</time></trkpt><trkpt lat="40.69749155715971" lon="14.825750674819378"><ele>175.0</ele><time>2026-04-26T14:00:08.001Z</time></trkpt><trkpt lat="40.6974099103204" lon="14.826035852079043"><ele>176.0</ele><time>2026-04-26T14:00:09.002Z</time></trkpt><trkpt lat="40.697318599992755" lon="14.826320695955264"><ele>176.0</ele><time>2026-04-26T14:00:10.002Z</time></trkpt><trkpt lat="40.697223502531024" lon="14.826606795705992"><ele>176.0</ele><time>2026-04-26T14:00:11.002Z</time></trkpt><trkpt lat="40.697125115832954" lon="14.826891192338799"><ele>177.5</ele><time>2026-04-26T14:00:12.002Z</time></trkpt><trkpt lat="40.69702437084819" lon="14.827173128035161"><ele>179.0</ele><time>2026-04-26T14:00:13.002Z</time></trkpt><trkpt lat="40.69692180307191" lon="14.82744851115778"><ele>178.0</ele><time>2026-04-26T14:00:14.002Z</time></trkpt><trkpt lat="40.69681430299798" lon="14.8277192593148"><ele>177.0</ele><time>2026-04-26T14:00:15.002Z</time></trkpt><trkpt lat="40.69670901237976" lon="14.827982165001812"><ele>177.0</ele><time>2026-04-26T14:00:16.002Z</time></trkpt><trkpt lat="40.696599282744344" lon="14.828241802868694"><ele>177.0</ele><time>2026-04-26T14:00:17.002Z</time></trkpt><trkpt lat="40.69648362677379" lon="14.828502231010422"><ele>178.0</ele><time>2026-04-26T14:00:18.002Z</time></trkpt><trkpt lat="40.696363482089026" lon="14.828757513610523"><ele>179.0</ele><time>2026-04-26T14:00:19.002Z</time></trkpt><trkpt lat="40.69624226934862" lon="14.829012688250835"><ele>179.0</ele><time>2026-04-26T14:00:20.002Z</time></trkpt><trkpt lat="40.69611691954056" lon="14.829264791817472"><ele>179.0</ele><time>2026-04-26T14:00:21.002Z</time></trkpt><trkpt lat="40.69598876131875" lon="14.829515814522653"><ele>177.66666666666666</ele><time>2026-04-26T14:00:22.002Z</time></trkpt><trkpt lat="40.69586591184797" lon="14.829760914082964"><ele>176.33333333333334</ele><time>2026-04-26T14:00:23.002Z</time></trkpt><trkpt lat="40.69574522609848" lon="14.829995339243805"><ele>175.0</ele><time>2026-04-26T14:00:24.002Z</time></trkpt><trkpt lat="40.695619804884544" lon="14.830203993796486"><ele>174.66666666666669</ele><time>2026-04-26T14:00:25.002Z</time></trkpt><trkpt lat="40.69549445365237" lon="14.830407364505017"><ele>174.33333333333334</ele><time>2026-04-26T14:00:26.002Z</time></trkpt><trkpt lat="40.69537058077366" lon="14.830611740057368"><ele>174.0</ele><time>2026-04-26T14:00:27.002Z</time></trkpt><trkpt lat="40.695246395631465" lon="14.830814912661053"><ele>171.33333333333334</ele><time>2026-04-26T14:00:28.002Z</time></trkpt><trkpt lat="40.69512391225054" lon="14.831018905488367"><ele>168.66666666666669</ele><time>2026-04-26T14:00:29.002Z</time></trkpt><trkpt lat="40.6949896078744" lon="14.831218015674931"><ele>166.0</ele><time>2026-04-26T14:00:30.002Z</time></trkpt><trkpt lat="40.69484840465042" lon="14.831417614645037"><ele>166.0</ele><time>2026-04-26T14:00:31.002Z</time></trkpt><trkpt lat="40.694703921801135" lon="14.831615794557445"><ele>166.0</ele><time>2026-04-26T14:00:32.002Z</time></trkpt><trkpt lat="40.694559997815084" lon="14.831809726670707"><ele>166.0</ele><time>2026-04-26T14:00:33.002Z</time></trkpt><trkpt lat="40.69441972188887" lon="14.831997286536433"><ele>164.33333333333334</ele><time>2026-04-26T14:00:34.002Z</time></trkpt><trkpt lat="40.694283813602624" lon="14.832179050411362"><ele>162.66666666666666</ele><time>2026-04-26T14:00:35.002Z</time></trkpt><trkpt lat="40.694157754215574" lon="14.832353698887905"><ele>161.0</ele><time>2026-04-26T14:00:36.002Z</time></trkpt><trkpt lat="40.69403432515459" lon="14.832518603645845"><ele>162.0</ele><time>2026-04-26T14:00:37.002Z</time></trkpt><trkpt lat="40.69391735353115" lon="14.832674059281466"><ele>163.0</ele><time>2026-04-26T14:00:38.002Z</time></trkpt><trkpt lat="40.693810391703686" lon="14.832814106958649"><ele>164.0</ele><time>2026-04-26T14:00:39.002Z</time></trkpt><trkpt lat="40.69371249855004" lon="14.832943415808066"><ele>164.0</ele><time>2026-04-26T14:00:40.002Z</time></trkpt><trkpt lat="40.69361824046933" lon="14.833062476952692"><ele>164.0</ele><time>2026-04-26T14:00:41.002Z</time></trkpt><trkpt lat="40.69352242193455" lon="14.833172773560268"><ele>164.0</ele><time>2026-04-26T14:00:42.002Z</time></trkpt><trkpt lat="40.69342477053096" lon="14.833273801707053"><ele>164.0</ele><time>2026-04-26T14:00:43.002Z</time></trkpt><trkpt lat="40.69332687001938" lon="14.833363072941285"><ele>163.2</ele><time>2026-04-26T14:00:44.002Z</time></trkpt><trkpt lat="40.69322422055073" lon="14.8334415345142"><ele>162.39999999999998</ele><time>2026-04-26T14:00:45.002Z</time></trkpt><trkpt lat="40.69312049080233" lon="14.833487599549668"><ele>161.6</ele><time>2026-04-26T14:00:46.002Z</time></trkpt><trkpt lat="40.69301985733764" lon="14.833530391581418"><ele>160.8</ele><time>2026-04-26T14:00:47.002Z</time></trkpt><trkpt lat="40.69292113193512" lon="14.833573799945142"><ele>160.0</ele><time>2026-04-26T14:00:48.002Z</time></trkpt><trkpt lat="40.69282819562704" lon="14.833623773911826"><ele>159.2</ele><time>2026-04-26T14:00:49.002Z</time></trkpt><trkpt lat="40.692743331769385" lon="14.833691470891077"><ele>158.4</ele><time>2026-04-26T14:00:50.002Z</time></trkpt><trkpt lat="40.692674032684195" lon="14.833770739342667"><ele>157.6</ele><time>2026-04-26T14:00:51.002Z</time></trkpt><trkpt lat="40.69260944267423" lon="14.833851794375695"><ele>156.8</ele><time>2026-04-26T14:00:52.002Z</time></trkpt><trkpt lat="40.69255245429778" lon="14.833916910234615"><ele>156.0</ele><time>2026-04-26T14:00:53.002Z</time></trkpt><trkpt lat="40.69247466165054" lon="14.834019296346646"><ele>156.0</ele><time>2026-04-26T14:00:55.002Z</time></trkpt><trkpt lat="40.692412033318305" lon="14.834110795795056"><ele>156.0</ele><time>2026-04-26T14:00:57.002Z</time></trkpt><trkpt lat="40.69235641770614" lon="14.834166078133881"><ele>156.0</ele><time>2026-04-26T14:00:59.002Z</time></trkpt><trkpt lat="40.692294741293296" lon="14.834211380896502"><ele>156.0</ele><time>2026-04-26T14:01:02.002Z</time></trkpt><trkpt lat="40.692229746879946" lon="14.834207764912536"><ele>156.0</ele><time>2026-04-26T14:04:15.002Z</time></trkpt><trkpt lat="40.69216640948436" lon="14.834253971635764"><ele>156.0</ele><time>2026-04-26T14:04:29.002Z</time></trkpt><trkpt lat="40.69221459544428" lon="14.834167809556485"><ele>156.0</ele><time>2026-04-26T14:04:56.002Z</time></trkpt><trkpt lat="40.69227189704487" lon="14.83412222234133"><ele>156.0</ele><time>2026-04-26T14:05:07.002Z</time></trkpt><trkpt lat="40.692309631499" lon="14.834025073033786"><ele>156.0</ele><time>2026-04-26T14:05:17.002Z</time></trkpt><trkpt lat="40.69223581645563" lon="14.834106701287132"><ele>156.0</ele><time>2026-04-26T14:05:36.001Z</time></trkpt><trkpt lat="40.69230750699841" lon="14.83407607023096"><ele>156.0</ele><time>2026-04-26T14:05:55.001Z</time></trkpt><trkpt lat="40.69227226001138" lon="14.834148022583257"><ele>156.0</ele><time>2026-04-26T14:10:19.001Z</time></trkpt><trkpt lat="40.69219706420028" lon="14.834152354681583"><ele>156.0</ele><time>2026-04-26T14:10:26.001Z</time></trkpt><trkpt lat="40.6921300735913" lon="14.834121120198674"><ele>156.0</ele><time>2026-04-26T14:10:29.001Z</time></trkpt><trkpt lat="40.692061322574546" lon="14.834249538877545"><ele>156.0</ele><time>2026-04-26T14:10:41.071Z</time></trkpt><trkpt lat="40.69214230898791" lon="14.834224303902449"><ele>156.0</ele><time>2026-04-26T14:10:43.069Z</time></trkpt><trkpt lat="40.69220713367203" lon="14.834216945212868"><ele>156.0</ele><time>2026-04-26T14:10:44.071Z</time></trkpt><trkpt lat="40.69228916890717" lon="14.834321665435962"><ele>156.0</ele><time>2026-04-26T14:11:12.441Z</time></trkpt><trkpt lat="40.69238481618885" lon="14.834204551111599"><ele>156.0</ele><time>2026-04-26T14:12:25.019Z</time></trkpt><trkpt lat="40.69233543288981" lon="14.834079132331322"><ele>156.0</ele><time>2026-04-26T14:12:27.001Z</time></trkpt><trkpt lat="40.69231077159125" lon="14.834166076106749"><ele>156.0</ele><time>2026-04-26T14:13:06.001Z</time></trkpt><trkpt lat="40.69229621919823" lon="14.834250512456585"><ele>156.0</ele><time>2026-04-26T14:13:11.001Z</time></trkpt><trkpt lat="40.69235451001124" lon="14.834170302908747"><ele>156.0</ele><time>2026-04-26T14:13:25.001Z</time></trkpt><trkpt lat="40.692289230962324" lon="14.834183273996173"><ele>156.0</ele><time>2026-04-26T14:13:40.001Z</time></trkpt><trkpt lat="40.692261032552565" lon="14.834269281996763"><ele>156.0</ele><time>2026-04-26T14:23:38Z</time></trkpt><trkpt lat="40.69222227970861" lon="14.834363896081337"><ele>156.0</ele><time>2026-04-26T14:23:40Z</time></trkpt><trkpt lat="40.69216856440769" lon="14.834426238202298"><ele>156.0</ele><time>2026-04-26T14:23:42Z</time></trkpt><trkpt lat="40.69211288338233" lon="14.834512296846487"><ele>156.0</ele><time>2026-04-26T14:23:46Z</time></trkpt><trkpt lat="40.692063138264736" lon="14.834586050949843"><ele>156.0</ele><time>2026-04-26T14:23:49Z</time></trkpt><trkpt lat="40.69199506880488" lon="14.834676765655791"><ele>156.0</ele><time>2026-04-26T14:23:51Z</time></trkpt><trkpt lat="40.69196218140396" lon="14.83478654691315"><ele>156.0</ele><time>2026-04-26T14:23:53Z</time></trkpt><trkpt lat="40.691936474930614" lon="14.834889525793457"><ele>156.0</ele><time>2026-04-26T14:23:55Z</time></trkpt><trkpt lat="40.69191272360606" lon="14.83503240856547"><ele>156.0</ele><time>2026-04-26T14:23:57Z</time></trkpt><trkpt lat="40.69190235575594" lon="14.835130267357192"><ele>155.2</ele><time>2026-04-26T14:23:58Z</time></trkpt><trkpt lat="40.69187393484727" lon="14.835236575308018"><ele>154.39999999999998</ele><time>2026-04-26T14:23:59Z</time></trkpt><trkpt lat="40.69182967815748" lon="14.83535017285733"><ele>153.6</ele><time>2026-04-26T14:24:00Z</time></trkpt><trkpt lat="40.69176727412235" lon="14.835461399481488"><ele>152.79999999999998</ele><time>2026-04-26T14:24:01Z</time></trkpt><trkpt lat="40.69168942757353" lon="14.835583162292279"><ele>152.0</ele><time>2026-04-26T14:24:02Z</time></trkpt><trkpt lat="40.69161010149667" lon="14.835707535269869"><ele>152.0</ele><time>2026-04-26T14:24:03Z</time></trkpt><trkpt lat="40.69152082223922" lon="14.835843713821205"><ele>152.0</ele><time>2026-04-26T14:24:04Z</time></trkpt><trkpt lat="40.69142108020615" lon="14.83598134064743"><ele>152.0</ele><time>2026-04-26T14:24:05Z</time></trkpt><trkpt lat="40.691204664548174" lon="14.836270691677672"><ele>151.66666666666666</ele><time>2026-04-26T14:24:07Z</time></trkpt><trkpt lat="40.69109481750955" lon="14.836427344750422"><ele>151.33333333333334</ele><time>2026-04-26T14:24:08Z</time></trkpt><trkpt lat="40.69098471494775" lon="14.836591917709086"><ele>151.0</ele><time>2026-04-26T14:24:09Z</time></trkpt><trkpt lat="40.69087423054604" lon="14.836757532974234"><ele>150.66666666666669</ele><time>2026-04-26T14:24:10Z</time></trkpt><trkpt lat="40.69075813084531" lon="14.836926704734557"><ele>150.33333333333334</ele><time>2026-04-26T14:24:11Z</time></trkpt><trkpt lat="40.69063664561468" lon="14.837105587317948"><ele>150.0</ele><time>2026-04-26T14:24:12Z</time></trkpt><trkpt lat="40.690514320024455" lon="14.837293250817003"><ele>150.0</ele><time>2026-04-26T14:24:13Z</time></trkpt><trkpt lat="40.69038862755136" lon="14.837492537536157"><ele>150.0</ele><time>2026-04-26T14:24:14Z</time></trkpt><trkpt lat="40.69025657375283" lon="14.83770873182835"><ele>150.0</ele><time>2026-04-26T14:24:15Z</time></trkpt><trkpt lat="40.69012198812276" lon="14.837933496132047"><ele>146.5</ele><time>2026-04-26T14:24:16Z</time></trkpt><trkpt lat="40.68998316006183" lon="14.838165382541785"><ele>143.0</ele><time>2026-04-26T14:24:17Z</time></trkpt><trkpt lat="40.6898421708115" lon="14.838405134309916"><ele>142.5</ele><time>2026-04-26T14:24:18Z</time></trkpt><trkpt lat="40.689696883432894" lon="14.838653444686795"><ele>142.0</ele><time>2026-04-26T14:24:19Z</time></trkpt><trkpt lat="40.68955376578707" lon="14.838908440062392"><ele>140.0</ele><time>2026-04-26T14:24:20Z</time></trkpt><trkpt lat="40.68941310124105" lon="14.839172342498456"><ele>138.0</ele><time>2026-04-26T14:24:21Z</time></trkpt><trkpt lat="40.689275061050004" lon="14.839442455179146"><ele>138.0</ele><time>2026-04-26T14:24:22Z</time></trkpt><trkpt lat="40.68913718549119" lon="14.839720754954108"><ele>138.0</ele><time>2026-04-26T14:24:23Z</time></trkpt><trkpt lat="40.68900050673395" lon="14.840009387957613"><ele>137.5</ele><time>2026-04-26T14:24:24Z</time></trkpt><trkpt lat="40.68886204815934" lon="14.840294479140862"><ele>137.0</ele><time>2026-04-26T14:24:25Z</time></trkpt><trkpt lat="40.68872761799847" lon="14.84058410799922"><ele>137.0</ele><time>2026-04-26T14:24:26Z</time></trkpt><trkpt lat="40.68860153107809" lon="14.840881718511806"><ele>137.0</ele><time>2026-04-26T14:24:27Z</time></trkpt><trkpt lat="40.68847418906781" lon="14.841180172035429"><ele>134.0</ele><time>2026-04-26T14:24:28Z</time></trkpt><trkpt lat="40.68835084647071" lon="14.841481866245624"><ele>131.0</ele><time>2026-04-26T14:24:29Z</time></trkpt><trkpt lat="40.688230639926125" lon="14.841784512383905"><ele>130.5</ele><time>2026-04-26T14:24:29.999Z</time></trkpt><trkpt lat="40.68811506942953" lon="14.842089895771391"><ele>130.0</ele><time>2026-04-26T14:24:30.999Z</time></trkpt><trkpt lat="40.688002832408266" lon="14.842397237007667"><ele>129.5</ele><time>2026-04-26T14:24:31.999Z</time></trkpt><trkpt lat="40.687894900677954" lon="14.8427082884083"><ele>129.0</ele><time>2026-04-26T14:24:32.999Z</time></trkpt><trkpt lat="40.68779095134272" lon="14.843026686012381"><ele>129.0</ele><time>2026-04-26T14:24:33.999Z</time></trkpt><trkpt lat="40.68768780721562" lon="14.843347661726165"><ele>129.0</ele><time>2026-04-26T14:24:34.999Z</time></trkpt><trkpt lat="40.68758669283687" lon="14.843669130700846"><ele>128.0</ele><time>2026-04-26T14:24:35.999Z</time></trkpt><trkpt lat="40.68749045630137" lon="14.843997885511738"><ele>127.0</ele><time>2026-04-26T14:24:36.999Z</time></trkpt><trkpt lat="40.687395440239975" lon="14.84432959096924"><ele>126.5</ele><time>2026-04-26T14:24:37.999Z</time></trkpt><trkpt lat="40.68730470996895" lon="14.844666206978706"><ele>126.0</ele><time>2026-04-26T14:24:38.999Z</time></trkpt><trkpt lat="40.68721452077822" lon="14.845005231109115"><ele>125.0</ele><time>2026-04-26T14:24:39.999Z</time></trkpt><trkpt lat="40.68712363934764" lon="14.845343413169957"><ele>124.0</ele><time>2026-04-26T14:24:40.999Z</time></trkpt><trkpt lat="40.687034208245166" lon="14.845685671073639"><ele>123.0</ele><time>2026-04-26T14:24:41.999Z</time></trkpt><trkpt lat="40.68694452271374" lon="14.846027008888854"><ele>122.0</ele><time>2026-04-26T14:24:42.999Z</time></trkpt><trkpt lat="40.686856576201976" lon="14.846375027845474"><ele>122.0</ele><time>2026-04-26T14:24:43.999Z</time></trkpt><trkpt lat="40.68677116089609" lon="14.846727805400093"><ele>122.0</ele><time>2026-04-26T14:24:44.999Z</time></trkpt><trkpt lat="40.68668292195179" lon="14.847082155520354"><ele>120.5</ele><time>2026-04-26T14:24:45.999Z</time></trkpt><trkpt lat="40.68659421015523" lon="14.84743647064313"><ele>119.0</ele><time>2026-04-26T14:24:46.999Z</time></trkpt><trkpt lat="40.686507717648816" lon="14.84779158606977"><ele>115.5</ele><time>2026-04-26T14:24:47.999Z</time></trkpt><trkpt lat="40.68642061882686" lon="14.848145782924483"><ele>112.0</ele><time>2026-04-26T14:24:48.999Z</time></trkpt><trkpt lat="40.686330367136655" lon="14.848500043991116"><ele>111.5</ele><time>2026-04-26T14:24:49.999Z</time></trkpt><trkpt lat="40.68623857093635" lon="14.848850563950943"><ele>111.0</ele><time>2026-04-26T14:24:50.999Z</time></trkpt><trkpt lat="40.68614688015776" lon="14.849201434181595"><ele>110.5</ele><time>2026-04-26T14:24:51.999Z</time></trkpt><trkpt lat="40.68605348347188" lon="14.849553518270062"><ele>110.0</ele><time>2026-04-26T14:24:52.999Z</time></trkpt><trkpt lat="40.68595607647368" lon="14.849908357105011"><ele>109.5</ele><time>2026-04-26T14:24:53.999Z</time></trkpt><trkpt lat="40.685853144106034" lon="14.850267309219447"><ele>109.0</ele><time>2026-04-26T14:24:54.999Z</time></trkpt><trkpt lat="40.68574137913263" lon="14.850622570802898"><ele>110.5</ele><time>2026-04-26T14:24:55.999Z</time></trkpt><trkpt lat="40.68562624969608" lon="14.85097671113564"><ele>112.0</ele><time>2026-04-26T14:24:56.999Z</time></trkpt><trkpt lat="40.685503589087986" lon="14.85132464599581"><ele>112.0</ele><time>2026-04-26T14:24:57.999Z</time></trkpt><trkpt lat="40.685371417213524" lon="14.851670093434103"><ele>112.0</ele><time>2026-04-26T14:24:58.999Z</time></trkpt><trkpt lat="40.68523150550599" lon="14.852006887351768"><ele>112.5</ele><time>2026-04-26T14:24:59.999Z</time></trkpt><trkpt lat="40.68508241245365" lon="14.852337689286118"><ele>113.0</ele><time>2026-04-26T14:25:00.999Z</time></trkpt><trkpt lat="40.68492407826903" lon="14.852661183239517"><ele>114.0</ele><time>2026-04-26T14:25:01.999Z</time></trkpt><trkpt lat="40.68475506564158" lon="14.852975197528568"><ele>115.0</ele><time>2026-04-26T14:25:02.999Z</time></trkpt><trkpt lat="40.68457940758244" lon="14.853283864398461"><ele>114.0</ele><time>2026-04-26T14:25:03.999Z</time></trkpt><trkpt lat="40.68439595710048" lon="14.853585091919378"><ele>113.0</ele><time>2026-04-26T14:25:04.999Z</time></trkpt><trkpt lat="40.68420537883619" lon="14.853875263262163"><ele>113.0</ele><time>2026-04-26T14:25:05.999Z</time></trkpt><trkpt lat="40.684007569667884" lon="14.854155040179899"><ele>113.0</ele><time>2026-04-26T14:25:06.999Z</time></trkpt><trkpt lat="40.68380124580778" lon="14.854426151737425"><ele>111.5</ele><time>2026-04-26T14:25:07.999Z</time></trkpt><trkpt lat="40.68358679409739" lon="14.854685819362105"><ele>110.0</ele><time>2026-04-26T14:25:08.999Z</time></trkpt><trkpt lat="40.6833635029729" lon="14.854933126346507"><ele>111.5</ele><time>2026-04-26T14:25:09.999Z</time></trkpt><trkpt lat="40.68313217346343" lon="14.855168819259356"><ele>113.0</ele><time>2026-04-26T14:25:10.999Z</time></trkpt><trkpt lat="40.682893697047355" lon="14.855390110642329"><ele>112.0</ele><time>2026-04-26T14:25:11.999Z</time></trkpt><trkpt lat="40.68264875967718" lon="14.855599393449767"><ele>111.0</ele><time>2026-04-26T14:25:12.999Z</time></trkpt><trkpt lat="40.6823984564447" lon="14.855797862717376"><ele>113.0</ele><time>2026-04-26T14:25:13.999Z</time></trkpt><trkpt lat="40.682140135233674" lon="14.85599066162334"><ele>115.0</ele><time>2026-04-26T14:25:14.999Z</time></trkpt><trkpt lat="40.68187374412039" lon="14.85616765670167"><ele>115.0</ele><time>2026-04-26T14:25:15.999Z</time></trkpt><trkpt lat="40.68160591341462" lon="14.856328642787856"><ele>115.0</ele><time>2026-04-26T14:25:16.999Z</time></trkpt><trkpt lat="40.681332928340325" lon="14.856471458000241"><ele>113.5</ele><time>2026-04-26T14:25:17.999Z</time></trkpt><trkpt lat="40.681057563377045" lon="14.85660264476969"><ele>112.0</ele><time>2026-04-26T14:25:18.999Z</time></trkpt><trkpt lat="40.68077852167183" lon="14.856724414157489"><ele>113.0</ele><time>2026-04-26T14:25:19.999Z</time></trkpt><trkpt lat="40.680497274233836" lon="14.856833867652659"><ele>114.0</ele><time>2026-04-26T14:25:20.999Z</time></trkpt><trkpt lat="40.680210905971606" lon="14.856926294552267"><ele>114.0</ele><time>2026-04-26T14:25:21.999Z</time></trkpt><trkpt lat="40.6799226200211" lon="14.857005969777083"><ele>114.0</ele><time>2026-04-26T14:25:22.999Z</time></trkpt><trkpt lat="40.679633654368565" lon="14.85707295988619"><ele>114.0</ele><time>2026-04-26T14:25:23.999Z</time></trkpt><trkpt lat="40.67934611354314" lon="14.857124710224912"><ele>114.0</ele><time>2026-04-26T14:25:24.999Z</time></trkpt><trkpt lat="40.67905497528213" lon="14.857172395495263"><ele>114.0</ele><time>2026-04-26T14:25:25.999Z</time></trkpt><trkpt lat="40.678764379893806" lon="14.857212076832047"><ele>114.0</ele><time>2026-04-26T14:25:26.999Z</time></trkpt><trkpt lat="40.67847169095571" lon="14.857244627422517"><ele>115.5</ele><time>2026-04-26T14:25:27.999Z</time></trkpt><trkpt lat="40.6781785705608" lon="14.857275397910405"><ele>117.0</ele><time>2026-04-26T14:25:28.999Z</time></trkpt><trkpt lat="40.677885668940505" lon="14.857303254483424"><ele>118.0</ele><time>2026-04-26T14:25:29.999Z</time></trkpt><trkpt lat="40.677591193267176" lon="14.857328385059237"><ele>119.0</ele><time>2026-04-26T14:25:30.999Z</time></trkpt><trkpt lat="40.677298482723586" lon="14.85735478433714"><ele>119.0</ele><time>2026-04-26T14:25:31.999Z</time></trkpt><trkpt lat="40.67700698745637" lon="14.857382627704016"><ele>119.0</ele><time>2026-04-26T14:25:32.999Z</time></trkpt><trkpt lat="40.67671870454038" lon="14.85740998283589"><ele>125.0</ele><time>2026-04-26T14:25:33.999Z</time></trkpt><trkpt lat="40.67642920491832" lon="14.857438167514607"><ele>131.0</ele><time>2026-04-26T14:25:34.999Z</time></trkpt><trkpt lat="40.67613990780391" lon="14.857468475071679"><ele>148.0</ele><time>2026-04-26T14:25:35.999Z</time></trkpt><trkpt lat="40.675850306101594" lon="14.857499805440275"><ele>165.0</ele><time>2026-04-26T14:25:36.999Z</time></trkpt><trkpt lat="40.675560890772815" lon="14.857526590100017"><ele>170.5</ele><time>2026-04-26T14:25:37.999Z</time></trkpt><trkpt lat="40.67526901260135" lon="14.857551252439782"><ele>176.0</ele><time>2026-04-26T14:25:38.999Z</time></trkpt><trkpt lat="40.674953784790034" lon="14.85757889845991"><ele>176.0</ele><time>2026-04-26T14:25:40.071Z</time></trkpt><trkpt lat="40.67466326867649" lon="14.857608281273071"><ele>176.0</ele><time>2026-04-26T14:25:41.063Z</time></trkpt><trkpt lat="40.67437603763918" lon="14.857641237325346"><ele>189.0</ele><time>2026-04-26T14:25:42.063Z</time></trkpt><trkpt lat="40.67409388386943" lon="14.857676807398638"><ele>202.0</ele><time>2026-04-26T14:25:43.054Z</time></trkpt><trkpt lat="40.67381153914343" lon="14.857714808637445"><ele>203.0</ele><time>2026-04-26T14:25:44.048Z</time></trkpt><trkpt lat="40.67353176290056" lon="14.857753438429683"><ele>204.0</ele><time>2026-04-26T14:25:45.037Z</time></trkpt><trkpt lat="40.67077998946179" lon="14.857970012364513"><ele>119.0</ele><time>2026-04-26T14:25:49.831Z</time></trkpt><trkpt lat="40.66933983329009" lon="14.858106872646845"><ele>119.0</ele><time>2026-04-26T14:25:51.835Z</time></trkpt><trkpt lat="40.66862412149801" lon="14.858173636879673"><ele>141.0</ele><time>2026-04-26T14:25:52.831Z</time></trkpt><trkpt lat="40.66790571060352" lon="14.858240652894718"><ele>138.0</ele><time>2026-04-26T14:25:53.831Z</time></trkpt><trkpt lat="40.66718659914854" lon="14.858307734260627"><ele>151.0</ele><time>2026-04-26T14:25:54.831Z</time></trkpt><trkpt lat="40.66646809196767" lon="14.858374759257622"><ele>164.0</ele><time>2026-04-26T14:25:55.831Z</time></trkpt><trkpt lat="40.665748147601285" lon="14.858441918320576"><ele>170.0</ele><time>2026-04-26T14:25:56.833Z</time></trkpt><trkpt lat="40.66503145202842" lon="14.85851215708521"><ele>131.0</ele><time>2026-04-26T14:25:57.831Z</time></trkpt><trkpt lat="40.66431439402315" lon="14.858606307353787"><ele>119.0</ele><time>2026-04-26T14:25:58.831Z</time></trkpt><trkpt lat="40.66901547226957" lon="14.858108803099626"><ele>119.0</ele><time>2026-04-26T14:25:59.999Z</time></trkpt><trkpt lat="40.66872016246851" lon="14.858139005262936"><ele>119.0</ele><time>2026-04-26T14:26:00.999Z</time></trkpt><trkpt lat="40.668425961727344" lon="14.858165317608085"><ele>130.0</ele><time>2026-04-26T14:26:01.999Z</time></trkpt><trkpt lat="40.66812909876673" lon="14.858193173409678"><ele>141.0</ele><time>2026-04-26T14:26:02.999Z</time></trkpt><trkpt lat="40.66783633097676" lon="14.85820517242291"><ele>139.5</ele><time>2026-04-26T14:26:03.999Z</time></trkpt><trkpt lat="40.667543356519026" lon="14.858186719869963"><ele>138.0</ele><time>2026-04-26T14:26:05.058Z</time></trkpt><trkpt lat="40.66724563907738" lon="14.858214492048264"><ele>138.0</ele><time>2026-04-26T14:26:06.058Z</time></trkpt><trkpt lat="40.66697184076368" lon="14.858240032906318"><ele>138.0</ele><time>2026-04-26T14:26:07.057Z</time></trkpt><trkpt lat="40.66667153817136" lon="14.858268046211366"><ele>144.5</ele><time>2026-04-26T14:26:08.058Z</time></trkpt><trkpt lat="40.66637067957913" lon="14.858296111403325"><ele>151.0</ele><time>2026-04-26T14:26:09.061Z</time></trkpt><trkpt lat="40.666069336437495" lon="14.858324221784727"><ele>131.0</ele><time>2026-04-26T14:26:10.061Z</time></trkpt><trkpt lat="40.6640548175801" lon="14.85865357882802"><ele>93.0</ele><time>2026-04-26T14:26:13.834Z</time></trkpt><trkpt lat="40.663344909257255" lon="14.858817953907389"><ele>79.0</ele><time>2026-04-26T14:26:14.835Z</time></trkpt><trkpt lat="40.66216310683792" lon="14.859384203465792"><ele>74.5</ele><time>2026-04-26T14:26:23.999Z</time></trkpt><trkpt lat="40.66180517250541" lon="14.859408453614495"><ele>70.0</ele><time>2026-04-26T14:26:24.999Z</time></trkpt><trkpt lat="40.66154285962141" lon="14.859579205979815"><ele>70.0</ele><time>2026-04-26T14:26:25.999Z</time></trkpt><trkpt lat="40.661297198516046" lon="14.85973751685452"><ele>70.0</ele><time>2026-04-26T14:26:26.999Z</time></trkpt><trkpt lat="40.66105877361221" lon="14.85992010912329"><ele>70.0</ele><time>2026-04-26T14:26:27.999Z</time></trkpt><trkpt lat="40.66082814785181" lon="14.860090084176447"><ele>70.0</ele><time>2026-04-26T14:26:28.999Z</time></trkpt><trkpt lat="40.66061640531971" lon="14.86025142984667"><ele>70.0</ele><time>2026-04-26T14:26:29.999Z</time></trkpt><trkpt lat="40.660408920256224" lon="14.860412989498403"><ele>70.0</ele><time>2026-04-26T14:26:30.999Z</time></trkpt><trkpt lat="40.6602052307966" lon="14.860572561728706"><ele>65.0</ele><time>2026-04-26T14:26:31.999Z</time></trkpt><trkpt lat="40.66000246810811" lon="14.860726346616438"><ele>60.0</ele><time>2026-04-26T14:26:32.999Z</time></trkpt><trkpt lat="40.65979870200353" lon="14.860881700815675"><ele>58.5</ele><time>2026-04-26T14:26:33.999Z</time></trkpt><trkpt lat="40.659595377820324" lon="14.861040632486876"><ele>57.0</ele><time>2026-04-26T14:26:34.999Z</time></trkpt><trkpt lat="40.6593894527103" lon="14.861204817461843"><ele>57.0</ele><time>2026-04-26T14:26:35.999Z</time></trkpt><trkpt lat="40.65917988782489" lon="14.861374724861953"><ele>57.0</ele><time>2026-04-26T14:26:36.999Z</time></trkpt><trkpt lat="40.65896949102988" lon="14.861546089834107"><ele>57.0</ele><time>2026-04-26T14:26:37.999Z</time></trkpt><trkpt lat="40.65876043806875" lon="14.861720006940576"><ele>57.0</ele><time>2026-04-26T14:26:38.999Z</time></trkpt><trkpt lat="40.658549658955764" lon="14.86189723871926"><ele>54.5</ele><time>2026-04-26T14:26:39.999Z</time></trkpt><trkpt lat="40.6583395198869" lon="14.86207943730781"><ele>52.0</ele><time>2026-04-26T14:26:40.999Z</time></trkpt><trkpt lat="40.65813046229125" lon="14.86226780486886"><ele>52.0</ele><time>2026-04-26T14:26:41.999Z</time></trkpt><trkpt lat="40.65792459971527" lon="14.8624619255709"><ele>52.0</ele><time>2026-04-26T14:26:42.999Z</time></trkpt><trkpt lat="40.657723933474394" lon="14.862666061195414"><ele>50.5</ele><time>2026-04-26T14:26:43.999Z</time></trkpt><trkpt lat="40.65753033097631" lon="14.86287822727658"><ele>49.0</ele><time>2026-04-26T14:26:44.999Z</time></trkpt><trkpt lat="40.65733995439963" lon="14.863100991041282"><ele>49.0</ele><time>2026-04-26T14:26:45.999Z</time></trkpt><trkpt lat="40.657148863814975" lon="14.863333837402514"><ele>49.0</ele><time>2026-04-26T14:26:46.999Z</time></trkpt><trkpt lat="40.656956818048975" lon="14.86358366710057"><ele>48.5</ele><time>2026-04-26T14:26:47.999Z</time></trkpt><trkpt lat="40.65676739161321" lon="14.86384333538268"><ele>48.0</ele><time>2026-04-26T14:26:48.999Z</time></trkpt><trkpt lat="40.65658337904153" lon="14.864129462550686"><ele>47.5</ele><time>2026-04-26T14:26:49.999Z</time></trkpt><trkpt lat="40.65640384996166" lon="14.864432608829688"><ele>47.0</ele><time>2026-04-26T14:26:50.999Z</time></trkpt><trkpt lat="40.65623423209581" lon="14.864740216859385"><ele>46.5</ele><time>2026-04-26T14:26:51.999Z</time></trkpt><trkpt lat="40.65606829675499" lon="14.865052643435439"><ele>46.0</ele><time>2026-04-26T14:26:52.999Z</time></trkpt><trkpt lat="40.6559077851403" lon="14.865370241022337"><ele>46.0</ele><time>2026-04-26T14:26:53.999Z</time></trkpt><trkpt lat="40.65575242974713" lon="14.865692976048381"><ele>46.0</ele><time>2026-04-26T14:26:54.999Z</time></trkpt><trkpt lat="40.65560118262924" lon="14.86601949063802"><ele>47.0</ele><time>2026-04-26T14:26:55.999Z</time></trkpt><trkpt lat="40.65545691297254" lon="14.866350226616975"><ele>48.0</ele><time>2026-04-26T14:26:56.999Z</time></trkpt><trkpt lat="40.655316377507035" lon="14.866683048131106"><ele>45.5</ele><time>2026-04-26T14:26:57.999Z</time></trkpt><trkpt lat="40.65517385083327" lon="14.867016424397589"><ele>43.0</ele><time>2026-04-26T14:26:58.999Z</time></trkpt><trkpt lat="40.6550307805228" lon="14.867349714212448"><ele>43.0</ele><time>2026-04-26T14:26:59.999Z</time></trkpt><trkpt lat="40.6548891224084" lon="14.867688974597986"><ele>43.0</ele><time>2026-04-26T14:27:00.999Z</time></trkpt><trkpt lat="40.65474835459503" lon="14.868039562104391"><ele>43.0</ele><time>2026-04-26T14:27:01.999Z</time></trkpt><trkpt lat="40.65460656365871" lon="14.86839172426686"><ele>43.0</ele><time>2026-04-26T14:27:02.999Z</time></trkpt><trkpt lat="40.654463559951445" lon="14.868744464848167"><ele>41.5</ele><time>2026-04-26T14:27:03.999Z</time></trkpt><trkpt lat="40.6543199843606" lon="14.8690969470344"><ele>40.0</ele><time>2026-04-26T14:27:04.999Z</time></trkpt><trkpt lat="40.65417669178754" lon="14.86944889756091"><ele>40.0</ele><time>2026-04-26T14:27:05.999Z</time></trkpt><trkpt lat="40.65403187554384" lon="14.869798858512507"><ele>40.0</ele><time>2026-04-26T14:27:06.999Z</time></trkpt><trkpt lat="40.65388769043135" lon="14.870147486637938"><ele>38.5</ele><time>2026-04-26T14:27:07.999Z</time></trkpt><trkpt lat="40.65374627190062" lon="14.870497370145406"><ele>37.0</ele><time>2026-04-26T14:27:08.999Z</time></trkpt><trkpt lat="40.65360376155681" lon="14.87084679361298"><ele>34.5</ele><time>2026-04-26T14:27:09.999Z</time></trkpt><trkpt lat="40.653462068675786" lon="14.871197624367907"><ele>32.0</ele><time>2026-04-26T14:27:10.999Z</time></trkpt><trkpt lat="40.65331986872765" lon="14.871546416924884"><ele>31.5</ele><time>2026-04-26T14:27:11.999Z</time></trkpt><trkpt lat="40.65317599296625" lon="14.871895721998314"><ele>31.0</ele><time>2026-04-26T14:27:12.999Z</time></trkpt><trkpt lat="40.653029394039685" lon="14.872242432934414"><ele>31.0</ele><time>2026-04-26T14:27:13.999Z</time></trkpt><trkpt lat="40.65288639819853" lon="14.872592126780356"><ele>31.0</ele><time>2026-04-26T14:27:14.999Z</time></trkpt><trkpt lat="40.65274224611394" lon="14.872940815677717"><ele>31.0</ele><time>2026-04-26T14:27:15.999Z</time></trkpt><trkpt lat="40.6525951314777" lon="14.873289460908396"><ele>31.0</ele><time>2026-04-26T14:27:16.999Z</time></trkpt><trkpt lat="40.65244512143007" lon="14.873633776042062"><ele>31.0</ele><time>2026-04-26T14:27:17.999Z</time></trkpt><trkpt lat="40.65229289413299" lon="14.873974916615445"><ele>31.0</ele><time>2026-04-26T14:27:18.999Z</time></trkpt><trkpt lat="40.652139781245914" lon="14.874318826086178"><ele>31.5</ele><time>2026-04-26T14:27:19.999Z</time></trkpt><trkpt lat="40.65198799842119" lon="14.874662103437528"><ele>32.0</ele><time>2026-04-26T14:27:20.999Z</time></trkpt><trkpt lat="40.65183634183135" lon="14.875007148682094"><ele>34.0</ele><time>2026-04-26T14:27:21.999Z</time></trkpt><trkpt lat="40.65168601628228" lon="14.875351400322737"><ele>36.0</ele><time>2026-04-26T14:27:22.999Z</time></trkpt><trkpt lat="40.651535459496564" lon="14.87569635769998"><ele>36.0</ele><time>2026-04-26T14:27:23.999Z</time></trkpt><trkpt lat="40.6513848625883" lon="14.876040157667395"><ele>36.0</ele><time>2026-04-26T14:27:24.999Z</time></trkpt><trkpt lat="40.65123274316794" lon="14.876382487612444"><ele>35.5</ele><time>2026-04-26T14:27:25.999Z</time></trkpt><trkpt lat="40.65107785968087" lon="14.87672267862779"><ele>35.0</ele><time>2026-04-26T14:27:26.999Z</time></trkpt><trkpt lat="40.650927936393416" lon="14.877062293405178"><ele>35.0</ele><time>2026-04-26T14:27:27.999Z</time></trkpt><trkpt lat="40.65077744247923" lon="14.877404522685008"><ele>35.0</ele><time>2026-04-26T14:27:28.999Z</time></trkpt><trkpt lat="40.65062701584812" lon="14.877749390949022"><ele>35.5</ele><time>2026-04-26T14:27:29.999Z</time></trkpt><trkpt lat="40.65047516985284" lon="14.878094833277062"><ele>36.0</ele><time>2026-04-26T14:27:30.999Z</time></trkpt><trkpt lat="40.650326451508974" lon="14.878437955719622"><ele>37.0</ele><time>2026-04-26T14:27:31.999Z</time></trkpt><trkpt lat="40.65018034894415" lon="14.878783104320819"><ele>38.0</ele><time>2026-04-26T14:27:32.999Z</time></trkpt><trkpt lat="40.650036506318074" lon="14.879130516960146"><ele>38.0</ele><time>2026-04-26T14:27:33.999Z</time></trkpt><trkpt lat="40.64989182914753" lon="14.87947498812692"><ele>38.0</ele><time>2026-04-26T14:27:34.999Z</time></trkpt><trkpt lat="40.64974404027649" lon="14.879818888737944"><ele>39.0</ele><time>2026-04-26T14:27:35.999Z</time></trkpt><trkpt lat="40.64959284284259" lon="14.88015651293944"><ele>40.0</ele><time>2026-04-26T14:27:36.999Z</time></trkpt><trkpt lat="40.64944143698715" lon="14.880502145326709"><ele>40.0</ele><time>2026-04-26T14:27:37.999Z</time></trkpt><trkpt lat="40.64928956793283" lon="14.88084592139481"><ele>40.0</ele><time>2026-04-26T14:27:38.999Z</time></trkpt><trkpt lat="40.649137425066954" lon="14.881191302457056"><ele>40.0</ele><time>2026-04-26T14:27:39.999Z</time></trkpt><trkpt lat="40.64898539545784" lon="14.88153521264502"><ele>40.0</ele><time>2026-04-26T14:27:40.999Z</time></trkpt><trkpt lat="40.64883433465955" lon="14.88188097631856"><ele>40.0</ele><time>2026-04-26T14:27:41.999Z</time></trkpt><trkpt lat="40.64868217952826" lon="14.882225197585145"><ele>40.0</ele><time>2026-04-26T14:27:42.999Z</time></trkpt><trkpt lat="40.64852978887203" lon="14.882565118556252"><ele>40.5</ele><time>2026-04-26T14:27:43.999Z</time></trkpt><trkpt lat="40.64837691827669" lon="14.88290683934166"><ele>41.0</ele><time>2026-04-26T14:27:44.999Z</time></trkpt><trkpt lat="40.64822340963997" lon="14.883248291583177"><ele>41.5</ele><time>2026-04-26T14:27:45.999Z</time></trkpt><trkpt lat="40.64807078987383" lon="14.883591179986201"><ele>42.0</ele><time>2026-04-26T14:27:46.999Z</time></trkpt><trkpt lat="40.64792065455571" lon="14.88393371294543"><ele>42.0</ele><time>2026-04-26T14:27:47.999Z</time></trkpt><trkpt lat="40.64777117768134" lon="14.88427888420217"><ele>42.0</ele><time>2026-04-26T14:27:48.999Z</time></trkpt><trkpt lat="40.64762111504164" lon="14.884621922680207"><ele>42.0</ele><time>2026-04-26T14:27:49.999Z</time></trkpt><trkpt lat="40.64746774338204" lon="14.884963490880947"><ele>42.0</ele><time>2026-04-26T14:27:50.999Z</time></trkpt><trkpt lat="40.647312454183634" lon="14.885306403925433"><ele>43.0</ele><time>2026-04-26T14:27:51.999Z</time></trkpt><trkpt lat="40.64715549533244" lon="14.885647312047672"><ele>44.0</ele><time>2026-04-26T14:27:52.999Z</time></trkpt><trkpt lat="40.64700169326034" lon="14.885987689156824"><ele>43.5</ele><time>2026-04-26T14:27:53.999Z</time></trkpt><trkpt lat="40.646845427326134" lon="14.886328547078165"><ele>43.0</ele><time>2026-04-26T14:27:54.999Z</time></trkpt><trkpt lat="40.646687846839335" lon="14.886667038112215"><ele>43.0</ele><time>2026-04-26T14:27:55.999Z</time></trkpt><trkpt lat="40.64653135608204" lon="14.887008339230754"><ele>43.0</ele><time>2026-04-26T14:27:56.999Z</time></trkpt><trkpt lat="40.646378597086475" lon="14.887352805242584"><ele>43.5</ele><time>2026-04-26T14:27:57.999Z</time></trkpt><trkpt lat="40.64623471352334" lon="14.887700022605749"><ele>44.0</ele><time>2026-04-26T14:27:58.999Z</time></trkpt><trkpt lat="40.646093157625145" lon="14.888050427195546"><ele>44.0</ele><time>2026-04-26T14:27:59.999Z</time></trkpt><trkpt lat="40.64595002788561" lon="14.888399036727593"><ele>44.0</ele><time>2026-04-26T14:28:00.999Z</time></trkpt><trkpt lat="40.645799736578674" lon="14.888744388238766"><ele>45.0</ele><time>2026-04-26T14:28:01.999Z</time></trkpt><trkpt lat="40.64564650977705" lon="14.889087721865213"><ele>46.0</ele><time>2026-04-26T14:28:02.999Z</time></trkpt><trkpt lat="40.64549091169761" lon="14.889427433048969"><ele>46.5</ele><time>2026-04-26T14:28:03.999Z</time></trkpt><trkpt lat="40.645330333313055" lon="14.889766637510052"><ele>47.0</ele><time>2026-04-26T14:28:04.999Z</time></trkpt><trkpt lat="40.64516732039844" lon="14.890105849855471"><ele>45.5</ele><time>2026-04-26T14:28:05.999Z</time></trkpt><trkpt lat="40.645009019462535" lon="14.890445138004138"><ele>44.0</ele><time>2026-04-26T14:28:06.999Z</time></trkpt><trkpt lat="40.6448547465526" lon="14.890785593572826"><ele>45.0</ele><time>2026-04-26T14:28:07.999Z</time></trkpt><trkpt lat="40.6447028570792" lon="14.89112771144802"><ele>46.0</ele><time>2026-04-26T14:28:08.999Z</time></trkpt><trkpt lat="40.64455154838054" lon="14.891468936857462"><ele>45.0</ele><time>2026-04-26T14:28:09.999Z</time></trkpt><trkpt lat="40.64440060721242" lon="14.891806859728561"><ele>44.0</ele><time>2026-04-26T14:28:10.999Z</time></trkpt><trkpt lat="40.64425145158912" lon="14.892138586380371"><ele>44.0</ele><time>2026-04-26T14:28:11.999Z</time></trkpt><trkpt lat="40.64410379559217" lon="14.892466212022576"><ele>44.0</ele><time>2026-04-26T14:28:12.999Z</time></trkpt><trkpt lat="40.64395583235812" lon="14.89279421869856"><ele>43.5</ele><time>2026-04-26T14:28:13.999Z</time></trkpt><trkpt lat="40.6438087724224" lon="14.89312336169217"><ele>43.0</ele><time>2026-04-26T14:28:14.999Z</time></trkpt><trkpt lat="40.6436606588482" lon="14.893454343626583"><ele>42.0</ele><time>2026-04-26T14:28:15.999Z</time></trkpt><trkpt lat="40.64351252044449" lon="14.893782895798708"><ele>41.0</ele><time>2026-04-26T14:28:16.999Z</time></trkpt><trkpt lat="40.64336526995521" lon="14.894113381996176"><ele>41.0</ele><time>2026-04-26T14:28:17.999Z</time></trkpt><trkpt lat="40.64321798356342" lon="14.894445196644373"><ele>41.0</ele><time>2026-04-26T14:28:18.999Z</time></trkpt><trkpt lat="40.643068871243884" lon="14.89477605569341"><ele>40.5</ele><time>2026-04-26T14:28:19.999Z</time></trkpt><trkpt lat="40.642919133976044" lon="14.895107185533796"><ele>40.0</ele><time>2026-04-26T14:28:20.999Z</time></trkpt><trkpt lat="40.64277100932472" lon="14.895440971215983"><ele>40.0</ele><time>2026-04-26T14:28:21.999Z</time></trkpt><trkpt lat="40.64261970818732" lon="14.895769989346109"><ele>40.0</ele><time>2026-04-26T14:28:22.999Z</time></trkpt><trkpt lat="40.64246793477954" lon="14.896098495443708"><ele>39.5</ele><time>2026-04-26T14:28:23.999Z</time></trkpt><trkpt lat="40.64231409947943" lon="14.896431613238354"><ele>39.0</ele><time>2026-04-26T14:28:24.999Z</time></trkpt><trkpt lat="40.64216173770459" lon="14.89675993420499"><ele>39.0</ele><time>2026-04-26T14:28:25.999Z</time></trkpt><trkpt lat="40.642011623761626" lon="14.897089091703204"><ele>39.0</ele><time>2026-04-26T14:28:26.999Z</time></trkpt><trkpt lat="40.64186272514808" lon="14.897418445942918"><ele>38.0</ele><time>2026-04-26T14:28:27.999Z</time></trkpt><trkpt lat="40.641713350806384" lon="14.897747637062198"><ele>37.0</ele><time>2026-04-26T14:28:28.999Z</time></trkpt><trkpt lat="40.641563885877645" lon="14.898076613483811"><ele>37.0</ele><time>2026-04-26T14:28:29.999Z</time></trkpt><trkpt lat="40.64141279325223" lon="14.89840297468645"><ele>37.0</ele><time>2026-04-26T14:28:30.999Z</time></trkpt><trkpt lat="40.641261696974546" lon="14.89873042408039"><ele>38.0</ele><time>2026-04-26T14:28:31.999Z</time></trkpt><trkpt lat="40.64111144521335" lon="14.899059858246863"><ele>39.0</ele><time>2026-04-26T14:28:32.999Z</time></trkpt><trkpt lat="40.64095862812309" lon="14.899389546627999"><ele>39.0</ele><time>2026-04-26T14:28:33.999Z</time></trkpt><trkpt lat="40.640807058892285" lon="14.899719452408409"><ele>39.0</ele><time>2026-04-26T14:28:34.999Z</time></trkpt><trkpt lat="40.64065540925673" lon="14.900049398859188"><ele>39.5</ele><time>2026-04-26T14:28:35.999Z</time></trkpt><trkpt lat="40.64050364874767" lon="14.90037749682773"><ele>40.0</ele><time>2026-04-26T14:28:36.999Z</time></trkpt><trkpt lat="40.64035364566894" lon="14.900705601757663"><ele>39.5</ele><time>2026-04-26T14:28:37.999Z</time></trkpt><trkpt lat="40.64020355897376" lon="14.901030832624743"><ele>39.0</ele><time>2026-04-26T14:28:38.999Z</time></trkpt><trkpt lat="40.64005235267813" lon="14.901358666284498"><ele>39.0</ele><time>2026-04-26T14:28:39.999Z</time></trkpt><trkpt lat="40.6398994018966" lon="14.901686613045447"><ele>39.0</ele><time>2026-04-26T14:28:40.999Z</time></trkpt><trkpt lat="40.639748365791945" lon="14.902013771943617"><ele>39.5</ele><time>2026-04-26T14:28:41.999Z</time></trkpt><trkpt lat="40.63959864800369" lon="14.902342283364268"><ele>40.0</ele><time>2026-04-26T14:28:42.999Z</time></trkpt><trkpt lat="40.63944916409215" lon="14.902671826962534"><ele>40.0</ele><time>2026-04-26T14:28:43.999Z</time></trkpt><trkpt lat="40.63929953267143" lon="14.903000700786164"><ele>40.0</ele><time>2026-04-26T14:28:44.999Z</time></trkpt><trkpt lat="40.63914977097891" lon="14.903330502561667"><ele>39.5</ele><time>2026-04-26T14:28:45.999Z</time></trkpt><trkpt lat="40.6390033685658" lon="14.903660643764406"><ele>39.0</ele><time>2026-04-26T14:28:46.999Z</time></trkpt><trkpt lat="40.63885418623731" lon="14.903993359307815"><ele>39.5</ele><time>2026-04-26T14:28:47.999Z</time></trkpt><trkpt lat="40.63870381033376" lon="14.904325180505923"><ele>40.0</ele><time>2026-04-26T14:28:48.999Z</time></trkpt><trkpt lat="40.63854857959374" lon="14.904652428212493"><ele>39.5</ele><time>2026-04-26T14:28:49.999Z</time></trkpt><trkpt lat="40.63839349172871" lon="14.904979390763074"><ele>39.0</ele><time>2026-04-26T14:28:50.999Z</time></trkpt><trkpt lat="40.638242059384964" lon="14.90529869564293"><ele>39.0</ele><time>2026-04-26T14:28:51.999Z</time></trkpt><trkpt lat="40.6380958411639" lon="14.905601987684781"><ele>39.0</ele><time>2026-04-26T14:28:52.999Z</time></trkpt><trkpt lat="40.63795587209331" lon="14.905889105304764"><ele>39.5</ele><time>2026-04-26T14:28:53.999Z</time></trkpt><trkpt lat="40.63782331351712" lon="14.90616547472101"><ele>40.0</ele><time>2026-04-26T14:28:54.999Z</time></trkpt><trkpt lat="40.63770090861823" lon="14.906434006586249"><ele>40.0</ele><time>2026-04-26T14:28:55.999Z</time></trkpt><trkpt lat="40.637586522284174" lon="14.906692372771877"><ele>40.0</ele><time>2026-04-26T14:28:56.999Z</time></trkpt><trkpt lat="40.637480090733675" lon="14.906939320368847"><ele>40.0</ele><time>2026-04-26T14:28:57.999Z</time></trkpt><trkpt lat="40.63737926329963" lon="14.907173969133169"><ele>40.0</ele><time>2026-04-26T14:28:58.999Z</time></trkpt><trkpt lat="40.63728374256245" lon="14.90739706524619"><ele>40.0</ele><time>2026-04-26T14:28:59.999Z</time></trkpt><trkpt lat="40.63719604109006" lon="14.907612042155288"><ele>40.0</ele><time>2026-04-26T14:29:00.999Z</time></trkpt><trkpt lat="40.63711437148923" lon="14.90781950409815"><ele>40.0</ele><time>2026-04-26T14:29:01.999Z</time></trkpt><trkpt lat="40.63703417505126" lon="14.908028913561255"><ele>40.0</ele><time>2026-04-26T14:29:02.999Z</time></trkpt><trkpt lat="40.63695661129092" lon="14.908239968058352"><ele>40.0</ele><time>2026-04-26T14:29:03.999Z</time></trkpt><trkpt lat="40.63688202827678" lon="14.908446176918696"><ele>39.333333333333336</ele><time>2026-04-26T14:29:04.999Z</time></trkpt><trkpt lat="40.63680716429721" lon="14.908652505835702"><ele>38.666666666666664</ele><time>2026-04-26T14:29:05.999Z</time></trkpt><trkpt lat="40.63673394915448" lon="14.908862075345406"><ele>38.0</ele><time>2026-04-26T14:29:06.999Z</time></trkpt><trkpt lat="40.636661420246654" lon="14.909070647177423"><ele>37.33333333333333</ele><time>2026-04-26T14:29:07.999Z</time></trkpt><trkpt lat="40.63659047328766" lon="14.9092750646267"><ele>36.666666666666664</ele><time>2026-04-26T14:29:08.999Z</time></trkpt><trkpt lat="40.63652238099269" lon="14.90947415421542"><ele>36.0</ele><time>2026-04-26T14:29:09.999Z</time></trkpt><trkpt lat="40.636454250877385" lon="14.909675357872125"><ele>36.0</ele><time>2026-04-26T14:29:10.999Z</time></trkpt><trkpt lat="40.63638604479397" lon="14.909880210633832"><ele>36.0</ele><time>2026-04-26T14:29:11.999Z</time></trkpt><trkpt lat="40.636315468520976" lon="14.91008956885125"><ele>36.0</ele><time>2026-04-26T14:29:12.999Z</time></trkpt><trkpt lat="40.636245082177545" lon="14.910304441691508"><ele>36.333333333333336</ele><time>2026-04-26T14:29:13.999Z</time></trkpt><trkpt lat="40.6361728647933" lon="14.910522060956282"><ele>36.66666666666667</ele><time>2026-04-26T14:29:14.999Z</time></trkpt><trkpt lat="40.636098051638434" lon="14.910744296945511"><ele>37.0</ele><time>2026-04-26T14:29:15.999Z</time></trkpt><trkpt lat="40.63602323397173" lon="14.910971726361057"><ele>37.66666666666667</ele><time>2026-04-26T14:29:16.999Z</time></trkpt><trkpt lat="40.63594742509126" lon="14.911203433131037"><ele>38.333333333333336</ele><time>2026-04-26T14:29:17.999Z</time></trkpt><trkpt lat="40.6358678442808" lon="14.911435533980923"><ele>39.0</ele><time>2026-04-26T14:29:18.999Z</time></trkpt><trkpt lat="40.63578902592235" lon="14.911671785845417"><ele>39.0</ele><time>2026-04-26T14:29:19.999Z</time></trkpt><trkpt lat="40.63571489087965" lon="14.911910986580368"><ele>39.0</ele><time>2026-04-26T14:29:20.999Z</time></trkpt><trkpt lat="40.63563276183868" lon="14.91215060806118"><ele>39.0</ele><time>2026-04-26T14:29:21.999Z</time></trkpt><trkpt lat="40.635549286508414" lon="14.912396879850986"><ele>38.666666666666664</ele><time>2026-04-26T14:29:22.999Z</time></trkpt><trkpt lat="40.63546530436565" lon="14.912650645132773"><ele>38.33333333333333</ele><time>2026-04-26T14:29:24Z</time></trkpt><trkpt lat="40.635380104212544" lon="14.912908861123523"><ele>38.0</ele><time>2026-04-26T14:29:25Z</time></trkpt><trkpt lat="40.63529562624425" lon="14.913168866281536"><ele>38.666666666666664</ele><time>2026-04-26T14:29:26Z</time></trkpt><trkpt lat="40.635210606728045" lon="14.913431098354918"><ele>39.333333333333336</ele><time>2026-04-26T14:29:27Z</time></trkpt><trkpt lat="40.63512340851481" lon="14.913697621020253"><ele>40.0</ele><time>2026-04-26T14:29:28Z</time></trkpt><trkpt lat="40.6350357430317" lon="14.913968097886116"><ele>40.0</ele><time>2026-04-26T14:29:29Z</time></trkpt><trkpt lat="40.634946973918915" lon="14.914237619963313"><ele>40.0</ele><time>2026-04-26T14:29:30Z</time></trkpt><trkpt lat="40.634856532243404" lon="14.914509769700864"><ele>40.0</ele><time>2026-04-26T14:29:31Z</time></trkpt><trkpt lat="40.63476584598631" lon="14.914781422891277"><ele>41.0</ele><time>2026-04-26T14:29:32Z</time></trkpt><trkpt lat="40.634674644456005" lon="14.915053908615382"><ele>42.0</ele><time>2026-04-26T14:29:33Z</time></trkpt><trkpt lat="40.634580551506104" lon="14.915327846170959"><ele>42.0</ele><time>2026-04-26T14:29:34Z</time></trkpt><trkpt lat="40.63448690217441" lon="14.915605591903425"><ele>42.0</ele><time>2026-04-26T14:29:35Z</time></trkpt><trkpt lat="40.63439601494352" lon="14.915887781343253"><ele>42.0</ele><time>2026-04-26T14:29:36Z</time></trkpt><trkpt lat="40.634304188773164" lon="14.916170160578229"><ele>42.0</ele><time>2026-04-26T14:29:37Z</time></trkpt><trkpt lat="40.634214311423996" lon="14.916451862746628"><ele>42.0</ele><time>2026-04-26T14:29:38Z</time></trkpt><trkpt lat="40.63412186318819" lon="14.916732287123503"><ele>42.0</ele><time>2026-04-26T14:29:39Z</time></trkpt><trkpt lat="40.63402981226666" lon="14.91701157022257"><ele>43.0</ele><time>2026-04-26T14:29:40Z</time></trkpt><trkpt lat="40.633938713437885" lon="14.9172890540504"><ele>44.0</ele><time>2026-04-26T14:29:41Z</time></trkpt><trkpt lat="40.63384886703177" lon="14.917566763023139"><ele>44.5</ele><time>2026-04-26T14:29:42Z</time></trkpt><trkpt lat="40.633757267943714" lon="14.917839112018722"><ele>45.0</ele><time>2026-04-26T14:29:43Z</time></trkpt><trkpt lat="40.633666231940964" lon="14.918110705190312"><ele>45.666666666666664</ele><time>2026-04-26T14:29:44Z</time></trkpt><trkpt lat="40.63357634661965" lon="14.918380501645743"><ele>46.33333333333333</ele><time>2026-04-26T14:29:45Z</time></trkpt><trkpt lat="40.63348658673911" lon="14.918646380544965"><ele>47.0</ele><time>2026-04-26T14:29:46Z</time></trkpt><trkpt lat="40.63339710594549" lon="14.918901999844799"><ele>47.0</ele><time>2026-04-26T14:29:47Z</time></trkpt><trkpt lat="40.633309663817194" lon="14.919142289260455"><ele>47.0</ele><time>2026-04-26T14:29:48Z</time></trkpt><trkpt lat="40.63322890650039" lon="14.919373766075724"><ele>47.0</ele><time>2026-04-26T14:29:49Z</time></trkpt><trkpt lat="40.633073513036194" lon="14.919842245285661"><ele>47.666666666666664</ele><time>2026-04-26T14:29:51Z</time></trkpt><trkpt lat="40.63299323767884" lon="14.920088659041962"><ele>48.33333333333333</ele><time>2026-04-26T14:29:52Z</time></trkpt><trkpt lat="40.63290922678002" lon="14.920344206727714"><ele>49.0</ele><time>2026-04-26T14:29:53Z</time></trkpt><trkpt lat="40.63282265733539" lon="14.920605320954968"><ele>48.666666666666664</ele><time>2026-04-26T14:29:54Z</time></trkpt><trkpt lat="40.63273324347891" lon="14.920869461946518"><ele>48.33333333333333</ele><time>2026-04-26T14:29:55Z</time></trkpt><trkpt lat="40.63264259522226" lon="14.921134803176205"><ele>48.0</ele><time>2026-04-26T14:29:56Z</time></trkpt><trkpt lat="40.632556824544686" lon="14.921390298083981"><ele>48.0</ele><time>2026-04-26T14:29:57Z</time></trkpt><trkpt lat="40.63247648106523" lon="14.921632264218585"><ele>48.0</ele><time>2026-04-26T14:29:58Z</time></trkpt><trkpt lat="40.63239905948591" lon="14.921865544235814"><ele>48.0</ele><time>2026-04-26T14:29:59Z</time></trkpt><trkpt lat="40.632326370508345" lon="14.922085095200828"><ele>48.66666666666667</ele><time>2026-04-26T14:30:00Z</time></trkpt><trkpt lat="40.632254373975535" lon="14.922304944417942"><ele>49.333333333333336</ele><time>2026-04-26T14:30:01Z</time></trkpt><trkpt lat="40.63218049161558" lon="14.922524938857924"><ele>50.0</ele><time>2026-04-26T14:30:02Z</time></trkpt><trkpt lat="40.63210793424536" lon="14.92274373789966"><ele>50.66666666666667</ele><time>2026-04-26T14:30:03Z</time></trkpt><trkpt lat="40.63203683990806" lon="14.922964489783624"><ele>51.33333333333333</ele><time>2026-04-26T14:30:04Z</time></trkpt><trkpt lat="40.631965634607575" lon="14.923177399804644"><ele>52.0</ele><time>2026-04-26T14:30:05Z</time></trkpt><trkpt lat="40.63189482444346" lon="14.92338364960062"><ele>51.33333333333333</ele><time>2026-04-26T14:30:06Z</time></trkpt><trkpt lat="40.63182843150253" lon="14.923585118989143"><ele>50.66666666666667</ele><time>2026-04-26T14:30:07Z</time></trkpt><trkpt lat="40.63176742445142" lon="14.923776494581443"><ele>50.0</ele><time>2026-04-26T14:30:08Z</time></trkpt><trkpt lat="40.63171077378007" lon="14.923947262915616"><ele>50.0</ele><time>2026-04-26T14:30:09Z</time></trkpt><trkpt lat="40.63165709431576" lon="14.924100170475525"><ele>50.0</ele><time>2026-04-26T14:30:10Z</time></trkpt><trkpt lat="40.631608037788176" lon="14.92422832963501"><ele>50.0</ele><time>2026-04-26T14:30:11Z</time></trkpt><trkpt lat="40.63156583911863" lon="14.924325498023833"><ele>50.0</ele><time>2026-04-26T14:30:12Z</time></trkpt><trkpt lat="40.631533308236925" lon="14.924399517896548"><ele>50.0</ele><time>2026-04-26T14:30:13Z</time></trkpt><trkpt lat="40.63149762137887" lon="14.92447898723831"><ele>50.2</ele><time>2026-04-26T14:30:15Z</time></trkpt><trkpt lat="40.63146914680289" lon="14.92455786033962"><ele>50.4</ele><time>2026-04-26T14:30:39Z</time></trkpt><trkpt lat="40.63142530775831" lon="14.924724805156858"><ele>50.599999999999994</ele><time>2026-04-26T14:30:41Z</time></trkpt><trkpt lat="40.63139677672082" lon="14.924830411272401"><ele>50.8</ele><time>2026-04-26T14:30:42Z</time></trkpt><trkpt lat="40.63136165148484" lon="14.924962846517182"><ele>51.0</ele><time>2026-04-26T14:30:43Z</time></trkpt><trkpt lat="40.631311648195485" lon="14.92510884183624"><ele>51.0</ele><time>2026-04-26T14:30:44Z</time></trkpt><trkpt lat="40.631255134443265" lon="14.925279600409318"><ele>51.0</ele><time>2026-04-26T14:30:45Z</time></trkpt><trkpt lat="40.63119353322505" lon="14.925463362036986"><ele>51.0</ele><time>2026-04-26T14:30:46Z</time></trkpt><trkpt lat="40.63112623536832" lon="14.92567149520317"><ele>51.66666666666667</ele><time>2026-04-26T14:30:47Z</time></trkpt><trkpt lat="40.63104784559266" lon="14.925902046399152"><ele>52.333333333333336</ele><time>2026-04-26T14:30:48Z</time></trkpt><trkpt lat="40.63096334558621" lon="14.926160543070425"><ele>53.0</ele><time>2026-04-26T14:30:49Z</time></trkpt><trkpt lat="40.63086735113249" lon="14.926438723487003"><ele>54.0</ele><time>2026-04-26T14:30:50Z</time></trkpt><trkpt lat="40.630769429821356" lon="14.926731902546324"><ele>55.0</ele><time>2026-04-26T14:30:51Z</time></trkpt><trkpt lat="40.630669177735975" lon="14.927040018895768"><ele>55.0</ele><time>2026-04-26T14:30:52Z</time></trkpt><trkpt lat="40.63056602099937" lon="14.927360216726129"><ele>55.0</ele><time>2026-04-26T14:30:53Z</time></trkpt><trkpt lat="40.63045934707317" lon="14.927687557140857"><ele>55.5</ele><time>2026-04-26T14:30:54Z</time></trkpt><trkpt lat="40.63035199934834" lon="14.92802128509515"><ele>56.0</ele><time>2026-04-26T14:30:55Z</time></trkpt><trkpt lat="40.6302418383282" lon="14.928360900842737"><ele>56.5</ele><time>2026-04-26T14:30:56Z</time></trkpt><trkpt lat="40.63013101643997" lon="14.928701954061266"><ele>57.0</ele><time>2026-04-26T14:30:57Z</time></trkpt><trkpt lat="40.63002258091685" lon="14.929041348414488"><ele>58.0</ele><time>2026-04-26T14:30:58Z</time></trkpt><trkpt lat="40.629915760561026" lon="14.929375026233911"><ele>59.0</ele><time>2026-04-26T14:30:59Z</time></trkpt><trkpt lat="40.629807224699405" lon="14.929705782466712"><ele>59.0</ele><time>2026-04-26T14:31:00Z</time></trkpt><trkpt lat="40.6297019211819" lon="14.930035286518711"><ele>59.0</ele><time>2026-04-26T14:31:01Z</time></trkpt><trkpt lat="40.6295984698084" lon="14.930364653579746"><ele>59.0</ele><time>2026-04-26T14:31:02Z</time></trkpt><trkpt lat="40.62949913869461" lon="14.93069384871329"><ele>59.0</ele><time>2026-04-26T14:31:03Z</time></trkpt><trkpt lat="40.62940180972793" lon="14.931025366813728"><ele>59.0</ele><time>2026-04-26T14:31:04Z</time></trkpt><trkpt lat="40.62930365258236" lon="14.931352742340017"><ele>59.0</ele><time>2026-04-26T14:31:05Z</time></trkpt><trkpt lat="40.62920936852951" lon="14.931680725886668"><ele>59.0</ele><time>2026-04-26T14:31:06Z</time></trkpt><trkpt lat="40.62911538059007" lon="14.932008574143904"><ele>59.0</ele><time>2026-04-26T14:31:07Z</time></trkpt><trkpt lat="40.62902481948361" lon="14.932341502803064"><ele>58.5</ele><time>2026-04-26T14:31:08Z</time></trkpt><trkpt lat="40.62894064112209" lon="14.93268074936308"><ele>58.0</ele><time>2026-04-26T14:31:09Z</time></trkpt><trkpt lat="40.628856683034904" lon="14.933022652464187"><ele>58.0</ele><time>2026-04-26T14:31:10Z</time></trkpt><trkpt lat="40.62877717882062" lon="14.933366231370483"><ele>58.0</ele><time>2026-04-26T14:31:11Z</time></trkpt><trkpt lat="40.6287029048694" lon="14.933714524137047"><ele>57.0</ele><time>2026-04-26T14:31:12Z</time></trkpt><trkpt lat="40.62863472239589" lon="14.934069203228582"><ele>56.0</ele><time>2026-04-26T14:31:13Z</time></trkpt><trkpt lat="40.62857413474116" lon="14.934430108210508"><ele>56.0</ele><time>2026-04-26T14:31:14Z</time></trkpt><trkpt lat="40.628516888683095" lon="14.93479236616133"><ele>56.0</ele><time>2026-04-26T14:31:15Z</time></trkpt><trkpt lat="40.62846270550085" lon="14.935158052777801"><ele>57.0</ele><time>2026-04-26T14:31:16Z</time></trkpt><trkpt lat="40.62841218666515" lon="14.935527587432356"><ele>58.0</ele><time>2026-04-26T14:31:17Z</time></trkpt><trkpt lat="40.628366676953256" lon="14.935900063188098"><ele>59.0</ele><time>2026-04-26T14:31:18Z</time></trkpt><trkpt lat="40.6283251284529" lon="14.936271397562226"><ele>60.0</ele><time>2026-04-26T14:31:19Z</time></trkpt><trkpt lat="40.628291363444795" lon="14.936643266575022"><ele>60.0</ele><time>2026-04-26T14:31:20Z</time></trkpt><trkpt lat="40.62826525222617" lon="14.93701568335467"><ele>60.0</ele><time>2026-04-26T14:31:21Z</time></trkpt><trkpt lat="40.628244178048895" lon="14.937388828506842"><ele>61.5</ele><time>2026-04-26T14:31:22Z</time></trkpt><trkpt lat="40.628226893713624" lon="14.93776180664214"><ele>63.0</ele><time>2026-04-26T14:31:23Z</time></trkpt><trkpt lat="40.62821377186206" lon="14.938142019713927"><ele>63.5</ele><time>2026-04-26T14:31:24Z</time></trkpt><trkpt lat="40.62820049269838" lon="14.938527454497573"><ele>64.0</ele><time>2026-04-26T14:31:25Z</time></trkpt><trkpt lat="40.62818509295897" lon="14.93891490773229"><ele>64.0</ele><time>2026-04-26T14:31:26Z</time></trkpt><trkpt lat="40.62816775637926" lon="14.939303203408183"><ele>64.0</ele><time>2026-04-26T14:31:27Z</time></trkpt><trkpt lat="40.62815062945154" lon="14.939692051680664"><ele>64.0</ele><time>2026-04-26T14:31:28Z</time></trkpt><trkpt lat="40.62813037648644" lon="14.940079603897932"><ele>64.0</ele><time>2026-04-26T14:31:29Z</time></trkpt><trkpt lat="40.62811269211757" lon="14.940467792410114"><ele>64.0</ele><time>2026-04-26T14:31:30Z</time></trkpt><trkpt lat="40.6280948475765" lon="14.940858001321185"><ele>64.0</ele><time>2026-04-26T14:31:31Z</time></trkpt><trkpt lat="40.62807249384957" lon="14.941243158865058"><ele>64.5</ele><time>2026-04-26T14:31:32Z</time></trkpt><trkpt lat="40.62804375328305" lon="14.94162825865892"><ele>65.0</ele><time>2026-04-26T14:31:33Z</time></trkpt><trkpt lat="40.62800794256104" lon="14.94201207282686"><ele>65.0</ele><time>2026-04-26T14:31:34Z</time></trkpt><trkpt lat="40.627965529776574" lon="14.942394508572455"><ele>65.0</ele><time>2026-04-26T14:31:35Z</time></trkpt><trkpt lat="40.6279132859231" lon="14.942774507775557"><ele>65.0</ele><time>2026-04-26T14:31:36Z</time></trkpt><trkpt lat="40.62785166945038" lon="14.943155304098768"><ele>65.0</ele><time>2026-04-26T14:31:37Z</time></trkpt><trkpt lat="40.627781251069" lon="14.943531906396764"><ele>64.0</ele><time>2026-04-26T14:31:38Z</time></trkpt><trkpt lat="40.627704364046956" lon="14.943906562463388"><ele>63.0</ele><time>2026-04-26T14:31:39Z</time></trkpt><trkpt lat="40.62762073508684" lon="14.944279694066172"><ele>63.0</ele><time>2026-04-26T14:31:40Z</time></trkpt><trkpt lat="40.627529208578764" lon="14.944649585800914"><ele>63.0</ele><time>2026-04-26T14:31:41Z</time></trkpt><trkpt lat="40.627430307348476" lon="14.945015469262028"><ele>62.5</ele><time>2026-04-26T14:31:42Z</time></trkpt><trkpt lat="40.62732665813752" lon="14.945374791584705"><ele>62.0</ele><time>2026-04-26T14:31:43Z</time></trkpt><trkpt lat="40.627216413743" lon="14.945738336736653"><ele>62.5</ele><time>2026-04-26T14:31:44Z</time></trkpt><trkpt lat="40.62710181907317" lon="14.9460951153033"><ele>63.0</ele><time>2026-04-26T14:31:45Z</time></trkpt><trkpt lat="40.62698049032059" lon="14.946449526944074"><ele>62.0</ele><time>2026-04-26T14:31:46Z</time></trkpt><trkpt lat="40.626854592293334" lon="14.946799687547143"><ele>61.0</ele><time>2026-04-26T14:31:47Z</time></trkpt><trkpt lat="40.626722363708325" lon="14.947147149366884"><ele>61.0</ele><time>2026-04-26T14:31:48Z</time></trkpt><trkpt lat="40.626587156651546" lon="14.947492836647536"><ele>61.0</ele><time>2026-04-26T14:31:49Z</time></trkpt><trkpt lat="40.626452692301434" lon="14.947839827489654"><ele>61.0</ele><time>2026-04-26T14:31:50Z</time></trkpt><trkpt lat="40.62631898264211" lon="14.94818503223576"><ele>61.0</ele><time>2026-04-26T14:31:51Z</time></trkpt><trkpt lat="40.62618476828157" lon="14.948528413705942"><ele>60.5</ele><time>2026-04-26T14:31:52Z</time></trkpt><trkpt lat="40.62605032229975" lon="14.948871955267965"><ele>60.0</ele><time>2026-04-26T14:31:53Z</time></trkpt><trkpt lat="40.62591460843956" lon="14.949216307442349"><ele>60.0</ele><time>2026-04-26T14:31:54Z</time></trkpt><trkpt lat="40.62577798138751" lon="14.949559946912327"><ele>60.0</ele><time>2026-04-26T14:31:55Z</time></trkpt><trkpt lat="40.62564148956481" lon="14.949902944200254"><ele>60.0</ele><time>2026-04-26T14:31:56Z</time></trkpt><trkpt lat="40.62550496616097" lon="14.950246350406074"><ele>60.0</ele><time>2026-04-26T14:31:57Z</time></trkpt><trkpt lat="40.62536720711991" lon="14.950589929478207"><ele>61.0</ele><time>2026-04-26T14:31:58Z</time></trkpt><trkpt lat="40.625230550581435" lon="14.950934696903396"><ele>62.0</ele><time>2026-04-26T14:31:59Z</time></trkpt><trkpt lat="40.625095674430014" lon="14.951280217681841"><ele>62.0</ele><time>2026-04-26T14:32:00Z</time></trkpt><trkpt lat="40.62496182728682" lon="14.95162678127713"><ele>62.0</ele><time>2026-04-26T14:32:01Z</time></trkpt><trkpt lat="40.6248258013026" lon="14.951969243777967"><ele>64.0</ele><time>2026-04-26T14:32:02Z</time></trkpt><trkpt lat="40.62468921931193" lon="14.9523120411924"><ele>66.0</ele><time>2026-04-26T14:32:03Z</time></trkpt><trkpt lat="40.62455353380622" lon="14.952656422819897"><ele>66.0</ele><time>2026-04-26T14:32:04Z</time></trkpt><trkpt lat="40.62441538406874" lon="14.952997853980108"><ele>66.0</ele><time>2026-04-26T14:32:05Z</time></trkpt><trkpt lat="40.62427900305377" lon="14.953344874473773"><ele>66.0</ele><time>2026-04-26T14:32:06Z</time></trkpt><trkpt lat="40.62414689327039" lon="14.953690019910708"><ele>66.0</ele><time>2026-04-26T14:32:07Z</time></trkpt><trkpt lat="40.624013690024235" lon="14.954035815346487"><ele>67.5</ele><time>2026-04-26T14:32:08Z</time></trkpt><trkpt lat="40.62387985946729" lon="14.95438029869985"><ele>69.0</ele><time>2026-04-26T14:32:09Z</time></trkpt><trkpt lat="40.62374701512418" lon="14.954726972744298"><ele>67.0</ele><time>2026-04-26T14:32:10Z</time></trkpt><trkpt lat="40.6236183513545" lon="14.95507616800043"><ele>65.0</ele><time>2026-04-26T14:32:11Z</time></trkpt><trkpt lat="40.62349286265889" lon="14.955428606361435"><ele>65.0</ele><time>2026-04-26T14:32:12Z</time></trkpt><trkpt lat="40.623371914537415" lon="14.95578303004686"><ele>65.0</ele><time>2026-04-26T14:32:13Z</time></trkpt><trkpt lat="40.62324960717515" lon="14.956135935316706"><ele>65.0</ele><time>2026-04-26T14:32:14Z</time></trkpt><trkpt lat="40.62313259024211" lon="14.956491340242634"><ele>65.0</ele><time>2026-04-26T14:32:15Z</time></trkpt><trkpt lat="40.62301849853301" lon="14.956848673018897"><ele>65.0</ele><time>2026-04-26T14:32:16Z</time></trkpt><trkpt lat="40.6229089991726" lon="14.95720847685109"><ele>65.0</ele><time>2026-04-26T14:32:17Z</time></trkpt><trkpt lat="40.6228026839125" lon="14.957570199843762"><ele>63.5</ele><time>2026-04-26T14:32:18Z</time></trkpt><trkpt lat="40.62269639601676" lon="14.957931533899512"><ele>62.0</ele><time>2026-04-26T14:32:19Z</time></trkpt><trkpt lat="40.62259028321779" lon="14.958292710123423"><ele>61.5</ele><time>2026-04-26T14:32:20Z</time></trkpt><trkpt lat="40.62248530720285" lon="14.958636908407385"><ele>61.0</ele><time>2026-04-26T14:32:21Z</time></trkpt><trkpt lat="40.62238179401715" lon="14.959018617904674"><ele>61.0</ele><time>2026-04-26T14:32:22Z</time></trkpt><trkpt lat="40.62228522820603" lon="14.95939698845871"><ele>61.0</ele><time>2026-04-26T14:32:23Z</time></trkpt><trkpt lat="40.62218393608195" lon="14.959788680230998"><ele>60.5</ele><time>2026-04-26T14:32:24Z</time></trkpt><trkpt lat="40.6220801934201" lon="14.960186343130502"><ele>60.0</ele><time>2026-04-26T14:32:25Z</time></trkpt><trkpt lat="40.621971888121074" lon="14.960580308547643"><ele>59.0</ele><time>2026-04-26T14:32:26Z</time></trkpt><trkpt lat="40.62186551201821" lon="14.960971245704794"><ele>58.0</ele><time>2026-04-26T14:32:27Z</time></trkpt><trkpt lat="40.62176176393812" lon="14.96135991455838"><ele>57.5</ele><time>2026-04-26T14:32:28Z</time></trkpt><trkpt lat="40.62166355389642" lon="14.96173885142928"><ele>57.0</ele><time>2026-04-26T14:32:29Z</time></trkpt><trkpt lat="40.62156793452881" lon="14.96211766750443"><ele>57.0</ele><time>2026-04-26T14:32:30Z</time></trkpt><trkpt lat="40.62147184531789" lon="14.962495738515052"><ele>57.0</ele><time>2026-04-26T14:32:31Z</time></trkpt><trkpt lat="40.621376423641806" lon="14.962872403506069"><ele>58.0</ele><time>2026-04-26T14:32:32Z</time></trkpt><trkpt lat="40.621284043099365" lon="14.963247727253213"><ele>59.0</ele><time>2026-04-26T14:32:33Z</time></trkpt><trkpt lat="40.62119915586976" lon="14.963624705749451"><ele>59.0</ele><time>2026-04-26T14:32:34Z</time></trkpt><trkpt lat="40.621119209076575" lon="14.963999854439084"><ele>59.0</ele><time>2026-04-26T14:32:35Z</time></trkpt><trkpt lat="40.621045249135605" lon="14.964374467422582"><ele>59.0</ele><time>2026-04-26T14:32:36Z</time></trkpt><trkpt lat="40.620973419015186" lon="14.964749244959895"><ele>59.0</ele><time>2026-04-26T14:32:37Z</time></trkpt><trkpt lat="40.62090970553487" lon="14.965126545782255"><ele>60.0</ele><time>2026-04-26T14:32:38Z</time></trkpt><trkpt lat="40.62085202147681" lon="14.965504462529461"><ele>61.0</ele><time>2026-04-26T14:32:39Z</time></trkpt><trkpt lat="40.62080120691143" lon="14.965883318404506"><ele>62.0</ele><time>2026-04-26T14:32:40Z</time></trkpt><trkpt lat="40.6207572751799" lon="14.966265142013905"><ele>63.0</ele><time>2026-04-26T14:32:41Z</time></trkpt><trkpt lat="40.6207204375136" lon="14.966653954325093"><ele>63.5</ele><time>2026-04-26T14:32:42Z</time></trkpt><trkpt lat="40.62069062165612" lon="14.967048044206027"><ele>64.0</ele><time>2026-04-26T14:32:43Z</time></trkpt><trkpt lat="40.62066202757591" lon="14.967445103974562"><ele>65.0</ele><time>2026-04-26T14:32:44Z</time></trkpt><trkpt lat="40.620638671364134" lon="14.967841803509684"><ele>66.0</ele><time>2026-04-26T14:32:45Z</time></trkpt><trkpt lat="40.620617965590206" lon="14.96823637371329"><ele>65.0</ele><time>2026-04-26T14:32:46Z</time></trkpt><trkpt lat="40.62060052842375" lon="14.968630873321535"><ele>64.0</ele><time>2026-04-26T14:32:47Z</time></trkpt><trkpt lat="40.62058585653384" lon="14.969028070681752"><ele>65.5</ele><time>2026-04-26T14:32:48Z</time></trkpt><trkpt lat="40.62057436687365" lon="14.969425011885244"><ele>67.0</ele><time>2026-04-26T14:32:49Z</time></trkpt><trkpt lat="40.62056199023833" lon="14.969821110447477"><ele>67.5</ele><time>2026-04-26T14:32:50Z</time></trkpt><trkpt lat="40.62054786459928" lon="14.970217556438248"><ele>68.0</ele><time>2026-04-26T14:32:51Z</time></trkpt><trkpt lat="40.62053061259405" lon="14.970614549506374"><ele>66.0</ele><time>2026-04-26T14:32:52Z</time></trkpt><trkpt lat="40.620514737527785" lon="14.971010072193318"><ele>64.0</ele><time>2026-04-26T14:32:53Z</time></trkpt><trkpt lat="40.62049941820202" lon="14.971407717743858"><ele>64.5</ele><time>2026-04-26T14:32:54Z</time></trkpt><trkpt lat="40.62048462727556" lon="14.971804912824927"><ele>65.0</ele><time>2026-04-26T14:32:55Z</time></trkpt><trkpt lat="40.6204659370642" lon="14.972201576219035"><ele>67.0</ele><time>2026-04-26T14:32:56Z</time></trkpt><trkpt lat="40.62044134951995" lon="14.972597083347223"><ele>69.0</ele><time>2026-04-26T14:32:57Z</time></trkpt><trkpt lat="40.620408313705695" lon="14.972991612039877"><ele>69.0</ele><time>2026-04-26T14:32:58Z</time></trkpt><trkpt lat="40.62036558552516" lon="14.973383870992317"><ele>69.0</ele><time>2026-04-26T14:32:59Z</time></trkpt><trkpt lat="40.62031385986762" lon="14.973777267549455"><ele>69.0</ele><time>2026-04-26T14:33:00Z</time></trkpt><trkpt lat="40.62025303645699" lon="14.974166482574656"><ele>69.0</ele><time>2026-04-26T14:33:01Z</time></trkpt><trkpt lat="40.62017962774484" lon="14.974550783693545"><ele>68.5</ele><time>2026-04-26T14:33:02Z</time></trkpt><trkpt lat="40.620103651670895" lon="14.974935739957047"><ele>68.0</ele><time>2026-04-26T14:33:03Z</time></trkpt><trkpt lat="40.62002260311448" lon="14.975316517621755"><ele>69.5</ele><time>2026-04-26T14:33:04Z</time></trkpt><trkpt lat="40.61992323013442" lon="14.975689608308405"><ele>71.0</ele><time>2026-04-26T14:33:05Z</time></trkpt><trkpt lat="40.61981617217505" lon="14.976060072772395"><ele>71.0</ele><time>2026-04-26T14:33:06Z</time></trkpt><trkpt lat="40.619700026909555" lon="14.976427235252068"><ele>71.0</ele><time>2026-04-26T14:33:07Z</time></trkpt><trkpt lat="40.619577676210355" lon="14.976789615084787"><ele>71.0</ele><time>2026-04-26T14:33:08Z</time></trkpt><trkpt lat="40.6194466151638" lon="14.977148571993064"><ele>71.0</ele><time>2026-04-26T14:33:09Z</time></trkpt><trkpt lat="40.619307367609345" lon="14.97749990439167"><ele>71.0</ele><time>2026-04-26T14:33:10Z</time></trkpt><trkpt lat="40.61915913727153" lon="14.977844360054267"><ele>71.0</ele><time>2026-04-26T14:33:11Z</time></trkpt><trkpt lat="40.619006029163515" lon="14.978179880861292"><ele>71.0</ele><time>2026-04-26T14:33:12Z</time></trkpt><trkpt lat="40.61885755027802" lon="14.978493439903755"><ele>71.0</ele><time>2026-04-26T14:33:13Z</time></trkpt><trkpt lat="40.61871219461938" lon="14.978805760167521"><ele>71.0</ele><time>2026-04-26T14:33:14Z</time></trkpt><trkpt lat="40.61856755808759" lon="14.979118490037651"><ele>71.0</ele><time>2026-04-26T14:33:15Z</time></trkpt><trkpt lat="40.61842439184575" lon="14.979434148269961"><ele>71.0</ele><time>2026-04-26T14:33:16Z</time></trkpt><trkpt lat="40.618287620669584" lon="14.979749869261097"><ele>71.0</ele><time>2026-04-26T14:33:17Z</time></trkpt><trkpt lat="40.618162511526485" lon="14.980068144060482"><ele>70.5</ele><time>2026-04-26T14:33:18Z</time></trkpt><trkpt lat="40.61804523145734" lon="14.980390831755633"><ele>70.0</ele><time>2026-04-26T14:33:19Z</time></trkpt><trkpt lat="40.61793635550451" lon="14.980724491608058"><ele>70.0</ele><time>2026-04-26T14:33:20Z</time></trkpt><trkpt lat="40.617837133678336" lon="14.981063603221214"><ele>70.0</ele><time>2026-04-26T14:33:21Z</time></trkpt><trkpt lat="40.61774724940637" lon="14.981407605272706"><ele>71.0</ele><time>2026-04-26T14:33:22Z</time></trkpt><trkpt lat="40.61766164137512" lon="14.981763448282182"><ele>72.0</ele><time>2026-04-26T14:33:23Z</time></trkpt><trkpt lat="40.61758431047462" lon="14.982126703571888"><ele>72.0</ele><time>2026-04-26T14:33:24Z</time></trkpt><trkpt lat="40.617518256846736" lon="14.982496252602557"><ele>72.0</ele><time>2026-04-26T14:33:25Z</time></trkpt><trkpt lat="40.61746119398484" lon="14.982867997268084"><ele>72.5</ele><time>2026-04-26T14:33:26Z</time></trkpt><trkpt lat="40.6174117502034" lon="14.983241226779306"><ele>73.0</ele><time>2026-04-26T14:33:27Z</time></trkpt><trkpt lat="40.617366031428354" lon="14.983614512133025"><ele>71.5</ele><time>2026-04-26T14:33:28Z</time></trkpt><trkpt lat="40.61732139046948" lon="14.983986850959525"><ele>70.0</ele><time>2026-04-26T14:33:29Z</time></trkpt><trkpt lat="40.61727395879017" lon="14.984357670889066"><ele>69.5</ele><time>2026-04-26T14:33:30Z</time></trkpt><trkpt lat="40.61722479538601" lon="14.984725507353282"><ele>69.0</ele><time>2026-04-26T14:33:31Z</time></trkpt><trkpt lat="40.617169882530725" lon="14.985091651605734"><ele>67.5</ele><time>2026-04-26T14:33:32Z</time></trkpt><trkpt lat="40.61710876829499" lon="14.985454020188346"><ele>66.0</ele><time>2026-04-26T14:33:33Z</time></trkpt><trkpt lat="40.61703741976197" lon="14.985811118742108"><ele>69.0</ele><time>2026-04-26T14:33:34Z</time></trkpt><trkpt lat="40.61695245577583" lon="14.986160583446017"><ele>72.0</ele><time>2026-04-26T14:33:35Z</time></trkpt><trkpt lat="40.61685562903363" lon="14.986504529459435"><ele>73.0</ele><time>2026-04-26T14:33:36Z</time></trkpt><trkpt lat="40.61675220793134" lon="14.986842264301178"><ele>74.0</ele><time>2026-04-26T14:33:37Z</time></trkpt><trkpt lat="40.61663712172127" lon="14.987173906103378"><ele>74.0</ele><time>2026-04-26T14:33:38Z</time></trkpt><trkpt lat="40.61651344494429" lon="14.987500119525167"><ele>74.0</ele><time>2026-04-26T14:33:39Z</time></trkpt><trkpt lat="40.616377091821064" lon="14.987819862538617"><ele>77.0</ele><time>2026-04-26T14:33:40Z</time></trkpt><trkpt lat="40.61623117756347" lon="14.988132054525602"><ele>80.0</ele><time>2026-04-26T14:33:41Z</time></trkpt><trkpt lat="40.61607796157132" lon="14.988438913619122"><ele>82.0</ele><time>2026-04-26T14:33:42Z</time></trkpt><trkpt lat="40.61591855396021" lon="14.988740966516703"><ele>84.0</ele><time>2026-04-26T14:33:43Z</time></trkpt><trkpt lat="40.61575666990277" lon="14.989036322748566"><ele>88.5</ele><time>2026-04-26T14:33:44Z</time></trkpt><trkpt lat="40.61559455668329" lon="14.989332514492073"><ele>93.0</ele><time>2026-04-26T14:33:45Z</time></trkpt><trkpt lat="40.61543102563655" lon="14.989631970374601"><ele>92.0</ele><time>2026-04-26T14:33:46Z</time></trkpt><trkpt lat="40.61526571318684" lon="14.989936907554995"><ele>91.0</ele><time>2026-04-26T14:33:47Z</time></trkpt><trkpt lat="40.615099427729234" lon="14.990242212302759"><ele>91.0</ele><time>2026-04-26T14:33:48Z</time></trkpt><trkpt lat="40.61492886496109" lon="14.990550327187734"><ele>91.0</ele><time>2026-04-26T14:33:49Z</time></trkpt><trkpt lat="40.61475524115621" lon="14.990856285235242"><ele>92.5</ele><time>2026-04-26T14:33:50Z</time></trkpt><trkpt lat="40.61457797795378" lon="14.991157552994236"><ele>94.0</ele><time>2026-04-26T14:33:51Z</time></trkpt><trkpt lat="40.614392179069256" lon="14.991454683308728"><ele>98.5</ele><time>2026-04-26T14:33:52Z</time></trkpt><trkpt lat="40.61420163011535" lon="14.991741755695"><ele>103.0</ele><time>2026-04-26T14:33:53Z</time></trkpt><trkpt lat="40.61400386688274" lon="14.992021394736673"><ele>103.0</ele><time>2026-04-26T14:33:54Z</time></trkpt><trkpt lat="40.61380068479774" lon="14.992294153938417"><ele>103.0</ele><time>2026-04-26T14:33:55Z</time></trkpt><trkpt lat="40.61359067005928" lon="14.9925597285127"><ele>100.5</ele><time>2026-04-26T14:33:56Z</time></trkpt><trkpt lat="40.613372886103306" lon="14.992815163745815"><ele>98.0</ele><time>2026-04-26T14:33:57Z</time></trkpt><trkpt lat="40.6131499007992" lon="14.993063613762422"><ele>98.0</ele><time>2026-04-26T14:33:58Z</time></trkpt><trkpt lat="40.61292575094754" lon="14.993311943251959"><ele>98.0</ele><time>2026-04-26T14:33:59Z</time></trkpt><trkpt lat="40.61270180289671" lon="14.993560112688774"><ele>96.5</ele><time>2026-04-26T14:34:00Z</time></trkpt><trkpt lat="40.61247941129851" lon="14.993811669476106"><ele>95.0</ele><time>2026-04-26T14:34:01Z</time></trkpt><trkpt lat="40.612257864155644" lon="14.99406249781348"><ele>93.0</ele><time>2026-04-26T14:34:02Z</time></trkpt><trkpt lat="40.612036179023484" lon="14.99431477187963"><ele>91.0</ele><time>2026-04-26T14:34:03Z</time></trkpt><trkpt lat="40.61181376846147" lon="14.994565224673057"><ele>91.0</ele><time>2026-04-26T14:34:04Z</time></trkpt><trkpt lat="40.61159065929887" lon="14.994814392486887"><ele>91.0</ele><time>2026-04-26T14:34:05Z</time></trkpt><trkpt lat="40.61136434920847" lon="14.995061269555924"><ele>88.5</ele><time>2026-04-26T14:34:06Z</time></trkpt><trkpt lat="40.611135810286136" lon="14.995300927179251"><ele>86.0</ele><time>2026-04-26T14:34:07Z</time></trkpt><trkpt lat="40.61090081637735" lon="14.995531733643208"><ele>86.0</ele><time>2026-04-26T14:34:08Z</time></trkpt><trkpt lat="40.610656776133006" lon="14.995745229455453"><ele>86.0</ele><time>2026-04-26T14:34:09Z</time></trkpt><trkpt lat="40.610403194033886" lon="14.9959377071451"><ele>84.0</ele><time>2026-04-26T14:34:10Z</time></trkpt><trkpt lat="40.61014602063596" lon="14.99612326647946"><ele>82.0</ele><time>2026-04-26T14:34:11Z</time></trkpt><trkpt lat="40.60988573201315" lon="14.996298460805082"><ele>82.0</ele><time>2026-04-26T14:34:12Z</time></trkpt><trkpt lat="40.60962374035299" lon="14.996470648201761"><ele>82.0</ele><time>2026-04-26T14:34:13Z</time></trkpt><trkpt lat="40.60936078261672" lon="14.996641715550396"><ele>82.0</ele><time>2026-04-26T14:34:14Z</time></trkpt><trkpt lat="40.60909920296792" lon="14.996815694073945"><ele>82.0</ele><time>2026-04-26T14:34:15Z</time></trkpt><trkpt lat="40.6088394063848" lon="14.996989908857273"><ele>81.0</ele><time>2026-04-26T14:34:16Z</time></trkpt><trkpt lat="40.60857874363151" lon="14.997162850688872"><ele>80.0</ele><time>2026-04-26T14:34:17Z</time></trkpt><trkpt lat="40.60831846218187" lon="14.997336353706444"><ele>80.0</ele><time>2026-04-26T14:34:18Z</time></trkpt><trkpt lat="40.608058989786564" lon="14.997510972697869"><ele>80.0</ele><time>2026-04-26T14:34:19Z</time></trkpt><trkpt lat="40.607802064747865" lon="14.997690117751436"><ele>80.0</ele><time>2026-04-26T14:34:20Z</time></trkpt><trkpt lat="40.60754922933396" lon="14.99788152420239"><ele>80.0</ele><time>2026-04-26T14:34:21Z</time></trkpt><trkpt lat="40.60730360181434" lon="14.998087320902737"><ele>80.0</ele><time>2026-04-26T14:34:22Z</time></trkpt><trkpt lat="40.607065264095645" lon="14.998308797236069"><ele>80.0</ele><time>2026-04-26T14:34:23Z</time></trkpt><trkpt lat="40.60683483609539" lon="14.998543732954213"><ele>80.5</ele><time>2026-04-26T14:34:24Z</time></trkpt><trkpt lat="40.60660723969823" lon="14.998785381510702"><ele>81.0</ele><time>2026-04-26T14:34:25Z</time></trkpt><trkpt lat="40.6063824602513" lon="14.9990305297704"><ele>81.5</ele><time>2026-04-26T14:34:26Z</time></trkpt><trkpt lat="40.606159200596494" lon="14.999277661102472"><ele>82.0</ele><time>2026-04-26T14:34:27Z</time></trkpt><trkpt lat="40.60593615799403" lon="14.999527393910027"><ele>82.0</ele><time>2026-04-26T14:34:28Z</time></trkpt><trkpt lat="40.60571234177126" lon="14.99978014609098"><ele>82.0</ele><time>2026-04-26T14:34:29Z</time></trkpt><trkpt lat="40.60548759143405" lon="15.000030955847429"><ele>80.5</ele><time>2026-04-26T14:34:30Z</time></trkpt><trkpt lat="40.60526292852657" lon="15.000277995877031"><ele>79.0</ele><time>2026-04-26T14:34:31Z</time></trkpt><trkpt lat="40.60503630142583" lon="15.000524343793257"><ele>79.0</ele><time>2026-04-26T14:34:32Z</time></trkpt><trkpt lat="40.60481117794602" lon="15.000772352192739"><ele>79.0</ele><time>2026-04-26T14:34:33Z</time></trkpt><trkpt lat="40.60458621634163" lon="15.001020869523039"><ele>78.5</ele><time>2026-04-26T14:34:34Z</time></trkpt><trkpt lat="40.60436037630658" lon="15.001269064403552"><ele>78.0</ele><time>2026-04-26T14:34:35Z</time></trkpt><trkpt lat="40.60413549799725" lon="15.001516281578215"><ele>78.5</ele><time>2026-04-26T14:34:36Z</time></trkpt><trkpt lat="40.60391156232037" lon="15.001764999991408"><ele>79.0</ele><time>2026-04-26T14:34:37Z</time></trkpt><trkpt lat="40.603687958691864" lon="15.002014947166254"><ele>78.0</ele><time>2026-04-26T14:34:38Z</time></trkpt><trkpt lat="40.60346956024852" lon="15.002271059071452"><ele>77.0</ele><time>2026-04-26T14:34:39Z</time></trkpt><trkpt lat="40.60325244834916" lon="15.002528313983971"><ele>77.0</ele><time>2026-04-26T14:34:40Z</time></trkpt><trkpt lat="40.60303704825161" lon="15.002791197200244"><ele>77.0</ele><time>2026-04-26T14:34:41Z</time></trkpt><trkpt lat="40.602825417502956" lon="15.003059096119417"><ele>76.5</ele><time>2026-04-26T14:34:42Z</time></trkpt><trkpt lat="40.60261897065636" lon="15.003332502429869"><ele>76.0</ele><time>2026-04-26T14:34:43Z</time></trkpt><trkpt lat="40.60241937274722" lon="15.003614959287612"><ele>76.0</ele><time>2026-04-26T14:34:44Z</time></trkpt><trkpt lat="40.60222691636457" lon="15.003903761155781"><ele>76.0</ele><time>2026-04-26T14:34:45Z</time></trkpt><trkpt lat="40.60204507428671" lon="15.004203571885139"><ele>73.5</ele><time>2026-04-26T14:34:46Z</time></trkpt><trkpt lat="40.601873335974666" lon="15.004512223898613"><ele>71.0</ele><time>2026-04-26T14:34:47Z</time></trkpt><trkpt lat="40.60171250850628" lon="15.004831523772697"><ele>73.5</ele><time>2026-04-26T14:34:48Z</time></trkpt><trkpt lat="40.60156562783249" lon="15.005161972750928"><ele>76.0</ele><time>2026-04-26T14:34:49Z</time></trkpt><trkpt lat="40.60143316918799" lon="15.00550106176526"><ele>80.5</ele><time>2026-04-26T14:34:50Z</time></trkpt><trkpt lat="40.60131271802438" lon="15.005848096309899"><ele>85.0</ele><time>2026-04-26T14:34:51Z</time></trkpt><trkpt lat="40.60120299747854" lon="15.006202185017521"><ele>80.0</ele><time>2026-04-26T14:34:52Z</time></trkpt><trkpt lat="40.60110380528351" lon="15.006562446705974"><ele>75.0</ele><time>2026-04-26T14:34:53Z</time></trkpt><trkpt lat="40.601016341431745" lon="15.006927719458577"><ele>75.0</ele><time>2026-04-26T14:34:54Z</time></trkpt><trkpt lat="40.60094284191781" lon="15.007298606206309"><ele>75.0</ele><time>2026-04-26T14:34:55Z</time></trkpt><trkpt lat="40.60088461452933" lon="15.007672905827413"><ele>76.5</ele><time>2026-04-26T14:34:56Z</time></trkpt><trkpt lat="40.60084059778732" lon="15.00805166355972"><ele>78.0</ele><time>2026-04-26T14:34:57Z</time></trkpt><trkpt lat="40.60080962405248" lon="15.008431938549894"><ele>79.5</ele><time>2026-04-26T14:34:58Z</time></trkpt><trkpt lat="40.60079145141434" lon="15.008813137447774"><ele>81.0</ele><time>2026-04-26T14:34:59Z</time></trkpt><trkpt lat="40.60078059671665" lon="15.009196385337665"><ele>81.5</ele><time>2026-04-26T14:35:00Z</time></trkpt><trkpt lat="40.60078179768215" lon="15.009580101505342"><ele>82.0</ele><time>2026-04-26T14:35:01Z</time></trkpt><trkpt lat="40.60079432786883" lon="15.009963353583554"><ele>81.0</ele><time>2026-04-26T14:35:02Z</time></trkpt><trkpt lat="40.60081636442262" lon="15.010345129156741"><ele>80.0</ele><time>2026-04-26T14:35:03Z</time></trkpt><trkpt lat="40.60083966792754" lon="15.0107273428614"><ele>81.0</ele><time>2026-04-26T14:35:04Z</time></trkpt><trkpt lat="40.600869570490055" lon="15.011109615733377"><ele>82.0</ele><time>2026-04-26T14:35:05Z</time></trkpt><trkpt lat="40.60089548820799" lon="15.011494026219678"><ele>84.0</ele><time>2026-04-26T14:35:06Z</time></trkpt><trkpt lat="40.60092138127105" lon="15.011877426221991"><ele>86.0</ele><time>2026-04-26T14:35:07Z</time></trkpt><trkpt lat="40.60095092825039" lon="15.01226006137104"><ele>85.0</ele><time>2026-04-26T14:35:08Z</time></trkpt><trkpt lat="40.6009812161993" lon="15.012642250868856"><ele>84.0</ele><time>2026-04-26T14:35:09Z</time></trkpt><trkpt lat="40.60101012789941" lon="15.013024952079416"><ele>83.0</ele><time>2026-04-26T14:35:10Z</time></trkpt><trkpt lat="40.60104227845629" lon="15.01340935196212"><ele>82.0</ele><time>2026-04-26T14:35:11Z</time></trkpt><trkpt lat="40.60108080335227" lon="15.013791810005548"><ele>80.5</ele><time>2026-04-26T14:35:12Z</time></trkpt><trkpt lat="40.60113007822648" lon="15.014171486295494"><ele>79.0</ele><time>2026-04-26T14:35:13Z</time></trkpt><trkpt lat="40.601189122316114" lon="15.014549261054981"><ele>88.5</ele><time>2026-04-26T14:35:14Z</time></trkpt><trkpt lat="40.601251132367466" lon="15.014925747377042"><ele>98.0</ele><time>2026-04-26T14:35:15Z</time></trkpt><trkpt lat="40.60131257162795" lon="15.015301307701492"><ele>98.0</ele><time>2026-04-26T14:35:16Z</time></trkpt><trkpt lat="40.601372413254694" lon="15.015677405154662"><ele>98.0</ele><time>2026-04-26T14:35:17Z</time></trkpt><trkpt lat="40.60143230645364" lon="15.01605357170045"><ele>96.0</ele><time>2026-04-26T14:35:18Z</time></trkpt><trkpt lat="40.60149095946968" lon="15.016429421135966"><ele>94.0</ele><time>2026-04-26T14:35:19Z</time></trkpt><trkpt lat="40.60155116597626" lon="15.016804908707954"><ele>93.0</ele><time>2026-04-26T14:35:20Z</time></trkpt><trkpt lat="40.60161012448213" lon="15.017180975678462"><ele>92.0</ele><time>2026-04-26T14:35:21Z</time></trkpt><trkpt lat="40.60166814058574" lon="15.017556750672387"><ele>90.5</ele><time>2026-04-26T14:35:22Z</time></trkpt><trkpt lat="40.601727723779646" lon="15.017933027046027"><ele>89.0</ele><time>2026-04-26T14:35:23Z</time></trkpt><trkpt lat="40.6017879050668" lon="15.018308154676328"><ele>86.5</ele><time>2026-04-26T14:35:24Z</time></trkpt><trkpt lat="40.60184943346628" lon="15.018683668506037"><ele>84.0</ele><time>2026-04-26T14:35:25Z</time></trkpt><trkpt lat="40.60190767637959" lon="15.019058128757107"><ele>81.5</ele><time>2026-04-26T14:35:26Z</time></trkpt><trkpt lat="40.60196021591962" lon="15.019434147747889"><ele>79.0</ele><time>2026-04-26T14:35:27Z</time></trkpt><trkpt lat="40.602013161170355" lon="15.019811533772927"><ele>93.0</ele><time>2026-04-26T14:35:28Z</time></trkpt><trkpt lat="40.60206843814136" lon="15.020187818905642"><ele>107.0</ele><time>2026-04-26T14:35:29Z</time></trkpt><trkpt lat="40.602126363268596" lon="15.020563310918027"><ele>103.0</ele><time>2026-04-26T14:35:30Z</time></trkpt><trkpt lat="40.6021836728024" lon="15.020939642636009"><ele>99.0</ele><time>2026-04-26T14:35:31Z</time></trkpt><trkpt lat="40.602241185783804" lon="15.02131564380417"><ele>94.5</ele><time>2026-04-26T14:35:32Z</time></trkpt><trkpt lat="40.60229947897157" lon="15.021690767940504"><ele>90.0</ele><time>2026-04-26T14:35:33Z</time></trkpt><trkpt lat="40.60235846228884" lon="15.022066990919859"><ele>90.0</ele><time>2026-04-26T14:35:34Z</time></trkpt><trkpt lat="40.60241985472503" lon="15.0224422815044"><ele>90.0</ele><time>2026-04-26T14:35:35Z</time></trkpt><trkpt lat="40.60248163356705" lon="15.022820033496702"><ele>88.0</ele><time>2026-04-26T14:35:36Z</time></trkpt><trkpt lat="40.602543149794755" lon="15.023196224790713"><ele>86.0</ele><time>2026-04-26T14:35:37Z</time></trkpt><trkpt lat="40.60260484503907" lon="15.023572899299177"><ele>86.0</ele><time>2026-04-26T14:35:38Z</time></trkpt><trkpt lat="40.602666701049124" lon="15.023948796767971"><ele>86.0</ele><time>2026-04-26T14:35:39Z</time></trkpt><trkpt lat="40.602725679052575" lon="15.0243268047017"><ele>84.0</ele><time>2026-04-26T14:35:40Z</time></trkpt><trkpt lat="40.602781180401536" lon="15.024704579162863"><ele>82.0</ele><time>2026-04-26T14:35:41Z</time></trkpt><trkpt lat="40.60283414742329" lon="15.02508298818922"><ele>85.5</ele><time>2026-04-26T14:35:42Z</time></trkpt><trkpt lat="40.60288216380668" lon="15.025459624883457"><ele>89.0</ele><time>2026-04-26T14:35:43Z</time></trkpt><trkpt lat="40.602925484146105" lon="15.025839432969583"><ele>89.0</ele><time>2026-04-26T14:35:44Z</time></trkpt><trkpt lat="40.60296192234763" lon="15.026220602766443"><ele>89.0</ele><time>2026-04-26T14:35:45Z</time></trkpt><trkpt lat="40.6029921409427" lon="15.026603570663779"><ele>91.0</ele><time>2026-04-26T14:35:46Z</time></trkpt><trkpt lat="40.60301849740411" lon="15.026986110354517"><ele>93.0</ele><time>2026-04-26T14:35:47Z</time></trkpt><trkpt lat="40.60304141000171" lon="15.027368186706727"><ele>94.5</ele><time>2026-04-26T14:35:48Z</time></trkpt><trkpt lat="40.603061488056" lon="15.02774908202951"><ele>96.0</ele><time>2026-04-26T14:35:49Z</time></trkpt><trkpt lat="40.60308078785498" lon="15.02813244930571"><ele>97.0</ele><time>2026-04-26T14:35:50Z</time></trkpt><trkpt lat="40.603099794925946" lon="15.02851401615418"><ele>98.0</ele><time>2026-04-26T14:35:51Z</time></trkpt><trkpt lat="40.603119205530405" lon="15.028894949185627"><ele>98.0</ele><time>2026-04-26T14:35:52Z</time></trkpt><trkpt lat="40.60313923574734" lon="15.02927731999903"><ele>98.0</ele><time>2026-04-26T14:35:53Z</time></trkpt><trkpt lat="40.60315988848615" lon="15.029659071251775"><ele>100.0</ele><time>2026-04-26T14:35:54Z</time></trkpt><trkpt lat="40.60318182992485" lon="15.0300423358528"><ele>102.0</ele><time>2026-04-26T14:35:55Z</time></trkpt><trkpt lat="40.603207317127335" lon="15.030426816809758"><ele>101.5</ele><time>2026-04-26T14:35:56Z</time></trkpt><trkpt lat="40.60323885174124" lon="15.030808688821654"><ele>101.0</ele><time>2026-04-26T14:35:57Z</time></trkpt><trkpt lat="40.60328055848265" lon="15.031190858742233"><ele>101.0</ele><time>2026-04-26T14:35:58Z</time></trkpt><trkpt lat="40.603331162111296" lon="15.03157046740526"><ele>101.0</ele><time>2026-04-26T14:35:59Z</time></trkpt><trkpt lat="40.603388000187316" lon="15.031947880676913"><ele>99.5</ele><time>2026-04-26T14:36:00Z</time></trkpt><trkpt lat="40.60345418117041" lon="15.032324096967091"><ele>98.0</ele><time>2026-04-26T14:36:01Z</time></trkpt><trkpt lat="40.603528183414554" lon="15.03269753483491"><ele>95.0</ele><time>2026-04-26T14:36:02Z</time></trkpt><trkpt lat="40.603611142708054" lon="15.033067748974359"><ele>92.0</ele><time>2026-04-26T14:36:03Z</time></trkpt><trkpt lat="40.603703842499364" lon="15.033433691122521"><ele>94.0</ele><time>2026-04-26T14:36:04Z</time></trkpt><trkpt lat="40.603806122980025" lon="15.033795595393777"><ele>96.0</ele><time>2026-04-26T14:36:05Z</time></trkpt><trkpt lat="40.603915077743665" lon="15.034152174452075"><ele>96.0</ele><time>2026-04-26T14:36:06Z</time></trkpt><trkpt lat="40.60403368343619" lon="15.034502748176775"><ele>96.0</ele><time>2026-04-26T14:36:07Z</time></trkpt><trkpt lat="40.60415820708396" lon="15.03485049457382"><ele>92.0</ele><time>2026-04-26T14:36:08Z</time></trkpt><trkpt lat="40.60428475112156" lon="15.035194286158093"><ele>88.0</ele><time>2026-04-26T14:36:09Z</time></trkpt><trkpt lat="40.6044114559811" lon="15.035539058707734"><ele>96.5</ele><time>2026-04-26T14:36:10Z</time></trkpt><trkpt lat="40.604538554616944" lon="15.03588404153367"><ele>105.0</ele><time>2026-04-26T14:36:11Z</time></trkpt><trkpt lat="40.604665398849306" lon="15.036225009949485"><ele>105.0</ele><time>2026-04-26T14:36:12Z</time></trkpt><trkpt lat="40.60479286444496" lon="15.036569512197982"><ele>105.0</ele><time>2026-04-26T14:36:13Z</time></trkpt><trkpt lat="40.60491809309652" lon="15.036917381017952"><ele>100.0</ele><time>2026-04-26T14:36:14Z</time></trkpt><trkpt lat="40.60504422996186" lon="15.03726497386908"><ele>95.0</ele><time>2026-04-26T14:36:15Z</time></trkpt><trkpt lat="40.605170738623" lon="15.037611293411617"><ele>91.5</ele><time>2026-04-26T14:36:16Z</time></trkpt><trkpt lat="40.60529790616589" lon="15.03795600197602"><ele>88.0</ele><time>2026-04-26T14:36:17Z</time></trkpt><trkpt lat="40.60542794926313" lon="15.038300185452776"><ele>97.5</ele><time>2026-04-26T14:36:18Z</time></trkpt><trkpt lat="40.60555847844657" lon="15.03864548852529"><ele>107.0</ele><time>2026-04-26T14:36:19Z</time></trkpt><trkpt lat="40.60568654901977" lon="15.038993357436421"><ele>103.5</ele><time>2026-04-26T14:36:20Z</time></trkpt><trkpt lat="40.60581535952537" lon="15.039339424807208"><ele>100.0</ele><time>2026-04-26T14:36:21Z</time></trkpt><trkpt lat="40.605944070786045" lon="15.039686375274481"><ele>94.5</ele><time>2026-04-26T14:36:22Z</time></trkpt><trkpt lat="40.60606943543821" lon="15.040034006600422"><ele>89.0</ele><time>2026-04-26T14:36:23Z</time></trkpt><trkpt lat="40.60618965994007" lon="15.040385769619972"><ele>98.5</ele><time>2026-04-26T14:36:24Z</time></trkpt><trkpt lat="40.60630589119667" lon="15.040741881610248"><ele>108.0</ele><time>2026-04-26T14:36:25Z</time></trkpt><trkpt lat="40.60641475022967" lon="15.041102354117927"><ele>108.0</ele><time>2026-04-26T14:36:26Z</time></trkpt><trkpt lat="40.60651296397353" lon="15.041465881735038"><ele>108.0</ele><time>2026-04-26T14:36:27Z</time></trkpt><trkpt lat="40.606597419689024" lon="15.041834116231007"><ele>102.0</ele><time>2026-04-26T14:36:28Z</time></trkpt><trkpt lat="40.6066704324006" lon="15.042207731510782"><ele>96.0</ele><time>2026-04-26T14:36:29Z</time></trkpt><trkpt lat="40.606736758389836" lon="15.042583955611562"><ele>90.5</ele><time>2026-04-26T14:36:30Z</time></trkpt><trkpt lat="40.606796113502256" lon="15.042961871387828"><ele>85.0</ele><time>2026-04-26T14:36:31Z</time></trkpt><trkpt lat="40.60685240665905" lon="15.043337072953983"><ele>83.5</ele><time>2026-04-26T14:36:32Z</time></trkpt><trkpt lat="40.60690657712976" lon="15.043714733864395"><ele>82.0</ele><time>2026-04-26T14:36:33Z</time></trkpt><trkpt lat="40.60696146021919" lon="15.044093605809868"><ele>84.0</ele><time>2026-04-26T14:36:34Z</time></trkpt><trkpt lat="40.60701825985855" lon="15.04447242842441"><ele>86.0</ele><time>2026-04-26T14:36:35Z</time></trkpt><trkpt lat="40.60707480860766" lon="15.044849994764824"><ele>82.5</ele><time>2026-04-26T14:36:36Z</time></trkpt><trkpt lat="40.60713057339364" lon="15.04522869230802"><ele>79.0</ele><time>2026-04-26T14:36:37Z</time></trkpt><trkpt lat="40.6071862815781" lon="15.045605833627736"><ele>78.5</ele><time>2026-04-26T14:36:38Z</time></trkpt><trkpt lat="40.60724015040024" lon="15.045983754934019"><ele>78.0</ele><time>2026-04-26T14:36:39Z</time></trkpt><trkpt lat="40.60729429670304" lon="15.046361958783805"><ele>77.5</ele><time>2026-04-26T14:36:40Z</time></trkpt><trkpt lat="40.60734772191764" lon="15.046741344035441"><ele>77.0</ele><time>2026-04-26T14:36:41Z</time></trkpt><trkpt lat="40.60740039870899" lon="15.047120945003114"><ele>77.0</ele><time>2026-04-26T14:36:42Z</time></trkpt><trkpt lat="40.60745310090241" lon="15.047498098310024"><ele>77.0</ele><time>2026-04-26T14:36:43Z</time></trkpt><trkpt lat="40.60750392809027" lon="15.04787623768589"><ele>77.0</ele><time>2026-04-26T14:36:44Z</time></trkpt><trkpt lat="40.60755182435632" lon="15.048254002681828"><ele>77.0</ele><time>2026-04-26T14:36:45Z</time></trkpt><trkpt lat="40.60759526150934" lon="15.048633167818394"><ele>77.0</ele><time>2026-04-26T14:36:46Z</time></trkpt><trkpt lat="40.60762939993406" lon="15.049012283725345"><ele>77.0</ele><time>2026-04-26T14:36:47Z</time></trkpt><trkpt lat="40.607654723328025" lon="15.049394388726341"><ele>77.5</ele><time>2026-04-26T14:36:48Z</time></trkpt><trkpt lat="40.60767339292001" lon="15.049775844878706"><ele>78.0</ele><time>2026-04-26T14:36:49Z</time></trkpt><trkpt lat="40.60768721425116" lon="15.050157850613882"><ele>77.0</ele><time>2026-04-26T14:36:50Z</time></trkpt><trkpt lat="40.6076979623302" lon="15.05054085418556"><ele>76.0</ele><time>2026-04-26T14:36:51Z</time></trkpt><trkpt lat="40.6077055669743" lon="15.050923219992297"><ele>75.5</ele><time>2026-04-26T14:36:52Z</time></trkpt><trkpt lat="40.607709836062526" lon="15.051302954315688"><ele>75.0</ele><time>2026-04-26T14:36:53Z</time></trkpt><trkpt lat="40.60771212331718" lon="15.051684558412445"><ele>77.0</ele><time>2026-04-26T14:36:54Z</time></trkpt><trkpt lat="40.60771183577329" lon="15.052069927287276"><ele>79.0</ele><time>2026-04-26T14:36:55Z</time></trkpt><trkpt lat="40.6077131210205" lon="15.052454620386838"><ele>79.0</ele><time>2026-04-26T14:36:56Z</time></trkpt><trkpt lat="40.6077134295519" lon="15.052840943665057"><ele>79.0</ele><time>2026-04-26T14:36:57Z</time></trkpt><trkpt lat="40.60771326714873" lon="15.053226170815345"><ele>79.5</ele><time>2026-04-26T14:36:58Z</time></trkpt><trkpt lat="40.60771238730639" lon="15.0536112697807"><ele>80.0</ele><time>2026-04-26T14:36:59Z</time></trkpt><trkpt lat="40.607711475826584" lon="15.05399619885673"><ele>80.0</ele><time>2026-04-26T14:37:00Z</time></trkpt><trkpt lat="40.60771068034692" lon="15.0543815827738"><ele>80.0</ele><time>2026-04-26T14:37:01Z</time></trkpt><trkpt lat="40.607708671294475" lon="15.054766585570889"><ele>81.0</ele><time>2026-04-26T14:37:02Z</time></trkpt><trkpt lat="40.60770783086058" lon="15.055149926628888"><ele>82.0</ele><time>2026-04-26T14:37:03Z</time></trkpt><trkpt lat="40.60770911039069" lon="15.055532881988931"><ele>81.5</ele><time>2026-04-26T14:37:04Z</time></trkpt><trkpt lat="40.60771220821223" lon="15.055916203152528"><ele>81.0</ele><time>2026-04-26T14:37:05Z</time></trkpt><trkpt lat="40.607715058527454" lon="15.056300547392393"><ele>79.5</ele><time>2026-04-26T14:37:06Z</time></trkpt><trkpt lat="40.60771466613576" lon="15.056686003385305"><ele>78.0</ele><time>2026-04-26T14:37:07Z</time></trkpt><trkpt lat="40.60771279610869" lon="15.057070228045507"><ele>77.5</ele><time>2026-04-26T14:37:08Z</time></trkpt><trkpt lat="40.607710627744574" lon="15.057455195623787"><ele>77.0</ele><time>2026-04-26T14:37:09Z</time></trkpt><trkpt lat="40.60770670863184" lon="15.057839523712147"><ele>77.0</ele><time>2026-04-26T14:37:10Z</time></trkpt><trkpt lat="40.607704117763724" lon="15.058223703748737"><ele>77.0</ele><time>2026-04-26T14:37:11Z</time></trkpt><trkpt lat="40.60770201827447" lon="15.058608166072322"><ele>77.0</ele><time>2026-04-26T14:37:12Z</time></trkpt><trkpt lat="40.607701161927544" lon="15.058992627556439"><ele>77.0</ele><time>2026-04-26T14:37:13Z</time></trkpt><trkpt lat="40.607701097695454" lon="15.0593780830116"><ele>77.0</ele><time>2026-04-26T14:37:14Z</time></trkpt><trkpt lat="40.60770132843049" lon="15.059762916260782"><ele>77.0</ele><time>2026-04-26T14:37:15Z</time></trkpt><trkpt lat="40.60770141747881" lon="15.060149375280192"><ele>77.0</ele><time>2026-04-26T14:37:16Z</time></trkpt><trkpt lat="40.607699690982685" lon="15.060533414359801"><ele>77.0</ele><time>2026-04-26T14:37:17Z</time></trkpt><trkpt lat="40.60769709871133" lon="15.060918021006042"><ele>77.0</ele><time>2026-04-26T14:37:18Z</time></trkpt><trkpt lat="40.60769285609703" lon="15.06130264611194"><ele>77.0</ele><time>2026-04-26T14:37:19Z</time></trkpt><trkpt lat="40.60769328405645" lon="15.061686377698688"><ele>77.0</ele><time>2026-04-26T14:37:20Z</time></trkpt><trkpt lat="40.607694725569104" lon="15.062069368183318"><ele>77.0</ele><time>2026-04-26T14:37:21Z</time></trkpt><trkpt lat="40.60769602151423" lon="15.06245273816105"><ele>76.0</ele><time>2026-04-26T14:37:22Z</time></trkpt><trkpt lat="40.607695140771945" lon="15.062836340733677"><ele>75.0</ele><time>2026-04-26T14:37:23Z</time></trkpt><trkpt lat="40.6076933085416" lon="15.06322015868952"><ele>74.5</ele><time>2026-04-26T14:37:24Z</time></trkpt><trkpt lat="40.607691736344826" lon="15.063605418634497"><ele>74.0</ele><time>2026-04-26T14:37:25Z</time></trkpt><trkpt lat="40.60769035835696" lon="15.063990900719123"><ele>72.5</ele><time>2026-04-26T14:37:26Z</time></trkpt><trkpt lat="40.607688787021125" lon="15.064375972843186"><ele>71.0</ele><time>2026-04-26T14:37:27Z</time></trkpt><trkpt lat="40.607688916468305" lon="15.064758635379162"><ele>71.0</ele><time>2026-04-26T14:37:28Z</time></trkpt><trkpt lat="40.607689391628625" lon="15.0651416521798"><ele>71.0</ele><time>2026-04-26T14:37:29Z</time></trkpt><trkpt lat="40.607690389107944" lon="15.065525992758737"><ele>70.5</ele><time>2026-04-26T14:37:30Z</time></trkpt><trkpt lat="40.60769110019201" lon="15.065911505055267"><ele>70.0</ele><time>2026-04-26T14:37:31Z</time></trkpt><trkpt lat="40.60769111870418" lon="15.066293965188095"><ele>69.5</ele><time>2026-04-26T14:37:32Z</time></trkpt><trkpt lat="40.607691648566295" lon="15.066678539624798"><ele>69.0</ele><time>2026-04-26T14:37:33Z</time></trkpt><trkpt lat="40.607693037840654" lon="15.067063248654257"><ele>69.0</ele><time>2026-04-26T14:37:34Z</time></trkpt><trkpt lat="40.60769638814158" lon="15.067447164615382"><ele>69.0</ele><time>2026-04-26T14:37:35Z</time></trkpt><trkpt lat="40.60770356865636" lon="15.067831502824658"><ele>69.0</ele><time>2026-04-26T14:37:36Z</time></trkpt><trkpt lat="40.60771505471002" lon="15.068215298879272"><ele>69.0</ele><time>2026-04-26T14:37:37Z</time></trkpt><trkpt lat="40.60773193878616" lon="15.068598726038879"><ele>69.0</ele><time>2026-04-26T14:37:38Z</time></trkpt><trkpt lat="40.607754046623405" lon="15.068981606530768"><ele>69.0</ele><time>2026-04-26T14:37:39Z</time></trkpt><trkpt lat="40.60778098967316" lon="15.069362442821342"><ele>69.0</ele><time>2026-04-26T14:37:40Z</time></trkpt><trkpt lat="40.60781241107879" lon="15.069743068550352"><ele>69.0</ele><time>2026-04-26T14:37:41Z</time></trkpt><trkpt lat="40.60784684905806" lon="15.070124006109983"><ele>70.0</ele><time>2026-04-26T14:37:42Z</time></trkpt><trkpt lat="40.607884944614376" lon="15.070504881018614"><ele>71.0</ele><time>2026-04-26T14:37:43Z</time></trkpt><trkpt lat="40.607927311808425" lon="15.070883731731898"><ele>72.0</ele><time>2026-04-26T14:37:44Z</time></trkpt><trkpt lat="40.60797522709756" lon="15.071262955265595"><ele>73.0</ele><time>2026-04-26T14:37:45Z</time></trkpt><trkpt lat="40.608029050172995" lon="15.071641581084377"><ele>74.5</ele><time>2026-04-26T14:37:46Z</time></trkpt><trkpt lat="40.60808773888055" lon="15.072017980659428"><ele>76.0</ele><time>2026-04-26T14:37:47Z</time></trkpt><trkpt lat="40.60815031648042" lon="15.072393495380142"><ele>76.0</ele><time>2026-04-26T14:37:48Z</time></trkpt><trkpt lat="40.60821718457744" lon="15.072767287033328"><ele>76.0</ele><time>2026-04-26T14:37:49Z</time></trkpt><trkpt lat="40.60828756754172" lon="15.073144223409153"><ele>75.5</ele><time>2026-04-26T14:37:50Z</time></trkpt><trkpt lat="40.60835597001054" lon="15.07351728216061"><ele>75.0</ele><time>2026-04-26T14:37:51Z</time></trkpt><trkpt lat="40.60842618022927" lon="15.073890818505339"><ele>77.0</ele><time>2026-04-26T14:37:52Z</time></trkpt><trkpt lat="40.60849738331157" lon="15.074263523290192"><ele>79.0</ele><time>2026-04-26T14:37:53Z</time></trkpt><trkpt lat="40.608568753898155" lon="15.07463526956482"><ele>79.5</ele><time>2026-04-26T14:37:54Z</time></trkpt><trkpt lat="40.60863876934185" lon="15.075006790388523"><ele>80.0</ele><time>2026-04-26T14:37:55Z</time></trkpt><trkpt lat="40.60871054627514" lon="15.07537996756292"><ele>80.0</ele><time>2026-04-26T14:37:56Z</time></trkpt><trkpt lat="40.608783657364235" lon="15.075751722498863"><ele>80.0</ele><time>2026-04-26T14:37:57Z</time></trkpt><trkpt lat="40.608856786700684" lon="15.076121999595713"><ele>80.5</ele><time>2026-04-26T14:37:58Z</time></trkpt><trkpt lat="40.60893287778504" lon="15.07649056380639"><ele>81.0</ele><time>2026-04-26T14:37:59Z</time></trkpt><trkpt lat="40.6090067271648" lon="15.076860566335558"><ele>81.0</ele><time>2026-04-26T14:38:00Z</time></trkpt><trkpt lat="40.60907712535561" lon="15.077231318229924"><ele>81.0</ele><time>2026-04-26T14:38:01Z</time></trkpt><trkpt lat="40.60914650815627" lon="15.077603105182519"><ele>81.5</ele><time>2026-04-26T14:38:02Z</time></trkpt><trkpt lat="40.60921429137328" lon="15.077975984847964"><ele>82.0</ele><time>2026-04-26T14:38:03Z</time></trkpt><trkpt lat="40.6092791664583" lon="15.078350935322788"><ele>84.0</ele><time>2026-04-26T14:38:04Z</time></trkpt><trkpt lat="40.60934048292657" lon="15.078727029101406"><ele>86.0</ele><time>2026-04-26T14:38:05Z</time></trkpt><trkpt lat="40.60939766103731" lon="15.07910401067476"><ele>86.5</ele><time>2026-04-26T14:38:06Z</time></trkpt><trkpt lat="40.60945011646148" lon="15.079481799817161"><ele>87.0</ele><time>2026-04-26T14:38:07Z</time></trkpt><trkpt lat="40.60949441316101" lon="15.07985919581258"><ele>88.0</ele><time>2026-04-26T14:38:08Z</time></trkpt><trkpt lat="40.60953421029036" lon="15.080240087908217"><ele>89.0</ele><time>2026-04-26T14:38:09Z</time></trkpt><trkpt lat="40.60956944955415" lon="15.080620215182808"><ele>89.5</ele><time>2026-04-26T14:38:10Z</time></trkpt><trkpt lat="40.60959979900198" lon="15.081000578782167"><ele>90.0</ele><time>2026-04-26T14:38:11Z</time></trkpt><trkpt lat="40.60962194753741" lon="15.081382883727109"><ele>90.5</ele><time>2026-04-26T14:38:12Z</time></trkpt><trkpt lat="40.60963761402656" lon="15.081765184502865"><ele>91.0</ele><time>2026-04-26T14:38:13Z</time></trkpt><trkpt lat="40.609646903904476" lon="15.082151370867052"><ele>91.0</ele><time>2026-04-26T14:38:14Z</time></trkpt><trkpt lat="40.609652000324054" lon="15.0825364069422"><ele>91.0</ele><time>2026-04-26T14:38:15Z</time></trkpt><trkpt lat="40.609652265389336" lon="15.082921922966968"><ele>90.5</ele><time>2026-04-26T14:38:16Z</time></trkpt><trkpt lat="40.609648536246205" lon="15.083306301716155"><ele>90.0</ele><time>2026-04-26T14:38:17Z</time></trkpt><trkpt lat="40.60964137984111" lon="15.083690792709463"><ele>90.0</ele><time>2026-04-26T14:38:18Z</time></trkpt><trkpt lat="40.6096305375503" lon="15.084075551167233"><ele>90.0</ele><time>2026-04-26T14:38:19Z</time></trkpt><trkpt lat="40.60961630430476" lon="15.084459552168381"><ele>90.0</ele><time>2026-04-26T14:38:20Z</time></trkpt><trkpt lat="40.609598808635894" lon="15.084841995151704"><ele>90.0</ele><time>2026-04-26T14:38:21Z</time></trkpt><trkpt lat="40.60957735662131" lon="15.085223631662677"><ele>88.5</ele><time>2026-04-26T14:38:22Z</time></trkpt><trkpt lat="40.60955486066254" lon="15.085605023644472"><ele>87.0</ele><time>2026-04-26T14:38:23Z</time></trkpt><trkpt lat="40.609530917300745" lon="15.085987298312508"><ele>87.0</ele><time>2026-04-26T14:38:24Z</time></trkpt><trkpt lat="40.60951029826239" lon="15.086369504418393"><ele>87.0</ele><time>2026-04-26T14:38:25Z</time></trkpt><trkpt lat="40.609489230206876" lon="15.086751579268578"><ele>87.0</ele><time>2026-04-26T14:38:26Z</time></trkpt><trkpt lat="40.609467786386325" lon="15.087133741734428"><ele>87.0</ele><time>2026-04-26T14:38:27Z</time></trkpt><trkpt lat="40.6094436249968" lon="15.087515843351444"><ele>88.5</ele><time>2026-04-26T14:38:28Z</time></trkpt><trkpt lat="40.609419648148865" lon="15.087897664486006"><ele>90.0</ele><time>2026-04-26T14:38:29Z</time></trkpt><trkpt lat="40.60939130992132" lon="15.08827913149255"><ele>90.5</ele><time>2026-04-26T14:38:30Z</time></trkpt><trkpt lat="40.60935887215477" lon="15.088659305469234"><ele>91.0</ele><time>2026-04-26T14:38:31Z</time></trkpt><trkpt lat="40.609319752486456" lon="15.089037638032861"><ele>92.5</ele><time>2026-04-26T14:38:32Z</time></trkpt><trkpt lat="40.60927154120946" lon="15.08941405004941"><ele>94.0</ele><time>2026-04-26T14:38:33Z</time></trkpt><trkpt lat="40.60921359934392" lon="15.089788926608007"><ele>95.0</ele><time>2026-04-26T14:38:34Z</time></trkpt><trkpt lat="40.609151735401504" lon="15.090162632610443"><ele>96.0</ele><time>2026-04-26T14:38:35Z</time></trkpt><trkpt lat="40.609080138916696" lon="15.090536570961069"><ele>96.0</ele><time>2026-04-26T14:38:36Z</time></trkpt><trkpt lat="40.60899867745291" lon="15.090908157492223"><ele>96.0</ele><time>2026-04-26T14:38:37Z</time></trkpt><trkpt lat="40.60890355139708" lon="15.091271429840727"><ele>97.0</ele><time>2026-04-26T14:38:38Z</time></trkpt><trkpt lat="40.60880121347006" lon="15.091630011025323"><ele>98.0</ele><time>2026-04-26T14:38:39Z</time></trkpt><trkpt lat="40.608689589576954" lon="15.091983938578847"><ele>97.0</ele><time>2026-04-26T14:38:40Z</time></trkpt><trkpt lat="40.608574002018855" lon="15.092337671453384"><ele>96.0</ele><time>2026-04-26T14:38:41Z</time></trkpt><trkpt lat="40.60845928397225" lon="15.092689986892276"><ele>95.5</ele><time>2026-04-26T14:38:42Z</time></trkpt><trkpt lat="40.60833635986244" lon="15.093038749165247"><ele>95.0</ele><time>2026-04-26T14:38:43Z</time></trkpt><trkpt lat="40.60821656174511" lon="15.093389179123594"><ele>95.0</ele><time>2026-04-26T14:38:44Z</time></trkpt><trkpt lat="40.608097363493684" lon="15.093740267131563"><ele>95.0</ele><time>2026-04-26T14:38:45Z</time></trkpt><trkpt lat="40.607979226328126" lon="15.094091989306769"><ele>95.0</ele><time>2026-04-26T14:38:46Z</time></trkpt><trkpt lat="40.60786045894719" lon="15.094443996683692"><ele>95.0</ele><time>2026-04-26T14:38:47Z</time></trkpt><trkpt lat="40.60774276737788" lon="15.094795313201443"><ele>95.5</ele><time>2026-04-26T14:38:48Z</time></trkpt><trkpt lat="40.607628592959486" lon="15.095150138040097"><ele>96.0</ele><time>2026-04-26T14:38:49Z</time></trkpt><trkpt lat="40.607514643164194" lon="15.09550552836444"><ele>96.0</ele><time>2026-04-26T14:38:50Z</time></trkpt><trkpt lat="40.60740584210029" lon="15.095862763341767"><ele>96.0</ele><time>2026-04-26T14:38:51Z</time></trkpt><trkpt lat="40.60729991518763" lon="15.096221685789715"><ele>96.0</ele><time>2026-04-26T14:38:52Z</time></trkpt><trkpt lat="40.60720181662571" lon="15.096584017731491"><ele>96.0</ele><time>2026-04-26T14:38:53Z</time></trkpt><trkpt lat="40.607108714842276" lon="15.096948072834634"><ele>96.0</ele><time>2026-04-26T14:38:54Z</time></trkpt><trkpt lat="40.60701861327539" lon="15.097313867561924"><ele>96.0</ele><time>2026-04-26T14:38:55Z</time></trkpt><trkpt lat="40.60693168181133" lon="15.097680726954557"><ele>96.0</ele><time>2026-04-26T14:38:56Z</time></trkpt><trkpt lat="40.60685127221343" lon="15.098050708928952"><ele>96.0</ele><time>2026-04-26T14:38:57Z</time></trkpt><trkpt lat="40.60677506366179" lon="15.098421330098116"><ele>96.0</ele><time>2026-04-26T14:38:58Z</time></trkpt><trkpt lat="40.60669930542686" lon="15.098794527289824"><ele>96.0</ele><time>2026-04-26T14:38:59Z</time></trkpt><trkpt lat="40.606623545642115" lon="15.099166242559818"><ele>96.0</ele><time>2026-04-26T14:39:00Z</time></trkpt><trkpt lat="40.6065471729361" lon="15.099537002147187"><ele>96.0</ele><time>2026-04-26T14:39:01Z</time></trkpt><trkpt lat="40.60647466192436" lon="15.099908537472064"><ele>95.5</ele><time>2026-04-26T14:39:02Z</time></trkpt><trkpt lat="40.60640771890763" lon="15.100282024334227"><ele>95.0</ele><time>2026-04-26T14:39:03Z</time></trkpt><trkpt lat="40.606340948920185" lon="15.100656378668495"><ele>95.5</ele><time>2026-04-26T14:39:04Z</time></trkpt><trkpt lat="40.60627564423945" lon="15.101027898496797"><ele>96.0</ele><time>2026-04-26T14:39:05Z</time></trkpt><trkpt lat="40.606212975618234" lon="15.101402395352913"><ele>95.0</ele><time>2026-04-26T14:39:06Z</time></trkpt><trkpt lat="40.60615549975035" lon="15.101778161884317"><ele>94.0</ele><time>2026-04-26T14:39:07Z</time></trkpt><trkpt lat="40.60610289104909" lon="15.102155995777593"><ele>95.0</ele><time>2026-04-26T14:39:08Z</time></trkpt><trkpt lat="40.606060429723605" lon="15.102534140822627"><ele>96.0</ele><time>2026-04-26T14:39:09Z</time></trkpt><trkpt lat="40.606028565144975" lon="15.102913650300435"><ele>97.0</ele><time>2026-04-26T14:39:10Z</time></trkpt><trkpt lat="40.60600387050155" lon="15.10329581753835"><ele>98.0</ele><time>2026-04-26T14:39:11Z</time></trkpt><trkpt lat="40.605990448639766" lon="15.10368067948499"><ele>98.0</ele><time>2026-04-26T14:39:12Z</time></trkpt><trkpt lat="40.60598381267136" lon="15.104063587669621"><ele>98.0</ele><time>2026-04-26T14:39:13Z</time></trkpt><trkpt lat="40.60598394135494" lon="15.104447151242601"><ele>98.5</ele><time>2026-04-26T14:39:14Z</time></trkpt><trkpt lat="40.60599086132422" lon="15.104829980953978"><ele>99.0</ele><time>2026-04-26T14:39:15Z</time></trkpt><trkpt lat="40.60600528048675" lon="15.105212468731565"><ele>99.0</ele><time>2026-04-26T14:39:16Z</time></trkpt><trkpt lat="40.60602217990321" lon="15.10559612070492"><ele>99.0</ele><time>2026-04-26T14:39:17Z</time></trkpt><trkpt lat="40.60604240300231" lon="15.10598021942351"><ele>99.0</ele><time>2026-04-26T14:39:18Z</time></trkpt><trkpt lat="40.606061068660374" lon="15.10636403445661"><ele>99.0</ele><time>2026-04-26T14:39:19Z</time></trkpt><trkpt lat="40.60607940233648" lon="15.106747130721498"><ele>96.5</ele><time>2026-04-26T14:39:20Z</time></trkpt><trkpt lat="40.60609772758647" lon="15.107130194996564"><ele>94.0</ele><time>2026-04-26T14:39:21Z</time></trkpt><trkpt lat="40.606117662559605" lon="15.107512943549956"><ele>94.0</ele><time>2026-04-26T14:39:22Z</time></trkpt><trkpt lat="40.606140375407975" lon="15.107895121453511"><ele>94.0</ele><time>2026-04-26T14:39:23Z</time></trkpt><trkpt lat="40.60616489950097" lon="15.10827798493534"><ele>97.0</ele><time>2026-04-26T14:39:24Z</time></trkpt><trkpt lat="40.6061896853853" lon="15.108659513947194"><ele>100.0</ele><time>2026-04-26T14:39:25Z</time></trkpt><trkpt lat="40.606212254575254" lon="15.109042265994443"><ele>102.0</ele><time>2026-04-26T14:39:26Z</time></trkpt><trkpt lat="40.60623108762112" lon="15.10942516737661"><ele>104.0</ele><time>2026-04-26T14:39:27Z</time></trkpt><trkpt lat="40.60625006006682" lon="15.109809250315474"><ele>104.5</ele><time>2026-04-26T14:39:28Z</time></trkpt><trkpt lat="40.60627040648701" lon="15.110192940112208"><ele>105.0</ele><time>2026-04-26T14:39:29Z</time></trkpt><trkpt lat="40.60629307921818" lon="15.110575935591044"><ele>104.5</ele><time>2026-04-26T14:39:30Z</time></trkpt><trkpt lat="40.60631730487771" lon="15.110957846958021"><ele>104.0</ele><time>2026-04-26T14:39:31Z</time></trkpt><trkpt lat="40.606341133641294" lon="15.111340353289222"><ele>104.5</ele><time>2026-04-26T14:39:32Z</time></trkpt><trkpt lat="40.60636404888282" lon="15.111721854613672"><ele>105.0</ele><time>2026-04-26T14:39:33Z</time></trkpt><trkpt lat="40.60638887506309" lon="15.112105075224123"><ele>106.0</ele><time>2026-04-26T14:39:34Z</time></trkpt><trkpt lat="40.606411864447004" lon="15.112487952270675"><ele>107.0</ele><time>2026-04-26T14:39:35Z</time></trkpt><trkpt lat="40.60643234148972" lon="15.112871663500991"><ele>107.0</ele><time>2026-04-26T14:39:36Z</time></trkpt><trkpt lat="40.60645336391834" lon="15.113255962760528"><ele>107.0</ele><time>2026-04-26T14:39:37Z</time></trkpt><trkpt lat="40.60647566521469" lon="15.11363924738982"><ele>107.0</ele><time>2026-04-26T14:39:38Z</time></trkpt><trkpt lat="40.606500242273995" lon="15.114022779553173"><ele>107.0</ele><time>2026-04-26T14:39:39Z</time></trkpt><trkpt lat="40.606524170439315" lon="15.11440520639401"><ele>107.0</ele><time>2026-04-26T14:39:40Z</time></trkpt><trkpt lat="40.606545767312454" lon="15.114788817422326"><ele>107.0</ele><time>2026-04-26T14:39:41Z</time></trkpt><trkpt lat="40.60656677185367" lon="15.115172406421621"><ele>107.5</ele><time>2026-04-26T14:39:42Z</time></trkpt><trkpt lat="40.60658984567716" lon="15.115552537113995"><ele>108.0</ele><time>2026-04-26T14:39:43Z</time></trkpt><trkpt lat="40.60661617381407" lon="15.11593710029997"><ele>106.5</ele><time>2026-04-26T14:39:44Z</time></trkpt><trkpt lat="40.606643561050525" lon="15.116321195435374"><ele>105.0</ele><time>2026-04-26T14:39:45Z</time></trkpt><trkpt lat="40.60667210511317" lon="15.116701750075507"><ele>105.0</ele><time>2026-04-26T14:39:46Z</time></trkpt><trkpt lat="40.606703394741466" lon="15.117084522200251"><ele>105.0</ele><time>2026-04-26T14:39:47Z</time></trkpt><trkpt lat="40.60673653884508" lon="15.11746512222589"><ele>106.5</ele><time>2026-04-26T14:39:48Z</time></trkpt><trkpt lat="40.60676873155551" lon="15.117847317410988"><ele>108.0</ele><time>2026-04-26T14:39:49Z</time></trkpt><trkpt lat="40.606800484030416" lon="15.118230304411234"><ele>108.0</ele><time>2026-04-26T14:39:50Z</time></trkpt><trkpt lat="40.60683130088242" lon="15.118614062430693"><ele>108.0</ele><time>2026-04-26T14:39:51Z</time></trkpt><trkpt lat="40.606860889893454" lon="15.118997202956212"><ele>107.5</ele><time>2026-04-26T14:39:52Z</time></trkpt><trkpt lat="40.60689219668938" lon="15.11937835643672"><ele>107.0</ele><time>2026-04-26T14:39:53Z</time></trkpt><trkpt lat="40.606925170895096" lon="15.11976068856677"><ele>108.0</ele><time>2026-04-26T14:39:54Z</time></trkpt><trkpt lat="40.60695850446257" lon="15.120142464079228"><ele>109.0</ele><time>2026-04-26T14:39:55Z</time></trkpt><trkpt lat="40.60698916065072" lon="15.120526226631213"><ele>107.5</ele><time>2026-04-26T14:39:56Z</time></trkpt><trkpt lat="40.60702038772684" lon="15.1209082529131"><ele>106.0</ele><time>2026-04-26T14:39:57Z</time></trkpt><trkpt lat="40.60705207176913" lon="15.12129099662291"><ele>104.5</ele><time>2026-04-26T14:39:58Z</time></trkpt><trkpt lat="40.60708507933997" lon="15.121672276124762"><ele>103.0</ele><time>2026-04-26T14:39:59Z</time></trkpt><trkpt lat="40.60712019865634" lon="15.122054649206223"><ele>96.0</ele><time>2026-04-26T14:40:00Z</time></trkpt><trkpt lat="40.607154306512456" lon="15.122436220057006"><ele>89.0</ele><time>2026-04-26T14:40:01Z</time></trkpt><trkpt lat="40.607187018906146" lon="15.122815389220758"><ele>89.0</ele><time>2026-04-26T14:40:02Z</time></trkpt><trkpt lat="40.60721968550761" lon="15.123197417357979"><ele>89.0</ele><time>2026-04-26T14:40:03Z</time></trkpt><trkpt lat="40.60725411223858" lon="15.123580305004278"><ele>88.5</ele><time>2026-04-26T14:40:04Z</time></trkpt><trkpt lat="40.607290936515085" lon="15.123964041139471"><ele>88.0</ele><time>2026-04-26T14:40:05Z</time></trkpt><trkpt lat="40.60732732525176" lon="15.12434520373422"><ele>93.5</ele><time>2026-04-26T14:40:06Z</time></trkpt><trkpt lat="40.60736073084274" lon="15.124726551290186"><ele>99.0</ele><time>2026-04-26T14:40:07Z</time></trkpt><trkpt lat="40.607394831237364" lon="15.125108474235498"><ele>99.5</ele><time>2026-04-26T14:40:08Z</time></trkpt><trkpt lat="40.60743107779639" lon="15.125489368446198"><ele>100.0</ele><time>2026-04-26T14:40:09Z</time></trkpt><trkpt lat="40.60747020915653" lon="15.125861936096639"><ele>100.0</ele><time>2026-04-26T14:40:10Z</time></trkpt><trkpt lat="40.60751325175894" lon="15.126225852853388"><ele>100.0</ele><time>2026-04-26T14:40:11Z</time></trkpt><trkpt lat="40.60755842881361" lon="15.126581305308024"><ele>100.0</ele><time>2026-04-26T14:40:12Z</time></trkpt><trkpt lat="40.60760687418339" lon="15.126929476441193"><ele>100.0</ele><time>2026-04-26T14:40:13Z</time></trkpt><trkpt lat="40.60766323481835" lon="15.127276370203374"><ele>99.5</ele><time>2026-04-26T14:40:14Z</time></trkpt><trkpt lat="40.60772842978397" lon="15.12761822090685"><ele>99.0</ele><time>2026-04-26T14:40:15Z</time></trkpt><trkpt lat="40.6077988869108" lon="15.12796057659974"><ele>89.0</ele><time>2026-04-26T14:40:16Z</time></trkpt><trkpt lat="40.60786920565421" lon="15.12830359589935"><ele>79.0</ele><time>2026-04-26T14:40:17Z</time></trkpt><trkpt lat="40.60794062237223" lon="15.128644806700752"><ele>79.0</ele><time>2026-04-26T14:40:18Z</time></trkpt><trkpt lat="40.60801802452333" lon="15.128987693873333"><ele>79.0</ele><time>2026-04-26T14:40:19Z</time></trkpt><trkpt lat="40.60810476005176" lon="15.129324836975854"><ele>68.5</ele><time>2026-04-26T14:40:20Z</time></trkpt><trkpt lat="40.60819299099091" lon="15.129651718323512"><ele>58.0</ele><time>2026-04-26T14:40:21Z</time></trkpt><trkpt lat="40.60828357734296" lon="15.129977943170134"><ele>57.0</ele><time>2026-04-26T14:40:22Z</time></trkpt><trkpt lat="40.60837875953475" lon="15.130302002396302"><ele>56.0</ele><time>2026-04-26T14:40:23Z</time></trkpt><trkpt lat="40.608481718941405" lon="15.130622887581586"><ele>62.0</ele><time>2026-04-26T14:40:24Z</time></trkpt><trkpt lat="40.60859075473963" lon="15.130941346403683"><ele>68.0</ele><time>2026-04-26T14:40:25Z</time></trkpt><trkpt lat="40.60870269252462" lon="15.131252518896757"><ele>79.0</ele><time>2026-04-26T14:40:26Z</time></trkpt><trkpt lat="40.6088192114871" lon="15.131558839685175"><ele>90.0</ele><time>2026-04-26T14:40:27Z</time></trkpt><trkpt lat="40.60893906188469" lon="15.13186189397132"><ele>90.0</ele><time>2026-04-26T14:40:28Z</time></trkpt><trkpt lat="40.609064295074546" lon="15.13216388517317"><ele>90.0</ele><time>2026-04-26T14:40:29Z</time></trkpt><trkpt lat="40.60919264112289" lon="15.132465708688693"><ele>95.5</ele><time>2026-04-26T14:40:30Z</time></trkpt><trkpt lat="40.609323008365955" lon="15.132767404226525"><ele>101.0</ele><time>2026-04-26T14:40:31Z</time></trkpt><trkpt lat="40.609455997290134" lon="15.133069267564762"><ele>101.0</ele><time>2026-04-26T14:40:32Z</time></trkpt><trkpt lat="40.60958726164995" lon="15.133372552035668"><ele>101.0</ele><time>2026-04-26T14:40:33Z</time></trkpt><trkpt lat="40.60971944224199" lon="15.133676869338464"><ele>101.0</ele><time>2026-04-26T14:40:34Z</time></trkpt><trkpt lat="40.60985247040355" lon="15.133981844076168"><ele>101.0</ele><time>2026-04-26T14:40:35Z</time></trkpt><trkpt lat="40.609957277289844" lon="15.13426478733579"><ele>94.5</ele><time>2026-04-26T14:40:36Z</time></trkpt><trkpt lat="40.610087551241435" lon="15.134561106798431"><ele>88.0</ele><time>2026-04-26T14:40:37Z</time></trkpt><trkpt lat="40.61021680472605" lon="15.134856347286005"><ele>85.5</ele><time>2026-04-26T14:40:38Z</time></trkpt><trkpt lat="40.61035140103957" lon="15.135153121852273"><ele>83.0</ele><time>2026-04-26T14:40:39Z</time></trkpt><trkpt lat="40.610481831030064" lon="15.135452956280519"><ele>78.0</ele><time>2026-04-26T14:40:40Z</time></trkpt><trkpt lat="40.610609712441025" lon="15.135748274110243"><ele>73.0</ele><time>2026-04-26T14:40:41Z</time></trkpt><trkpt lat="40.610739022626554" lon="15.136045737537486"><ele>73.0</ele><time>2026-04-26T14:40:42Z</time></trkpt><trkpt lat="40.610867337380895" lon="15.136344246632936"><ele>73.0</ele><time>2026-04-26T14:40:43Z</time></trkpt><trkpt lat="40.610997465845614" lon="15.136640377212382"><ele>71.0</ele><time>2026-04-26T14:40:44Z</time></trkpt><trkpt lat="40.611126357352504" lon="15.136937068612278"><ele>69.0</ele><time>2026-04-26T14:40:45Z</time></trkpt><trkpt lat="40.611256626069" lon="15.137233879811165"><ele>68.0</ele><time>2026-04-26T14:40:46Z</time></trkpt><trkpt lat="40.611386853679285" lon="15.137528838494465"><ele>67.0</ele><time>2026-04-26T14:40:47Z</time></trkpt><trkpt lat="40.61151764404099" lon="15.137822415608644"><ele>67.0</ele><time>2026-04-26T14:40:48Z</time></trkpt><trkpt lat="40.6116463758154" lon="15.138115871236607"><ele>67.0</ele><time>2026-04-26T14:40:49Z</time></trkpt><trkpt lat="40.61177354388282" lon="15.138413111664775"><ele>66.5</ele><time>2026-04-26T14:40:50Z</time></trkpt><trkpt lat="40.61189957915098" lon="15.138712392544722"><ele>66.0</ele><time>2026-04-26T14:40:51Z</time></trkpt><trkpt lat="40.61202605803854" lon="15.13901055377964"><ele>69.0</ele><time>2026-04-26T14:40:52Z</time></trkpt><trkpt lat="40.61215465676954" lon="15.139309138808219"><ele>72.0</ele><time>2026-04-26T14:40:53Z</time></trkpt><trkpt lat="40.612281671444784" lon="15.139608407884687"><ele>70.5</ele><time>2026-04-26T14:40:54Z</time></trkpt><trkpt lat="40.61240561698624" lon="15.139910178136319"><ele>69.0</ele><time>2026-04-26T14:40:55Z</time></trkpt><trkpt lat="40.61252251902814" lon="15.140216397123954"><ele>69.0</ele><time>2026-04-26T14:40:56Z</time></trkpt><trkpt lat="40.61263144599004" lon="15.140528085931239"><ele>69.0</ele><time>2026-04-26T14:40:57Z</time></trkpt><trkpt lat="40.61273425210423" lon="15.140844395924473"><ele>72.0</ele><time>2026-04-26T14:40:58Z</time></trkpt><trkpt lat="40.612829740956336" lon="15.141164842863033"><ele>75.0</ele><time>2026-04-26T14:40:59Z</time></trkpt><trkpt lat="40.61291265128991" lon="15.141488829839307"><ele>71.5</ele><time>2026-04-26T14:41:00Z</time></trkpt><trkpt lat="40.61299507896783" lon="15.141814102713113"><ele>68.0</ele><time>2026-04-26T14:41:01Z</time></trkpt><trkpt lat="40.61307093315694" lon="15.14214241463072"><ele>65.0</ele><time>2026-04-26T14:41:02Z</time></trkpt><trkpt lat="40.61313768710887" lon="15.14248410899371"><ele>62.0</ele><time>2026-04-26T14:41:03Z</time></trkpt><trkpt lat="40.613197367391294" lon="15.142836624991633"><ele>62.0</ele><time>2026-04-26T14:41:04Z</time></trkpt><trkpt lat="40.61325167774161" lon="15.143199063726763"><ele>62.0</ele><time>2026-04-26T14:41:05Z</time></trkpt><trkpt lat="40.613297890422764" lon="15.143570094177102"><ele>60.5</ele><time>2026-04-26T14:41:06Z</time></trkpt><trkpt lat="40.61333512388849" lon="15.143943958679811"><ele>59.0</ele><time>2026-04-26T14:41:07Z</time></trkpt><trkpt lat="40.6133620874576" lon="15.144320572038295"><ele>58.5</ele><time>2026-04-26T14:41:08Z</time></trkpt><trkpt lat="40.61338110218069" lon="15.144698006018434"><ele>58.0</ele><time>2026-04-26T14:41:09Z</time></trkpt><trkpt lat="40.613391465366654" lon="15.145076296238225"><ele>57.5</ele><time>2026-04-26T14:41:10Z</time></trkpt><trkpt lat="40.61339640056272" lon="15.14545347699797"><ele>57.0</ele><time>2026-04-26T14:41:11Z</time></trkpt><trkpt lat="40.613393313132235" lon="15.145832593973358"><ele>58.0</ele><time>2026-04-26T14:41:12Z</time></trkpt><trkpt lat="40.61338584495188" lon="15.14621072617409"><ele>59.0</ele><time>2026-04-26T14:41:13Z</time></trkpt><trkpt lat="40.6133751096479" lon="15.146587115008328"><ele>60.0</ele><time>2026-04-26T14:41:14Z</time></trkpt><trkpt lat="40.61336323679816" lon="15.146965482242384"><ele>61.0</ele><time>2026-04-26T14:41:15Z</time></trkpt><trkpt lat="40.61335135410971" lon="15.147343640172869"><ele>61.5</ele><time>2026-04-26T14:41:16Z</time></trkpt><trkpt lat="40.61334223220209" lon="15.147722023218366"><ele>62.0</ele><time>2026-04-26T14:41:17Z</time></trkpt><trkpt lat="40.61334007365195" lon="15.148101195653027"><ele>63.0</ele><time>2026-04-26T14:41:18Z</time></trkpt><trkpt lat="40.6133476330167" lon="15.148478772017016"><ele>64.0</ele><time>2026-04-26T14:41:19Z</time></trkpt><trkpt lat="40.613363131503945" lon="15.148855757460002"><ele>63.5</ele><time>2026-04-26T14:41:20Z</time></trkpt><trkpt lat="40.61338582223024" lon="15.149233629901245"><ele>63.0</ele><time>2026-04-26T14:41:21Z</time></trkpt><trkpt lat="40.61341855769022" lon="15.149609046581878"><ele>62.0</ele><time>2026-04-26T14:41:22Z</time></trkpt><trkpt lat="40.61346333360769" lon="15.14998126601536"><ele>61.0</ele><time>2026-04-26T14:41:23Z</time></trkpt><trkpt lat="40.613518442941235" lon="15.15035140454071"><ele>59.5</ele><time>2026-04-26T14:41:24Z</time></trkpt><trkpt lat="40.61358492574104" lon="15.150728952436376"><ele>58.0</ele><time>2026-04-26T14:41:25Z</time></trkpt><trkpt lat="40.61365836274207" lon="15.151108333270857"><ele>62.5</ele><time>2026-04-26T14:41:26Z</time></trkpt><trkpt lat="40.61373873148808" lon="15.151487588327003"><ele>67.0</ele><time>2026-04-26T14:41:27Z</time></trkpt><trkpt lat="40.613827931132036" lon="15.151865080614416"><ele>67.0</ele><time>2026-04-26T14:41:28Z</time></trkpt><trkpt lat="40.61392207282704" lon="15.15223842354827"><ele>67.0</ele><time>2026-04-26T14:41:29Z</time></trkpt><trkpt lat="40.6140165528695" lon="15.152608019237311"><ele>63.5</ele><time>2026-04-26T14:41:30Z</time></trkpt><trkpt lat="40.61410993288386" lon="15.152973658612071"><ele>60.0</ele><time>2026-04-26T14:41:31Z</time></trkpt><trkpt lat="40.614205188834305" lon="15.153337634494395"><ele>57.5</ele><time>2026-04-26T14:41:32Z</time></trkpt><trkpt lat="40.614300993475204" lon="15.15370152533852"><ele>55.0</ele><time>2026-04-26T14:41:33Z</time></trkpt><trkpt lat="40.61439759093234" lon="15.154068517769653"><ele>55.0</ele><time>2026-04-26T14:41:34Z</time></trkpt><trkpt lat="40.61449597325446" lon="15.154438065864039"><ele>55.0</ele><time>2026-04-26T14:41:35Z</time></trkpt><trkpt lat="40.61459565478158" lon="15.154807249335366"><ele>53.5</ele><time>2026-04-26T14:41:36Z</time></trkpt><trkpt lat="40.61469497237707" lon="15.155176244497955"><ele>52.0</ele><time>2026-04-26T14:41:37Z</time></trkpt><trkpt lat="40.61479380535587" lon="15.155545995293354"><ele>53.0</ele><time>2026-04-26T14:41:38Z</time></trkpt><trkpt lat="40.614889751356" lon="15.155917169728642"><ele>54.0</ele><time>2026-04-26T14:41:39Z</time></trkpt><trkpt lat="40.61498872994778" lon="15.156288201720512"><ele>53.0</ele><time>2026-04-26T14:41:40Z</time></trkpt><trkpt lat="40.61508697036419" lon="15.156658293357822"><ele>52.0</ele><time>2026-04-26T14:41:41Z</time></trkpt><trkpt lat="40.615185492849534" lon="15.15702934055524"><ele>51.5</ele><time>2026-04-26T14:41:42Z</time></trkpt><trkpt lat="40.6152841814116" lon="15.15739703094871"><ele>51.0</ele><time>2026-04-26T14:41:43Z</time></trkpt><trkpt lat="40.615384230257796" lon="15.157766996887997"><ele>50.5</ele><time>2026-04-26T14:41:44Z</time></trkpt><trkpt lat="40.615482083171656" lon="15.158139054070597"><ele>50.0</ele><time>2026-04-26T14:41:45Z</time></trkpt><trkpt lat="40.61557788098422" lon="15.158509326418176"><ele>50.0</ele><time>2026-04-26T14:41:46Z</time></trkpt><trkpt lat="40.61567550291672" lon="15.158879489543605"><ele>50.0</ele><time>2026-04-26T14:41:47Z</time></trkpt><trkpt lat="40.61577393415465" lon="15.159246641954459"><ele>50.5</ele><time>2026-04-26T14:41:48Z</time></trkpt><trkpt lat="40.61587299429848" lon="15.15961457082505"><ele>51.0</ele><time>2026-04-26T14:41:49Z</time></trkpt><trkpt lat="40.61597166703664" lon="15.159981887304644"><ele>51.5</ele><time>2026-04-26T14:41:50Z</time></trkpt><trkpt lat="40.61606979362169" lon="15.160348110463893"><ele>52.0</ele><time>2026-04-26T14:41:51Z</time></trkpt><trkpt lat="40.61616949150749" lon="15.160708035287865"><ele>52.5</ele><time>2026-04-26T14:41:52Z</time></trkpt><trkpt lat="40.6162666956949" lon="15.161064796150072"><ele>53.0</ele><time>2026-04-26T14:41:53Z</time></trkpt><trkpt lat="40.616362045700825" lon="15.161422716952682"><ele>52.5</ele><time>2026-04-26T14:41:54.001Z</time></trkpt><trkpt lat="40.6164574048198" lon="15.161779318454187"><ele>52.0</ele><time>2026-04-26T14:41:55.001Z</time></trkpt><trkpt lat="40.6165552018725" lon="15.16213592417466"><ele>52.5</ele><time>2026-04-26T14:41:56.001Z</time></trkpt><trkpt lat="40.61665511498618" lon="15.162488572415315"><ele>53.0</ele><time>2026-04-26T14:41:57.001Z</time></trkpt><trkpt lat="40.61675690396806" lon="15.162841905662164"><ele>53.0</ele><time>2026-04-26T14:41:58.001Z</time></trkpt><trkpt lat="40.616858036849464" lon="15.163196717847708"><ele>53.0</ele><time>2026-04-26T14:41:59.001Z</time></trkpt><trkpt lat="40.61695671954101" lon="15.16355046284737"><ele>53.0</ele><time>2026-04-26T14:42:00.001Z</time></trkpt><trkpt lat="40.61705508812007" lon="15.16390748404484"><ele>53.0</ele><time>2026-04-26T14:42:01.001Z</time></trkpt><trkpt lat="40.61715191836219" lon="15.164264820113608"><ele>52.0</ele><time>2026-04-26T14:42:02.001Z</time></trkpt><trkpt lat="40.61724867745702" lon="15.164621740932306"><ele>51.0</ele><time>2026-04-26T14:42:03.001Z</time></trkpt><trkpt lat="40.617345617551116" lon="15.164978476492745"><ele>51.0</ele><time>2026-04-26T14:42:04.001Z</time></trkpt><trkpt lat="40.61744237769269" lon="15.16533488603503"><ele>51.0</ele><time>2026-04-26T14:42:05.001Z</time></trkpt><trkpt lat="40.61753802979196" lon="15.165691326468822"><ele>50.5</ele><time>2026-04-26T14:42:06.001Z</time></trkpt><trkpt lat="40.61763320335168" lon="15.166048562787896"><ele>50.0</ele><time>2026-04-26T14:42:07.001Z</time></trkpt><trkpt lat="40.61772869757637" lon="15.166404413676366"><ele>51.0</ele><time>2026-04-26T14:42:08.001Z</time></trkpt><trkpt lat="40.61782496773128" lon="15.16676024543187"><ele>52.0</ele><time>2026-04-26T14:42:09.001Z</time></trkpt><trkpt lat="40.61792088945888" lon="15.167115966535011"><ele>51.5</ele><time>2026-04-26T14:42:10.001Z</time></trkpt><trkpt lat="40.61801786122488" lon="15.167472022893966"><ele>51.0</ele><time>2026-04-26T14:42:11.001Z</time></trkpt><trkpt lat="40.61811475413838" lon="15.16782627673397"><ele>51.0</ele><time>2026-04-26T14:42:12.001Z</time></trkpt><trkpt lat="40.61821089425459" lon="15.168182013902408"><ele>51.0</ele><time>2026-04-26T14:42:13.001Z</time></trkpt><trkpt lat="40.618308029634115" lon="15.168537841716041"><ele>51.0</ele><time>2026-04-26T14:42:14.001Z</time></trkpt><trkpt lat="40.61840842226602" lon="15.168892421111746"><ele>51.0</ele><time>2026-04-26T14:42:15.001Z</time></trkpt><trkpt lat="40.61851233350799" lon="15.169245130646791"><ele>52.0</ele><time>2026-04-26T14:42:16.001Z</time></trkpt><trkpt lat="40.61862017882508" lon="15.169595624900635"><ele>53.0</ele><time>2026-04-26T14:42:17.001Z</time></trkpt><trkpt lat="40.618729967901054" lon="15.169943765038942"><ele>55.0</ele><time>2026-04-26T14:42:18Z</time></trkpt><trkpt lat="40.61884276598569" lon="15.17029147779067"><ele>57.0</ele><time>2026-04-26T14:42:19Z</time></trkpt><trkpt lat="40.61895961949669" lon="15.17063653270086"><ele>57.5</ele><time>2026-04-26T14:42:20Z</time></trkpt><trkpt lat="40.61908147506512" lon="15.170978671622004"><ele>58.0</ele><time>2026-04-26T14:42:21Z</time></trkpt><trkpt lat="40.61920884127871" lon="15.17131702366467"><ele>60.0</ele><time>2026-04-26T14:42:22Z</time></trkpt><trkpt lat="40.61934161757383" lon="15.171651441772909"><ele>62.0</ele><time>2026-04-26T14:42:23Z</time></trkpt><trkpt lat="40.61947909047435" lon="15.171982113224484"><ele>68.5</ele><time>2026-04-26T14:42:24Z</time></trkpt><trkpt lat="40.61962045119871" lon="15.172310391854824"><ele>75.0</ele><time>2026-04-26T14:42:25Z</time></trkpt><trkpt lat="40.619764722153185" lon="15.172636439324524"><ele>78.0</ele><time>2026-04-26T14:42:26Z</time></trkpt><trkpt lat="40.61991122385398" lon="15.172960735758144"><ele>81.0</ele><time>2026-04-26T14:42:27Z</time></trkpt><trkpt lat="40.62006295715442" lon="15.173282900485207"><ele>82.5</ele><time>2026-04-26T14:42:28Z</time></trkpt><trkpt lat="40.620221820073596" lon="15.173600962877234"><ele>84.0</ele><time>2026-04-26T14:42:29Z</time></trkpt><trkpt lat="40.620386699790224" lon="15.173915553778615"><ele>94.5</ele><time>2026-04-26T14:42:30Z</time></trkpt><trkpt lat="40.620554331157514" lon="15.17422874374379"><ele>105.0</ele><time>2026-04-26T14:42:31Z</time></trkpt><trkpt lat="40.62072813736378" lon="15.17454069506924"><ele>105.0</ele><time>2026-04-26T14:42:32Z</time></trkpt><trkpt lat="40.620905617488965" lon="15.174852508990623"><ele>105.0</ele><time>2026-04-26T14:42:33Z</time></trkpt><trkpt lat="40.62108851642584" lon="15.175164460504227"><ele>113.5</ele><time>2026-04-26T14:42:34Z</time></trkpt><trkpt lat="40.621274029242244" lon="15.17547404674499"><ele>122.0</ele><time>2026-04-26T14:42:35Z</time></trkpt><trkpt lat="40.62143486343082" lon="15.175795400373744"><ele>127.5</ele><time>2026-04-26T14:42:36Z</time></trkpt><trkpt lat="40.62163632104814" lon="15.176065715408052"><ele>133.0</ele><time>2026-04-26T14:42:37Z</time></trkpt><trkpt lat="40.62183309262026" lon="15.176330423512606"><ele>133.5</ele><time>2026-04-26T14:42:38Z</time></trkpt><trkpt lat="40.62202927886983" lon="15.17661672553215"><ele>134.0</ele><time>2026-04-26T14:42:39Z</time></trkpt><trkpt lat="40.62221575437619" lon="15.17691447327005"><ele>134.0</ele><time>2026-04-26T14:42:40Z</time></trkpt><trkpt lat="40.62239503105619" lon="15.17720774924545"><ele>134.0</ele><time>2026-04-26T14:42:41Z</time></trkpt><trkpt lat="40.62256383402663" lon="15.177494877695853"><ele>125.0</ele><time>2026-04-26T14:42:42Z</time></trkpt><trkpt lat="40.62272780633233" lon="15.177777915669596"><ele>116.0</ele><time>2026-04-26T14:42:43Z</time></trkpt><trkpt lat="40.622885766160856" lon="15.178063935450727"><ele>108.5</ele><time>2026-04-26T14:42:44Z</time></trkpt><trkpt lat="40.62303250658286" lon="15.178344246662027"><ele>101.0</ele><time>2026-04-26T14:42:45Z</time></trkpt><trkpt lat="40.623177831138825" lon="15.178627689005442"><ele>101.0</ele><time>2026-04-26T14:42:46Z</time></trkpt><trkpt lat="40.62340882606109" lon="15.178855513760444"><ele>101.0</ele><time>2026-04-26T14:42:47Z</time></trkpt><trkpt lat="40.62358210702321" lon="15.179114941275905"><ele>96.66666666666666</ele><time>2026-04-26T14:42:48Z</time></trkpt><trkpt lat="40.62371670668019" lon="15.179316457096887"><ele>92.33333333333333</ele><time>2026-04-26T14:42:49Z</time></trkpt><trkpt lat="40.62386621398092" lon="15.179545337081313"><ele>88.0</ele><time>2026-04-26T14:42:50Z</time></trkpt><trkpt lat="40.624061552274284" lon="15.17984933942344"><ele>84.0</ele><time>2026-04-26T14:42:51Z</time></trkpt><trkpt lat="40.6242378254744" lon="15.180130122740664"><ele>80.0</ele><time>2026-04-26T14:42:52Z</time></trkpt><trkpt lat="40.624463162226085" lon="15.180501391813026"><ele>75.5</ele><time>2026-04-26T14:42:53Z</time></trkpt><trkpt lat="40.62469092058317" lon="15.180891811726656"><ele>71.0</ele><time>2026-04-26T14:42:54Z</time></trkpt><trkpt lat="40.6250075014612" lon="15.181476066811909"><ele>69.0</ele><time>2026-04-26T14:42:55Z</time></trkpt><trkpt lat="40.62517513708448" lon="15.181829841482255"><ele>67.0</ele><time>2026-04-26T14:42:56Z</time></trkpt><trkpt lat="40.62538806412823" lon="15.18217611045369"><ele>66.0</ele><time>2026-04-26T14:42:57Z</time></trkpt><trkpt lat="40.62554118278274" lon="15.182527289336493"><ele>65.0</ele><time>2026-04-26T14:42:58Z</time></trkpt><trkpt lat="40.62569874340184" lon="15.182877706884925"><ele>65.0</ele><time>2026-04-26T14:42:59Z</time></trkpt><trkpt lat="40.62588432277074" lon="15.183231386125447"><ele>65.0</ele><time>2026-04-26T14:43:00Z</time></trkpt><trkpt lat="40.62601688002131" lon="15.183586177503068"><ele>65.0</ele><time>2026-04-26T14:43:01Z</time></trkpt><trkpt lat="40.62613741020738" lon="15.183948981986724"><ele>65.0</ele><time>2026-04-26T14:43:02Z</time></trkpt><trkpt lat="40.62625298596995" lon="15.184315285873549"><ele>65.0</ele><time>2026-04-26T14:43:03Z</time></trkpt><trkpt lat="40.62635878070047" lon="15.184684344703285"><ele>65.0</ele><time>2026-04-26T14:43:04Z</time></trkpt><trkpt lat="40.626456821994836" lon="15.185057808126286"><ele>65.0</ele><time>2026-04-26T14:43:05Z</time></trkpt><trkpt lat="40.626549835718976" lon="15.185434729240377"><ele>65.0</ele><time>2026-04-26T14:43:06Z</time></trkpt><trkpt lat="40.626634660088264" lon="15.185812215848866"><ele>63.0</ele><time>2026-04-26T14:43:07Z</time></trkpt><trkpt lat="40.62671067474462" lon="15.18619269003311"><ele>61.0</ele><time>2026-04-26T14:43:08Z</time></trkpt><trkpt lat="40.62677700908735" lon="15.186577782610124"><ele>61.0</ele><time>2026-04-26T14:43:09Z</time></trkpt><trkpt lat="40.6268301211391" lon="15.186967122490344"><ele>61.0</ele><time>2026-04-26T14:43:10Z</time></trkpt><trkpt lat="40.626877686070415" lon="15.187356632070363"><ele>61.0</ele><time>2026-04-26T14:43:11Z</time></trkpt><trkpt lat="40.62692530495454" lon="15.187741770477338"><ele>61.0</ele><time>2026-04-26T14:43:12Z</time></trkpt><trkpt lat="40.6269696546922" lon="15.188130394177245"><ele>62.5</ele><time>2026-04-26T14:43:13Z</time></trkpt><trkpt lat="40.627011426138495" lon="15.188519206539633"><ele>64.0</ele><time>2026-04-26T14:43:14Z</time></trkpt><trkpt lat="40.62704188137685" lon="15.188911247267946"><ele>64.0</ele><time>2026-04-26T14:43:15Z</time></trkpt><trkpt lat="40.62705869729753" lon="15.189303960070097"><ele>64.0</ele><time>2026-04-26T14:43:16Z</time></trkpt><trkpt lat="40.62706379603441" lon="15.189697395774495"><ele>66.0</ele><time>2026-04-26T14:43:17Z</time></trkpt><trkpt lat="40.627048495667026" lon="15.190088742028948"><ele>68.0</ele><time>2026-04-26T14:43:18Z</time></trkpt><trkpt lat="40.62702150092726" lon="15.190477551091153"><ele>68.5</ele><time>2026-04-26T14:43:19Z</time></trkpt><trkpt lat="40.62698678237927" lon="15.190867262260664"><ele>69.0</ele><time>2026-04-26T14:43:20Z</time></trkpt><trkpt lat="40.62695020930252" lon="15.191260038412281"><ele>66.0</ele><time>2026-04-26T14:43:21Z</time></trkpt><trkpt lat="40.62691215529323" lon="15.191652973653547"><ele>63.0</ele><time>2026-04-26T14:43:22Z</time></trkpt><trkpt lat="40.62687255032069" lon="15.192043508999149"><ele>64.0</ele><time>2026-04-26T14:43:23Z</time></trkpt><trkpt lat="40.62683148114775" lon="15.19243483783941"><ele>65.0</ele><time>2026-04-26T14:43:24Z</time></trkpt><trkpt lat="40.626787234143436" lon="15.192824605404388"><ele>67.0</ele><time>2026-04-26T14:43:25Z</time></trkpt><trkpt lat="40.626742407873124" lon="15.193215342719524"><ele>69.0</ele><time>2026-04-26T14:43:26Z</time></trkpt><trkpt lat="40.62669307639268" lon="15.193602669961036"><ele>69.0</ele><time>2026-04-26T14:43:27Z</time></trkpt><trkpt lat="40.62663798399092" lon="15.193990740129735"><ele>69.0</ele><time>2026-04-26T14:43:28Z</time></trkpt><trkpt lat="40.626579287962464" lon="15.194377237101955"><ele>70.5</ele><time>2026-04-26T14:43:29Z</time></trkpt><trkpt lat="40.6265231458273" lon="15.194764593507662"><ele>72.0</ele><time>2026-04-26T14:43:30Z</time></trkpt><trkpt lat="40.626466863087764" lon="15.195151268149313"><ele>73.0</ele><time>2026-04-26T14:43:31Z</time></trkpt><trkpt lat="40.62641292953826" lon="15.195537055724541"><ele>74.0</ele><time>2026-04-26T14:43:32Z</time></trkpt><trkpt lat="40.62636124769073" lon="15.195925110149892"><ele>76.0</ele><time>2026-04-26T14:43:33Z</time></trkpt><trkpt lat="40.62631031112631" lon="15.196314830080741"><ele>78.0</ele><time>2026-04-26T14:43:34Z</time></trkpt><trkpt lat="40.62626060882142" lon="15.196705344095355"><ele>79.0</ele><time>2026-04-26T14:43:35Z</time></trkpt><trkpt lat="40.62621586740223" lon="15.197096206730508"><ele>80.0</ele><time>2026-04-26T14:43:36Z</time></trkpt><trkpt lat="40.626178903389516" lon="15.197488509463383"><ele>80.0</ele><time>2026-04-26T14:43:37Z</time></trkpt><trkpt lat="40.62614922633748" lon="15.197880716262983"><ele>80.0</ele><time>2026-04-26T14:43:38Z</time></trkpt><trkpt lat="40.62612460526607" lon="15.198272338595299"><ele>76.0</ele><time>2026-04-26T14:43:39Z</time></trkpt><trkpt lat="40.62610675186488" lon="15.198665929216153"><ele>72.0</ele><time>2026-04-26T14:43:40Z</time></trkpt><trkpt lat="40.626094859141965" lon="15.199057718139482"><ele>72.0</ele><time>2026-04-26T14:43:41Z</time></trkpt><trkpt lat="40.62609043420242" lon="15.199451903355474"><ele>72.0</ele><time>2026-04-26T14:43:42Z</time></trkpt><trkpt lat="40.62609352797489" lon="15.199848235111162"><ele>72.5</ele><time>2026-04-26T14:43:43Z</time></trkpt><trkpt lat="40.62610314034246" lon="15.200243614352821"><ele>73.0</ele><time>2026-04-26T14:43:44Z</time></trkpt><trkpt lat="40.626123112825816" lon="15.200637511281403"><ele>81.5</ele><time>2026-04-26T14:43:45Z</time></trkpt><trkpt lat="40.626149591455324" lon="15.201031252950793"><ele>90.0</ele><time>2026-04-26T14:43:46Z</time></trkpt><trkpt lat="40.626181997186954" lon="15.201424690041621"><ele>92.5</ele><time>2026-04-26T14:43:47Z</time></trkpt><trkpt lat="40.62622264559552" lon="15.20182310265718"><ele>95.0</ele><time>2026-04-26T14:43:48Z</time></trkpt><trkpt lat="40.62627165657314" lon="15.202221232033613"><ele>96.5</ele><time>2026-04-26T14:43:49Z</time></trkpt><trkpt lat="40.626324971097695" lon="15.20262173161642"><ele>98.0</ele><time>2026-04-26T14:43:50Z</time></trkpt><trkpt lat="40.626386923746175" lon="15.203023340626652"><ele>99.0</ele><time>2026-04-26T14:43:51Z</time></trkpt><trkpt lat="40.62645586715358" lon="15.203426500602376"><ele>100.0</ele><time>2026-04-26T14:43:52Z</time></trkpt><trkpt lat="40.626532246194685" lon="15.203833746337333"><ele>98.0</ele><time>2026-04-26T14:43:53Z</time></trkpt><trkpt lat="40.6266120685005" lon="15.204246224789468"><ele>96.0</ele><time>2026-04-26T14:43:54Z</time></trkpt><trkpt lat="40.62670004569228" lon="15.204697023209773"><ele>93.5</ele><time>2026-04-26T14:43:55.071Z</time></trkpt><trkpt lat="40.62678243364179" lon="15.205121935122502"><ele>91.0</ele><time>2026-04-26T14:43:56.067Z</time></trkpt><trkpt lat="40.62686809239639" lon="15.205555550891216"><ele>87.5</ele><time>2026-04-26T14:43:57.066Z</time></trkpt><trkpt lat="40.62695377157947" lon="15.205992659625531"><ele>84.0</ele><time>2026-04-26T14:43:58.061Z</time></trkpt><trkpt lat="40.62704063828156" lon="15.206431371623701"><ele>75.0</ele><time>2026-04-26T14:43:59.045Z</time></trkpt><trkpt lat="40.62728240731674" lon="15.207125456286136"><ele>77.0</ele><time>2026-04-26T14:44:02Z</time></trkpt><trkpt lat="40.62745859712317" lon="15.20792745003196"><ele>77.0</ele><time>2026-04-26T14:44:03Z</time></trkpt><trkpt lat="40.62748756584993" lon="15.208105298901705"><ele>77.0</ele><time>2026-04-26T14:44:04Z</time></trkpt><trkpt lat="40.62750638438194" lon="15.208301260570849"><ele>77.0</ele><time>2026-04-26T14:44:05Z</time></trkpt><trkpt lat="40.62757817199368" lon="15.208677892690003"><ele>77.0</ele><time>2026-04-26T14:44:06Z</time></trkpt><trkpt lat="40.62767015266838" lon="15.209067080645962"><ele>77.0</ele><time>2026-04-26T14:44:07.001Z</time></trkpt><trkpt lat="40.6277516144543" lon="15.209446888391446"><ele>86.5</ele><time>2026-04-26T14:44:08.001Z</time></trkpt><trkpt lat="40.62782862254214" lon="15.209829346809082"><ele>96.0</ele><time>2026-04-26T14:44:09.001Z</time></trkpt><trkpt lat="40.627902422963" lon="15.21021446572558"><ele>96.0</ele><time>2026-04-26T14:44:10.001Z</time></trkpt><trkpt lat="40.627974437256675" lon="15.21060263751489"><ele>96.0</ele><time>2026-04-26T14:44:11.001Z</time></trkpt><trkpt lat="40.62804282134405" lon="15.21099547143817"><ele>96.5</ele><time>2026-04-26T14:44:12.001Z</time></trkpt><trkpt lat="40.628106578653544" lon="15.211392568786952"><ele>97.0</ele><time>2026-04-26T14:44:13.001Z</time></trkpt><trkpt lat="40.62816975883649" lon="15.211824426996435"><ele>100.0</ele><time>2026-04-26T14:44:14.071Z</time></trkpt><trkpt lat="40.628222040359496" lon="15.212232436281598"><ele>103.0</ele><time>2026-04-26T14:44:15.066Z</time></trkpt><trkpt lat="40.62826980783077" lon="15.21264605886629"><ele>105.5</ele><time>2026-04-26T14:44:16.063Z</time></trkpt><trkpt lat="40.62831389976617" lon="15.213061980637223"><ele>108.0</ele><time>2026-04-26T14:44:17.061Z</time></trkpt><trkpt lat="40.62835318248259" lon="15.213477398743478"><ele>110.5</ele><time>2026-04-26T14:44:18.054Z</time></trkpt><trkpt lat="40.62838801838818" lon="15.21389826893246"><ele>113.0</ele><time>2026-04-26T14:44:19.052Z</time></trkpt><trkpt lat="40.62843432855165" lon="15.22357546815246"><ele>93.0</ele><time>2026-04-26T14:44:44Z</time></trkpt><trkpt lat="40.62843560211634" lon="15.223906770698614"><ele>73.0</ele><time>2026-04-26T14:44:45Z</time></trkpt><trkpt lat="40.6284185404592" lon="15.224301250040535"><ele>74.0</ele><time>2026-04-26T14:44:46Z</time></trkpt><trkpt lat="40.62842830066804" lon="15.22467696329647"><ele>75.0</ele><time>2026-04-26T14:44:47Z</time></trkpt><trkpt lat="40.62844314933956" lon="15.225029565436666"><ele>75.0</ele><time>2026-04-26T14:44:48Z</time></trkpt><trkpt lat="40.62845112687398" lon="15.225390127877231"><ele>75.0</ele><time>2026-04-26T14:44:49Z</time></trkpt><trkpt lat="40.62845749764" lon="15.225753201264897"><ele>75.0</ele><time>2026-04-26T14:44:50Z</time></trkpt><trkpt lat="40.62845859242302" lon="15.226124328726849"><ele>75.0</ele><time>2026-04-26T14:44:51Z</time></trkpt><trkpt lat="40.62846073972107" lon="15.2264950539268"><ele>74.5</ele><time>2026-04-26T14:44:52Z</time></trkpt><trkpt lat="40.62846226913738" lon="15.226865575826848"><ele>74.0</ele><time>2026-04-26T14:44:53Z</time></trkpt><trkpt lat="40.62846551588532" lon="15.227239463411177"><ele>75.5</ele><time>2026-04-26T14:44:54Z</time></trkpt><trkpt lat="40.628465439790844" lon="15.22761184683117"><ele>77.0</ele><time>2026-04-26T14:44:55Z</time></trkpt><trkpt lat="40.628461836898005" lon="15.22798551786845"><ele>79.5</ele><time>2026-04-26T14:44:56Z</time></trkpt><trkpt lat="40.62845668022301" lon="15.228355870948327"><ele>82.0</ele><time>2026-04-26T14:44:57Z</time></trkpt><trkpt lat="40.62845234609594" lon="15.228727733859424"><ele>87.0</ele><time>2026-04-26T14:44:58Z</time></trkpt><trkpt lat="40.62845333527667" lon="15.229100534092181"><ele>92.0</ele><time>2026-04-26T14:44:59Z</time></trkpt><trkpt lat="40.62845235108618" lon="15.229474765373501"><ele>95.5</ele><time>2026-04-26T14:45:00Z</time></trkpt><trkpt lat="40.62844561677683" lon="15.22985076032345"><ele>99.0</ele><time>2026-04-26T14:45:01Z</time></trkpt><trkpt lat="40.62843288929882" lon="15.230225938567886"><ele>99.0</ele><time>2026-04-26T14:45:02Z</time></trkpt><trkpt lat="40.628414645493656" lon="15.230603151529213"><ele>99.0</ele><time>2026-04-26T14:45:03Z</time></trkpt><trkpt lat="40.62838804852387" lon="15.230979316816544"><ele>101.5</ele><time>2026-04-26T14:45:04Z</time></trkpt><trkpt lat="40.628355885036484" lon="15.23135007353243"><ele>104.0</ele><time>2026-04-26T14:45:05Z</time></trkpt><trkpt lat="40.6283159421133" lon="15.23171994796764"><ele>105.0</ele><time>2026-04-26T14:45:06Z</time></trkpt><trkpt lat="40.62826866994354" lon="15.232088989845794"><ele>106.0</ele><time>2026-04-26T14:45:07Z</time></trkpt><trkpt lat="40.62821156660886" lon="15.232457473102142"><ele>106.0</ele><time>2026-04-26T14:45:08Z</time></trkpt><trkpt lat="40.62814551185556" lon="15.23282279788892"><ele>106.0</ele><time>2026-04-26T14:45:09Z</time></trkpt><trkpt lat="40.62806859176778" lon="15.233181694115016"><ele>106.5</ele><time>2026-04-26T14:45:10Z</time></trkpt><trkpt lat="40.627987435060184" lon="15.233540971476513"><ele>107.0</ele><time>2026-04-26T14:45:11Z</time></trkpt><trkpt lat="40.627897309997735" lon="15.233898001840206"><ele>112.0</ele><time>2026-04-26T14:45:12Z</time></trkpt><trkpt lat="40.62779473023126" lon="15.234251168836707"><ele>117.0</ele><time>2026-04-26T14:45:13Z</time></trkpt><trkpt lat="40.627678928655655" lon="15.234599117131632"><ele>115.0</ele><time>2026-04-26T14:45:14Z</time></trkpt><trkpt lat="40.627553006637754" lon="15.234938997650213"><ele>113.0</ele><time>2026-04-26T14:45:15Z</time></trkpt><trkpt lat="40.62741981493212" lon="15.23527429677789"><ele>113.0</ele><time>2026-04-26T14:45:16Z</time></trkpt><trkpt lat="40.627280512952915" lon="15.235602272843865"><ele>113.0</ele><time>2026-04-26T14:45:17Z</time></trkpt><trkpt lat="40.62713573158535" lon="15.235926307801138"><ele>110.0</ele><time>2026-04-26T14:45:18Z</time></trkpt><trkpt lat="40.62698226185091" lon="15.236251271692561"><ele>107.0</ele><time>2026-04-26T14:45:19Z</time></trkpt><trkpt lat="40.62681500976515" lon="15.236574237720845"><ele>114.5</ele><time>2026-04-26T14:45:20Z</time></trkpt><trkpt lat="40.626634658769284" lon="15.236891604733257"><ele>122.0</ele><time>2026-04-26T14:45:21Z</time></trkpt><trkpt lat="40.62644696095506" lon="15.237199418089522"><ele>117.5</ele><time>2026-04-26T14:45:22Z</time></trkpt><trkpt lat="40.62624849257363" lon="15.237498345220796"><ele>113.0</ele><time>2026-04-26T14:45:23Z</time></trkpt><trkpt lat="40.62604131084775" lon="15.237785587532029"><ele>127.0</ele><time>2026-04-26T14:45:24Z</time></trkpt><trkpt lat="40.6258238976681" lon="15.23806738731583"><ele>141.0</ele><time>2026-04-26T14:45:25Z</time></trkpt><trkpt lat="40.62559948813415" lon="15.23834079617216"><ele>141.0</ele><time>2026-04-26T14:45:26Z</time></trkpt><trkpt lat="40.62536720839801" lon="15.238603257574658"><ele>141.0</ele><time>2026-04-26T14:45:27Z</time></trkpt><trkpt lat="40.625125647945865" lon="15.23885396029918"><ele>154.0</ele><time>2026-04-26T14:45:28Z</time></trkpt><trkpt lat="40.624874750444015" lon="15.239092243361455"><ele>167.0</ele><time>2026-04-26T14:45:29Z</time></trkpt><trkpt lat="40.62461399167823" lon="15.239318481290981"><ele>171.0</ele><time>2026-04-26T14:45:30Z</time></trkpt><trkpt lat="40.62435108725635" lon="15.239538408792258"><ele>175.0</ele><time>2026-04-26T14:45:31Z</time></trkpt><trkpt lat="40.62406095536257" lon="15.239762007945012"><ele>170.5</ele><time>2026-04-26T14:45:32.073Z</time></trkpt><trkpt lat="40.62378812314838" lon="15.239958489187197"><ele>166.0</ele><time>2026-04-26T14:45:33.062Z</time></trkpt><trkpt lat="40.62351175811288" lon="15.240150190587908"><ele>166.0</ele><time>2026-04-26T14:45:34.06Z</time></trkpt><trkpt lat="40.62324898334575" lon="15.240363258352403"><ele>166.0</ele><time>2026-04-26T14:45:35.048Z</time></trkpt><trkpt lat="40.62297417775699" lon="15.240560920743553"><ele>136.0</ele><time>2026-04-26T14:45:36.048Z</time></trkpt><trkpt lat="40.62034185666501" lon="15.242509000699844"><ele>132.0</ele><time>2026-04-26T14:45:40.834Z</time></trkpt><trkpt lat="40.61946987437189" lon="15.243115319119216"><ele>124.0</ele><time>2026-04-26T14:45:41.83Z</time></trkpt><trkpt lat="40.61876124326853" lon="15.243300329264473"><ele>122.0</ele><time>2026-04-26T14:45:52.36Z</time></trkpt><trkpt lat="40.61764374367446" lon="15.24442951895377"><ele>122.0</ele><time>2026-04-26T14:45:57Z</time></trkpt><trkpt lat="40.617319351220125" lon="15.244642523045156"><ele>122.0</ele><time>2026-04-26T14:45:58Z</time></trkpt><trkpt lat="40.617063950331584" lon="15.244845478273168"><ele>127.0</ele><time>2026-04-26T14:45:59Z</time></trkpt><trkpt lat="40.61681120919773" lon="15.245060146174023"><ele>132.0</ele><time>2026-04-26T14:46:00Z</time></trkpt><trkpt lat="40.616559443829765" lon="15.245284087280982"><ele>132.0</ele><time>2026-04-26T14:46:01Z</time></trkpt><trkpt lat="40.61631225338499" lon="15.245504386775867"><ele>132.0</ele><time>2026-04-26T14:46:02Z</time></trkpt><trkpt lat="40.61606868355091" lon="15.245744791538794"><ele>143.5</ele><time>2026-04-26T14:46:03Z</time></trkpt><trkpt lat="40.615816142502815" lon="15.246010299066365"><ele>155.0</ele><time>2026-04-26T14:46:04.059Z</time></trkpt><trkpt lat="40.61558315596929" lon="15.246270400905043"><ele>154.0</ele><time>2026-04-26T14:46:05.06Z</time></trkpt><trkpt lat="40.61535482380863" lon="15.246536722617362"><ele>153.0</ele><time>2026-04-26T14:46:06.058Z</time></trkpt><trkpt lat="40.61513061348281" lon="15.246815134455463"><ele>153.0</ele><time>2026-04-26T14:46:07.06Z</time></trkpt><trkpt lat="40.614910941996044" lon="15.2470977439098"><ele>153.0</ele><time>2026-04-26T14:46:08.059Z</time></trkpt><trkpt lat="40.613190665900625" lon="15.250313226677138"><ele>110.0</ele><time>2026-04-26T14:46:12.833Z</time></trkpt><trkpt lat="40.61284435667454" lon="15.251526134295768"><ele>118.0</ele><time>2026-04-26T14:46:13.83Z</time></trkpt><trkpt lat="40.612609271763056" lon="15.253585511181388"><ele>116.5</ele><time>2026-04-26T14:46:27Z</time></trkpt><trkpt lat="40.61257701329599" lon="15.253976421179884"><ele>115.0</ele><time>2026-04-26T14:46:28Z</time></trkpt><trkpt lat="40.6125053551616" lon="15.254420889985234"><ele>113.0</ele><time>2026-04-26T14:46:29Z</time></trkpt><trkpt lat="40.61249515172885" lon="15.25481428113415"><ele>111.0</ele><time>2026-04-26T14:46:30Z</time></trkpt><trkpt lat="40.61249436677082" lon="15.255221568164297"><ele>108.5</ele><time>2026-04-26T14:46:31Z</time></trkpt><trkpt lat="40.61249749196869" lon="15.255623256733747"><ele>106.0</ele><time>2026-04-26T14:46:32Z</time></trkpt><trkpt lat="40.61250823767836" lon="15.25601521719375"><ele>106.0</ele><time>2026-04-26T14:46:33.001Z</time></trkpt><trkpt lat="40.61252730426733" lon="15.256404718070078"><ele>106.0</ele><time>2026-04-26T14:46:34.001Z</time></trkpt><trkpt lat="40.612553170524826" lon="15.256793481964962"><ele>102.5</ele><time>2026-04-26T14:46:35.001Z</time></trkpt><trkpt lat="40.612587300683906" lon="15.25718197213108"><ele>99.0</ele><time>2026-04-26T14:46:36.001Z</time></trkpt><trkpt lat="40.61262436108112" lon="15.257570544248772"><ele>99.0</ele><time>2026-04-26T14:46:37.001Z</time></trkpt><trkpt lat="40.61266629011248" lon="15.25796020573383"><ele>99.0</ele><time>2026-04-26T14:46:38.001Z</time></trkpt><trkpt lat="40.61270996874514" lon="15.258348309616412"><ele>100.5</ele><time>2026-04-26T14:46:39.001Z</time></trkpt><trkpt lat="40.61275555737965" lon="15.258735911480139"><ele>102.0</ele><time>2026-04-26T14:46:40.001Z</time></trkpt><trkpt lat="40.61280621022151" lon="15.25912341623651"><ele>100.5</ele><time>2026-04-26T14:46:41.001Z</time></trkpt><trkpt lat="40.61285942399832" lon="15.259509638708789"><ele>99.0</ele><time>2026-04-26T14:46:42.001Z</time></trkpt><trkpt lat="40.612912969765425" lon="15.259894791851604"><ele>106.5</ele><time>2026-04-26T14:46:43.001Z</time></trkpt><trkpt lat="40.612967194638706" lon="15.260279026716848"><ele>114.0</ele><time>2026-04-26T14:46:44.001Z</time></trkpt><trkpt lat="40.61302032568972" lon="15.26066605105826"><ele>123.0</ele><time>2026-04-26T14:46:45.001Z</time></trkpt><trkpt lat="40.613069625593894" lon="15.261050402809357"><ele>132.0</ele><time>2026-04-26T14:46:46.001Z</time></trkpt><trkpt lat="40.613118555970345" lon="15.261439222219234"><ele>136.5</ele><time>2026-04-26T14:46:47.001Z</time></trkpt><trkpt lat="40.61317039264783" lon="15.261826590869454"><ele>141.0</ele><time>2026-04-26T14:46:48.001Z</time></trkpt><trkpt lat="40.61322353861133" lon="15.262212783722404"><ele>142.0</ele><time>2026-04-26T14:46:49.001Z</time></trkpt><trkpt lat="40.61327991924564" lon="15.262598521672077"><ele>143.0</ele><time>2026-04-26T14:46:50.001Z</time></trkpt><trkpt lat="40.613334957301234" lon="15.262986723641145"><ele>141.5</ele><time>2026-04-26T14:46:51.001Z</time></trkpt><trkpt lat="40.61338985176267" lon="15.263372451558146"><ele>140.0</ele><time>2026-04-26T14:46:52.001Z</time></trkpt><trkpt lat="40.61344281142996" lon="15.263759038725507"><ele>141.0</ele><time>2026-04-26T14:46:53.001Z</time></trkpt><trkpt lat="40.61349668117026" lon="15.264145100453982"><ele>142.0</ele><time>2026-04-26T14:46:54Z</time></trkpt><trkpt lat="40.61355159132867" lon="15.264531177484077"><ele>139.5</ele><time>2026-04-26T14:46:55Z</time></trkpt><trkpt lat="40.61360629476947" lon="15.264917402250658"><ele>137.0</ele><time>2026-04-26T14:46:56Z</time></trkpt><trkpt lat="40.61365961145805" lon="15.265301235814281"><ele>150.5</ele><time>2026-04-26T14:46:57Z</time></trkpt><trkpt lat="40.61371335088367" lon="15.265686526719394"><ele>164.0</ele><time>2026-04-26T14:46:58Z</time></trkpt><trkpt lat="40.61376697047404" lon="15.266071967733868"><ele>162.0</ele><time>2026-04-26T14:46:59Z</time></trkpt><trkpt lat="40.61381966577113" lon="15.266460247478856"><ele>160.0</ele><time>2026-04-26T14:47:00Z</time></trkpt><trkpt lat="40.6138750232165" lon="15.26684727533621"><ele>160.0</ele><time>2026-04-26T14:47:01Z</time></trkpt><trkpt lat="40.61393091894195" lon="15.26723469403965"><ele>160.0</ele><time>2026-04-26T14:47:02Z</time></trkpt><trkpt lat="40.61398723056517" lon="15.267621497772385"><ele>160.5</ele><time>2026-04-26T14:47:03Z</time></trkpt><trkpt lat="40.614041057995045" lon="15.26800816836319"><ele>161.0</ele><time>2026-04-26T14:47:04Z</time></trkpt><trkpt lat="40.61409438462599" lon="15.26839609494682"><ele>162.5</ele><time>2026-04-26T14:47:05Z</time></trkpt><trkpt lat="40.614150116337576" lon="15.26878512400844"><ele>164.0</ele><time>2026-04-26T14:47:06Z</time></trkpt><trkpt lat="40.6142022854326" lon="15.26917297165988"><ele>166.0</ele><time>2026-04-26T14:47:07Z</time></trkpt><trkpt lat="40.61424874446964" lon="15.26956010123502"><ele>168.0</ele><time>2026-04-26T14:47:08Z</time></trkpt><trkpt lat="40.61428961408049" lon="15.269948160268681"><ele>169.5</ele><time>2026-04-26T14:47:09Z</time></trkpt><trkpt lat="40.61432664728985" lon="15.270338989575484"><ele>171.0</ele><time>2026-04-26T14:47:10Z</time></trkpt><trkpt lat="40.61436266693173" lon="15.270731656138887"><ele>171.0</ele><time>2026-04-26T14:47:11Z</time></trkpt><trkpt lat="40.6143936579099" lon="15.271123628216582"><ele>171.0</ele><time>2026-04-26T14:47:12Z</time></trkpt><trkpt lat="40.6144208878824" lon="15.271516401180413"><ele>169.5</ele><time>2026-04-26T14:47:13Z</time></trkpt><trkpt lat="40.61444147385917" lon="15.271913341348762"><ele>168.0</ele><time>2026-04-26T14:47:14Z</time></trkpt><trkpt lat="40.614462097037766" lon="15.272306104453653"><ele>168.0</ele><time>2026-04-26T14:47:15Z</time></trkpt><trkpt lat="40.61447182473629" lon="15.272698741205396"><ele>168.0</ele><time>2026-04-26T14:47:16Z</time></trkpt><trkpt lat="40.61447520440964" lon="15.273093487192606"><ele>168.0</ele><time>2026-04-26T14:47:17Z</time></trkpt><trkpt lat="40.61446820382721" lon="15.273487997155657"><ele>168.0</ele><time>2026-04-26T14:47:18Z</time></trkpt><trkpt lat="40.61445572054384" lon="15.273882131745653"><ele>169.0</ele><time>2026-04-26T14:47:19Z</time></trkpt><trkpt lat="40.6144297676482" lon="15.274274380991876"><ele>170.0</ele><time>2026-04-26T14:47:20Z</time></trkpt><trkpt lat="40.6143979927029" lon="15.274666291403832"><ele>169.0</ele><time>2026-04-26T14:47:21Z</time></trkpt><trkpt lat="40.61436021538239" lon="15.275056822490876"><ele>168.0</ele><time>2026-04-26T14:47:22Z</time></trkpt><trkpt lat="40.614314231939744" lon="15.275445905961089"><ele>167.5</ele><time>2026-04-26T14:47:23Z</time></trkpt><trkpt lat="40.614262132735455" lon="15.275831758409044"><ele>167.0</ele><time>2026-04-26T14:47:24Z</time></trkpt><trkpt lat="40.614204428824706" lon="15.276218941611443"><ele>166.0</ele><time>2026-04-26T14:47:25Z</time></trkpt><trkpt lat="40.614136884251025" lon="15.27660412153016"><ele>165.0</ele><time>2026-04-26T14:47:26Z</time></trkpt><trkpt lat="40.614063131013424" lon="15.276986747037698"><ele>165.5</ele><time>2026-04-26T14:47:27Z</time></trkpt><trkpt lat="40.61397807232915" lon="15.27736599488845"><ele>166.0</ele><time>2026-04-26T14:47:28Z</time></trkpt><trkpt lat="40.613885394062095" lon="15.277738949801993"><ele>168.0</ele><time>2026-04-26T14:47:29Z</time></trkpt><trkpt lat="40.61378686487921" lon="15.278111622767822"><ele>170.0</ele><time>2026-04-26T14:47:30Z</time></trkpt><trkpt lat="40.61368144286199" lon="15.278479208588875"><ele>169.5</ele><time>2026-04-26T14:47:31Z</time></trkpt><trkpt lat="40.61357067723521" lon="15.278845556759384"><ele>169.0</ele><time>2026-04-26T14:47:32Z</time></trkpt><trkpt lat="40.61345484080917" lon="15.279209992844448"><ele>169.0</ele><time>2026-04-26T14:47:33Z</time></trkpt><trkpt lat="40.61333201854287" lon="15.279572030765573"><ele>169.0</ele><time>2026-04-26T14:47:34Z</time></trkpt><trkpt lat="40.61320266011082" lon="15.279929754208784"><ele>169.0</ele><time>2026-04-26T14:47:35Z</time></trkpt><trkpt lat="40.613066687319034" lon="15.280283679501691"><ele>169.0</ele><time>2026-04-26T14:47:36Z</time></trkpt><trkpt lat="40.612923391524276" lon="15.280628472583954"><ele>166.0</ele><time>2026-04-26T14:47:37Z</time></trkpt><trkpt lat="40.612771467933534" lon="15.280967899166193"><ele>163.0</ele><time>2026-04-26T14:47:38Z</time></trkpt><trkpt lat="40.61261408770437" lon="15.281301774049895"><ele>163.0</ele><time>2026-04-26T14:47:39Z</time></trkpt><trkpt lat="40.612453288666025" lon="15.28163499692917"><ele>163.0</ele><time>2026-04-26T14:47:40Z</time></trkpt><trkpt lat="40.612292151534135" lon="15.281969628463735"><ele>165.0</ele><time>2026-04-26T14:47:41Z</time></trkpt><trkpt lat="40.61212938034956" lon="15.282302379764877"><ele>167.0</ele><time>2026-04-26T14:47:42Z</time></trkpt><trkpt lat="40.61197004616982" lon="15.28263214778199"><ele>164.0</ele><time>2026-04-26T14:47:43Z</time></trkpt><trkpt lat="40.611811090086405" lon="15.282966408673477"><ele>161.0</ele><time>2026-04-26T14:47:44Z</time></trkpt><trkpt lat="40.611652737630564" lon="15.283301560950225"><ele>161.0</ele><time>2026-04-26T14:47:45Z</time></trkpt><trkpt lat="40.611497546104694" lon="15.28363792657505"><ele>161.0</ele><time>2026-04-26T14:47:46Z</time></trkpt><trkpt lat="40.61134679088172" lon="15.28398101831587"><ele>161.5</ele><time>2026-04-26T14:47:47Z</time></trkpt><trkpt lat="40.611202446211" lon="15.284328195588941"><ele>162.0</ele><time>2026-04-26T14:47:48Z</time></trkpt><trkpt lat="40.61106354759221" lon="15.284675788826329"><ele>152.5</ele><time>2026-04-26T14:47:49Z</time></trkpt><trkpt lat="40.61093047814016" lon="15.285027703372473"><ele>143.0</ele><time>2026-04-26T14:47:50Z</time></trkpt><trkpt lat="40.61080337283253" lon="15.285383777246903"><ele>143.5</ele><time>2026-04-26T14:47:51Z</time></trkpt><trkpt lat="40.610680605046966" lon="15.285744026044897"><ele>144.0</ele><time>2026-04-26T14:47:52Z</time></trkpt><trkpt lat="40.61056760218642" lon="15.28610701627786"><ele>146.5</ele><time>2026-04-26T14:47:53Z</time></trkpt><trkpt lat="40.61046070645771" lon="15.286474732977759"><ele>149.0</ele><time>2026-04-26T14:47:54Z</time></trkpt><trkpt lat="40.61037136530838" lon="15.286850333717426"><ele>155.0</ele><time>2026-04-26T14:47:55Z</time></trkpt><trkpt lat="40.61029509924856" lon="15.287226131973187"><ele>161.0</ele><time>2026-04-26T14:47:56Z</time></trkpt><trkpt lat="40.610229266712444" lon="15.287609219396202"><ele>161.5</ele><time>2026-04-26T14:47:57Z</time></trkpt><trkpt lat="40.61017305716742" lon="15.287993886296226"><ele>162.0</ele><time>2026-04-26T14:47:58Z</time></trkpt><trkpt lat="40.61012429226334" lon="15.288381589510248"><ele>162.0</ele><time>2026-04-26T14:47:59Z</time></trkpt><trkpt lat="40.61008034512985" lon="15.28876978744148"><ele>162.0</ele><time>2026-04-26T14:48:00Z</time></trkpt><trkpt lat="40.61004538873342" lon="15.289160485002194"><ele>163.0</ele><time>2026-04-26T14:48:01Z</time></trkpt><trkpt lat="40.61002137703781" lon="15.289551134882528"><ele>164.0</ele><time>2026-04-26T14:48:02Z</time></trkpt><trkpt lat="40.61000625548917" lon="15.289942088633776"><ele>165.5</ele><time>2026-04-26T14:48:03Z</time></trkpt><trkpt lat="40.609998515891306" lon="15.290333288667885"><ele>167.0</ele><time>2026-04-26T14:48:04Z</time></trkpt><trkpt lat="40.60999639248888" lon="15.290727658207372"><ele>168.0</ele><time>2026-04-26T14:48:05Z</time></trkpt><trkpt lat="40.609992880048146" lon="15.291119959296449"><ele>169.0</ele><time>2026-04-26T14:48:06Z</time></trkpt><trkpt lat="40.60998521167467" lon="15.291512262689755"><ele>170.0</ele><time>2026-04-26T14:48:07Z</time></trkpt><trkpt lat="40.60997079717427" lon="15.291905135072884"><ele>171.0</ele><time>2026-04-26T14:48:08Z</time></trkpt><trkpt lat="40.60994664785719" lon="15.292299269859988"><ele>171.5</ele><time>2026-04-26T14:48:09Z</time></trkpt><trkpt lat="40.60991271512847" lon="15.292691085078223"><ele>172.0</ele><time>2026-04-26T14:48:10Z</time></trkpt><trkpt lat="40.609864905578085" lon="15.293078951767352"><ele>173.0</ele><time>2026-04-26T14:48:11Z</time></trkpt><trkpt lat="40.60979675239239" lon="15.293461912215275"><ele>174.0</ele><time>2026-04-26T14:48:12Z</time></trkpt><trkpt lat="40.609712165221694" lon="15.293838366635331"><ele>175.0</ele><time>2026-04-26T14:48:13Z</time></trkpt><trkpt lat="40.60961176526187" lon="15.294209193258615"><ele>176.0</ele><time>2026-04-26T14:48:14Z</time></trkpt><trkpt lat="40.60949855838823" lon="15.29457347549377"><ele>178.0</ele><time>2026-04-26T14:48:15Z</time></trkpt><trkpt lat="40.60936798465683" lon="15.29492752333472"><ele>180.0</ele><time>2026-04-26T14:48:16Z</time></trkpt><trkpt lat="40.60922586495122" lon="15.295273483967367"><ele>177.0</ele><time>2026-04-26T14:48:17Z</time></trkpt><trkpt lat="40.60907513321409" lon="15.295616298140688"><ele>174.0</ele><time>2026-04-26T14:48:18Z</time></trkpt><trkpt lat="40.60891477775388" lon="15.295951782661431"><ele>174.0</ele><time>2026-04-26T14:48:19Z</time></trkpt><trkpt lat="40.60874252980906" lon="15.296274279451099"><ele>174.0</ele><time>2026-04-26T14:48:20Z</time></trkpt><trkpt lat="40.608559208611354" lon="15.296586182104917"><ele>163.0</ele><time>2026-04-26T14:48:21Z</time></trkpt><trkpt lat="40.60836470510064" lon="15.296883729255976"><ele>152.0</ele><time>2026-04-26T14:48:22Z</time></trkpt><trkpt lat="40.60816078961515" lon="15.297169178393423"><ele>151.0</ele><time>2026-04-26T14:48:23Z</time></trkpt><trkpt lat="40.60794591557066" lon="15.297442992954883"><ele>150.0</ele><time>2026-04-26T14:48:24Z</time></trkpt><trkpt lat="40.607721144185255" lon="15.297705010583444"><ele>151.0</ele><time>2026-04-26T14:48:25Z</time></trkpt><trkpt lat="40.60749250650408" lon="15.29795906135702"><ele>152.0</ele><time>2026-04-26T14:48:26Z</time></trkpt><trkpt lat="40.60725546577943" lon="15.298199947085307"><ele>152.0</ele><time>2026-04-26T14:48:27Z</time></trkpt><trkpt lat="40.60701465655443" lon="15.298439113987635"><ele>152.0</ele><time>2026-04-26T14:48:28Z</time></trkpt><trkpt lat="40.60677775255293" lon="15.298680164662493"><ele>163.5</ele><time>2026-04-26T14:48:29Z</time></trkpt><trkpt lat="40.606543089473064" lon="15.29892232761901"><ele>175.0</ele><time>2026-04-26T14:48:30Z</time></trkpt><trkpt lat="40.60630734952397" lon="15.299165075494153"><ele>179.0</ele><time>2026-04-26T14:48:31Z</time></trkpt><trkpt lat="40.60607158966929" lon="15.299409445113637"><ele>183.0</ele><time>2026-04-26T14:48:32Z</time></trkpt><trkpt lat="40.605836361435465" lon="15.29965613569967"><ele>181.0</ele><time>2026-04-26T14:48:33Z</time></trkpt><trkpt lat="40.60559910060825" lon="15.29990109118396"><ele>179.0</ele><time>2026-04-26T14:48:34Z</time></trkpt><trkpt lat="40.60536242059163" lon="15.300144003068677"><ele>166.5</ele><time>2026-04-26T14:48:35Z</time></trkpt><trkpt lat="40.605128694563874" lon="15.300386251828854"><ele>154.0</ele><time>2026-04-26T14:48:36Z</time></trkpt><trkpt lat="40.604895335977155" lon="15.30062803793602"><ele>154.0</ele><time>2026-04-26T14:48:37Z</time></trkpt><trkpt lat="40.60466085784396" lon="15.300871045008778"><ele>154.0</ele><time>2026-04-26T14:48:38Z</time></trkpt><trkpt lat="40.604425483576314" lon="15.3011138544313"><ele>185.0</ele><time>2026-04-26T14:48:39Z</time></trkpt><trkpt lat="40.60418825258085" lon="15.301353582646676"><ele>216.0</ele><time>2026-04-26T14:48:40Z</time></trkpt><trkpt lat="40.60395323139868" lon="15.301594594473762"><ele>223.5</ele><time>2026-04-26T14:48:41Z</time></trkpt><trkpt lat="40.60371895427832" lon="15.301837313253564"><ele>231.0</ele><time>2026-04-26T14:48:42Z</time></trkpt><trkpt lat="40.60348421200616" lon="15.302080719515812"><ele>232.5</ele><time>2026-04-26T14:48:43Z</time></trkpt><trkpt lat="40.60324900770331" lon="15.30232389589632"><ele>234.0</ele><time>2026-04-26T14:48:44Z</time></trkpt><trkpt lat="40.60301566020378" lon="15.302566668207472"><ele>241.5</ele><time>2026-04-26T14:48:45Z</time></trkpt><trkpt lat="40.60276405036943" lon="15.302824856164499"><ele>249.0</ele><time>2026-04-26T14:48:46.069Z</time></trkpt><trkpt lat="40.602531744825455" lon="15.303067119013852"><ele>266.0</ele><time>2026-04-26T14:48:47.057Z</time></trkpt><trkpt lat="40.60117911461875" lon="15.305049762085355"><ele>304.0</ele><time>2026-04-26T14:48:50.832Z</time></trkpt><trkpt lat="40.59983803671629" lon="15.306997063055507"><ele>285.0</ele><time>2026-04-26T14:49:01.36Z</time></trkpt><trkpt lat="40.59951933152841" lon="15.30759288123298"><ele>220.0</ele><time>2026-04-26T14:49:03.723Z</time></trkpt><trkpt lat="40.598403974590006" lon="15.314555477072814"><ele>216.0</ele><time>2026-04-26T14:49:20Z</time></trkpt><trkpt lat="40.598404130996286" lon="15.314983297297369"><ele>212.0</ele><time>2026-04-26T14:49:21Z</time></trkpt><trkpt lat="40.59835750341634" lon="15.315418214812704"><ele>205.0</ele><time>2026-04-26T14:49:22Z</time></trkpt><trkpt lat="40.59825480421591" lon="15.31577456720663"><ele>198.0</ele><time>2026-04-26T14:49:23Z</time></trkpt><trkpt lat="40.59814513576097" lon="15.316123754800492"><ele>190.0</ele><time>2026-04-26T14:49:24Z</time></trkpt><trkpt lat="40.59803655957456" lon="15.3164826148142"><ele>182.0</ele><time>2026-04-26T14:49:25Z</time></trkpt><trkpt lat="40.59791228555232" lon="15.31683772923968"><ele>196.5</ele><time>2026-04-26T14:49:26Z</time></trkpt><trkpt lat="40.59776858632039" lon="15.317180392110153"><ele>211.0</ele><time>2026-04-26T14:49:27Z</time></trkpt><trkpt lat="40.59761564998668" lon="15.317513584962933"><ele>211.0</ele><time>2026-04-26T14:49:28Z</time></trkpt><trkpt lat="40.59745714654461" lon="15.317847069311528"><ele>211.0</ele><time>2026-04-26T14:49:29Z</time></trkpt><trkpt lat="40.59729424260392" lon="15.318179153021557"><ele>201.0</ele><time>2026-04-26T14:49:30Z</time></trkpt><trkpt lat="40.59712742877893" lon="15.31850982085299"><ele>191.0</ele><time>2026-04-26T14:49:31Z</time></trkpt><trkpt lat="40.59696846255695" lon="15.318840354158832"><ele>207.0</ele><time>2026-04-26T14:49:32Z</time></trkpt><trkpt lat="40.5968089918546" lon="15.319173904607384"><ele>223.0</ele><time>2026-04-26T14:49:33Z</time></trkpt><trkpt lat="40.59664938635738" lon="15.319503714342284"><ele>210.5</ele><time>2026-04-26T14:49:34Z</time></trkpt><trkpt lat="40.596491312682275" lon="15.319838066025842"><ele>198.0</ele><time>2026-04-26T14:49:35Z</time></trkpt><trkpt lat="40.59632627632578" lon="15.320164820974147"><ele>207.5</ele><time>2026-04-26T14:49:36Z</time></trkpt><trkpt lat="40.59615120682855" lon="15.320482851514246"><ele>217.0</ele><time>2026-04-26T14:49:37Z</time></trkpt><trkpt lat="40.59597004366439" lon="15.320795222626277"><ele>217.0</ele><time>2026-04-26T14:49:38Z</time></trkpt><trkpt lat="40.595778451531" lon="15.32109625381265"><ele>217.0</ele><time>2026-04-26T14:49:39Z</time></trkpt><trkpt lat="40.595580489090146" lon="15.321390017218668"><ele>226.0</ele><time>2026-04-26T14:49:40Z</time></trkpt><trkpt lat="40.595377966940205" lon="15.32168013925455"><ele>235.0</ele><time>2026-04-26T14:49:41Z</time></trkpt><trkpt lat="40.59516880280583" lon="15.321963048354993"><ele>223.0</ele><time>2026-04-26T14:49:42Z</time></trkpt><trkpt lat="40.594949217477904" lon="15.322233243833104"><ele>211.0</ele><time>2026-04-26T14:49:43Z</time></trkpt><trkpt lat="40.59473185467141" lon="15.322501979224743"><ele>211.0</ele><time>2026-04-26T14:49:44Z</time></trkpt><trkpt lat="40.59451126028959" lon="15.322766176798632"><ele>211.0</ele><time>2026-04-26T14:49:45Z</time></trkpt><trkpt lat="40.594288058353555" lon="15.323028638015188"><ele>213.5</ele><time>2026-04-26T14:49:46Z</time></trkpt><trkpt lat="40.59406326282771" lon="15.32328985028401"><ele>216.0</ele><time>2026-04-26T14:49:47Z</time></trkpt><trkpt lat="40.593839703501466" lon="15.323550985236839"><ele>220.5</ele><time>2026-04-26T14:49:48Z</time></trkpt><trkpt lat="40.593617165626796" lon="15.32381357957621"><ele>225.0</ele><time>2026-04-26T14:49:49Z</time></trkpt><trkpt lat="40.593397884265215" lon="15.324081427136287"><ele>225.0</ele><time>2026-04-26T14:49:50Z</time></trkpt><trkpt lat="40.59318131515777" lon="15.324355178309883"><ele>225.0</ele><time>2026-04-26T14:49:51Z</time></trkpt><trkpt lat="40.592974558389635" lon="15.324638839233844"><ele>232.5</ele><time>2026-04-26T14:49:52Z</time></trkpt><trkpt lat="40.59277542476922" lon="15.324934968264312"><ele>240.0</ele><time>2026-04-26T14:49:53Z</time></trkpt><trkpt lat="40.592585226626504" lon="15.325241058443241"><ele>226.0</ele><time>2026-04-26T14:49:54Z</time></trkpt><trkpt lat="40.59240872454432" lon="15.325563041595437"><ele>212.0</ele><time>2026-04-26T14:49:55Z</time></trkpt><trkpt lat="40.59224824551478" lon="15.325885748592507"><ele>212.0</ele><time>2026-04-26T14:49:56Z</time></trkpt><trkpt lat="40.592095270931765" lon="15.326222774984076"><ele>212.0</ele><time>2026-04-26T14:49:57Z</time></trkpt><trkpt lat="40.59195117015375" lon="15.326567852172172"><ele>217.0</ele><time>2026-04-26T14:49:58Z</time></trkpt><trkpt lat="40.59181600553927" lon="15.326919599013682"><ele>222.0</ele><time>2026-04-26T14:49:59Z</time></trkpt><trkpt lat="40.591688588854" lon="15.327274494253848"><ele>222.0</ele><time>2026-04-26T14:50:00Z</time></trkpt><trkpt lat="40.591564398494775" lon="15.327631033551391"><ele>222.0</ele><time>2026-04-26T14:50:01Z</time></trkpt><trkpt lat="40.59144120784427" lon="15.327988749593649"><ele>216.5</ele><time>2026-04-26T14:50:02Z</time></trkpt><trkpt lat="40.59131375788765" lon="15.328345197096619"><ele>211.0</ele><time>2026-04-26T14:50:03Z</time></trkpt><trkpt lat="40.591186299588" lon="15.32869887075301"><ele>226.5</ele><time>2026-04-26T14:50:04Z</time></trkpt><trkpt lat="40.591057287771946" lon="15.329052882518935"><ele>242.0</ele><time>2026-04-26T14:50:05Z</time></trkpt><trkpt lat="40.59093020425721" lon="15.329408596751776"><ele>235.0</ele><time>2026-04-26T14:50:06Z</time></trkpt><trkpt lat="40.59080178555268" lon="15.32976114090083"><ele>228.0</ele><time>2026-04-26T14:50:07Z</time></trkpt><trkpt lat="40.59067586864146" lon="15.330115143129353"><ele>228.0</ele><time>2026-04-26T14:50:08Z</time></trkpt><trkpt lat="40.590548034850414" lon="15.33047023477368"><ele>228.0</ele><time>2026-04-26T14:50:09Z</time></trkpt><trkpt lat="40.590415989658695" lon="15.330821211245098"><ele>235.5</ele><time>2026-04-26T14:50:10Z</time></trkpt><trkpt lat="40.59027216622868" lon="15.331164209244813"><ele>243.0</ele><time>2026-04-26T14:50:11Z</time></trkpt><trkpt lat="40.59011272032616" lon="15.331502040384125"><ele>243.0</ele><time>2026-04-26T14:50:12Z</time></trkpt><trkpt lat="40.5899520688091" lon="15.331831934373433"><ele>243.0</ele><time>2026-04-26T14:50:13Z</time></trkpt><trkpt lat="40.58978277948276" lon="15.33215313931927"><ele>254.5</ele><time>2026-04-26T14:50:14Z</time></trkpt><trkpt lat="40.589605397713676" lon="15.332466771839963"><ele>266.0</ele><time>2026-04-26T14:50:15Z</time></trkpt><trkpt lat="40.589420529071035" lon="15.332774517874617"><ele>252.0</ele><time>2026-04-26T14:50:16Z</time></trkpt><trkpt lat="40.58923017564321" lon="15.333076627192494"><ele>238.0</ele><time>2026-04-26T14:50:17Z</time></trkpt><trkpt lat="40.58903167995918" lon="15.333372356616126"><ele>238.0</ele><time>2026-04-26T14:50:18Z</time></trkpt><trkpt lat="40.588830291409515" lon="15.333664248194276"><ele>238.0</ele><time>2026-04-26T14:50:19Z</time></trkpt><trkpt lat="40.588627680655485" lon="15.33395115034462"><ele>253.0</ele><time>2026-04-26T14:50:20Z</time></trkpt><trkpt lat="40.58842185466479" lon="15.334238697139464"><ele>268.0</ele><time>2026-04-26T14:50:21Z</time></trkpt><trkpt lat="40.58821719173425" lon="15.334527954997808"><ele>274.5</ele><time>2026-04-26T14:50:22Z</time></trkpt><trkpt lat="40.58801660067365" lon="15.334817402098237"><ele>281.0</ele><time>2026-04-26T14:50:23Z</time></trkpt><trkpt lat="40.58781903280875" lon="15.335109786581308"><ele>281.0</ele><time>2026-04-26T14:50:24Z</time></trkpt><trkpt lat="40.587622490206606" lon="15.33540805451655"><ele>281.0</ele><time>2026-04-26T14:50:25Z</time></trkpt><trkpt lat="40.58742898357316" lon="15.335711513239243"><ele>262.5</ele><time>2026-04-26T14:50:26Z</time></trkpt><trkpt lat="40.58723983378188" lon="15.336014720858408"><ele>244.0</ele><time>2026-04-26T14:50:27Z</time></trkpt><trkpt lat="40.587051723523416" lon="15.336317605959206"><ele>260.0</ele><time>2026-04-26T14:50:28Z</time></trkpt><trkpt lat="40.58686179241696" lon="15.336621009185961"><ele>276.0</ele><time>2026-04-26T14:50:29Z</time></trkpt><trkpt lat="40.58667120901048" lon="15.33692384337542"><ele>262.5</ele><time>2026-04-26T14:50:30Z</time></trkpt><trkpt lat="40.5864779312458" lon="15.337226290304157"><ele>249.0</ele><time>2026-04-26T14:50:31Z</time></trkpt><trkpt lat="40.586284064747105" lon="15.337531669633657"><ele>256.0</ele><time>2026-04-26T14:50:32Z</time></trkpt><trkpt lat="40.5860924968773" lon="15.337836297430238"><ele>263.0</ele><time>2026-04-26T14:50:33Z</time></trkpt><trkpt lat="40.58590354155366" lon="15.338145311979886"><ele>263.0</ele><time>2026-04-26T14:50:34Z</time></trkpt><trkpt lat="40.58571802826722" lon="15.338455734464203"><ele>263.0</ele><time>2026-04-26T14:50:35Z</time></trkpt><trkpt lat="40.58553450906438" lon="15.338765999188865"><ele>270.0</ele><time>2026-04-26T14:50:36Z</time></trkpt><trkpt lat="40.58534834691659" lon="15.339076254314234"><ele>277.0</ele><time>2026-04-26T14:50:37Z</time></trkpt><trkpt lat="40.58516169562374" lon="15.339382614413642"><ele>277.0</ele><time>2026-04-26T14:50:38Z</time></trkpt><trkpt lat="40.58496622422466" lon="15.339682433616533"><ele>277.0</ele><time>2026-04-26T14:50:39Z</time></trkpt><trkpt lat="40.5847653276094" lon="15.339975613647786"><ele>278.5</ele><time>2026-04-26T14:50:40Z</time></trkpt><trkpt lat="40.58455844837882" lon="15.340257691888173"><ele>280.0</ele><time>2026-04-26T14:50:41Z</time></trkpt><trkpt lat="40.58434265816654" lon="15.340530623428544"><ele>270.5</ele><time>2026-04-26T14:50:42Z</time></trkpt><trkpt lat="40.584118986479844" lon="15.340797368588019"><ele>261.0</ele><time>2026-04-26T14:50:43Z</time></trkpt><trkpt lat="40.58389030757668" lon="15.34105652511152"><ele>259.5</ele><time>2026-04-26T14:50:44.001Z</time></trkpt><trkpt lat="40.58365840602467" lon="15.341307709540294"><ele>258.0</ele><time>2026-04-26T14:50:45.001Z</time></trkpt><trkpt lat="40.58341925871805" lon="15.341548080396526"><ele>258.0</ele><time>2026-04-26T14:50:46.001Z</time></trkpt><trkpt lat="40.5831745659486" lon="15.341773764038033"><ele>258.0</ele><time>2026-04-26T14:50:47.001Z</time></trkpt><trkpt lat="40.582923786726475" lon="15.34199306982671"><ele>271.5</ele><time>2026-04-26T14:50:48.001Z</time></trkpt><trkpt lat="40.58266910959081" lon="15.342203001420012"><ele>285.0</ele><time>2026-04-26T14:50:49.001Z</time></trkpt><trkpt lat="40.582406850974266" lon="15.342402585212689"><ele>285.0</ele><time>2026-04-26T14:50:50.001Z</time></trkpt><trkpt lat="40.582138893052054" lon="15.342590116122913"><ele>285.0</ele><time>2026-04-26T14:50:51.001Z</time></trkpt><trkpt lat="40.5818659687228" lon="15.342767822083728"><ele>315.0</ele><time>2026-04-26T14:50:52Z</time></trkpt><trkpt lat="40.58158799340261" lon="15.342934177947841"><ele>345.0</ele><time>2026-04-26T14:50:53Z</time></trkpt><trkpt lat="40.58130492846095" lon="15.343089814685749"><ele>370.0</ele><time>2026-04-26T14:50:54Z</time></trkpt><trkpt lat="40.58101814175922" lon="15.343239524671672"><ele>395.0</ele><time>2026-04-26T14:50:55Z</time></trkpt><trkpt lat="40.58070890624294" lon="15.34340179190632"><ele>395.0</ele><time>2026-04-26T14:50:56.074Z</time></trkpt><trkpt lat="40.580420203958106" lon="15.343548008280612"><ele>395.0</ele><time>2026-04-26T14:50:57.059Z</time></trkpt><trkpt lat="40.58012492645027" lon="15.343694756685803"><ele>278.0</ele><time>2026-04-26T14:50:58.059Z</time></trkpt><trkpt lat="40.577545014412884" lon="15.3449313531741"><ele>278.0</ele><time>2026-04-26T14:51:02.831Z</time></trkpt><trkpt lat="40.5770946" lon="15.3451508"><ele>228.0</ele><time>2026-04-26T14:51:03.832Z</time></trkpt><trkpt lat="40.57617516193767" lon="15.345662114805828"><ele>228.0</ele><time>2026-04-26T14:51:13Z</time></trkpt><trkpt lat="40.57576194583159" lon="15.345704634432568"><ele>228.0</ele><time>2026-04-26T14:51:14Z</time></trkpt><trkpt lat="40.57542892388547" lon="15.345920165279596"><ele>227.5</ele><time>2026-04-26T14:51:15Z</time></trkpt><trkpt lat="40.57513590647434" lon="15.346077196740856"><ele>227.0</ele><time>2026-04-26T14:51:16Z</time></trkpt><trkpt lat="40.574846862147446" lon="15.346233285422137"><ele>233.0</ele><time>2026-04-26T14:51:17Z</time></trkpt><trkpt lat="40.57457861675663" lon="15.346401822110142"><ele>239.0</ele><time>2026-04-26T14:51:18Z</time></trkpt><trkpt lat="40.57432341141889" lon="15.346592871730959"><ele>239.0</ele><time>2026-04-26T14:51:19Z</time></trkpt><trkpt lat="40.57407393105775" lon="15.346803597871224"><ele>239.0</ele><time>2026-04-26T14:51:20Z</time></trkpt><trkpt lat="40.573833645731945" lon="15.34702872458996"><ele>242.5</ele><time>2026-04-26T14:51:21Z</time></trkpt><trkpt lat="40.57360179769991" lon="15.347273474957353"><ele>246.0</ele><time>2026-04-26T14:51:22Z</time></trkpt><trkpt lat="40.57337297897209" lon="15.347525651494738"><ele>246.0</ele><time>2026-04-26T14:51:23Z</time></trkpt><trkpt lat="40.573147468640464" lon="15.34778092060119"><ele>246.0</ele><time>2026-04-26T14:51:24Z</time></trkpt><trkpt lat="40.57292104051837" lon="15.348039239029152"><ele>244.0</ele><time>2026-04-26T14:51:25Z</time></trkpt><trkpt lat="40.57269392624323" lon="15.348298259561744"><ele>242.0</ele><time>2026-04-26T14:51:26Z</time></trkpt><trkpt lat="40.57246987593696" lon="15.348558049939136"><ele>242.0</ele><time>2026-04-26T14:51:27Z</time></trkpt><trkpt lat="40.57224477073773" lon="15.34881778591805"><ele>242.0</ele><time>2026-04-26T14:51:28Z</time></trkpt><trkpt lat="40.57201730823647" lon="15.34907661499039"><ele>236.0</ele><time>2026-04-26T14:51:29Z</time></trkpt><trkpt lat="40.57179179362385" lon="15.349337090790847"><ele>230.0</ele><time>2026-04-26T14:51:30Z</time></trkpt><trkpt lat="40.57156655720757" lon="15.349597820902105"><ele>229.5</ele><time>2026-04-26T14:51:31Z</time></trkpt><trkpt lat="40.57134207302297" lon="15.34985734515263"><ele>229.0</ele><time>2026-04-26T14:51:32Z</time></trkpt><trkpt lat="40.57111544616593" lon="15.350112413105442"><ele>230.0</ele><time>2026-04-26T14:51:33Z</time></trkpt><trkpt lat="40.570890210217684" lon="15.350368005729537"><ele>231.0</ele><time>2026-04-26T14:51:34Z</time></trkpt><trkpt lat="40.57066897586005" lon="15.350631572299573"><ele>237.5</ele><time>2026-04-26T14:51:35Z</time></trkpt><trkpt lat="40.5704532102481" lon="15.350903150356908"><ele>244.0</ele><time>2026-04-26T14:51:36Z</time></trkpt><trkpt lat="40.57024471839962" lon="15.351184332226314"><ele>247.0</ele><time>2026-04-26T14:51:37Z</time></trkpt><trkpt lat="40.57004633870601" lon="15.351476468165165"><ele>250.0</ele><time>2026-04-26T14:51:38Z</time></trkpt><trkpt lat="40.569856254404904" lon="15.351779225045949"><ele>250.0</ele><time>2026-04-26T14:51:39Z</time></trkpt><trkpt lat="40.56967395549301" lon="15.352089553422834"><ele>250.0</ele><time>2026-04-26T14:51:40Z</time></trkpt><trkpt lat="40.56950180418121" lon="15.352406979951006"><ele>254.5</ele><time>2026-04-26T14:51:41Z</time></trkpt><trkpt lat="40.569338867511966" lon="15.352734030188133"><ele>259.0</ele><time>2026-04-26T14:51:42Z</time></trkpt><trkpt lat="40.56918595954725" lon="15.353068367649296"><ele>264.0</ele><time>2026-04-26T14:51:43Z</time></trkpt><trkpt lat="40.56904030916549" lon="15.353408998781585"><ele>269.0</ele><time>2026-04-26T14:51:44Z</time></trkpt><trkpt lat="40.568904015699474" lon="15.35375687206045"><ele>273.5</ele><time>2026-04-26T14:51:45Z</time></trkpt><trkpt lat="40.56877980298115" lon="15.354112585345998"><ele>278.0</ele><time>2026-04-26T14:51:46Z</time></trkpt><trkpt lat="40.56866363381708" lon="15.354476793793765"><ele>290.5</ele><time>2026-04-26T14:51:47Z</time></trkpt><trkpt lat="40.56855699837557" lon="15.35484481879082"><ele>303.0</ele><time>2026-04-26T14:51:48Z</time></trkpt><trkpt lat="40.56846004646041" lon="15.355218778071126"><ele>310.5</ele><time>2026-04-26T14:51:49Z</time></trkpt><trkpt lat="40.568373664591476" lon="15.355597642845016"><ele>318.0</ele><time>2026-04-26T14:51:50Z</time></trkpt><trkpt lat="40.56829635271243" lon="15.35598148243017"><ele>318.0</ele><time>2026-04-26T14:51:51Z</time></trkpt><trkpt lat="40.56822691338479" lon="15.356368340537477"><ele>318.0</ele><time>2026-04-26T14:51:52Z</time></trkpt><trkpt lat="40.568157480512866" lon="15.356782906523712"><ele>327.0</ele><time>2026-04-26T14:51:53.069Z</time></trkpt><trkpt lat="40.568096579931364" lon="15.357171279380427"><ele>336.0</ele><time>2026-04-26T14:51:54.069Z</time></trkpt><trkpt lat="40.56803749783302" lon="15.357559183172107"><ele>350.5</ele><time>2026-04-26T14:51:55.064Z</time></trkpt><trkpt lat="40.56797771449905" lon="15.357946599597968"><ele>365.0</ele><time>2026-04-26T14:51:56.059Z</time></trkpt><trkpt lat="40.567915696683926" lon="15.358334936979265"><ele>385.5</ele><time>2026-04-26T14:51:57.063Z</time></trkpt><trkpt lat="40.567856088593985" lon="15.358718334889527"><ele>406.0</ele><time>2026-04-26T14:51:58.056Z</time></trkpt><trkpt lat="40.56536882323483" lon="15.377297427171337"><ele>371.0</ele><time>2026-04-26T14:52:46Z</time></trkpt><trkpt lat="40.5653134577297" lon="15.377609703616592"><ele>336.0</ele><time>2026-04-26T14:52:47Z</time></trkpt><trkpt lat="40.5651413514899" lon="15.37802750685149"><ele>331.5</ele><time>2026-04-26T14:52:48Z</time></trkpt><trkpt lat="40.565024585751274" lon="15.378378437012369"><ele>327.0</ele><time>2026-04-26T14:52:49Z</time></trkpt><trkpt lat="40.56488744760852" lon="15.378720569523457"><ele>322.5</ele><time>2026-04-26T14:52:50Z</time></trkpt><trkpt lat="40.56473549434007" lon="15.379050872893309"><ele>318.0</ele><time>2026-04-26T14:52:51Z</time></trkpt><trkpt lat="40.56457113468563" lon="15.379383409334357"><ele>322.0</ele><time>2026-04-26T14:52:52.001Z</time></trkpt><trkpt lat="40.56439612483145" lon="15.37969953947328"><ele>326.0</ele><time>2026-04-26T14:52:53.001Z</time></trkpt><trkpt lat="40.5642110971017" lon="15.380006254602403"><ele>326.0</ele><time>2026-04-26T14:52:54.001Z</time></trkpt><trkpt lat="40.564014913109325" lon="15.380304257192861"><ele>326.0</ele><time>2026-04-26T14:52:55.001Z</time></trkpt><trkpt lat="40.5638093955717" lon="15.38059124134295"><ele>330.5</ele><time>2026-04-26T14:52:56.001Z</time></trkpt><trkpt lat="40.563597938644676" lon="15.380869995703849"><ele>335.0</ele><time>2026-04-26T14:52:57.001Z</time></trkpt><trkpt lat="40.563378173515495" lon="15.381140616186897"><ele>329.5</ele><time>2026-04-26T14:52:58.001Z</time></trkpt><trkpt lat="40.56315331394474" lon="15.381400892531774"><ele>324.0</ele><time>2026-04-26T14:52:59.001Z</time></trkpt><trkpt lat="40.56292082365303" lon="15.381650513756062"><ele>333.5</ele><time>2026-04-26T14:53:00.001Z</time></trkpt><trkpt lat="40.56268795542206" lon="15.381897440423415"><ele>343.0</ele><time>2026-04-26T14:53:01.001Z</time></trkpt><trkpt lat="40.56245027861316" lon="15.382138723891307"><ele>344.0</ele><time>2026-04-26T14:53:02.001Z</time></trkpt><trkpt lat="40.562208819169086" lon="15.382371975816493"><ele>345.0</ele><time>2026-04-26T14:53:03.001Z</time></trkpt><trkpt lat="40.56196758068085" lon="15.382607400234033"><ele>345.0</ele><time>2026-04-26T14:53:04.001Z</time></trkpt><trkpt lat="40.561731468690105" lon="15.382849220632423"><ele>345.0</ele><time>2026-04-26T14:53:05.001Z</time></trkpt><trkpt lat="40.56150364827505" lon="15.383103738257079"><ele>348.5</ele><time>2026-04-26T14:53:06.001Z</time></trkpt><trkpt lat="40.56128960954504" lon="15.383374852724721"><ele>352.0</ele><time>2026-04-26T14:53:07.001Z</time></trkpt><trkpt lat="40.5610916085568" lon="15.383667918313389"><ele>345.0</ele><time>2026-04-26T14:53:08.001Z</time></trkpt><trkpt lat="40.560906597605126" lon="15.383974727637707"><ele>338.0</ele><time>2026-04-26T14:53:09.001Z</time></trkpt><trkpt lat="40.56073476724404" lon="15.384295090901864"><ele>338.0</ele><time>2026-04-26T14:53:10.001Z</time></trkpt><trkpt lat="40.56057577844777" lon="15.38462682817729"><ele>338.0</ele><time>2026-04-26T14:53:11.001Z</time></trkpt><trkpt lat="40.56043110181585" lon="15.384969438622731"><ele>344.5</ele><time>2026-04-26T14:53:12.001Z</time></trkpt><trkpt lat="40.560300858281806" lon="15.385321616382887"><ele>351.0</ele><time>2026-04-26T14:53:13Z</time></trkpt><trkpt lat="40.56018232752846" lon="15.38568347769613"><ele>351.0</ele><time>2026-04-26T14:53:14Z</time></trkpt><trkpt lat="40.56007107958741" lon="15.386047419539038"><ele>351.0</ele><time>2026-04-26T14:53:15Z</time></trkpt><trkpt lat="40.55996687268055" lon="15.38641604070315"><ele>347.5</ele><time>2026-04-26T14:53:16Z</time></trkpt><trkpt lat="40.55986121995215" lon="15.386786519666535"><ele>344.0</ele><time>2026-04-26T14:53:17Z</time></trkpt><trkpt lat="40.55975476717424" lon="15.387154242132743"><ele>342.0</ele><time>2026-04-26T14:53:18Z</time></trkpt><trkpt lat="40.55964517579803" lon="15.387523173577323"><ele>340.0</ele><time>2026-04-26T14:53:19Z</time></trkpt><trkpt lat="40.5595363965859" lon="15.387891260119495"><ele>343.0</ele><time>2026-04-26T14:53:20Z</time></trkpt><trkpt lat="40.559430600109216" lon="15.388259171940025"><ele>346.0</ele><time>2026-04-26T14:53:21Z</time></trkpt><trkpt lat="40.559326636798254" lon="15.388626995042387"><ele>341.0</ele><time>2026-04-26T14:53:22Z</time></trkpt><trkpt lat="40.559220943560305" lon="15.388995462748262"><ele>336.0</ele><time>2026-04-26T14:53:23Z</time></trkpt><trkpt lat="40.55911297530481" lon="15.389362526255626"><ele>332.5</ele><time>2026-04-26T14:53:24Z</time></trkpt><trkpt lat="40.55900271262822" lon="15.389728791645126"><ele>329.0</ele><time>2026-04-26T14:53:25Z</time></trkpt><trkpt lat="40.55888306892864" lon="15.390088836508458"><ele>329.0</ele><time>2026-04-26T14:53:26Z</time></trkpt><trkpt lat="40.55875184013269" lon="15.390441303000921"><ele>329.0</ele><time>2026-04-26T14:53:27Z</time></trkpt><trkpt lat="40.558607916308254" lon="15.390784583371785"><ele>336.0</ele><time>2026-04-26T14:53:28Z</time></trkpt><trkpt lat="40.55845564538979" lon="15.391123201689908"><ele>343.0</ele><time>2026-04-26T14:53:29Z</time></trkpt><trkpt lat="40.55829605543255" lon="15.39145552875267"><ele>343.0</ele><time>2026-04-26T14:53:30Z</time></trkpt><trkpt lat="40.558126908438794" lon="15.391781068458615"><ele>343.0</ele><time>2026-04-26T14:53:31Z</time></trkpt><trkpt lat="40.55794790485805" lon="15.39209536996514"><ele>342.5</ele><time>2026-04-26T14:53:32Z</time></trkpt><trkpt lat="40.557757426922585" lon="15.392400237480173"><ele>342.0</ele><time>2026-04-26T14:53:33Z</time></trkpt><trkpt lat="40.55756018991834" lon="15.392697722300632"><ele>342.0</ele><time>2026-04-26T14:53:34Z</time></trkpt><trkpt lat="40.55735590214153" lon="15.392988005543716"><ele>342.0</ele><time>2026-04-26T14:53:35Z</time></trkpt><trkpt lat="40.556929317205885" lon="15.393543408537743"><ele>343.0</ele><time>2026-04-26T14:53:37Z</time></trkpt><trkpt lat="40.55671977371078" lon="15.393794493689052"><ele>344.0</ele><time>2026-04-26T14:53:38Z</time></trkpt><trkpt lat="40.55651078779489" lon="15.39404385428757"><ele>347.5</ele><time>2026-04-26T14:53:39Z</time></trkpt><trkpt lat="40.556299976689466" lon="15.394300263153252"><ele>351.0</ele><time>2026-04-26T14:53:40Z</time></trkpt><trkpt lat="40.55608496492396" lon="15.39455981058163"><ele>342.5</ele><time>2026-04-26T14:53:41Z</time></trkpt><trkpt lat="40.55586380151678" lon="15.394817421449348"><ele>334.0</ele><time>2026-04-26T14:53:42Z</time></trkpt><trkpt lat="40.55564185992455" lon="15.395081065560023"><ele>334.0</ele><time>2026-04-26T14:53:43Z</time></trkpt><trkpt lat="40.555424653336175" lon="15.395355723890718"><ele>334.0</ele><time>2026-04-26T14:53:44Z</time></trkpt><trkpt lat="40.55521345931644" lon="15.395637978606285"><ele>334.5</ele><time>2026-04-26T14:53:45Z</time></trkpt><trkpt lat="40.55500734022638" lon="15.395925489339609"><ele>335.0</ele><time>2026-04-26T14:53:46Z</time></trkpt><trkpt lat="40.554806240952225" lon="15.396221266053736"><ele>334.5</ele><time>2026-04-26T14:53:47Z</time></trkpt><trkpt lat="40.554611363793725" lon="15.39652532890925"><ele>334.0</ele><time>2026-04-26T14:53:48Z</time></trkpt><trkpt lat="40.55442733797263" lon="15.396836924477336"><ele>334.0</ele><time>2026-04-26T14:53:49Z</time></trkpt><trkpt lat="40.554250953177394" lon="15.39715442867355"><ele>334.0</ele><time>2026-04-26T14:53:50Z</time></trkpt><trkpt lat="40.55408524839059" lon="15.39748182921869"><ele>321.0</ele><time>2026-04-26T14:53:51Z</time></trkpt><trkpt lat="40.55392685560447" lon="15.397816600315425"><ele>308.0</ele><time>2026-04-26T14:53:52Z</time></trkpt><trkpt lat="40.55377846851746" lon="15.398157275629428"><ele>296.0</ele><time>2026-04-26T14:53:53Z</time></trkpt><trkpt lat="40.55363766940282" lon="15.398502466253946"><ele>284.0</ele><time>2026-04-26T14:53:54Z</time></trkpt><trkpt lat="40.55350084197241" lon="15.39884947403786"><ele>284.0</ele><time>2026-04-26T14:53:55Z</time></trkpt><trkpt lat="40.55336610764024" lon="15.399200345330469"><ele>284.0</ele><time>2026-04-26T14:53:56Z</time></trkpt><trkpt lat="40.55323445153278" lon="15.399555263294031"><ele>292.5</ele><time>2026-04-26T14:53:57Z</time></trkpt><trkpt lat="40.55310475679097" lon="15.39991088662534"><ele>301.0</ele><time>2026-04-26T14:53:58Z</time></trkpt><trkpt lat="40.552973204763965" lon="15.400264115331906"><ele>323.0</ele><time>2026-04-26T14:53:59Z</time></trkpt><trkpt lat="40.552840592428005" lon="15.400616672981721"><ele>345.0</ele><time>2026-04-26T14:54:00Z</time></trkpt><trkpt lat="40.552708951769894" lon="15.400969543202763"><ele>345.0</ele><time>2026-04-26T14:54:01Z</time></trkpt><trkpt lat="40.55257933109816" lon="15.401324519224165"><ele>345.0</ele><time>2026-04-26T14:54:02Z</time></trkpt><trkpt lat="40.55244901186295" lon="15.401679954775728"><ele>342.0</ele><time>2026-04-26T14:54:03Z</time></trkpt><trkpt lat="40.55231548333454" lon="15.402034656709796"><ele>339.0</ele><time>2026-04-26T14:54:04Z</time></trkpt><trkpt lat="40.55218315602927" lon="15.402387715942229"><ele>342.0</ele><time>2026-04-26T14:54:05Z</time></trkpt><trkpt lat="40.552048279912036" lon="15.402742332557436"><ele>345.0</ele><time>2026-04-26T14:54:06Z</time></trkpt><trkpt lat="40.55191631790903" lon="15.403096193615692"><ele>345.0</ele><time>2026-04-26T14:54:07Z</time></trkpt><trkpt lat="40.551785168139645" lon="15.403451771713026"><ele>345.0</ele><time>2026-04-26T14:54:08Z</time></trkpt><trkpt lat="40.551654891000155" lon="15.403807015942421"><ele>340.0</ele><time>2026-04-26T14:54:09Z</time></trkpt><trkpt lat="40.551522484679545" lon="15.404159499717696"><ele>335.0</ele><time>2026-04-26T14:54:10Z</time></trkpt><trkpt lat="40.551388636113394" lon="15.404511727562006"><ele>330.5</ele><time>2026-04-26T14:54:11Z</time></trkpt><trkpt lat="40.55125570102921" lon="15.404864586537999"><ele>326.0</ele><time>2026-04-26T14:54:12Z</time></trkpt><trkpt lat="40.55112251053334" lon="15.405214307716912"><ele>335.0</ele><time>2026-04-26T14:54:13Z</time></trkpt><trkpt lat="40.55098060222162" lon="15.405560018576697"><ele>344.0</ele><time>2026-04-26T14:54:14Z</time></trkpt><trkpt lat="40.55083889087011" lon="15.405904887747887"><ele>344.0</ele><time>2026-04-26T14:54:15Z</time></trkpt><trkpt lat="40.550693007185814" lon="15.406248671333783"><ele>344.0</ele><time>2026-04-26T14:54:16Z</time></trkpt><trkpt lat="40.55054286598494" lon="15.406587585032305"><ele>347.5</ele><time>2026-04-26T14:54:17Z</time></trkpt><trkpt lat="40.550388090579695" lon="15.40692559656252"><ele>351.0</ele><time>2026-04-26T14:54:18Z</time></trkpt><trkpt lat="40.55023074241107" lon="15.407260104986978"><ele>351.0</ele><time>2026-04-26T14:54:19Z</time></trkpt><trkpt lat="40.55006864167372" lon="15.407590297607578"><ele>351.0</ele><time>2026-04-26T14:54:20Z</time></trkpt><trkpt lat="40.549903654557795" lon="15.407918256565258"><ele>342.5</ele><time>2026-04-26T14:54:21Z</time></trkpt><trkpt lat="40.54973343415849" lon="15.408242328203881"><ele>334.0</ele><time>2026-04-26T14:54:22Z</time></trkpt><trkpt lat="40.54955748536838" lon="15.408560931579675"><ele>340.0</ele><time>2026-04-26T14:54:23Z</time></trkpt><trkpt lat="40.5493763461746" lon="15.40887685980251"><ele>346.0</ele><time>2026-04-26T14:54:24Z</time></trkpt><trkpt lat="40.54919493261249" lon="15.409194081522157"><ele>346.0</ele><time>2026-04-26T14:54:25Z</time></trkpt><trkpt lat="40.54901303787436" lon="15.409506654961762"><ele>346.0</ele><time>2026-04-26T14:54:26Z</time></trkpt><trkpt lat="40.54882717493969" lon="15.409815163059259"><ele>349.5</ele><time>2026-04-26T14:54:27Z</time></trkpt><trkpt lat="40.548638051239074" lon="15.410118838444506"><ele>353.0</ele><time>2026-04-26T14:54:28Z</time></trkpt><trkpt lat="40.54844773221497" lon="15.410423366239554"><ele>344.0</ele><time>2026-04-26T14:54:29Z</time></trkpt><trkpt lat="40.548255438796694" lon="15.410729745324186"><ele>335.0</ele><time>2026-04-26T14:54:30Z</time></trkpt><trkpt lat="40.5480631876704" lon="15.41103393896162"><ele>341.0</ele><time>2026-04-26T14:54:31Z</time></trkpt><trkpt lat="40.54787141035523" lon="15.411335378167053"><ele>347.0</ele><time>2026-04-26T14:54:32Z</time></trkpt><trkpt lat="40.54767792350943" lon="15.411639429643605"><ele>347.0</ele><time>2026-04-26T14:54:33Z</time></trkpt><trkpt lat="40.54748696837991" lon="15.41193493273029"><ele>347.0</ele><time>2026-04-26T14:54:34Z</time></trkpt><trkpt lat="40.547289067853214" lon="15.412231446988171"><ele>350.5</ele><time>2026-04-26T14:54:35Z</time></trkpt><trkpt lat="40.547087419081265" lon="15.41251918207337"><ele>354.0</ele><time>2026-04-26T14:54:36Z</time></trkpt><trkpt lat="40.54688011198769" lon="15.412802679424471"><ele>349.0</ele><time>2026-04-26T14:54:37Z</time></trkpt><trkpt lat="40.546666391691346" lon="15.413076636028178"><ele>344.0</ele><time>2026-04-26T14:54:38Z</time></trkpt><trkpt lat="40.54644647720379" lon="15.413342314934493"><ele>344.0</ele><time>2026-04-26T14:54:39Z</time></trkpt><trkpt lat="40.546220008723346" lon="15.413600091884637"><ele>344.0</ele><time>2026-04-26T14:54:40Z</time></trkpt><trkpt lat="40.5459864201509" lon="15.413844590439142"><ele>349.0</ele><time>2026-04-26T14:54:41Z</time></trkpt><trkpt lat="40.545746172327135" lon="15.414078693878869"><ele>354.0</ele><time>2026-04-26T14:54:42Z</time></trkpt><trkpt lat="40.54550032715169" lon="15.41430589130245"><ele>353.5</ele><time>2026-04-26T14:54:43Z</time></trkpt><trkpt lat="40.545247218309434" lon="15.414520650545349"><ele>353.0</ele><time>2026-04-26T14:54:44Z</time></trkpt><trkpt lat="40.54498854305597" lon="15.414725908754036"><ele>353.0</ele><time>2026-04-26T14:54:45Z</time></trkpt><trkpt lat="40.54472569636422" lon="15.41492182943031"><ele>353.0</ele><time>2026-04-26T14:54:46Z</time></trkpt><trkpt lat="40.54446037989136" lon="15.41510778740284"><ele>358.5</ele><time>2026-04-26T14:54:47Z</time></trkpt><trkpt lat="40.544191061786435" lon="15.41528237419085"><ele>364.0</ele><time>2026-04-26T14:54:48Z</time></trkpt><trkpt lat="40.543919137166036" lon="15.41544551297557"><ele>360.5</ele><time>2026-04-26T14:54:49Z</time></trkpt><trkpt lat="40.54364332922747" lon="15.415601720679932"><ele>357.0</ele><time>2026-04-26T14:54:50Z</time></trkpt><trkpt lat="40.54336631033114" lon="15.4157525726768"><ele>357.0</ele><time>2026-04-26T14:54:51Z</time></trkpt><trkpt lat="40.54308979352888" lon="15.415908226489568"><ele>357.0</ele><time>2026-04-26T14:54:52Z</time></trkpt><trkpt lat="40.542816287312434" lon="15.416071451350899"><ele>354.5</ele><time>2026-04-26T14:54:53Z</time></trkpt><trkpt lat="40.542544709837145" lon="15.416238941558602"><ele>352.0</ele><time>2026-04-26T14:54:54Z</time></trkpt><trkpt lat="40.542271847901766" lon="15.41640284283769"><ele>357.0</ele><time>2026-04-26T14:54:55Z</time></trkpt><trkpt lat="40.54199647814921" lon="15.416560281720226"><ele>362.0</ele><time>2026-04-26T14:54:56Z</time></trkpt><trkpt lat="40.5417207124865" lon="15.416713995708367"><ele>362.0</ele><time>2026-04-26T14:54:57.001Z</time></trkpt><trkpt lat="40.54144262130369" lon="15.416860853127261"><ele>362.0</ele><time>2026-04-26T14:54:58.001Z</time></trkpt><trkpt lat="40.541164935697324" lon="15.417012659815066"><ele>360.5</ele><time>2026-04-26T14:54:59.001Z</time></trkpt><trkpt lat="40.54088744456764" lon="15.41716434586861"><ele>359.0</ele><time>2026-04-26T14:55:00.001Z</time></trkpt><trkpt lat="40.540609744021936" lon="15.417317366046479"><ele>363.5</ele><time>2026-04-26T14:55:01.001Z</time></trkpt><trkpt lat="40.5403356467023" lon="15.417475673428472"><ele>368.0</ele><time>2026-04-26T14:55:02.001Z</time></trkpt><trkpt lat="40.54006552216921" lon="15.417641261041007"><ele>368.0</ele><time>2026-04-26T14:55:03.001Z</time></trkpt><trkpt lat="40.539799341816746" lon="15.417818436833212"><ele>368.0</ele><time>2026-04-26T14:55:04.001Z</time></trkpt><trkpt lat="40.53953818147762" lon="15.418001138948489"><ele>368.0</ele><time>2026-04-26T14:55:05Z</time></trkpt><trkpt lat="40.53927929957832" lon="15.418198501789513"><ele>368.0</ele><time>2026-04-26T14:55:06Z</time></trkpt><trkpt lat="40.53902345506602" lon="15.418402111958418"><ele>368.0</ele><time>2026-04-26T14:55:07Z</time></trkpt><trkpt lat="40.5387692289006" lon="15.418615355774689"><ele>368.0</ele><time>2026-04-26T14:55:08Z</time></trkpt><trkpt lat="40.53852222209315" lon="15.418838763606873"><ele>369.5</ele><time>2026-04-26T14:55:09Z</time></trkpt><trkpt lat="40.53827796103791" lon="15.419067153318812"><ele>371.0</ele><time>2026-04-26T14:55:10Z</time></trkpt><trkpt lat="40.538035513308834" lon="15.41929586559328"><ele>372.5</ele><time>2026-04-26T14:55:11Z</time></trkpt><trkpt lat="40.53779197231585" lon="15.41952406208034"><ele>374.0</ele><time>2026-04-26T14:55:12Z</time></trkpt><trkpt lat="40.537547945143714" lon="15.419752852260215"><ele>374.0</ele><time>2026-04-26T14:55:13Z</time></trkpt><trkpt lat="40.53730319071949" lon="15.41998284664006"><ele>374.0</ele><time>2026-04-26T14:55:14Z</time></trkpt><trkpt lat="40.53705861875422" lon="15.420213056720735"><ele>377.5</ele><time>2026-04-26T14:55:15Z</time></trkpt><trkpt lat="40.5368149147895" lon="15.42044553959929"><ele>381.0</ele><time>2026-04-26T14:55:16Z</time></trkpt><trkpt lat="40.53657320195397" lon="15.420680480267837"><ele>381.0</ele><time>2026-04-26T14:55:17Z</time></trkpt><trkpt lat="40.53633019230019" lon="15.420915970972665"><ele>381.0</ele><time>2026-04-26T14:55:18Z</time></trkpt><trkpt lat="40.53608556747666" lon="15.421151296165641"><ele>396.0</ele><time>2026-04-26T14:55:19Z</time></trkpt><trkpt lat="40.53584075284192" lon="15.421387692728992"><ele>411.0</ele><time>2026-04-26T14:55:20Z</time></trkpt><trkpt lat="40.53559605620316" lon="15.42162499987385"><ele>428.5</ele><time>2026-04-26T14:55:21Z</time></trkpt><trkpt lat="40.53535104739303" lon="15.421861632673806"><ele>446.0</ele><time>2026-04-26T14:55:22Z</time></trkpt><trkpt lat="40.53510568030625" lon="15.422097465868122"><ele>442.5</ele><time>2026-04-26T14:55:23Z</time></trkpt><trkpt lat="40.53486138181995" lon="15.422334955383702"><ele>439.0</ele><time>2026-04-26T14:55:24Z</time></trkpt><trkpt lat="40.534620926153885" lon="15.422578685468718"><ele>439.5</ele><time>2026-04-26T14:55:25Z</time></trkpt><trkpt lat="40.534380798696695" lon="15.422823198620032"><ele>440.0</ele><time>2026-04-26T14:55:26Z</time></trkpt><trkpt lat="40.53421384550429" lon="15.423126792184972"><ele>440.0</ele><time>2026-04-26T14:55:27Z</time></trkpt><trkpt lat="40.53397134573221" lon="15.423373612773522"><ele>440.0</ele><time>2026-04-26T14:55:28Z</time></trkpt><trkpt lat="40.53375794429476" lon="15.423599414691036"><ele>415.5</ele><time>2026-04-26T14:55:29Z</time></trkpt><trkpt lat="40.53349675981816" lon="15.423895905559265"><ele>391.0</ele><time>2026-04-26T14:55:30Z</time></trkpt><trkpt lat="40.53320017271174" lon="15.424264553794927"><ele>390.0</ele><time>2026-04-26T14:55:31Z</time></trkpt><trkpt lat="40.53288523718103" lon="15.424659336770722"><ele>389.0</ele><time>2026-04-26T14:55:32Z</time></trkpt><trkpt lat="40.532792713430425" lon="15.425014155165977"><ele>389.0</ele><time>2026-04-26T14:55:33Z</time></trkpt><trkpt lat="40.532641372702116" lon="15.425136223206495"><ele>389.0</ele><time>2026-04-26T14:55:34Z</time></trkpt><trkpt lat="40.53244519263066" lon="15.425300760353148"><ele>389.0</ele><time>2026-04-26T14:55:35Z</time></trkpt><trkpt lat="40.53228240579116" lon="15.425599547791366"><ele>383.0</ele><time>2026-04-26T14:55:36Z</time></trkpt><trkpt lat="40.53210860715709" lon="15.425903744316326"><ele>377.0</ele><time>2026-04-26T14:55:37Z</time></trkpt><trkpt lat="40.531944404919585" lon="15.426223842486928"><ele>387.0</ele><time>2026-04-26T14:55:38Z</time></trkpt><trkpt lat="40.531774334134575" lon="15.426546044773108"><ele>397.0</ele><time>2026-04-26T14:55:39Z</time></trkpt><trkpt lat="40.53160135428322" lon="15.426872521075934"><ele>387.0</ele><time>2026-04-26T14:55:40Z</time></trkpt><trkpt lat="40.53142157863687" lon="15.42719274642821"><ele>377.0</ele><time>2026-04-26T14:55:41Z</time></trkpt><trkpt lat="40.53124895350339" lon="15.427513925832224"><ele>379.5</ele><time>2026-04-26T14:55:42Z</time></trkpt><trkpt lat="40.53108885134497" lon="15.427846050419827"><ele>382.0</ele><time>2026-04-26T14:55:43Z</time></trkpt><trkpt lat="40.530937739336125" lon="15.428179806206725"><ele>382.0</ele><time>2026-04-26T14:55:44Z</time></trkpt><trkpt lat="40.530789758251224" lon="15.428521307433941"><ele>382.0</ele><time>2026-04-26T14:55:45Z</time></trkpt><trkpt lat="40.53065253079674" lon="15.428867068280821"><ele>362.5</ele><time>2026-04-26T14:55:46Z</time></trkpt><trkpt lat="40.53052514186158" lon="15.429219934209941"><ele>343.0</ele><time>2026-04-26T14:55:47Z</time></trkpt><trkpt lat="40.53041264157384" lon="15.429582297982284"><ele>339.0</ele><time>2026-04-26T14:55:48Z</time></trkpt><trkpt lat="40.53031181477523" lon="15.429952496705747"><ele>335.0</ele><time>2026-04-26T14:55:49Z</time></trkpt><trkpt lat="40.53022295807786" lon="15.430326505285665"><ele>319.0</ele><time>2026-04-26T14:55:50Z</time></trkpt><trkpt lat="40.53014254513039" lon="15.430704547071374"><ele>303.0</ele><time>2026-04-26T14:55:51Z</time></trkpt><trkpt lat="40.53007573293463" lon="15.431086278691904"><ele>295.5</ele><time>2026-04-26T14:55:52Z</time></trkpt><trkpt lat="40.530021690040805" lon="15.431472412299222"><ele>288.0</ele><time>2026-04-26T14:55:53Z</time></trkpt><trkpt lat="40.529975129158714" lon="15.431859464877956"><ele>293.5</ele><time>2026-04-26T14:55:54Z</time></trkpt><trkpt lat="40.52994054022875" lon="15.432250191240756"><ele>299.0</ele><time>2026-04-26T14:55:55Z</time></trkpt><trkpt lat="40.52991618711475" lon="15.432642252332549"><ele>312.0</ele><time>2026-04-26T14:55:56Z</time></trkpt><trkpt lat="40.52990488172249" lon="15.43303609322669"><ele>325.0</ele><time>2026-04-26T14:55:57Z</time></trkpt><trkpt lat="40.52990705294717" lon="15.433427360366803"><ele>344.0</ele><time>2026-04-26T14:55:58Z</time></trkpt><trkpt lat="40.529921055425696" lon="15.433819286897043"><ele>363.0</ele><time>2026-04-26T14:55:59Z</time></trkpt><trkpt lat="40.52994435142768" lon="15.43421014024481"><ele>363.0</ele><time>2026-04-26T14:56:00Z</time></trkpt><trkpt lat="40.529978453058646" lon="15.434598548311763"><ele>363.0</ele><time>2026-04-26T14:56:01Z</time></trkpt><trkpt lat="40.530026201233376" lon="15.43498480274036"><ele>376.5</ele><time>2026-04-26T14:56:02Z</time></trkpt><trkpt lat="40.53009196292763" lon="15.435368435561575"><ele>390.0</ele><time>2026-04-26T14:56:03Z</time></trkpt><trkpt lat="40.53016701260652" lon="15.435748290392722"><ele>395.0</ele><time>2026-04-26T14:56:04Z</time></trkpt><trkpt lat="40.5302508941942" lon="15.436121531632725"><ele>400.0</ele><time>2026-04-26T14:56:05Z</time></trkpt><trkpt lat="40.53034078365933" lon="15.436493667409096"><ele>391.5</ele><time>2026-04-26T14:56:06Z</time></trkpt><trkpt lat="40.53043365529633" lon="15.436864259622132"><ele>383.0</ele><time>2026-04-26T14:56:07Z</time></trkpt><trkpt lat="40.530528707242496" lon="15.437235274911103"><ele>382.0</ele><time>2026-04-26T14:56:08Z</time></trkpt><trkpt lat="40.53062279019379" lon="15.43760793876184"><ele>381.0</ele><time>2026-04-26T14:56:09Z</time></trkpt><trkpt lat="40.53071680529282" lon="15.43797944252981"><ele>388.0</ele><time>2026-04-26T14:56:10Z</time></trkpt><trkpt lat="40.53081070182696" lon="15.438353766654814"><ele>395.0</ele><time>2026-04-26T14:56:11Z</time></trkpt><trkpt lat="40.530903228522455" lon="15.438726960137718"><ele>403.5</ele><time>2026-04-26T14:56:12Z</time></trkpt><trkpt lat="40.53099353218184" lon="15.439102023926438"><ele>412.0</ele><time>2026-04-26T14:56:13Z</time></trkpt><trkpt lat="40.53107500682694" lon="15.439479513922958"><ele>419.0</ele><time>2026-04-26T14:56:14Z</time></trkpt><trkpt lat="40.531147561892666" lon="15.439860032737258"><ele>426.0</ele><time>2026-04-26T14:56:15Z</time></trkpt><trkpt lat="40.53120873034878" lon="15.440240738282313"><ele>418.0</ele><time>2026-04-26T14:56:16Z</time></trkpt><trkpt lat="40.53126057108809" lon="15.440627060376535"><ele>410.0</ele><time>2026-04-26T14:56:17Z</time></trkpt><trkpt lat="40.53130361319026" lon="15.441017112284916"><ele>407.0</ele><time>2026-04-26T14:56:18Z</time></trkpt><trkpt lat="40.53133372301044" lon="15.441409587751743"><ele>404.0</ele><time>2026-04-26T14:56:19Z</time></trkpt><trkpt lat="40.53135394382605" lon="15.441801413392438"><ele>401.5</ele><time>2026-04-26T14:56:20Z</time></trkpt><trkpt lat="40.53136695500544" lon="15.442191753399879"><ele>399.0</ele><time>2026-04-26T14:56:21Z</time></trkpt><trkpt lat="40.53137179558521" lon="15.442583531677212"><ele>403.5</ele><time>2026-04-26T14:56:22Z</time></trkpt><trkpt lat="40.53137213170184" lon="15.442974423381944"><ele>408.0</ele><time>2026-04-26T14:56:23Z</time></trkpt><trkpt lat="40.53136606098107" lon="15.443369832573879"><ele>408.0</ele><time>2026-04-26T14:56:24Z</time></trkpt><trkpt lat="40.53135539988572" lon="15.443761013165899"><ele>408.0</ele><time>2026-04-26T14:56:25Z</time></trkpt><trkpt lat="40.531340100058884" lon="15.444153712204333"><ele>406.5</ele><time>2026-04-26T14:56:26Z</time></trkpt><trkpt lat="40.53132682031513" lon="15.444548052875883"><ele>405.0</ele><time>2026-04-26T14:56:27Z</time></trkpt><trkpt lat="40.53131164039521" lon="15.444940175519484"><ele>405.0</ele><time>2026-04-26T14:56:28Z</time></trkpt><trkpt lat="40.531294063595425" lon="15.445332054251038"><ele>405.0</ele><time>2026-04-26T14:56:29Z</time></trkpt><trkpt lat="40.53127869552012" lon="15.44572454758962"><ele>400.5</ele><time>2026-04-26T14:56:30Z</time></trkpt><trkpt lat="40.53126428541375" lon="15.446117478821483"><ele>396.0</ele><time>2026-04-26T14:56:31Z</time></trkpt><trkpt lat="40.53125808438833" lon="15.446509132355043"><ele>396.0</ele><time>2026-04-26T14:56:32Z</time></trkpt><trkpt lat="40.531253586259695" lon="15.446900360677777"><ele>396.0</ele><time>2026-04-26T14:56:33Z</time></trkpt><trkpt lat="40.53124581327682" lon="15.447291962467633"><ele>403.5</ele><time>2026-04-26T14:56:34Z</time></trkpt><trkpt lat="40.5312370293254" lon="15.44768356133417"><ele>411.0</ele><time>2026-04-26T14:56:35Z</time></trkpt><trkpt lat="40.53122484169578" lon="15.448075781701828"><ele>431.5</ele><time>2026-04-26T14:56:36Z</time></trkpt><trkpt lat="40.53120873798873" lon="15.448468411902576"><ele>452.0</ele><time>2026-04-26T14:56:37Z</time></trkpt><trkpt lat="40.53119139118082" lon="15.448860195009544"><ele>454.5</ele><time>2026-04-26T14:56:38Z</time></trkpt><trkpt lat="40.5311759108461" lon="15.449252831360022"><ele>457.0</ele><time>2026-04-26T14:56:39Z</time></trkpt><trkpt lat="40.531162492037936" lon="15.449644550088133"><ele>457.5</ele><time>2026-04-26T14:56:40Z</time></trkpt><trkpt lat="40.53115228577731" lon="15.450036002195048"><ele>458.0</ele><time>2026-04-26T14:56:41Z</time></trkpt><trkpt lat="40.531149965851036" lon="15.450428254090417"><ele>456.5</ele><time>2026-04-26T14:56:42Z</time></trkpt><trkpt lat="40.53115671956413" lon="15.45082230982541"><ele>455.0</ele><time>2026-04-26T14:56:43Z</time></trkpt><trkpt lat="40.531173920321" lon="15.451212885330024"><ele>458.5</ele><time>2026-04-26T14:56:44Z</time></trkpt><trkpt lat="40.531200681465755" lon="15.451604424111173"><ele>462.0</ele><time>2026-04-26T14:56:44.999Z</time></trkpt><trkpt lat="40.531235233725404" lon="15.451993947359723"><ele>444.5</ele><time>2026-04-26T14:56:45.999Z</time></trkpt><trkpt lat="40.531277887542046" lon="15.452382792454795"><ele>427.0</ele><time>2026-04-26T14:56:46.999Z</time></trkpt><trkpt lat="40.531327136314566" lon="15.452770246185263"><ele>417.0</ele><time>2026-04-26T14:56:47.999Z</time></trkpt><trkpt lat="40.531389057559146" lon="15.45315810502889"><ele>407.0</ele><time>2026-04-26T14:56:48.999Z</time></trkpt><trkpt lat="40.53145817820549" lon="15.453538412691602"><ele>407.0</ele><time>2026-04-26T14:56:49.999Z</time></trkpt><trkpt lat="40.531539078848034" lon="15.45391583488433"><ele>407.0</ele><time>2026-04-26T14:56:50.999Z</time></trkpt><trkpt lat="40.531626828346226" lon="15.454289948315163"><ele>421.5</ele><time>2026-04-26T14:56:51.999Z</time></trkpt><trkpt lat="40.53172517266239" lon="15.454658208712434"><ele>436.0</ele><time>2026-04-26T14:56:52.999Z</time></trkpt><trkpt lat="40.53183345250737" lon="15.45502353068586"><ele>436.0</ele><time>2026-04-26T14:56:53.999Z</time></trkpt><trkpt lat="40.531948515370566" lon="15.45538693027121"><ele>436.0</ele><time>2026-04-26T14:56:54.999Z</time></trkpt><trkpt lat="40.53207160226164" lon="15.455755484394462"><ele>438.0</ele><time>2026-04-26T14:56:55.999Z</time></trkpt><trkpt lat="40.53219274363218" lon="15.456109658771338"><ele>440.0</ele><time>2026-04-26T14:56:56.999Z</time></trkpt><trkpt lat="40.53231932509204" lon="15.456462309359674"><ele>446.5</ele><time>2026-04-26T14:56:57.999Z</time></trkpt><trkpt lat="40.532454482474556" lon="15.456812853972947"><ele>453.0</ele><time>2026-04-26T14:56:58.999Z</time></trkpt><trkpt lat="40.53258971490713" lon="15.457164298870953"><ele>458.5</ele><time>2026-04-26T14:56:59.999Z</time></trkpt><trkpt lat="40.53272328654393" lon="15.45751905859814"><ele>464.0</ele><time>2026-04-26T14:57:00.999Z</time></trkpt><trkpt lat="40.532850706829905" lon="15.457877564789426"><ele>453.0</ele><time>2026-04-26T14:57:01.999Z</time></trkpt><trkpt lat="40.53297021374273" lon="15.45824088966539"><ele>442.0</ele><time>2026-04-26T14:57:03Z</time></trkpt><trkpt lat="40.533079052203455" lon="15.45860810219756"><ele>448.5</ele><time>2026-04-26T14:57:04Z</time></trkpt><trkpt lat="40.53317460951553" lon="15.458981212328585"><ele>455.0</ele><time>2026-04-26T14:57:05Z</time></trkpt><trkpt lat="40.53325204955118" lon="15.459356018491551"><ele>463.5</ele><time>2026-04-26T14:57:06Z</time></trkpt><trkpt lat="40.53332140995362" lon="15.459736649056648"><ele>472.0</ele><time>2026-04-26T14:57:07Z</time></trkpt><trkpt lat="40.53337858432391" lon="15.460122954235882"><ele>478.0</ele><time>2026-04-26T14:57:08Z</time></trkpt><trkpt lat="40.533423147055004" lon="15.46051001110982"><ele>484.0</ele><time>2026-04-26T14:57:09Z</time></trkpt><trkpt lat="40.53345296435385" lon="15.460901305435389"><ele>486.5</ele><time>2026-04-26T14:57:10Z</time></trkpt><trkpt lat="40.533469462422225" lon="15.461294102965818"><ele>489.0</ele><time>2026-04-26T14:57:11Z</time></trkpt><trkpt lat="40.5334742808181" lon="15.461684649041796"><ele>489.0</ele><time>2026-04-26T14:57:12Z</time></trkpt><trkpt lat="40.533469094258514" lon="15.462071303739437"><ele>489.0</ele><time>2026-04-26T14:57:13Z</time></trkpt><trkpt lat="40.533455667315096" lon="15.462454570437371"><ele>489.0</ele><time>2026-04-26T14:57:14Z</time></trkpt><trkpt lat="40.53343487081207" lon="15.46283344440886"><ele>489.0</ele><time>2026-04-26T14:57:15Z</time></trkpt><trkpt lat="40.53341234413349" lon="15.463207904329503"><ele>491.0</ele><time>2026-04-26T14:57:16Z</time></trkpt><trkpt lat="40.53338864848276" lon="15.463602367304219"><ele>493.0</ele><time>2026-04-26T14:57:17.063Z</time></trkpt><trkpt lat="40.533365169814935" lon="15.463967972026378"><ele>493.5</ele><time>2026-04-26T14:57:18.06Z</time></trkpt><trkpt lat="40.533364511703844" lon="15.464331429253281"><ele>494.0</ele><time>2026-04-26T14:57:19.06Z</time></trkpt><trkpt lat="40.53334860560864" lon="15.464690531894156"><ele>473.0</ele><time>2026-04-26T14:57:20.055Z</time></trkpt><trkpt lat="40.53351162139908" lon="15.467018904705933"><ele>472.5</ele><time>2026-04-26T14:57:26Z</time></trkpt><trkpt lat="40.53350588226477" lon="15.467407168286135"><ele>472.0</ele><time>2026-04-26T14:57:27Z</time></trkpt><trkpt lat="40.53334341847139" lon="15.467847722330417"><ele>469.0</ele><time>2026-04-26T14:57:28Z</time></trkpt><trkpt lat="40.53332262282123" lon="15.468297026578268"><ele>466.0</ele><time>2026-04-26T14:57:29Z</time></trkpt><trkpt lat="40.533292861988706" lon="15.468716988332645"><ele>465.0</ele><time>2026-04-26T14:57:30Z</time></trkpt><trkpt lat="40.533255942984376" lon="15.469128671031147"><ele>464.0</ele><time>2026-04-26T14:57:31Z</time></trkpt><trkpt lat="40.53321423391892" lon="15.469543816464666"><ele>462.5</ele><time>2026-04-26T14:57:32Z</time></trkpt><trkpt lat="40.533198148170285" lon="15.469945963026504"><ele>461.0</ele><time>2026-04-26T14:57:33Z</time></trkpt><trkpt lat="40.53318187332238" lon="15.470343400483575"><ele>460.5</ele><time>2026-04-26T14:57:34Z</time></trkpt><trkpt lat="40.53315760903729" lon="15.470731788828555"><ele>460.0</ele><time>2026-04-26T14:57:35Z</time></trkpt><trkpt lat="40.53312961353477" lon="15.471130348292506"><ele>460.0</ele><time>2026-04-26T14:57:36Z</time></trkpt><trkpt lat="40.53307060294209" lon="15.471508040834808"><ele>460.0</ele><time>2026-04-26T14:57:37Z</time></trkpt><trkpt lat="40.533011616867086" lon="15.471893514565533"><ele>454.5</ele><time>2026-04-26T14:57:38Z</time></trkpt><trkpt lat="40.53293961288562" lon="15.472277502923387"><ele>449.0</ele><time>2026-04-26T14:57:39Z</time></trkpt><trkpt lat="40.53285917186665" lon="15.472661630166703"><ele>470.5</ele><time>2026-04-26T14:57:40Z</time></trkpt><trkpt lat="40.53278474411265" lon="15.47304278741728"><ele>492.0</ele><time>2026-04-26T14:57:41Z</time></trkpt><trkpt lat="40.532712163345344" lon="15.473425587517239"><ele>487.5</ele><time>2026-04-26T14:57:42Z</time></trkpt><trkpt lat="40.53264342179207" lon="15.473809489127463"><ele>483.0</ele><time>2026-04-26T14:57:43Z</time></trkpt><trkpt lat="40.532574641393104" lon="15.474190427229619"><ele>483.0</ele><time>2026-04-26T14:57:44Z</time></trkpt><trkpt lat="40.532503213771996" lon="15.474571706386001"><ele>483.0</ele><time>2026-04-26T14:57:45Z</time></trkpt><trkpt lat="40.53243388795854" lon="15.474954034241598"><ele>475.5</ele><time>2026-04-26T14:57:46Z</time></trkpt><trkpt lat="40.53236579129542" lon="15.475338366393038"><ele>468.0</ele><time>2026-04-26T14:57:47Z</time></trkpt><trkpt lat="40.53230726599662" lon="15.47572568366601"><ele>466.0</ele><time>2026-04-26T14:57:48Z</time></trkpt><trkpt lat="40.532261263695084" lon="15.476116046290068"><ele>464.0</ele><time>2026-04-26T14:57:49Z</time></trkpt><trkpt lat="40.53222464823306" lon="15.476508283318493"><ele>463.5</ele><time>2026-04-26T14:57:50Z</time></trkpt><trkpt lat="40.53220278390351" lon="15.476899151094026"><ele>463.0</ele><time>2026-04-26T14:57:51Z</time></trkpt><trkpt lat="40.5321919611569" lon="15.477290700416674"><ele>463.0</ele><time>2026-04-26T14:57:52Z</time></trkpt><trkpt lat="40.532182949002696" lon="15.477683506067965"><ele>463.0</ele><time>2026-04-26T14:57:53Z</time></trkpt><trkpt lat="40.53217274272604" lon="15.478077446044184"><ele>457.0</ele><time>2026-04-26T14:57:54Z</time></trkpt><trkpt lat="40.532161143137984" lon="15.47847030250984"><ele>451.0</ele><time>2026-04-26T14:57:55Z</time></trkpt><trkpt lat="40.532148813476454" lon="15.47886528056436"><ele>447.0</ele><time>2026-04-26T14:57:56Z</time></trkpt><trkpt lat="40.53213905552772" lon="15.479261993819605"><ele>443.0</ele><time>2026-04-26T14:57:57Z</time></trkpt><trkpt lat="40.5321297278358" lon="15.47965546339012"><ele>443.0</ele><time>2026-04-26T14:57:58Z</time></trkpt><trkpt lat="40.532118828555795" lon="15.480049002319252"><ele>443.0</ele><time>2026-04-26T14:57:59Z</time></trkpt><trkpt lat="40.532105437285885" lon="15.480441204867592"><ele>447.0</ele><time>2026-04-26T14:58:00Z</time></trkpt><trkpt lat="40.532083747828814" lon="15.48083377074504"><ele>451.0</ele><time>2026-04-26T14:58:01Z</time></trkpt><trkpt lat="40.53205342916124" lon="15.481224125443608"><ele>449.0</ele><time>2026-04-26T14:58:02Z</time></trkpt><trkpt lat="40.53200881646088" lon="15.481611984367603"><ele>447.0</ele><time>2026-04-26T14:58:03Z</time></trkpt><trkpt lat="40.53195048835015" lon="15.481999134569254"><ele>455.5</ele><time>2026-04-26T14:58:04Z</time></trkpt><trkpt lat="40.531881951109995" lon="15.48238184702258"><ele>464.0</ele><time>2026-04-26T14:58:05Z</time></trkpt><trkpt lat="40.53180211877568" lon="15.482760800679733"><ele>468.0</ele><time>2026-04-26T14:58:06Z</time></trkpt><trkpt lat="40.5317088600401" lon="15.483134244038855"><ele>472.0</ele><time>2026-04-26T14:58:07Z</time></trkpt><trkpt lat="40.531604574904776" lon="15.483503127659127"><ele>475.0</ele><time>2026-04-26T14:58:08Z</time></trkpt><trkpt lat="40.531487913862" lon="15.48386446131383"><ele>478.0</ele><time>2026-04-26T14:58:09Z</time></trkpt><trkpt lat="40.53135894773988" lon="15.484219090954197"><ele>477.5</ele><time>2026-04-26T14:58:10Z</time></trkpt><trkpt lat="40.531221905781806" lon="15.484568498208132"><ele>477.0</ele><time>2026-04-26T14:58:11Z</time></trkpt><trkpt lat="40.531070093380045" lon="15.48490774208612"><ele>477.0</ele><time>2026-04-26T14:58:12Z</time></trkpt><trkpt lat="40.53090873411547" lon="15.485238858644722"><ele>477.0</ele><time>2026-04-26T14:58:13Z</time></trkpt><trkpt lat="40.530734846380994" lon="15.485560095151392"><ele>477.0</ele><time>2026-04-26T14:58:14Z</time></trkpt><trkpt lat="40.53055287090767" lon="15.48587399895307"><ele>477.0</ele><time>2026-04-26T14:58:15Z</time></trkpt><trkpt lat="40.53036214282956" lon="15.48617745991283"><ele>478.5</ele><time>2026-04-26T14:58:16Z</time></trkpt><trkpt lat="40.53016187588841" lon="15.486470372775578"><ele>480.0</ele><time>2026-04-26T14:58:17Z</time></trkpt><trkpt lat="40.529954960090535" lon="15.48675712976383"><ele>480.0</ele><time>2026-04-26T14:58:18Z</time></trkpt><trkpt lat="40.52974296954849" lon="15.487039999062636"><ele>480.0</ele><time>2026-04-26T14:58:19Z</time></trkpt><trkpt lat="40.529528351911445" lon="15.487314520926605"><ele>477.0</ele><time>2026-04-26T14:58:20Z</time></trkpt><trkpt lat="40.529314122475434" lon="15.487588622924816"><ele>474.0</ele><time>2026-04-26T14:58:21Z</time></trkpt><trkpt lat="40.529099262346485" lon="15.487862495063226"><ele>476.0</ele><time>2026-04-26T14:58:22Z</time></trkpt><trkpt lat="40.52888565630658" lon="15.488137387220291"><ele>478.0</ele><time>2026-04-26T14:58:23Z</time></trkpt><trkpt lat="40.52867423340153" lon="15.48841421255259"><ele>478.0</ele><time>2026-04-26T14:58:24Z</time></trkpt><trkpt lat="40.52846051365807" lon="15.4886891858864"><ele>478.0</ele><time>2026-04-26T14:58:25Z</time></trkpt><trkpt lat="40.52824518749122" lon="15.488963629712144"><ele>479.0</ele><time>2026-04-26T14:58:25.999Z</time></trkpt><trkpt lat="40.52802931208797" lon="15.489236765419443"><ele>480.0</ele><time>2026-04-26T14:58:26.999Z</time></trkpt><trkpt lat="40.52781442139473" lon="15.489511004101288"><ele>482.5</ele><time>2026-04-26T14:58:27.999Z</time></trkpt><trkpt lat="40.52760110478256" lon="15.489788490944685"><ele>485.0</ele><time>2026-04-26T14:58:28.999Z</time></trkpt><trkpt lat="40.52739223337787" lon="15.490070302357404"><ele>485.0</ele><time>2026-04-26T14:58:29.999Z</time></trkpt><trkpt lat="40.527186715850945" lon="15.49035897439693"><ele>485.0</ele><time>2026-04-26T14:58:30.999Z</time></trkpt><trkpt lat="40.526989695445046" lon="15.49065785276064"><ele>488.0</ele><time>2026-04-26T14:58:31.999Z</time></trkpt><trkpt lat="40.52680147146704" lon="15.490965060351726"><ele>491.0</ele><time>2026-04-26T14:58:32.999Z</time></trkpt><trkpt lat="40.52662164871221" lon="15.49127983668647"><ele>491.0</ele><time>2026-04-26T14:58:33.999Z</time></trkpt><trkpt lat="40.52645006242808" lon="15.49160236260501"><ele>491.0</ele><time>2026-04-26T14:58:34.999Z</time></trkpt><trkpt lat="40.5262879539501" lon="15.491933986502058"><ele>491.5</ele><time>2026-04-26T14:58:35.999Z</time></trkpt><trkpt lat="40.52613547266459" lon="15.492271675702618"><ele>492.0</ele><time>2026-04-26T14:58:36.999Z</time></trkpt><trkpt lat="40.52599150621808" lon="15.492617842042172"><ele>492.0</ele><time>2026-04-26T14:58:37.999Z</time></trkpt><trkpt lat="40.52585462206912" lon="15.492967706297065"><ele>492.0</ele><time>2026-04-26T14:58:38.999Z</time></trkpt><trkpt lat="40.525728666068964" lon="15.493326263361388"><ele>492.0</ele><time>2026-04-26T14:58:39.999Z</time></trkpt><trkpt lat="40.52561768715078" lon="15.493694060962113"><ele>492.0</ele><time>2026-04-26T14:58:40.999Z</time></trkpt><trkpt lat="40.525513703090766" lon="15.494063806181543"><ele>492.0</ele><time>2026-04-26T14:58:41.999Z</time></trkpt><trkpt lat="40.52541469831336" lon="15.494434383990393"><ele>492.0</ele><time>2026-04-26T14:58:42.999Z</time></trkpt><trkpt lat="40.52531723025037" lon="15.494806773957754"><ele>490.5</ele><time>2026-04-26T14:58:43.999Z</time></trkpt><trkpt lat="40.52521380430559" lon="15.495178483686239"><ele>489.0</ele><time>2026-04-26T14:58:44.999Z</time></trkpt><trkpt lat="40.525112580384345" lon="15.495549751475922"><ele>489.0</ele><time>2026-04-26T14:58:45.999Z</time></trkpt><trkpt lat="40.52501274071095" lon="15.495919422229415"><ele>489.0</ele><time>2026-04-26T14:58:46.999Z</time></trkpt><trkpt lat="40.52491420394123" lon="15.496291860539793"><ele>488.5</ele><time>2026-04-26T14:58:47.999Z</time></trkpt><trkpt lat="40.52481213503772" lon="15.496661698172428"><ele>488.0</ele><time>2026-04-26T14:58:48.999Z</time></trkpt><trkpt lat="40.52470556398384" lon="15.497031573698893"><ele>489.0</ele><time>2026-04-26T14:58:49.999Z</time></trkpt><trkpt lat="40.52459083000051" lon="15.497394136651366"><ele>490.0</ele><time>2026-04-26T14:58:50.999Z</time></trkpt><trkpt lat="40.52446560375" lon="15.497752449794737"><ele>486.0</ele><time>2026-04-26T14:58:51.999Z</time></trkpt><trkpt lat="40.524334808756365" lon="15.4981073341726"><ele>482.0</ele><time>2026-04-26T14:58:52.999Z</time></trkpt><trkpt lat="40.524195994924625" lon="15.498456383779123"><ele>484.0</ele><time>2026-04-26T14:58:53.999Z</time></trkpt><trkpt lat="40.52404698370385" lon="15.498798230289657"><ele>486.0</ele><time>2026-04-26T14:58:54.999Z</time></trkpt><trkpt lat="40.52388873401367" lon="15.499134481431069"><ele>483.5</ele><time>2026-04-26T14:58:55.999Z</time></trkpt><trkpt lat="40.52372009001694" lon="15.499460868689924"><ele>481.0</ele><time>2026-04-26T14:58:56.999Z</time></trkpt><trkpt lat="40.52354189032771" lon="15.499781511130383"><ele>481.0</ele><time>2026-04-26T14:58:57.999Z</time></trkpt><trkpt lat="40.523356682154756" lon="15.500096456140067"><ele>481.0</ele><time>2026-04-26T14:58:58.999Z</time></trkpt><trkpt lat="40.52316658179147" lon="15.500404171155816"><ele>481.0</ele><time>2026-04-26T14:58:59.999Z</time></trkpt><trkpt lat="40.522972162840496" lon="15.500707901550307"><ele>481.0</ele><time>2026-04-26T14:59:00.999Z</time></trkpt><trkpt lat="40.52277402269977" lon="15.501006589598445"><ele>479.5</ele><time>2026-04-26T14:59:01.999Z</time></trkpt><trkpt lat="40.522577658720074" lon="15.501304328365675"><ele>478.0</ele><time>2026-04-26T14:59:02.999Z</time></trkpt><trkpt lat="40.52238030067167" lon="15.501602825965339"><ele>478.0</ele><time>2026-04-26T14:59:03.999Z</time></trkpt><trkpt lat="40.52218265751304" lon="15.501898019534904"><ele>478.0</ele><time>2026-04-26T14:59:04.999Z</time></trkpt><trkpt lat="40.521983666960814" lon="15.502190696871809"><ele>479.5</ele><time>2026-04-26T14:59:05.999Z</time></trkpt><trkpt lat="40.52178455714987" lon="15.50248569159339"><ele>481.0</ele><time>2026-04-26T14:59:06.999Z</time></trkpt><trkpt lat="40.52158696788366" lon="15.502779373855503"><ele>482.5</ele><time>2026-04-26T14:59:08Z</time></trkpt><trkpt lat="40.52139192573157" lon="15.50307500416311"><ele>484.0</ele><time>2026-04-26T14:59:09Z</time></trkpt><trkpt lat="40.521200047200814" lon="15.503376920271172"><ele>482.0</ele><time>2026-04-26T14:59:10Z</time></trkpt><trkpt lat="40.521007245379934" lon="15.503680168412975"><ele>480.0</ele><time>2026-04-26T14:59:11Z</time></trkpt><trkpt lat="40.520813828965004" lon="15.503980686481555"><ele>480.0</ele><time>2026-04-26T14:59:12Z</time></trkpt><trkpt lat="40.5206185768939" lon="15.504278229457396"><ele>480.0</ele><time>2026-04-26T14:59:13Z</time></trkpt><trkpt lat="40.520424235041126" lon="15.504574614941012"><ele>481.5</ele><time>2026-04-26T14:59:14Z</time></trkpt><trkpt lat="40.520228041979706" lon="15.504873314728647"><ele>483.0</ele><time>2026-04-26T14:59:15Z</time></trkpt><trkpt lat="40.52002887868041" lon="15.505166397376817"><ele>484.5</ele><time>2026-04-26T14:59:16Z</time></trkpt><trkpt lat="40.51982290589922" lon="15.505455361402422"><ele>486.0</ele><time>2026-04-26T14:59:17Z</time></trkpt><trkpt lat="40.51961392749539" lon="15.50573459753549"><ele>485.0</ele><time>2026-04-26T14:59:18Z</time></trkpt><trkpt lat="40.519400377384656" lon="15.506013551832394"><ele>484.0</ele><time>2026-04-26T14:59:19Z</time></trkpt><trkpt lat="40.51918427774745" lon="15.50628895550624"><ele>484.0</ele><time>2026-04-26T14:59:20Z</time></trkpt><trkpt lat="40.51896648777392" lon="15.506560578479762"><ele>484.0</ele><time>2026-04-26T14:59:21Z</time></trkpt><trkpt lat="40.51874630965754" lon="15.506830210035313"><ele>484.5</ele><time>2026-04-26T14:59:22Z</time></trkpt><trkpt lat="40.51852653859612" lon="15.507098027147716"><ele>485.0</ele><time>2026-04-26T14:59:23Z</time></trkpt><trkpt lat="40.51830593978715" lon="15.507367027969707"><ele>485.0</ele><time>2026-04-26T14:59:24Z</time></trkpt><trkpt lat="40.51808416598252" lon="15.507635780142762"><ele>485.0</ele><time>2026-04-26T14:59:25Z</time></trkpt><trkpt lat="40.51786180115217" lon="15.507902397837464"><ele>483.0</ele><time>2026-04-26T14:59:26Z</time></trkpt><trkpt lat="40.517636657836476" lon="15.50816739067353"><ele>481.0</ele><time>2026-04-26T14:59:27Z</time></trkpt><trkpt lat="40.51741067575353" lon="15.50842865067303"><ele>481.0</ele><time>2026-04-26T14:59:28Z</time></trkpt><trkpt lat="40.517182999123115" lon="15.508689057491344"><ele>481.0</ele><time>2026-04-26T14:59:29Z</time></trkpt><trkpt lat="40.51695457742984" lon="15.50894678117494"><ele>479.5</ele><time>2026-04-26T14:59:30Z</time></trkpt><trkpt lat="40.51672434876207" lon="15.509201619047433"><ele>478.0</ele><time>2026-04-26T14:59:31Z</time></trkpt><trkpt lat="40.516493551860755" lon="15.509455722914756"><ele>477.5</ele><time>2026-04-26T14:59:32Z</time></trkpt><trkpt lat="40.51626052649542" lon="15.509707048329586"><ele>477.0</ele><time>2026-04-26T14:59:33Z</time></trkpt><trkpt lat="40.516026770658115" lon="15.509957578824055"><ele>477.0</ele><time>2026-04-26T14:59:34Z</time></trkpt><trkpt lat="40.51579396342024" lon="15.510208876752712"><ele>477.0</ele><time>2026-04-26T14:59:35Z</time></trkpt><trkpt lat="40.51556474269486" lon="15.51046147094738"><ele>473.5</ele><time>2026-04-26T14:59:36Z</time></trkpt><trkpt lat="40.51533648814635" lon="15.51071725912968"><ele>470.0</ele><time>2026-04-26T14:59:37Z</time></trkpt><trkpt lat="40.51511119562351" lon="15.510969450596642"><ele>470.0</ele><time>2026-04-26T14:59:38Z</time></trkpt><trkpt lat="40.514888259248984" lon="15.511221466701883"><ele>470.0</ele><time>2026-04-26T14:59:39Z</time></trkpt><trkpt lat="40.51466356740859" lon="15.511471908267122"><ele>468.5</ele><time>2026-04-26T14:59:40Z</time></trkpt><trkpt lat="40.514439231594224" lon="15.511723293988753"><ele>467.0</ele><time>2026-04-26T14:59:41Z</time></trkpt><trkpt lat="40.51421600395951" lon="15.511976980731033"><ele>468.0</ele><time>2026-04-26T14:59:42Z</time></trkpt><trkpt lat="40.513993668974884" lon="15.512230527470637"><ele>469.0</ele><time>2026-04-26T14:59:43Z</time></trkpt><trkpt lat="40.51377149118096" lon="15.51248223575722"><ele>469.0</ele><time>2026-04-26T14:59:44Z</time></trkpt><trkpt lat="40.51354947070654" lon="15.512733438692878"><ele>469.0</ele><time>2026-04-26T14:59:45Z</time></trkpt><trkpt lat="40.51332539922858" lon="15.512985562873116"><ele>469.0</ele><time>2026-04-26T14:59:46Z</time></trkpt><trkpt lat="40.513102637418996" lon="15.513237587069836"><ele>469.0</ele><time>2026-04-26T14:59:47Z</time></trkpt><trkpt lat="40.51287922123034" lon="15.513489512632608"><ele>470.0</ele><time>2026-04-26T14:59:48Z</time></trkpt><trkpt lat="40.5126572057095" lon="15.513742645691844"><ele>471.0</ele><time>2026-04-26T14:59:49Z</time></trkpt><trkpt lat="40.51243411672507" lon="15.51399571024351"><ele>471.0</ele><time>2026-04-26T14:59:50Z</time></trkpt><trkpt lat="40.512209580253874" lon="15.514249785210051"><ele>471.0</ele><time>2026-04-26T14:59:51Z</time></trkpt><trkpt lat="40.511984614066236" lon="15.514501505833236"><ele>470.0</ele><time>2026-04-26T14:59:52Z</time></trkpt><trkpt lat="40.511759682644524" lon="15.514751825447282"><ele>469.0</ele><time>2026-04-26T14:59:53Z</time></trkpt><trkpt lat="40.51153559078619" lon="15.515004235660033"><ele>469.0</ele><time>2026-04-26T14:59:54Z</time></trkpt><trkpt lat="40.511310336578234" lon="15.515252946810474"><ele>469.0</ele><time>2026-04-26T14:59:55Z</time></trkpt><trkpt lat="40.51108211209635" lon="15.515498877415096"><ele>468.5</ele><time>2026-04-26T14:59:56Z</time></trkpt><trkpt lat="40.510855384934004" lon="15.515743041418212"><ele>468.0</ele><time>2026-04-26T14:59:57Z</time></trkpt><trkpt lat="40.51062400177161" lon="15.515985989786707"><ele>466.0</ele><time>2026-04-26T14:59:58Z</time></trkpt><trkpt lat="40.51039094482336" lon="15.516223086631706"><ele>464.0</ele><time>2026-04-26T14:59:59Z</time></trkpt><trkpt lat="40.51015622773721" lon="15.516459531998372"><ele>464.0</ele><time>2026-04-26T15:00:00Z</time></trkpt><trkpt lat="40.50991938039369" lon="15.516691624194523"><ele>464.0</ele><time>2026-04-26T15:00:01Z</time></trkpt><trkpt lat="40.50968323157258" lon="15.516921609332107"><ele>463.5</ele><time>2026-04-26T15:00:02Z</time></trkpt><trkpt lat="40.509443188287136" lon="15.517148810733072"><ele>463.0</ele><time>2026-04-26T15:00:03Z</time></trkpt><trkpt lat="40.509202133701294" lon="15.517372535798597"><ele>463.0</ele><time>2026-04-26T15:00:04Z</time></trkpt><trkpt lat="40.508959623549345" lon="15.517591660579356"><ele>463.0</ele><time>2026-04-26T15:00:05Z</time></trkpt><trkpt lat="40.508712053447375" lon="15.517805142198464"><ele>462.5</ele><time>2026-04-26T15:00:06Z</time></trkpt><trkpt lat="40.50846226200703" lon="15.51801190743139"><ele>462.0</ele><time>2026-04-26T15:00:07Z</time></trkpt><trkpt lat="40.50821087125813" lon="15.518213501979725"><ele>462.0</ele><time>2026-04-26T15:00:08Z</time></trkpt><trkpt lat="40.50795713986437" lon="15.518411859503196"><ele>462.0</ele><time>2026-04-26T15:00:09Z</time></trkpt><trkpt lat="40.50770068507826" lon="15.518603209623043"><ele>463.5</ele><time>2026-04-26T15:00:10Z</time></trkpt><trkpt lat="40.50744150202937" lon="15.518788495273872"><ele>465.0</ele><time>2026-04-26T15:00:11Z</time></trkpt><trkpt lat="40.50717902750084" lon="15.518966321035428"><ele>461.5</ele><time>2026-04-26T15:00:12Z</time></trkpt><trkpt lat="40.50691423252283" lon="15.519140921625667"><ele>458.0</ele><time>2026-04-26T15:00:13Z</time></trkpt><trkpt lat="40.506648142873395" lon="15.51931221353893"><ele>458.0</ele><time>2026-04-26T15:00:14Z</time></trkpt><trkpt lat="40.50637947635856" lon="15.519474532263837"><ele>458.0</ele><time>2026-04-26T15:00:15Z</time></trkpt><trkpt lat="40.50610924652143" lon="15.519629290434972"><ele>457.5</ele><time>2026-04-26T15:00:16Z</time></trkpt><trkpt lat="40.50583734270464" lon="15.519782018477898"><ele>457.0</ele><time>2026-04-26T15:00:16.999Z</time></trkpt><trkpt lat="40.50556511269609" lon="15.519930262276043"><ele>455.0</ele><time>2026-04-26T15:00:17.999Z</time></trkpt><trkpt lat="40.505292320922095" lon="15.52007455307547"><ele>453.0</ele><time>2026-04-26T15:00:18.999Z</time></trkpt><trkpt lat="40.50501741835468" lon="15.52021387917758"><ele>453.0</ele><time>2026-04-26T15:00:19.999Z</time></trkpt><trkpt lat="40.504742017411075" lon="15.520348229339758"><ele>453.0</ele><time>2026-04-26T15:00:20.999Z</time></trkpt><trkpt lat="40.50446486614434" lon="15.5204781314631"><ele>455.0</ele><time>2026-04-26T15:00:21.999Z</time></trkpt><trkpt lat="40.504185969781496" lon="15.520605379403206"><ele>457.0</ele><time>2026-04-26T15:00:22.999Z</time></trkpt><trkpt lat="40.50390657774771" lon="15.520728850528362"><ele>457.0</ele><time>2026-04-26T15:00:23.999Z</time></trkpt><trkpt lat="40.50362611643464" lon="15.52084668189632"><ele>457.0</ele><time>2026-04-26T15:00:24.999Z</time></trkpt><trkpt lat="40.50334444831262" lon="15.520960905163811"><ele>457.0</ele><time>2026-04-26T15:00:25.999Z</time></trkpt><trkpt lat="40.50306259899892" lon="15.52107426961261"><ele>457.0</ele><time>2026-04-26T15:00:26.999Z</time></trkpt><trkpt lat="40.50278061032459" lon="15.521186050576592"><ele>459.5</ele><time>2026-04-26T15:00:27.999Z</time></trkpt><trkpt lat="40.50249759527215" lon="15.521293826836285"><ele>462.0</ele><time>2026-04-26T15:00:28.999Z</time></trkpt><trkpt lat="40.50221229789229" lon="15.521395604442976"><ele>463.0</ele><time>2026-04-26T15:00:29.999Z</time></trkpt><trkpt lat="40.50192641798452" lon="15.521490556905025"><ele>464.0</ele><time>2026-04-26T15:00:30.999Z</time></trkpt><trkpt lat="40.50164026940253" lon="15.521587071342537"><ele>464.0</ele><time>2026-04-26T15:00:31.999Z</time></trkpt><trkpt lat="40.50135329667021" lon="15.521681686945485"><ele>464.0</ele><time>2026-04-26T15:00:32.999Z</time></trkpt><trkpt lat="40.501065140731306" lon="15.521772792806718"><ele>464.0</ele><time>2026-04-26T15:00:33.999Z</time></trkpt><trkpt lat="40.50077661058038" lon="15.521860409050745"><ele>464.0</ele><time>2026-04-26T15:00:34.999Z</time></trkpt><trkpt lat="40.500486579916156" lon="15.521942467734073"><ele>464.5</ele><time>2026-04-26T15:00:35.999Z</time></trkpt><trkpt lat="40.50019472601255" lon="15.522017592035821"><ele>465.0</ele><time>2026-04-26T15:00:36.999Z</time></trkpt><trkpt lat="40.499902925406076" lon="15.522086605956819"><ele>465.5</ele><time>2026-04-26T15:00:37.999Z</time></trkpt><trkpt lat="40.49961107433808" lon="15.522149704543983"><ele>466.0</ele><time>2026-04-26T15:00:38.999Z</time></trkpt><trkpt lat="40.49931870830444" lon="15.52220886841097"><ele>466.0</ele><time>2026-04-26T15:00:39.999Z</time></trkpt><trkpt lat="40.49902525035542" lon="15.522261268722643"><ele>466.0</ele><time>2026-04-26T15:00:40.999Z</time></trkpt><trkpt lat="40.498730088418256" lon="15.522306983059567"><ele>464.5</ele><time>2026-04-26T15:00:41.999Z</time></trkpt><trkpt lat="40.498435753471384" lon="15.522345130361934"><ele>463.0</ele><time>2026-04-26T15:00:42.999Z</time></trkpt><trkpt lat="40.49814075355634" lon="15.522381600375185"><ele>460.5</ele><time>2026-04-26T15:00:43.999Z</time></trkpt><trkpt lat="40.4978438431403" lon="15.52241387058201"><ele>458.0</ele><time>2026-04-26T15:00:44.999Z</time></trkpt><trkpt lat="40.49754882437859" lon="15.522441243302058"><ele>458.0</ele><time>2026-04-26T15:00:45.999Z</time></trkpt><trkpt lat="40.49725362044562" lon="15.52246222241266"><ele>458.0</ele><time>2026-04-26T15:00:46.999Z</time></trkpt><trkpt lat="40.49695561593699" lon="15.522476109906194"><ele>454.5</ele><time>2026-04-26T15:00:47.999Z</time></trkpt><trkpt lat="40.496660798145626" lon="15.522497052174604"><ele>451.0</ele><time>2026-04-26T15:00:48.999Z</time></trkpt><trkpt lat="40.49636809923599" lon="15.522525109432907"><ele>448.5</ele><time>2026-04-26T15:00:49.999Z</time></trkpt><trkpt lat="40.49607417527272" lon="15.52254949381917"><ele>446.0</ele><time>2026-04-26T15:00:50.999Z</time></trkpt><trkpt lat="40.49577884262134" lon="15.522575283872388"><ele>446.0</ele><time>2026-04-26T15:00:51.999Z</time></trkpt><trkpt lat="40.4954843692177" lon="15.52260419824936"><ele>446.0</ele><time>2026-04-26T15:00:52.999Z</time></trkpt><trkpt lat="40.49489518326782" lon="15.522676951157791"><ele>445.5</ele><time>2026-04-26T15:00:54.999Z</time></trkpt><trkpt lat="40.49460261415636" lon="15.522722283514616"><ele>445.0</ele><time>2026-04-26T15:00:55.999Z</time></trkpt><trkpt lat="40.49430915383144" lon="15.522775301194693"><ele>444.0</ele><time>2026-04-26T15:00:56.999Z</time></trkpt><trkpt lat="40.49401770808521" lon="15.52283470885855"><ele>443.0</ele><time>2026-04-26T15:00:57.999Z</time></trkpt><trkpt lat="40.49372782615307" lon="15.522902281423367"><ele>442.0</ele><time>2026-04-26T15:00:58.999Z</time></trkpt><trkpt lat="40.49343970420059" lon="15.52298038722295"><ele>441.0</ele><time>2026-04-26T15:00:59.999Z</time></trkpt><trkpt lat="40.49315359051517" lon="15.523070220370695"><ele>441.5</ele><time>2026-04-26T15:01:00.999Z</time></trkpt><trkpt lat="40.49287104206519" lon="15.523174887015482"><ele>442.0</ele><time>2026-04-26T15:01:01.999Z</time></trkpt><trkpt lat="40.49258969378139" lon="15.523289911351982"><ele>442.0</ele><time>2026-04-26T15:01:02.999Z</time></trkpt><trkpt lat="40.49231236688686" lon="15.523415579872957"><ele>442.0</ele><time>2026-04-26T15:01:03.999Z</time></trkpt><trkpt lat="40.49203796662463" lon="15.523553401999827"><ele>442.0</ele><time>2026-04-26T15:01:04.999Z</time></trkpt><trkpt lat="40.49177269080637" lon="15.523719365411033"><ele>442.0</ele><time>2026-04-26T15:01:05.999Z</time></trkpt><trkpt lat="40.491504658669676" lon="15.523893241519605"><ele>442.5</ele><time>2026-04-26T15:01:06.999Z</time></trkpt><trkpt lat="40.49125115346281" lon="15.524088465177867"><ele>443.0</ele><time>2026-04-26T15:01:07.999Z</time></trkpt><trkpt lat="40.49100080873193" lon="15.524290970904257"><ele>443.0</ele><time>2026-04-26T15:01:08.999Z</time></trkpt><trkpt lat="40.490751544389276" lon="15.524498479299998"><ele>443.0</ele><time>2026-04-26T15:01:09.999Z</time></trkpt><trkpt lat="40.49050835931644" lon="15.524717472249218"><ele>444.0</ele><time>2026-04-26T15:01:10.999Z</time></trkpt><trkpt lat="40.490276068312056" lon="15.524954836015628"><ele>445.0</ele><time>2026-04-26T15:01:11.999Z</time></trkpt><trkpt lat="40.49005419713688" lon="15.525207465803026"><ele>445.0</ele><time>2026-04-26T15:01:12.999Z</time></trkpt><trkpt lat="40.48983752972724" lon="15.525469696225988"><ele>445.0</ele><time>2026-04-26T15:01:14Z</time></trkpt><trkpt lat="40.489623795661196" lon="15.525734589855016"><ele>445.0</ele><time>2026-04-26T15:01:15Z</time></trkpt><trkpt lat="40.48941306241958" lon="15.526001038240315"><ele>445.0</ele><time>2026-04-26T15:01:16Z</time></trkpt><trkpt lat="40.48920691490699" lon="15.526275227395034"><ele>445.5</ele><time>2026-04-26T15:01:17Z</time></trkpt><trkpt lat="40.4890067136793" lon="15.526556748788876"><ele>446.0</ele><time>2026-04-26T15:01:18Z</time></trkpt><trkpt lat="40.48880666370585" lon="15.526841613574486"><ele>447.0</ele><time>2026-04-26T15:01:19Z</time></trkpt><trkpt lat="40.488609605903314" lon="15.52712943293968"><ele>448.0</ele><time>2026-04-26T15:01:20Z</time></trkpt><trkpt lat="40.4884130526022" lon="15.527418855596885"><ele>448.0</ele><time>2026-04-26T15:01:21Z</time></trkpt><trkpt lat="40.488218795884414" lon="15.527708928417413"><ele>448.0</ele><time>2026-04-26T15:01:22Z</time></trkpt><trkpt lat="40.488023162423175" lon="15.527997062381582"><ele>449.0</ele><time>2026-04-26T15:01:23Z</time></trkpt><trkpt lat="40.48782685322276" lon="15.528284800443066"><ele>450.0</ele><time>2026-04-26T15:01:24Z</time></trkpt><trkpt lat="40.48762947854814" lon="15.528567389415988"><ele>451.5</ele><time>2026-04-26T15:01:25Z</time></trkpt><trkpt lat="40.48742839657324" lon="15.528846530747154"><ele>453.0</ele><time>2026-04-26T15:01:26Z</time></trkpt><trkpt lat="40.48722118503268" lon="15.529120207844562"><ele>453.0</ele><time>2026-04-26T15:01:27Z</time></trkpt><trkpt lat="40.487009203777326" lon="15.529385959913201"><ele>453.0</ele><time>2026-04-26T15:01:28Z</time></trkpt><trkpt lat="40.48679158094697" lon="15.52964619951263"><ele>454.5</ele><time>2026-04-26T15:01:29Z</time></trkpt><trkpt lat="40.486569186045806" lon="15.529899272039483"><ele>456.0</ele><time>2026-04-26T15:01:30Z</time></trkpt><trkpt lat="40.486343538360195" lon="15.530150279499107"><ele>457.0</ele><time>2026-04-26T15:01:31Z</time></trkpt><trkpt lat="40.48611475292697" lon="15.530396225386044"><ele>458.0</ele><time>2026-04-26T15:01:32Z</time></trkpt><trkpt lat="40.485879472354476" lon="15.530630508080733"><ele>458.0</ele><time>2026-04-26T15:01:33Z</time></trkpt><trkpt lat="40.48563556497489" lon="15.530852367161268"><ele>458.0</ele><time>2026-04-26T15:01:34Z</time></trkpt><trkpt lat="40.485388135762555" lon="15.531065621986526"><ele>461.0</ele><time>2026-04-26T15:01:35Z</time></trkpt><trkpt lat="40.485136724364146" lon="15.531270105353629"><ele>464.0</ele><time>2026-04-26T15:01:36Z</time></trkpt><trkpt lat="40.48488035100623" lon="15.53146092585966"><ele>464.0</ele><time>2026-04-26T15:01:37Z</time></trkpt><trkpt lat="40.48462001925672" lon="15.531641938956891"><ele>464.0</ele><time>2026-04-26T15:01:38Z</time></trkpt><trkpt lat="40.484357452730194" lon="15.531817478913602"><ele>465.0</ele><time>2026-04-26T15:01:39Z</time></trkpt><trkpt lat="40.484093989927715" lon="15.531991533067483"><ele>466.0</ele><time>2026-04-26T15:01:40Z</time></trkpt><trkpt lat="40.4838294312658" lon="15.532162316343095"><ele>466.0</ele><time>2026-04-26T15:01:41Z</time></trkpt><trkpt lat="40.4835626820011" lon="15.532327885118065"><ele>466.0</ele><time>2026-04-26T15:01:42Z</time></trkpt><trkpt lat="40.4832965466875" lon="15.532495300819562"><ele>466.0</ele><time>2026-04-26T15:01:43Z</time></trkpt><trkpt lat="40.483029791267555" lon="15.532662874042003"><ele>466.0</ele><time>2026-04-26T15:01:44Z</time></trkpt><trkpt lat="40.48276198110131" lon="15.532826946498915"><ele>468.5</ele><time>2026-04-26T15:01:45Z</time></trkpt><trkpt lat="40.48249228399062" lon="15.532989956835085"><ele>471.0</ele><time>2026-04-26T15:01:46Z</time></trkpt><trkpt lat="40.48222279762273" lon="15.533151411640954"><ele>467.0</ele><time>2026-04-26T15:01:47Z</time></trkpt><trkpt lat="40.48195189981472" lon="15.53331144640002"><ele>463.0</ele><time>2026-04-26T15:01:48Z</time></trkpt><trkpt lat="40.48168084959402" lon="15.53346914790807"><ele>463.0</ele><time>2026-04-26T15:01:49Z</time></trkpt><trkpt lat="40.48141035421273" lon="15.533628294346746"><ele>463.0</ele><time>2026-04-26T15:01:50Z</time></trkpt><trkpt lat="40.48113949374507" lon="15.533786973138206"><ele>463.5</ele><time>2026-04-26T15:01:51Z</time></trkpt><trkpt lat="40.48086934473754" lon="15.533945669675596"><ele>464.0</ele><time>2026-04-26T15:01:52Z</time></trkpt><trkpt lat="40.480598101166144" lon="15.534100397477749"><ele>460.0</ele><time>2026-04-26T15:01:53Z</time></trkpt><trkpt lat="40.480326182114034" lon="15.534252229920384"><ele>456.0</ele><time>2026-04-26T15:01:54Z</time></trkpt><trkpt lat="40.480053654447204" lon="15.53440122089665"><ele>456.0</ele><time>2026-04-26T15:01:55Z</time></trkpt><trkpt lat="40.47977918870078" lon="15.53455172066235"><ele>456.0</ele><time>2026-04-26T15:01:56Z</time></trkpt><trkpt lat="40.47950679414955" lon="15.53470120237972"><ele>460.0</ele><time>2026-04-26T15:01:57Z</time></trkpt><trkpt lat="40.479234762705744" lon="15.53485194583934"><ele>464.0</ele><time>2026-04-26T15:01:58Z</time></trkpt><trkpt lat="40.47896316820325" lon="15.535002968212732"><ele>460.0</ele><time>2026-04-26T15:01:58.999Z</time></trkpt><trkpt lat="40.478690862363244" lon="15.535151226758813"><ele>456.0</ele><time>2026-04-26T15:01:59.999Z</time></trkpt><trkpt lat="40.478417074351576" lon="15.53529635372106"><ele>460.5</ele><time>2026-04-26T15:02:00.999Z</time></trkpt><trkpt lat="40.47814277668612" lon="15.535437387888885"><ele>465.0</ele><time>2026-04-26T15:02:01.999Z</time></trkpt><trkpt lat="40.47786626784788" lon="15.535574657947553"><ele>465.0</ele><time>2026-04-26T15:02:02.999Z</time></trkpt><trkpt lat="40.477590251278436" lon="15.53571386420699"><ele>465.0</ele><time>2026-04-26T15:02:03.999Z</time></trkpt><trkpt lat="40.477314404844726" lon="15.535853669386833"><ele>461.0</ele><time>2026-04-26T15:02:04.999Z</time></trkpt><trkpt lat="40.477038919204084" lon="15.535991798100737"><ele>457.0</ele><time>2026-04-26T15:02:05.999Z</time></trkpt><trkpt lat="40.476763689870296" lon="15.536128474403952"><ele>459.0</ele><time>2026-04-26T15:02:06.999Z</time></trkpt><trkpt lat="40.4764860487982" lon="15.536263178476133"><ele>461.0</ele><time>2026-04-26T15:02:07.999Z</time></trkpt><trkpt lat="40.476208625817776" lon="15.53639560510031"><ele>461.0</ele><time>2026-04-26T15:02:08.999Z</time></trkpt><trkpt lat="40.475931170354" lon="15.536528927067073"><ele>461.0</ele><time>2026-04-26T15:02:09.999Z</time></trkpt><trkpt lat="40.475654931931345" lon="15.53666316304914"><ele>457.5</ele><time>2026-04-26T15:02:10.999Z</time></trkpt><trkpt lat="40.47537981390818" lon="15.5368020480603"><ele>454.0</ele><time>2026-04-26T15:02:11.999Z</time></trkpt><trkpt lat="40.47510372455176" lon="15.53694078157612"><ele>457.5</ele><time>2026-04-26T15:02:12.999Z</time></trkpt><trkpt lat="40.47482584521312" lon="15.53707526732043"><ele>461.0</ele><time>2026-04-26T15:02:13.999Z</time></trkpt><trkpt lat="40.47454646312875" lon="15.53720399866927"><ele>461.0</ele><time>2026-04-26T15:02:14.999Z</time></trkpt><trkpt lat="40.47426420321546" lon="15.53732457519813"><ele>461.0</ele><time>2026-04-26T15:02:15.999Z</time></trkpt><trkpt lat="40.47397980553056" lon="15.537433823522138"><ele>457.5</ele><time>2026-04-26T15:02:16.999Z</time></trkpt><trkpt lat="40.47369363000561" lon="15.537533021958222"><ele>454.0</ele><time>2026-04-26T15:02:17.999Z</time></trkpt><trkpt lat="40.47340468302754" lon="15.537624023316043"><ele>454.0</ele><time>2026-04-26T15:02:18.999Z</time></trkpt><trkpt lat="40.47311524782615" lon="15.53770358281632"><ele>454.0</ele><time>2026-04-26T15:02:19.999Z</time></trkpt><trkpt lat="40.472824965655704" lon="15.537774626578603"><ele>454.0</ele><time>2026-04-26T15:02:20.999Z</time></trkpt><trkpt lat="40.47253308423035" lon="15.537837610390042"><ele>454.0</ele><time>2026-04-26T15:02:21.999Z</time></trkpt><trkpt lat="40.47224270152447" lon="15.537891634437237"><ele>456.5</ele><time>2026-04-26T15:02:22.999Z</time></trkpt><trkpt lat="40.471950507778644" lon="15.537941160798503"><ele>459.0</ele><time>2026-04-26T15:02:23.999Z</time></trkpt><trkpt lat="40.47165764756215" lon="15.537987144401889"><ele>459.0</ele><time>2026-04-26T15:02:24.999Z</time></trkpt><trkpt lat="40.471363328090646" lon="15.538031134839194"><ele>459.0</ele><time>2026-04-26T15:02:25.999Z</time></trkpt><trkpt lat="40.47106973775294" lon="15.538074795790784"><ele>458.0</ele><time>2026-04-26T15:02:26.999Z</time></trkpt><trkpt lat="40.47077708600886" lon="15.538115539012615"><ele>457.0</ele><time>2026-04-26T15:02:27.999Z</time></trkpt><trkpt lat="40.47048356793461" lon="15.538157709586942"><ele>457.0</ele><time>2026-04-26T15:02:28.999Z</time></trkpt><trkpt lat="40.47019054803573" lon="15.538202820734982"><ele>457.0</ele><time>2026-04-26T15:02:29.999Z</time></trkpt><trkpt lat="40.46989849951043" lon="15.538255074877098"><ele>458.5</ele><time>2026-04-26T15:02:30.999Z</time></trkpt><trkpt lat="40.46960677576883" lon="15.538313929935033"><ele>460.0</ele><time>2026-04-26T15:02:31.999Z</time></trkpt><trkpt lat="40.469316051033466" lon="15.538377024480047"><ele>460.0</ele><time>2026-04-26T15:02:32.999Z</time></trkpt><trkpt lat="40.46902536544538" lon="15.5384440323366"><ele>460.0</ele><time>2026-04-26T15:02:33.999Z</time></trkpt><trkpt lat="40.46873535667036" lon="15.538516373190099"><ele>460.0</ele><time>2026-04-26T15:02:34.999Z</time></trkpt><trkpt lat="40.46844659185604" lon="15.538592629664574"><ele>460.0</ele><time>2026-04-26T15:02:35.999Z</time></trkpt><trkpt lat="40.46815844267484" lon="15.538671910946372"><ele>460.5</ele><time>2026-04-26T15:02:36.999Z</time></trkpt><trkpt lat="40.46787294119671" lon="15.538758166044268"><ele>461.0</ele><time>2026-04-26T15:02:37.999Z</time></trkpt><trkpt lat="40.46758575396475" lon="15.538842981226022"><ele>461.0</ele><time>2026-04-26T15:02:38.999Z</time></trkpt><trkpt lat="40.46729889119486" lon="15.538926976265614"><ele>461.0</ele><time>2026-04-26T15:02:39.999Z</time></trkpt><trkpt lat="40.467012556582795" lon="15.539011947401358"><ele>460.5</ele><time>2026-04-26T15:02:40.999Z</time></trkpt><trkpt lat="40.46672430726413" lon="15.539096470953709"><ele>460.0</ele><time>2026-04-26T15:02:41.999Z</time></trkpt><trkpt lat="40.46643741497339" lon="15.539179284992748"><ele>459.5</ele><time>2026-04-26T15:02:42.999Z</time></trkpt><trkpt lat="40.4661510558182" lon="15.539262324000662"><ele>459.0</ele><time>2026-04-26T15:02:43.999Z</time></trkpt><trkpt lat="40.46586452906891" lon="15.539348147641054"><ele>459.0</ele><time>2026-04-26T15:02:44.999Z</time></trkpt><trkpt lat="40.4655786697328" lon="15.53943958048867"><ele>459.0</ele><time>2026-04-26T15:02:45.999Z</time></trkpt><trkpt lat="40.465292563581556" lon="15.539535584102131"><ele>462.5</ele><time>2026-04-26T15:02:46.999Z</time></trkpt><trkpt lat="40.46500802544494" lon="15.539631112965797"><ele>466.0</ele><time>2026-04-26T15:02:47.999Z</time></trkpt><trkpt lat="40.46472423353341" lon="15.53972888793597"><ele>465.5</ele><time>2026-04-26T15:02:48.999Z</time></trkpt><trkpt lat="40.46444161271274" lon="15.539832579844205"><ele>465.0</ele><time>2026-04-26T15:02:49.999Z</time></trkpt><trkpt lat="40.46415949287364" lon="15.539942824883644"><ele>465.0</ele><time>2026-04-26T15:02:50.999Z</time></trkpt><trkpt lat="40.463877569143094" lon="15.540057625811256"><ele>465.0</ele><time>2026-04-26T15:02:51.999Z</time></trkpt><trkpt lat="40.46359680573204" lon="15.54017562026699"><ele>463.0</ele><time>2026-04-26T15:02:52.999Z</time></trkpt><trkpt lat="40.46331742146915" lon="15.540300185634308"><ele>461.0</ele><time>2026-04-26T15:02:53.999Z</time></trkpt><trkpt lat="40.46303925162349" lon="15.540429249158395"><ele>468.0</ele><time>2026-04-26T15:02:54.999Z</time></trkpt><trkpt lat="40.46276152883531" lon="15.54056322686956"><ele>475.0</ele><time>2026-04-26T15:02:55.999Z</time></trkpt><trkpt lat="40.46248614375293" lon="15.540701654962572"><ele>475.0</ele><time>2026-04-26T15:02:56.999Z</time></trkpt><trkpt lat="40.46221173931416" lon="15.54084596452053"><ele>475.0</ele><time>2026-04-26T15:02:57.999Z</time></trkpt><trkpt lat="40.46193914030997" lon="15.540993367875453"><ele>470.5</ele><time>2026-04-26T15:02:58.999Z</time></trkpt><trkpt lat="40.461669315183215" lon="15.541147089891444"><ele>466.0</ele><time>2026-04-26T15:02:59.999Z</time></trkpt><trkpt lat="40.46140105380428" lon="15.541305875204928"><ele>469.0</ele><time>2026-04-26T15:03:00.999Z</time></trkpt><trkpt lat="40.461131360708144" lon="15.541462973291212"><ele>472.0</ele><time>2026-04-26T15:03:01.999Z</time></trkpt><trkpt lat="40.46086018994232" lon="15.541616819696758"><ele>472.0</ele><time>2026-04-26T15:03:02.999Z</time></trkpt><trkpt lat="40.460588204491295" lon="15.541767618616301"><ele>472.0</ele><time>2026-04-26T15:03:03.999Z</time></trkpt><trkpt lat="40.46031423257124" lon="15.541915746033895"><ele>475.0</ele><time>2026-04-26T15:03:04.999Z</time></trkpt><trkpt lat="40.46003952998904" lon="15.542061578113751"><ele>478.0</ele><time>2026-04-26T15:03:05.999Z</time></trkpt><trkpt lat="40.45976443060477" lon="15.542206774664479"><ele>475.5</ele><time>2026-04-26T15:03:06.999Z</time></trkpt><trkpt lat="40.459488594355" lon="15.542347158523988"><ele>473.0</ele><time>2026-04-26T15:03:07.999Z</time></trkpt><trkpt lat="40.45921156734341" lon="15.54247953911883"><ele>473.0</ele><time>2026-04-26T15:03:08.999Z</time></trkpt><trkpt lat="40.45893134665874" lon="15.542599868432639"><ele>473.0</ele><time>2026-04-26T15:03:09.999Z</time></trkpt><trkpt lat="40.45864747795248" lon="15.542706537065811"><ele>471.5</ele><time>2026-04-26T15:03:10.999Z</time></trkpt><trkpt lat="40.458359595030885" lon="15.542801775919703"><ele>470.0</ele><time>2026-04-26T15:03:11.999Z</time></trkpt><trkpt lat="40.458071396844026" lon="15.542888173048896"><ele>472.5</ele><time>2026-04-26T15:03:12.999Z</time></trkpt><trkpt lat="40.457780672411054" lon="15.542962512651613"><ele>475.0</ele><time>2026-04-26T15:03:13.999Z</time></trkpt><trkpt lat="40.457486723526905" lon="15.543026167373595"><ele>475.0</ele><time>2026-04-26T15:03:14.999Z</time></trkpt><trkpt lat="40.45719223714653" lon="15.543078837347956"><ele>475.0</ele><time>2026-04-26T15:03:15.999Z</time></trkpt><trkpt lat="40.45689840653555" lon="15.54311728456355"><ele>474.0</ele><time>2026-04-26T15:03:16.999Z</time></trkpt><trkpt lat="40.45660343439046" lon="15.54314356214648"><ele>473.0</ele><time>2026-04-26T15:03:17.999Z</time></trkpt><trkpt lat="40.4563073262762" lon="15.543159180424487"><ele>473.5</ele><time>2026-04-26T15:03:18.999Z</time></trkpt><trkpt lat="40.45601122939877" lon="15.543165310636605"><ele>474.0</ele><time>2026-04-26T15:03:20Z</time></trkpt><trkpt lat="40.45571422557618" lon="15.543167507245968"><ele>473.0</ele><time>2026-04-26T15:03:21Z</time></trkpt><trkpt lat="40.45541768144435" lon="15.543167085165615"><ele>472.0</ele><time>2026-04-26T15:03:22Z</time></trkpt><trkpt lat="40.45512140070212" lon="15.543165882436234"><ele>472.0</ele><time>2026-04-26T15:03:23Z</time></trkpt><trkpt lat="40.45482503945052" lon="15.543166684406819"><ele>472.0</ele><time>2026-04-26T15:03:24Z</time></trkpt><trkpt lat="40.45453037003491" lon="15.543173477769116"><ele>470.5</ele><time>2026-04-26T15:03:25Z</time></trkpt><trkpt lat="40.45423600055534" lon="15.54318706923249"><ele>469.0</ele><time>2026-04-26T15:03:26Z</time></trkpt><trkpt lat="40.45394183644335" lon="15.543207667956096"><ele>469.0</ele><time>2026-04-26T15:03:27Z</time></trkpt><trkpt lat="40.453649468310665" lon="15.543241728205246"><ele>469.0</ele><time>2026-04-26T15:03:28Z</time></trkpt><trkpt lat="40.45335896656586" lon="15.54328978912219"><ele>469.0</ele><time>2026-04-26T15:03:29Z</time></trkpt><trkpt lat="40.453069209354" lon="15.543354734688004"><ele>469.0</ele><time>2026-04-26T15:03:30Z</time></trkpt><trkpt lat="40.45278030323389" lon="15.543434638975704"><ele>467.0</ele><time>2026-04-26T15:03:31Z</time></trkpt><trkpt lat="40.45249450580185" lon="15.543530445061997"><ele>465.0</ele><time>2026-04-26T15:03:32Z</time></trkpt><trkpt lat="40.45221143016094" lon="15.543632147333433"><ele>472.0</ele><time>2026-04-26T15:03:33Z</time></trkpt><trkpt lat="40.45192979773117" lon="15.543746687266044"><ele>479.0</ele><time>2026-04-26T15:03:34Z</time></trkpt><trkpt lat="40.45165183584449" lon="15.543869777476923"><ele>479.0</ele><time>2026-04-26T15:03:35Z</time></trkpt><trkpt lat="40.45137650242991" lon="15.544007960372728"><ele>479.0</ele><time>2026-04-26T15:03:36Z</time></trkpt><trkpt lat="40.45110475710167" lon="15.544157685174067"><ele>470.5</ele><time>2026-04-26T15:03:37Z</time></trkpt><trkpt lat="40.4508385938222" lon="15.544323044903527"><ele>462.0</ele><time>2026-04-26T15:03:38Z</time></trkpt><trkpt lat="40.45057828444031" lon="15.544499435703015"><ele>465.5</ele><time>2026-04-26T15:03:39Z</time></trkpt><trkpt lat="40.45031998960468" lon="15.544685714107267"><ele>469.0</ele><time>2026-04-26T15:03:40Z</time></trkpt><trkpt lat="40.45006549955188" lon="15.544883332437"><ele>469.0</ele><time>2026-04-26T15:03:41Z</time></trkpt><trkpt lat="40.44981539986346" lon="15.545088074285074"><ele>469.0</ele><time>2026-04-26T15:03:42Z</time></trkpt><trkpt lat="40.44956679974244" lon="15.54529944495217"><ele>471.0</ele><time>2026-04-26T15:03:43Z</time></trkpt><trkpt lat="40.44931894860379" lon="15.545511135127988"><ele>473.0</ele><time>2026-04-26T15:03:44Z</time></trkpt><trkpt lat="40.449070022482005" lon="15.545716061332328"><ele>473.0</ele><time>2026-04-26T15:03:45Z</time></trkpt><trkpt lat="40.448820311230214" lon="15.545920359388544"><ele>473.0</ele><time>2026-04-26T15:03:46Z</time></trkpt><trkpt lat="40.44856950510532" lon="15.546127344770067"><ele>476.5</ele><time>2026-04-26T15:03:47Z</time></trkpt><trkpt lat="40.44832192399404" lon="15.546337270178054"><ele>480.0</ele><time>2026-04-26T15:03:48Z</time></trkpt><trkpt lat="40.44807424914577" lon="15.546546493102108"><ele>471.0</ele><time>2026-04-26T15:03:49Z</time></trkpt><trkpt lat="40.4478263779101" lon="15.546758363019773"><ele>462.0</ele><time>2026-04-26T15:03:50Z</time></trkpt><trkpt lat="40.44757851904978" lon="15.546970483386648"><ele>463.5</ele><time>2026-04-26T15:03:51Z</time></trkpt><trkpt lat="40.44733084976492" lon="15.547184114249324"><ele>465.0</ele><time>2026-04-26T15:03:52Z</time></trkpt><trkpt lat="40.44708219173997" lon="15.547397011177242"><ele>465.0</ele><time>2026-04-26T15:03:53Z</time></trkpt><trkpt lat="40.44683558944057" lon="15.547609606566356"><ele>465.0</ele><time>2026-04-26T15:03:54Z</time></trkpt><trkpt lat="40.446590304571764" lon="15.54782405436128"><ele>467.5</ele><time>2026-04-26T15:03:55Z</time></trkpt><trkpt lat="40.44634520187246" lon="15.548038100929372"><ele>470.0</ele><time>2026-04-26T15:03:56Z</time></trkpt><trkpt lat="40.44609774856359" lon="15.548247955871686"><ele>470.0</ele><time>2026-04-26T15:03:57Z</time></trkpt><trkpt lat="40.445848630742944" lon="15.54845197014252"><ele>470.0</ele><time>2026-04-26T15:03:58Z</time></trkpt><trkpt lat="40.445595326262996" lon="15.548649179896389"><ele>469.5</ele><time>2026-04-26T15:03:59Z</time></trkpt><trkpt lat="40.445337854778536" lon="15.548835638916747"><ele>469.0</ele><time>2026-04-26T15:04:00Z</time></trkpt><trkpt lat="40.44507450170755" lon="15.549011702336498"><ele>469.0</ele><time>2026-04-26T15:04:01Z</time></trkpt><trkpt lat="40.44480721793552" lon="15.549177836803011"><ele>469.0</ele><time>2026-04-26T15:04:02Z</time></trkpt><trkpt lat="40.44453597155478" lon="15.549334540673934"><ele>468.5</ele><time>2026-04-26T15:04:03Z</time></trkpt><trkpt lat="40.444264379780115" lon="15.549486887252346"><ele>468.0</ele><time>2026-04-26T15:04:04Z</time></trkpt><trkpt lat="40.44399109643247" lon="15.549637876001448"><ele>467.0</ele><time>2026-04-26T15:04:05Z</time></trkpt><trkpt lat="40.44371800098797" lon="15.549789236086106"><ele>466.0</ele><time>2026-04-26T15:04:06Z</time></trkpt><trkpt lat="40.4434458956575" lon="15.54993909216828"><ele>466.0</ele><time>2026-04-26T15:04:07Z</time></trkpt><trkpt lat="40.443172377971756" lon="15.55008692823745"><ele>466.0</ele><time>2026-04-26T15:04:08Z</time></trkpt><trkpt lat="40.442899120862485" lon="15.550234416044496"><ele>468.0</ele><time>2026-04-26T15:04:09Z</time></trkpt><trkpt lat="40.44262602602999" lon="15.550383397612741"><ele>470.0</ele><time>2026-04-26T15:04:10Z</time></trkpt><trkpt lat="40.44235343655671" lon="15.550534313791575"><ele>468.5</ele><time>2026-04-26T15:04:11Z</time></trkpt><trkpt lat="40.442081911464584" lon="15.55068701756823"><ele>467.0</ele><time>2026-04-26T15:04:12Z</time></trkpt><trkpt lat="40.441810183036566" lon="15.550843989889204"><ele>467.0</ele><time>2026-04-26T15:04:13Z</time></trkpt><trkpt lat="40.441540155355156" lon="15.550999854939652"><ele>467.0</ele><time>2026-04-26T15:04:14Z</time></trkpt><trkpt lat="40.441271857456336" lon="15.551160042839523"><ele>468.0</ele><time>2026-04-26T15:04:15Z</time></trkpt><trkpt lat="40.44100805887098" lon="15.551330210891551"><ele>469.0</ele><time>2026-04-26T15:04:16Z</time></trkpt><trkpt lat="40.44074981088308" lon="15.551517366590256"><ele>469.0</ele><time>2026-04-26T15:04:17Z</time></trkpt><trkpt lat="40.4404977600107" lon="15.551717841685262"><ele>469.0</ele><time>2026-04-26T15:04:18Z</time></trkpt><trkpt lat="40.44025038084532" lon="15.55192546088725"><ele>468.0</ele><time>2026-04-26T15:04:19Z</time></trkpt><trkpt lat="40.440004582045304" lon="15.552138836958338"><ele>467.0</ele><time>2026-04-26T15:04:20Z</time></trkpt><trkpt lat="40.4397619429606" lon="15.55236251226342"><ele>465.0</ele><time>2026-04-26T15:04:21Z</time></trkpt><trkpt lat="40.43952686603875" lon="15.552596440496092"><ele>463.0</ele><time>2026-04-26T15:04:22Z</time></trkpt><trkpt lat="40.43929766553506" lon="15.552838809145404"><ele>464.0</ele><time>2026-04-26T15:04:23Z</time></trkpt><trkpt lat="40.43907181499596" lon="15.553087790309926"><ele>465.0</ele><time>2026-04-26T15:04:24Z</time></trkpt><trkpt lat="40.43884299324725" lon="15.553332866284846"><ele>464.5</ele><time>2026-04-26T15:04:24.999Z</time></trkpt><trkpt lat="40.43861139504722" lon="15.553573615012937"><ele>464.0</ele><time>2026-04-26T15:04:25.999Z</time></trkpt><trkpt lat="40.4383794065461" lon="15.553815074693656"><ele>464.0</ele><time>2026-04-26T15:04:26.999Z</time></trkpt><trkpt lat="40.438147061872236" lon="15.554054853986624"><ele>464.0</ele><time>2026-04-26T15:04:27.999Z</time></trkpt><trkpt lat="40.4379087089546" lon="15.554285077657882"><ele>463.0</ele><time>2026-04-26T15:04:28.999Z</time></trkpt><trkpt lat="40.43766485081824" lon="15.554504741654307"><ele>462.0</ele><time>2026-04-26T15:04:29.999Z</time></trkpt><trkpt lat="40.43741593692288" lon="15.554713932948358"><ele>462.0</ele><time>2026-04-26T15:04:30.999Z</time></trkpt><trkpt lat="40.43716081376138" lon="15.554910764860601"><ele>462.0</ele><time>2026-04-26T15:04:31.999Z</time></trkpt><trkpt lat="40.43690110592016" lon="15.555095610359935"><ele>462.5</ele><time>2026-04-26T15:04:32.999Z</time></trkpt><trkpt lat="40.43663837900707" lon="15.555272612978262"><ele>463.0</ele><time>2026-04-26T15:04:33.999Z</time></trkpt><trkpt lat="40.436372612229626" lon="15.555438309917374"><ele>461.5</ele><time>2026-04-26T15:04:34.999Z</time></trkpt><trkpt lat="40.43610230879582" lon="15.555591548611185"><ele>460.0</ele><time>2026-04-26T15:04:35.999Z</time></trkpt><trkpt lat="40.4358295435463" lon="15.555737411652215"><ele>460.0</ele><time>2026-04-26T15:04:36.999Z</time></trkpt><trkpt lat="40.43555545581338" lon="15.555873312865309"><ele>460.0</ele><time>2026-04-26T15:04:37.999Z</time></trkpt><trkpt lat="40.435279235362536" lon="15.556008146608784"><ele>461.0</ele><time>2026-04-26T15:04:38.999Z</time></trkpt><trkpt lat="40.435003061706844" lon="15.556141427210882"><ele>462.0</ele><time>2026-04-26T15:04:39.999Z</time></trkpt><trkpt lat="40.43472637767445" lon="15.556273341834638"><ele>460.5</ele><time>2026-04-26T15:04:40.999Z</time></trkpt><trkpt lat="40.43444893606737" lon="15.556404482926078"><ele>459.0</ele><time>2026-04-26T15:04:41.999Z</time></trkpt><trkpt lat="40.43417054866837" lon="15.556534147938699"><ele>459.0</ele><time>2026-04-26T15:04:42.999Z</time></trkpt><trkpt lat="40.433892383213326" lon="15.556660306147075"><ele>459.0</ele><time>2026-04-26T15:04:43.999Z</time></trkpt><trkpt lat="40.43361384955096" lon="15.556785369747198"><ele>459.0</ele><time>2026-04-26T15:04:44.999Z</time></trkpt><trkpt lat="40.43333636004653" lon="15.556911789452371"><ele>459.0</ele><time>2026-04-26T15:04:45.999Z</time></trkpt><trkpt lat="40.43305887872136" lon="15.557038197398322"><ele>459.5</ele><time>2026-04-26T15:04:46.999Z</time></trkpt><trkpt lat="40.43278141511326" lon="15.557166814107822"><ele>460.0</ele><time>2026-04-26T15:04:47.999Z</time></trkpt><trkpt lat="40.43250440160392" lon="15.557296681781342"><ele>460.0</ele><time>2026-04-26T15:04:48.999Z</time></trkpt><trkpt lat="40.432227540544126" lon="15.557427213995146"><ele>460.0</ele><time>2026-04-26T15:04:49.999Z</time></trkpt><trkpt lat="40.431949917019885" lon="15.5575592748139"><ele>462.0</ele><time>2026-04-26T15:04:50.999Z</time></trkpt><trkpt lat="40.431672610309036" lon="15.557690946612505"><ele>464.0</ele><time>2026-04-26T15:04:51.999Z</time></trkpt><trkpt lat="40.43139528851982" lon="15.557821151831217"><ele>465.5</ele><time>2026-04-26T15:04:52.999Z</time></trkpt><trkpt lat="40.43111727169482" lon="15.557951197875068"><ele>467.0</ele><time>2026-04-26T15:04:53.999Z</time></trkpt><trkpt lat="40.43083900209248" lon="15.558080150500398"><ele>467.0</ele><time>2026-04-26T15:04:54.999Z</time></trkpt><trkpt lat="40.43056007031108" lon="15.558207981569833"><ele>467.0</ele><time>2026-04-26T15:04:55.999Z</time></trkpt><trkpt lat="40.43028107142145" lon="15.558334313542758"><ele>467.5</ele><time>2026-04-26T15:04:56.999Z</time></trkpt><trkpt lat="40.42999958546808" lon="15.558454812758242"><ele>468.0</ele><time>2026-04-26T15:04:57.999Z</time></trkpt><trkpt lat="40.42971554996305" lon="15.55856164151962"><ele>468.0</ele><time>2026-04-26T15:04:58.999Z</time></trkpt><trkpt lat="40.429429114604694" lon="15.558659045248277"><ele>468.0</ele><time>2026-04-26T15:04:59.999Z</time></trkpt><trkpt lat="40.429140816871055" lon="15.55874512008505"><ele>468.5</ele><time>2026-04-26T15:05:00.999Z</time></trkpt><trkpt lat="40.428850419168214" lon="15.558818841501328"><ele>469.0</ele><time>2026-04-26T15:05:01.999Z</time></trkpt><trkpt lat="40.42855910901276" lon="15.558880904712348"><ele>470.0</ele><time>2026-04-26T15:05:02.999Z</time></trkpt><trkpt lat="40.4282676056235" lon="15.55893191065392"><ele>471.0</ele><time>2026-04-26T15:05:03.999Z</time></trkpt><trkpt lat="40.4279745731168" lon="15.558974716504034"><ele>471.0</ele><time>2026-04-26T15:05:04.999Z</time></trkpt><trkpt lat="40.4276819210818" lon="15.559007980821148"><ele>471.0</ele><time>2026-04-26T15:05:05.999Z</time></trkpt><trkpt lat="40.4273884289287" lon="15.55902963479838"><ele>471.5</ele><time>2026-04-26T15:05:06.999Z</time></trkpt><trkpt lat="40.427093931688745" lon="15.559036277014721"><ele>472.0</ele><time>2026-04-26T15:05:07.999Z</time></trkpt><trkpt lat="40.426799988645705" lon="15.559030549978525"><ele>472.0</ele><time>2026-04-26T15:05:08.999Z</time></trkpt><trkpt lat="40.42650540496129" lon="15.559016369181709"><ele>472.0</ele><time>2026-04-26T15:05:09.999Z</time></trkpt><trkpt lat="40.42621066137845" lon="15.559000040242411"><ele>472.0</ele><time>2026-04-26T15:05:10.999Z</time></trkpt><trkpt lat="40.42591641280581" lon="15.558980424029048"><ele>472.0</ele><time>2026-04-26T15:05:11.999Z</time></trkpt><trkpt lat="40.42562124810259" lon="15.558963299743267"><ele>471.5</ele><time>2026-04-26T15:05:12.999Z</time></trkpt><trkpt lat="40.4253249622782" lon="15.55894401113243"><ele>471.0</ele><time>2026-04-26T15:05:13.999Z</time></trkpt><trkpt lat="40.42502942900135" lon="15.558916921807786"><ele>471.0</ele><time>2026-04-26T15:05:14.999Z</time></trkpt><trkpt lat="40.42473418728011" lon="15.55888381366788"><ele>471.0</ele><time>2026-04-26T15:05:15.999Z</time></trkpt><trkpt lat="40.4244396582554" lon="15.558854117669583"><ele>472.0</ele><time>2026-04-26T15:05:16.999Z</time></trkpt><trkpt lat="40.42414593579985" lon="15.55883595201794"><ele>473.0</ele><time>2026-04-26T15:05:17.999Z</time></trkpt><trkpt lat="40.423851764539464" lon="15.558827792033982"><ele>473.5</ele><time>2026-04-26T15:05:18.999Z</time></trkpt><trkpt lat="40.42355602910072" lon="15.558828474561578"><ele>474.0</ele><time>2026-04-26T15:05:19.999Z</time></trkpt><trkpt lat="40.423261781652236" lon="15.558841271716176"><ele>474.0</ele><time>2026-04-26T15:05:20.999Z</time></trkpt><trkpt lat="40.42296726456011" lon="15.55886533433124"><ele>474.0</ele><time>2026-04-26T15:05:21.999Z</time></trkpt><trkpt lat="40.42267182770142" lon="15.558896351817893"><ele>474.0</ele><time>2026-04-26T15:05:22.999Z</time></trkpt><trkpt lat="40.42237649386582" lon="15.55893275402595"><ele>474.0</ele><time>2026-04-26T15:05:23.999Z</time></trkpt><trkpt lat="40.422083629145995" lon="15.558978226854778"><ele>472.5</ele><time>2026-04-26T15:05:25Z</time></trkpt><trkpt lat="40.42179106471444" lon="15.559035226823486"><ele>471.0</ele><time>2026-04-26T15:05:26Z</time></trkpt><trkpt lat="40.42149941488397" lon="15.559101942104562"><ele>469.5</ele><time>2026-04-26T15:05:27Z</time></trkpt><trkpt lat="40.42120767396604" lon="15.55917422966471"><ele>468.0</ele><time>2026-04-26T15:05:28Z</time></trkpt><trkpt lat="40.42091778301896" lon="15.559251983331915"><ele>468.0</ele><time>2026-04-26T15:05:29Z</time></trkpt><trkpt lat="40.42062860225623" lon="15.559338189685691"><ele>468.0</ele><time>2026-04-26T15:05:30Z</time></trkpt><trkpt lat="40.420342258378376" lon="15.55942919720622"><ele>468.0</ele><time>2026-04-26T15:05:31Z</time></trkpt><trkpt lat="40.42005519443039" lon="15.559523704145697"><ele>468.0</ele><time>2026-04-26T15:05:32Z</time></trkpt><trkpt lat="40.41977095714641" lon="15.559626007525296"><ele>466.5</ele><time>2026-04-26T15:05:33Z</time></trkpt><trkpt lat="40.41948648776865" lon="15.559733303513122"><ele>465.0</ele><time>2026-04-26T15:05:34Z</time></trkpt><trkpt lat="40.41920246289048" lon="15.559840169351544"><ele>465.0</ele><time>2026-04-26T15:05:35Z</time></trkpt><trkpt lat="40.41891746875024" lon="15.559945409879333"><ele>465.0</ele><time>2026-04-26T15:05:36Z</time></trkpt><trkpt lat="40.41863197549503" lon="15.560044151871242"><ele>464.5</ele><time>2026-04-26T15:05:37Z</time></trkpt><trkpt lat="40.41834553388747" lon="15.560141244176686"><ele>464.0</ele><time>2026-04-26T15:05:38Z</time></trkpt><trkpt lat="40.418058528148556" lon="15.560236424117477"><ele>463.0</ele><time>2026-04-26T15:05:39Z</time></trkpt><trkpt lat="40.41777205445753" lon="15.560331179531925"><ele>462.0</ele><time>2026-04-26T15:05:40Z</time></trkpt><trkpt lat="40.417485721962045" lon="15.560423041079343"><ele>462.0</ele><time>2026-04-26T15:05:41Z</time></trkpt><trkpt lat="40.41719871235307" lon="15.56051067302632"><ele>462.0</ele><time>2026-04-26T15:05:42Z</time></trkpt><trkpt lat="40.41691227690719" lon="15.56059846993828"><ele>460.0</ele><time>2026-04-26T15:05:43Z</time></trkpt><trkpt lat="40.416625998124005" lon="15.560685578662511"><ele>458.0</ele><time>2026-04-26T15:05:44Z</time></trkpt><trkpt lat="40.41633936628319" lon="15.560774494824338"><ele>457.0</ele><time>2026-04-26T15:05:45Z</time></trkpt><trkpt lat="40.416051280183176" lon="15.560865549869478"><ele>456.0</ele><time>2026-04-26T15:05:46Z</time></trkpt><trkpt lat="40.415764521589516" lon="15.560963089424078"><ele>455.0</ele><time>2026-04-26T15:05:47Z</time></trkpt><trkpt lat="40.41547806446308" lon="15.561062886407683"><ele>454.0</ele><time>2026-04-26T15:05:48Z</time></trkpt><trkpt lat="40.41519076816478" lon="15.561159263661013"><ele>454.5</ele><time>2026-04-26T15:05:49Z</time></trkpt><trkpt lat="40.41490442600227" lon="15.561258653788935"><ele>455.0</ele><time>2026-04-26T15:05:50Z</time></trkpt><trkpt lat="40.41461943297417" lon="15.561361801482203"><ele>455.0</ele><time>2026-04-26T15:05:51Z</time></trkpt><trkpt lat="40.41433536574677" lon="15.561473562740556"><ele>455.0</ele><time>2026-04-26T15:05:52Z</time></trkpt><trkpt lat="40.41405601564953" lon="15.56159742628706"><ele>454.5</ele><time>2026-04-26T15:05:53Z</time></trkpt><trkpt lat="40.41378278241894" lon="15.561737567051248"><ele>454.0</ele><time>2026-04-26T15:05:54Z</time></trkpt><trkpt lat="40.41351243044006" lon="15.561890710776067"><ele>454.5</ele><time>2026-04-26T15:05:55Z</time></trkpt><trkpt lat="40.41324450902514" lon="15.562053743846558"><ele>455.0</ele><time>2026-04-26T15:05:56Z</time></trkpt><trkpt lat="40.41297949480977" lon="15.56222731248316"><ele>455.0</ele><time>2026-04-26T15:05:57Z</time></trkpt><trkpt lat="40.41271582776717" lon="15.56240174227749"><ele>455.0</ele><time>2026-04-26T15:05:58Z</time></trkpt><trkpt lat="40.41245222442958" lon="15.562578740035798"><ele>455.0</ele><time>2026-04-26T15:05:59Z</time></trkpt><trkpt lat="40.412189621805126" lon="15.562756945217863"><ele>455.0</ele><time>2026-04-26T15:06:00Z</time></trkpt><trkpt lat="40.411927282288374" lon="15.562937300394331"><ele>453.5</ele><time>2026-04-26T15:06:01Z</time></trkpt><trkpt lat="40.411669138641024" lon="15.563125723947497"><ele>452.0</ele><time>2026-04-26T15:06:02Z</time></trkpt><trkpt lat="40.411416205157856" lon="15.563325856431513"><ele>452.0</ele><time>2026-04-26T15:06:03Z</time></trkpt><trkpt lat="40.411171657487024" lon="15.563542245695018"><ele>452.0</ele><time>2026-04-26T15:06:04Z</time></trkpt><trkpt lat="40.41093855065101" lon="15.563776463942364"><ele>452.0</ele><time>2026-04-26T15:06:05Z</time></trkpt><trkpt lat="40.41071345296984" lon="15.56402417154613"><ele>452.0</ele><time>2026-04-26T15:06:06Z</time></trkpt><trkpt lat="40.41049359250195" lon="15.564281087557365"><ele>451.0</ele><time>2026-04-26T15:06:07Z</time></trkpt><trkpt lat="40.41027941567966" lon="15.56454483740276"><ele>450.0</ele><time>2026-04-26T15:06:08Z</time></trkpt><trkpt lat="40.4100725113833" lon="15.564818195430167"><ele>450.0</ele><time>2026-04-26T15:06:09Z</time></trkpt><trkpt lat="40.40987328012284" lon="15.565103079983716"><ele>450.0</ele><time>2026-04-26T15:06:10Z</time></trkpt><trkpt lat="40.409681488619235" lon="15.565396685742865"><ele>449.5</ele><time>2026-04-26T15:06:11Z</time></trkpt><trkpt lat="40.4094979253586" lon="15.56569913953925"><ele>449.0</ele><time>2026-04-26T15:06:12Z</time></trkpt><trkpt lat="40.409323653573075" lon="15.566010680987953"><ele>449.0</ele><time>2026-04-26T15:06:13Z</time></trkpt><trkpt lat="40.4091561601661" lon="15.56632849833433"><ele>449.0</ele><time>2026-04-26T15:06:14Z</time></trkpt><trkpt lat="40.40899395413463" lon="15.566650883231187"><ele>449.0</ele><time>2026-04-26T15:06:15Z</time></trkpt><trkpt lat="40.40883492425162" lon="15.566975216820044"><ele>449.0</ele><time>2026-04-26T15:06:16Z</time></trkpt><trkpt lat="40.40867611479008" lon="15.567299951574157"><ele>448.0</ele><time>2026-04-26T15:06:17Z</time></trkpt><trkpt lat="40.40851422158749" lon="15.56762393802649"><ele>447.0</ele><time>2026-04-26T15:06:18Z</time></trkpt><trkpt lat="40.40835029055568" lon="15.567947054414812"><ele>447.0</ele><time>2026-04-26T15:06:19Z</time></trkpt><trkpt lat="40.408187571242244" lon="15.568268519666171"><ele>447.0</ele><time>2026-04-26T15:06:20Z</time></trkpt><trkpt lat="40.408025683581165" lon="15.568590899955067"><ele>447.0</ele><time>2026-04-26T15:06:21Z</time></trkpt><trkpt lat="40.40786492173691" lon="15.568915083091433"><ele>447.0</ele><time>2026-04-26T15:06:22Z</time></trkpt><trkpt lat="40.40770192871479" lon="15.569236262237487"><ele>447.0</ele><time>2026-04-26T15:06:23Z</time></trkpt><trkpt lat="40.407537955041626" lon="15.569558193027635"><ele>447.0</ele><time>2026-04-26T15:06:24Z</time></trkpt><trkpt lat="40.40737358053448" lon="15.56987830453899"><ele>447.0</ele><time>2026-04-26T15:06:25Z</time></trkpt><trkpt lat="40.40720560967939" lon="15.570196060260837"><ele>447.0</ele><time>2026-04-26T15:06:26Z</time></trkpt><trkpt lat="40.40703845871953" lon="15.570510639000293"><ele>447.0</ele><time>2026-04-26T15:06:27Z</time></trkpt><trkpt lat="40.40686839892259" lon="15.570823424395433"><ele>447.0</ele><time>2026-04-26T15:06:28Z</time></trkpt><trkpt lat="40.406689448776056" lon="15.571130287032844"><ele>447.0</ele><time>2026-04-26T15:06:29Z</time></trkpt><trkpt lat="40.40650262061594" lon="15.571427507473881"><ele>447.0</ele><time>2026-04-26T15:06:30Z</time></trkpt><trkpt lat="40.40631259961794" lon="15.57172130193779"><ele>447.0</ele><time>2026-04-26T15:06:31Z</time></trkpt><trkpt lat="40.406120759646434" lon="15.572013976045268"><ele>447.0</ele><time>2026-04-26T15:06:32Z</time></trkpt><trkpt lat="40.40592425305813" lon="15.57230159914073"><ele>447.0</ele><time>2026-04-26T15:06:33Z</time></trkpt><trkpt lat="40.40572446716338" lon="15.572586012902125"><ele>447.0</ele><time>2026-04-26T15:06:34Z</time></trkpt><trkpt lat="40.40552215996757" lon="15.57286803225422"><ele>447.5</ele><time>2026-04-26T15:06:35Z</time></trkpt><trkpt lat="40.40531874509882" lon="15.573150378331333"><ele>448.0</ele><time>2026-04-26T15:06:35.999Z</time></trkpt><trkpt lat="40.40511790846064" lon="15.573432909862232"><ele>448.5</ele><time>2026-04-26T15:06:36.999Z</time></trkpt><trkpt lat="40.404917940642015" lon="15.573714721419261"><ele>449.0</ele><time>2026-04-26T15:06:37.999Z</time></trkpt><trkpt lat="40.404718157260206" lon="15.57399852734911"><ele>448.5</ele><time>2026-04-26T15:06:38.999Z</time></trkpt><trkpt lat="40.40451794732351" lon="15.57428242956289"><ele>448.0</ele><time>2026-04-26T15:06:39.999Z</time></trkpt><trkpt lat="40.40431589132041" lon="15.574564279839223"><ele>447.5</ele><time>2026-04-26T15:06:40.999Z</time></trkpt><trkpt lat="40.404113786656524" lon="15.574846526962428"><ele>447.0</ele><time>2026-04-26T15:06:41.999Z</time></trkpt><trkpt lat="40.40391211562119" lon="15.575129044260793"><ele>447.5</ele><time>2026-04-26T15:06:42.999Z</time></trkpt><trkpt lat="40.4037119065961" lon="15.575412566726671"><ele>448.0</ele><time>2026-04-26T15:06:43.999Z</time></trkpt><trkpt lat="40.4035107624257" lon="15.57569483145642"><ele>448.0</ele><time>2026-04-26T15:06:44.999Z</time></trkpt><trkpt lat="40.403305534934056" lon="15.575973706174526"><ele>448.0</ele><time>2026-04-26T15:06:45.999Z</time></trkpt><trkpt lat="40.40309636958185" lon="15.576248105547927"><ele>448.0</ele><time>2026-04-26T15:06:46.999Z</time></trkpt><trkpt lat="40.402885482458444" lon="15.57651827353892"><ele>448.0</ele><time>2026-04-26T15:06:47.999Z</time></trkpt><trkpt lat="40.402673282499684" lon="15.576787937298517"><ele>448.0</ele><time>2026-04-26T15:06:48.999Z</time></trkpt><trkpt lat="40.40245707263986" lon="15.577051243283151"><ele>448.0</ele><time>2026-04-26T15:06:49.999Z</time></trkpt><trkpt lat="40.40223720470336" lon="15.57730772027254"><ele>447.5</ele><time>2026-04-26T15:06:50.999Z</time></trkpt><trkpt lat="40.40201264521711" lon="15.577559045479607"><ele>447.0</ele><time>2026-04-26T15:06:51.999Z</time></trkpt><trkpt lat="40.40178308255591" lon="15.57780354964441"><ele>447.5</ele><time>2026-04-26T15:06:52.999Z</time></trkpt><trkpt lat="40.40154494426831" lon="15.578032102989575"><ele>448.0</ele><time>2026-04-26T15:06:53.999Z</time></trkpt><trkpt lat="40.40130522135101" lon="15.578256580390386"><ele>448.5</ele><time>2026-04-26T15:06:54.999Z</time></trkpt><trkpt lat="40.401062345650914" lon="15.578474532272843"><ele>449.0</ele><time>2026-04-26T15:06:55.999Z</time></trkpt><trkpt lat="40.40081731499185" lon="15.578689559970107"><ele>449.0</ele><time>2026-04-26T15:06:56.999Z</time></trkpt><trkpt lat="40.40056942968524" lon="15.57889997027895"><ele>449.0</ele><time>2026-04-26T15:06:57.999Z</time></trkpt><trkpt lat="40.40032035071354" lon="15.579105551364856"><ele>449.0</ele><time>2026-04-26T15:06:58.999Z</time></trkpt><trkpt lat="40.4000667458612" lon="15.579305198161567"><ele>449.0</ele><time>2026-04-26T15:06:59.999Z</time></trkpt><trkpt lat="40.39981197417311" lon="15.579499951044616"><ele>449.5</ele><time>2026-04-26T15:07:00.999Z</time></trkpt><trkpt lat="40.39955458015468" lon="15.579690222308615"><ele>450.0</ele><time>2026-04-26T15:07:01.999Z</time></trkpt><trkpt lat="40.39929846056036" lon="15.579880680897103"><ele>450.0</ele><time>2026-04-26T15:07:02.999Z</time></trkpt><trkpt lat="40.39904400879583" lon="15.580073743702451"><ele>450.0</ele><time>2026-04-26T15:07:03.999Z</time></trkpt><trkpt lat="40.398787985354254" lon="15.580268210642448"><ele>452.0</ele><time>2026-04-26T15:07:04.999Z</time></trkpt><trkpt lat="40.39827562456985" lon="15.580656116446747"><ele>452.0</ele><time>2026-04-26T15:07:06.999Z</time></trkpt><trkpt lat="40.39802208336097" lon="15.580854560155824"><ele>452.0</ele><time>2026-04-26T15:07:07.999Z</time></trkpt><trkpt lat="40.397770819434264" lon="15.581055053013507"><ele>452.5</ele><time>2026-04-26T15:07:08.999Z</time></trkpt><trkpt lat="40.39751917987713" lon="15.581257695546318"><ele>453.0</ele><time>2026-04-26T15:07:09.999Z</time></trkpt><trkpt lat="40.39726596085137" lon="15.581455726138454"><ele>452.0</ele><time>2026-04-26T15:07:10.999Z</time></trkpt><trkpt lat="40.39701217122144" lon="15.581648800762963"><ele>451.0</ele><time>2026-04-26T15:07:11.999Z</time></trkpt><trkpt lat="40.39675585103779" lon="15.581839902048234"><ele>450.0</ele><time>2026-04-26T15:07:12.999Z</time></trkpt><trkpt lat="40.39650048822573" lon="15.582031140936447"><ele>449.0</ele><time>2026-04-26T15:07:13.999Z</time></trkpt><trkpt lat="40.39624341826797" lon="15.582220117324184"><ele>449.0</ele><time>2026-04-26T15:07:14.999Z</time></trkpt><trkpt lat="40.3959873546067" lon="15.582408834309835"><ele>449.0</ele><time>2026-04-26T15:07:15.999Z</time></trkpt><trkpt lat="40.39547616643743" lon="15.582792894886579"><ele>448.5</ele><time>2026-04-26T15:07:17.999Z</time></trkpt><trkpt lat="40.39522047054227" lon="15.582986225589678"><ele>448.0</ele><time>2026-04-26T15:07:18.999Z</time></trkpt><trkpt lat="40.3949635096954" lon="15.583176372878548"><ele>448.0</ele><time>2026-04-26T15:07:19.999Z</time></trkpt><trkpt lat="40.394705331458304" lon="15.583365851773264"><ele>448.0</ele><time>2026-04-26T15:07:20.999Z</time></trkpt><trkpt lat="40.39444672650011" lon="15.583553151724727"><ele>448.0</ele><time>2026-04-26T15:07:21.999Z</time></trkpt><trkpt lat="40.3941841282842" lon="15.583734859943474"><ele>448.0</ele><time>2026-04-26T15:07:22.999Z</time></trkpt><trkpt lat="40.393923472161234" lon="15.583919512699248"><ele>448.5</ele><time>2026-04-26T15:07:23.999Z</time></trkpt><trkpt lat="40.3936649987233" lon="15.584109822371348"><ele>449.0</ele><time>2026-04-26T15:07:24.999Z</time></trkpt><trkpt lat="40.39341327806423" lon="15.584311835420598"><ele>449.0</ele><time>2026-04-26T15:07:25.999Z</time></trkpt><trkpt lat="40.393163454859064" lon="15.584517259655172"><ele>449.0</ele><time>2026-04-26T15:07:26.999Z</time></trkpt><trkpt lat="40.392912268606324" lon="15.584722074989578"><ele>448.0</ele><time>2026-04-26T15:07:27.999Z</time></trkpt><trkpt lat="40.39265834095321" lon="15.584921011764106"><ele>447.0</ele><time>2026-04-26T15:07:28.999Z</time></trkpt><trkpt lat="40.39240205642396" lon="15.58511535613956"><ele>447.0</ele><time>2026-04-26T15:07:29.999Z</time></trkpt><trkpt lat="40.392145618525134" lon="15.58530771097896"><ele>447.0</ele><time>2026-04-26T15:07:31Z</time></trkpt><trkpt lat="40.39189001754739" lon="15.585499506690482"><ele>448.0</ele><time>2026-04-26T15:07:32Z</time></trkpt><trkpt lat="40.391635169646605" lon="15.585695149093644"><ele>449.0</ele><time>2026-04-26T15:07:33Z</time></trkpt><trkpt lat="40.39138406635324" lon="15.58589570472202"><ele>449.5</ele><time>2026-04-26T15:07:34Z</time></trkpt><trkpt lat="40.39113430354831" lon="15.586100839964542"><ele>450.0</ele><time>2026-04-26T15:07:35Z</time></trkpt><trkpt lat="40.39088380595045" lon="15.586305423894302"><ele>450.5</ele><time>2026-04-26T15:07:36Z</time></trkpt><trkpt lat="40.39063294348147" lon="15.586510100085375"><ele>451.0</ele><time>2026-04-26T15:07:37Z</time></trkpt><trkpt lat="40.39038185187235" lon="15.586715678506884"><ele>450.0</ele><time>2026-04-26T15:07:38Z</time></trkpt><trkpt lat="40.390131375065295" lon="15.586919616619323"><ele>449.0</ele><time>2026-04-26T15:07:39Z</time></trkpt><trkpt lat="40.389880980666604" lon="15.587121840747576"><ele>449.0</ele><time>2026-04-26T15:07:40Z</time></trkpt><trkpt lat="40.389631124348405" lon="15.587326537679155"><ele>449.0</ele><time>2026-04-26T15:07:41Z</time></trkpt><trkpt lat="40.38938027849779" lon="15.587529563580805"><ele>449.0</ele><time>2026-04-26T15:07:42Z</time></trkpt><trkpt lat="40.38912781412199" lon="15.587731037891736"><ele>449.0</ele><time>2026-04-26T15:07:43Z</time></trkpt><trkpt lat="40.388874409423316" lon="15.587927204506629"><ele>450.0</ele><time>2026-04-26T15:07:44Z</time></trkpt><trkpt lat="40.38861928424454" lon="15.58812328432787"><ele>451.0</ele><time>2026-04-26T15:07:45Z</time></trkpt><trkpt lat="40.38836561407333" lon="15.588318851995865"><ele>451.0</ele><time>2026-04-26T15:07:46Z</time></trkpt><trkpt lat="40.38811237358353" lon="15.588520513974018"><ele>451.0</ele><time>2026-04-26T15:07:47Z</time></trkpt><trkpt lat="40.38786014806688" lon="15.588721907559524"><ele>450.0</ele><time>2026-04-26T15:07:48Z</time></trkpt><trkpt lat="40.38760836828162" lon="15.588922681174685"><ele>449.0</ele><time>2026-04-26T15:07:49Z</time></trkpt><trkpt lat="40.38735650599803" lon="15.589125450344191"><ele>449.0</ele><time>2026-04-26T15:07:50Z</time></trkpt><trkpt lat="40.387105782772295" lon="15.589329843314996"><ele>449.0</ele><time>2026-04-26T15:07:51Z</time></trkpt><trkpt lat="40.386856379590185" lon="15.589536782469953"><ele>450.0</ele><time>2026-04-26T15:07:52Z</time></trkpt><trkpt lat="40.38660700717434" lon="15.58974226665665"><ele>451.0</ele><time>2026-04-26T15:07:53Z</time></trkpt><trkpt lat="40.38635606631936" lon="15.589944999047916"><ele>450.0</ele><time>2026-04-26T15:07:54Z</time></trkpt><trkpt lat="40.386104936286245" lon="15.590145598686306"><ele>449.0</ele><time>2026-04-26T15:07:55Z</time></trkpt><trkpt lat="40.385852090295806" lon="15.59034445485876"><ele>449.0</ele><time>2026-04-26T15:07:56Z</time></trkpt><trkpt lat="40.38560072459454" lon="15.590546199989666"><ele>449.0</ele><time>2026-04-26T15:07:57Z</time></trkpt><trkpt lat="40.38534998539498" lon="15.59074843055869"><ele>450.5</ele><time>2026-04-26T15:07:58Z</time></trkpt><trkpt lat="40.38510013531323" lon="15.59095192004968"><ele>452.0</ele><time>2026-04-26T15:07:59Z</time></trkpt><trkpt lat="40.38484973160953" lon="15.59115789416841"><ele>451.5</ele><time>2026-04-26T15:08:00Z</time></trkpt><trkpt lat="40.384598478366215" lon="15.591362387894089"><ele>451.0</ele><time>2026-04-26T15:08:01Z</time></trkpt><trkpt lat="40.38434825868226" lon="15.591566014392306"><ele>451.0</ele><time>2026-04-26T15:08:02Z</time></trkpt><trkpt lat="40.38409757359256" lon="15.591769242819511"><ele>451.0</ele><time>2026-04-26T15:08:03Z</time></trkpt><trkpt lat="40.38384694053098" lon="15.591972751389653"><ele>451.0</ele><time>2026-04-26T15:08:04Z</time></trkpt><trkpt lat="40.38359702704445" lon="15.592176259107953"><ele>451.0</ele><time>2026-04-26T15:08:05Z</time></trkpt><trkpt lat="40.38334660573144" lon="15.592378903988022"><ele>451.0</ele><time>2026-04-26T15:08:06Z</time></trkpt><trkpt lat="40.383096082130834" lon="15.592580880865151"><ele>451.0</ele><time>2026-04-26T15:08:07Z</time></trkpt><trkpt lat="40.38284300585404" lon="15.592784238999945"><ele>451.0</ele><time>2026-04-26T15:08:08Z</time></trkpt><trkpt lat="40.38258913555721" lon="15.592983239132858"><ele>451.0</ele><time>2026-04-26T15:08:09Z</time></trkpt><trkpt lat="40.38233461790448" lon="15.593181267154012"><ele>451.5</ele><time>2026-04-26T15:08:10Z</time></trkpt><trkpt lat="40.38207813756451" lon="15.593376710503662"><ele>452.0</ele><time>2026-04-26T15:08:11Z</time></trkpt><trkpt lat="40.381822539206574" lon="15.593569298013668"><ele>452.5</ele><time>2026-04-26T15:08:12Z</time></trkpt><trkpt lat="40.38156640158303" lon="15.593761126212984"><ele>453.0</ele><time>2026-04-26T15:08:13Z</time></trkpt><trkpt lat="40.38131028845828" lon="15.593951421352706"><ele>452.0</ele><time>2026-04-26T15:08:14Z</time></trkpt><trkpt lat="40.38105292632309" lon="15.594141374189247"><ele>451.0</ele><time>2026-04-26T15:08:15Z</time></trkpt><trkpt lat="40.380795291639174" lon="15.594330815210206"><ele>451.0</ele><time>2026-04-26T15:08:16Z</time></trkpt><trkpt lat="40.3805378076191" lon="15.594519416358262"><ele>451.0</ele><time>2026-04-26T15:08:17Z</time></trkpt><trkpt lat="40.380279315492245" lon="15.594708232218133"><ele>451.5</ele><time>2026-04-26T15:08:18Z</time></trkpt><trkpt lat="40.38002212810314" lon="15.59489841507821"><ele>452.0</ele><time>2026-04-26T15:08:19Z</time></trkpt><trkpt lat="40.37976628804743" lon="15.595088262267659"><ele>452.0</ele><time>2026-04-26T15:08:20Z</time></trkpt><trkpt lat="40.37951022800347" lon="15.595278694141786"><ele>452.0</ele><time>2026-04-26T15:08:21Z</time></trkpt><trkpt lat="40.37925349320404" lon="15.595467668527581"><ele>452.5</ele><time>2026-04-26T15:08:22Z</time></trkpt><trkpt lat="40.37899511666355" lon="15.595657939119613"><ele>453.0</ele><time>2026-04-26T15:08:23Z</time></trkpt><trkpt lat="40.378736217717176" lon="15.595847158001185"><ele>452.5</ele><time>2026-04-26T15:08:24Z</time></trkpt><trkpt lat="40.378478222257584" lon="15.596035200137504"><ele>452.0</ele><time>2026-04-26T15:08:25Z</time></trkpt><trkpt lat="40.37822007089551" lon="15.596223797950852"><ele>452.0</ele><time>2026-04-26T15:08:26Z</time></trkpt><trkpt lat="40.377963396530994" lon="15.596412297625982"><ele>452.0</ele><time>2026-04-26T15:08:27Z</time></trkpt><trkpt lat="40.37770527617755" lon="15.596599974809473"><ele>452.0</ele><time>2026-04-26T15:08:28Z</time></trkpt><trkpt lat="40.377448664813215" lon="15.596790051596221"><ele>452.0</ele><time>2026-04-26T15:08:29Z</time></trkpt><trkpt lat="40.3771909769563" lon="15.596979008388729"><ele>452.0</ele><time>2026-04-26T15:08:30Z</time></trkpt><trkpt lat="40.37693353190464" lon="15.597165268277633"><ele>452.0</ele><time>2026-04-26T15:08:31Z</time></trkpt><trkpt lat="40.376693562077996" lon="15.59735528920781"><ele>452.0</ele><time>2026-04-26T15:08:32Z</time></trkpt><trkpt lat="40.37642202302316" lon="15.597544810271112"><ele>452.0</ele><time>2026-04-26T15:08:33Z</time></trkpt><trkpt lat="40.37616333221304" lon="15.597732431049723"><ele>451.5</ele><time>2026-04-26T15:08:34Z</time></trkpt><trkpt lat="40.37590513445314" lon="15.597919535575066"><ele>451.0</ele><time>2026-04-26T15:08:35Z</time></trkpt><trkpt lat="40.37564823017164" lon="15.598103904419437"><ele>451.5</ele><time>2026-04-26T15:08:36Z</time></trkpt><trkpt lat="40.37538833312464" lon="15.598286251197562"><ele>452.0</ele><time>2026-04-26T15:08:37Z</time></trkpt><trkpt lat="40.37512638928908" lon="15.59846442021214"><ele>452.0</ele><time>2026-04-26T15:08:38Z</time></trkpt><trkpt lat="40.374862904582685" lon="15.598637305788172"><ele>452.0</ele><time>2026-04-26T15:08:39Z</time></trkpt><trkpt lat="40.37459686867568" lon="15.598805712601562"><ele>451.5</ele><time>2026-04-26T15:08:40Z</time></trkpt><trkpt lat="40.37432873682002" lon="15.5989666471084"><ele>451.0</ele><time>2026-04-26T15:08:41Z</time></trkpt><trkpt lat="40.37405900059704" lon="15.599121781143598"><ele>451.5</ele><time>2026-04-26T15:08:42Z</time></trkpt><trkpt lat="40.37378769153116" lon="15.599272066302737"><ele>452.0</ele><time>2026-04-26T15:08:43Z</time></trkpt><trkpt lat="40.37351416606462" lon="15.599417751827406"><ele>452.0</ele><time>2026-04-26T15:08:43.999Z</time></trkpt><trkpt lat="40.37323666382836" lon="15.5995560921339"><ele>452.0</ele><time>2026-04-26T15:08:44.999Z</time></trkpt><trkpt lat="40.372959189121154" lon="15.59968807337283"><ele>452.0</ele><time>2026-04-26T15:08:45.999Z</time></trkpt><trkpt lat="40.37267946736441" lon="15.599812656986186"><ele>452.0</ele><time>2026-04-26T15:08:46.999Z</time></trkpt><trkpt lat="40.37240423582167" lon="15.599938855801602"><ele>453.0</ele><time>2026-04-26T15:08:47.999Z</time></trkpt><trkpt lat="40.37212550757591" lon="15.60006794990101"><ele>454.0</ele><time>2026-04-26T15:08:48.999Z</time></trkpt><trkpt lat="40.37184650921903" lon="15.600191622647271"><ele>454.0</ele><time>2026-04-26T15:08:49.999Z</time></trkpt><trkpt lat="40.37156701902983" lon="15.600315794944432"><ele>454.0</ele><time>2026-04-26T15:08:50.999Z</time></trkpt><trkpt lat="40.371285945256204" lon="15.600437621585353"><ele>454.5</ele><time>2026-04-26T15:08:51.999Z</time></trkpt><trkpt lat="40.37100524370578" lon="15.600562244131781"><ele>455.0</ele><time>2026-04-26T15:08:52.999Z</time></trkpt><trkpt lat="40.37072573434137" lon="15.600689851843834"><ele>454.5</ele><time>2026-04-26T15:08:53.999Z</time></trkpt><trkpt lat="40.37044604985229" lon="15.600819599825197"><ele>454.0</ele><time>2026-04-26T15:08:54.999Z</time></trkpt><trkpt lat="40.37016863239378" lon="15.600954064165496"><ele>454.0</ele><time>2026-04-26T15:08:55.999Z</time></trkpt><trkpt lat="40.3698921836251" lon="15.601091135585467"><ele>454.0</ele><time>2026-04-26T15:08:56.999Z</time></trkpt><trkpt lat="40.369617009296434" lon="15.60123145314392"><ele>455.0</ele><time>2026-04-26T15:08:57.999Z</time></trkpt><trkpt lat="40.369345123687005" lon="15.60138036465436"><ele>456.0</ele><time>2026-04-26T15:08:58.999Z</time></trkpt><trkpt lat="40.3690758273834" lon="15.601540357975162"><ele>455.0</ele><time>2026-04-26T15:08:59.999Z</time></trkpt><trkpt lat="40.36880811306436" lon="15.601702892073245"><ele>454.0</ele><time>2026-04-26T15:09:00.999Z</time></trkpt><trkpt lat="40.36854173254454" lon="15.601873212809354"><ele>454.5</ele><time>2026-04-26T15:09:01.999Z</time></trkpt><trkpt lat="40.36827652323152" lon="15.602047511877668"><ele>455.0</ele><time>2026-04-26T15:09:02.999Z</time></trkpt><trkpt lat="40.368013356852266" lon="15.602223680875827"><ele>455.5</ele><time>2026-04-26T15:09:03.999Z</time></trkpt><trkpt lat="40.36775221874929" lon="15.602405567639543"><ele>456.0</ele><time>2026-04-26T15:09:04.999Z</time></trkpt><trkpt lat="40.367494418376275" lon="15.60259562366789"><ele>456.0</ele><time>2026-04-26T15:09:05.999Z</time></trkpt><trkpt lat="40.36723805078974" lon="15.602792825767787"><ele>456.0</ele><time>2026-04-26T15:09:06.999Z</time></trkpt><trkpt lat="40.36698689546665" lon="15.602996599251687"><ele>456.0</ele><time>2026-04-26T15:09:07.999Z</time></trkpt><trkpt lat="40.36673690956779" lon="15.603203565805833"><ele>456.0</ele><time>2026-04-26T15:09:08.999Z</time></trkpt><trkpt lat="40.36649152552436" lon="15.603417166581151"><ele>456.5</ele><time>2026-04-26T15:09:09.999Z</time></trkpt><trkpt lat="40.36624602955289" lon="15.603642260479145"><ele>457.0</ele><time>2026-04-26T15:09:10.999Z</time></trkpt><trkpt lat="40.366008523499" lon="15.603868389841859"><ele>457.0</ele><time>2026-04-26T15:09:11.999Z</time></trkpt><trkpt lat="40.365773112185124" lon="15.60409982098628"><ele>457.0</ele><time>2026-04-26T15:09:12.999Z</time></trkpt><trkpt lat="40.36553922282073" lon="15.604336200419331"><ele>456.5</ele><time>2026-04-26T15:09:13.999Z</time></trkpt><trkpt lat="40.36530662319769" lon="15.604570956033273"><ele>456.0</ele><time>2026-04-26T15:09:14.999Z</time></trkpt><trkpt lat="40.36507437248984" lon="15.60480839156775"><ele>456.0</ele><time>2026-04-26T15:09:15.999Z</time></trkpt><trkpt lat="40.364843090424976" lon="15.605046627510447"><ele>456.0</ele><time>2026-04-26T15:09:16.999Z</time></trkpt><trkpt lat="40.36461343633495" lon="15.605288365837268"><ele>456.0</ele><time>2026-04-26T15:09:17.999Z</time></trkpt><trkpt lat="40.36438557554656" lon="15.605534158924737"><ele>456.0</ele><time>2026-04-26T15:09:18.999Z</time></trkpt><trkpt lat="40.36415899792834" lon="15.60578249742598"><ele>456.0</ele><time>2026-04-26T15:09:19.999Z</time></trkpt><trkpt lat="40.363931672278525" lon="15.606029407912938"><ele>456.0</ele><time>2026-04-26T15:09:20.999Z</time></trkpt><trkpt lat="40.363703841105554" lon="15.606274600817379"><ele>456.5</ele><time>2026-04-26T15:09:21.999Z</time></trkpt><trkpt lat="40.3634747515448" lon="15.606518645555564"><ele>457.0</ele><time>2026-04-26T15:09:22.999Z</time></trkpt><trkpt lat="40.36324589281022" lon="15.606762250983394"><ele>457.0</ele><time>2026-04-26T15:09:23.999Z</time></trkpt><trkpt lat="40.36301739327422" lon="15.607007458898558"><ele>457.0</ele><time>2026-04-26T15:09:24.999Z</time></trkpt><trkpt lat="40.36278883541776" lon="15.607253092711785"><ele>457.0</ele><time>2026-04-26T15:09:25.999Z</time></trkpt><trkpt lat="40.3625581455324" lon="15.607495482766518"><ele>457.0</ele><time>2026-04-26T15:09:26.999Z</time></trkpt><trkpt lat="40.362326776064606" lon="15.607737493556995"><ele>456.5</ele><time>2026-04-26T15:09:27.999Z</time></trkpt><trkpt lat="40.36209682568762" lon="15.607979372399809"><ele>456.0</ele><time>2026-04-26T15:09:28.999Z</time></trkpt><trkpt lat="40.361865598261126" lon="15.608220719948035"><ele>456.0</ele><time>2026-04-26T15:09:29.999Z</time></trkpt><trkpt lat="40.36163317950466" lon="15.608456959363673"><ele>456.0</ele><time>2026-04-26T15:09:30.999Z</time></trkpt><trkpt lat="40.361397042593914" lon="15.608689447881307"><ele>456.0</ele><time>2026-04-26T15:09:31.999Z</time></trkpt><trkpt lat="40.36115759366735" lon="15.608915851924856"><ele>456.0</ele><time>2026-04-26T15:09:32.999Z</time></trkpt><trkpt lat="40.36091672939052" lon="15.60913977753989"><ele>456.0</ele><time>2026-04-26T15:09:33.999Z</time></trkpt><trkpt lat="40.36067242788401" lon="15.609361195486178"><ele>456.0</ele><time>2026-04-26T15:09:34.999Z</time></trkpt><trkpt lat="40.360425702991535" lon="15.609578155348153"><ele>456.5</ele><time>2026-04-26T15:09:35.999Z</time></trkpt><trkpt lat="40.360175910154936" lon="15.609787194963957"><ele>457.0</ele><time>2026-04-26T15:09:36.999Z</time></trkpt><trkpt lat="40.359923616507075" lon="15.609989236815705"><ele>457.0</ele><time>2026-04-26T15:09:37.999Z</time></trkpt><trkpt lat="40.35967095185449" lon="15.610186035149136"><ele>457.0</ele><time>2026-04-26T15:09:38.999Z</time></trkpt><trkpt lat="40.35941710597971" lon="15.610381471709951"><ele>457.0</ele><time>2026-04-26T15:09:39.999Z</time></trkpt><trkpt lat="40.359160438891124" lon="15.610578245411622"><ele>457.0</ele><time>2026-04-26T15:09:40.999Z</time></trkpt><trkpt lat="40.358905841516254" lon="15.610772863844414"><ele>456.0</ele><time>2026-04-26T15:09:41.999Z</time></trkpt><trkpt lat="40.35865065317452" lon="15.61096483792922"><ele>455.0</ele><time>2026-04-26T15:09:42.999Z</time></trkpt><trkpt lat="40.358394660411975" lon="15.611156397647765"><ele>455.5</ele><time>2026-04-26T15:09:43.999Z</time></trkpt><trkpt lat="40.35813911494245" lon="15.611350035414814"><ele>456.0</ele><time>2026-04-26T15:09:44.999Z</time></trkpt><trkpt lat="40.35788296783662" lon="15.61154243084484"><ele>456.0</ele><time>2026-04-26T15:09:45.999Z</time></trkpt><trkpt lat="40.35763088626832" lon="15.611739354536702"><ele>456.0</ele><time>2026-04-26T15:09:46.999Z</time></trkpt><trkpt lat="40.35737717420083" lon="15.611932514735866"><ele>457.0</ele><time>2026-04-26T15:09:47.999Z</time></trkpt><trkpt lat="40.35712186933418" lon="15.612126575812383"><ele>458.0</ele><time>2026-04-26T15:09:48.999Z</time></trkpt><trkpt lat="40.35686694884082" lon="15.612321787893192"><ele>458.0</ele><time>2026-04-26T15:09:50Z</time></trkpt><trkpt lat="40.356610728388645" lon="15.61251337391463"><ele>458.0</ele><time>2026-04-26T15:09:51Z</time></trkpt><trkpt lat="40.35635434322446" lon="15.612704451805977"><ele>458.0</ele><time>2026-04-26T15:09:52Z</time></trkpt><trkpt lat="40.35609973901989" lon="15.612894174726929"><ele>458.0</ele><time>2026-04-26T15:09:53Z</time></trkpt><trkpt lat="40.35584536182815" lon="15.613087563852071"><ele>458.0</ele><time>2026-04-26T15:09:54Z</time></trkpt><trkpt lat="40.35559240611589" lon="15.613284896417964"><ele>458.0</ele><time>2026-04-26T15:09:55Z</time></trkpt><trkpt lat="40.35533852834032" lon="15.613481388743182"><ele>458.5</ele><time>2026-04-26T15:09:56Z</time></trkpt><trkpt lat="40.35508525462579" lon="15.613680500921388"><ele>459.0</ele><time>2026-04-26T15:09:57Z</time></trkpt><trkpt lat="40.35483214227701" lon="15.613876180802398"><ele>458.5</ele><time>2026-04-26T15:09:58Z</time></trkpt><trkpt lat="40.35457636407061" lon="15.614065713373117"><ele>458.0</ele><time>2026-04-26T15:09:59Z</time></trkpt><trkpt lat="40.35431988588694" lon="15.614255294270823"><ele>458.0</ele><time>2026-04-26T15:10:00Z</time></trkpt><trkpt lat="40.35406296526353" lon="15.614447094796004"><ele>458.0</ele><time>2026-04-26T15:10:01Z</time></trkpt><trkpt lat="40.353806986637885" lon="15.614641164944477"><ele>458.0</ele><time>2026-04-26T15:10:02Z</time></trkpt><trkpt lat="40.353550518692906" lon="15.614835156661089"><ele>458.0</ele><time>2026-04-26T15:10:03Z</time></trkpt><trkpt lat="40.35329556236416" lon="15.615030355299846"><ele>458.0</ele><time>2026-04-26T15:10:04Z</time></trkpt><trkpt lat="40.35304147949361" lon="15.615224621904998"><ele>458.0</ele><time>2026-04-26T15:10:05Z</time></trkpt><trkpt lat="40.352786883778535" lon="15.615422948646536"><ele>459.5</ele><time>2026-04-26T15:10:06Z</time></trkpt><trkpt lat="40.35253177986281" lon="15.615616454623042"><ele>461.0</ele><time>2026-04-26T15:10:07Z</time></trkpt><trkpt lat="40.352274352333495" lon="15.615807858666408"><ele>461.0</ele><time>2026-04-26T15:10:08Z</time></trkpt><trkpt lat="40.352016278501786" lon="15.615998741975783"><ele>461.0</ele><time>2026-04-26T15:10:09Z</time></trkpt><trkpt lat="40.35176088734606" lon="15.61619339672004"><ele>461.0</ele><time>2026-04-26T15:10:10Z</time></trkpt><trkpt lat="40.351506330929574" lon="15.61638892169194"><ele>461.0</ele><time>2026-04-26T15:10:11Z</time></trkpt><trkpt lat="40.351252318749616" lon="15.616585304750133"><ele>460.5</ele><time>2026-04-26T15:10:12Z</time></trkpt><trkpt lat="40.35099926332356" lon="15.616779810205662"><ele>460.0</ele><time>2026-04-26T15:10:13Z</time></trkpt><trkpt lat="40.35074419122165" lon="15.616974138396767"><ele>461.5</ele><time>2026-04-26T15:10:14Z</time></trkpt><trkpt lat="40.35048858648419" lon="15.617166911493307"><ele>463.0</ele><time>2026-04-26T15:10:15Z</time></trkpt><trkpt lat="40.35023234790411" lon="15.6173580045265"><ele>463.0</ele><time>2026-04-26T15:10:16Z</time></trkpt><trkpt lat="40.34997601476164" lon="15.617548653404262"><ele>463.0</ele><time>2026-04-26T15:10:17Z</time></trkpt><trkpt lat="40.34971957249931" lon="15.617741453220665"><ele>462.5</ele><time>2026-04-26T15:10:18Z</time></trkpt><trkpt lat="40.34946440007851" lon="15.61793541618711"><ele>462.0</ele><time>2026-04-26T15:10:19Z</time></trkpt><trkpt lat="40.3492106222164" lon="15.618129343094395"><ele>462.0</ele><time>2026-04-26T15:10:20Z</time></trkpt><trkpt lat="40.34895734982028" lon="15.618325748134646"><ele>462.0</ele><time>2026-04-26T15:10:21Z</time></trkpt><trkpt lat="40.34870367814151" lon="15.618520846924902"><ele>462.0</ele><time>2026-04-26T15:10:22Z</time></trkpt><trkpt lat="40.34844909059367" lon="15.618712293688207"><ele>462.0</ele><time>2026-04-26T15:10:23Z</time></trkpt><trkpt lat="40.34819354748306" lon="15.618905181946618"><ele>463.0</ele><time>2026-04-26T15:10:24Z</time></trkpt><trkpt lat="40.34793976125538" lon="15.619102917055665"><ele>464.0</ele><time>2026-04-26T15:10:25Z</time></trkpt><trkpt lat="40.34768838078666" lon="15.619307028943165"><ele>464.0</ele><time>2026-04-26T15:10:26Z</time></trkpt><trkpt lat="40.347437765311035" lon="15.619511372532845"><ele>464.0</ele><time>2026-04-26T15:10:27Z</time></trkpt><trkpt lat="40.34718595620111" lon="15.619713154391903"><ele>464.0</ele><time>2026-04-26T15:10:28Z</time></trkpt><trkpt lat="40.346931869348104" lon="15.619912424604856"><ele>464.0</ele><time>2026-04-26T15:10:29Z</time></trkpt><trkpt lat="40.3466762815172" lon="15.620110887738491"><ele>464.0</ele><time>2026-04-26T15:10:30Z</time></trkpt><trkpt lat="40.346421619617274" lon="15.620305766878637"><ele>464.0</ele><time>2026-04-26T15:10:31Z</time></trkpt><trkpt lat="40.34616526866294" lon="15.62049870763093"><ele>465.5</ele><time>2026-04-26T15:10:32Z</time></trkpt><trkpt lat="40.34590890594272" lon="15.620691490855428"><ele>467.0</ele><time>2026-04-26T15:10:33Z</time></trkpt><trkpt lat="40.345652045370116" lon="15.620884331726588"><ele>467.5</ele><time>2026-04-26T15:10:34Z</time></trkpt><trkpt lat="40.345394328387606" lon="15.621074193214328"><ele>468.0</ele><time>2026-04-26T15:10:34.999Z</time></trkpt><trkpt lat="40.345135369588675" lon="15.621259096139722"><ele>468.0</ele><time>2026-04-26T15:10:35.999Z</time></trkpt><trkpt lat="40.34487421395913" lon="15.621438749103355"><ele>468.0</ele><time>2026-04-26T15:10:36.999Z</time></trkpt><trkpt lat="40.344610591046724" lon="15.621610347491162"><ele>468.0</ele><time>2026-04-26T15:10:37.999Z</time></trkpt><trkpt lat="40.34434403885157" lon="15.621772830299449"><ele>468.0</ele><time>2026-04-26T15:10:38.999Z</time></trkpt><trkpt lat="40.34407370666816" lon="15.621928793758617"><ele>469.0</ele><time>2026-04-26T15:10:39.999Z</time></trkpt><trkpt lat="40.343801232522566" lon="15.622079855813572"><ele>470.0</ele><time>2026-04-26T15:10:40.999Z</time></trkpt><trkpt lat="40.34352815634818" lon="15.622230570000587"><ele>470.0</ele><time>2026-04-26T15:10:41.999Z</time></trkpt><trkpt lat="40.34325734283523" lon="15.622382179160896"><ele>470.0</ele><time>2026-04-26T15:10:42.999Z</time></trkpt><trkpt lat="40.34298574678654" lon="15.622536613147219"><ele>470.0</ele><time>2026-04-26T15:10:43.999Z</time></trkpt><trkpt lat="40.34271473035764" lon="15.622686473206254"><ele>470.0</ele><time>2026-04-26T15:10:44.999Z</time></trkpt><trkpt lat="40.34243902425842" lon="15.622825301887733"><ele>471.5</ele><time>2026-04-26T15:10:45.999Z</time></trkpt><trkpt lat="40.342162428860476" lon="15.622958762861167"><ele>473.0</ele><time>2026-04-26T15:10:46.999Z</time></trkpt><trkpt lat="40.3418880777169" lon="15.623097296768606"><ele>473.0</ele><time>2026-04-26T15:10:47.999Z</time></trkpt><trkpt lat="40.341616182026485" lon="15.623247460514968"><ele>473.0</ele><time>2026-04-26T15:10:48.999Z</time></trkpt><trkpt lat="40.34134860598899" lon="15.623406374856778"><ele>473.0</ele><time>2026-04-26T15:10:49.999Z</time></trkpt><trkpt lat="40.34108325919606" lon="15.623572508766477"><ele>473.0</ele><time>2026-04-26T15:10:50.999Z</time></trkpt><trkpt lat="40.34081963655751" lon="15.623745985713176"><ele>473.5</ele><time>2026-04-26T15:10:51.999Z</time></trkpt><trkpt lat="40.340556396088424" lon="15.623922491899048"><ele>474.0</ele><time>2026-04-26T15:10:52.999Z</time></trkpt><trkpt lat="40.34029560282009" lon="15.624098733886703"><ele>475.0</ele><time>2026-04-26T15:10:53.999Z</time></trkpt><trkpt lat="40.34003290189249" lon="15.624277011105217"><ele>476.0</ele><time>2026-04-26T15:10:54.999Z</time></trkpt><trkpt lat="40.33977192048194" lon="15.624455914257622"><ele>476.0</ele><time>2026-04-26T15:10:55.999Z</time></trkpt><trkpt lat="40.339511595100085" lon="15.624637485536077"><ele>476.0</ele><time>2026-04-26T15:10:56.999Z</time></trkpt><trkpt lat="40.33925273188159" lon="15.62482035087493"><ele>476.0</ele><time>2026-04-26T15:10:57.999Z</time></trkpt><trkpt lat="40.338994071501446" lon="15.625008676397306"><ele>476.0</ele><time>2026-04-26T15:10:58.999Z</time></trkpt><trkpt lat="40.33873719945952" lon="15.625200150108356"><ele>477.0</ele><time>2026-04-26T15:10:59.999Z</time></trkpt><trkpt lat="40.33847939792132" lon="15.625390418827642"><ele>478.0</ele><time>2026-04-26T15:11:00.999Z</time></trkpt><trkpt lat="40.33821947471641" lon="15.625573691171866"><ele>478.5</ele><time>2026-04-26T15:11:01.999Z</time></trkpt><trkpt lat="40.3379579156128" lon="15.625754653321772"><ele>479.0</ele><time>2026-04-26T15:11:02.999Z</time></trkpt><trkpt lat="40.3376974816315" lon="15.6259384829921"><ele>479.0</ele><time>2026-04-26T15:11:03.999Z</time></trkpt><trkpt lat="40.33743953299194" lon="15.626127649629863"><ele>479.0</ele><time>2026-04-26T15:11:04.999Z</time></trkpt><trkpt lat="40.33718425506373" lon="15.626324656471681"><ele>478.5</ele><time>2026-04-26T15:11:05.999Z</time></trkpt><trkpt lat="40.33693289945141" lon="15.626528573818158"><ele>478.0</ele><time>2026-04-26T15:11:06.999Z</time></trkpt><trkpt lat="40.33668522832573" lon="15.626739278914577"><ele>478.0</ele><time>2026-04-26T15:11:07.999Z</time></trkpt><trkpt lat="40.33644134222039" lon="15.62695834257532"><ele>478.0</ele><time>2026-04-26T15:11:08.999Z</time></trkpt><trkpt lat="40.33620090975407" lon="15.627182641183225"><ele>479.5</ele><time>2026-04-26T15:11:09.999Z</time></trkpt><trkpt lat="40.335963245196695" lon="15.62741284754107"><ele>481.0</ele><time>2026-04-26T15:11:10.999Z</time></trkpt><trkpt lat="40.33572737495688" lon="15.627644776743326"><ele>481.0</ele><time>2026-04-26T15:11:11.999Z</time></trkpt><trkpt lat="40.33549228403606" lon="15.627877831288057"><ele>481.0</ele><time>2026-04-26T15:11:12.999Z</time></trkpt><trkpt lat="40.33525768891804" lon="15.62811282160732"><ele>481.0</ele><time>2026-04-26T15:11:13.999Z</time></trkpt><trkpt lat="40.33502565522311" lon="15.628347228203598"><ele>481.0</ele><time>2026-04-26T15:11:14.999Z</time></trkpt><trkpt lat="40.33479361992861" lon="15.628582805761493"><ele>480.5</ele><time>2026-04-26T15:11:15.999Z</time></trkpt><trkpt lat="40.334560524580155" lon="15.628819237382817"><ele>480.0</ele><time>2026-04-26T15:11:16.999Z</time></trkpt><trkpt lat="40.334328264180186" lon="15.62905724775591"><ele>480.0</ele><time>2026-04-26T15:11:17.999Z</time></trkpt><trkpt lat="40.33409691213937" lon="15.629294551902545"><ele>480.0</ele><time>2026-04-26T15:11:18.999Z</time></trkpt><trkpt lat="40.3338660670939" lon="15.629533122223922"><ele>481.0</ele><time>2026-04-26T15:11:19.999Z</time></trkpt><trkpt lat="40.33363448542202" lon="15.629771135348637"><ele>482.0</ele><time>2026-04-26T15:11:20.999Z</time></trkpt><trkpt lat="40.33340058764327" lon="15.63000578960089"><ele>482.0</ele><time>2026-04-26T15:11:21.999Z</time></trkpt><trkpt lat="40.333165043022106" lon="15.630238534951923"><ele>482.0</ele><time>2026-04-26T15:11:22.999Z</time></trkpt><trkpt lat="40.332926049710146" lon="15.6304654334641"><ele>483.0</ele><time>2026-04-26T15:11:23.999Z</time></trkpt><trkpt lat="40.332689174302324" lon="15.630692339423463"><ele>484.0</ele><time>2026-04-26T15:11:24.999Z</time></trkpt><trkpt lat="40.33245336468307" lon="15.630924990913748"><ele>483.5</ele><time>2026-04-26T15:11:25.999Z</time></trkpt><trkpt lat="40.33221551602503" lon="15.631152255847615"><ele>483.0</ele><time>2026-04-26T15:11:26.999Z</time></trkpt><trkpt lat="40.33197484726807" lon="15.631372448739686"><ele>483.0</ele><time>2026-04-26T15:11:27.999Z</time></trkpt><trkpt lat="40.33173157949047" lon="15.631588286414768"><ele>483.0</ele><time>2026-04-26T15:11:28.999Z</time></trkpt><trkpt lat="40.33148509834944" lon="15.631799128988424"><ele>483.5</ele><time>2026-04-26T15:11:29.999Z</time></trkpt><trkpt lat="40.33123460419304" lon="15.632003827449516"><ele>484.0</ele><time>2026-04-26T15:11:30.999Z</time></trkpt><trkpt lat="40.330981417583764" lon="15.63220169398478"><ele>484.0</ele><time>2026-04-26T15:11:31.999Z</time></trkpt><trkpt lat="40.330725027696985" lon="15.632394515676344"><ele>484.0</ele><time>2026-04-26T15:11:32.999Z</time></trkpt><trkpt lat="40.33046678116247" lon="15.632581185091155"><ele>484.0</ele><time>2026-04-26T15:11:33.999Z</time></trkpt><trkpt lat="40.330207002203764" lon="15.632762774842211"><ele>484.0</ele><time>2026-04-26T15:11:34.999Z</time></trkpt><trkpt lat="40.32994588437217" lon="15.632941378522439"><ele>484.5</ele><time>2026-04-26T15:11:35.999Z</time></trkpt><trkpt lat="40.32968318871684" lon="15.633116461913048"><ele>485.0</ele><time>2026-04-26T15:11:36.999Z</time></trkpt><trkpt lat="40.32941874222178" lon="15.633288079637266"><ele>485.0</ele><time>2026-04-26T15:11:37.999Z</time></trkpt><trkpt lat="40.32915433985065" lon="15.633460616495972"><ele>485.0</ele><time>2026-04-26T15:11:38.999Z</time></trkpt><trkpt lat="40.32889050924458" lon="15.633630915100106"><ele>485.0</ele><time>2026-04-26T15:11:39.999Z</time></trkpt><trkpt lat="40.32862500038781" lon="15.633800719140602"><ele>485.0</ele><time>2026-04-26T15:11:40.999Z</time></trkpt><trkpt lat="40.32835990521048" lon="15.63396907442626"><ele>485.0</ele><time>2026-04-26T15:11:41.999Z</time></trkpt><trkpt lat="40.32809454440937" lon="15.634137993917818"><ele>485.0</ele><time>2026-04-26T15:11:42.999Z</time></trkpt><trkpt lat="40.32782978808008" lon="15.634307202808685"><ele>485.5</ele><time>2026-04-26T15:11:43.999Z</time></trkpt><trkpt lat="40.32756523262796" lon="15.634478441430003"><ele>486.0</ele><time>2026-04-26T15:11:44.999Z</time></trkpt><trkpt lat="40.327300577613336" lon="15.634647869710799"><ele>485.0</ele><time>2026-04-26T15:11:45.999Z</time></trkpt><trkpt lat="40.32703556478793" lon="15.634815649973687"><ele>484.0</ele><time>2026-04-26T15:11:46.999Z</time></trkpt><trkpt lat="40.32677058388034" lon="15.634984168755693"><ele>484.0</ele><time>2026-04-26T15:11:47.999Z</time></trkpt><trkpt lat="40.32650520521593" lon="15.635152017545416"><ele>484.0</ele><time>2026-04-26T15:11:48.999Z</time></trkpt><trkpt lat="40.3262375587898" lon="15.635317634411141"><ele>484.5</ele><time>2026-04-26T15:11:49.999Z</time></trkpt><trkpt lat="40.32596974526671" lon="15.635480626637381"><ele>485.0</ele><time>2026-04-26T15:11:50.999Z</time></trkpt><trkpt lat="40.32570213320361" lon="15.635644918051609"><ele>486.0</ele><time>2026-04-26T15:11:51.999Z</time></trkpt><trkpt lat="40.325436165838624" lon="15.63581055939592"><ele>487.0</ele><time>2026-04-26T15:11:52.999Z</time></trkpt><trkpt lat="40.325170906786624" lon="15.6359771665416"><ele>487.0</ele><time>2026-04-26T15:11:53.999Z</time></trkpt><trkpt lat="40.32490532209566" lon="15.636142643686387"><ele>487.0</ele><time>2026-04-26T15:11:54.999Z</time></trkpt><trkpt lat="40.3246387912177" lon="15.636308030214199"><ele>487.0</ele><time>2026-04-26T15:11:55.999Z</time></trkpt><trkpt lat="40.32437205128609" lon="15.63647263913712"><ele>487.0</ele><time>2026-04-26T15:11:56.999Z</time></trkpt><trkpt lat="40.32410434730213" lon="15.63663633051302"><ele>486.0</ele><time>2026-04-26T15:11:57.999Z</time></trkpt><trkpt lat="40.32383619108806" lon="15.636795658191078"><ele>485.0</ele><time>2026-04-26T15:11:58.999Z</time></trkpt><trkpt lat="40.3235661217931" lon="15.636951875023005"><ele>485.0</ele><time>2026-04-26T15:11:59.999Z</time></trkpt><trkpt lat="40.32329517368615" lon="15.637101966710238"><ele>485.0</ele><time>2026-04-26T15:12:00.999Z</time></trkpt><trkpt lat="40.323021621348275" lon="15.637241794980518"><ele>484.5</ele><time>2026-04-26T15:12:01.999Z</time></trkpt><trkpt lat="40.32274523919247" lon="15.637373326004003"><ele>484.0</ele><time>2026-04-26T15:12:02.999Z</time></trkpt><trkpt lat="40.32246577561347" lon="15.63750149867498"><ele>484.5</ele><time>2026-04-26T15:12:03.999Z</time></trkpt><trkpt lat="40.32218623855582" lon="15.637627866263259"><ele>485.0</ele><time>2026-04-26T15:12:04.999Z</time></trkpt><trkpt lat="40.321908082260144" lon="15.63775220994466"><ele>485.5</ele><time>2026-04-26T15:12:05.999Z</time></trkpt><trkpt lat="40.32162797570506" lon="15.637877023166572"><ele>486.0</ele><time>2026-04-26T15:12:07Z</time></trkpt><trkpt lat="40.321346889785225" lon="15.638002271220465"><ele>486.0</ele><time>2026-04-26T15:12:08Z</time></trkpt><trkpt lat="40.32106766962096" lon="15.638125518621857"><ele>486.0</ele><time>2026-04-26T15:12:09Z</time></trkpt><trkpt lat="40.320788071211055" lon="15.638249786190022"><ele>485.0</ele><time>2026-04-26T15:12:10Z</time></trkpt><trkpt lat="40.32050730224772" lon="15.638373563138105"><ele>484.0</ele><time>2026-04-26T15:12:11Z</time></trkpt><trkpt lat="40.32022677717945" lon="15.638492481995625"><ele>484.0</ele><time>2026-04-26T15:12:12Z</time></trkpt><trkpt lat="40.31994635378888" lon="15.638614993752944"><ele>484.0</ele><time>2026-04-26T15:12:13Z</time></trkpt><trkpt lat="40.31966458773599" lon="15.638736156761274"><ele>484.5</ele><time>2026-04-26T15:12:14Z</time></trkpt><trkpt lat="40.31938454479612" lon="15.638857784824282"><ele>485.0</ele><time>2026-04-26T15:12:15Z</time></trkpt><trkpt lat="40.31910611111692" lon="15.638981439455419"><ele>485.0</ele><time>2026-04-26T15:12:16Z</time></trkpt><trkpt lat="40.31882669031247" lon="15.639104931089424"><ele>485.0</ele><time>2026-04-26T15:12:17Z</time></trkpt><trkpt lat="40.31854628982203" lon="15.639226308006945"><ele>485.0</ele><time>2026-04-26T15:12:18Z</time></trkpt><trkpt lat="40.31826523035002" lon="15.639346632455322"><ele>485.0</ele><time>2026-04-26T15:12:19Z</time></trkpt><trkpt lat="40.31798353529193" lon="15.639469289691094"><ele>484.5</ele><time>2026-04-26T15:12:20Z</time></trkpt><trkpt lat="40.31770416772425" lon="15.639593157452062"><ele>484.0</ele><time>2026-04-26T15:12:21Z</time></trkpt><trkpt lat="40.31742416368734" lon="15.639716829331574"><ele>483.0</ele><time>2026-04-26T15:12:22Z</time></trkpt><trkpt lat="40.31714416795543" lon="15.639838739116898"><ele>482.0</ele><time>2026-04-26T15:12:23Z</time></trkpt><trkpt lat="40.31686423826666" lon="15.639960356018596"><ele>482.0</ele><time>2026-04-26T15:12:24Z</time></trkpt><trkpt lat="40.316585064580146" lon="15.64008321975047"><ele>482.0</ele><time>2026-04-26T15:12:25Z</time></trkpt><trkpt lat="40.31630644174467" lon="15.640207036868699"><ele>483.0</ele><time>2026-04-26T15:12:26Z</time></trkpt><trkpt lat="40.3160262722778" lon="15.640330916134236"><ele>484.0</ele><time>2026-04-26T15:12:27Z</time></trkpt><trkpt lat="40.315745673988815" lon="15.640450925454893"><ele>482.5</ele><time>2026-04-26T15:12:28Z</time></trkpt><trkpt lat="40.31546481280296" lon="15.640571099422047"><ele>481.0</ele><time>2026-04-26T15:12:29Z</time></trkpt><trkpt lat="40.31518429203213" lon="15.640692155641956"><ele>481.0</ele><time>2026-04-26T15:12:30Z</time></trkpt><trkpt lat="40.314905424159534" lon="15.640813879764782"><ele>481.0</ele><time>2026-04-26T15:12:31Z</time></trkpt><trkpt lat="40.31462433449137" lon="15.640935400794582"><ele>481.0</ele><time>2026-04-26T15:12:32Z</time></trkpt><trkpt lat="40.314344526075566" lon="15.641058905380472"><ele>481.0</ele><time>2026-04-26T15:12:33Z</time></trkpt><trkpt lat="40.31406508514326" lon="15.64118058204889"><ele>481.0</ele><time>2026-04-26T15:12:34Z</time></trkpt><trkpt lat="40.313785727931915" lon="15.64130263875502"><ele>481.0</ele><time>2026-04-26T15:12:35Z</time></trkpt><trkpt lat="40.31350663628055" lon="15.641425476235488"><ele>481.0</ele><time>2026-04-26T15:12:36Z</time></trkpt><trkpt lat="40.31322739826315" lon="15.641547228029948"><ele>481.0</ele><time>2026-04-26T15:12:37Z</time></trkpt><trkpt lat="40.312948552923764" lon="15.641671150248937"><ele>480.5</ele><time>2026-04-26T15:12:38Z</time></trkpt><trkpt lat="40.31266864734164" lon="15.641793039810272"><ele>480.0</ele><time>2026-04-26T15:12:39Z</time></trkpt><trkpt lat="40.312388414751304" lon="15.641913670034171"><ele>480.0</ele><time>2026-04-26T15:12:40Z</time></trkpt><trkpt lat="40.31210841698019" lon="15.642034302029721"><ele>480.0</ele><time>2026-04-26T15:12:41Z</time></trkpt><trkpt lat="40.311827618610515" lon="15.64215642485514"><ele>480.0</ele><time>2026-04-26T15:12:41.999Z</time></trkpt><trkpt lat="40.3115485945937" lon="15.642279030643516"><ele>480.0</ele><time>2026-04-26T15:12:42.999Z</time></trkpt><trkpt lat="40.31126937172209" lon="15.642403151960304"><ele>480.5</ele><time>2026-04-26T15:12:43.999Z</time></trkpt><trkpt lat="40.31099094565295" lon="15.642526008089433"><ele>481.0</ele><time>2026-04-26T15:12:44.999Z</time></trkpt><trkpt lat="40.31071051278114" lon="15.642649824196276"><ele>481.0</ele><time>2026-04-26T15:12:45.999Z</time></trkpt><trkpt lat="40.31043028668023" lon="15.642774219987583"><ele>481.0</ele><time>2026-04-26T15:12:46.999Z</time></trkpt><trkpt lat="40.31014870879717" lon="15.642894159892473"><ele>480.5</ele><time>2026-04-26T15:12:47.999Z</time></trkpt><trkpt lat="40.3098685510317" lon="15.643014961127568"><ele>480.0</ele><time>2026-04-26T15:12:48.999Z</time></trkpt><trkpt lat="40.30958811096114" lon="15.6431373362529"><ele>478.5</ele><time>2026-04-26T15:12:49.999Z</time></trkpt><trkpt lat="40.309307899517385" lon="15.643259406479455"><ele>477.0</ele><time>2026-04-26T15:12:50.999Z</time></trkpt><trkpt lat="40.30902805541364" lon="15.643380319987637"><ele>477.0</ele><time>2026-04-26T15:12:51.999Z</time></trkpt><trkpt lat="40.308748254730965" lon="15.643502704238983"><ele>477.0</ele><time>2026-04-26T15:12:52.999Z</time></trkpt><trkpt lat="40.30846820676131" lon="15.643622991440015"><ele>477.5</ele><time>2026-04-26T15:12:53.999Z</time></trkpt><trkpt lat="40.308187998815235" lon="15.64373913998837"><ele>478.0</ele><time>2026-04-26T15:12:54.999Z</time></trkpt><trkpt lat="40.307907428467566" lon="15.643857651496567"><ele>476.0</ele><time>2026-04-26T15:12:55.999Z</time></trkpt><trkpt lat="40.30762690764036" lon="15.643977124947128"><ele>474.0</ele><time>2026-04-26T15:12:56.999Z</time></trkpt><trkpt lat="40.30734531747941" lon="15.644093531148142"><ele>473.5</ele><time>2026-04-26T15:12:57.999Z</time></trkpt><trkpt lat="40.3070649734356" lon="15.6442082420153"><ele>473.0</ele><time>2026-04-26T15:12:58.999Z</time></trkpt><trkpt lat="40.306786128639544" lon="15.644322365568012"><ele>473.0</ele><time>2026-04-26T15:12:59.999Z</time></trkpt><trkpt lat="40.3065047250119" lon="15.644437006902914"><ele>473.0</ele><time>2026-04-26T15:13:00.999Z</time></trkpt><trkpt lat="40.306222515982526" lon="15.644550099694834"><ele>472.0</ele><time>2026-04-26T15:13:01.999Z</time></trkpt><trkpt lat="40.305940155349795" lon="15.64466176029704"><ele>471.0</ele><time>2026-04-26T15:13:02.999Z</time></trkpt><trkpt lat="40.30565772558406" lon="15.644770552731337"><ele>473.0</ele><time>2026-04-26T15:13:03.999Z</time></trkpt><trkpt lat="40.305374474378326" lon="15.644878596214689"><ele>475.0</ele><time>2026-04-26T15:13:04.999Z</time></trkpt><trkpt lat="40.30509053900216" lon="15.644982286136333"><ele>475.0</ele><time>2026-04-26T15:13:05.999Z</time></trkpt><trkpt lat="40.30480709482297" lon="15.64508771755488"><ele>475.0</ele><time>2026-04-26T15:13:06.999Z</time></trkpt><trkpt lat="40.30452367329642" lon="15.645194634107556"><ele>474.0</ele><time>2026-04-26T15:13:07.999Z</time></trkpt><trkpt lat="40.304239048648896" lon="15.645297087658008"><ele>473.0</ele><time>2026-04-26T15:13:08.999Z</time></trkpt><trkpt lat="40.30395502820033" lon="15.645396023067292"><ele>473.0</ele><time>2026-04-26T15:13:09.999Z</time></trkpt><trkpt lat="40.30367030878051" lon="15.64549553915009"><ele>473.0</ele><time>2026-04-26T15:13:10.999Z</time></trkpt><trkpt lat="40.303387894483556" lon="15.645594942650247"><ele>473.0</ele><time>2026-04-26T15:13:11.999Z</time></trkpt><trkpt lat="40.303110548133816" lon="15.645697275923581"><ele>473.0</ele><time>2026-04-26T15:13:12.999Z</time></trkpt><trkpt lat="40.30283829499605" lon="15.645803731717082"><ele>474.5</ele><time>2026-04-26T15:13:13.999Z</time></trkpt><trkpt lat="40.3025707041576" lon="15.64591273438591"><ele>476.0</ele><time>2026-04-26T15:13:14.999Z</time></trkpt><trkpt lat="40.302303096411194" lon="15.646024658635984"><ele>477.0</ele><time>2026-04-26T15:13:15.999Z</time></trkpt><trkpt lat="40.30203369017255" lon="15.646133387409227"><ele>478.0</ele><time>2026-04-26T15:13:16.999Z</time></trkpt><trkpt lat="40.3017628109708" lon="15.646236658449917"><ele>478.0</ele><time>2026-04-26T15:13:17.999Z</time></trkpt><trkpt lat="40.30149141251841" lon="15.646335071230741"><ele>478.0</ele><time>2026-04-26T15:13:18.999Z</time></trkpt><trkpt lat="40.30121953701511" lon="15.646433564681523"><ele>478.0</ele><time>2026-04-26T15:13:19.999Z</time></trkpt><trkpt lat="40.30094756662656" lon="15.646530592196916"><ele>478.0</ele><time>2026-04-26T15:13:20.999Z</time></trkpt><trkpt lat="40.30067716229663" lon="15.646628557448023"><ele>477.5</ele><time>2026-04-26T15:13:21.999Z</time></trkpt><trkpt lat="40.30040737624187" lon="15.646727013152812"><ele>477.0</ele><time>2026-04-26T15:13:22.999Z</time></trkpt><trkpt lat="40.30013513430806" lon="15.64682232081632"><ele>477.0</ele><time>2026-04-26T15:13:23.999Z</time></trkpt><trkpt lat="40.29986156639332" lon="15.646918211508867"><ele>477.0</ele><time>2026-04-26T15:13:24.999Z</time></trkpt><trkpt lat="40.299587780114834" lon="15.647014096019552"><ele>476.0</ele><time>2026-04-26T15:13:25.999Z</time></trkpt><trkpt lat="40.29931366928812" lon="15.64710628842337"><ele>475.0</ele><time>2026-04-26T15:13:26.999Z</time></trkpt><trkpt lat="40.29903498152898" lon="15.647194308220806"><ele>476.0</ele><time>2026-04-26T15:13:27.999Z</time></trkpt><trkpt lat="40.29875229268881" lon="15.647273955065724"><ele>477.0</ele><time>2026-04-26T15:13:28.999Z</time></trkpt><trkpt lat="40.29846630904261" lon="15.647348980081727"><ele>477.0</ele><time>2026-04-26T15:13:29.999Z</time></trkpt><trkpt lat="40.298178920158946" lon="15.647411583499808"><ele>477.0</ele><time>2026-04-26T15:13:30.999Z</time></trkpt><trkpt lat="40.297891328156005" lon="15.647474761036673"><ele>478.0</ele><time>2026-04-26T15:13:31.999Z</time></trkpt><trkpt lat="40.29760438939689" lon="15.647534133799741"><ele>479.0</ele><time>2026-04-26T15:13:32.999Z</time></trkpt><trkpt lat="40.29731701543338" lon="15.647588877937734"><ele>479.0</ele><time>2026-04-26T15:13:33.999Z</time></trkpt><trkpt lat="40.297029133446124" lon="15.647646926894803"><ele>479.0</ele><time>2026-04-26T15:13:34.999Z</time></trkpt><trkpt lat="40.29674249863405" lon="15.647706299900035"><ele>479.0</ele><time>2026-04-26T15:13:35.999Z</time></trkpt><trkpt lat="40.29645439458919" lon="15.647760919488114"><ele>479.0</ele><time>2026-04-26T15:13:36.999Z</time></trkpt><trkpt lat="40.29616710397859" lon="15.647818645046028"><ele>479.0</ele><time>2026-04-26T15:13:37.999Z</time></trkpt><trkpt lat="40.295593409547365" lon="15.647941348859414"><ele>480.0</ele><time>2026-04-26T15:13:39.999Z</time></trkpt><trkpt lat="40.29530611814473" lon="15.647998517571187"><ele>481.0</ele><time>2026-04-26T15:13:40.999Z</time></trkpt><trkpt lat="40.29502060819573" lon="15.648056458260799"><ele>481.0</ele><time>2026-04-26T15:13:41.999Z</time></trkpt><trkpt lat="40.29473356392798" lon="15.648116192167624"><ele>481.0</ele><time>2026-04-26T15:13:42.999Z</time></trkpt><trkpt lat="40.294445029905575" lon="15.64817351438343"><ele>481.0</ele><time>2026-04-26T15:13:43.999Z</time></trkpt><trkpt lat="40.29415706930038" lon="15.648233097214936"><ele>481.0</ele><time>2026-04-26T15:13:44.999Z</time></trkpt><trkpt lat="40.29387058828514" lon="15.648299566795783"><ele>480.5</ele><time>2026-04-26T15:13:45.999Z</time></trkpt><trkpt lat="40.293586090967054" lon="15.64837411401243"><ele>480.0</ele><time>2026-04-26T15:13:46.999Z</time></trkpt><trkpt lat="40.29330083530268" lon="15.648443148967024"><ele>480.0</ele><time>2026-04-26T15:13:47.999Z</time></trkpt><trkpt lat="40.29272801346303" lon="15.648570672468447"><ele>480.5</ele><time>2026-04-26T15:13:49.999Z</time></trkpt><trkpt lat="40.29244204718764" lon="15.648630750021496"><ele>481.0</ele><time>2026-04-26T15:13:50.999Z</time></trkpt><trkpt lat="40.29215576579468" lon="15.648688060608869"><ele>480.0</ele><time>2026-04-26T15:13:51.999Z</time></trkpt><trkpt lat="40.291867884070314" lon="15.64874397039149"><ele>479.0</ele><time>2026-04-26T15:13:53Z</time></trkpt><trkpt lat="40.29158080749995" lon="15.648802486131883"><ele>478.5</ele><time>2026-04-26T15:13:54Z</time></trkpt><trkpt lat="40.291293259857184" lon="15.648863443721304"><ele>478.0</ele><time>2026-04-26T15:13:55Z</time></trkpt><trkpt lat="40.2910089199837" lon="15.648925597401453"><ele>478.0</ele><time>2026-04-26T15:13:56Z</time></trkpt><trkpt lat="40.290724743574415" lon="15.648992626074142"><ele>478.0</ele><time>2026-04-26T15:13:57Z</time></trkpt><trkpt lat="40.29044169666703" lon="15.649062396435843"><ele>478.0</ele><time>2026-04-26T15:13:58Z</time></trkpt><trkpt lat="40.29015739149837" lon="15.649135556895867"><ele>478.0</ele><time>2026-04-26T15:13:59Z</time></trkpt><trkpt lat="40.289874855515585" lon="15.649219817227117"><ele>478.0</ele><time>2026-04-26T15:14:00Z</time></trkpt><trkpt lat="40.28959130787735" lon="15.649323031938282"><ele>478.0</ele><time>2026-04-26T15:14:01Z</time></trkpt><trkpt lat="40.28930650893166" lon="15.649432549429925"><ele>478.0</ele><time>2026-04-26T15:14:02Z</time></trkpt><trkpt lat="40.28901847802256" lon="15.64954568539936"><ele>478.0</ele><time>2026-04-26T15:14:03Z</time></trkpt><trkpt lat="40.28872958254564" lon="15.649657870933199"><ele>480.0</ele><time>2026-04-26T15:14:04Z</time></trkpt><trkpt lat="40.28844317192032" lon="15.649768987776033"><ele>482.0</ele><time>2026-04-26T15:14:05Z</time></trkpt><trkpt lat="40.28815202049085" lon="15.649880394198338"><ele>482.0</ele><time>2026-04-26T15:14:06Z</time></trkpt><trkpt lat="40.28786090774964" lon="15.649990004274844"><ele>482.0</ele><time>2026-04-26T15:14:07Z</time></trkpt><trkpt lat="40.2875692922052" lon="15.650097409901461"><ele>482.0</ele><time>2026-04-26T15:14:08Z</time></trkpt><trkpt lat="40.2872779317241" lon="15.65020206054576"><ele>482.0</ele><time>2026-04-26T15:14:09Z</time></trkpt><trkpt lat="40.28698845871527" lon="15.650304154622262"><ele>482.0</ele><time>2026-04-26T15:14:10Z</time></trkpt><trkpt lat="40.28670236637295" lon="15.650401598432365"><ele>482.0</ele><time>2026-04-26T15:14:11Z</time></trkpt><trkpt lat="40.28642319861996" lon="15.65050236917528"><ele>481.5</ele><time>2026-04-26T15:14:12Z</time></trkpt><trkpt lat="40.28614753717976" lon="15.6506045521627"><ele>481.0</ele><time>2026-04-26T15:14:13Z</time></trkpt><trkpt lat="40.28587177275905" lon="15.650708382252436"><ele>481.0</ele><time>2026-04-26T15:14:14Z</time></trkpt><trkpt lat="40.285595503609905" lon="15.650812930493954"><ele>481.0</ele><time>2026-04-26T15:14:15Z</time></trkpt><trkpt lat="40.2853164835117" lon="15.650916475883875"><ele>482.0</ele><time>2026-04-26T15:14:16Z</time></trkpt><trkpt lat="40.28503776122135" lon="15.651022187887325"><ele>483.0</ele><time>2026-04-26T15:14:17Z</time></trkpt><trkpt lat="40.28475982583134" lon="15.651129775119383"><ele>483.5</ele><time>2026-04-26T15:14:18Z</time></trkpt><trkpt lat="40.28448141304466" lon="15.651235648947347"><ele>484.0</ele><time>2026-04-26T15:14:19Z</time></trkpt><trkpt lat="40.284202589516674" lon="15.651342468960554"><ele>484.0</ele><time>2026-04-26T15:14:20Z</time></trkpt><trkpt lat="40.283924822503124" lon="15.651450038400467"><ele>484.0</ele><time>2026-04-26T15:14:21Z</time></trkpt><trkpt lat="40.2836477994401" lon="15.651559140220971"><ele>484.0</ele><time>2026-04-26T15:14:22Z</time></trkpt><trkpt lat="40.283369856483006" lon="15.65166863263718"><ele>484.0</ele><time>2026-04-26T15:14:23Z</time></trkpt><trkpt lat="40.28309298528124" lon="15.651780062203331"><ele>484.5</ele><time>2026-04-26T15:14:24Z</time></trkpt><trkpt lat="40.282814742410274" lon="15.651888583137898"><ele>485.0</ele><time>2026-04-26T15:14:25Z</time></trkpt><trkpt lat="40.28253582525547" lon="15.651993827443416"><ele>486.5</ele><time>2026-04-26T15:14:26Z</time></trkpt><trkpt lat="40.28225535389283" lon="15.652095578643527"><ele>488.0</ele><time>2026-04-26T15:14:27Z</time></trkpt><trkpt lat="40.2819755238087" lon="15.65219950175234"><ele>488.0</ele><time>2026-04-26T15:14:28Z</time></trkpt><trkpt lat="40.28169921887129" lon="15.6523066471275"><ele>488.0</ele><time>2026-04-26T15:14:29Z</time></trkpt><trkpt lat="40.28142406426119" lon="15.652414058401412"><ele>487.0</ele><time>2026-04-26T15:14:30Z</time></trkpt><trkpt lat="40.28114577402182" lon="15.652520910908217"><ele>486.0</ele><time>2026-04-26T15:14:31Z</time></trkpt><trkpt lat="40.28086625913377" lon="15.65263048093678"><ele>486.0</ele><time>2026-04-26T15:14:32Z</time></trkpt><trkpt lat="40.280588601035284" lon="15.652740663979444"><ele>486.0</ele><time>2026-04-26T15:14:33Z</time></trkpt><trkpt lat="40.28031040312681" lon="15.652851520485507"><ele>487.5</ele><time>2026-04-26T15:14:34Z</time></trkpt><trkpt lat="40.280031889617206" lon="15.652960849303035"><ele>489.0</ele><time>2026-04-26T15:14:35Z</time></trkpt><trkpt lat="40.2797528615124" lon="15.653065382452557"><ele>489.0</ele><time>2026-04-26T15:14:36Z</time></trkpt><trkpt lat="40.27947326072899" lon="15.653170240036458"><ele>489.0</ele><time>2026-04-26T15:14:37Z</time></trkpt><trkpt lat="40.27919475951258" lon="15.653275900020363"><ele>489.0</ele><time>2026-04-26T15:14:38Z</time></trkpt><trkpt lat="40.278916362321056" lon="15.653383155805866"><ele>489.0</ele><time>2026-04-26T15:14:39Z</time></trkpt><trkpt lat="40.27863768794901" lon="15.653488631020052"><ele>489.0</ele><time>2026-04-26T15:14:40Z</time></trkpt><trkpt lat="40.27835928078179" lon="15.653594174445457"><ele>489.0</ele><time>2026-04-26T15:14:41Z</time></trkpt><trkpt lat="40.27808037070651" lon="15.653699506330092"><ele>491.5</ele><time>2026-04-26T15:14:42Z</time></trkpt><trkpt lat="40.27780206447172" lon="15.653806618469838"><ele>494.0</ele><time>2026-04-26T15:14:43Z</time></trkpt><trkpt lat="40.277527085326696" lon="15.653912558840773"><ele>491.5</ele><time>2026-04-26T15:14:44Z</time></trkpt><trkpt lat="40.27725168051374" lon="15.6540249619799"><ele>489.0</ele><time>2026-04-26T15:14:45Z</time></trkpt><trkpt lat="40.27697065794899" lon="15.65413292610162"><ele>489.0</ele><time>2026-04-26T15:14:46Z</time></trkpt><trkpt lat="40.27669227244893" lon="15.65424082637229"><ele>489.0</ele><time>2026-04-26T15:14:47Z</time></trkpt><trkpt lat="40.27641408351964" lon="15.65434950589876"><ele>490.5</ele><time>2026-04-26T15:14:48Z</time></trkpt><trkpt lat="40.27613419252697" lon="15.654456856001655"><ele>492.0</ele><time>2026-04-26T15:14:49Z</time></trkpt><trkpt lat="40.27585479928479" lon="15.654564135974958"><ele>491.5</ele><time>2026-04-26T15:14:50Z</time></trkpt><trkpt lat="40.27557576040171" lon="15.65466950286239"><ele>491.0</ele><time>2026-04-26T15:14:51Z</time></trkpt><trkpt lat="40.27529584993395" lon="15.654774504849788"><ele>491.0</ele><time>2026-04-26T15:14:52Z</time></trkpt><trkpt lat="40.2750174052049" lon="15.65488031482811"><ele>491.0</ele><time>2026-04-26T15:14:53Z</time></trkpt><trkpt lat="40.27473891321689" lon="15.654987558842645"><ele>491.0</ele><time>2026-04-26T15:14:54Z</time></trkpt><trkpt lat="40.27446044429894" lon="15.65509373004206"><ele>491.0</ele><time>2026-04-26T15:14:55Z</time></trkpt><trkpt lat="40.274181728741915" lon="15.65520098298817"><ele>494.0</ele><time>2026-04-26T15:14:56Z</time></trkpt><trkpt lat="40.27390372775511" lon="15.655307359371141"><ele>497.0</ele><time>2026-04-26T15:14:57Z</time></trkpt><trkpt lat="40.273625768013915" lon="15.65541184174639"><ele>497.0</ele><time>2026-04-26T15:14:58Z</time></trkpt><trkpt lat="40.273347499572154" lon="15.655515410633663"><ele>497.0</ele><time>2026-04-26T15:14:59Z</time></trkpt><trkpt lat="40.273066965940615" lon="15.65561798565722"><ele>495.5</ele><time>2026-04-26T15:15:00Z</time></trkpt><trkpt lat="40.27278792713503" lon="15.655724235100443"><ele>494.0</ele><time>2026-04-26T15:15:01Z</time></trkpt><trkpt lat="40.272509981481576" lon="15.65583206954405"><ele>493.0</ele><time>2026-04-26T15:15:02Z</time></trkpt><trkpt lat="40.27223260918803" lon="15.655938762020995"><ele>492.0</ele><time>2026-04-26T15:15:03Z</time></trkpt><trkpt lat="40.27195409349269" lon="15.656048257515689"><ele>493.0</ele><time>2026-04-26T15:15:04Z</time></trkpt><trkpt lat="40.271676336339176" lon="15.65615772253912"><ele>494.0</ele><time>2026-04-26T15:15:05Z</time></trkpt><trkpt lat="40.271398740059865" lon="15.656267689233083"><ele>494.0</ele><time>2026-04-26T15:15:06Z</time></trkpt><trkpt lat="40.271121347040776" lon="15.65637375434978"><ele>494.0</ele><time>2026-04-26T15:15:07Z</time></trkpt><trkpt lat="40.270842677379655" lon="15.656477487671971"><ele>494.5</ele><time>2026-04-26T15:15:08Z</time></trkpt><trkpt lat="40.27056437997208" lon="15.656582758225182"><ele>495.0</ele><time>2026-04-26T15:15:09Z</time></trkpt><trkpt lat="40.270287048914426" lon="15.656690751216829"><ele>495.0</ele><time>2026-04-26T15:15:10Z</time></trkpt><trkpt lat="40.27000812303012" lon="15.656799168165517"><ele>495.0</ele><time>2026-04-26T15:15:11Z</time></trkpt><trkpt lat="40.2697304325589" lon="15.656906430670018"><ele>496.0</ele><time>2026-04-26T15:15:12Z</time></trkpt><trkpt lat="40.26945166390989" lon="15.6570117659328"><ele>497.0</ele><time>2026-04-26T15:15:13Z</time></trkpt><trkpt lat="40.26917301526505" lon="15.657115197691908"><ele>495.0</ele><time>2026-04-26T15:15:14Z</time></trkpt><trkpt lat="40.26889370804038" lon="15.657220527439291"><ele>493.0</ele><time>2026-04-26T15:15:15Z</time></trkpt><trkpt lat="40.268614648471065" lon="15.657325985371688"><ele>493.0</ele><time>2026-04-26T15:15:16Z</time></trkpt><trkpt lat="40.26833567854092" lon="15.657426565624622"><ele>493.0</ele><time>2026-04-26T15:15:17Z</time></trkpt><trkpt lat="40.268055208418524" lon="15.657516093097993"><ele>494.0</ele><time>2026-04-26T15:15:18Z</time></trkpt><trkpt lat="40.26777218518302" lon="15.657592874890058"><ele>495.0</ele><time>2026-04-26T15:15:19Z</time></trkpt><trkpt lat="40.26748617493581" lon="15.657657871634328"><ele>495.0</ele><time>2026-04-26T15:15:20Z</time></trkpt><trkpt lat="40.26719905465935" lon="15.65771610327438"><ele>495.0</ele><time>2026-04-26T15:15:21Z</time></trkpt><trkpt lat="40.26691314936504" lon="15.657771990936958"><ele>495.0</ele><time>2026-04-26T15:15:22Z</time></trkpt><trkpt lat="40.26662592120243" lon="15.65782811317042"><ele>495.0</ele><time>2026-04-26T15:15:23Z</time></trkpt><trkpt lat="40.2663389560259" lon="15.657883624493724"><ele>496.0</ele><time>2026-04-26T15:15:24Z</time></trkpt><trkpt lat="40.26605330513316" lon="15.65794385165384"><ele>497.0</ele><time>2026-04-26T15:15:25Z</time></trkpt><trkpt lat="40.265767169080995" lon="15.658005198329876"><ele>497.5</ele><time>2026-04-26T15:15:26Z</time></trkpt><trkpt lat="40.26548202503425" lon="15.658063123022865"><ele>498.0</ele><time>2026-04-26T15:15:27Z</time></trkpt><trkpt lat="40.26519539358555" lon="15.658122090706163"><ele>498.0</ele><time>2026-04-26T15:15:28Z</time></trkpt><trkpt lat="40.26490850964865" lon="15.658183367557259"><ele>498.0</ele><time>2026-04-26T15:15:29Z</time></trkpt><trkpt lat="40.26462196624501" lon="15.658243787141819"><ele>499.0</ele><time>2026-04-26T15:15:30Z</time></trkpt><trkpt lat="40.264336232875074" lon="15.658302861031213"><ele>500.0</ele><time>2026-04-26T15:15:31Z</time></trkpt><trkpt lat="40.264049265569604" lon="15.658359407614531"><ele>500.5</ele><time>2026-04-26T15:15:32Z</time></trkpt><trkpt lat="40.26376232773552" lon="15.658416928529094"><ele>501.0</ele><time>2026-04-26T15:15:33Z</time></trkpt><trkpt lat="40.263476072394006" lon="15.658475523037747"><ele>501.0</ele><time>2026-04-26T15:15:34Z</time></trkpt><trkpt lat="40.26319017417594" lon="15.658534440199462"><ele>501.0</ele><time>2026-04-26T15:15:35Z</time></trkpt><trkpt lat="40.26290417548291" lon="15.658589710714095"><ele>501.5</ele><time>2026-04-26T15:15:36Z</time></trkpt><trkpt lat="40.26261849156403" lon="15.658645389929625"><ele>502.0</ele><time>2026-04-26T15:15:37Z</time></trkpt><trkpt lat="40.26233219545946" lon="15.658701026453588"><ele>502.5</ele><time>2026-04-26T15:15:38Z</time></trkpt><trkpt lat="40.26204636125504" lon="15.658756968272337"><ele>503.0</ele><time>2026-04-26T15:15:39Z</time></trkpt><trkpt lat="40.26175975937331" lon="15.658813875488734"><ele>503.0</ele><time>2026-04-26T15:15:40Z</time></trkpt><trkpt lat="40.26147282925134" lon="15.658874743157686"><ele>503.0</ele><time>2026-04-26T15:15:41Z</time></trkpt><trkpt lat="40.261187536618806" lon="15.658938389121797"><ele>503.5</ele><time>2026-04-26T15:15:42Z</time></trkpt><trkpt lat="40.26090100106847" lon="15.658996853273274"><ele>504.0</ele><time>2026-04-26T15:15:43Z</time></trkpt><trkpt lat="40.260612502207714" lon="15.659052083803008"><ele>513.0</ele><time>2026-04-26T15:15:43.999Z</time></trkpt><trkpt lat="40.26032419840511" lon="15.659109193384289"><ele>522.0</ele><time>2026-04-26T15:15:44.999Z</time></trkpt><trkpt lat="40.26003683460302" lon="15.659166715531768"><ele>530.5</ele><time>2026-04-26T15:15:45.999Z</time></trkpt><trkpt lat="40.2597492209312" lon="15.659223104832735"><ele>539.0</ele><time>2026-04-26T15:15:46.999Z</time></trkpt><trkpt lat="40.259462823643105" lon="15.659278111611687"><ele>539.0</ele><time>2026-04-26T15:15:47.999Z</time></trkpt><trkpt lat="40.25917679749463" lon="15.659338650160167"><ele>539.0</ele><time>2026-04-26T15:15:48.999Z</time></trkpt><trkpt lat="40.258889767487034" lon="15.659395781489058"><ele>543.0</ele><time>2026-04-26T15:15:49.999Z</time></trkpt><trkpt lat="40.258602755470484" lon="15.659453733314994"><ele>547.0</ele><time>2026-04-26T15:15:50.999Z</time></trkpt><trkpt lat="40.25831608350742" lon="15.659517616447715"><ele>549.5</ele><time>2026-04-26T15:15:51.999Z</time></trkpt><trkpt lat="40.25802887548221" lon="15.659582904532943"><ele>552.0</ele><time>2026-04-26T15:15:52.999Z</time></trkpt><trkpt lat="40.25774066477876" lon="15.65964596781619"><ele>552.0</ele><time>2026-04-26T15:15:53.999Z</time></trkpt><trkpt lat="40.25745167026599" lon="15.659708393028122"><ele>552.0</ele><time>2026-04-26T15:15:55Z</time></trkpt><trkpt lat="40.25716210683628" lon="15.65977168646177"><ele>552.5</ele><time>2026-04-26T15:15:56Z</time></trkpt><trkpt lat="40.256835287956214" lon="15.659807621338267"><ele>553.0</ele><time>2026-04-26T15:15:57Z</time></trkpt><trkpt lat="40.256537700111444" lon="15.659866048735827"><ele>553.0</ele><time>2026-04-26T15:15:58Z</time></trkpt><trkpt lat="40.25623503444468" lon="15.65991271823128"><ele>553.0</ele><time>2026-04-26T15:15:59Z</time></trkpt><trkpt lat="40.255933348072524" lon="15.659958287388607"><ele>553.0</ele><time>2026-04-26T15:16:00Z</time></trkpt><trkpt lat="40.25563142895194" lon="15.660000744145783"><ele>553.0</ele><time>2026-04-26T15:16:01Z</time></trkpt><trkpt lat="40.25532709469992" lon="15.660033259831277"><ele>555.0</ele><time>2026-04-26T15:16:02Z</time></trkpt><trkpt lat="40.2550213511127" lon="15.66006085762251"><ele>557.0</ele><time>2026-04-26T15:16:03Z</time></trkpt><trkpt lat="40.254714788470594" lon="15.660080336572557"><ele>559.0</ele><time>2026-04-26T15:16:04Z</time></trkpt><trkpt lat="40.25440722504706" lon="15.660099350906332"><ele>561.0</ele><time>2026-04-26T15:16:05Z</time></trkpt><trkpt lat="40.25409809400094" lon="15.66012345739942"><ele>566.0</ele><time>2026-04-26T15:16:06Z</time></trkpt><trkpt lat="40.25378791691289" lon="15.660147317251829"><ele>571.0</ele><time>2026-04-26T15:16:07Z</time></trkpt><trkpt lat="40.253477009390856" lon="15.660154783530372"><ele>571.0</ele><time>2026-04-26T15:16:08Z</time></trkpt><trkpt lat="40.25316423693448" lon="15.660159489380678"><ele>571.0</ele><time>2026-04-26T15:16:09Z</time></trkpt><trkpt lat="40.252851911612595" lon="15.660160274882614"><ele>569.5</ele><time>2026-04-26T15:16:10Z</time></trkpt><trkpt lat="40.252537030932096" lon="15.660160595181118"><ele>568.0</ele><time>2026-04-26T15:16:11Z</time></trkpt><trkpt lat="40.25222074075116" lon="15.660157964268123"><ele>567.0</ele><time>2026-04-26T15:16:12Z</time></trkpt><trkpt lat="40.25191022461195" lon="15.660144924801846"><ele>566.0</ele><time>2026-04-26T15:16:13Z</time></trkpt><trkpt lat="40.2515981017122" lon="15.660132323309833"><ele>561.5</ele><time>2026-04-26T15:16:14Z</time></trkpt><trkpt lat="40.25134901010322" lon="15.660045492850324"><ele>557.0</ele><time>2026-04-26T15:16:16Z</time></trkpt><trkpt lat="40.251082466329" lon="15.660026625187445"><ele>557.0</ele><time>2026-04-26T15:16:17Z</time></trkpt><trkpt lat="40.250782489910726" lon="15.660032212004278"><ele>557.0</ele><time>2026-04-26T15:16:18Z</time></trkpt><trkpt lat="40.250506693617076" lon="15.660021032525378"><ele>555.5</ele><time>2026-04-26T15:16:19Z</time></trkpt><trkpt lat="40.25022083431915" lon="15.660003053249191"><ele>554.0</ele><time>2026-04-26T15:16:20Z</time></trkpt><trkpt lat="40.249930491749836" lon="15.659982249315503"><ele>554.5</ele><time>2026-04-26T15:16:21Z</time></trkpt><trkpt lat="40.24964146405255" lon="15.659958050812406"><ele>555.0</ele><time>2026-04-26T15:16:22Z</time></trkpt><trkpt lat="40.249349733613585" lon="15.65994629804685"><ele>555.0</ele><time>2026-04-26T15:16:23Z</time></trkpt><trkpt lat="40.24905959514999" lon="15.659931521838534"><ele>555.0</ele><time>2026-04-26T15:16:24Z</time></trkpt><trkpt lat="40.24877694190754" lon="15.659940734475295"><ele>556.0</ele><time>2026-04-26T15:16:25Z</time></trkpt><trkpt lat="40.24848914915386" lon="15.659930410255317"><ele>557.0</ele><time>2026-04-26T15:16:26Z</time></trkpt><trkpt lat="40.24820029047405" lon="15.659917071479702"><ele>559.0</ele><time>2026-04-26T15:16:27Z</time></trkpt><trkpt lat="40.24791136648149" lon="15.659903356120472"><ele>561.0</ele><time>2026-04-26T15:16:28Z</time></trkpt><trkpt lat="40.247621879394345" lon="15.659889505209032"><ele>561.0</ele><time>2026-04-26T15:16:29Z</time></trkpt><trkpt lat="40.24733300788744" lon="15.659877683470741"><ele>561.0</ele><time>2026-04-26T15:16:30Z</time></trkpt><trkpt lat="40.24704323117869" lon="15.65986549000026"><ele>565.5</ele><time>2026-04-26T15:16:31Z</time></trkpt><trkpt lat="40.246754350724" lon="15.659853673933167"><ele>570.0</ele><time>2026-04-26T15:16:32Z</time></trkpt><trkpt lat="40.24646590080185" lon="15.6598415860861"><ele>569.5</ele><time>2026-04-26T15:16:33Z</time></trkpt><trkpt lat="40.246175563524275" lon="15.659828611508853"><ele>569.0</ele><time>2026-04-26T15:16:34Z</time></trkpt><trkpt lat="40.245885269398634" lon="15.659813378382154"><ele>570.0</ele><time>2026-04-26T15:16:35Z</time></trkpt><trkpt lat="40.24559482818898" lon="15.659802064135938"><ele>571.0</ele><time>2026-04-26T15:16:36Z</time></trkpt><trkpt lat="40.24530309524478" lon="15.659788728882797"><ele>571.0</ele><time>2026-04-26T15:16:37Z</time></trkpt><trkpt lat="40.24501297635485" lon="15.659771376031415"><ele>571.0</ele><time>2026-04-26T15:16:38Z</time></trkpt><trkpt lat="40.24472243587557" lon="15.659755362213135"><ele>573.5</ele><time>2026-04-26T15:16:39Z</time></trkpt><trkpt lat="40.244431581481656" lon="15.659737021594891"><ele>576.0</ele><time>2026-04-26T15:16:40Z</time></trkpt><trkpt lat="40.244141607452036" lon="15.659723260109315"><ele>579.0</ele><time>2026-04-26T15:16:41Z</time></trkpt><trkpt lat="40.24385176656406" lon="15.659711792453365"><ele>582.0</ele><time>2026-04-26T15:16:42Z</time></trkpt><trkpt lat="40.24356165337083" lon="15.659699760324791"><ele>582.0</ele><time>2026-04-26T15:16:43Z</time></trkpt><trkpt lat="40.243270077963246" lon="15.659686503313493"><ele>582.0</ele><time>2026-04-26T15:16:44Z</time></trkpt><trkpt lat="40.24298073642119" lon="15.65967142978891"><ele>580.5</ele><time>2026-04-26T15:16:45Z</time></trkpt><trkpt lat="40.24268973837191" lon="15.659655666327563"><ele>579.0</ele><time>2026-04-26T15:16:46Z</time></trkpt><trkpt lat="40.24239917850832" lon="15.659642083101973"><ele>580.0</ele><time>2026-04-26T15:16:47Z</time></trkpt><trkpt lat="40.24210897292391" lon="15.659630858339236"><ele>581.0</ele><time>2026-04-26T15:16:48Z</time></trkpt><trkpt lat="40.24181890993584" lon="15.659626610228383"><ele>581.0</ele><time>2026-04-26T15:16:49Z</time></trkpt><trkpt lat="40.24152849713113" lon="15.659625136645028"><ele>581.0</ele><time>2026-04-26T15:16:50Z</time></trkpt><trkpt lat="40.24123780927678" lon="15.659623125096683"><ele>579.5</ele><time>2026-04-26T15:16:51Z</time></trkpt><trkpt lat="40.240948487561454" lon="15.659628369548022"><ele>578.0</ele><time>2026-04-26T15:16:52Z</time></trkpt><trkpt lat="40.24065920256391" lon="15.65964098908423"><ele>572.5</ele><time>2026-04-26T15:16:53Z</time></trkpt><trkpt lat="40.240368697467225" lon="15.6596619516498"><ele>567.0</ele><time>2026-04-26T15:16:54Z</time></trkpt><trkpt lat="40.24007852713981" lon="15.659693355462784"><ele>566.5</ele><time>2026-04-26T15:16:55Z</time></trkpt><trkpt lat="40.239788497338566" lon="15.659738085055093"><ele>566.0</ele><time>2026-04-26T15:16:56Z</time></trkpt><trkpt lat="40.23950132439601" lon="15.659796935266321"><ele>566.0</ele><time>2026-04-26T15:16:57Z</time></trkpt><trkpt lat="40.2392162979971" lon="15.659874054220138"><ele>566.0</ele><time>2026-04-26T15:16:58Z</time></trkpt><trkpt lat="40.238936571100474" lon="15.659970130940671"><ele>567.5</ele><time>2026-04-26T15:16:59Z</time></trkpt><trkpt lat="40.23866007242817" lon="15.660084833164648"><ele>569.0</ele><time>2026-04-26T15:17:00Z</time></trkpt><trkpt lat="40.238387069365125" lon="15.660212581265013"><ele>568.5</ele><time>2026-04-26T15:17:01Z</time></trkpt><trkpt lat="40.238117881541086" lon="15.66035390178006"><ele>568.0</ele><time>2026-04-26T15:17:02Z</time></trkpt><trkpt lat="40.2378552487032" lon="15.660513420785968"><ele>568.0</ele><time>2026-04-26T15:17:03Z</time></trkpt><trkpt lat="40.237599019922584" lon="15.660687404004799"><ele>568.0</ele><time>2026-04-26T15:17:04Z</time></trkpt><trkpt lat="40.23734809748714" lon="15.660875806970466"><ele>568.0</ele><time>2026-04-26T15:17:05Z</time></trkpt><trkpt lat="40.237102631341706" lon="15.66107597294723"><ele>568.0</ele><time>2026-04-26T15:17:06Z</time></trkpt><trkpt lat="40.23686306085139" lon="15.661285530012979"><ele>568.0</ele><time>2026-04-26T15:17:07Z</time></trkpt><trkpt lat="40.23662697901365" lon="15.661502541347643"><ele>568.0</ele><time>2026-04-26T15:17:08Z</time></trkpt><trkpt lat="40.236392521579745" lon="15.661724848910447"><ele>570.5</ele><time>2026-04-26T15:17:09Z</time></trkpt><trkpt lat="40.236156761135206" lon="15.661944309840068"><ele>573.0</ele><time>2026-04-26T15:17:10Z</time></trkpt><trkpt lat="40.23591908094084" lon="15.662156951448516"><ele>573.0</ele><time>2026-04-26T15:17:11Z</time></trkpt><trkpt lat="40.235678999233066" lon="15.662370779909354"><ele>573.0</ele><time>2026-04-26T15:17:12Z</time></trkpt><trkpt lat="40.23544210286458" lon="15.662588619269416"><ele>565.5</ele><time>2026-04-26T15:17:13Z</time></trkpt><trkpt lat="40.23520741426746" lon="15.662811916739082"><ele>558.0</ele><time>2026-04-26T15:17:14Z</time></trkpt><trkpt lat="40.234974557629315" lon="15.663039677596927"><ele>558.5</ele><time>2026-04-26T15:17:15Z</time></trkpt><trkpt lat="40.23474766013396" lon="15.663274034779057"><ele>559.0</ele><time>2026-04-26T15:17:16Z</time></trkpt><trkpt lat="40.23452291560136" lon="15.663513271596116"><ele>562.5</ele><time>2026-04-26T15:17:17Z</time></trkpt><trkpt lat="40.234297591276345" lon="15.663752241025328"><ele>566.0</ele><time>2026-04-26T15:17:18Z</time></trkpt><trkpt lat="40.234068832342864" lon="15.663985609863351"><ele>573.0</ele><time>2026-04-26T15:17:19Z</time></trkpt><trkpt lat="40.23383623559706" lon="15.664212233466186"><ele>580.0</ele><time>2026-04-26T15:17:20Z</time></trkpt><trkpt lat="40.23360138553226" lon="15.664435853619425"><ele>581.0</ele><time>2026-04-26T15:17:21Z</time></trkpt><trkpt lat="40.23336687927612" lon="15.664660758013461"><ele>582.0</ele><time>2026-04-26T15:17:22Z</time></trkpt><trkpt lat="40.23313412146278" lon="15.664886349647164"><ele>596.5</ele><time>2026-04-26T15:17:23Z</time></trkpt><trkpt lat="40.23290130249562" lon="15.665115795951044"><ele>611.0</ele><time>2026-04-26T15:17:24Z</time></trkpt><trkpt lat="40.232668362764635" lon="15.665343856434244"><ele>611.0</ele><time>2026-04-26T15:17:25Z</time></trkpt><trkpt lat="40.23243488820172" lon="15.665571917279609"><ele>611.0</ele><time>2026-04-26T15:17:26Z</time></trkpt><trkpt lat="40.232201622052386" lon="15.665802384306557"><ele>606.0</ele><time>2026-04-26T15:17:27Z</time></trkpt><trkpt lat="40.23196889466623" lon="15.666035154728226"><ele>601.0</ele><time>2026-04-26T15:17:28Z</time></trkpt><trkpt lat="40.2317359928987" lon="15.666269021498003"><ele>593.5</ele><time>2026-04-26T15:17:29Z</time></trkpt><trkpt lat="40.23150251949843" lon="15.66650372965739"><ele>586.0</ele><time>2026-04-26T15:17:30Z</time></trkpt><trkpt lat="40.231266036666504" lon="15.666733869387292"><ele>572.5</ele><time>2026-04-26T15:17:31Z</time></trkpt><trkpt lat="40.23103707116647" lon="15.666952434657702"><ele>559.0</ele><time>2026-04-26T15:17:32Z</time></trkpt><trkpt lat="40.230806012342356" lon="15.66716131912183"><ele>556.0</ele><time>2026-04-26T15:17:33Z</time></trkpt><trkpt lat="40.230576438704524" lon="15.667390993664354"><ele>553.0</ele><time>2026-04-26T15:17:34Z</time></trkpt><trkpt lat="40.230345151218096" lon="15.667612489554811"><ele>555.5</ele><time>2026-04-26T15:17:35Z</time></trkpt><trkpt lat="40.23011270751804" lon="15.667834942929234"><ele>558.0</ele><time>2026-04-26T15:17:36Z</time></trkpt><trkpt lat="40.22988127053897" lon="15.668058362273618"><ele>569.5</ele><time>2026-04-26T15:17:37Z</time></trkpt><trkpt lat="40.22964845276215" lon="15.668280076266992"><ele>581.0</ele><time>2026-04-26T15:17:38Z</time></trkpt><trkpt lat="40.22941372908225" lon="15.66849825048789"><ele>581.5</ele><time>2026-04-26T15:17:39Z</time></trkpt><trkpt lat="40.22917449209294" lon="15.668714540259074"><ele>582.0</ele><time>2026-04-26T15:17:40Z</time></trkpt><trkpt lat="40.228935693687504" lon="15.66892737570391"><ele>582.0</ele><time>2026-04-26T15:17:41Z</time></trkpt><trkpt lat="40.228692951163936" lon="15.669136293753315"><ele>582.0</ele><time>2026-04-26T15:17:42Z</time></trkpt><trkpt lat="40.228445398344405" lon="15.66933637301079"><ele>578.5</ele><time>2026-04-26T15:17:43Z</time></trkpt><trkpt lat="40.228192606062514" lon="15.669525114136842"><ele>575.0</ele><time>2026-04-26T15:17:44Z</time></trkpt><trkpt lat="40.22794001275057" lon="15.669706284365068"><ele>583.5</ele><time>2026-04-26T15:17:45Z</time></trkpt><trkpt lat="40.227684380185835" lon="15.669884839914893"><ele>592.0</ele><time>2026-04-26T15:17:46Z</time></trkpt><trkpt lat="40.22742631517259" lon="15.670052992180302"><ele>597.0</ele><time>2026-04-26T15:17:47Z</time></trkpt><trkpt lat="40.227163706744044" lon="15.670216132135808"><ele>602.0</ele><time>2026-04-26T15:17:48Z</time></trkpt><trkpt lat="40.22689842715581" lon="15.670371763139691"><ele>602.0</ele><time>2026-04-26T15:17:49Z</time></trkpt><trkpt lat="40.22662952218736" lon="15.670518225868669"><ele>602.0</ele><time>2026-04-26T15:17:50Z</time></trkpt><trkpt lat="40.22635828208772" lon="15.670657794765624"><ele>613.0</ele><time>2026-04-26T15:17:51Z</time></trkpt><trkpt lat="40.22608460472797" lon="15.670790619230862"><ele>624.0</ele><time>2026-04-26T15:17:52Z</time></trkpt><trkpt lat="40.22580915556983" lon="15.67091553889657"><ele>620.5</ele><time>2026-04-26T15:17:53Z</time></trkpt><trkpt lat="40.225531579717625" lon="15.671032663516149"><ele>617.0</ele><time>2026-04-26T15:17:54Z</time></trkpt><trkpt lat="40.22525200825825" lon="15.671141176426765"><ele>617.0</ele><time>2026-04-26T15:17:55Z</time></trkpt><trkpt lat="40.2249704006665" lon="15.671238409114459"><ele>617.0</ele><time>2026-04-26T15:17:56Z</time></trkpt><trkpt lat="40.224685913091776" lon="15.671322559079314"><ele>611.0</ele><time>2026-04-26T15:17:57Z</time></trkpt><trkpt lat="40.224401864395254" lon="15.671401875924241"><ele>605.0</ele><time>2026-04-26T15:17:58Z</time></trkpt><trkpt lat="40.22411850484794" lon="15.671474816425066"><ele>604.0</ele><time>2026-04-26T15:17:59Z</time></trkpt><trkpt lat="40.22383522581201" lon="15.67154169479719"><ele>603.0</ele><time>2026-04-26T15:18:00Z</time></trkpt><trkpt lat="40.22355145738439" lon="15.67160994380082"><ele>603.0</ele><time>2026-04-26T15:18:01Z</time></trkpt><trkpt lat="40.2232671278542" lon="15.671672979548491"><ele>603.0</ele><time>2026-04-26T15:18:02Z</time></trkpt><trkpt lat="40.22298317112588" lon="15.671725635686158"><ele>595.5</ele><time>2026-04-26T15:18:03Z</time></trkpt><trkpt lat="40.2226994502349" lon="15.671771926899726"><ele>588.0</ele><time>2026-04-26T15:18:04Z</time></trkpt><trkpt lat="40.22241614568189" lon="15.671800415839588"><ele>581.0</ele><time>2026-04-26T15:18:05Z</time></trkpt><trkpt lat="40.222131569390264" lon="15.671818792417966"><ele>574.0</ele><time>2026-04-26T15:18:06Z</time></trkpt><trkpt lat="40.22183427811598" lon="15.67187081657245"><ele>574.0</ele><time>2026-04-26T15:18:07Z</time></trkpt><trkpt lat="40.221542580526034" lon="15.671884325930288"><ele>574.0</ele><time>2026-04-26T15:18:08Z</time></trkpt><trkpt lat="40.221252501356574" lon="15.671887084333427"><ele>574.5</ele><time>2026-04-26T15:18:09Z</time></trkpt><trkpt lat="40.220948446020145" lon="15.67187143568069"><ele>575.0</ele><time>2026-04-26T15:18:10Z</time></trkpt><trkpt lat="40.22066560244775" lon="15.671835666422366"><ele>577.0</ele><time>2026-04-26T15:18:11Z</time></trkpt><trkpt lat="40.22037640289688" lon="15.67181901490445"><ele>579.0</ele><time>2026-04-26T15:18:12Z</time></trkpt><trkpt lat="40.22008413402256" lon="15.671797551677939"><ele>580.0</ele><time>2026-04-26T15:18:13Z</time></trkpt><trkpt lat="40.2197940562254" lon="15.671775266314192"><ele>581.0</ele><time>2026-04-26T15:18:14Z</time></trkpt><trkpt lat="40.21950515916312" lon="15.671753184425537"><ele>581.0</ele><time>2026-04-26T15:18:15Z</time></trkpt><trkpt lat="40.21921603014963" lon="15.671733669107697"><ele>581.0</ele><time>2026-04-26T15:18:16Z</time></trkpt><trkpt lat="40.218926868118615" lon="15.671720987167506"><ele>585.0</ele><time>2026-04-26T15:18:17Z</time></trkpt><trkpt lat="40.21863806882888" lon="15.671714718206752"><ele>589.0</ele><time>2026-04-26T15:18:18Z</time></trkpt><trkpt lat="40.2183488885808" lon="15.671715001562509"><ele>592.5</ele><time>2026-04-26T15:18:19Z</time></trkpt><trkpt lat="40.21805944774918" lon="15.671720338763034"><ele>596.0</ele><time>2026-04-26T15:18:20Z</time></trkpt><trkpt lat="40.21776950420786" lon="15.671730694478022"><ele>596.0</ele><time>2026-04-26T15:18:21Z</time></trkpt><trkpt lat="40.217480163531306" lon="15.671751783118824"><ele>596.0</ele><time>2026-04-26T15:18:22Z</time></trkpt><trkpt lat="40.21719075527287" lon="15.671784683586317"><ele>601.5</ele><time>2026-04-26T15:18:23Z</time></trkpt><trkpt lat="40.21690258131424" lon="15.67182734206924"><ele>607.0</ele><time>2026-04-26T15:18:24Z</time></trkpt><trkpt lat="40.21661676935135" lon="15.671878936926507"><ele>606.0</ele><time>2026-04-26T15:18:25Z</time></trkpt><trkpt lat="40.21633068855769" lon="15.671939181854926"><ele>605.0</ele><time>2026-04-26T15:18:26Z</time></trkpt><trkpt lat="40.21604605049897" lon="15.672007050957939"><ele>600.5</ele><time>2026-04-26T15:18:27Z</time></trkpt><trkpt lat="40.21576437900847" lon="15.672088735233173"><ele>596.0</ele><time>2026-04-26T15:18:28Z</time></trkpt><trkpt lat="40.21548450350834" lon="15.672180089963241"><ele>593.0</ele><time>2026-04-26T15:18:29Z</time></trkpt><trkpt lat="40.21520583487846" lon="15.672280254781892"><ele>590.0</ele><time>2026-04-26T15:18:30Z</time></trkpt><trkpt lat="40.21492772318355" lon="15.67238747888057"><ele>586.0</ele><time>2026-04-26T15:18:31Z</time></trkpt><trkpt lat="40.21465040705904" lon="15.67250265484729"><ele>582.0</ele><time>2026-04-26T15:18:32Z</time></trkpt><trkpt lat="40.21437778146418" lon="15.672626513162015"><ele>582.0</ele><time>2026-04-26T15:18:33Z</time></trkpt><trkpt lat="40.21410749663004" lon="15.67275849990131"><ele>582.0</ele><time>2026-04-26T15:18:34Z</time></trkpt><trkpt lat="40.21383811620906" lon="15.672898154397188"><ele>598.0</ele><time>2026-04-26T15:18:35Z</time></trkpt><trkpt lat="40.21357210974564" lon="15.67304601122877"><ele>614.0</ele><time>2026-04-26T15:18:36Z</time></trkpt><trkpt lat="40.21330797629208" lon="15.673205149042863"><ele>648.0</ele><time>2026-04-26T15:18:37Z</time></trkpt><trkpt lat="40.21304350674765" lon="15.673369547941352"><ele>682.0</ele><time>2026-04-26T15:18:38Z</time></trkpt><trkpt lat="40.212784207982835" lon="15.673546180810433"><ele>684.5</ele><time>2026-04-26T15:18:39Z</time></trkpt><trkpt lat="40.212528318923454" lon="15.673731306526737"><ele>687.0</ele><time>2026-04-26T15:18:40Z</time></trkpt><trkpt lat="40.21227607882999" lon="15.673923997260719"><ele>710.0</ele><time>2026-04-26T15:18:41Z</time></trkpt><trkpt lat="40.21202658253285" lon="15.674121638071432"><ele>733.0</ele><time>2026-04-26T15:18:42Z</time></trkpt><trkpt lat="40.21178060403153" lon="15.674328945815256"><ele>732.0</ele><time>2026-04-26T15:18:43Z</time></trkpt><trkpt lat="40.21153844035711" lon="15.674543263160723"><ele>731.0</ele><time>2026-04-26T15:18:44Z</time></trkpt><trkpt lat="40.21129973728791" lon="15.674766307733162"><ele>731.0</ele><time>2026-04-26T15:18:45Z</time></trkpt><trkpt lat="40.211063077282724" lon="15.674994631364257"><ele>731.0</ele><time>2026-04-26T15:18:46Z</time></trkpt><trkpt lat="40.21082758709396" lon="15.67522646100741"><ele>723.5</ele><time>2026-04-26T15:18:47Z</time></trkpt><trkpt lat="40.21064278054303" lon="15.675479546715136"><ele>716.0</ele><time>2026-04-26T15:18:48Z</time></trkpt><trkpt lat="40.21042096353382" lon="15.67572155414497"><ele>716.0</ele><time>2026-04-26T15:18:49Z</time></trkpt><trkpt lat="40.21019682296528" lon="15.675961787345482"><ele>716.0</ele><time>2026-04-26T15:18:50Z</time></trkpt><trkpt lat="40.20997209511405" lon="15.676203867113834"><ele>718.5</ele><time>2026-04-26T15:18:51Z</time></trkpt><trkpt lat="40.20975139484107" lon="15.676450368657486"><ele>721.0</ele><time>2026-04-26T15:18:52Z</time></trkpt><trkpt lat="40.20953330449122" lon="15.676699689579939"><ele>710.0</ele><time>2026-04-26T15:18:53Z</time></trkpt><trkpt lat="40.209309573401065" lon="15.676941503818291"><ele>699.0</ele><time>2026-04-26T15:18:54Z</time></trkpt><trkpt lat="40.20908859243987" lon="15.67719164180669"><ele>706.0</ele><time>2026-04-26T15:18:55Z</time></trkpt><trkpt lat="40.208867600000936" lon="15.677445086073377"><ele>713.0</ele><time>2026-04-26T15:18:56Z</time></trkpt><trkpt lat="40.2086491838546" lon="15.677700339312908"><ele>703.0</ele><time>2026-04-26T15:18:57Z</time></trkpt><trkpt lat="40.20842672991491" lon="15.677949359192466"><ele>693.0</ele><time>2026-04-26T15:18:58Z</time></trkpt><trkpt lat="40.20820286625378" lon="15.678195604624175"><ele>696.5</ele><time>2026-04-26T15:18:59Z</time></trkpt><trkpt lat="40.20797852490806" lon="15.678446400973787"><ele>700.0</ele><time>2026-04-26T15:19:00Z</time></trkpt><trkpt lat="40.20775126098216" lon="15.678692618581525"><ele>700.0</ele><time>2026-04-26T15:19:01Z</time></trkpt><trkpt lat="40.20752117485146" lon="15.678933638279556"><ele>700.0</ele><time>2026-04-26T15:19:02Z</time></trkpt><trkpt lat="40.20729043800357" lon="15.679167364349494"><ele>701.5</ele><time>2026-04-26T15:19:03Z</time></trkpt><trkpt lat="40.20705984335507" lon="15.679408002268534"><ele>703.0</ele><time>2026-04-26T15:19:04Z</time></trkpt><trkpt lat="40.20682972570235" lon="15.679660694008012"><ele>703.0</ele><time>2026-04-26T15:19:05Z</time></trkpt><trkpt lat="40.20659748140734" lon="15.679922911906468"><ele>703.0</ele><time>2026-04-26T15:19:06Z</time></trkpt><trkpt lat="40.20635990783559" lon="15.680192630845983"><ele>711.0</ele><time>2026-04-26T15:19:07Z</time></trkpt><trkpt lat="40.20612170667763" lon="15.680463753019872"><ele>719.0</ele><time>2026-04-26T15:19:08Z</time></trkpt><trkpt lat="40.20588415307576" lon="15.680727611386208"><ele>728.5</ele><time>2026-04-26T15:19:09Z</time></trkpt><trkpt lat="40.20565058168625" lon="15.680984942532415"><ele>738.0</ele><time>2026-04-26T15:19:10Z</time></trkpt><trkpt lat="40.20541431540177" lon="15.681247990979825"><ele>738.0</ele><time>2026-04-26T15:19:11Z</time></trkpt><trkpt lat="40.20517934381276" lon="15.681507149951235"><ele>738.0</ele><time>2026-04-26T15:19:12Z</time></trkpt><trkpt lat="40.20493776465981" lon="15.681776406410544"><ele>694.0</ele><time>2026-04-26T15:19:13.018Z</time></trkpt><trkpt lat="40.20341716847275" lon="15.6835219442151"><ele>662.0</ele><time>2026-04-26T15:19:16.822Z</time></trkpt><trkpt lat="40.20253047587956" lon="15.68451467840962"><ele>661.0</ele><time>2026-04-26T15:19:17.82Z</time></trkpt><trkpt lat="40.201641660261494" lon="15.685506100270729"><ele>672.0</ele><time>2026-04-26T15:19:18.819Z</time></trkpt><trkpt lat="40.19979272803465" lon="15.687525243517328"><ele>662.5</ele><time>2026-04-26T15:19:37Z</time></trkpt><trkpt lat="40.19959879499474" lon="15.687790228136807"><ele>653.0</ele><time>2026-04-26T15:19:38Z</time></trkpt><trkpt lat="40.19940465194541" lon="15.688058993001148"><ele>653.0</ele><time>2026-04-26T15:19:39Z</time></trkpt><trkpt lat="40.1992050668772" lon="15.688328414379564"><ele>653.0</ele><time>2026-04-26T15:19:40Z</time></trkpt><trkpt lat="40.19901325294351" lon="15.688607996229086"><ele>656.0</ele><time>2026-04-26T15:19:41Z</time></trkpt><trkpt lat="40.19883063795539" lon="15.688897833307301"><ele>659.0</ele><time>2026-04-26T15:19:42Z</time></trkpt><trkpt lat="40.19865221338698" lon="15.689198704428726"><ele>656.5</ele><time>2026-04-26T15:19:43Z</time></trkpt><trkpt lat="40.198486193023555" lon="15.689511645329686"><ele>654.0</ele><time>2026-04-26T15:19:44Z</time></trkpt><trkpt lat="40.198328318963824" lon="15.689831772535365"><ele>654.0</ele><time>2026-04-26T15:19:45Z</time></trkpt><trkpt lat="40.19817679926419" lon="15.690157491779186"><ele>654.0</ele><time>2026-04-26T15:19:46Z</time></trkpt><trkpt lat="40.19803555045279" lon="15.690489612897009"><ele>651.0</ele><time>2026-04-26T15:19:47Z</time></trkpt><trkpt lat="40.19790046852219" lon="15.690824385618575"><ele>648.0</ele><time>2026-04-26T15:19:48Z</time></trkpt><trkpt lat="40.197774944518834" lon="15.69116639413819"><ele>644.5</ele><time>2026-04-26T15:19:49Z</time></trkpt><trkpt lat="40.19765583534044" lon="15.691511296011146"><ele>641.0</ele><time>2026-04-26T15:19:50Z</time></trkpt><trkpt lat="40.19754436781568" lon="15.691862233244256"><ele>640.5</ele><time>2026-04-26T15:19:51Z</time></trkpt><trkpt lat="40.19743545847311" lon="15.69221499236213"><ele>640.0</ele><time>2026-04-26T15:19:52Z</time></trkpt><trkpt lat="40.197329307748106" lon="15.69256743402843"><ele>647.0</ele><time>2026-04-26T15:19:53Z</time></trkpt><trkpt lat="40.197224275524384" lon="15.692924320005005"><ele>654.0</ele><time>2026-04-26T15:19:54Z</time></trkpt><trkpt lat="40.19711982538096" lon="15.693281003567831"><ele>646.5</ele><time>2026-04-26T15:19:55Z</time></trkpt><trkpt lat="40.19701359574259" lon="15.693634835566776"><ele>639.0</ele><time>2026-04-26T15:19:56Z</time></trkpt><trkpt lat="40.19690304546337" lon="15.693985518107937"><ele>639.0</ele><time>2026-04-26T15:19:57Z</time></trkpt><trkpt lat="40.19678766084586" lon="15.694333986816906"><ele>639.0</ele><time>2026-04-26T15:19:58Z</time></trkpt><trkpt lat="40.1966692432348" lon="15.694679890713203"><ele>637.0</ele><time>2026-04-26T15:19:59Z</time></trkpt><trkpt lat="40.19654993285808" lon="15.695025074385516"><ele>635.0</ele><time>2026-04-26T15:20:00Z</time></trkpt><trkpt lat="40.19642928127004" lon="15.695369204292337"><ele>635.0</ele><time>2026-04-26T15:20:01Z</time></trkpt><trkpt lat="40.19630745214212" lon="15.695713222507209"><ele>635.0</ele><time>2026-04-26T15:20:02Z</time></trkpt><trkpt lat="40.1961877738934" lon="15.696061890009569"><ele>635.0</ele><time>2026-04-26T15:20:03Z</time></trkpt><trkpt lat="40.196068643048854" lon="15.696407824992836"><ele>635.0</ele><time>2026-04-26T15:20:04Z</time></trkpt><trkpt lat="40.19594810516496" lon="15.696755235002463"><ele>632.0</ele><time>2026-04-26T15:20:05Z</time></trkpt><trkpt lat="40.19582781375778" lon="15.697101704690738"><ele>629.0</ele><time>2026-04-26T15:20:06.001Z</time></trkpt><trkpt lat="40.19570874120193" lon="15.697446939546088"><ele>630.5</ele><time>2026-04-26T15:20:07.001Z</time></trkpt><trkpt lat="40.195586866178665" lon="15.69779056629348"><ele>632.0</ele><time>2026-04-26T15:20:08.001Z</time></trkpt><trkpt lat="40.19546334543456" lon="15.698132995323675"><ele>632.0</ele><time>2026-04-26T15:20:09.001Z</time></trkpt><trkpt lat="40.19534188287023" lon="15.698474738756538"><ele>632.0</ele><time>2026-04-26T15:20:10.001Z</time></trkpt><trkpt lat="40.19522025008996" lon="15.698817304070433"><ele>626.5</ele><time>2026-04-26T15:20:11.001Z</time></trkpt><trkpt lat="40.195099191155066" lon="15.699158745585674"><ele>621.0</ele><time>2026-04-26T15:20:12.001Z</time></trkpt><trkpt lat="40.194977602238005" lon="15.699500383429733"><ele>619.0</ele><time>2026-04-26T15:20:13.001Z</time></trkpt><trkpt lat="40.194854717639565" lon="15.699841132499587"><ele>617.0</ele><time>2026-04-26T15:20:14.001Z</time></trkpt><trkpt lat="40.19472783669038" lon="15.700180143958733"><ele>610.0</ele><time>2026-04-26T15:20:15.001Z</time></trkpt><trkpt lat="40.19459547458904" lon="15.700515478446494"><ele>603.0</ele><time>2026-04-26T15:20:16.001Z</time></trkpt><trkpt lat="40.19445673008042" lon="15.700845588339998"><ele>607.5</ele><time>2026-04-26T15:20:17.001Z</time></trkpt><trkpt lat="40.19430973119943" lon="15.701168185986898"><ele>612.0</ele><time>2026-04-26T15:20:18.001Z</time></trkpt><trkpt lat="40.19415325187492" lon="15.701482596494161"><ele>621.5</ele><time>2026-04-26T15:20:19.001Z</time></trkpt><trkpt lat="40.19398878368997" lon="15.701792107340479"><ele>631.0</ele><time>2026-04-26T15:20:20.001Z</time></trkpt><trkpt lat="40.193818860474195" lon="15.70209846881084"><ele>631.0</ele><time>2026-04-26T15:20:21.001Z</time></trkpt><trkpt lat="40.19364175174755" lon="15.702397809139322"><ele>631.0</ele><time>2026-04-26T15:20:22Z</time></trkpt><trkpt lat="40.19345924104084" lon="15.702687880778045"><ele>633.5</ele><time>2026-04-26T15:20:23Z</time></trkpt><trkpt lat="40.193269000006275" lon="15.70297065029429"><ele>636.0</ele><time>2026-04-26T15:20:24Z</time></trkpt><trkpt lat="40.19307359392362" lon="15.703245559533643"><ele>639.0</ele><time>2026-04-26T15:20:25Z</time></trkpt><trkpt lat="40.19287136228282" lon="15.7035141927515"><ele>642.0</ele><time>2026-04-26T15:20:26Z</time></trkpt><trkpt lat="40.192663643129926" lon="15.703777688739098"><ele>643.5</ele><time>2026-04-26T15:20:27Z</time></trkpt><trkpt lat="40.19245144164154" lon="15.704035238399861"><ele>645.0</ele><time>2026-04-26T15:20:28Z</time></trkpt><trkpt lat="40.192230885571114" lon="15.704283783915095"><ele>650.0</ele><time>2026-04-26T15:20:29Z</time></trkpt><trkpt lat="40.19200615444605" lon="15.704524358601804"><ele>655.0</ele><time>2026-04-26T15:20:30Z</time></trkpt><trkpt lat="40.191776809962164" lon="15.70475638900848"><ele>655.0</ele><time>2026-04-26T15:20:31Z</time></trkpt><trkpt lat="40.19154088432032" lon="15.704978510439961"><ele>655.0</ele><time>2026-04-26T15:20:32Z</time></trkpt><trkpt lat="40.191299452560095" lon="15.70519005687105"><ele>664.5</ele><time>2026-04-26T15:20:33Z</time></trkpt><trkpt lat="40.19105580903145" lon="15.705390756877273"><ele>674.0</ele><time>2026-04-26T15:20:34Z</time></trkpt><trkpt lat="40.19080666702885" lon="15.705580735977609"><ele>681.0</ele><time>2026-04-26T15:20:35Z</time></trkpt><trkpt lat="40.19055366492512" lon="15.705759077326595"><ele>688.0</ele><time>2026-04-26T15:20:36Z</time></trkpt><trkpt lat="40.190296560794195" lon="15.70592968223046"><ele>692.5</ele><time>2026-04-26T15:20:37Z</time></trkpt><trkpt lat="40.19003827697361" lon="15.70609203137497"><ele>697.0</ele><time>2026-04-26T15:20:38Z</time></trkpt><trkpt lat="40.189776861735396" lon="15.706245307907306"><ele>698.0</ele><time>2026-04-26T15:20:39Z</time></trkpt><trkpt lat="40.1895148786367" lon="15.70639398917195"><ele>699.0</ele><time>2026-04-26T15:20:40Z</time></trkpt><trkpt lat="40.1892248879477" lon="15.706563215072316"><ele>685.5</ele><time>2026-04-26T15:20:41Z</time></trkpt><trkpt lat="40.188958357359716" lon="15.706705169809071"><ele>672.0</ele><time>2026-04-26T15:20:42Z</time></trkpt><trkpt lat="40.18869161642209" lon="15.706847594595242"><ele>666.0</ele><time>2026-04-26T15:20:43Z</time></trkpt><trkpt lat="40.188427414912475" lon="15.706993489911879"><ele>660.0</ele><time>2026-04-26T15:20:44Z</time></trkpt><trkpt lat="40.1881658185052" lon="15.707145345496176"><ele>660.0</ele><time>2026-04-26T15:20:45Z</time></trkpt><trkpt lat="40.18791001139492" lon="15.707305183627128"><ele>660.0</ele><time>2026-04-26T15:20:46Z</time></trkpt><trkpt lat="40.187655812201896" lon="15.707468799069957"><ele>660.0</ele><time>2026-04-26T15:20:47Z</time></trkpt><trkpt lat="40.187406849131996" lon="15.707642868764157"><ele>660.0</ele><time>2026-04-26T15:20:48Z</time></trkpt><trkpt lat="40.18716626912329" lon="15.707824661350452"><ele>654.0</ele><time>2026-04-26T15:20:49Z</time></trkpt><trkpt lat="40.186918121415424" lon="15.707994941570835"><ele>648.0</ele><time>2026-04-26T15:20:50Z</time></trkpt><trkpt lat="40.186665391828576" lon="15.708176710966917"><ele>649.0</ele><time>2026-04-26T15:20:51Z</time></trkpt><trkpt lat="40.18643399511293" lon="15.708367987695432"><ele>650.0</ele><time>2026-04-26T15:20:52Z</time></trkpt><trkpt lat="40.18615134415592" lon="15.70860322576109"><ele>650.0</ele><time>2026-04-26T15:20:53Z</time></trkpt><trkpt lat="40.185881330664635" lon="15.708822452881533"><ele>650.0</ele><time>2026-04-26T15:20:54Z</time></trkpt><trkpt lat="40.185630024794435" lon="15.70903616294309"><ele>651.5</ele><time>2026-04-26T15:20:55Z</time></trkpt><trkpt lat="40.1853831697224" lon="15.709238991470054"><ele>653.0</ele><time>2026-04-26T15:20:56Z</time></trkpt><trkpt lat="40.185138930936816" lon="15.709439594217626"><ele>654.0</ele><time>2026-04-26T15:20:57Z</time></trkpt><trkpt lat="40.18489461331102" lon="15.709642409583603"><ele>655.0</ele><time>2026-04-26T15:20:58Z</time></trkpt><trkpt lat="40.18465263532949" lon="15.709851298291898"><ele>655.0</ele><time>2026-04-26T15:20:59Z</time></trkpt><trkpt lat="40.18441032292719" lon="15.710056382619294"><ele>655.0</ele><time>2026-04-26T15:21:00Z</time></trkpt><trkpt lat="40.18416756113327" lon="15.71026511389582"><ele>651.0</ele><time>2026-04-26T15:21:01Z</time></trkpt><trkpt lat="40.18392488643376" lon="15.71044385613596"><ele>647.0</ele><time>2026-04-26T15:21:02Z</time></trkpt><trkpt lat="40.18368661047818" lon="15.710656505734358"><ele>647.0</ele><time>2026-04-26T15:21:03Z</time></trkpt><trkpt lat="40.18344601079766" lon="15.710869708096828"><ele>647.0</ele><time>2026-04-26T15:21:04Z</time></trkpt><trkpt lat="40.18320415202821" lon="15.711078814747454"><ele>645.5</ele><time>2026-04-26T15:21:05Z</time></trkpt><trkpt lat="40.182960044953816" lon="15.71128686928925"><ele>644.0</ele><time>2026-04-26T15:21:06Z</time></trkpt><trkpt lat="40.182714409729286" lon="15.711489691592144"><ele>644.0</ele><time>2026-04-26T15:21:07Z</time></trkpt><trkpt lat="40.182468067739165" lon="15.711692262148432"><ele>644.0</ele><time>2026-04-26T15:21:08Z</time></trkpt><trkpt lat="40.18222116369713" lon="15.71189372819972"><ele>644.5</ele><time>2026-04-26T15:21:09Z</time></trkpt><trkpt lat="40.181976664866596" lon="15.712096487661995"><ele>645.0</ele><time>2026-04-26T15:21:10Z</time></trkpt><trkpt lat="40.18173285685992" lon="15.712302559972663"><ele>642.0</ele><time>2026-04-26T15:21:11Z</time></trkpt><trkpt lat="40.18148933427966" lon="15.712505729869477"><ele>639.0</ele><time>2026-04-26T15:21:12Z</time></trkpt><trkpt lat="40.181244924014244" lon="15.712710102692684"><ele>646.0</ele><time>2026-04-26T15:21:13Z</time></trkpt><trkpt lat="40.181000275646596" lon="15.71291177288249"><ele>653.0</ele><time>2026-04-26T15:21:14Z</time></trkpt><trkpt lat="40.18075710294165" lon="15.713114577445777"><ele>648.5</ele><time>2026-04-26T15:21:15Z</time></trkpt><trkpt lat="40.18051544353955" lon="15.713318915592595"><ele>644.0</ele><time>2026-04-26T15:21:16Z</time></trkpt><trkpt lat="40.180271364958976" lon="15.713522043961131"><ele>646.0</ele><time>2026-04-26T15:21:17Z</time></trkpt><trkpt lat="40.18002897365565" lon="15.71372526735971"><ele>648.0</ele><time>2026-04-26T15:21:18Z</time></trkpt><trkpt lat="40.17978578239351" lon="15.713929872655887"><ele>648.0</ele><time>2026-04-26T15:21:19Z</time></trkpt><trkpt lat="40.17954355378613" lon="15.714134088453065"><ele>648.0</ele><time>2026-04-26T15:21:20Z</time></trkpt><trkpt lat="40.17929913912723" lon="15.714339592588324"><ele>652.5</ele><time>2026-04-26T15:21:21Z</time></trkpt><trkpt lat="40.17905636520882" lon="15.71454392895588"><ele>657.0</ele><time>2026-04-26T15:21:22Z</time></trkpt><trkpt lat="40.178810605997334" lon="15.71474345057936"><ele>648.0</ele><time>2026-04-26T15:21:23Z</time></trkpt><trkpt lat="40.17856789251916" lon="15.714945328961614"><ele>639.0</ele><time>2026-04-26T15:21:24Z</time></trkpt><trkpt lat="40.17832583269387" lon="15.715150363739703"><ele>647.5</ele><time>2026-04-26T15:21:25Z</time></trkpt><trkpt lat="40.17808176450489" lon="15.715352906318662"><ele>656.0</ele><time>2026-04-26T15:21:26Z</time></trkpt><trkpt lat="40.177840262018066" lon="15.71555513312744"><ele>656.0</ele><time>2026-04-26T15:21:27Z</time></trkpt><trkpt lat="40.17760483639396" lon="15.715780182827542"><ele>656.0</ele><time>2026-04-26T15:21:28Z</time></trkpt><trkpt lat="40.17734471066261" lon="15.715957812596724"><ele>654.5</ele><time>2026-04-26T15:21:29Z</time></trkpt><trkpt lat="40.17709138485923" lon="15.716147923678884"><ele>653.0</ele><time>2026-04-26T15:21:30Z</time></trkpt><trkpt lat="40.17684390917307" lon="15.716345420830601"><ele>653.0</ele><time>2026-04-26T15:21:31Z</time></trkpt><trkpt lat="40.17659513097714" lon="15.716542583190016"><ele>653.0</ele><time>2026-04-26T15:21:32Z</time></trkpt><trkpt lat="40.176352928664" lon="15.716747645711115"><ele>662.0</ele><time>2026-04-26T15:21:33Z</time></trkpt><trkpt lat="40.17611078406099" lon="15.716951625155414"><ele>671.0</ele><time>2026-04-26T15:21:34Z</time></trkpt><trkpt lat="40.17586673993091" lon="15.717156126046001"><ele>666.0</ele><time>2026-04-26T15:21:35Z</time></trkpt><trkpt lat="40.175621825828394" lon="15.717359440416704"><ele>661.0</ele><time>2026-04-26T15:21:36Z</time></trkpt><trkpt lat="40.17537704213517" lon="15.717561731494262"><ele>669.5</ele><time>2026-04-26T15:21:37Z</time></trkpt><trkpt lat="40.17513169441924" lon="15.717762391342774"><ele>678.0</ele><time>2026-04-26T15:21:38Z</time></trkpt><trkpt lat="40.1748907197378" lon="15.717970231564118"><ele>667.0</ele><time>2026-04-26T15:21:39Z</time></trkpt><trkpt lat="40.17465591469711" lon="15.71818660552453"><ele>656.0</ele><time>2026-04-26T15:21:40Z</time></trkpt><trkpt lat="40.17442435863866" lon="15.718414242113965"><ele>660.0</ele><time>2026-04-26T15:21:41Z</time></trkpt><trkpt lat="40.174197068939804" lon="15.718651121017263"><ele>664.0</ele><time>2026-04-26T15:21:42Z</time></trkpt><trkpt lat="40.17397397023509" lon="15.71889591942569"><ele>665.0</ele><time>2026-04-26T15:21:43Z</time></trkpt><trkpt lat="40.173758597723975" lon="15.719150288386112"><ele>666.0</ele><time>2026-04-26T15:21:44Z</time></trkpt><trkpt lat="40.1735514996161" lon="15.71941533212388"><ele>668.0</ele><time>2026-04-26T15:21:45Z</time></trkpt><trkpt lat="40.17335232781894" lon="15.719689000176947"><ele>670.0</ele><time>2026-04-26T15:21:46Z</time></trkpt><trkpt lat="40.173161257006825" lon="15.719972938428032"><ele>671.5</ele><time>2026-04-26T15:21:47Z</time></trkpt><trkpt lat="40.17297637227251" lon="15.720262502154872"><ele>673.0</ele><time>2026-04-26T15:21:48Z</time></trkpt><trkpt lat="40.1727950340905" lon="15.720550437346002"><ele>673.0</ele><time>2026-04-26T15:21:49Z</time></trkpt><trkpt lat="40.17261579330366" lon="15.72084682523906"><ele>673.0</ele><time>2026-04-26T15:21:50Z</time></trkpt><trkpt lat="40.17243398847455" lon="15.72114450037615"><ele>665.0</ele><time>2026-04-26T15:21:51Z</time></trkpt><trkpt lat="40.172248836130066" lon="15.721437717066946"><ele>657.0</ele><time>2026-04-26T15:21:52Z</time></trkpt><trkpt lat="40.17206427657108" lon="15.721727184520569"><ele>662.0</ele><time>2026-04-26T15:21:53Z</time></trkpt><trkpt lat="40.17187868596286" lon="15.722015440855598"><ele>667.0</ele><time>2026-04-26T15:21:54Z</time></trkpt><trkpt lat="40.17169291016802" lon="15.722303651233448"><ele>669.5</ele><time>2026-04-26T15:21:55Z</time></trkpt><trkpt lat="40.171510809987666" lon="15.72259517499316"><ele>672.0</ele><time>2026-04-26T15:21:56Z</time></trkpt><trkpt lat="40.17132772720456" lon="15.722887325279395"><ele>678.0</ele><time>2026-04-26T15:21:57Z</time></trkpt><trkpt lat="40.17114407857039" lon="15.723178604905613"><ele>684.0</ele><time>2026-04-26T15:21:58Z</time></trkpt><trkpt lat="40.170954908973265" lon="15.723463962112513"><ele>685.0</ele><time>2026-04-26T15:21:59Z</time></trkpt><trkpt lat="40.170755623839696" lon="15.723737158661105"><ele>686.0</ele><time>2026-04-26T15:22:00Z</time></trkpt><trkpt lat="40.17054400880358" lon="15.723997449955174"><ele>690.5</ele><time>2026-04-26T15:22:01Z</time></trkpt><trkpt lat="40.17032120792639" lon="15.724239170610403"><ele>695.0</ele><time>2026-04-26T15:22:02Z</time></trkpt><trkpt lat="40.17009130379891" lon="15.72446583670781"><ele>691.5</ele><time>2026-04-26T15:22:03Z</time></trkpt><trkpt lat="40.169855076102635" lon="15.724682261051147"><ele>688.0</ele><time>2026-04-26T15:22:04Z</time></trkpt><trkpt lat="40.169613664511864" lon="15.724889243587356"><ele>688.0</ele><time>2026-04-26T15:22:05Z</time></trkpt><trkpt lat="40.169371634672906" lon="15.725096862026803"><ele>688.0</ele><time>2026-04-26T15:22:06Z</time></trkpt><trkpt lat="40.16913151641699" lon="15.725307580192553"><ele>687.0</ele><time>2026-04-26T15:22:07Z</time></trkpt><trkpt lat="40.16889239964156" lon="15.725519581808744"><ele>686.0</ele><time>2026-04-26T15:22:08Z</time></trkpt><trkpt lat="40.16865170499984" lon="15.725731402549588"><ele>686.0</ele><time>2026-04-26T15:22:09Z</time></trkpt><trkpt lat="40.16841178434244" lon="15.72594440713681"><ele>686.0</ele><time>2026-04-26T15:22:10Z</time></trkpt><trkpt lat="40.168170521888186" lon="15.726156443723514"><ele>689.0</ele><time>2026-04-26T15:22:11Z</time></trkpt><trkpt lat="40.167928921342686" lon="15.72636581033684"><ele>692.0</ele><time>2026-04-26T15:22:12Z</time></trkpt><trkpt lat="40.16768804317252" lon="15.726578935934103"><ele>692.0</ele><time>2026-04-26T15:22:13Z</time></trkpt><trkpt lat="40.16744767901313" lon="15.726790649035395"><ele>692.0</ele><time>2026-04-26T15:22:14Z</time></trkpt><trkpt lat="40.16720605829427" lon="15.727001977239148"><ele>689.5</ele><time>2026-04-26T15:22:15Z</time></trkpt><trkpt lat="40.16696674445459" lon="15.727217299053383"><ele>687.0</ele><time>2026-04-26T15:22:16Z</time></trkpt><trkpt lat="40.16673096524784" lon="15.727436162210152"><ele>690.5</ele><time>2026-04-26T15:22:17Z</time></trkpt><trkpt lat="40.16649880213853" lon="15.727662356714477"><ele>694.0</ele><time>2026-04-26T15:22:18Z</time></trkpt><trkpt lat="40.16627455930021" lon="15.727902688293494"><ele>694.0</ele><time>2026-04-26T15:22:19Z</time></trkpt><trkpt lat="40.16605924181716" lon="15.728155807342638"><ele>694.0</ele><time>2026-04-26T15:22:20Z</time></trkpt><trkpt lat="40.165848786496774" lon="15.728418354521338"><ele>696.0</ele><time>2026-04-26T15:22:21Z</time></trkpt><trkpt lat="40.1656398531218" lon="15.728682032201668"><ele>698.0</ele><time>2026-04-26T15:22:22Z</time></trkpt><trkpt lat="40.16543278306017" lon="15.728947391725306"><ele>698.0</ele><time>2026-04-26T15:22:23Z</time></trkpt><trkpt lat="40.165227152973166" lon="15.729212527966402"><ele>698.0</ele><time>2026-04-26T15:22:24Z</time></trkpt><trkpt lat="40.16502130378895" lon="15.729478050323857"><ele>719.0</ele><time>2026-04-26T15:22:25Z</time></trkpt><trkpt lat="40.16481492236368" lon="15.729741265926346"><ele>740.0</ele><time>2026-04-26T15:22:26Z</time></trkpt><trkpt lat="40.16460777491064" lon="15.730007915424459"><ele>752.5</ele><time>2026-04-26T15:22:27Z</time></trkpt><trkpt lat="40.16440108272211" lon="15.730274781248065"><ele>765.0</ele><time>2026-04-26T15:22:28Z</time></trkpt><trkpt lat="40.16419517672807" lon="15.730541240124458"><ele>784.0</ele><time>2026-04-26T15:22:29Z</time></trkpt><trkpt lat="40.163989701075174" lon="15.73080774872722"><ele>803.0</ele><time>2026-04-26T15:22:30Z</time></trkpt><trkpt lat="40.163785080071335" lon="15.73107445521073"><ele>814.0</ele><time>2026-04-26T15:22:31Z</time></trkpt><trkpt lat="40.163580161160425" lon="15.73134036116519"><ele>825.0</ele><time>2026-04-26T15:22:32Z</time></trkpt><trkpt lat="40.1633760314731" lon="15.731605730785425"><ele>833.0</ele><time>2026-04-26T15:22:33Z</time></trkpt><trkpt lat="40.163171198943495" lon="15.731874203635215"><ele>841.0</ele><time>2026-04-26T15:22:34Z</time></trkpt><trkpt lat="40.162969125367894" lon="15.732141852716461"><ele>845.5</ele><time>2026-04-26T15:22:35Z</time></trkpt><trkpt lat="40.16276684502183" lon="15.732408088940897"><ele>850.0</ele><time>2026-04-26T15:22:36Z</time></trkpt><trkpt lat="40.16256543922323" lon="15.732674579218948"><ele>838.0</ele><time>2026-04-26T15:22:37Z</time></trkpt><trkpt lat="40.16236642163787" lon="15.73294323692762"><ele>826.0</ele><time>2026-04-26T15:22:38Z</time></trkpt><trkpt lat="40.16216720508236" lon="15.733211298133183"><ele>810.5</ele><time>2026-04-26T15:22:39Z</time></trkpt><trkpt lat="40.16196274565426" lon="15.733395031261633"><ele>795.0</ele><time>2026-04-26T15:22:40Z</time></trkpt><trkpt lat="40.16176713286728" lon="15.733647459539549"><ele>765.0</ele><time>2026-04-26T15:22:41Z</time></trkpt><trkpt lat="40.16157072934985" lon="15.73390125184519"><ele>735.0</ele><time>2026-04-26T15:22:42Z</time></trkpt><trkpt lat="40.161375495200645" lon="15.73415258253179"><ele>721.0</ele><time>2026-04-26T15:22:43Z</time></trkpt><trkpt lat="40.16117832962489" lon="15.734399398843994"><ele>707.0</ele><time>2026-04-26T15:22:44Z</time></trkpt><trkpt lat="40.16093774843343" lon="15.734731799661002"><ele>696.5</ele><time>2026-04-26T15:22:45Z</time></trkpt><trkpt lat="40.16068135335237" lon="15.735049472811962"><ele>686.0</ele><time>2026-04-26T15:22:46Z</time></trkpt><trkpt lat="40.16047316488557" lon="15.735314064761075"><ele>683.5</ele><time>2026-04-26T15:22:47Z</time></trkpt><trkpt lat="40.16026270654383" lon="15.735577655068237"><ele>681.0</ele><time>2026-04-26T15:22:48Z</time></trkpt><trkpt lat="40.16005207826302" lon="15.73584466384035"><ele>681.0</ele><time>2026-04-26T15:22:49Z</time></trkpt><trkpt lat="40.1598470024472" lon="15.736120436977309"><ele>681.0</ele><time>2026-04-26T15:22:50Z</time></trkpt><trkpt lat="40.15963700772858" lon="15.73638421782055"><ele>681.0</ele><time>2026-04-26T15:22:51Z</time></trkpt><trkpt lat="40.15943183177996" lon="15.736649813327999"><ele>681.0</ele><time>2026-04-26T15:22:52Z</time></trkpt><trkpt lat="40.15922626820481" lon="15.736914006804868"><ele>684.5</ele><time>2026-04-26T15:22:53Z</time></trkpt><trkpt lat="40.159023575530206" lon="15.737180398830182"><ele>688.0</ele><time>2026-04-26T15:22:54Z</time></trkpt><trkpt lat="40.15882428785594" lon="15.737443464996874"><ele>688.0</ele><time>2026-04-26T15:22:55Z</time></trkpt><trkpt lat="40.15862136585384" lon="15.737710890852885"><ele>688.0</ele><time>2026-04-26T15:22:56Z</time></trkpt><trkpt lat="40.15841847825417" lon="15.737980443541737"><ele>694.5</ele><time>2026-04-26T15:22:57Z</time></trkpt><trkpt lat="40.1582187257821" lon="15.738254036908554"><ele>701.0</ele><time>2026-04-26T15:22:58Z</time></trkpt><trkpt lat="40.15802618803953" lon="15.73853527805541"><ele>706.0</ele><time>2026-04-26T15:22:59Z</time></trkpt><trkpt lat="40.157840117769325" lon="15.738828141133947"><ele>711.0</ele><time>2026-04-26T15:23:00Z</time></trkpt><trkpt lat="40.157657834854945" lon="15.739126923722505"><ele>711.5</ele><time>2026-04-26T15:23:01Z</time></trkpt><trkpt lat="40.157486096888036" lon="15.739428089282184"><ele>712.0</ele><time>2026-04-26T15:23:02Z</time></trkpt><trkpt lat="40.157321716905614" lon="15.739732374033457"><ele>712.5</ele><time>2026-04-26T15:23:03Z</time></trkpt><trkpt lat="40.157160264255324" lon="15.740037461706564"><ele>713.0</ele><time>2026-04-26T15:23:04Z</time></trkpt><trkpt lat="40.15699961610499" lon="15.740344416997305"><ele>713.0</ele><time>2026-04-26T15:23:05Z</time></trkpt><trkpt lat="40.156838343875016" lon="15.740651366514143"><ele>713.0</ele><time>2026-04-26T15:23:06Z</time></trkpt><trkpt lat="40.156677053035324" lon="15.74095735720157"><ele>712.5</ele><time>2026-04-26T15:23:07Z</time></trkpt><trkpt lat="40.15651433823045" lon="15.741262702740743"><ele>712.0</ele><time>2026-04-26T15:23:08Z</time></trkpt><trkpt lat="40.156355445901255" lon="15.741568249778057"><ele>712.0</ele><time>2026-04-26T15:23:09Z</time></trkpt><trkpt lat="40.15619563587358" lon="15.741872542690649"><ele>712.0</ele><time>2026-04-26T15:23:10Z</time></trkpt><trkpt lat="40.15603506833425" lon="15.742174453332503"><ele>715.5</ele><time>2026-04-26T15:23:11Z</time></trkpt><trkpt lat="40.15587629090401" lon="15.742478848981436"><ele>719.0</ele><time>2026-04-26T15:23:12Z</time></trkpt><trkpt lat="40.15571882360426" lon="15.742783173349505"><ele>721.5</ele><time>2026-04-26T15:23:13Z</time></trkpt><trkpt lat="40.15555969515144" lon="15.743084630963706"><ele>724.0</ele><time>2026-04-26T15:23:14Z</time></trkpt><trkpt lat="40.1553998548506" lon="15.743383468292466"><ele>728.0</ele><time>2026-04-26T15:23:15Z</time></trkpt><trkpt lat="40.155242160850555" lon="15.74368124825536"><ele>732.0</ele><time>2026-04-26T15:23:16Z</time></trkpt><trkpt lat="40.15508425889625" lon="15.743977729233945"><ele>732.0</ele><time>2026-04-26T15:23:17Z</time></trkpt><trkpt lat="40.15492693725838" lon="15.744274326258937"><ele>732.0</ele><time>2026-04-26T15:23:18Z</time></trkpt><trkpt lat="40.154772369261345" lon="15.744569039034428"><ele>733.0</ele><time>2026-04-26T15:23:19Z</time></trkpt><trkpt lat="40.15462227695267" lon="15.744857536481236"><ele>734.0</ele><time>2026-04-26T15:23:20Z</time></trkpt><trkpt lat="40.15447411019082" lon="15.745136711729222"><ele>738.0</ele><time>2026-04-26T15:23:21Z</time></trkpt><trkpt lat="40.15433352987893" lon="15.745398299478023"><ele>742.0</ele><time>2026-04-26T15:23:22Z</time></trkpt><trkpt lat="40.154200877513766" lon="15.745636445097542"><ele>742.0</ele><time>2026-04-26T15:23:23Z</time></trkpt><trkpt lat="40.15407547605085" lon="15.745863392895739"><ele>742.0</ele><time>2026-04-26T15:23:24Z</time></trkpt><trkpt lat="40.153959480145055" lon="15.7460778972024"><ele>742.0</ele><time>2026-04-26T15:23:25Z</time></trkpt><trkpt lat="40.153849255204726" lon="15.746285384459586"><ele>743.0</ele><time>2026-04-26T15:23:26Z</time></trkpt><trkpt lat="40.153741640175895" lon="15.746487725684954"><ele>744.0</ele><time>2026-04-26T15:23:27Z</time></trkpt><trkpt lat="40.15363655517486" lon="15.746684045520187"><ele>745.0</ele><time>2026-04-26T15:23:28Z</time></trkpt><trkpt lat="40.15353434565753" lon="15.746873224537408"><ele>749.0</ele><time>2026-04-26T15:23:29Z</time></trkpt><trkpt lat="40.153431672774936" lon="15.747055319349842"><ele>753.0</ele><time>2026-04-26T15:23:30Z</time></trkpt><trkpt lat="40.15332815057206" lon="15.747231349697158"><ele>757.0</ele><time>2026-04-26T15:23:31Z</time></trkpt><trkpt lat="40.15322314358091" lon="15.747401663103902"><ele>756.3333333333334</ele><time>2026-04-26T15:23:32Z</time></trkpt><trkpt lat="40.15311598766961" lon="15.747563546565502"><ele>755.6666666666666</ele><time>2026-04-26T15:23:33Z</time></trkpt><trkpt lat="40.15300523017563" lon="15.747713504979455"><ele>755.0</ele><time>2026-04-26T15:23:34Z</time></trkpt><trkpt lat="40.1528884938416" lon="15.74784953959681"><ele>756.5</ele><time>2026-04-26T15:23:35Z</time></trkpt><trkpt lat="40.15276873162545" lon="15.747972856926953"><ele>758.0</ele><time>2026-04-26T15:23:36Z</time></trkpt><trkpt lat="40.15265712120098" lon="15.748088545335685"><ele>759.5</ele><time>2026-04-26T15:23:37Z</time></trkpt><trkpt lat="40.15255359217389" lon="15.748197700804731"><ele>761.0</ele><time>2026-04-26T15:23:38Z</time></trkpt><trkpt lat="40.15245896386797" lon="15.748298923651205"><ele>761.0</ele><time>2026-04-26T15:23:39Z</time></trkpt><trkpt lat="40.15236863856964" lon="15.748387337433057"><ele>761.0</ele><time>2026-04-26T15:23:40Z</time></trkpt><trkpt lat="40.152274960311466" lon="15.748459302158427"><ele>761.0</ele><time>2026-04-26T15:23:41Z</time></trkpt><trkpt lat="40.15217651570664" lon="15.748504869458776"><ele>761.0</ele><time>2026-04-26T15:23:42Z</time></trkpt><trkpt lat="40.15207468412046" lon="15.748509255686914"><ele>761.0</ele><time>2026-04-26T15:23:43Z</time></trkpt><trkpt lat="40.15197830903709" lon="15.74847902316819"><ele>761.0</ele><time>2026-04-26T15:23:44Z</time></trkpt><trkpt lat="40.15189357202352" lon="15.748431350840306"><ele>761.0</ele><time>2026-04-26T15:23:45Z</time></trkpt><trkpt lat="40.15182237214803" lon="15.748362225119013"><ele>761.0</ele><time>2026-04-26T15:23:46Z</time></trkpt><trkpt lat="40.1517599304883" lon="15.748267579384404"><ele>761.0</ele><time>2026-04-26T15:23:47Z</time></trkpt><trkpt lat="40.151703936036505" lon="15.748165554761737"><ele>761.0</ele><time>2026-04-26T15:23:48Z</time></trkpt><trkpt lat="40.15168965884065" lon="15.748023400852079"><ele>761.0</ele><time>2026-04-26T15:23:49Z</time></trkpt><trkpt lat="40.15168262653931" lon="15.747896674306931"><ele>761.0</ele><time>2026-04-26T15:23:50Z</time></trkpt><trkpt lat="40.151702948300155" lon="15.747774756544045"><ele>761.0</ele><time>2026-04-26T15:23:51Z</time></trkpt><trkpt lat="40.15174461548055" lon="15.747661936595733"><ele>761.0</ele><time>2026-04-26T15:23:52Z</time></trkpt><trkpt lat="40.15180567220054" lon="15.74756366761506"><ele>761.0</ele><time>2026-04-26T15:23:53Z</time></trkpt><trkpt lat="40.1518820231047" lon="15.747479743885613"><ele>760.1999999999999</ele><time>2026-04-26T15:23:54Z</time></trkpt><trkpt lat="40.151972703253456" lon="15.747415444216182"><ele>759.4</ele><time>2026-04-26T15:23:55Z</time></trkpt><trkpt lat="40.152079240618065" lon="15.74738939089968"><ele>758.6</ele><time>2026-04-26T15:23:56Z</time></trkpt><trkpt lat="40.152190739845345" lon="15.74739518696182"><ele>757.8</ele><time>2026-04-26T15:23:57Z</time></trkpt><trkpt lat="40.15230063466941" lon="15.74744271721909"><ele>757.0</ele><time>2026-04-26T15:23:58Z</time></trkpt><trkpt lat="40.15239445048126" lon="15.747509613640633"><ele>756.5</ele><time>2026-04-26T15:23:59Z</time></trkpt><trkpt lat="40.15249457489436" lon="15.747564685772055"><ele>756.0</ele><time>2026-04-26T15:24:00Z</time></trkpt><trkpt lat="40.15260250939827" lon="15.7476001635942"><ele>755.5</ele><time>2026-04-26T15:24:01Z</time></trkpt><trkpt lat="40.152719344770816" lon="15.74760811352711"><ele>755.0</ele><time>2026-04-26T15:24:02Z</time></trkpt><trkpt lat="40.15283742344561" lon="15.747588699313892"><ele>755.0</ele><time>2026-04-26T15:24:03Z</time></trkpt><trkpt lat="40.152953599140226" lon="15.747552649097566"><ele>755.0</ele><time>2026-04-26T15:24:04Z</time></trkpt><trkpt lat="40.153057223135185" lon="15.747481803763703"><ele>755.0</ele><time>2026-04-26T15:24:05Z</time></trkpt><trkpt lat="40.153145107305825" lon="15.747380230197425"><ele>755.0</ele><time>2026-04-26T15:24:06Z</time></trkpt><trkpt lat="40.15321625469875" lon="15.747259233320204"><ele>755.5</ele><time>2026-04-26T15:24:07Z</time></trkpt><trkpt lat="40.15328621510099" lon="15.74713275556179"><ele>756.0</ele><time>2026-04-26T15:24:08Z</time></trkpt><trkpt lat="40.153353718092326" lon="15.747010516313562"><ele>756.5</ele><time>2026-04-26T15:24:09Z</time></trkpt><trkpt lat="40.153423471468095" lon="15.746888985713344"><ele>757.0</ele><time>2026-04-26T15:24:10Z</time></trkpt><trkpt lat="40.15349260083955" lon="15.74676517206436"><ele>754.0</ele><time>2026-04-26T15:24:11Z</time></trkpt><trkpt lat="40.15355637419304" lon="15.746639762556704"><ele>751.0</ele><time>2026-04-26T15:24:12Z</time></trkpt><trkpt lat="40.15361723139366" lon="15.74650842863915"><ele>748.0</ele><time>2026-04-26T15:24:13Z</time></trkpt><trkpt lat="40.15367377535929" lon="15.746374519185254"><ele>745.0</ele><time>2026-04-26T15:24:14Z</time></trkpt><trkpt lat="40.1537312445621" lon="15.746241535195583"><ele>745.0</ele><time>2026-04-26T15:24:15Z</time></trkpt><trkpt lat="40.153786240630495" lon="15.74610674996363"><ele>745.0</ele><time>2026-04-26T15:24:16Z</time></trkpt><trkpt lat="40.15384253768607" lon="15.745970987843068"><ele>745.0</ele><time>2026-04-26T15:24:17Z</time></trkpt><trkpt lat="40.15389920617246" lon="15.745835852413753"><ele>745.0</ele><time>2026-04-26T15:24:18Z</time></trkpt><trkpt lat="40.153956217062344" lon="15.745702247490387"><ele>744.25</ele><time>2026-04-26T15:24:19Z</time></trkpt><trkpt lat="40.15401411870173" lon="15.745568202447414"><ele>743.5</ele><time>2026-04-26T15:24:20Z</time></trkpt><trkpt lat="40.154070899705815" lon="15.745433628931398"><ele>742.75</ele><time>2026-04-26T15:24:21Z</time></trkpt><trkpt lat="40.15412703745993" lon="15.745296994196908"><ele>742.0</ele><time>2026-04-26T15:24:22Z</time></trkpt><trkpt lat="40.15418313451368" lon="15.745159690821358"><ele>740.0</ele><time>2026-04-26T15:24:23Z</time></trkpt><trkpt lat="40.154241273195176" lon="15.74502040802761"><ele>738.0</ele><time>2026-04-26T15:24:24Z</time></trkpt><trkpt lat="40.154303511093005" lon="15.744875938283757"><ele>736.0</ele><time>2026-04-26T15:24:25Z</time></trkpt><trkpt lat="40.1543679354142" lon="15.744725166765239"><ele>734.0</ele><time>2026-04-26T15:24:26Z</time></trkpt><trkpt lat="40.1544329603758" lon="15.744566698732688"><ele>734.0</ele><time>2026-04-26T15:24:27Z</time></trkpt><trkpt lat="40.15450094920646" lon="15.744402323845076"><ele>734.0</ele><time>2026-04-26T15:24:28Z</time></trkpt><trkpt lat="40.154569947458334" lon="15.74423426792601"><ele>734.0</ele><time>2026-04-26T15:24:29Z</time></trkpt><trkpt lat="40.15464056296037" lon="15.744064429085313"><ele>734.0</ele><time>2026-04-26T15:24:30Z</time></trkpt><trkpt lat="40.15471375723045" lon="15.743890589268545"><ele>732.0</ele><time>2026-04-26T15:24:31Z</time></trkpt><trkpt lat="40.15478732135394" lon="15.743712466145615"><ele>730.0</ele><time>2026-04-26T15:24:32Z</time></trkpt><trkpt lat="40.15486093304309" lon="15.743531183491148"><ele>728.0</ele><time>2026-04-26T15:24:33Z</time></trkpt><trkpt lat="40.15493678935751" lon="15.743351357364743"><ele>726.6666666666666</ele><time>2026-04-26T15:24:34Z</time></trkpt><trkpt lat="40.15501284543563" lon="15.743171429921528"><ele>725.3333333333334</ele><time>2026-04-26T15:24:35Z</time></trkpt><trkpt lat="40.155087423194075" lon="15.742991298761929"><ele>724.0</ele><time>2026-04-26T15:24:36Z</time></trkpt><trkpt lat="40.155158842766006" lon="15.74281296605845"><ele>722.3333333333334</ele><time>2026-04-26T15:24:37Z</time></trkpt><trkpt lat="40.15523148760467" lon="15.742637214730163"><ele>720.6666666666666</ele><time>2026-04-26T15:24:38Z</time></trkpt><trkpt lat="40.155303811051674" lon="15.742464556141002"><ele>719.0</ele><time>2026-04-26T15:24:39Z</time></trkpt><trkpt lat="40.155370241449155" lon="15.742289934552069"><ele>719.0</ele><time>2026-04-26T15:24:40Z</time></trkpt><trkpt lat="40.1554221517396" lon="15.742109207439514"><ele>719.0</ele><time>2026-04-26T15:24:41Z</time></trkpt><trkpt lat="40.15545596521295" lon="15.741921952824482"><ele>719.0</ele><time>2026-04-26T15:24:42Z</time></trkpt><trkpt lat="40.15545162849517" lon="15.741727428754293"><ele>719.0</ele><time>2026-04-26T15:24:43Z</time></trkpt><trkpt lat="40.1554281832546" lon="15.741536050849279"><ele>716.3333333333333</ele><time>2026-04-26T15:24:44Z</time></trkpt><trkpt lat="40.15538684749919" lon="15.74134877677546"><ele>713.6666666666666</ele><time>2026-04-26T15:24:45Z</time></trkpt><trkpt lat="40.155313131720476" lon="15.74117004449955"><ele>711.0</ele><time>2026-04-26T15:24:46Z</time></trkpt><trkpt lat="40.15521861960367" lon="15.740998879940744"><ele>710.3333333333334</ele><time>2026-04-26T15:24:47Z</time></trkpt><trkpt lat="40.1551010297252" lon="15.740844293441285"><ele>709.6666666666667</ele><time>2026-04-26T15:24:48Z</time></trkpt><trkpt lat="40.154965826279835" lon="15.740713865608205"><ele>709.0</ele><time>2026-04-26T15:24:49Z</time></trkpt><trkpt lat="40.15483046467633" lon="15.740588246773632"><ele>709.0</ele><time>2026-04-26T15:24:50Z</time></trkpt><trkpt lat="40.154698129757456" lon="15.740461798860334"><ele>709.0</ele><time>2026-04-26T15:24:51Z</time></trkpt><trkpt lat="40.15456657010712" lon="15.740329232319795"><ele>709.0</ele><time>2026-04-26T15:24:52Z</time></trkpt><trkpt lat="40.154435907863295" lon="15.74019604578901"><ele>705.6666666666667</ele><time>2026-04-26T15:24:53Z</time></trkpt><trkpt lat="40.15430876249052" lon="15.74006442312082"><ele>702.3333333333334</ele><time>2026-04-26T15:24:54Z</time></trkpt><trkpt lat="40.15418493917972" lon="15.73993584882958"><ele>699.0</ele><time>2026-04-26T15:24:55Z</time></trkpt><trkpt lat="40.15405377907164" lon="15.739821841160408"><ele>700.6666666666666</ele><time>2026-04-26T15:24:56Z</time></trkpt><trkpt lat="40.15391391008396" lon="15.739723924920629"><ele>702.3333333333333</ele><time>2026-04-26T15:24:57Z</time></trkpt><trkpt lat="40.15376368524483" lon="15.739639236486916"><ele>704.0</ele><time>2026-04-26T15:24:58Z</time></trkpt><trkpt lat="40.15360934533188" lon="15.73957171784851"><ele>704.0</ele><time>2026-04-26T15:24:59Z</time></trkpt><trkpt lat="40.15345131455611" lon="15.739512261775074"><ele>704.0</ele><time>2026-04-26T15:25:00Z</time></trkpt><trkpt lat="40.153289229152605" lon="15.73946199172366"><ele>704.0</ele><time>2026-04-26T15:25:01Z</time></trkpt><trkpt lat="40.153121772953625" lon="15.739426251910041"><ele>700.6666666666666</ele><time>2026-04-26T15:25:02Z</time></trkpt><trkpt lat="40.1529509051897" lon="15.739413402173126"><ele>697.3333333333334</ele><time>2026-04-26T15:25:03Z</time></trkpt><trkpt lat="40.15278098635446" lon="15.739414283021043"><ele>694.0</ele><time>2026-04-26T15:25:04Z</time></trkpt><trkpt lat="40.15260756661953" lon="15.739442888011476"><ele>694.0</ele><time>2026-04-26T15:25:05Z</time></trkpt><trkpt lat="40.15243355435758" lon="15.739482188104118"><ele>694.0</ele><time>2026-04-26T15:25:06Z</time></trkpt><trkpt lat="40.15226411903088" lon="15.73953750177802"><ele>694.0</ele><time>2026-04-26T15:25:07Z</time></trkpt><trkpt lat="40.15209423030388" lon="15.739592200720914"><ele>690.3333333333334</ele><time>2026-04-26T15:25:08Z</time></trkpt><trkpt lat="40.15192699418651" lon="15.739644853119541"><ele>686.6666666666666</ele><time>2026-04-26T15:25:09Z</time></trkpt><trkpt lat="40.15176304925502" lon="15.73969023856636"><ele>683.0</ele><time>2026-04-26T15:25:10Z</time></trkpt><trkpt lat="40.15160139314932" lon="15.73972455572668"><ele>679.0</ele><time>2026-04-26T15:25:11Z</time></trkpt><trkpt lat="40.151439284478535" lon="15.739744274150203"><ele>675.0</ele><time>2026-04-26T15:25:12Z</time></trkpt><trkpt lat="40.15127406634716" lon="15.7397477961684"><ele>671.0</ele><time>2026-04-26T15:25:13Z</time></trkpt><trkpt lat="40.15111161751115" lon="15.739735158700894"><ele>671.0</ele><time>2026-04-26T15:25:14Z</time></trkpt><trkpt lat="40.15094832357005" lon="15.739711021467643"><ele>671.0</ele><time>2026-04-26T15:25:15Z</time></trkpt><trkpt lat="40.15078728882168" lon="15.739671767947746"><ele>671.0</ele><time>2026-04-26T15:25:16Z</time></trkpt><trkpt lat="40.15062692418815" lon="15.739627578343674"><ele>667.6666666666666</ele><time>2026-04-26T15:25:17Z</time></trkpt><trkpt lat="40.15046587760382" lon="15.739586396068717"><ele>664.3333333333334</ele><time>2026-04-26T15:25:18Z</time></trkpt><trkpt lat="40.15029528462888" lon="15.739547068257233"><ele>661.0</ele><time>2026-04-26T15:25:19Z</time></trkpt><trkpt lat="40.15011867280114" lon="15.739501498214754"><ele>661.0</ele><time>2026-04-26T15:25:20Z</time></trkpt><trkpt lat="40.14994335374556" lon="15.739452668763557"><ele>661.0</ele><time>2026-04-26T15:25:21Z</time></trkpt><trkpt lat="40.14976863071317" lon="15.739394203643663"><ele>661.0</ele><time>2026-04-26T15:25:22Z</time></trkpt><trkpt lat="40.149599658632106" lon="15.739315786773224"><ele>653.3333333333334</ele><time>2026-04-26T15:25:23Z</time></trkpt><trkpt lat="40.149431546973915" lon="15.739218875619992"><ele>645.6666666666666</ele><time>2026-04-26T15:25:24Z</time></trkpt><trkpt lat="40.1492678016182" lon="15.739115490470619"><ele>638.0</ele><time>2026-04-26T15:25:25Z</time></trkpt><trkpt lat="40.149097560122506" lon="15.739003802423106"><ele>634.3333333333333</ele><time>2026-04-26T15:25:26Z</time></trkpt><trkpt lat="40.148931814888684" lon="15.7389063726213"><ele>630.6666666666666</ele><time>2026-04-26T15:25:27Z</time></trkpt><trkpt lat="40.14876459969095" lon="15.738791239878681"><ele>627.0</ele><time>2026-04-26T15:25:28Z</time></trkpt><trkpt lat="40.148589970739586" lon="15.738684288929743"><ele>627.0</ele><time>2026-04-26T15:25:29Z</time></trkpt><trkpt lat="40.148433703966504" lon="15.738568154113876"><ele>627.0</ele><time>2026-04-26T15:25:30Z</time></trkpt><trkpt lat="40.14825001854599" lon="15.738451071866473"><ele>627.0</ele><time>2026-04-26T15:25:31Z</time></trkpt><trkpt lat="40.148076252578655" lon="15.738338545634614"><ele>620.6666666666666</ele><time>2026-04-26T15:25:32Z</time></trkpt><trkpt lat="40.14789956382335" lon="15.738222060526493"><ele>614.3333333333333</ele><time>2026-04-26T15:25:33Z</time></trkpt><trkpt lat="40.14772370449255" lon="15.738106571048997"><ele>608.0</ele><time>2026-04-26T15:25:34Z</time></trkpt><trkpt lat="40.14754809609725" lon="15.737991329834674"><ele>606.3333333333333</ele><time>2026-04-26T15:25:35Z</time></trkpt><trkpt lat="40.14736865572962" lon="15.737874362356925"><ele>604.6666666666666</ele><time>2026-04-26T15:25:36Z</time></trkpt><trkpt lat="40.147190512130926" lon="15.737756506210488"><ele>603.0</ele><time>2026-04-26T15:25:37Z</time></trkpt><trkpt lat="40.14701188320015" lon="15.73763334205563"><ele>603.6666666666666</ele><time>2026-04-26T15:25:38Z</time></trkpt><trkpt lat="40.14683098563487" lon="15.737511133181965"><ele>604.3333333333333</ele><time>2026-04-26T15:25:39Z</time></trkpt><trkpt lat="40.146651529654484" lon="15.737396709807447"><ele>605.0</ele><time>2026-04-26T15:25:40Z</time></trkpt><trkpt lat="40.14647722250882" lon="15.737282387892696"><ele>605.0</ele><time>2026-04-26T15:25:41Z</time></trkpt><trkpt lat="40.14631140014066" lon="15.737173506529308"><ele>605.0</ele><time>2026-04-26T15:25:42Z</time></trkpt><trkpt lat="40.1461471001439" lon="15.737063559305478"><ele>605.0</ele><time>2026-04-26T15:25:43Z</time></trkpt><trkpt lat="40.14598861974365" lon="15.736946148103577"><ele>609.3333333333333</ele><time>2026-04-26T15:25:44Z</time></trkpt><trkpt lat="40.14582770792735" lon="15.736810378449045"><ele>613.6666666666666</ele><time>2026-04-26T15:25:45Z</time></trkpt><trkpt lat="40.1456697495536" lon="15.73665788424116"><ele>618.0</ele><time>2026-04-26T15:25:46Z</time></trkpt><trkpt lat="40.145505314246975" lon="15.736513875262727"><ele>618.0</ele><time>2026-04-26T15:25:47Z</time></trkpt><trkpt lat="40.145364353131875" lon="15.736344825639437"><ele>618.0</ele><time>2026-04-26T15:25:48Z</time></trkpt><trkpt lat="40.145214946626744" lon="15.7361879247809"><ele>618.0</ele><time>2026-04-26T15:25:49Z</time></trkpt><trkpt lat="40.14506767714605" lon="15.736032834234987"><ele>617.6666666666666</ele><time>2026-04-26T15:25:50Z</time></trkpt><trkpt lat="40.14491973813943" lon="15.735884227945276"><ele>617.3333333333333</ele><time>2026-04-26T15:25:51Z</time></trkpt><trkpt lat="40.14477061167092" lon="15.735738124279168"><ele>617.0</ele><time>2026-04-26T15:25:52Z</time></trkpt><trkpt lat="40.144625300079255" lon="15.735586546225859"><ele>617.0</ele><time>2026-04-26T15:25:53Z</time></trkpt><trkpt lat="40.14448146866613" lon="15.735438268566956"><ele>617.0</ele><time>2026-04-26T15:25:54Z</time></trkpt><trkpt lat="40.14432890004694" lon="15.735297259361756"><ele>617.0</ele><time>2026-04-26T15:25:55Z</time></trkpt><trkpt lat="40.14417475326421" lon="15.73516980000731"><ele>616.0</ele><time>2026-04-26T15:25:56Z</time></trkpt><trkpt lat="40.14401639690656" lon="15.73504891735447"><ele>615.0</ele><time>2026-04-26T15:25:57Z</time></trkpt><trkpt lat="40.1438554802373" lon="15.734948155797488"><ele>614.0</ele><time>2026-04-26T15:25:58Z</time></trkpt><trkpt lat="40.143682196684544" lon="15.734873307242477"><ele>614.0</ele><time>2026-04-26T15:25:59Z</time></trkpt><trkpt lat="40.14351175335355" lon="15.734801385967213"><ele>614.0</ele><time>2026-04-26T15:26:00Z</time></trkpt><trkpt lat="40.1433405921192" lon="15.734744578561408"><ele>614.0</ele><time>2026-04-26T15:26:01Z</time></trkpt><trkpt lat="40.143157592384846" lon="15.734708063458164"><ele>611.3333333333333</ele><time>2026-04-26T15:26:02Z</time></trkpt><trkpt lat="40.142994645628136" lon="15.734696377885504"><ele>608.6666666666666</ele><time>2026-04-26T15:26:03Z</time></trkpt><trkpt lat="40.14281430271822" lon="15.734669340321306"><ele>606.0</ele><time>2026-04-26T15:26:04Z</time></trkpt><trkpt lat="40.14264041634883" lon="15.734671698483856"><ele>606.0</ele><time>2026-04-26T15:26:05Z</time></trkpt><trkpt lat="40.14246749596557" lon="15.734701764931389"><ele>606.0</ele><time>2026-04-26T15:26:05.999Z</time></trkpt><trkpt lat="40.14229803899048" lon="15.734739627429478"><ele>606.0</ele><time>2026-04-26T15:26:06.999Z</time></trkpt><trkpt lat="40.14214565530221" lon="15.734786358801275"><ele>604.6666666666666</ele><time>2026-04-26T15:26:07.999Z</time></trkpt><trkpt lat="40.142011889239654" lon="15.734828277635375"><ele>603.3333333333333</ele><time>2026-04-26T15:26:08.999Z</time></trkpt><trkpt lat="40.14177765102419" lon="15.73491066578378"><ele>602.0</ele><time>2026-04-26T15:26:10.999Z</time></trkpt><trkpt lat="40.141674299877565" lon="15.734946489123043"><ele>602.0</ele><time>2026-04-26T15:26:11.999Z</time></trkpt><trkpt lat="40.14158662502428" lon="15.734971876281984"><ele>602.0</ele><time>2026-04-26T15:26:12.999Z</time></trkpt><trkpt lat="40.14150583314092" lon="15.73499282406298"><ele>602.0</ele><time>2026-04-26T15:26:13.999Z</time></trkpt><trkpt lat="40.14143973828137" lon="15.735014992522201"><ele>602.0</ele><time>2026-04-26T15:26:14.999Z</time></trkpt><trkpt lat="40.141338873228925" lon="15.735051143593306"><ele>602.0</ele><time>2026-04-26T15:26:16.999Z</time></trkpt><trkpt lat="40.14125517193231" lon="15.735087939361865"><ele>602.0</ele><time>2026-04-26T15:26:19.999Z</time></trkpt><trkpt lat="40.14116139566143" lon="15.735111192349326"><ele>601.4</ele><time>2026-04-26T15:26:22.999Z</time></trkpt><trkpt lat="40.14105125829806" lon="15.735146933261555"><ele>600.8000000000001</ele><time>2026-04-26T15:26:25Z</time></trkpt><trkpt lat="40.14097839098039" lon="15.735170579620316"><ele>600.2</ele><time>2026-04-26T15:26:26Z</time></trkpt><trkpt lat="40.14090138510931" lon="15.735195568986116"><ele>599.6</ele><time>2026-04-26T15:26:27Z</time></trkpt><trkpt lat="40.14081251064218" lon="15.73522440985863"><ele>599.0</ele><time>2026-04-26T15:26:28Z</time></trkpt><trkpt lat="40.14071718957398" lon="15.735255186554893"><ele>597.4</ele><time>2026-04-26T15:26:29Z</time></trkpt><trkpt lat="40.14062366040245" lon="15.735285305718902"><ele>595.8</ele><time>2026-04-26T15:26:30Z</time></trkpt><trkpt lat="40.1405323251128" lon="15.735334153063183"><ele>594.2</ele><time>2026-04-26T15:26:31Z</time></trkpt><trkpt lat="40.14043422334388" lon="15.73535838564844"><ele>592.6</ele><time>2026-04-26T15:26:32Z</time></trkpt><trkpt lat="40.140337855330685" lon="15.735384172368782"><ele>591.0</ele><time>2026-04-26T15:26:33Z</time></trkpt><trkpt lat="40.14023951857358" lon="15.735408551193789"><ele>591.0</ele><time>2026-04-26T15:26:34Z</time></trkpt><trkpt lat="40.1401409801186" lon="15.735433318148957"><ele>591.0</ele><time>2026-04-26T15:26:35Z</time></trkpt><trkpt lat="40.1400455854157" lon="15.73546253316332"><ele>591.0</ele><time>2026-04-26T15:26:36Z</time></trkpt><trkpt lat="40.139947009519204" lon="15.73548839422532"><ele>591.0</ele><time>2026-04-26T15:26:37Z</time></trkpt><trkpt lat="40.13984391871419" lon="15.735514623927017"><ele>591.0</ele><time>2026-04-26T15:26:38Z</time></trkpt><trkpt lat="40.139736855331826" lon="15.735542387563575"><ele>589.5</ele><time>2026-04-26T15:26:39Z</time></trkpt><trkpt lat="40.13962113457171" lon="15.735571926122983"><ele>588.0</ele><time>2026-04-26T15:26:40Z</time></trkpt><trkpt lat="40.139495037785025" lon="15.735603847636098"><ele>586.5</ele><time>2026-04-26T15:26:41Z</time></trkpt><trkpt lat="40.13936112592857" lon="15.73563960421965"><ele>585.0</ele><time>2026-04-26T15:26:42Z</time></trkpt><trkpt lat="40.139225754653" lon="15.735675402494886"><ele>585.0</ele><time>2026-04-26T15:26:43Z</time></trkpt><trkpt lat="40.13908283155399" lon="15.735713164972825"><ele>585.0</ele><time>2026-04-26T15:26:44Z</time></trkpt><trkpt lat="40.13893886935568" lon="15.73574979870767"><ele>585.0</ele><time>2026-04-26T15:26:45Z</time></trkpt><trkpt lat="40.13879103436445" lon="15.73578793890355"><ele>585.0</ele><time>2026-04-26T15:26:46Z</time></trkpt><trkpt lat="40.13864081581701" lon="15.73583099322068"><ele>593.25</ele><time>2026-04-26T15:26:47Z</time></trkpt><trkpt lat="40.13849269434746" lon="15.735870224754574"><ele>601.5</ele><time>2026-04-26T15:26:48Z</time></trkpt><trkpt lat="40.13834530518352" lon="15.73590857594217"><ele>609.75</ele><time>2026-04-26T15:26:49Z</time></trkpt><trkpt lat="40.138203200528025" lon="15.735946034714827"><ele>618.0</ele><time>2026-04-26T15:26:50Z</time></trkpt><trkpt lat="40.13806804014452" lon="15.735981634665189"><ele>615.25</ele><time>2026-04-26T15:26:51Z</time></trkpt><trkpt lat="40.1379431966608" lon="15.736022817586203"><ele>612.5</ele><time>2026-04-26T15:26:52Z</time></trkpt><trkpt lat="40.13781905207687" lon="15.73607059722809"><ele>609.75</ele><time>2026-04-26T15:26:53Z</time></trkpt><trkpt lat="40.13769827328456" lon="15.736117816671968"><ele>607.0</ele><time>2026-04-26T15:26:54Z</time></trkpt><trkpt lat="40.137576735246014" lon="15.736172943538156"><ele>607.0</ele><time>2026-04-26T15:26:55Z</time></trkpt><trkpt lat="40.13745385546381" lon="15.736226771898972"><ele>607.0</ele><time>2026-04-26T15:26:56Z</time></trkpt><trkpt lat="40.13732771400372" lon="15.73627788116531"><ele>607.0</ele><time>2026-04-26T15:26:57Z</time></trkpt><trkpt lat="40.13720038304523" lon="15.736321798846149"><ele>607.0</ele><time>2026-04-26T15:26:58Z</time></trkpt><trkpt lat="40.13706832863596" lon="15.736356718009956"><ele>609.75</ele><time>2026-04-26T15:26:59Z</time></trkpt><trkpt lat="40.13693097970468" lon="15.736385134808284"><ele>612.5</ele><time>2026-04-26T15:27:00Z</time></trkpt><trkpt lat="40.13678478708964" lon="15.736398126782008"><ele>615.25</ele><time>2026-04-26T15:27:01Z</time></trkpt><trkpt lat="40.13663935980759" lon="15.736409530965489"><ele>618.0</ele><time>2026-04-26T15:27:02Z</time></trkpt><trkpt lat="40.13649133098852" lon="15.736427362344884"><ele>620.25</ele><time>2026-04-26T15:27:03Z</time></trkpt><trkpt lat="40.136348469909834" lon="15.736447497580237"><ele>622.5</ele><time>2026-04-26T15:27:04Z</time></trkpt><trkpt lat="40.13621069178405" lon="15.736476751495386"><ele>624.75</ele><time>2026-04-26T15:27:05Z</time></trkpt><trkpt lat="40.13607466179807" lon="15.736525323075497"><ele>627.0</ele><time>2026-04-26T15:27:06Z</time></trkpt><trkpt lat="40.13594487300894" lon="15.736584647124912"><ele>627.0</ele><time>2026-04-26T15:27:07Z</time></trkpt><trkpt lat="40.13581476949273" lon="15.736645939230444"><ele>627.0</ele><time>2026-04-26T15:27:08Z</time></trkpt><trkpt lat="40.13568746732429" lon="15.736714916885724"><ele>627.0</ele><time>2026-04-26T15:27:09Z</time></trkpt><trkpt lat="40.13556278957325" lon="15.736796345373119"><ele>627.0</ele><time>2026-04-26T15:27:10Z</time></trkpt><trkpt lat="40.13543842538951" lon="15.736879350832618"><ele>624.0</ele><time>2026-04-26T15:27:11Z</time></trkpt><trkpt lat="40.13531241522772" lon="15.736958059790778"><ele>621.0</ele><time>2026-04-26T15:27:12Z</time></trkpt><trkpt lat="40.1351829211972" lon="15.737030809123226"><ele>618.0</ele><time>2026-04-26T15:27:13Z</time></trkpt><trkpt lat="40.13504907923198" lon="15.737092762626128"><ele>615.0</ele><time>2026-04-26T15:27:14Z</time></trkpt><trkpt lat="40.13490749678243" lon="15.7371564355807"><ele>616.6666666666666</ele><time>2026-04-26T15:27:15Z</time></trkpt><trkpt lat="40.13476491937741" lon="15.737208810159427"><ele>618.3333333333333</ele><time>2026-04-26T15:27:16Z</time></trkpt><trkpt lat="40.13461611082461" lon="15.737253019341889"><ele>620.0</ele><time>2026-04-26T15:27:17Z</time></trkpt><trkpt lat="40.134462435284114" lon="15.73728622447244"><ele>620.0</ele><time>2026-04-26T15:27:18Z</time></trkpt><trkpt lat="40.13430067220627" lon="15.737314201942423"><ele>620.0</ele><time>2026-04-26T15:27:19Z</time></trkpt><trkpt lat="40.13414117840645" lon="15.737326542940636"><ele>620.0</ele><time>2026-04-26T15:27:20Z</time></trkpt><trkpt lat="40.13397525029323" lon="15.737327019034083"><ele>619.6666666666666</ele><time>2026-04-26T15:27:21Z</time></trkpt><trkpt lat="40.13380675195388" lon="15.737325994552737"><ele>619.3333333333334</ele><time>2026-04-26T15:27:22Z</time></trkpt><trkpt lat="40.133637937436134" lon="15.737318058330796"><ele>619.0</ele><time>2026-04-26T15:27:23Z</time></trkpt><trkpt lat="40.13347389940269" lon="15.737309092046035"><ele>619.0</ele><time>2026-04-26T15:27:24Z</time></trkpt><trkpt lat="40.13330954141306" lon="15.737310061314972"><ele>619.0</ele><time>2026-04-26T15:27:25Z</time></trkpt><trkpt lat="40.13314681182632" lon="15.737328722624662"><ele>619.0</ele><time>2026-04-26T15:27:26Z</time></trkpt><trkpt lat="40.13299034141409" lon="15.737353159216113"><ele>610.0</ele><time>2026-04-26T15:27:27Z</time></trkpt><trkpt lat="40.13283200390589" lon="15.737388752726439"><ele>601.0</ele><time>2026-04-26T15:27:28Z</time></trkpt><trkpt lat="40.13267421272496" lon="15.73743133606133"><ele>592.0</ele><time>2026-04-26T15:27:29Z</time></trkpt><trkpt lat="40.13251759231931" lon="15.737486401037609"><ele>594.3333333333334</ele><time>2026-04-26T15:27:30Z</time></trkpt><trkpt lat="40.132363564116694" lon="15.737548336310281"><ele>596.6666666666666</ele><time>2026-04-26T15:27:31Z</time></trkpt><trkpt lat="40.132208118289405" lon="15.737631872803092"><ele>599.0</ele><time>2026-04-26T15:27:32Z</time></trkpt><trkpt lat="40.13205102156559" lon="15.737730695136243"><ele>600.3333333333333</ele><time>2026-04-26T15:27:33Z</time></trkpt><trkpt lat="40.13190073960399" lon="15.73784345007957"><ele>601.6666666666666</ele><time>2026-04-26T15:27:34Z</time></trkpt><trkpt lat="40.13175340139404" lon="15.737980584485205"><ele>603.0</ele><time>2026-04-26T15:27:35Z</time></trkpt><trkpt lat="40.13161011531878" lon="15.738120786470768"><ele>612.3333333333334</ele><time>2026-04-26T15:27:36Z</time></trkpt><trkpt lat="40.13146979164615" lon="15.738280364842144"><ele>621.6666666666667</ele><time>2026-04-26T15:27:37Z</time></trkpt><trkpt lat="40.13133949794991" lon="15.738452980605633"><ele>631.0</ele><time>2026-04-26T15:27:38Z</time></trkpt><trkpt lat="40.13121372331334" lon="15.738640649293147"><ele>631.0</ele><time>2026-04-26T15:27:39Z</time></trkpt><trkpt lat="40.1310972038874" lon="15.73883699754327"><ele>631.0</ele><time>2026-04-26T15:27:40Z</time></trkpt><trkpt lat="40.13098458460739" lon="15.739042233087586"><ele>631.0</ele><time>2026-04-26T15:27:41Z</time></trkpt><trkpt lat="40.13087535211202" lon="15.739253023285848"><ele>634.3333333333334</ele><time>2026-04-26T15:27:42Z</time></trkpt><trkpt lat="40.13075563020323" lon="15.739463550929663"><ele>637.6666666666666</ele><time>2026-04-26T15:27:43Z</time></trkpt><trkpt lat="40.130627357578135" lon="15.739668339717936"><ele>641.0</ele><time>2026-04-26T15:27:44Z</time></trkpt><trkpt lat="40.130493074280096" lon="15.739869229478108"><ele>641.0</ele><time>2026-04-26T15:27:45Z</time></trkpt><trkpt lat="40.130350370729225" lon="15.74006151540491"><ele>641.0</ele><time>2026-04-26T15:27:45.999Z</time></trkpt><trkpt lat="40.130175193999484" lon="15.740197593589993"><ele>641.0</ele><time>2026-04-26T15:27:46.999Z</time></trkpt><trkpt lat="40.12999706801087" lon="15.740324448676201"><ele>638.0</ele><time>2026-04-26T15:27:47.999Z</time></trkpt><trkpt lat="40.12981548666506" lon="15.740449748139978"><ele>635.0</ele><time>2026-04-26T15:27:48.999Z</time></trkpt><trkpt lat="40.12962867689524" lon="15.74054474850704"><ele>632.0</ele><time>2026-04-26T15:27:49.999Z</time></trkpt><trkpt lat="40.12944238120613" lon="15.740651876942119"><ele>632.0</ele><time>2026-04-26T15:27:50.999Z</time></trkpt><trkpt lat="40.12926947228527" lon="15.740748237625567"><ele>632.0</ele><time>2026-04-26T15:27:51.999Z</time></trkpt><trkpt lat="40.1291142624481" lon="15.740855354169618"><ele>632.0</ele><time>2026-04-26T15:27:52.999Z</time></trkpt><trkpt lat="40.12896967174169" lon="15.741003170309906"><ele>639.0</ele><time>2026-04-26T15:27:53.999Z</time></trkpt><trkpt lat="40.12883274873212" lon="15.741170179443106"><ele>646.0</ele><time>2026-04-26T15:27:54.999Z</time></trkpt><trkpt lat="40.128716422241006" lon="15.741360588627309"><ele>653.0</ele><time>2026-04-26T15:27:55.999Z</time></trkpt><trkpt lat="40.12860256110785" lon="15.741549093738888"><ele>653.0</ele><time>2026-04-26T15:27:56.999Z</time></trkpt><trkpt lat="40.12848200602982" lon="15.741747200666214"><ele>653.0</ele><time>2026-04-26T15:27:57.999Z</time></trkpt><trkpt lat="40.12834626481117" lon="15.741940727467767"><ele>653.0</ele><time>2026-04-26T15:27:58.999Z</time></trkpt><trkpt lat="40.128243216116466" lon="15.742116954776472"><ele>652.3333333333333</ele><time>2026-04-26T15:27:59.999Z</time></trkpt><trkpt lat="40.12812001272217" lon="15.742276176259915"><ele>651.6666666666666</ele><time>2026-04-26T15:28:00.999Z</time></trkpt><trkpt lat="40.12797663551022" lon="15.742415270916739"><ele>651.0</ele><time>2026-04-26T15:28:01.999Z</time></trkpt><trkpt lat="40.12782396913445" lon="15.742530906297159"><ele>651.0</ele><time>2026-04-26T15:28:02.999Z</time></trkpt><trkpt lat="40.12767216321009" lon="15.742632808621885"><ele>651.0</ele><time>2026-04-26T15:28:03.999Z</time></trkpt><trkpt lat="40.12751390613049" lon="15.742710638063235"><ele>651.0</ele><time>2026-04-26T15:28:04.999Z</time></trkpt><trkpt lat="40.1273517000889" lon="15.742772928880633"><ele>644.6666666666666</ele><time>2026-04-26T15:28:05.999Z</time></trkpt><trkpt lat="40.12718944807021" lon="15.742838637609612"><ele>638.3333333333333</ele><time>2026-04-26T15:28:06.999Z</time></trkpt><trkpt lat="40.12704087534278" lon="15.74291557178931"><ele>632.0</ele><time>2026-04-26T15:28:07.999Z</time></trkpt><trkpt lat="40.12690191790352" lon="15.743011504783393"><ele>632.0</ele><time>2026-04-26T15:28:08.999Z</time></trkpt><trkpt lat="40.12676813034387" lon="15.743119090508928"><ele>632.0</ele><time>2026-04-26T15:28:09.999Z</time></trkpt><trkpt lat="40.12664460341853" lon="15.743237156801847"><ele>632.0</ele><time>2026-04-26T15:28:10.999Z</time></trkpt><trkpt lat="40.12652370569383" lon="15.743361613274626"><ele>642.6666666666666</ele><time>2026-04-26T15:28:11.999Z</time></trkpt><trkpt lat="40.1264112331775" lon="15.743497932542788"><ele>653.3333333333334</ele><time>2026-04-26T15:28:12.999Z</time></trkpt><trkpt lat="40.12630222597103" lon="15.743644655118715"><ele>664.0</ele><time>2026-04-26T15:28:13.999Z</time></trkpt><trkpt lat="40.12619688449777" lon="15.743801766905172"><ele>664.0</ele><time>2026-04-26T15:28:14.999Z</time></trkpt><trkpt lat="40.126094979529775" lon="15.743968645639443"><ele>664.0</ele><time>2026-04-26T15:28:15.999Z</time></trkpt><trkpt lat="40.12601167701066" lon="15.744151168378961"><ele>664.0</ele><time>2026-04-26T15:28:16.999Z</time></trkpt><trkpt lat="40.12592754883183" lon="15.744338755316289"><ele>669.3333333333334</ele><time>2026-04-26T15:28:17.999Z</time></trkpt><trkpt lat="40.12585087368494" lon="15.744533305939095"><ele>674.6666666666666</ele><time>2026-04-26T15:28:18.999Z</time></trkpt><trkpt lat="40.12577593765968" lon="15.744732711149664"><ele>680.0</ele><time>2026-04-26T15:28:19.999Z</time></trkpt><trkpt lat="40.125699522685515" lon="15.74493138319677"><ele>680.0</ele><time>2026-04-26T15:28:20.999Z</time></trkpt><trkpt lat="40.12561438846689" lon="15.745121451712928"><ele>680.0</ele><time>2026-04-26T15:28:21.999Z</time></trkpt><trkpt lat="40.12551849054048" lon="15.74530653520961"><ele>680.0</ele><time>2026-04-26T15:28:22.999Z</time></trkpt><trkpt lat="40.12542612970731" lon="15.745485041110975"><ele>667.0</ele><time>2026-04-26T15:28:23.999Z</time></trkpt><trkpt lat="40.12532507225261" lon="15.74565128465613"><ele>654.0</ele><time>2026-04-26T15:28:24.999Z</time></trkpt><trkpt lat="40.125211106569544" lon="15.745798818119699"><ele>641.0</ele><time>2026-04-26T15:28:25.999Z</time></trkpt><trkpt lat="40.125082781178186" lon="15.745918201615309"><ele>641.0</ele><time>2026-04-26T15:28:26.999Z</time></trkpt><trkpt lat="40.12494789600115" lon="15.746030351603265"><ele>641.0</ele><time>2026-04-26T15:28:27.999Z</time></trkpt><trkpt lat="40.12480826274983" lon="15.746124885065203"><ele>641.0</ele><time>2026-04-26T15:28:28.999Z</time></trkpt><trkpt lat="40.1246710313138" lon="15.746216951766348"><ele>640.3333333333333</ele><time>2026-04-26T15:28:30Z</time></trkpt><trkpt lat="40.12453567044638" lon="15.746319939915594"><ele>639.6666666666666</ele><time>2026-04-26T15:28:31Z</time></trkpt><trkpt lat="40.12440978111898" lon="15.746453048182564"><ele>639.0</ele><time>2026-04-26T15:28:32Z</time></trkpt><trkpt lat="40.12428583404049" lon="15.746600613501137"><ele>639.0</ele><time>2026-04-26T15:28:33Z</time></trkpt><trkpt lat="40.1241631464218" lon="15.746753355434423"><ele>639.0</ele><time>2026-04-26T15:28:34Z</time></trkpt><trkpt lat="40.124041395265685" lon="15.746911078112651"><ele>639.0</ele><time>2026-04-26T15:28:35Z</time></trkpt><trkpt lat="40.12392231742689" lon="15.747075321824479"><ele>644.6666666666666</ele><time>2026-04-26T15:28:36Z</time></trkpt><trkpt lat="40.12380113349333" lon="15.747237883020153"><ele>650.3333333333333</ele><time>2026-04-26T15:28:37Z</time></trkpt><trkpt lat="40.123675171289584" lon="15.747394586357988"><ele>656.0</ele><time>2026-04-26T15:28:38Z</time></trkpt><trkpt lat="40.12354221387714" lon="15.7475367403039"><ele>656.0</ele><time>2026-04-26T15:28:39Z</time></trkpt><trkpt lat="40.12339284755899" lon="15.7476530674726"><ele>656.0</ele><time>2026-04-26T15:28:40Z</time></trkpt><trkpt lat="40.12323396000429" lon="15.747751986570844"><ele>656.0</ele><time>2026-04-26T15:28:41Z</time></trkpt><trkpt lat="40.123083139282045" lon="15.747845801273057"><ele>658.6666666666666</ele><time>2026-04-26T15:28:42Z</time></trkpt><trkpt lat="40.12293579992738" lon="15.747950987734292"><ele>661.3333333333334</ele><time>2026-04-26T15:28:43Z</time></trkpt><trkpt lat="40.122794307450725" lon="15.748076338879539"><ele>664.0</ele><time>2026-04-26T15:28:44Z</time></trkpt><trkpt lat="40.122664654342586" lon="15.748211103047796"><ele>664.0</ele><time>2026-04-26T15:28:45Z</time></trkpt><trkpt lat="40.122544892020514" lon="15.748359978516092"><ele>664.0</ele><time>2026-04-26T15:28:46Z</time></trkpt><trkpt lat="40.12242380449926" lon="15.748518061326847"><ele>664.0</ele><time>2026-04-26T15:28:47Z</time></trkpt><trkpt lat="40.122317636290454" lon="15.748686771613388"><ele>667.3333333333334</ele><time>2026-04-26T15:28:48Z</time></trkpt><trkpt lat="40.12221838964943" lon="15.748857722932671"><ele>670.6666666666666</ele><time>2026-04-26T15:28:49Z</time></trkpt><trkpt lat="40.1221266084537" lon="15.749030293893368"><ele>674.0</ele><time>2026-04-26T15:28:50Z</time></trkpt><trkpt lat="40.12203919229234" lon="15.749204142769964"><ele>674.0</ele><time>2026-04-26T15:28:51Z</time></trkpt><trkpt lat="40.12195175490735" lon="15.749367966526057"><ele>674.0</ele><time>2026-04-26T15:28:52Z</time></trkpt><trkpt lat="40.121866716530356" lon="15.749523168341737"><ele>674.0</ele><time>2026-04-26T15:28:53Z</time></trkpt><trkpt lat="40.1217803045175" lon="15.74966766774778"><ele>674.0</ele><time>2026-04-26T15:28:54Z</time></trkpt><trkpt lat="40.121697471162896" lon="15.74979763723551"><ele>670.5</ele><time>2026-04-26T15:28:55Z</time></trkpt><trkpt lat="40.12160678284387" lon="15.749919775468312"><ele>667.0</ele><time>2026-04-26T15:28:56Z</time></trkpt><trkpt lat="40.12150830417323" lon="15.750030879313838"><ele>663.5</ele><time>2026-04-26T15:28:57Z</time></trkpt><trkpt lat="40.12140190945396" lon="15.75013712567419"><ele>660.0</ele><time>2026-04-26T15:28:58Z</time></trkpt><trkpt lat="40.12129031254798" lon="15.7502382546157"><ele>652.0</ele><time>2026-04-26T15:28:59Z</time></trkpt><trkpt lat="40.121168805305196" lon="15.750333003244608"><ele>644.0</ele><time>2026-04-26T15:29:00Z</time></trkpt><trkpt lat="40.12104663309627" lon="15.7504265764735"><ele>636.0</ele><time>2026-04-26T15:29:01Z</time></trkpt><trkpt lat="40.120915200473796" lon="15.750516709785288"><ele>628.0</ele><time>2026-04-26T15:29:02Z</time></trkpt><trkpt lat="40.120774784527995" lon="15.750601395418046"><ele>632.0</ele><time>2026-04-26T15:29:03Z</time></trkpt><trkpt lat="40.1206312032854" lon="15.750678296017707"><ele>636.0</ele><time>2026-04-26T15:29:04Z</time></trkpt><trkpt lat="40.12048226851316" lon="15.75074979519684"><ele>640.0</ele><time>2026-04-26T15:29:05Z</time></trkpt><trkpt lat="40.120327202297695" lon="15.750815079268765"><ele>640.0</ele><time>2026-04-26T15:29:06Z</time></trkpt><trkpt lat="40.12016936121175" lon="15.750879151474868"><ele>640.0</ele><time>2026-04-26T15:29:07Z</time></trkpt><trkpt lat="40.120008104128146" lon="15.75094217264158"><ele>640.0</ele><time>2026-04-26T15:29:08Z</time></trkpt><trkpt lat="40.11984530027459" lon="15.751005537501996"><ele>632.6666666666667</ele><time>2026-04-26T15:29:09Z</time></trkpt><trkpt lat="40.11968778137779" lon="15.751064046685094"><ele>625.3333333333334</ele><time>2026-04-26T15:29:10Z</time></trkpt><trkpt lat="40.11953104944424" lon="15.751118266395633"><ele>618.0</ele><time>2026-04-26T15:29:11Z</time></trkpt><trkpt lat="40.11937323911148" lon="15.75116075805956"><ele>618.0</ele><time>2026-04-26T15:29:12Z</time></trkpt><trkpt lat="40.1192135332337" lon="15.751193732124742"><ele>618.0</ele><time>2026-04-26T15:29:13Z</time></trkpt><trkpt lat="40.11905488651141" lon="15.75121462170048"><ele>618.0</ele><time>2026-04-26T15:29:14Z</time></trkpt><trkpt lat="40.118893391475524" lon="15.751216193172175"><ele>615.0</ele><time>2026-04-26T15:29:15Z</time></trkpt><trkpt lat="40.11873279006405" lon="15.751207929800424"><ele>612.0</ele><time>2026-04-26T15:29:16Z</time></trkpt><trkpt lat="40.11857162696041" lon="15.751186444396593"><ele>609.0</ele><time>2026-04-26T15:29:17Z</time></trkpt><trkpt lat="40.11840750048715" lon="15.751151612719072"><ele>609.0</ele><time>2026-04-26T15:29:18Z</time></trkpt><trkpt lat="40.11824207887452" lon="15.75110223033779"><ele>609.0</ele><time>2026-04-26T15:29:19Z</time></trkpt><trkpt lat="40.11807973538771" lon="15.751039714907778"><ele>609.0</ele><time>2026-04-26T15:29:20Z</time></trkpt><trkpt lat="40.11791757068493" lon="15.750967081482568"><ele>611.0</ele><time>2026-04-26T15:29:21Z</time></trkpt><trkpt lat="40.117759910999226" lon="15.750894733523035"><ele>613.0</ele><time>2026-04-26T15:29:22Z</time></trkpt><trkpt lat="40.11760263036436" lon="15.750830008817063"><ele>615.0</ele><time>2026-04-26T15:29:23Z</time></trkpt><trkpt lat="40.11744609530403" lon="15.750776811455191"><ele>614.6666666666666</ele><time>2026-04-26T15:29:24Z</time></trkpt><trkpt lat="40.117288574049965" lon="15.750734236657328"><ele>614.3333333333333</ele><time>2026-04-26T15:29:25Z</time></trkpt><trkpt lat="40.117131510853824" lon="15.750705603925546"><ele>614.0</ele><time>2026-04-26T15:29:26Z</time></trkpt><trkpt lat="40.11697646057677" lon="15.750690263541399"><ele>614.0</ele><time>2026-04-26T15:29:27Z</time></trkpt><trkpt lat="40.11682200781789" lon="15.750688912096122"><ele>614.0</ele><time>2026-04-26T15:29:28Z</time></trkpt><trkpt lat="40.11666765740328" lon="15.750699275135911"><ele>614.0</ele><time>2026-04-26T15:29:29Z</time></trkpt><trkpt lat="40.11651397773214" lon="15.750718673851285"><ele>613.0</ele><time>2026-04-26T15:29:30Z</time></trkpt><trkpt lat="40.116357921495535" lon="15.750757931780436"><ele>612.0</ele><time>2026-04-26T15:29:31Z</time></trkpt><trkpt lat="40.11620280358606" lon="15.750812112536178"><ele>611.0</ele><time>2026-04-26T15:29:32Z</time></trkpt><trkpt lat="40.11604591965778" lon="15.750877544878714"><ele>611.0</ele><time>2026-04-26T15:29:33Z</time></trkpt><trkpt lat="40.115890534518655" lon="15.750954052887383"><ele>611.0</ele><time>2026-04-26T15:29:34Z</time></trkpt><trkpt lat="40.11573697989492" lon="15.751042898988581"><ele>611.0</ele><time>2026-04-26T15:29:35Z</time></trkpt><trkpt lat="40.11558115773298" lon="15.75113843411595"><ele>607.3333333333333</ele><time>2026-04-26T15:29:35.999Z</time></trkpt><trkpt lat="40.115426597301145" lon="15.751233713745185"><ele>603.6666666666666</ele><time>2026-04-26T15:29:36.999Z</time></trkpt><trkpt lat="40.11527191040082" lon="15.751329333353377"><ele>600.0</ele><time>2026-04-26T15:29:37.999Z</time></trkpt><trkpt lat="40.115115858985995" lon="15.75142542797465"><ele>600.0</ele><time>2026-04-26T15:29:38.999Z</time></trkpt><trkpt lat="40.11495571500204" lon="15.751519202766751"><ele>600.0</ele><time>2026-04-26T15:29:39.999Z</time></trkpt><trkpt lat="40.11478920878247" lon="15.751605457997298"><ele>600.0</ele><time>2026-04-26T15:29:40.999Z</time></trkpt><trkpt lat="40.11461831765567" lon="15.751678675381758"><ele>603.6666666666666</ele><time>2026-04-26T15:29:41.999Z</time></trkpt><trkpt lat="40.11444473639598" lon="15.751733120698002"><ele>607.3333333333333</ele><time>2026-04-26T15:29:42.999Z</time></trkpt><trkpt lat="40.11426495350214" lon="15.751755938196208"><ele>611.0</ele><time>2026-04-26T15:29:43.999Z</time></trkpt><trkpt lat="40.11408171786758" lon="15.75176627051334"><ele>605.3333333333333</ele><time>2026-04-26T15:29:44.999Z</time></trkpt><trkpt lat="40.11390359827947" lon="15.751739744690738"><ele>599.6666666666666</ele><time>2026-04-26T15:29:45.999Z</time></trkpt><trkpt lat="40.11372150264844" lon="15.751711180758814"><ele>594.0</ele><time>2026-04-26T15:29:46.999Z</time></trkpt><trkpt lat="40.11354345322448" lon="15.751639335193842"><ele>594.0</ele><time>2026-04-26T15:29:47.999Z</time></trkpt><trkpt lat="40.11337468449608" lon="15.751527814928947"><ele>594.0</ele><time>2026-04-26T15:29:48.999Z</time></trkpt><trkpt lat="40.11320428268982" lon="15.751426814664562"><ele>594.0</ele><time>2026-04-26T15:29:49.999Z</time></trkpt><trkpt lat="40.11302382234983" lon="15.751322485355674"><ele>591.3333333333334</ele><time>2026-04-26T15:29:50.999Z</time></trkpt><trkpt lat="40.11283667464631" lon="15.751204295121108"><ele>588.6666666666667</ele><time>2026-04-26T15:29:51.999Z</time></trkpt><trkpt lat="40.11264414701177" lon="15.751077491918737"><ele>586.0</ele><time>2026-04-26T15:29:52.999Z</time></trkpt><trkpt lat="40.112452615499585" lon="15.750955583219675"><ele>589.6666666666667</ele><time>2026-04-26T15:29:53.999Z</time></trkpt><trkpt lat="40.112264318503755" lon="15.750840787866219"><ele>593.3333333333334</ele><time>2026-04-26T15:29:54.999Z</time></trkpt><trkpt lat="40.11208467985195" lon="15.750726714981733"><ele>597.0</ele><time>2026-04-26T15:29:55.999Z</time></trkpt><trkpt lat="40.11192481381072" lon="15.750616264811173"><ele>597.0</ele><time>2026-04-26T15:29:56.999Z</time></trkpt><trkpt lat="40.11176595520212" lon="15.750489019220307"><ele>597.0</ele><time>2026-04-26T15:29:57.999Z</time></trkpt><trkpt lat="40.11161900988076" lon="15.750352509247145"><ele>597.0</ele><time>2026-04-26T15:29:58.999Z</time></trkpt><trkpt lat="40.11147706600138" lon="15.750202495677685"><ele>596.3333333333334</ele><time>2026-04-26T15:29:59.999Z</time></trkpt><trkpt lat="40.111347662711324" lon="15.750048977794137"><ele>595.6666666666667</ele><time>2026-04-26T15:30:00.999Z</time></trkpt><trkpt lat="40.11121721784825" lon="15.749892280060084"><ele>595.0</ele><time>2026-04-26T15:30:01.999Z</time></trkpt><trkpt lat="40.11108666087232" lon="15.749735331218384"><ele>595.0</ele><time>2026-04-26T15:30:02.999Z</time></trkpt><trkpt lat="40.110957294977574" lon="15.749585943698525"><ele>595.0</ele><time>2026-04-26T15:30:03.999Z</time></trkpt><trkpt lat="40.11082846101346" lon="15.749435345560753"><ele>595.0</ele><time>2026-04-26T15:30:04.999Z</time></trkpt><trkpt lat="40.11070141501307" lon="15.74928783222338"><ele>593.6666666666667</ele><time>2026-04-26T15:30:05.999Z</time></trkpt><trkpt lat="40.110572905285636" lon="15.749137046412194"><ele>592.3333333333334</ele><time>2026-04-26T15:30:06.999Z</time></trkpt><trkpt lat="40.11044620660385" lon="15.748986732328973"><ele>591.0</ele><time>2026-04-26T15:30:07.999Z</time></trkpt><trkpt lat="40.11031926167584" lon="15.748835220880416"><ele>591.0</ele><time>2026-04-26T15:30:08.999Z</time></trkpt><trkpt lat="40.11018992620476" lon="15.748684164428665"><ele>591.0</ele><time>2026-04-26T15:30:09.999Z</time></trkpt><trkpt lat="40.110061543355926" lon="15.74853693188577"><ele>591.0</ele><time>2026-04-26T15:30:10.999Z</time></trkpt><trkpt lat="40.10993460490658" lon="15.748388255732836"><ele>595.3333333333334</ele><time>2026-04-26T15:30:11.999Z</time></trkpt><trkpt lat="40.109811941467925" lon="15.748237562525818"><ele>599.6666666666667</ele><time>2026-04-26T15:30:12.999Z</time></trkpt><trkpt lat="40.10969514475805" lon="15.748081501210523"><ele>604.0</ele><time>2026-04-26T15:30:13.999Z</time></trkpt><trkpt lat="40.10958360390659" lon="15.747917270166752"><ele>604.0</ele><time>2026-04-26T15:30:14.999Z</time></trkpt><trkpt lat="40.109477680399706" lon="15.747747639372538"><ele>604.0</ele><time>2026-04-26T15:30:15.999Z</time></trkpt><trkpt lat="40.109372837741596" lon="15.747579596574406"><ele>604.0</ele><time>2026-04-26T15:30:16.999Z</time></trkpt><trkpt lat="40.109269399854576" lon="15.747416910813092"><ele>604.6666666666667</ele><time>2026-04-26T15:30:17.999Z</time></trkpt><trkpt lat="40.10916090018153" lon="15.747253100454312"><ele>605.3333333333334</ele><time>2026-04-26T15:30:18.999Z</time></trkpt><trkpt lat="40.1090528199195" lon="15.747088308263557"><ele>606.0</ele><time>2026-04-26T15:30:19.999Z</time></trkpt><trkpt lat="40.1089409929808" lon="15.746923595968518"><ele>607.0</ele><time>2026-04-26T15:30:20.999Z</time></trkpt><trkpt lat="40.10882310825589" lon="15.74676247012118"><ele>608.0</ele><time>2026-04-26T15:30:21.999Z</time></trkpt><trkpt lat="40.10869870618259" lon="15.746609863588015"><ele>609.0</ele><time>2026-04-26T15:30:22.999Z</time></trkpt><trkpt lat="40.10856879630095" lon="15.746464156647185"><ele>609.0</ele><time>2026-04-26T15:30:23.999Z</time></trkpt><trkpt lat="40.10843268435994" lon="15.746326574382676"><ele>609.0</ele><time>2026-04-26T15:30:24.999Z</time></trkpt><trkpt lat="40.10829637057765" lon="15.746190756214068"><ele>609.0</ele><time>2026-04-26T15:30:25.999Z</time></trkpt><trkpt lat="40.10815275409725" lon="15.74606160094291"><ele>610.3333333333334</ele><time>2026-04-26T15:30:26.999Z</time></trkpt><trkpt lat="40.10800774697144" lon="15.745939089876927"><ele>611.6666666666667</ele><time>2026-04-26T15:30:27.999Z</time></trkpt><trkpt lat="40.107862784424356" lon="15.745820628210021"><ele>613.0</ele><time>2026-04-26T15:30:28.999Z</time></trkpt><trkpt lat="40.10770866765777" lon="15.745704357645316"><ele>613.0</ele><time>2026-04-26T15:30:29.999Z</time></trkpt><trkpt lat="40.10754903508556" lon="15.745605813532551"><ele>613.0</ele><time>2026-04-26T15:30:30.999Z</time></trkpt><trkpt lat="40.10738168735901" lon="15.745521974852688"><ele>613.0</ele><time>2026-04-26T15:30:31.999Z</time></trkpt><trkpt lat="40.10720631722735" lon="15.74545823726596"><ele>609.0</ele><time>2026-04-26T15:30:32.999Z</time></trkpt><trkpt lat="40.10702746126559" lon="15.74540464399309"><ele>605.0</ele><time>2026-04-26T15:30:33.999Z</time></trkpt><trkpt lat="40.10684947101213" lon="15.745364890223644"><ele>601.0</ele><time>2026-04-26T15:30:34.999Z</time></trkpt><trkpt lat="40.10667387496558" lon="15.74534645251638"><ele>600.6666666666667</ele><time>2026-04-26T15:30:36Z</time></trkpt><trkpt lat="40.10649720573996" lon="15.745349888966947"><ele>600.3333333333334</ele><time>2026-04-26T15:30:37Z</time></trkpt><trkpt lat="40.10632141759072" lon="15.745352086483505"><ele>600.0</ele><time>2026-04-26T15:30:38Z</time></trkpt><trkpt lat="40.1061459282224" lon="15.745354979866654"><ele>600.0</ele><time>2026-04-26T15:30:39Z</time></trkpt><trkpt lat="40.10596381027587" lon="15.745356979333"><ele>600.0</ele><time>2026-04-26T15:30:40Z</time></trkpt><trkpt lat="40.105790151595734" lon="15.745333368147582"><ele>600.0</ele><time>2026-04-26T15:30:41Z</time></trkpt><trkpt lat="40.10562218098187" lon="15.745284066584356"><ele>602.3333333333334</ele><time>2026-04-26T15:30:42Z</time></trkpt><trkpt lat="40.10545633306113" lon="15.745219969771314"><ele>604.6666666666667</ele><time>2026-04-26T15:30:43Z</time></trkpt><trkpt lat="40.105294598515805" lon="15.745150488779313"><ele>607.0</ele><time>2026-04-26T15:30:44Z</time></trkpt><trkpt lat="40.10513804546611" lon="15.745068916470489"><ele>605.3333333333334</ele><time>2026-04-26T15:30:45Z</time></trkpt><trkpt lat="40.10498504255105" lon="15.744978606820876"><ele>603.6666666666666</ele><time>2026-04-26T15:30:46Z</time></trkpt><trkpt lat="40.10483472698532" lon="15.74488102297038"><ele>602.0</ele><time>2026-04-26T15:30:47Z</time></trkpt><trkpt lat="40.104685951559695" lon="15.744780978941632"><ele>602.0</ele><time>2026-04-26T15:30:48Z</time></trkpt><trkpt lat="40.10453507730725" lon="15.744686696212092"><ele>602.0</ele><time>2026-04-26T15:30:49Z</time></trkpt><trkpt lat="40.10437578181243" lon="15.744599262230647"><ele>602.0</ele><time>2026-04-26T15:30:50Z</time></trkpt><trkpt lat="40.1042073836269" lon="15.744515172924268"><ele>602.0</ele><time>2026-04-26T15:30:51Z</time></trkpt><trkpt lat="40.10403426357936" lon="15.744431698200083"><ele>602.0</ele><time>2026-04-26T15:30:52Z</time></trkpt><trkpt lat="40.10385696560763" lon="15.744346671676185"><ele>602.0</ele><time>2026-04-26T15:30:53Z</time></trkpt><trkpt lat="40.10368691953972" lon="15.744267636272724"><ele>602.0</ele><time>2026-04-26T15:30:54Z</time></trkpt><trkpt lat="40.103518746707344" lon="15.744199936932427"><ele>602.0</ele><time>2026-04-26T15:30:55Z</time></trkpt><trkpt lat="40.10334951313213" lon="15.744128797762619"><ele>602.0</ele><time>2026-04-26T15:30:56Z</time></trkpt><trkpt lat="40.10317668318431" lon="15.74405930732201"><ele>601.0</ele><time>2026-04-26T15:30:57Z</time></trkpt><trkpt lat="40.10300235243865" lon="15.743985363372008"><ele>600.0</ele><time>2026-04-26T15:30:58Z</time></trkpt><trkpt lat="40.10282576083246" lon="15.743910230435201"><ele>599.0</ele><time>2026-04-26T15:30:59Z</time></trkpt><trkpt lat="40.10264706199586" lon="15.74383467680492"><ele>599.0</ele><time>2026-04-26T15:31:00Z</time></trkpt><trkpt lat="40.102472702832564" lon="15.74375773915648"><ele>599.0</ele><time>2026-04-26T15:31:01Z</time></trkpt><trkpt lat="40.10230762317918" lon="15.743685000598521"><ele>599.0</ele><time>2026-04-26T15:31:02Z</time></trkpt><trkpt lat="40.10214600866245" lon="15.743616815233706"><ele>598.6666666666666</ele><time>2026-04-26T15:31:03Z</time></trkpt><trkpt lat="40.10198588886622" lon="15.743547467153615"><ele>598.3333333333334</ele><time>2026-04-26T15:31:04Z</time></trkpt><trkpt lat="40.10182782476622" lon="15.743468415508177"><ele>598.0</ele><time>2026-04-26T15:31:05Z</time></trkpt><trkpt lat="40.101673677779345" lon="15.743375038073914"><ele>596.6666666666667</ele><time>2026-04-26T15:31:06Z</time></trkpt><trkpt lat="40.10152576507654" lon="15.74326631941113"><ele>595.3333333333334</ele><time>2026-04-26T15:31:07Z</time></trkpt><trkpt lat="40.101388177026095" lon="15.743134938451146"><ele>594.0</ele><time>2026-04-26T15:31:08Z</time></trkpt><trkpt lat="40.101251644844055" lon="15.742999751707906"><ele>594.0</ele><time>2026-04-26T15:31:09Z</time></trkpt><trkpt lat="40.101125298624936" lon="15.74284958232109"><ele>594.0</ele><time>2026-04-26T15:31:10Z</time></trkpt><trkpt lat="40.101008195952886" lon="15.742687110509685"><ele>594.0</ele><time>2026-04-26T15:31:11Z</time></trkpt><trkpt lat="40.10089663485437" lon="15.742508917260011"><ele>598.0</ele><time>2026-04-26T15:31:12Z</time></trkpt><trkpt lat="40.100792280758284" lon="15.742326430966301"><ele>602.0</ele><time>2026-04-26T15:31:13Z</time></trkpt><trkpt lat="40.10069119238656" lon="15.742141090002955"><ele>606.0</ele><time>2026-04-26T15:31:14Z</time></trkpt><trkpt lat="40.10059259539891" lon="15.741952315534942"><ele>600.3333333333334</ele><time>2026-04-26T15:31:15Z</time></trkpt><trkpt lat="40.10049727192042" lon="15.741760624241625"><ele>594.6666666666667</ele><time>2026-04-26T15:31:16Z</time></trkpt><trkpt lat="40.10040353099127" lon="15.741566575022809"><ele>589.0</ele><time>2026-04-26T15:31:17Z</time></trkpt><trkpt lat="40.100310950764026" lon="15.741368335957098"><ele>589.0</ele><time>2026-04-26T15:31:18Z</time></trkpt><trkpt lat="40.10022182538628" lon="15.74116628150055"><ele>589.0</ele><time>2026-04-26T15:31:19Z</time></trkpt><trkpt lat="40.100134097426114" lon="15.740962313871615"><ele>589.0</ele><time>2026-04-26T15:31:20Z</time></trkpt><trkpt lat="40.100040269102415" lon="15.740765258920018"><ele>591.3333333333334</ele><time>2026-04-26T15:31:21Z</time></trkpt><trkpt lat="40.09993348590365" lon="15.740585555440344"><ele>593.6666666666666</ele><time>2026-04-26T15:31:22Z</time></trkpt><trkpt lat="40.099816385177874" lon="15.740419843491587"><ele>596.0</ele><time>2026-04-26T15:31:23Z</time></trkpt><trkpt lat="40.09968605505491" lon="15.74027328843295"><ele>598.0</ele><time>2026-04-26T15:31:24Z</time></trkpt><trkpt lat="40.099546393492034" lon="15.740151967234619"><ele>600.0</ele><time>2026-04-26T15:31:25Z</time></trkpt><trkpt lat="40.09940385335156" lon="15.740040650669537"><ele>602.0</ele><time>2026-04-26T15:31:26Z</time></trkpt><trkpt lat="40.099253773844275" lon="15.739945351838797"><ele>602.0</ele><time>2026-04-26T15:31:27Z</time></trkpt><trkpt lat="40.099098752562575" lon="15.739862213838867"><ele>602.0</ele><time>2026-04-26T15:31:28Z</time></trkpt><trkpt lat="40.09894065118446" lon="15.7397932408638"><ele>602.0</ele><time>2026-04-26T15:31:29Z</time></trkpt><trkpt lat="40.098777428695996" lon="15.739745273686543"><ele>600.3333333333333</ele><time>2026-04-26T15:31:30Z</time></trkpt><trkpt lat="40.09861195082026" lon="15.739725944938764"><ele>598.6666666666666</ele><time>2026-04-26T15:31:31Z</time></trkpt><trkpt lat="40.09844735490185" lon="15.73974119617973"><ele>597.0</ele><time>2026-04-26T15:31:32Z</time></trkpt><trkpt lat="40.09828604603738" lon="15.739756780288756"><ele>598.0</ele><time>2026-04-26T15:31:33Z</time></trkpt><trkpt lat="40.09812054830598" lon="15.73977639339598"><ele>599.0</ele><time>2026-04-26T15:31:34Z</time></trkpt><trkpt lat="40.09795324130131" lon="15.739794962929485"><ele>600.0</ele><time>2026-04-26T15:31:34.999Z</time></trkpt><trkpt lat="40.09778978621095" lon="15.739813399256004"><ele>600.0</ele><time>2026-04-26T15:31:35.999Z</time></trkpt><trkpt lat="40.09762948968215" lon="15.739849655106378"><ele>600.0</ele><time>2026-04-26T15:31:36.999Z</time></trkpt><trkpt lat="40.09747567018035" lon="15.739916121993799"><ele>600.0</ele><time>2026-04-26T15:31:37.999Z</time></trkpt><trkpt lat="40.097327431481574" lon="15.740003515381021"><ele>598.3333333333334</ele><time>2026-04-26T15:31:38.999Z</time></trkpt><trkpt lat="40.097177948100956" lon="15.740096007198549"><ele>596.6666666666667</ele><time>2026-04-26T15:31:39.999Z</time></trkpt><trkpt lat="40.09702829688436" lon="15.740184185083432"><ele>595.0</ele><time>2026-04-26T15:31:40.999Z</time></trkpt><trkpt lat="40.09687565892486" lon="15.740264345621274"><ele>595.0</ele><time>2026-04-26T15:31:41.999Z</time></trkpt><trkpt lat="40.09672486284762" lon="15.74032296560777"><ele>595.0</ele><time>2026-04-26T15:31:42.999Z</time></trkpt><trkpt lat="40.0965585266431" lon="15.7403513292254"><ele>595.0</ele><time>2026-04-26T15:31:43.999Z</time></trkpt><trkpt lat="40.09638849759872" lon="15.74035416396881"><ele>598.0</ele><time>2026-04-26T15:31:44.999Z</time></trkpt><trkpt lat="40.09621485233245" lon="15.740334491025312"><ele>601.0</ele><time>2026-04-26T15:31:45.999Z</time></trkpt><trkpt lat="40.09604634908753" lon="15.740288837853123"><ele>604.0</ele><time>2026-04-26T15:31:46.999Z</time></trkpt><trkpt lat="40.09588418724178" lon="15.740222288106192"><ele>604.6666666666667</ele><time>2026-04-26T15:31:47.999Z</time></trkpt><trkpt lat="40.09572924811877" lon="15.740134727519813"><ele>605.3333333333334</ele><time>2026-04-26T15:31:48.999Z</time></trkpt><trkpt lat="40.09558268951744" lon="15.740022289410625"><ele>606.0</ele><time>2026-04-26T15:31:49.999Z</time></trkpt><trkpt lat="40.095450757139936" lon="15.739891131610436"><ele>606.0</ele><time>2026-04-26T15:31:50.999Z</time></trkpt><trkpt lat="40.095331456367376" lon="15.739742856477081"><ele>606.0</ele><time>2026-04-26T15:31:51.999Z</time></trkpt><trkpt lat="40.09522263851608" lon="15.73957572773348"><ele>606.0</ele><time>2026-04-26T15:31:52.999Z</time></trkpt><trkpt lat="40.095128640925026" lon="15.739399520288309"><ele>604.0</ele><time>2026-04-26T15:31:53.999Z</time></trkpt><trkpt lat="40.095044329331145" lon="15.739212582489522"><ele>602.0</ele><time>2026-04-26T15:31:54.999Z</time></trkpt><trkpt lat="40.094972533836824" lon="15.739013598877351"><ele>600.0</ele><time>2026-04-26T15:31:55.999Z</time></trkpt><trkpt lat="40.09490809231501" lon="15.738803449751812"><ele>594.3333333333334</ele><time>2026-04-26T15:31:56.999Z</time></trkpt><trkpt lat="40.094844582299935" lon="15.73858936130008"><ele>588.6666666666667</ele><time>2026-04-26T15:31:57.999Z</time></trkpt><trkpt lat="40.09478189094692" lon="15.738367807677998"><ele>583.0</ele><time>2026-04-26T15:31:58.999Z</time></trkpt><trkpt lat="40.09471637105438" lon="15.738141782029903"><ele>583.0</ele><time>2026-04-26T15:31:59.999Z</time></trkpt><trkpt lat="40.094650216098245" lon="15.73791464516711"><ele>583.0</ele><time>2026-04-26T15:32:00.999Z</time></trkpt><trkpt lat="40.09458555857892" lon="15.737684382956788"><ele>583.0</ele><time>2026-04-26T15:32:01.999Z</time></trkpt><trkpt lat="40.094520520220904" lon="15.73745448429254"><ele>583.3333333333334</ele><time>2026-04-26T15:32:02.999Z</time></trkpt><trkpt lat="40.09445397366426" lon="15.737221621523053"><ele>583.6666666666666</ele><time>2026-04-26T15:32:03.999Z</time></trkpt><trkpt lat="40.09438613730431" lon="15.736987820836395"><ele>584.0</ele><time>2026-04-26T15:32:04.999Z</time></trkpt><trkpt lat="40.09431848611787" lon="15.73675102260031"><ele>587.0</ele><time>2026-04-26T15:32:05.999Z</time></trkpt><trkpt lat="40.094250782704044" lon="15.736513051589549"><ele>590.0</ele><time>2026-04-26T15:32:06.999Z</time></trkpt><trkpt lat="40.094182324845356" lon="15.736272266652554"><ele>593.0</ele><time>2026-04-26T15:32:07.999Z</time></trkpt><trkpt lat="40.09411483361473" lon="15.736030153635541"><ele>593.0</ele><time>2026-04-26T15:32:08.999Z</time></trkpt><trkpt lat="40.09404867487035" lon="15.735785207022008"><ele>593.0</ele><time>2026-04-26T15:32:09.999Z</time></trkpt><trkpt lat="40.093977890367945" lon="15.735540688520608"><ele>593.0</ele><time>2026-04-26T15:32:10.999Z</time></trkpt><trkpt lat="40.09390425107309" lon="15.73529896699593"><ele>596.0</ele><time>2026-04-26T15:32:11.999Z</time></trkpt><trkpt lat="40.0938349987255" lon="15.735056105276092"><ele>599.0</ele><time>2026-04-26T15:32:12.999Z</time></trkpt><trkpt lat="40.09376526787412" lon="15.734814346828191"><ele>602.0</ele><time>2026-04-26T15:32:13.999Z</time></trkpt><trkpt lat="40.093695706562144" lon="15.734571303008273"><ele>603.3333333333333</ele><time>2026-04-26T15:32:14.999Z</time></trkpt><trkpt lat="40.093623752206895" lon="15.734329616083464"><ele>604.6666666666666</ele><time>2026-04-26T15:32:15.999Z</time></trkpt><trkpt lat="40.09355100413095" lon="15.734085678397536"><ele>606.0</ele><time>2026-04-26T15:32:16.999Z</time></trkpt><trkpt lat="40.09348139133453" lon="15.733839821514339"><ele>606.0</ele><time>2026-04-26T15:32:17.999Z</time></trkpt><trkpt lat="40.09341388630994" lon="15.733593803971846"><ele>606.0</ele><time>2026-04-26T15:32:18.999Z</time></trkpt><trkpt lat="40.09334610806102" lon="15.733357449069745"><ele>606.0</ele><time>2026-04-26T15:32:19.999Z</time></trkpt><trkpt lat="40.09327444219089" lon="15.733124332952436"><ele>606.0</ele><time>2026-04-26T15:32:20.999Z</time></trkpt><trkpt lat="40.093198555179775" lon="15.73290100110597"><ele>606.0</ele><time>2026-04-26T15:32:21.999Z</time></trkpt><trkpt lat="40.09311480052277" lon="15.732689296546729"><ele>606.0</ele><time>2026-04-26T15:32:22.999Z</time></trkpt><trkpt lat="40.09302035349705" lon="15.73248996090808"><ele>606.0</ele><time>2026-04-26T15:32:23.999Z</time></trkpt><trkpt lat="40.09289957854546" lon="15.732322734215222"><ele>606.0</ele><time>2026-04-26T15:32:24.999Z</time></trkpt><trkpt lat="40.09276362694818" lon="15.732180517871992"><ele>606.0</ele><time>2026-04-26T15:32:25.999Z</time></trkpt><trkpt lat="40.092616579522726" lon="15.732058440976127"><ele>606.0</ele><time>2026-04-26T15:32:26.999Z</time></trkpt><trkpt lat="40.09245716378135" lon="15.731961345127276"><ele>606.0</ele><time>2026-04-26T15:32:27.999Z</time></trkpt><trkpt lat="40.09228940086193" lon="15.73189109435711"><ele>606.0</ele><time>2026-04-26T15:32:28.999Z</time></trkpt><trkpt lat="40.09211447617194" lon="15.731848634506019"><ele>603.0</ele><time>2026-04-26T15:32:29.999Z</time></trkpt><trkpt lat="40.09193655184518" lon="15.731828693502154"><ele>600.0</ele><time>2026-04-26T15:32:30.999Z</time></trkpt><trkpt lat="40.09175471671138" lon="15.731819624873047"><ele>597.0</ele><time>2026-04-26T15:32:31.999Z</time></trkpt><trkpt lat="40.09157344987594" lon="15.731809580139574"><ele>594.3333333333334</ele><time>2026-04-26T15:32:32.999Z</time></trkpt><trkpt lat="40.0913929618042" lon="15.73179701807016"><ele>591.6666666666667</ele><time>2026-04-26T15:32:33.999Z</time></trkpt><trkpt lat="40.091212800689824" lon="15.731773647699196"><ele>589.0</ele><time>2026-04-26T15:32:34.999Z</time></trkpt><trkpt lat="40.09103795127043" lon="15.731727264722059"><ele>589.0</ele><time>2026-04-26T15:32:35.999Z</time></trkpt><trkpt lat="40.09086663050192" lon="15.731647417069237"><ele>589.0</ele><time>2026-04-26T15:32:36.999Z</time></trkpt><trkpt lat="40.09071547805353" lon="15.731539438893565"><ele>589.0</ele><time>2026-04-26T15:32:37.999Z</time></trkpt><trkpt lat="40.090570802019144" lon="15.731418393559643"><ele>583.0</ele><time>2026-04-26T15:32:38.999Z</time></trkpt><trkpt lat="40.090429644285194" lon="15.731290715605535"><ele>577.0</ele><time>2026-04-26T15:32:39.999Z</time></trkpt><trkpt lat="40.090283838611086" lon="15.731178665352616"><ele>571.0</ele><time>2026-04-26T15:32:40.999Z</time></trkpt><trkpt lat="40.090129851838284" lon="15.731088952235337"><ele>573.0</ele><time>2026-04-26T15:32:42Z</time></trkpt><trkpt lat="40.08997267699993" lon="15.731018257192263"><ele>575.0</ele><time>2026-04-26T15:32:43Z</time></trkpt><trkpt lat="40.089809519949604" lon="15.73097428932236"><ele>577.0</ele><time>2026-04-26T15:32:44Z</time></trkpt><trkpt lat="40.08964338730151" lon="15.730959136332697"><ele>577.0</ele><time>2026-04-26T15:32:45Z</time></trkpt><trkpt lat="40.089472796142864" lon="15.730985696415544"><ele>577.0</ele><time>2026-04-26T15:32:46Z</time></trkpt><trkpt lat="40.08930833150841" lon="15.731046106566694"><ele>577.0</ele><time>2026-04-26T15:32:47Z</time></trkpt><trkpt lat="40.089151267435405" lon="15.731138133992863"><ele>577.0</ele><time>2026-04-26T15:32:48Z</time></trkpt><trkpt lat="40.08900570925366" lon="15.731264425769147"><ele>577.0</ele><time>2026-04-26T15:32:49Z</time></trkpt><trkpt lat="40.08887375337591" lon="15.731418724790059"><ele>577.0</ele><time>2026-04-26T15:32:50Z</time></trkpt><trkpt lat="40.08874860927971" lon="15.731589671604715"><ele>577.0</ele><time>2026-04-26T15:32:51Z</time></trkpt><trkpt lat="40.08863056930556" lon="15.731774627296266"><ele>577.0</ele><time>2026-04-26T15:32:52Z</time></trkpt><trkpt lat="40.088516962245954" lon="15.731963097426098"><ele>577.0</ele><time>2026-04-26T15:32:53Z</time></trkpt><trkpt lat="40.08841428486277" lon="15.732149596934905"><ele>574.0</ele><time>2026-04-26T15:32:54Z</time></trkpt><trkpt lat="40.08832042387169" lon="15.732335348417523"><ele>571.0</ele><time>2026-04-26T15:32:55Z</time></trkpt><trkpt lat="40.088225685942895" lon="15.73252382695386"><ele>568.0</ele><time>2026-04-26T15:32:56Z</time></trkpt><trkpt lat="40.08812925293117" lon="15.73271795308113"><ele>570.6666666666667</ele><time>2026-04-26T15:32:57Z</time></trkpt><trkpt lat="40.088028039375494" lon="15.73291295276319"><ele>573.3333333333334</ele><time>2026-04-26T15:32:58Z</time></trkpt><trkpt lat="40.08792837978681" lon="15.733111992320786"><ele>576.0</ele><time>2026-04-26T15:32:59Z</time></trkpt><trkpt lat="40.08783929702875" lon="15.733317117680091"><ele>576.0</ele><time>2026-04-26T15:33:00Z</time></trkpt><trkpt lat="40.087762757685994" lon="15.73352703053725"><ele>576.0</ele><time>2026-04-26T15:33:01Z</time></trkpt><trkpt lat="40.0877017034668" lon="15.73375650563025"><ele>576.0</ele><time>2026-04-26T15:33:02Z</time></trkpt><trkpt lat="40.08764449618585" lon="15.7339899587527"><ele>575.0</ele><time>2026-04-26T15:33:03Z</time></trkpt><trkpt lat="40.087590051248796" lon="15.734229072639488"><ele>574.0</ele><time>2026-04-26T15:33:04Z</time></trkpt><trkpt lat="40.087535326975036" lon="15.734469969747167"><ele>573.0</ele><time>2026-04-26T15:33:05Z</time></trkpt><trkpt lat="40.087482592225896" lon="15.734702544932187"><ele>573.0</ele><time>2026-04-26T15:33:06Z</time></trkpt><trkpt lat="40.087429560521365" lon="15.734925528560495"><ele>573.0</ele><time>2026-04-26T15:33:07Z</time></trkpt><trkpt lat="40.08737970007791" lon="15.735144936971958"><ele>573.0</ele><time>2026-04-26T15:33:08Z</time></trkpt><trkpt lat="40.08732567474508" lon="15.735361300250478"><ele>573.3333333333334</ele><time>2026-04-26T15:33:09Z</time></trkpt><trkpt lat="40.08726496407458" lon="15.735570820450977"><ele>573.6666666666667</ele><time>2026-04-26T15:33:10Z</time></trkpt><trkpt lat="40.087200444226895" lon="15.735777136886611"><ele>574.0</ele><time>2026-04-26T15:33:11Z</time></trkpt><trkpt lat="40.08713291242973" lon="15.7359871202279"><ele>569.0</ele><time>2026-04-26T15:33:12Z</time></trkpt><trkpt lat="40.087054988194694" lon="15.736197902587485"><ele>564.0</ele><time>2026-04-26T15:33:13Z</time></trkpt><trkpt lat="40.08697096873627" lon="15.736408965699203"><ele>559.0</ele><time>2026-04-26T15:33:14Z</time></trkpt><trkpt lat="40.08687937447086" lon="15.736604930832183"><ele>559.0</ele><time>2026-04-26T15:33:15Z</time></trkpt><trkpt lat="40.08678806296945" lon="15.73678218625378"><ele>559.0</ele><time>2026-04-26T15:33:16Z</time></trkpt><trkpt lat="40.086651524463264" lon="15.736991343941572"><ele>559.0</ele><time>2026-04-26T15:33:17Z</time></trkpt><trkpt lat="40.086509275534986" lon="15.737208253426179"><ele>556.6666666666667</ele><time>2026-04-26T15:33:18Z</time></trkpt><trkpt lat="40.08633434609048" lon="15.737376064961135"><ele>554.3333333333334</ele><time>2026-04-26T15:33:19Z</time></trkpt><trkpt lat="40.086161566520616" lon="15.737536657272884"><ele>552.0</ele><time>2026-04-26T15:33:20Z</time></trkpt><trkpt lat="40.086014299873995" lon="15.737698804305193"><ele>547.3333333333334</ele><time>2026-04-26T15:33:21Z</time></trkpt><trkpt lat="40.085858085567125" lon="15.737847837933728"><ele>542.6666666666667</ele><time>2026-04-26T15:33:22Z</time></trkpt><trkpt lat="40.08569793826247" lon="15.737984170229199"><ele>538.0</ele><time>2026-04-26T15:33:23Z</time></trkpt><trkpt lat="40.085535414235665" lon="15.738113297674733"><ele>538.0</ele><time>2026-04-26T15:33:24Z</time></trkpt><trkpt lat="40.08536392672855" lon="15.738219530984276"><ele>538.0</ele><time>2026-04-26T15:33:25Z</time></trkpt><trkpt lat="40.08518408243663" lon="15.7382992803499"><ele>538.0</ele><time>2026-04-26T15:33:26Z</time></trkpt><trkpt lat="40.0849968761019" lon="15.73837031199709"><ele>542.6666666666667</ele><time>2026-04-26T15:33:27Z</time></trkpt><trkpt lat="40.08480315491388" lon="15.738438376941"><ele>547.3333333333334</ele><time>2026-04-26T15:33:28Z</time></trkpt><trkpt lat="40.084604593414085" lon="15.738490224785078"><ele>552.0</ele><time>2026-04-26T15:33:29Z</time></trkpt><trkpt lat="40.08440485469531" lon="15.738533572516701"><ele>549.0</ele><time>2026-04-26T15:33:30Z</time></trkpt><trkpt lat="40.08420522406246" lon="15.738588382372876"><ele>546.0</ele><time>2026-04-26T15:33:31Z</time></trkpt><trkpt lat="40.084008272923526" lon="15.738646116822782"><ele>543.0</ele><time>2026-04-26T15:33:32Z</time></trkpt><trkpt lat="40.083810626394296" lon="15.738702637061882"><ele>542.3333333333334</ele><time>2026-04-26T15:33:33Z</time></trkpt><trkpt lat="40.083612439419134" lon="15.738760590605484"><ele>541.6666666666667</ele><time>2026-04-26T15:33:34Z</time></trkpt><trkpt lat="40.083415808313575" lon="15.738817608393088"><ele>541.0</ele><time>2026-04-26T15:33:35Z</time></trkpt><trkpt lat="40.08322033601722" lon="15.738871707825421"><ele>536.6666666666667</ele><time>2026-04-26T15:33:36Z</time></trkpt><trkpt lat="40.08302410866169" lon="15.738924428403577"><ele>532.3333333333334</ele><time>2026-04-26T15:33:37Z</time></trkpt><trkpt lat="40.08282844455087" lon="15.738975582593733"><ele>528.0</ele><time>2026-04-26T15:33:38Z</time></trkpt><trkpt lat="40.08264567810836" lon="15.739024995669045"><ele>528.0</ele><time>2026-04-26T15:33:39Z</time></trkpt><trkpt lat="40.082491359092515" lon="15.739072335564563"><ele>528.0</ele><time>2026-04-26T15:33:40Z</time></trkpt><trkpt lat="40.08232713476084" lon="15.73912212570757"><ele>528.0</ele><time>2026-04-26T15:33:41Z</time></trkpt><trkpt lat="40.082155236020185" lon="15.739183327287135"><ele>527.0</ele><time>2026-04-26T15:33:42Z</time></trkpt><trkpt lat="40.08198572041328" lon="15.7392600312961"><ele>526.0</ele><time>2026-04-26T15:33:43Z</time></trkpt><trkpt lat="40.081814850977466" lon="15.73935634214828"><ele>525.0</ele><time>2026-04-26T15:33:44Z</time></trkpt><trkpt lat="40.0816521233746" lon="15.739467440650827"><ele>522.0</ele><time>2026-04-26T15:33:44.999Z</time></trkpt><trkpt lat="40.08148998619467" lon="15.739589798593325"><ele>519.0</ele><time>2026-04-26T15:33:45.999Z</time></trkpt><trkpt lat="40.081334307337656" lon="15.739727769895005"><ele>516.0</ele><time>2026-04-26T15:33:46.999Z</time></trkpt><trkpt lat="40.08118563155474" lon="15.73988277492029"><ele>516.0</ele><time>2026-04-26T15:33:47.999Z</time></trkpt><trkpt lat="40.08104469798915" lon="15.740054002744397"><ele>516.0</ele><time>2026-04-26T15:33:48.999Z</time></trkpt><trkpt lat="40.08090994490694" lon="15.740240733406406"><ele>516.0</ele><time>2026-04-26T15:33:49.999Z</time></trkpt><trkpt lat="40.08078628411868" lon="15.740438476023387"><ele>516.3333333333334</ele><time>2026-04-26T15:33:50.999Z</time></trkpt><trkpt lat="40.08067146670004" lon="15.740650313564224"><ele>516.6666666666667</ele><time>2026-04-26T15:33:51.999Z</time></trkpt><trkpt lat="40.080562681566235" lon="15.740865734621936"><ele>517.0</ele><time>2026-04-26T15:33:52.999Z</time></trkpt><trkpt lat="40.08045843638028" lon="15.741078566540155"><ele>516.3333333333334</ele><time>2026-04-26T15:33:53.999Z</time></trkpt><trkpt lat="40.08035346349325" lon="15.741284731682859"><ele>515.6666666666666</ele><time>2026-04-26T15:33:54.999Z</time></trkpt><trkpt lat="40.080253918974634" lon="15.741479906279944"><ele>515.0</ele><time>2026-04-26T15:33:55.999Z</time></trkpt><trkpt lat="40.080142220538605" lon="15.741667274212974"><ele>515.0</ele><time>2026-04-26T15:33:56.999Z</time></trkpt><trkpt lat="40.08001114699361" lon="15.741830172941574"><ele>515.0</ele><time>2026-04-26T15:33:57.999Z</time></trkpt><trkpt lat="40.07985791851294" lon="15.741979694081941"><ele>515.0</ele><time>2026-04-26T15:33:58.999Z</time></trkpt><trkpt lat="40.07969780259657" lon="15.742123124741985"><ele>514.3333333333333</ele><time>2026-04-26T15:33:59.999Z</time></trkpt><trkpt lat="40.07953631639447" lon="15.742264649812691"><ele>513.6666666666666</ele><time>2026-04-26T15:34:00.999Z</time></trkpt><trkpt lat="40.07937672067974" lon="15.742410100043715"><ele>513.0</ele><time>2026-04-26T15:34:01.999Z</time></trkpt><trkpt lat="40.079223676977904" lon="15.742567453918973"><ele>511.66666666666663</ele><time>2026-04-26T15:34:02.999Z</time></trkpt><trkpt lat="40.07908071994905" lon="15.742739635640294"><ele>510.3333333333333</ele><time>2026-04-26T15:34:03.999Z</time></trkpt><trkpt lat="40.078951310800036" lon="15.742931925213401"><ele>509.0</ele><time>2026-04-26T15:34:04.999Z</time></trkpt><trkpt lat="40.0788213491556" lon="15.743135048053691"><ele>509.0</ele><time>2026-04-26T15:34:05.999Z</time></trkpt><trkpt lat="40.0786900567727" lon="15.743346497650787"><ele>509.0</ele><time>2026-04-26T15:34:06.999Z</time></trkpt><trkpt lat="40.078560567602764" lon="15.743560101417058"><ele>509.0</ele><time>2026-04-26T15:34:07.999Z</time></trkpt><trkpt lat="40.07843175902427" lon="15.74377748026571"><ele>504.3333333333333</ele><time>2026-04-26T15:34:08.999Z</time></trkpt><trkpt lat="40.07830368425662" lon="15.7439910083362"><ele>499.66666666666663</ele><time>2026-04-26T15:34:09.999Z</time></trkpt><trkpt lat="40.07817514666172" lon="15.7442052288697"><ele>495.0</ele><time>2026-04-26T15:34:10.999Z</time></trkpt><trkpt lat="40.07804058587073" lon="15.744418042864933"><ele>494.0</ele><time>2026-04-26T15:34:11.999Z</time></trkpt><trkpt lat="40.0779106597366" lon="15.744626810010178"><ele>493.0</ele><time>2026-04-26T15:34:12.999Z</time></trkpt><trkpt lat="40.077780141977854" lon="15.744834579956777"><ele>492.0</ele><time>2026-04-26T15:34:13.999Z</time></trkpt><trkpt lat="40.077648169222456" lon="15.745041058703826"><ele>493.0</ele><time>2026-04-26T15:34:14.999Z</time></trkpt><trkpt lat="40.077511091151656" lon="15.745245068822094"><ele>494.0</ele><time>2026-04-26T15:34:15.999Z</time></trkpt><trkpt lat="40.07736248494743" lon="15.74543918281119"><ele>495.0</ele><time>2026-04-26T15:34:16.999Z</time></trkpt><trkpt lat="40.07719589103118" lon="15.745619857816127"><ele>495.0</ele><time>2026-04-26T15:34:17.999Z</time></trkpt><trkpt lat="40.07702332858281" lon="15.74579892106607"><ele>495.0</ele><time>2026-04-26T15:34:18.999Z</time></trkpt><trkpt lat="40.07684984712474" lon="15.745975779663748"><ele>495.0</ele><time>2026-04-26T15:34:19.999Z</time></trkpt><trkpt lat="40.07667623967569" lon="15.74615239402661"><ele>496.0</ele><time>2026-04-26T15:34:20.999Z</time></trkpt><trkpt lat="40.07650129326206" lon="15.746331234659822"><ele>497.0</ele><time>2026-04-26T15:34:21.999Z</time></trkpt><trkpt lat="40.07632640106716" lon="15.74650839230525"><ele>498.0</ele><time>2026-04-26T15:34:22.999Z</time></trkpt><trkpt lat="40.0761462848063" lon="15.7466838378464"><ele>498.0</ele><time>2026-04-26T15:34:23.999Z</time></trkpt><trkpt lat="40.07596709249174" lon="15.74686424208746"><ele>498.0</ele><time>2026-04-26T15:34:24.999Z</time></trkpt><trkpt lat="40.0757947641181" lon="15.747032766986809"><ele>498.0</ele><time>2026-04-26T15:34:25.999Z</time></trkpt><trkpt lat="40.075629086829764" lon="15.747199154362287"><ele>493.0</ele><time>2026-04-26T15:34:26.999Z</time></trkpt><trkpt lat="40.07546362231577" lon="15.747369340644019"><ele>488.0</ele><time>2026-04-26T15:34:27.999Z</time></trkpt><trkpt lat="40.07529904724645" lon="15.747538036045542"><ele>483.0</ele><time>2026-04-26T15:34:28.999Z</time></trkpt><trkpt lat="40.07513711903444" lon="15.747700955341866"><ele>482.33333333333337</ele><time>2026-04-26T15:34:29.999Z</time></trkpt><trkpt lat="40.074978767479216" lon="15.747863211679668"><ele>481.6666666666667</ele><time>2026-04-26T15:34:30.999Z</time></trkpt><trkpt lat="40.074823488591065" lon="15.748025366118013"><ele>481.0</ele><time>2026-04-26T15:34:31.999Z</time></trkpt><trkpt lat="40.074674046613836" lon="15.748187898381314"><ele>481.0</ele><time>2026-04-26T15:34:32.999Z</time></trkpt><trkpt lat="40.074534922872715" lon="15.748356901843223"><ele>481.0</ele><time>2026-04-26T15:34:33.999Z</time></trkpt><trkpt lat="40.074412066826575" lon="15.748542065771906"><ele>481.0</ele><time>2026-04-26T15:34:34.999Z</time></trkpt><trkpt lat="40.07429746743789" lon="15.748745758439158"><ele>477.33333333333337</ele><time>2026-04-26T15:34:35.999Z</time></trkpt><trkpt lat="40.07418369714014" lon="15.7489540972241"><ele>473.66666666666663</ele><time>2026-04-26T15:34:36.999Z</time></trkpt><trkpt lat="40.0740657077455" lon="15.749157985005164"><ele>470.0</ele><time>2026-04-26T15:34:37.999Z</time></trkpt><trkpt lat="40.07394336793418" lon="15.749352935857095"><ele>466.0</ele><time>2026-04-26T15:34:38.999Z</time></trkpt><trkpt lat="40.07380770538781" lon="15.749536543422465"><ele>462.0</ele><time>2026-04-26T15:34:39.999Z</time></trkpt><trkpt lat="40.073658906185756" lon="15.749704011112353"><ele>458.0</ele><time>2026-04-26T15:34:40.999Z</time></trkpt><trkpt lat="40.073497755417115" lon="15.749857170500523"><ele>458.0</ele><time>2026-04-26T15:34:41.999Z</time></trkpt><trkpt lat="40.07332717537028" lon="15.75000298393099"><ele>458.0</ele><time>2026-04-26T15:34:42.999Z</time></trkpt><trkpt lat="40.07315069215416" lon="15.750156841694103"><ele>458.0</ele><time>2026-04-26T15:34:43.999Z</time></trkpt><trkpt lat="40.07296469856731" lon="15.75030671571304"><ele>457.3333333333333</ele><time>2026-04-26T15:34:44.999Z</time></trkpt><trkpt lat="40.07277930163191" lon="15.750468268332371"><ele>456.66666666666663</ele><time>2026-04-26T15:34:45.999Z</time></trkpt><trkpt lat="40.072591450216244" lon="15.75062821127738"><ele>456.0</ele><time>2026-04-26T15:34:46.999Z</time></trkpt><trkpt lat="40.07240506680866" lon="15.750797577212413"><ele>460.33333333333337</ele><time>2026-04-26T15:34:48Z</time></trkpt><trkpt lat="40.072219357539005" lon="15.75096444137294"><ele>464.6666666666667</ele><time>2026-04-26T15:34:49Z</time></trkpt><trkpt lat="40.072042594888984" lon="15.751124786650188"><ele>469.0</ele><time>2026-04-26T15:34:50Z</time></trkpt><trkpt lat="40.07186658800748" lon="15.751283706171858"><ele>464.0</ele><time>2026-04-26T15:34:51Z</time></trkpt><trkpt lat="40.071689806528326" lon="15.751437268208614"><ele>459.0</ele><time>2026-04-26T15:34:52Z</time></trkpt><trkpt lat="40.07151098106318" lon="15.7515778243667"><ele>454.0</ele><time>2026-04-26T15:34:53Z</time></trkpt><trkpt lat="40.07132378336569" lon="15.751692427085368"><ele>454.0</ele><time>2026-04-26T15:34:54Z</time></trkpt><trkpt lat="40.071134284607815" lon="15.751782532987253"><ele>454.0</ele><time>2026-04-26T15:34:55Z</time></trkpt><trkpt lat="40.070938424064416" lon="15.75185152274752"><ele>454.0</ele><time>2026-04-26T15:34:56Z</time></trkpt><trkpt lat="40.07073617938755" lon="15.751891898327994"><ele>442.0</ele><time>2026-04-26T15:34:57Z</time></trkpt><trkpt lat="40.07052939161789" lon="15.75191444424443"><ele>430.0</ele><time>2026-04-26T15:34:58Z</time></trkpt><trkpt lat="40.0703185586512" lon="15.751926260259868"><ele>418.0</ele><time>2026-04-26T15:34:59Z</time></trkpt><trkpt lat="40.07010403787406" lon="15.751937871491275"><ele>419.6666666666667</ele><time>2026-04-26T15:35:00Z</time></trkpt><trkpt lat="40.06989064765591" lon="15.75194701947454"><ele>421.33333333333337</ele><time>2026-04-26T15:35:01Z</time></trkpt><trkpt lat="40.06967100633248" lon="15.751956950627285"><ele>423.0</ele><time>2026-04-26T15:35:02Z</time></trkpt><trkpt lat="40.06944894148932" lon="15.751969674382615"><ele>423.0</ele><time>2026-04-26T15:35:03Z</time></trkpt><trkpt lat="40.06922572186382" lon="15.751983236815256"><ele>423.0</ele><time>2026-04-26T15:35:04Z</time></trkpt><trkpt lat="40.069002152720856" lon="15.751996519467749"><ele>423.0</ele><time>2026-04-26T15:35:05Z</time></trkpt><trkpt lat="40.068778771001305" lon="15.752013410509738"><ele>422.66666666666663</ele><time>2026-04-26T15:35:06Z</time></trkpt><trkpt lat="40.06855588372186" lon="15.752033768658537"><ele>422.3333333333333</ele><time>2026-04-26T15:35:07Z</time></trkpt><trkpt lat="40.06833304005261" lon="15.752059183467729"><ele>422.0</ele><time>2026-04-26T15:35:08Z</time></trkpt><trkpt lat="40.068115869444156" lon="15.752080565840657"><ele>422.0</ele><time>2026-04-26T15:35:09Z</time></trkpt><trkpt lat="40.06790499726703" lon="15.75209693997748"><ele>422.0</ele><time>2026-04-26T15:35:10Z</time></trkpt><trkpt lat="40.06770315256627" lon="15.752113935170014"><ele>422.0</ele><time>2026-04-26T15:35:11Z</time></trkpt><trkpt lat="40.067515503257155" lon="15.752133491762644"><ele>429.3333333333333</ele><time>2026-04-26T15:35:12Z</time></trkpt><trkpt lat="40.06734197318649" lon="15.752171471169943"><ele>436.66666666666663</ele><time>2026-04-26T15:35:13Z</time></trkpt><trkpt lat="40.06718162159521" lon="15.752235139473282"><ele>444.0</ele><time>2026-04-26T15:35:14Z</time></trkpt><trkpt lat="40.067031192700924" lon="15.752347243468101"><ele>444.0</ele><time>2026-04-26T15:35:15Z</time></trkpt><trkpt lat="40.06688802370021" lon="15.752495793520307"><ele>444.0</ele><time>2026-04-26T15:35:16Z</time></trkpt><trkpt lat="40.06675291972056" lon="15.752668952009962"><ele>444.0</ele><time>2026-04-26T15:35:17Z</time></trkpt><trkpt lat="40.06661440150983" lon="15.75284936296142"><ele>449.66666666666663</ele><time>2026-04-26T15:35:18Z</time></trkpt><trkpt lat="40.06647351507668" lon="15.753022331481601"><ele>455.3333333333333</ele><time>2026-04-26T15:35:19Z</time></trkpt><trkpt lat="40.06633650146129" lon="15.753194833694865"><ele>461.0</ele><time>2026-04-26T15:35:20Z</time></trkpt><trkpt lat="40.066208186703015" lon="15.753380196894444"><ele>453.0</ele><time>2026-04-26T15:35:21Z</time></trkpt><trkpt lat="40.0660918971391" lon="15.753581528794005"><ele>445.0</ele><time>2026-04-26T15:35:22Z</time></trkpt><trkpt lat="40.06598452820058" lon="15.753792886703536"><ele>437.0</ele><time>2026-04-26T15:35:23Z</time></trkpt><trkpt lat="40.06588641518829" lon="15.754015353592825"><ele>437.0</ele><time>2026-04-26T15:35:24Z</time></trkpt><trkpt lat="40.06580260658047" lon="15.754249412531506"><ele>437.0</ele><time>2026-04-26T15:35:25Z</time></trkpt><trkpt lat="40.06573092736831" lon="15.754492301262887"><ele>437.0</ele><time>2026-04-26T15:35:26Z</time></trkpt><trkpt lat="40.06566452791362" lon="15.754736674039883"><ele>434.66666666666663</ele><time>2026-04-26T15:35:27Z</time></trkpt><trkpt lat="40.06559330662035" lon="15.75497700796819"><ele>432.33333333333337</ele><time>2026-04-26T15:35:28Z</time></trkpt><trkpt lat="40.06552317043945" lon="15.755210442557027"><ele>430.0</ele><time>2026-04-26T15:35:29Z</time></trkpt><trkpt lat="40.0654466978392" lon="15.75543459077665"><ele>430.0</ele><time>2026-04-26T15:35:30Z</time></trkpt><trkpt lat="40.06536047599808" lon="15.755645276097926"><ele>430.0</ele><time>2026-04-26T15:35:31Z</time></trkpt><trkpt lat="40.065266653069166" lon="15.755844033893712"><ele>430.0</ele><time>2026-04-26T15:35:32Z</time></trkpt><trkpt lat="40.06516182442555" lon="15.756029885997808"><ele>427.0</ele><time>2026-04-26T15:35:33Z</time></trkpt><trkpt lat="40.06504156578767" lon="15.756202818059474"><ele>424.0</ele><time>2026-04-26T15:35:34Z</time></trkpt><trkpt lat="40.06491197120734" lon="15.756367922543324"><ele>421.0</ele><time>2026-04-26T15:35:35Z</time></trkpt><trkpt lat="40.064776697127435" lon="15.756529310410416"><ele>421.0</ele><time>2026-04-26T15:35:36Z</time></trkpt><trkpt lat="40.0646358347" lon="15.75669184256971"><ele>421.0</ele><time>2026-04-26T15:35:37Z</time></trkpt><trkpt lat="40.064497086780406" lon="15.75685937127701"><ele>421.0</ele><time>2026-04-26T15:35:38Z</time></trkpt><trkpt lat="40.064357945683895" lon="15.757031342998824"><ele>421.33333333333337</ele><time>2026-04-26T15:35:38.999Z</time></trkpt><trkpt lat="40.064224317190856" lon="15.757204371903425"><ele>421.66666666666663</ele><time>2026-04-26T15:35:39.999Z</time></trkpt><trkpt lat="40.06409147581483" lon="15.757378330742933"><ele>422.0</ele><time>2026-04-26T15:35:40.999Z</time></trkpt><trkpt lat="40.06395725486858" lon="15.757555079471992"><ele>415.66666666666663</ele><time>2026-04-26T15:35:41.999Z</time></trkpt><trkpt lat="40.06382116667714" lon="15.757729675069426"><ele>409.33333333333337</ele><time>2026-04-26T15:35:42.999Z</time></trkpt><trkpt lat="40.06368241049655" lon="15.757898670367526"><ele>403.0</ele><time>2026-04-26T15:35:43.999Z</time></trkpt><trkpt lat="40.06353724789709" lon="15.758058869133443"><ele>403.0</ele><time>2026-04-26T15:35:44.999Z</time></trkpt><trkpt lat="40.063383416700105" lon="15.758206300635495"><ele>403.0</ele><time>2026-04-26T15:35:45.999Z</time></trkpt><trkpt lat="40.063230253520594" lon="15.758345233608386"><ele>403.0</ele><time>2026-04-26T15:35:46.999Z</time></trkpt><trkpt lat="40.063080759398126" lon="15.758489343233176"><ele>403.33333333333337</ele><time>2026-04-26T15:35:47.999Z</time></trkpt><trkpt lat="40.06293278612935" lon="15.75863588032068"><ele>403.66666666666663</ele><time>2026-04-26T15:35:48.999Z</time></trkpt><trkpt lat="40.06278905747953" lon="15.758782575983703"><ele>404.0</ele><time>2026-04-26T15:35:49.999Z</time></trkpt><trkpt lat="40.06265481214452" lon="15.758939624741645"><ele>404.0</ele><time>2026-04-26T15:35:50.999Z</time></trkpt><trkpt lat="40.062535768418456" lon="15.759112488830034"><ele>404.0</ele><time>2026-04-26T15:35:51.999Z</time></trkpt><trkpt lat="40.06243894343853" lon="15.759305344131143"><ele>404.0</ele><time>2026-04-26T15:35:52.999Z</time></trkpt><trkpt lat="40.06235805125987" lon="15.759513057387124"><ele>414.66666666666663</ele><time>2026-04-26T15:35:53.999Z</time></trkpt><trkpt lat="40.062297726425584" lon="15.759730370145448"><ele>425.33333333333337</ele><time>2026-04-26T15:35:54.999Z</time></trkpt><trkpt lat="40.06226079831681" lon="15.759954828229564"><ele>436.0</ele><time>2026-04-26T15:35:55.999Z</time></trkpt><trkpt lat="40.062248928832375" lon="15.760184559291787"><ele>432.0</ele><time>2026-04-26T15:35:56.999Z</time></trkpt><trkpt lat="40.062258921889544" lon="15.760419238020596"><ele>428.0</ele><time>2026-04-26T15:35:57.999Z</time></trkpt><trkpt lat="40.06227883587693" lon="15.760656511142116"><ele>424.0</ele><time>2026-04-26T15:35:58.999Z</time></trkpt><trkpt lat="40.06230200053876" lon="15.760899000206956"><ele>419.33333333333337</ele><time>2026-04-26T15:35:59.999Z</time></trkpt><trkpt lat="40.06232322041117" lon="15.761138235947376"><ele>414.66666666666663</ele><time>2026-04-26T15:36:00.999Z</time></trkpt><trkpt lat="40.062336303180146" lon="15.761379402361424"><ele>410.0</ele><time>2026-04-26T15:36:01.999Z</time></trkpt><trkpt lat="40.06233371230658" lon="15.76162219603394"><ele>406.66666666666663</ele><time>2026-04-26T15:36:02.999Z</time></trkpt><trkpt lat="40.06231570278609" lon="15.761866465908103"><ele>403.33333333333337</ele><time>2026-04-26T15:36:03.999Z</time></trkpt><trkpt lat="40.06228394007649" lon="15.762113605733559"><ele>400.0</ele><time>2026-04-26T15:36:04.999Z</time></trkpt><trkpt lat="40.06223751298239" lon="15.762360177670987"><ele>400.0</ele><time>2026-04-26T15:36:05.999Z</time></trkpt><trkpt lat="40.062171472147575" lon="15.76260311888558"><ele>400.0</ele><time>2026-04-26T15:36:06.999Z</time></trkpt><trkpt lat="40.06208837299617" lon="15.762838727811985"><ele>400.0</ele><time>2026-04-26T15:36:07.999Z</time></trkpt><trkpt lat="40.061990119788454" lon="15.763066993939102"><ele>393.6666666666667</ele><time>2026-04-26T15:36:08.999Z</time></trkpt><trkpt lat="40.06187920322366" lon="15.763289888922085"><ele>387.33333333333337</ele><time>2026-04-26T15:36:09.999Z</time></trkpt><trkpt lat="40.06176489694352" lon="15.763502714534612"><ele>381.0</ele><time>2026-04-26T15:36:10.999Z</time></trkpt><trkpt lat="40.06165520392951" lon="15.763711265364421"><ele>380.0</ele><time>2026-04-26T15:36:11.999Z</time></trkpt><trkpt lat="40.06154929280054" lon="15.763920075736628"><ele>379.0</ele><time>2026-04-26T15:36:12.999Z</time></trkpt><trkpt lat="40.06145152566337" lon="15.764133003290857"><ele>378.0</ele><time>2026-04-26T15:36:13.999Z</time></trkpt><trkpt lat="40.06136985616867" lon="15.764357863290213"><ele>376.3333333333333</ele><time>2026-04-26T15:36:14.999Z</time></trkpt><trkpt lat="40.061304517019856" lon="15.764594675328212"><ele>374.66666666666663</ele><time>2026-04-26T15:36:15.999Z</time></trkpt><trkpt lat="40.0612425866594" lon="15.764834264688249"><ele>373.0</ele><time>2026-04-26T15:36:16.999Z</time></trkpt><trkpt lat="40.06118090242094" lon="15.7650772970372"><ele>371.0</ele><time>2026-04-26T15:36:17.999Z</time></trkpt><trkpt lat="40.06111253320086" lon="15.765319051406104"><ele>369.0</ele><time>2026-04-26T15:36:18.999Z</time></trkpt><trkpt lat="40.0610343128475" lon="15.765556452555419"><ele>367.0</ele><time>2026-04-26T15:36:19.999Z</time></trkpt><trkpt lat="40.0609435659194" lon="15.765786823770004"><ele>367.0</ele><time>2026-04-26T15:36:20.999Z</time></trkpt><trkpt lat="40.060843298214685" lon="15.766008247452291"><ele>367.0</ele><time>2026-04-26T15:36:21.999Z</time></trkpt><trkpt lat="40.060723441824955" lon="15.766216056051308"><ele>367.0</ele><time>2026-04-26T15:36:22.999Z</time></trkpt><trkpt lat="40.0605972177039" lon="15.76641648023933"><ele>366.66666666666663</ele><time>2026-04-26T15:36:23.999Z</time></trkpt><trkpt lat="40.06046891788743" lon="15.766611871375842"><ele>366.3333333333333</ele><time>2026-04-26T15:36:24.999Z</time></trkpt><trkpt lat="40.06033690814958" lon="15.766803229042777"><ele>366.0</ele><time>2026-04-26T15:36:25.999Z</time></trkpt><trkpt lat="40.060194695495795" lon="15.766968269368467"><ele>360.6666666666667</ele><time>2026-04-26T15:36:26.999Z</time></trkpt><trkpt lat="40.060052240729114" lon="15.767116947795046"><ele>355.33333333333337</ele><time>2026-04-26T15:36:27.999Z</time></trkpt><trkpt lat="40.05989131392661" lon="15.767255609584515"><ele>350.0</ele><time>2026-04-26T15:36:28.999Z</time></trkpt><trkpt lat="40.05971892829902" lon="15.767375880907338"><ele>350.0</ele><time>2026-04-26T15:36:29.999Z</time></trkpt><trkpt lat="40.05953515397743" lon="15.767479905715236"><ele>350.0</ele><time>2026-04-26T15:36:30.999Z</time></trkpt><trkpt lat="40.05934352797924" lon="15.767563578696329"><ele>350.0</ele><time>2026-04-26T15:36:31.999Z</time></trkpt><trkpt lat="40.0591477622826" lon="15.76762956019086"><ele>352.0</ele><time>2026-04-26T15:36:32.999Z</time></trkpt><trkpt lat="40.05895470301401" lon="15.767688765771647"><ele>354.0</ele><time>2026-04-26T15:36:33.999Z</time></trkpt><trkpt lat="40.058771513013234" lon="15.767762620398338"><ele>356.0</ele><time>2026-04-26T15:36:34.999Z</time></trkpt><trkpt lat="40.05859183995047" lon="15.767860297947227"><ele>356.6666666666667</ele><time>2026-04-26T15:36:35.999Z</time></trkpt><trkpt lat="40.058416591087415" lon="15.767978223090998"><ele>357.3333333333333</ele><time>2026-04-26T15:36:36.999Z</time></trkpt><trkpt lat="40.058246282326216" lon="15.768125586118442"><ele>358.0</ele><time>2026-04-26T15:36:37.999Z</time></trkpt><trkpt lat="40.05808310541941" lon="15.768290790370582"><ele>358.0</ele><time>2026-04-26T15:36:38.999Z</time></trkpt><trkpt lat="40.05792992900393" lon="15.768478014801861"><ele>358.0</ele><time>2026-04-26T15:36:39.999Z</time></trkpt><trkpt lat="40.05779134654108" lon="15.768683150314676"><ele>358.0</ele><time>2026-04-26T15:36:40.999Z</time></trkpt><trkpt lat="40.05766805461043" lon="15.768900023479382"><ele>357.66666666666663</ele><time>2026-04-26T15:36:41.999Z</time></trkpt><trkpt lat="40.05756116720477" lon="15.769124585805413"><ele>357.3333333333333</ele><time>2026-04-26T15:36:42.999Z</time></trkpt><trkpt lat="40.05747045571573" lon="15.769358424057298"><ele>357.0</ele><time>2026-04-26T15:36:43.999Z</time></trkpt><trkpt lat="40.05739307605341" lon="15.769592907189816"><ele>357.0</ele><time>2026-04-26T15:36:44.999Z</time></trkpt><trkpt lat="40.057318333063726" lon="15.769828249724204"><ele>357.0</ele><time>2026-04-26T15:36:45.999Z</time></trkpt><trkpt lat="40.05722914481624" lon="15.77005622800014"><ele>357.0</ele><time>2026-04-26T15:36:46.999Z</time></trkpt><trkpt lat="40.057118854784406" lon="15.770268595799363"><ele>348.0</ele><time>2026-04-26T15:36:47.999Z</time></trkpt><trkpt lat="40.05699002506971" lon="15.770465015676253"><ele>339.0</ele><time>2026-04-26T15:36:48.999Z</time></trkpt><trkpt lat="40.05684287372584" lon="15.770644197526174"><ele>330.0</ele><time>2026-04-26T15:36:49.999Z</time></trkpt><trkpt lat="40.0566855807049" lon="15.770799935611233"><ele>330.6666666666667</ele><time>2026-04-26T15:36:50.999Z</time></trkpt><trkpt lat="40.05650810385094" lon="15.770924217343254"><ele>331.33333333333337</ele><time>2026-04-26T15:36:51.999Z</time></trkpt><trkpt lat="40.056321484892266" lon="15.771026454017598"><ele>332.0</ele><time>2026-04-26T15:36:52.999Z</time></trkpt><trkpt lat="40.056125366560785" lon="15.771094047595568"><ele>327.33333333333337</ele><time>2026-04-26T15:36:54Z</time></trkpt><trkpt lat="40.05592543933996" lon="15.771144273110624"><ele>322.6666666666667</ele><time>2026-04-26T15:36:55Z</time></trkpt><trkpt lat="40.0557210075281" lon="15.771189851067426"><ele>318.0</ele><time>2026-04-26T15:36:56Z</time></trkpt><trkpt lat="40.055516921765076" lon="15.77123786013935"><ele>318.0</ele><time>2026-04-26T15:36:57Z</time></trkpt><trkpt lat="40.05531035785529" lon="15.771291339227716"><ele>318.0</ele><time>2026-04-26T15:36:58Z</time></trkpt><trkpt lat="40.05510245935904" lon="15.771345584270382"><ele>318.0</ele><time>2026-04-26T15:36:59Z</time></trkpt><trkpt lat="40.05489524091336" lon="15.77140032359733"><ele>316.6666666666667</ele><time>2026-04-26T15:37:00Z</time></trkpt><trkpt lat="40.05469085197217" lon="15.771457730729832"><ele>315.33333333333337</ele><time>2026-04-26T15:37:01Z</time></trkpt><trkpt lat="40.05448866201525" lon="15.771516733961057"><ele>314.0</ele><time>2026-04-26T15:37:02Z</time></trkpt><trkpt lat="40.05428605176336" lon="15.77157282727626"><ele>311.6666666666667</ele><time>2026-04-26T15:37:03Z</time></trkpt><trkpt lat="40.05408496409295" lon="15.771632967007335"><ele>309.3333333333333</ele><time>2026-04-26T15:37:04Z</time></trkpt><trkpt lat="40.05388593737659" lon="15.771694342499355"><ele>307.0</ele><time>2026-04-26T15:37:05Z</time></trkpt><trkpt lat="40.053686169156116" lon="15.771759759404539"><ele>307.0</ele><time>2026-04-26T15:37:06Z</time></trkpt><trkpt lat="40.053488182553586" lon="15.771826460809747"><ele>307.0</ele><time>2026-04-26T15:37:07Z</time></trkpt><trkpt lat="40.05329363970291" lon="15.77190860868184"><ele>307.0</ele><time>2026-04-26T15:37:08Z</time></trkpt><trkpt lat="40.05310228747651" lon="15.772000667722482"><ele>308.66666666666663</ele><time>2026-04-26T15:37:09Z</time></trkpt><trkpt lat="40.052917578766596" lon="15.772097827238763"><ele>310.3333333333333</ele><time>2026-04-26T15:37:10Z</time></trkpt><trkpt lat="40.0527376000896" lon="15.772211174006777"><ele>312.0</ele><time>2026-04-26T15:37:11Z</time></trkpt><trkpt lat="40.05256391144973" lon="15.772334590277683"><ele>310.0</ele><time>2026-04-26T15:37:12Z</time></trkpt><trkpt lat="40.05239482061531" lon="15.772466915955263"><ele>308.0</ele><time>2026-04-26T15:37:13Z</time></trkpt><trkpt lat="40.0522305017258" lon="15.772608023099917"><ele>306.0</ele><time>2026-04-26T15:37:14Z</time></trkpt><trkpt lat="40.052068729964404" lon="15.772763622126913"><ele>306.0</ele><time>2026-04-26T15:37:15Z</time></trkpt><trkpt lat="40.05190987192795" lon="15.772932543895886"><ele>306.0</ele><time>2026-04-26T15:37:16Z</time></trkpt><trkpt lat="40.051754906192116" lon="15.77311016054676"><ele>306.0</ele><time>2026-04-26T15:37:17Z</time></trkpt><trkpt lat="40.05160429070907" lon="15.773293611930878"><ele>307.0</ele><time>2026-04-26T15:37:18Z</time></trkpt><trkpt lat="40.05145796434323" lon="15.773487666307041"><ele>308.0</ele><time>2026-04-26T15:37:19Z</time></trkpt><trkpt lat="40.05131384765155" lon="15.773687786118913"><ele>309.0</ele><time>2026-04-26T15:37:20Z</time></trkpt><trkpt lat="40.05117070328918" lon="15.773885144027775"><ele>305.6666666666667</ele><time>2026-04-26T15:37:21Z</time></trkpt><trkpt lat="40.051027317520344" lon="15.77407609573227"><ele>302.33333333333337</ele><time>2026-04-26T15:37:22Z</time></trkpt><trkpt lat="40.05087652790954" lon="15.77425961879151"><ele>299.0</ele><time>2026-04-26T15:37:23Z</time></trkpt><trkpt lat="40.05072170224505" lon="15.77443472554926"><ele>296.33333333333337</ele><time>2026-04-26T15:37:24Z</time></trkpt><trkpt lat="40.05056041141697" lon="15.774599253483224"><ele>293.6666666666667</ele><time>2026-04-26T15:37:25Z</time></trkpt><trkpt lat="40.05039079063914" lon="15.774754318306282"><ele>291.0</ele><time>2026-04-26T15:37:26Z</time></trkpt><trkpt lat="40.050214576490134" lon="15.774903658100168"><ele>291.0</ele><time>2026-04-26T15:37:27Z</time></trkpt><trkpt lat="40.05003176230335" lon="15.775042896108657"><ele>291.0</ele><time>2026-04-26T15:37:28Z</time></trkpt><trkpt lat="40.0498525468692" lon="15.775178173179347"><ele>291.0</ele><time>2026-04-26T15:37:29Z</time></trkpt><trkpt lat="40.04967742220249" lon="15.77531549194998"><ele>287.3333333333333</ele><time>2026-04-26T15:37:30Z</time></trkpt><trkpt lat="40.049509470016545" lon="15.77546642922092"><ele>283.66666666666663</ele><time>2026-04-26T15:37:31Z</time></trkpt><trkpt lat="40.0493424041942" lon="15.775637415127646"><ele>280.0</ele><time>2026-04-26T15:37:32Z</time></trkpt><trkpt lat="40.0491799178202" lon="15.775820880889754"><ele>275.3333333333333</ele><time>2026-04-26T15:37:33Z</time></trkpt><trkpt lat="40.049020515072186" lon="15.776015361669755"><ele>270.6666666666667</ele><time>2026-04-26T15:37:34Z</time></trkpt><trkpt lat="40.048868533424134" lon="15.776220622244606"><ele>266.0</ele><time>2026-04-26T15:37:35Z</time></trkpt><trkpt lat="40.04872289395689" lon="15.776431285005817"><ele>263.0</ele><time>2026-04-26T15:37:36Z</time></trkpt><trkpt lat="40.04858243913212" lon="15.776646372379398"><ele>260.0</ele><time>2026-04-26T15:37:37Z</time></trkpt><trkpt lat="40.048445425206765" lon="15.77686472848665"><ele>257.0</ele><time>2026-04-26T15:37:38Z</time></trkpt><trkpt lat="40.0483038679712" lon="15.777090172803428"><ele>252.0</ele><time>2026-04-26T15:37:39Z</time></trkpt><trkpt lat="40.048157824175895" lon="15.77732247959821"><ele>247.0</ele><time>2026-04-26T15:37:40Z</time></trkpt><trkpt lat="40.04801055937766" lon="15.777555279229597"><ele>252.0</ele><time>2026-04-26T15:37:40.999Z</time></trkpt><trkpt lat="40.04786262458175" lon="15.777788149733402"><ele>257.0</ele><time>2026-04-26T15:37:41.999Z</time></trkpt><trkpt lat="40.04771754628315" lon="15.778021284631404"><ele>257.0</ele><time>2026-04-26T15:37:42.999Z</time></trkpt><trkpt lat="40.047572467817744" lon="15.778255805344005"><ele>257.0</ele><time>2026-04-26T15:37:43.999Z</time></trkpt><trkpt lat="40.047426739578796" lon="15.778488354342679"><ele>262.0</ele><time>2026-04-26T15:37:44.999Z</time></trkpt><trkpt lat="40.04728180795216" lon="15.778718540261462"><ele>267.0</ele><time>2026-04-26T15:37:45.999Z</time></trkpt><trkpt lat="40.047140663960825" lon="15.778948445750807"><ele>267.0</ele><time>2026-04-26T15:37:46.999Z</time></trkpt><trkpt lat="40.04699792382109" lon="15.779176526711172"><ele>267.0</ele><time>2026-04-26T15:37:47.999Z</time></trkpt><trkpt lat="40.046855914868246" lon="15.779404780740476"><ele>268.5</ele><time>2026-04-26T15:37:48.999Z</time></trkpt><trkpt lat="40.04671448216518" lon="15.779637038498432"><ele>270.0</ele><time>2026-04-26T15:37:49.999Z</time></trkpt><trkpt lat="40.04657220596202" lon="15.779868093178065"><ele>279.0</ele><time>2026-04-26T15:37:50.999Z</time></trkpt><trkpt lat="40.04642844070006" lon="15.780100063830679"><ele>288.0</ele><time>2026-04-26T15:37:51.999Z</time></trkpt><trkpt lat="40.04628575318752" lon="15.780333808831971"><ele>289.5</ele><time>2026-04-26T15:37:52.999Z</time></trkpt><trkpt lat="40.046145567771724" lon="15.78056032588826"><ele>291.0</ele><time>2026-04-26T15:37:53.999Z</time></trkpt><trkpt lat="40.04599586706729" lon="15.780794397133272"><ele>290.5</ele><time>2026-04-26T15:37:54.999Z</time></trkpt><trkpt lat="40.04584931172054" lon="15.781024016803457"><ele>290.0</ele><time>2026-04-26T15:37:55.999Z</time></trkpt><trkpt lat="40.04570489680645" lon="15.781253629654213"><ele>292.0</ele><time>2026-04-26T15:37:56.999Z</time></trkpt><trkpt lat="40.045562558454236" lon="15.781480562734142"><ele>294.0</ele><time>2026-04-26T15:37:57.999Z</time></trkpt><trkpt lat="40.04542389725101" lon="15.781702552451128"><ele>296.0</ele><time>2026-04-26T15:37:58.999Z</time></trkpt><trkpt lat="40.045281332721544" lon="15.781914688791334"><ele>296.0</ele><time>2026-04-26T15:37:59.999Z</time></trkpt><trkpt lat="40.04513175664328" lon="15.782116958891615"><ele>296.0</ele><time>2026-04-26T15:38:00.999Z</time></trkpt><trkpt lat="40.04497790945665" lon="15.78231369648488"><ele>296.0</ele><time>2026-04-26T15:38:01.999Z</time></trkpt><trkpt lat="40.04481818333001" lon="15.782496249933503"><ele>295.33333333333337</ele><time>2026-04-26T15:38:02.999Z</time></trkpt><trkpt lat="40.0446498802859" lon="15.782664807521993"><ele>294.6666666666667</ele><time>2026-04-26T15:38:03.999Z</time></trkpt><trkpt lat="40.044475668322306" lon="15.782821961829109"><ele>294.0</ele><time>2026-04-26T15:38:04.999Z</time></trkpt><trkpt lat="40.044298747024165" lon="15.782968371771961"><ele>298.0</ele><time>2026-04-26T15:38:05.999Z</time></trkpt><trkpt lat="40.04411968273295" lon="15.783106960310942"><ele>302.0</ele><time>2026-04-26T15:38:06.999Z</time></trkpt><trkpt lat="40.04393785867749" lon="15.7832337183912"><ele>306.0</ele><time>2026-04-26T15:38:07.999Z</time></trkpt><trkpt lat="40.04375600301239" lon="15.78335141415788"><ele>306.0</ele><time>2026-04-26T15:38:08.999Z</time></trkpt><trkpt lat="40.0435746974586" lon="15.783466849350894"><ele>306.0</ele><time>2026-04-26T15:38:09.999Z</time></trkpt><trkpt lat="40.043394164653364" lon="15.783589968469125"><ele>306.0</ele><time>2026-04-26T15:38:10.999Z</time></trkpt><trkpt lat="40.043214851440396" lon="15.783725947667286"><ele>305.0</ele><time>2026-04-26T15:38:11.999Z</time></trkpt><trkpt lat="40.043042976550126" lon="15.78387452823854"><ele>304.0</ele><time>2026-04-26T15:38:12.999Z</time></trkpt><trkpt lat="40.04288022241746" lon="15.784034124464187"><ele>303.0</ele><time>2026-04-26T15:38:13.999Z</time></trkpt><trkpt lat="40.042729731312974" lon="15.784208660932986"><ele>302.6666666666667</ele><time>2026-04-26T15:38:14.999Z</time></trkpt><trkpt lat="40.04259373893221" lon="15.784400090175943"><ele>302.33333333333337</ele><time>2026-04-26T15:38:15.999Z</time></trkpt><trkpt lat="40.04246826471633" lon="15.78460233500719"><ele>302.0</ele><time>2026-04-26T15:38:16.999Z</time></trkpt><trkpt lat="40.0423509431992" lon="15.78481411349458"><ele>302.0</ele><time>2026-04-26T15:38:17.999Z</time></trkpt><trkpt lat="40.04224371955902" lon="15.785038018341007"><ele>302.0</ele><time>2026-04-26T15:38:18.999Z</time></trkpt><trkpt lat="40.04214420731905" lon="15.785264919424012"><ele>302.0</ele><time>2026-04-26T15:38:19.999Z</time></trkpt><trkpt lat="40.042056183127585" lon="15.78549957903478"><ele>300.6666666666667</ele><time>2026-04-26T15:38:20.999Z</time></trkpt><trkpt lat="40.041971516853465" lon="15.785735715922288"><ele>299.3333333333333</ele><time>2026-04-26T15:38:21.999Z</time></trkpt><trkpt lat="40.041884905580055" lon="15.785968754025896"><ele>298.0</ele><time>2026-04-26T15:38:22.999Z</time></trkpt><trkpt lat="40.04179063826904" lon="15.786194976737763"><ele>297.3333333333333</ele><time>2026-04-26T15:38:23.999Z</time></trkpt><trkpt lat="40.04168774731797" lon="15.786413202153632"><ele>296.6666666666667</ele><time>2026-04-26T15:38:24.999Z</time></trkpt><trkpt lat="40.04157562346662" lon="15.786620764880066"><ele>296.0</ele><time>2026-04-26T15:38:25.999Z</time></trkpt><trkpt lat="40.04145020521204" lon="15.786821776896618"><ele>294.6666666666667</ele><time>2026-04-26T15:38:26.999Z</time></trkpt><trkpt lat="40.04131312577778" lon="15.787008703512296"><ele>293.3333333333333</ele><time>2026-04-26T15:38:27.999Z</time></trkpt><trkpt lat="40.04116778285258" lon="15.787181075506927"><ele>292.0</ele><time>2026-04-26T15:38:28.999Z</time></trkpt><trkpt lat="40.0410165378806" lon="15.787337147843319"><ele>292.0</ele><time>2026-04-26T15:38:29.999Z</time></trkpt><trkpt lat="40.040862604319884" lon="15.78747493589475"><ele>292.0</ele><time>2026-04-26T15:38:30.999Z</time></trkpt><trkpt lat="40.040703204706496" lon="15.787613716788078"><ele>292.0</ele><time>2026-04-26T15:38:31.999Z</time></trkpt><trkpt lat="40.0403834797039" lon="15.787895039764313"><ele>292.0</ele><time>2026-04-26T15:38:33.999Z</time></trkpt><trkpt lat="40.040235392164334" lon="15.788034767970652"><ele>292.0</ele><time>2026-04-26T15:38:34.999Z</time></trkpt><trkpt lat="40.04009394351435" lon="15.788177340811592"><ele>292.0</ele><time>2026-04-26T15:38:35.999Z</time></trkpt><trkpt lat="40.03996038042087" lon="15.788327992611965"><ele>292.0</ele><time>2026-04-26T15:38:36.999Z</time></trkpt><trkpt lat="40.0398358745674" lon="15.788491359821409"><ele>292.0</ele><time>2026-04-26T15:38:37.999Z</time></trkpt><trkpt lat="40.03972432655899" lon="15.78866823274084"><ele>292.0</ele><time>2026-04-26T15:38:38.999Z</time></trkpt><trkpt lat="40.039627082401836" lon="15.78885778239971"><ele>290.3333333333333</ele><time>2026-04-26T15:38:39.999Z</time></trkpt><trkpt lat="40.03954131627084" lon="15.789062856724183"><ele>288.6666666666667</ele><time>2026-04-26T15:38:40.999Z</time></trkpt><trkpt lat="40.03946511862631" lon="15.789272666364951"><ele>287.0</ele><time>2026-04-26T15:38:41.999Z</time></trkpt><trkpt lat="40.039405638839575" lon="15.789486116910279"><ele>285.0</ele><time>2026-04-26T15:38:42.999Z</time></trkpt><trkpt lat="40.039356567710705" lon="15.789710184593837"><ele>283.0</ele><time>2026-04-26T15:38:43.999Z</time></trkpt><trkpt lat="40.03932139079121" lon="15.789936160119678"><ele>281.0</ele><time>2026-04-26T15:38:44.999Z</time></trkpt><trkpt lat="40.039298406660016" lon="15.790173512022738"><ele>281.33333333333337</ele><time>2026-04-26T15:38:45.999Z</time></trkpt><trkpt lat="40.039287672066614" lon="15.790416634514283"><ele>281.6666666666667</ele><time>2026-04-26T15:38:46.999Z</time></trkpt><trkpt lat="40.03929210607711" lon="15.790662229448609"><ele>282.0</ele><time>2026-04-26T15:38:47.999Z</time></trkpt><trkpt lat="40.03930381677907" lon="15.79090928899773"><ele>282.0</ele><time>2026-04-26T15:38:48.999Z</time></trkpt><trkpt lat="40.039314272710826" lon="15.791157962175657"><ele>282.0</ele><time>2026-04-26T15:38:49.999Z</time></trkpt><trkpt lat="40.03932140225187" lon="15.791410454845568"><ele>282.0</ele><time>2026-04-26T15:38:50.999Z</time></trkpt><trkpt lat="40.039322465979765" lon="15.79166202802769"><ele>280.3333333333333</ele><time>2026-04-26T15:38:51.999Z</time></trkpt><trkpt lat="40.03931722076267" lon="15.79191169815953"><ele>278.66666666666663</ele><time>2026-04-26T15:38:52.999Z</time></trkpt><trkpt lat="40.03930880167865" lon="15.792157839143798"><ele>277.0</ele><time>2026-04-26T15:38:53.999Z</time></trkpt><trkpt lat="40.039300894489706" lon="15.792401795414149"><ele>277.0</ele><time>2026-04-26T15:38:54.999Z</time></trkpt><trkpt lat="40.03927520545243" lon="15.79263616907837"><ele>277.0</ele><time>2026-04-26T15:38:55.999Z</time></trkpt><trkpt lat="40.03923476547581" lon="15.792860822019414"><ele>277.0</ele><time>2026-04-26T15:38:56.999Z</time></trkpt><trkpt lat="40.03919003620576" lon="15.79303966646541"><ele>275.8333333333333</ele><time>2026-04-26T15:38:57.999Z</time></trkpt><trkpt lat="40.039150320358594" lon="15.793168116017906"><ele>274.66666666666663</ele><time>2026-04-26T15:38:58.999Z</time></trkpt><trkpt lat="40.039115980348946" lon="15.793253422091762"><ele>273.5</ele><time>2026-04-26T15:39:00Z</time></trkpt><trkpt lat="40.03908254266769" lon="15.793333361810475"><ele>272.3333333333333</ele><time>2026-04-26T15:39:02Z</time></trkpt><trkpt lat="40.03902150057592" lon="15.793369169752646"><ele>271.1666666666667</ele><time>2026-04-26T15:39:44.999Z</time></trkpt><trkpt lat="40.03893530841741" lon="15.79338470217162"><ele>270.0</ele><time>2026-04-26T15:41:43.999Z</time></trkpt><trkpt lat="40.03900451078692" lon="15.793436787656669"><ele>269.6</ele><time>2026-04-26T15:47:24Z</time></trkpt><trkpt lat="40.039053730124046" lon="15.793506308945458"><ele>269.2</ele><time>2026-04-26T15:47:27Z</time></trkpt><trkpt lat="40.03899599989048" lon="15.793672602249536"><ele>268.8</ele><time>2026-04-26T15:47:29Z</time></trkpt><trkpt lat="40.038955275973514" lon="15.793772286953006"><ele>268.4</ele><time>2026-04-26T15:47:30Z</time></trkpt><trkpt lat="40.0389154598908" lon="15.793888762798531"><ele>268.0</ele><time>2026-04-26T15:47:31Z</time></trkpt><trkpt lat="40.038870131337994" lon="15.794014289325194"><ele>268.0</ele><time>2026-04-26T15:47:32Z</time></trkpt><trkpt lat="40.03882010307655" lon="15.794149368181472"><ele>268.0</ele><time>2026-04-26T15:47:33Z</time></trkpt><trkpt lat="40.03876754551791" lon="15.794294585050961"><ele>268.0</ele><time>2026-04-26T15:47:34Z</time></trkpt><trkpt lat="40.03871531684595" lon="15.794447066722388"><ele>268.0</ele><time>2026-04-26T15:47:35Z</time></trkpt><trkpt lat="40.03865252593179" lon="15.794607780432287"><ele>267.5</ele><time>2026-04-26T15:47:36Z</time></trkpt><trkpt lat="40.03859248692924" lon="15.794765027765202"><ele>267.0</ele><time>2026-04-26T15:47:37Z</time></trkpt><trkpt lat="40.03853413289113" lon="15.794919377646393"><ele>266.5</ele><time>2026-04-26T15:47:38Z</time></trkpt><trkpt lat="40.038480478712" lon="15.795073858209896"><ele>266.0</ele><time>2026-04-26T15:47:39Z</time></trkpt><trkpt lat="40.03842525575703" lon="15.79523371497504"><ele>263.33333333333337</ele><time>2026-04-26T15:47:40Z</time></trkpt><trkpt lat="40.03837288967235" lon="15.795394734451435"><ele>260.6666666666667</ele><time>2026-04-26T15:47:41Z</time></trkpt><trkpt lat="40.03827279326297" lon="15.79574447764719"><ele>258.0</ele><time>2026-04-26T15:47:43Z</time></trkpt><trkpt lat="40.03823359902195" lon="15.795931674744747"><ele>257.6666666666667</ele><time>2026-04-26T15:47:44Z</time></trkpt><trkpt lat="40.03820003752212" lon="15.796133289219842"><ele>257.33333333333337</ele><time>2026-04-26T15:47:45Z</time></trkpt><trkpt lat="40.03817891321747" lon="15.796340677691237"><ele>257.0</ele><time>2026-04-26T15:47:46Z</time></trkpt><trkpt lat="40.03817125990571" lon="15.796563733081491"><ele>257.0</ele><time>2026-04-26T15:47:47Z</time></trkpt><trkpt lat="40.038175181641584" lon="15.796794856234637"><ele>257.0</ele><time>2026-04-26T15:47:48Z</time></trkpt><trkpt lat="40.03819203670372" lon="15.797026385921749"><ele>257.0</ele><time>2026-04-26T15:47:49Z</time></trkpt><trkpt lat="40.038222758028176" lon="15.797251999217316"><ele>259.33333333333337</ele><time>2026-04-26T15:47:50Z</time></trkpt><trkpt lat="40.038265136411155" lon="15.797463275887448"><ele>261.6666666666667</ele><time>2026-04-26T15:47:51Z</time></trkpt><trkpt lat="40.0383085095543" lon="15.797669518012965"><ele>264.0</ele><time>2026-04-26T15:47:52Z</time></trkpt><trkpt lat="40.038353837673164" lon="15.797866007046148"><ele>257.3333333333333</ele><time>2026-04-26T15:47:53Z</time></trkpt><trkpt lat="40.03839951149034" lon="15.79805562349708"><ele>250.66666666666666</ele><time>2026-04-26T15:47:54Z</time></trkpt><trkpt lat="40.0384379172451" lon="15.798251303055602"><ele>244.0</ele><time>2026-04-26T15:47:55Z</time></trkpt><trkpt lat="40.038463941831836" lon="15.798440385186204"><ele>242.66666666666666</ele><time>2026-04-26T15:47:56Z</time></trkpt><trkpt lat="40.038478083591315" lon="15.798639977841235"><ele>241.33333333333331</ele><time>2026-04-26T15:47:57Z</time></trkpt><trkpt lat="40.038478540720114" lon="15.798845545304653"><ele>240.0</ele><time>2026-04-26T15:47:58Z</time></trkpt><trkpt lat="40.03845966889035" lon="15.799057986232928"><ele>240.0</ele><time>2026-04-26T15:47:59Z</time></trkpt><trkpt lat="40.03840877373082" lon="15.799256331086566"><ele>240.0</ele><time>2026-04-26T15:48:00Z</time></trkpt><trkpt lat="40.03835237978028" lon="15.799456477594285"><ele>240.0</ele><time>2026-04-26T15:48:01Z</time></trkpt><trkpt lat="40.03817313540117" lon="15.79981795549454"><ele>241.0</ele><time>2026-04-26T15:48:03Z</time></trkpt><trkpt lat="40.038061417264984" lon="15.799988985598933"><ele>242.0</ele><time>2026-04-26T15:48:04Z</time></trkpt><trkpt lat="40.037938503698534" lon="15.80014828243906"><ele>243.0</ele><time>2026-04-26T15:48:05Z</time></trkpt><trkpt lat="40.03780556479132" lon="15.800296602386844"><ele>240.66666666666669</ele><time>2026-04-26T15:48:06Z</time></trkpt><trkpt lat="40.03767435379582" lon="15.800443073000972"><ele>238.33333333333334</ele><time>2026-04-26T15:48:07Z</time></trkpt><trkpt lat="40.037543401091924" lon="15.800587400891825"><ele>236.0</ele><time>2026-04-26T15:48:08Z</time></trkpt><trkpt lat="40.03740568243948" lon="15.800726053247296"><ele>236.0</ele><time>2026-04-26T15:48:09Z</time></trkpt><trkpt lat="40.03726423387658" lon="15.800857120142732"><ele>236.0</ele><time>2026-04-26T15:48:10Z</time></trkpt><trkpt lat="40.03711674913905" lon="15.800979015197035"><ele>236.0</ele><time>2026-04-26T15:48:11Z</time></trkpt><trkpt lat="40.03696089853382" lon="15.801089109519"><ele>234.33333333333334</ele><time>2026-04-26T15:48:12Z</time></trkpt><trkpt lat="40.03680182854596" lon="15.801192772914872"><ele>232.66666666666669</ele><time>2026-04-26T15:48:13Z</time></trkpt><trkpt lat="40.036637218574455" lon="15.801295602496442"><ele>231.0</ele><time>2026-04-26T15:48:14Z</time></trkpt><trkpt lat="40.036477692866725" lon="15.801397258723485"><ele>231.0</ele><time>2026-04-26T15:48:15Z</time></trkpt><trkpt lat="40.03632386915204" lon="15.801500702135876"><ele>231.0</ele><time>2026-04-26T15:48:16Z</time></trkpt><trkpt lat="40.03617623212624" lon="15.801613241460862"><ele>231.0</ele><time>2026-04-26T15:48:17Z</time></trkpt><trkpt lat="40.03603625834382" lon="15.801739649135097"><ele>230.33333333333331</ele><time>2026-04-26T15:48:18Z</time></trkpt><trkpt lat="40.03590422211599" lon="15.80188329956724"><ele>229.66666666666666</ele><time>2026-04-26T15:48:19Z</time></trkpt><trkpt lat="40.03578155278711" lon="15.802045400111652"><ele>229.0</ele><time>2026-04-26T15:48:20Z</time></trkpt><trkpt lat="40.03567568669135" lon="15.802225591921633"><ele>229.0</ele><time>2026-04-26T15:48:21Z</time></trkpt><trkpt lat="40.03559263961976" lon="15.802422996164703"><ele>229.0</ele><time>2026-04-26T15:48:22Z</time></trkpt><trkpt lat="40.03553298399216" lon="15.802634750864641"><ele>229.0</ele><time>2026-04-26T15:48:23Z</time></trkpt><trkpt lat="40.03549944622124" lon="15.802859786477926"><ele>227.33333333333331</ele><time>2026-04-26T15:48:24Z</time></trkpt><trkpt lat="40.03548504252638" lon="15.80309075141578"><ele>225.66666666666669</ele><time>2026-04-26T15:48:25Z</time></trkpt><trkpt lat="40.035470929692615" lon="15.803322275424382"><ele>224.0</ele><time>2026-04-26T15:48:26Z</time></trkpt><trkpt lat="40.0354498556752" lon="15.803552759821224"><ele>222.33333333333334</ele><time>2026-04-26T15:48:27Z</time></trkpt><trkpt lat="40.035410763024345" lon="15.803774320121123"><ele>220.66666666666669</ele><time>2026-04-26T15:48:28Z</time></trkpt><trkpt lat="40.035351397763144" lon="15.803983088927477"><ele>219.0</ele><time>2026-04-26T15:48:29Z</time></trkpt><trkpt lat="40.035270829461794" lon="15.804174089804583"><ele>217.0</ele><time>2026-04-26T15:48:29.999Z</time></trkpt><trkpt lat="40.035169566680956" lon="15.804335637526755"><ele>215.0</ele><time>2026-04-26T15:48:30.999Z</time></trkpt><trkpt lat="40.035058283707684" lon="15.80448934720384"><ele>213.0</ele><time>2026-04-26T15:48:31.999Z</time></trkpt><trkpt lat="40.03494810656795" lon="15.804634210049088"><ele>213.0</ele><time>2026-04-26T15:48:32.999Z</time></trkpt><trkpt lat="40.034828883202465" lon="15.804755926090822"><ele>213.0</ele><time>2026-04-26T15:48:33.999Z</time></trkpt><trkpt lat="40.034694333776926" lon="15.80484411289128"><ele>213.0</ele><time>2026-04-26T15:48:34.999Z</time></trkpt><trkpt lat="40.03455239002477" lon="15.804920431892258"><ele>213.0</ele><time>2026-04-26T15:48:35.999Z</time></trkpt><trkpt lat="40.034404101593665" lon="15.804972529946257"><ele>213.0</ele><time>2026-04-26T15:48:36.999Z</time></trkpt><trkpt lat="40.034257310192935" lon="15.805008397008377"><ele>213.0</ele><time>2026-04-26T15:48:37.999Z</time></trkpt><trkpt lat="40.034105892941476" lon="15.805018144421174"><ele>209.0</ele><time>2026-04-26T15:48:38.999Z</time></trkpt><trkpt lat="40.03395824267581" lon="15.805000073035176"><ele>205.0</ele><time>2026-04-26T15:48:39.999Z</time></trkpt><trkpt lat="40.03380389973819" lon="15.804951829985647"><ele>201.0</ele><time>2026-04-26T15:48:40.999Z</time></trkpt><trkpt lat="40.033647508753475" lon="15.80489492281881"><ele>201.0</ele><time>2026-04-26T15:48:41.999Z</time></trkpt><trkpt lat="40.03348904103024" lon="15.804840373408057"><ele>201.0</ele><time>2026-04-26T15:48:42.999Z</time></trkpt><trkpt lat="40.03332398431876" lon="15.804792704963605"><ele>201.0</ele><time>2026-04-26T15:48:43.999Z</time></trkpt><trkpt lat="40.03315973173555" lon="15.80473919089496"><ele>197.66666666666666</ele><time>2026-04-26T15:48:44.999Z</time></trkpt><trkpt lat="40.0329953145315" lon="15.804684054625925"><ele>194.33333333333331</ele><time>2026-04-26T15:48:45.999Z</time></trkpt><trkpt lat="40.032835662692854" lon="15.804630953333538"><ele>191.0</ele><time>2026-04-26T15:48:46.999Z</time></trkpt><trkpt lat="40.032678005904664" lon="15.804580973212115"><ele>191.0</ele><time>2026-04-26T15:48:47.999Z</time></trkpt><trkpt lat="40.03251544956461" lon="15.804531522212866"><ele>191.0</ele><time>2026-04-26T15:48:48.999Z</time></trkpt><trkpt lat="40.03235180928834" lon="15.80448244263621"><ele>191.0</ele><time>2026-04-26T15:48:49.999Z</time></trkpt><trkpt lat="40.032186098054666" lon="15.80444346400009"><ele>189.33333333333331</ele><time>2026-04-26T15:48:50.999Z</time></trkpt><trkpt lat="40.032020036649165" lon="15.804422701180027"><ele>187.66666666666666</ele><time>2026-04-26T15:48:51.999Z</time></trkpt><trkpt lat="40.031853646459346" lon="15.804424150695155"><ele>186.0</ele><time>2026-04-26T15:48:52.999Z</time></trkpt><trkpt lat="40.03168790219898" lon="15.80444906903437"><ele>186.66666666666666</ele><time>2026-04-26T15:48:53.999Z</time></trkpt><trkpt lat="40.031522715993106" lon="15.804491629084538"><ele>187.33333333333331</ele><time>2026-04-26T15:48:54.999Z</time></trkpt><trkpt lat="40.03135741086324" lon="15.804549602602322"><ele>188.0</ele><time>2026-04-26T15:48:55.999Z</time></trkpt><trkpt lat="40.03119210153437" lon="15.804619167631177"><ele>188.0</ele><time>2026-04-26T15:48:56.999Z</time></trkpt><trkpt lat="40.031026166053785" lon="15.804690992397585"><ele>188.0</ele><time>2026-04-26T15:48:57.999Z</time></trkpt><trkpt lat="40.03086020928729" lon="15.80476846607932"><ele>188.0</ele><time>2026-04-26T15:48:58.999Z</time></trkpt><trkpt lat="40.03069184142621" lon="15.804847106262754"><ele>189.66666666666666</ele><time>2026-04-26T15:48:59.999Z</time></trkpt><trkpt lat="40.03052399182604" lon="15.80492210924415"><ele>191.33333333333331</ele><time>2026-04-26T15:49:00.999Z</time></trkpt><trkpt lat="40.03035647524558" lon="15.80499880136316"><ele>193.0</ele><time>2026-04-26T15:49:01.999Z</time></trkpt><trkpt lat="40.030190568639064" lon="15.805073387381588"><ele>193.0</ele><time>2026-04-26T15:49:02.999Z</time></trkpt><trkpt lat="40.030025359127684" lon="15.805155666502623"><ele>193.0</ele><time>2026-04-26T15:49:03.999Z</time></trkpt><trkpt lat="40.02986381549534" lon="15.805243174143524"><ele>193.0</ele><time>2026-04-26T15:49:04.999Z</time></trkpt><trkpt lat="40.02970272933084" lon="15.805331713994656"><ele>190.66666666666666</ele><time>2026-04-26T15:49:05.999Z</time></trkpt><trkpt lat="40.02954389547355" lon="15.80543006641582"><ele>188.33333333333331</ele><time>2026-04-26T15:49:06.999Z</time></trkpt><trkpt lat="40.02939169409638" lon="15.805537535660427"><ele>186.0</ele><time>2026-04-26T15:49:07.999Z</time></trkpt><trkpt lat="40.02925162305524" lon="15.805668246201806"><ele>188.0</ele><time>2026-04-26T15:49:08.999Z</time></trkpt><trkpt lat="40.02911920294378" lon="15.805811743471871"><ele>190.0</ele><time>2026-04-26T15:49:09.999Z</time></trkpt><trkpt lat="40.02899413671436" lon="15.805967717043579"><ele>192.0</ele><time>2026-04-26T15:49:10.999Z</time></trkpt><trkpt lat="40.028877703495084" lon="15.806135341453473"><ele>192.0</ele><time>2026-04-26T15:49:11.999Z</time></trkpt><trkpt lat="40.028762758130064" lon="15.806307789634513"><ele>192.0</ele><time>2026-04-26T15:49:12.999Z</time></trkpt><trkpt lat="40.02864823683712" lon="15.806484551137808"><ele>192.0</ele><time>2026-04-26T15:49:13.999Z</time></trkpt><trkpt lat="40.02853985496113" lon="15.806664108087027"><ele>192.0</ele><time>2026-04-26T15:49:14.999Z</time></trkpt><trkpt lat="40.02843503044293" lon="15.806845812899615"><ele>192.0</ele><time>2026-04-26T15:49:15.999Z</time></trkpt><trkpt lat="40.0283305280538" lon="15.807026036557755"><ele>192.0</ele><time>2026-04-26T15:49:16.999Z</time></trkpt><trkpt lat="40.02822608367353" lon="15.807207386260124"><ele>192.0</ele><time>2026-04-26T15:49:17.999Z</time></trkpt><trkpt lat="40.028123491969325" lon="15.807386426244403"><ele>192.0</ele><time>2026-04-26T15:49:18.999Z</time></trkpt><trkpt lat="40.028016178626295" lon="15.807557745617487"><ele>192.0</ele><time>2026-04-26T15:49:19.999Z</time></trkpt><trkpt lat="40.0279038814049" lon="15.807718624707569"><ele>190.33333333333334</ele><time>2026-04-26T15:49:20.999Z</time></trkpt><trkpt lat="40.02778364603701" lon="15.807872822750609"><ele>188.66666666666669</ele><time>2026-04-26T15:49:21.999Z</time></trkpt><trkpt lat="40.027656654857985" lon="15.80801699070683"><ele>187.0</ele><time>2026-04-26T15:49:22.999Z</time></trkpt><trkpt lat="40.027519549415494" lon="15.80814889133821"><ele>189.66666666666669</ele><time>2026-04-26T15:49:23.999Z</time></trkpt><trkpt lat="40.027372713494024" lon="15.808263512032626"><ele>192.33333333333334</ele><time>2026-04-26T15:49:24.999Z</time></trkpt><trkpt lat="40.02721963013247" lon="15.808360436282578"><ele>195.0</ele><time>2026-04-26T15:49:25.999Z</time></trkpt><trkpt lat="40.027059725307666" lon="15.808438556580967"><ele>195.66666666666669</ele><time>2026-04-26T15:49:26.999Z</time></trkpt><trkpt lat="40.0268976317776" lon="15.808504805099115"><ele>196.33333333333334</ele><time>2026-04-26T15:49:27.999Z</time></trkpt><trkpt lat="40.0267332343963" lon="15.808549935598005"><ele>197.0</ele><time>2026-04-26T15:49:28.999Z</time></trkpt><trkpt lat="40.02656602590017" lon="15.808564707578565"><ele>193.0</ele><time>2026-04-26T15:49:30Z</time></trkpt><trkpt lat="40.02639896228296" lon="15.808553320086453"><ele>189.0</ele><time>2026-04-26T15:49:31Z</time></trkpt><trkpt lat="40.0262343219503" lon="15.808519134408819"><ele>185.0</ele><time>2026-04-26T15:49:32Z</time></trkpt><trkpt lat="40.02606948847363" lon="15.808471903060756"><ele>185.0</ele><time>2026-04-26T15:49:33Z</time></trkpt><trkpt lat="40.025907688548266" lon="15.80840073852142"><ele>185.0</ele><time>2026-04-26T15:49:34Z</time></trkpt><trkpt lat="40.02574939581084" lon="15.808314466022523"><ele>185.0</ele><time>2026-04-26T15:49:35Z</time></trkpt><trkpt lat="40.02557010385777" lon="15.808199159369337"><ele>178.66666666666666</ele><time>2026-04-26T15:49:36Z</time></trkpt><trkpt lat="40.02540632951321" lon="15.808085012508661"><ele>172.33333333333334</ele><time>2026-04-26T15:49:37Z</time></trkpt><trkpt lat="40.0252447393786" lon="15.807965389494765"><ele>166.0</ele><time>2026-04-26T15:49:38Z</time></trkpt><trkpt lat="40.02508541227858" lon="15.80784576005467"><ele>163.33333333333334</ele><time>2026-04-26T15:49:39Z</time></trkpt><trkpt lat="40.02492940167483" lon="15.80773290632881"><ele>160.66666666666666</ele><time>2026-04-26T15:49:40Z</time></trkpt><trkpt lat="40.02477270889608" lon="15.807631179684828"><ele>158.0</ele><time>2026-04-26T15:49:41Z</time></trkpt><trkpt lat="40.024608579636904" lon="15.807546699147888"><ele>158.0</ele><time>2026-04-26T15:49:42Z</time></trkpt><trkpt lat="40.02443962080924" lon="15.807472547388244"><ele>158.0</ele><time>2026-04-26T15:49:43Z</time></trkpt><trkpt lat="40.02427070972254" lon="15.807399231907887"><ele>158.0</ele><time>2026-04-26T15:49:44Z</time></trkpt><trkpt lat="40.02409982386366" lon="15.807328723881119"><ele>157.66666666666666</ele><time>2026-04-26T15:49:45Z</time></trkpt><trkpt lat="40.02393241408483" lon="15.807255994478963"><ele>157.33333333333334</ele><time>2026-04-26T15:49:46Z</time></trkpt><trkpt lat="40.02376520708736" lon="15.807181263999878"><ele>157.0</ele><time>2026-04-26T15:49:47Z</time></trkpt><trkpt lat="40.023602857086686" lon="15.807106643004941"><ele>157.0</ele><time>2026-04-26T15:49:48Z</time></trkpt><trkpt lat="40.02344600706113" lon="15.807023153877115"><ele>157.0</ele><time>2026-04-26T15:49:49Z</time></trkpt><trkpt lat="40.0232934200976" lon="15.806930385595953"><ele>157.0</ele><time>2026-04-26T15:49:50Z</time></trkpt><trkpt lat="40.02314769094269" lon="15.806819951816093"><ele>162.0</ele><time>2026-04-26T15:49:51Z</time></trkpt><trkpt lat="40.02300722181083" lon="15.806696675275104"><ele>167.0</ele><time>2026-04-26T15:49:52Z</time></trkpt><trkpt lat="40.02287382336753" lon="15.80655660725823"><ele>172.0</ele><time>2026-04-26T15:49:53Z</time></trkpt><trkpt lat="40.022751371094564" lon="15.806393450863736"><ele>172.0</ele><time>2026-04-26T15:49:54Z</time></trkpt><trkpt lat="40.02263942673151" lon="15.806209199739426"><ele>172.0</ele><time>2026-04-26T15:49:55Z</time></trkpt><trkpt lat="40.02254157020134" lon="15.806007333025969"><ele>172.0</ele><time>2026-04-26T15:49:56Z</time></trkpt><trkpt lat="40.02245954202229" lon="15.805790151968166"><ele>178.66666666666669</ele><time>2026-04-26T15:49:57Z</time></trkpt><trkpt lat="40.02238961198598" lon="15.805561160804313"><ele>185.33333333333334</ele><time>2026-04-26T15:49:58Z</time></trkpt><trkpt lat="40.02233337843271" lon="15.805324778903321"><ele>192.0</ele><time>2026-04-26T15:49:59Z</time></trkpt><trkpt lat="40.02228786978495" lon="15.805083123741003"><ele>192.0</ele><time>2026-04-26T15:50:00Z</time></trkpt><trkpt lat="40.022246151329576" lon="15.804836979440132"><ele>192.0</ele><time>2026-04-26T15:50:01Z</time></trkpt><trkpt lat="40.02221241850078" lon="15.804586816720846"><ele>192.0</ele><time>2026-04-26T15:50:02Z</time></trkpt><trkpt lat="40.022183253670725" lon="15.804333549120338"><ele>187.33333333333334</ele><time>2026-04-26T15:50:03Z</time></trkpt><trkpt lat="40.02215524054969" lon="15.80408286546539"><ele>182.66666666666669</ele><time>2026-04-26T15:50:04Z</time></trkpt><trkpt lat="40.02212444665231" lon="15.803832892879141"><ele>178.0</ele><time>2026-04-26T15:50:05Z</time></trkpt><trkpt lat="40.0220949038756" lon="15.803586220173617"><ele>173.0</ele><time>2026-04-26T15:50:06Z</time></trkpt><trkpt lat="40.02206459576033" lon="15.803337712093372"><ele>168.0</ele><time>2026-04-26T15:50:07Z</time></trkpt><trkpt lat="40.02203594615027" lon="15.803096106299382"><ele>163.0</ele><time>2026-04-26T15:50:08Z</time></trkpt><trkpt lat="40.022007045741056" lon="15.802863154650115"><ele>160.66666666666669</ele><time>2026-04-26T15:50:09Z</time></trkpt><trkpt lat="40.021972076759425" lon="15.802631845599125"><ele>158.33333333333334</ele><time>2026-04-26T15:50:10Z</time></trkpt><trkpt lat="40.02193112921159" lon="15.802404016023605"><ele>156.0</ele><time>2026-04-26T15:50:11Z</time></trkpt><trkpt lat="40.021880764377784" lon="15.802179221662294"><ele>156.0</ele><time>2026-04-26T15:50:12Z</time></trkpt><trkpt lat="40.02182093625101" lon="15.801956406942779"><ele>156.0</ele><time>2026-04-26T15:50:13Z</time></trkpt><trkpt lat="40.021754904575396" lon="15.801738841361248"><ele>156.0</ele><time>2026-04-26T15:50:14Z</time></trkpt><trkpt lat="40.02168293476141" lon="15.801522466533404"><ele>156.33333333333334</ele><time>2026-04-26T15:50:15Z</time></trkpt><trkpt lat="40.021605009862206" lon="15.801311226185222"><ele>156.66666666666669</ele><time>2026-04-26T15:50:16Z</time></trkpt><trkpt lat="40.021521110789024" lon="15.80110021711613"><ele>157.0</ele><time>2026-04-26T15:50:17Z</time></trkpt><trkpt lat="40.021427717577225" lon="15.8008997392112"><ele>157.0</ele><time>2026-04-26T15:50:18Z</time></trkpt><trkpt lat="40.02132235398819" lon="15.800704399799834"><ele>157.0</ele><time>2026-04-26T15:50:19Z</time></trkpt><trkpt lat="40.02121249844658" lon="15.800517548922674"><ele>157.0</ele><time>2026-04-26T15:50:20Z</time></trkpt><trkpt lat="40.02110188712418" lon="15.800339388520952"><ele>157.33333333333334</ele><time>2026-04-26T15:50:21Z</time></trkpt><trkpt lat="40.020989353618376" lon="15.80016284665111"><ele>157.66666666666666</ele><time>2026-04-26T15:50:22Z</time></trkpt><trkpt lat="40.020864569835325" lon="15.79999139417581"><ele>158.0</ele><time>2026-04-26T15:50:23Z</time></trkpt><trkpt lat="40.0207369770612" lon="15.799830879984968"><ele>158.0</ele><time>2026-04-26T15:50:24Z</time></trkpt><trkpt lat="40.02059293295516" lon="15.799677915757226"><ele>158.0</ele><time>2026-04-26T15:50:25Z</time></trkpt><trkpt lat="40.02045124756435" lon="15.799533188700766"><ele>158.0</ele><time>2026-04-26T15:50:26Z</time></trkpt><trkpt lat="40.020305493815634" lon="15.799396663178404"><ele>156.0</ele><time>2026-04-26T15:50:27Z</time></trkpt><trkpt lat="40.02015452344776" lon="15.799270080930462"><ele>154.0</ele><time>2026-04-26T15:50:28Z</time></trkpt><trkpt lat="40.02000020399932" lon="15.799151915298708"><ele>152.0</ele><time>2026-04-26T15:50:29Z</time></trkpt><trkpt lat="40.019841065900245" lon="15.799040732644892"><ele>152.0</ele><time>2026-04-26T15:50:30Z</time></trkpt><trkpt lat="40.0196807327176" lon="15.798934060417867"><ele>152.0</ele><time>2026-04-26T15:50:31Z</time></trkpt><trkpt lat="40.01952114763228" lon="15.798827937526088"><ele>152.0</ele><time>2026-04-26T15:50:32Z</time></trkpt><trkpt lat="40.01936385396677" lon="15.798719109228182"><ele>152.0</ele><time>2026-04-26T15:50:33Z</time></trkpt><trkpt lat="40.01920777557388" lon="15.798608908860874"><ele>152.0</ele><time>2026-04-26T15:50:34Z</time></trkpt><trkpt lat="40.019050953526" lon="15.798495915020103"><ele>152.0</ele><time>2026-04-26T15:50:35Z</time></trkpt><trkpt lat="40.0188972883465" lon="15.79837908580184"><ele>148.33333333333331</ele><time>2026-04-26T15:50:36Z</time></trkpt><trkpt lat="40.01874519198018" lon="15.798252602112091"><ele>144.66666666666666</ele><time>2026-04-26T15:50:37Z</time></trkpt><trkpt lat="40.018590983501134" lon="15.798128025721901"><ele>141.0</ele><time>2026-04-26T15:50:38Z</time></trkpt><trkpt lat="40.01843690647897" lon="15.798001411380664"><ele>141.33333333333334</ele><time>2026-04-26T15:50:39Z</time></trkpt><trkpt lat="40.01828502743434" lon="15.797868779731168"><ele>141.66666666666669</ele><time>2026-04-26T15:50:40Z</time></trkpt><trkpt lat="40.018132622847524" lon="15.797731500255448"><ele>142.0</ele><time>2026-04-26T15:50:41Z</time></trkpt><trkpt lat="40.01798238556252" lon="15.797591911857104"><ele>142.0</ele><time>2026-04-26T15:50:42Z</time></trkpt><trkpt lat="40.01783128275288" lon="15.797455915041969"><ele>142.0</ele><time>2026-04-26T15:50:43Z</time></trkpt><trkpt lat="40.01768085927259" lon="15.797321104718291"><ele>142.0</ele><time>2026-04-26T15:50:44Z</time></trkpt><trkpt lat="40.01752961731713" lon="15.797193964400677"><ele>144.0</ele><time>2026-04-26T15:50:45Z</time></trkpt><trkpt lat="40.01737440554354" lon="15.797073998323423"><ele>146.0</ele><time>2026-04-26T15:50:46Z</time></trkpt><trkpt lat="40.017220133131396" lon="15.796961069177494"><ele>148.0</ele><time>2026-04-26T15:50:46.999Z</time></trkpt><trkpt lat="40.01705941290711" lon="15.79685860269779"><ele>145.0</ele><time>2026-04-26T15:50:47.999Z</time></trkpt><trkpt lat="40.01689378861332" lon="15.796769203371582"><ele>142.0</ele><time>2026-04-26T15:50:48.999Z</time></trkpt><trkpt lat="40.01672787246313" lon="15.79668815188526"><ele>139.0</ele><time>2026-04-26T15:50:49.999Z</time></trkpt><trkpt lat="40.01656063577086" lon="15.796614766955885"><ele>139.0</ele><time>2026-04-26T15:50:50.999Z</time></trkpt><trkpt lat="40.01639057480178" lon="15.796552878876128"><ele>139.0</ele><time>2026-04-26T15:50:51.999Z</time></trkpt><trkpt lat="40.01621897332151" lon="15.796505943858351"><ele>139.0</ele><time>2026-04-26T15:50:52.999Z</time></trkpt><trkpt lat="40.0160454259356" lon="15.796470127158772"><ele>139.0</ele><time>2026-04-26T15:50:53.999Z</time></trkpt><trkpt lat="40.015873567004945" lon="15.796441876662675"><ele>139.0</ele><time>2026-04-26T15:50:54.999Z</time></trkpt><trkpt lat="40.01570043983489" lon="15.796429180297505"><ele>139.0</ele><time>2026-04-26T15:50:55.999Z</time></trkpt><trkpt lat="40.01552612624586" lon="15.796425092183606"><ele>138.0</ele><time>2026-04-26T15:50:56.999Z</time></trkpt><trkpt lat="40.0153521355546" lon="15.796429956948376"><ele>137.0</ele><time>2026-04-26T15:50:57.999Z</time></trkpt><trkpt lat="40.01517903064882" lon="15.796454523299838"><ele>136.0</ele><time>2026-04-26T15:50:58.999Z</time></trkpt><trkpt lat="40.015005211290024" lon="15.796483729896266"><ele>133.33333333333334</ele><time>2026-04-26T15:50:59.999Z</time></trkpt><trkpt lat="40.01482844815157" lon="15.796523145145766"><ele>130.66666666666666</ele><time>2026-04-26T15:51:00.999Z</time></trkpt><trkpt lat="40.01464893068177" lon="15.796562352091808"><ele>128.0</ele><time>2026-04-26T15:51:01.999Z</time></trkpt><trkpt lat="40.014472085093715" lon="15.796621408087253"><ele>128.0</ele><time>2026-04-26T15:51:02.999Z</time></trkpt><trkpt lat="40.01428873627433" lon="15.796703898102463"><ele>128.0</ele><time>2026-04-26T15:51:03.999Z</time></trkpt><trkpt lat="40.01410684848181" lon="15.796799498521398"><ele>128.0</ele><time>2026-04-26T15:51:04.999Z</time></trkpt><trkpt lat="40.01392613984891" lon="15.79691032250454"><ele>129.33333333333331</ele><time>2026-04-26T15:51:05.999Z</time></trkpt><trkpt lat="40.013747912401286" lon="15.797032610218837"><ele>130.66666666666666</ele><time>2026-04-26T15:51:06.999Z</time></trkpt><trkpt lat="40.01357115470706" lon="15.797164461763375"><ele>132.0</ele><time>2026-04-26T15:51:07.999Z</time></trkpt><trkpt lat="40.01339591581759" lon="15.797298607897572"><ele>132.33333333333334</ele><time>2026-04-26T15:51:08.999Z</time></trkpt><trkpt lat="40.013219602150635" lon="15.797431758369154"><ele>132.66666666666669</ele><time>2026-04-26T15:51:09.999Z</time></trkpt><trkpt lat="40.0130464466581" lon="15.797562282445654"><ele>133.0</ele><time>2026-04-26T15:51:10.999Z</time></trkpt><trkpt lat="40.012873177042" lon="15.797691172158876"><ele>133.0</ele><time>2026-04-26T15:51:11.999Z</time></trkpt><trkpt lat="40.01269946941815" lon="15.797808382242035"><ele>133.0</ele><time>2026-04-26T15:51:12.999Z</time></trkpt><trkpt lat="40.012520811790615" lon="15.797910195811706"><ele>133.0</ele><time>2026-04-26T15:51:13.999Z</time></trkpt><trkpt lat="40.01233678780487" lon="15.797994874132282"><ele>131.33333333333334</ele><time>2026-04-26T15:51:14.999Z</time></trkpt><trkpt lat="40.01214789391864" lon="15.798054463635413"><ele>129.66666666666666</ele><time>2026-04-26T15:51:15.999Z</time></trkpt><trkpt lat="40.0119582327639" lon="15.798100418825102"><ele>128.0</ele><time>2026-04-26T15:51:16.999Z</time></trkpt><trkpt lat="40.01176876596417" lon="15.798132671549073"><ele>129.33333333333331</ele><time>2026-04-26T15:51:17.999Z</time></trkpt><trkpt lat="40.01158230680971" lon="15.798143565400537"><ele>130.66666666666666</ele><time>2026-04-26T15:51:18.999Z</time></trkpt><trkpt lat="40.01139774712451" lon="15.798137365029811"><ele>132.0</ele><time>2026-04-26T15:51:19.999Z</time></trkpt><trkpt lat="40.01121752393183" lon="15.798112396671563"><ele>132.0</ele><time>2026-04-26T15:51:20.999Z</time></trkpt><trkpt lat="40.01103967156541" lon="15.79808609079413"><ele>132.0</ele><time>2026-04-26T15:51:21.999Z</time></trkpt><trkpt lat="40.01086551157539" lon="15.79805657254914"><ele>132.0</ele><time>2026-04-26T15:51:22.999Z</time></trkpt><trkpt lat="40.010694664507085" lon="15.798028869904645"><ele>133.66666666666666</ele><time>2026-04-26T15:51:23.999Z</time></trkpt><trkpt lat="40.01052587376298" lon="15.798016249672282"><ele>135.33333333333331</ele><time>2026-04-26T15:51:24.999Z</time></trkpt><trkpt lat="40.01035793443458" lon="15.798025265222917"><ele>137.0</ele><time>2026-04-26T15:51:25.999Z</time></trkpt><trkpt lat="40.01019450836912" lon="15.79805564059618"><ele>137.0</ele><time>2026-04-26T15:51:26.999Z</time></trkpt><trkpt lat="40.01003116203921" lon="15.79811018313848"><ele>137.0</ele><time>2026-04-26T15:51:27.999Z</time></trkpt><trkpt lat="40.00986835861242" lon="15.79817723902831"><ele>137.0</ele><time>2026-04-26T15:51:28.999Z</time></trkpt><trkpt lat="40.009706916224424" lon="15.798250955762331"><ele>133.33333333333331</ele><time>2026-04-26T15:51:29.999Z</time></trkpt><trkpt lat="40.009541556719505" lon="15.798324960517354"><ele>129.66666666666666</ele><time>2026-04-26T15:51:30.999Z</time></trkpt><trkpt lat="40.009370081141725" lon="15.798394892544444"><ele>126.0</ele><time>2026-04-26T15:51:31.999Z</time></trkpt><trkpt lat="40.009190028283896" lon="15.798440841034608"><ele>124.0</ele><time>2026-04-26T15:51:32.999Z</time></trkpt><trkpt lat="40.00900329848249" lon="15.798478260870796"><ele>122.0</ele><time>2026-04-26T15:51:33.999Z</time></trkpt><trkpt lat="40.00881059224997" lon="15.79851163868119"><ele>120.0</ele><time>2026-04-26T15:51:34.999Z</time></trkpt><trkpt lat="40.008615091869466" lon="15.798543388678016"><ele>124.66666666666666</ele><time>2026-04-26T15:51:36Z</time></trkpt><trkpt lat="40.008415674440506" lon="15.798579774787829"><ele>129.33333333333331</ele><time>2026-04-26T15:51:37Z</time></trkpt><trkpt lat="40.008216706228204" lon="15.798617203258221"><ele>134.0</ele><time>2026-04-26T15:51:38Z</time></trkpt><trkpt lat="40.00801961858982" lon="15.798656119071774"><ele>134.0</ele><time>2026-04-26T15:51:39Z</time></trkpt><trkpt lat="40.007823787809166" lon="15.798692669378113"><ele>134.0</ele><time>2026-04-26T15:51:40Z</time></trkpt><trkpt lat="40.00762777125802" lon="15.798726240246525"><ele>134.0</ele><time>2026-04-26T15:51:41Z</time></trkpt><trkpt lat="40.007434063946725" lon="15.798762239176042"><ele>133.0</ele><time>2026-04-26T15:51:42Z</time></trkpt><trkpt lat="40.0072416774395" lon="15.798799997064936"><ele>132.0</ele><time>2026-04-26T15:51:43Z</time></trkpt><trkpt lat="40.00704949571098" lon="15.798839743174659"><ele>131.0</ele><time>2026-04-26T15:51:44Z</time></trkpt><trkpt lat="40.006865234697756" lon="15.798872986617154"><ele>131.0</ele><time>2026-04-26T15:51:45Z</time></trkpt><trkpt lat="40.00668807594028" lon="15.798905835886375"><ele>131.0</ele><time>2026-04-26T15:51:46Z</time></trkpt><trkpt lat="40.00651062618071" lon="15.79893523176624"><ele>131.0</ele><time>2026-04-26T15:51:47Z</time></trkpt><trkpt lat="40.0063361451804" lon="15.798955497538872"><ele>131.33333333333331</ele><time>2026-04-26T15:51:48Z</time></trkpt><trkpt lat="40.00615935047805" lon="15.798959746438143"><ele>131.66666666666666</ele><time>2026-04-26T15:51:49Z</time></trkpt><trkpt lat="40.00598508660328" lon="15.798943756548164"><ele>132.0</ele><time>2026-04-26T15:51:50Z</time></trkpt><trkpt lat="40.005811853154285" lon="15.798909421155148"><ele>130.0</ele><time>2026-04-26T15:51:51Z</time></trkpt><trkpt lat="40.00563862536542" lon="15.798848483639103"><ele>128.0</ele><time>2026-04-26T15:51:52Z</time></trkpt><trkpt lat="40.005467709209896" lon="15.798760442492766"><ele>126.0</ele><time>2026-04-26T15:51:53Z</time></trkpt><trkpt lat="40.00529655325927" lon="15.798658420141027"><ele>126.0</ele><time>2026-04-26T15:51:54Z</time></trkpt><trkpt lat="40.005124426705045" lon="15.798549855656026"><ele>126.0</ele><time>2026-04-26T15:51:55Z</time></trkpt><trkpt lat="40.00495341135805" lon="15.798439777625488"><ele>126.0</ele><time>2026-04-26T15:51:56Z</time></trkpt><trkpt lat="40.004786436434046" lon="15.79833359804878"><ele>119.33333333333334</ele><time>2026-04-26T15:51:57Z</time></trkpt><trkpt lat="40.00462297658302" lon="15.798226760131437"><ele>112.66666666666667</ele><time>2026-04-26T15:51:58Z</time></trkpt><trkpt lat="40.004459571700764" lon="15.798124455383928"><ele>106.0</ele><time>2026-04-26T15:51:59Z</time></trkpt><trkpt lat="40.004296724253365" lon="15.798020559510329"><ele>106.66666666666667</ele><time>2026-04-26T15:52:00Z</time></trkpt><trkpt lat="40.00413375842546" lon="15.797916836760166"><ele>107.33333333333334</ele><time>2026-04-26T15:52:01Z</time></trkpt><trkpt lat="40.00397311330782" lon="15.797807484470901"><ele>108.0</ele><time>2026-04-26T15:52:02Z</time></trkpt><trkpt lat="40.003806935474515" lon="15.797696897043911"><ele>109.33333333333334</ele><time>2026-04-26T15:52:03Z</time></trkpt><trkpt lat="40.00363557282329" lon="15.79758723279197"><ele>110.66666666666667</ele><time>2026-04-26T15:52:04Z</time></trkpt><trkpt lat="40.003462461761295" lon="15.797478122541678"><ele>112.0</ele><time>2026-04-26T15:52:05Z</time></trkpt><trkpt lat="40.00328801168102" lon="15.797369196014307"><ele>112.0</ele><time>2026-04-26T15:52:06Z</time></trkpt><trkpt lat="40.00310931340655" lon="15.797262809923149"><ele>112.0</ele><time>2026-04-26T15:52:07Z</time></trkpt><trkpt lat="40.002927019340525" lon="15.797166995013349"><ele>112.0</ele><time>2026-04-26T15:52:08Z</time></trkpt><trkpt lat="40.00274239924022" lon="15.797079775166669"><ele>112.0</ele><time>2026-04-26T15:52:09Z</time></trkpt><trkpt lat="40.00255400080917" lon="15.79700663890523"><ele>112.0</ele><time>2026-04-26T15:52:10Z</time></trkpt><trkpt lat="40.00236101349514" lon="15.796962698279518"><ele>112.0</ele><time>2026-04-26T15:52:11Z</time></trkpt><trkpt lat="40.002165441523196" lon="15.796949236027471"><ele>112.33333333333334</ele><time>2026-04-26T15:52:12Z</time></trkpt><trkpt lat="40.001968627314895" lon="15.796961713846514"><ele>112.66666666666666</ele><time>2026-04-26T15:52:13Z</time></trkpt><trkpt lat="40.0017702496921" lon="15.796996806346934"><ele>113.0</ele><time>2026-04-26T15:52:14Z</time></trkpt><trkpt lat="40.00157162547794" lon="15.797050254406836"><ele>115.33333333333333</ele><time>2026-04-26T15:52:15Z</time></trkpt><trkpt lat="40.001370846094574" lon="15.797113092661899"><ele>117.66666666666666</ele><time>2026-04-26T15:52:16Z</time></trkpt><trkpt lat="40.00117021517078" lon="15.797183510326004"><ele>120.0</ele><time>2026-04-26T15:52:17Z</time></trkpt><trkpt lat="40.00096801407404" lon="15.797254899851701"><ele>124.0</ele><time>2026-04-26T15:52:18Z</time></trkpt><trkpt lat="40.00077000789751" lon="15.797321993897185"><ele>128.0</ele><time>2026-04-26T15:52:19Z</time></trkpt><trkpt lat="40.00057953724634" lon="15.797390604299286"><ele>132.0</ele><time>2026-04-26T15:52:20Z</time></trkpt><trkpt lat="40.00039571128766" lon="15.797476256799728"><ele>132.0</ele><time>2026-04-26T15:52:21Z</time></trkpt><trkpt lat="40.00021840524168" lon="15.797586679545141"><ele>132.0</ele><time>2026-04-26T15:52:22Z</time></trkpt><trkpt lat="40.000050656261024" lon="15.797720281662736"><ele>132.0</ele><time>2026-04-26T15:52:23Z</time></trkpt><trkpt lat="39.99989622704857" lon="15.797878859061948"><ele>127.66666666666666</ele><time>2026-04-26T15:52:24Z</time></trkpt><trkpt lat="39.99975598558523" lon="15.798060151336378"><ele>123.33333333333333</ele><time>2026-04-26T15:52:25Z</time></trkpt><trkpt lat="39.9996318638644" lon="15.798260102469682"><ele>119.0</ele><time>2026-04-26T15:52:26Z</time></trkpt><trkpt lat="39.999519432732775" lon="15.79846996722002"><ele>115.66666666666666</ele><time>2026-04-26T15:52:27Z</time></trkpt><trkpt lat="39.999409203439946" lon="15.798678797196917"><ele>112.33333333333334</ele><time>2026-04-26T15:52:28Z</time></trkpt><trkpt lat="39.99930044061211" lon="15.798885063522073"><ele>109.0</ele><time>2026-04-26T15:52:29Z</time></trkpt><trkpt lat="39.99918884015857" lon="15.799074843924014"><ele>110.66666666666667</ele><time>2026-04-26T15:52:30Z</time></trkpt><trkpt lat="39.99907020007467" lon="15.799248162597582"><ele>112.33333333333334</ele><time>2026-04-26T15:52:31Z</time></trkpt><trkpt lat="39.998937326280625" lon="15.799396780572119"><ele>114.0</ele><time>2026-04-26T15:52:32Z</time></trkpt><trkpt lat="39.99879453465742" lon="15.799514724971708"><ele>114.0</ele><time>2026-04-26T15:52:33Z</time></trkpt><trkpt lat="39.99864173108129" lon="15.799620072596484"><ele>114.0</ele><time>2026-04-26T15:52:34Z</time></trkpt><trkpt lat="39.9984796013656" lon="15.799718832067772"><ele>114.0</ele><time>2026-04-26T15:52:35Z</time></trkpt><trkpt lat="39.998304496754734" lon="15.799806926884017"><ele>119.33333333333334</ele><time>2026-04-26T15:52:36Z</time></trkpt><trkpt lat="39.99812626057719" lon="15.79989055477327"><ele>124.66666666666667</ele><time>2026-04-26T15:52:37Z</time></trkpt><trkpt lat="39.997948419515986" lon="15.79997708010004"><ele>130.0</ele><time>2026-04-26T15:52:38Z</time></trkpt><trkpt lat="39.99777483019191" lon="15.800066087903724"><ele>130.0</ele><time>2026-04-26T15:52:39Z</time></trkpt><trkpt lat="39.997602238849" lon="15.800150484114603"><ele>130.0</ele><time>2026-04-26T15:52:40Z</time></trkpt><trkpt lat="39.99742973579723" lon="15.80021881107365"><ele>130.0</ele><time>2026-04-26T15:52:41Z</time></trkpt><trkpt lat="39.99725620609713" lon="15.800266020698267"><ele>130.33333333333334</ele><time>2026-04-26T15:52:42Z</time></trkpt><trkpt lat="39.997078151893774" lon="15.800287869869962"><ele>130.66666666666666</ele><time>2026-04-26T15:52:43Z</time></trkpt><trkpt lat="39.996898131533335" lon="15.800278831157245"><ele>131.0</ele><time>2026-04-26T15:52:44Z</time></trkpt><trkpt lat="39.99671818869041" lon="15.8002484932532"><ele>132.66666666666666</ele><time>2026-04-26T15:52:45Z</time></trkpt><trkpt lat="39.99654018564174" lon="15.800191938038859"><ele>134.33333333333334</ele><time>2026-04-26T15:52:46Z</time></trkpt><trkpt lat="39.99636566548509" lon="15.800114373318896"><ele>136.0</ele><time>2026-04-26T15:52:47Z</time></trkpt><trkpt lat="39.99619331230933" lon="15.800020798116394"><ele>136.0</ele><time>2026-04-26T15:52:48Z</time></trkpt><trkpt lat="39.996023512385534" lon="15.799916875959171"><ele>136.0</ele><time>2026-04-26T15:52:49Z</time></trkpt><trkpt lat="39.99585107547893" lon="15.79981276783552"><ele>136.0</ele><time>2026-04-26T15:52:50Z</time></trkpt><trkpt lat="39.99567901119516" lon="15.799705078321814"><ele>131.66666666666669</ele><time>2026-04-26T15:52:51Z</time></trkpt><trkpt lat="39.99550403639452" lon="15.799604166447674"><ele>127.33333333333334</ele><time>2026-04-26T15:52:52Z</time></trkpt><trkpt lat="39.995326054689514" lon="15.79951862135498"><ele>123.0</ele><time>2026-04-26T15:52:53Z</time></trkpt><trkpt lat="39.99514113320894" lon="15.799453880159389"><ele>120.0</ele><time>2026-04-26T15:52:54Z</time></trkpt><trkpt lat="39.99495265565826" lon="15.799408482564564"><ele>117.0</ele><time>2026-04-26T15:52:55Z</time></trkpt><trkpt lat="39.994761868551336" lon="15.799367799172403"><ele>114.0</ele><time>2026-04-26T15:52:56Z</time></trkpt><trkpt lat="39.994569905956844" lon="15.799337227419954"><ele>117.66666666666666</ele><time>2026-04-26T15:52:57Z</time></trkpt><trkpt lat="39.99437856116026" lon="15.799316501907128"><ele>121.33333333333333</ele><time>2026-04-26T15:52:57.999Z</time></trkpt><trkpt lat="39.994185754520444" lon="15.799295342854373"><ele>125.0</ele><time>2026-04-26T15:52:58.999Z</time></trkpt><trkpt lat="39.99399165042759" lon="15.799275877619012"><ele>125.0</ele><time>2026-04-26T15:52:59.999Z</time></trkpt><trkpt lat="39.99379981423869" lon="15.799265055707995"><ele>125.0</ele><time>2026-04-26T15:53:00.999Z</time></trkpt><trkpt lat="39.99361098248405" lon="15.799269012786011"><ele>125.0</ele><time>2026-04-26T15:53:01.999Z</time></trkpt><trkpt lat="39.99342264998045" lon="15.799292585717833"><ele>123.33333333333333</ele><time>2026-04-26T15:53:02.999Z</time></trkpt><trkpt lat="39.99323470590249" lon="15.799314640689252"><ele>121.66666666666666</ele><time>2026-04-26T15:53:03.999Z</time></trkpt><trkpt lat="39.993050093862244" lon="15.799325410283025"><ele>120.0</ele><time>2026-04-26T15:53:04.999Z</time></trkpt><trkpt lat="39.99285937966615" lon="15.799349686969148"><ele>117.33333333333334</ele><time>2026-04-26T15:53:05.999Z</time></trkpt><trkpt lat="39.992666146787656" lon="15.799431523849211"><ele>114.66666666666667</ele><time>2026-04-26T15:53:06.999Z</time></trkpt><trkpt lat="39.99249586839921" lon="15.799551315157958"><ele>112.0</ele><time>2026-04-26T15:53:07.999Z</time></trkpt><trkpt lat="39.99235765919045" lon="15.799708992989947"><ele>112.0</ele><time>2026-04-26T15:53:08.999Z</time></trkpt><trkpt lat="39.99218649561794" lon="15.79978589686344"><ele>112.0</ele><time>2026-04-26T15:53:09.999Z</time></trkpt><trkpt lat="39.992014743652966" lon="15.79985931242004"><ele>112.0</ele><time>2026-04-26T15:53:10.999Z</time></trkpt><trkpt lat="39.991843584978916" lon="15.79993461469572"><ele>112.0</ele><time>2026-04-26T15:53:11.999Z</time></trkpt><trkpt lat="39.991675841825824" lon="15.80002024867919"><ele>112.0</ele><time>2026-04-26T15:53:12.999Z</time></trkpt><trkpt lat="39.99151199823469" lon="15.800119650084003"><ele>112.0</ele><time>2026-04-26T15:53:13.999Z</time></trkpt><trkpt lat="39.99135616986108" lon="15.800235623875718"><ele>109.33333333333334</ele><time>2026-04-26T15:53:14.999Z</time></trkpt><trkpt lat="39.99120904454273" lon="15.800366397207165"><ele>106.66666666666666</ele><time>2026-04-26T15:53:15.999Z</time></trkpt><trkpt lat="39.9910728441581" lon="15.800512395773971"><ele>104.0</ele><time>2026-04-26T15:53:16.999Z</time></trkpt><trkpt lat="39.99094521361441" lon="15.800678269827296"><ele>103.33333333333333</ele><time>2026-04-26T15:53:17.999Z</time></trkpt><trkpt lat="39.99082446890685" lon="15.800860511968146"><ele>102.66666666666666</ele><time>2026-04-26T15:53:18.999Z</time></trkpt><trkpt lat="39.99070734492569" lon="15.801048732001867"><ele>102.0</ele><time>2026-04-26T15:53:19.999Z</time></trkpt><trkpt lat="39.990598092324966" lon="15.801250808371073"><ele>102.0</ele><time>2026-04-26T15:53:20.999Z</time></trkpt><trkpt lat="39.990501383297456" lon="15.801460555095524"><ele>102.0</ele><time>2026-04-26T15:53:21.999Z</time></trkpt><trkpt lat="39.99040623919352" lon="15.801677089968935"><ele>102.0</ele><time>2026-04-26T15:53:22.999Z</time></trkpt><trkpt lat="39.9903145259874" lon="15.80190126371434"><ele>99.0</ele><time>2026-04-26T15:53:23.999Z</time></trkpt><trkpt lat="39.990225123274" lon="15.802125771306105"><ele>96.0</ele><time>2026-04-26T15:53:24.999Z</time></trkpt><trkpt lat="39.99013977325274" lon="15.802347563830134"><ele>93.0</ele><time>2026-04-26T15:53:25.999Z</time></trkpt><trkpt lat="39.990058341007824" lon="15.80256849858135"><ele>99.0</ele><time>2026-04-26T15:53:26.999Z</time></trkpt><trkpt lat="39.989975822926475" lon="15.802790371731"><ele>105.0</ele><time>2026-04-26T15:53:27.999Z</time></trkpt><trkpt lat="39.989889089662455" lon="15.80300794718855"><ele>111.0</ele><time>2026-04-26T15:53:28.999Z</time></trkpt><trkpt lat="39.98980283524775" lon="15.80322380234788"><ele>111.0</ele><time>2026-04-26T15:53:29.999Z</time></trkpt><trkpt lat="39.98971763607471" lon="15.803437127467461"><ele>111.0</ele><time>2026-04-26T15:53:30.999Z</time></trkpt><trkpt lat="39.98962857076798" lon="15.803649871175388"><ele>111.0</ele><time>2026-04-26T15:53:31.999Z</time></trkpt><trkpt lat="39.98953260332224" lon="15.80385779210641"><ele>108.66666666666666</ele><time>2026-04-26T15:53:32.999Z</time></trkpt><trkpt lat="39.989426287228724" lon="15.804052254560176"><ele>106.33333333333333</ele><time>2026-04-26T15:53:33.999Z</time></trkpt><trkpt lat="39.98930475417687" lon="15.804229030617703"><ele>104.0</ele><time>2026-04-26T15:53:34.999Z</time></trkpt><trkpt lat="39.989168553066236" lon="15.804392036836523"><ele>104.0</ele><time>2026-04-26T15:53:35.999Z</time></trkpt><trkpt lat="39.9890265117579" lon="15.804542000805885"><ele>104.0</ele><time>2026-04-26T15:53:36.999Z</time></trkpt><trkpt lat="39.98887339519578" lon="15.804668825681086"><ele>104.0</ele><time>2026-04-26T15:53:37.999Z</time></trkpt><trkpt lat="39.98871036806236" lon="15.804773294829479"><ele>104.0</ele><time>2026-04-26T15:53:38.999Z</time></trkpt><trkpt lat="39.98853258966131" lon="15.804850565567875"><ele>104.0</ele><time>2026-04-26T15:53:39.999Z</time></trkpt><trkpt lat="39.98835203493738" lon="15.804903453652425"><ele>104.0</ele><time>2026-04-26T15:53:40.999Z</time></trkpt><trkpt lat="39.988166726786524" lon="15.80492735982252"><ele>103.33333333333333</ele><time>2026-04-26T15:53:42Z</time></trkpt><trkpt lat="39.987981967872855" lon="15.804935100558666"><ele>102.66666666666666</ele><time>2026-04-26T15:53:43Z</time></trkpt><trkpt lat="39.987794442960364" lon="15.804935114940749"><ele>102.0</ele><time>2026-04-26T15:53:44Z</time></trkpt><trkpt lat="39.987605532531596" lon="15.80492530447146"><ele>102.33333333333334</ele><time>2026-04-26T15:53:45Z</time></trkpt><trkpt lat="39.987413946075606" lon="15.804905695156267"><ele>102.66666666666667</ele><time>2026-04-26T15:53:46Z</time></trkpt><trkpt lat="39.98722411260655" lon="15.80488120250849"><ele>103.0</ele><time>2026-04-26T15:53:47Z</time></trkpt><trkpt lat="39.987034179057" lon="15.804859572725025"><ele>103.0</ele><time>2026-04-26T15:53:48Z</time></trkpt><trkpt lat="39.98684410446455" lon="15.804853374532938"><ele>103.0</ele><time>2026-04-26T15:53:49Z</time></trkpt><trkpt lat="39.986651159871094" lon="15.80485124451118"><ele>103.0</ele><time>2026-04-26T15:53:50Z</time></trkpt><trkpt lat="39.986467450273565" lon="15.80482496374115"><ele>100.66666666666667</ele><time>2026-04-26T15:53:51Z</time></trkpt><trkpt lat="39.986285405417405" lon="15.804815627168898"><ele>98.33333333333334</ele><time>2026-04-26T15:53:52Z</time></trkpt><trkpt lat="39.98610527336702" lon="15.804883680883783"><ele>96.0</ele><time>2026-04-26T15:53:53Z</time></trkpt><trkpt lat="39.985929232483855" lon="15.804887627064137"><ele>94.33333333333333</ele><time>2026-04-26T15:53:54Z</time></trkpt><trkpt lat="39.98575201262419" lon="15.804876740883184"><ele>92.66666666666666</ele><time>2026-04-26T15:53:55Z</time></trkpt><trkpt lat="39.98559052401254" lon="15.804842376755298"><ele>91.0</ele><time>2026-04-26T15:53:56Z</time></trkpt><trkpt lat="39.9854341969098" lon="15.804763772662897"><ele>91.0</ele><time>2026-04-26T15:53:57Z</time></trkpt><trkpt lat="39.985281706953565" lon="15.804667961494028"><ele>91.0</ele><time>2026-04-26T15:53:58Z</time></trkpt><trkpt lat="39.98514080554024" lon="15.804545550599187"><ele>91.0</ele><time>2026-04-26T15:53:59Z</time></trkpt><trkpt lat="39.985010605546194" lon="15.804398170261512"><ele>93.33333333333333</ele><time>2026-04-26T15:54:00Z</time></trkpt><trkpt lat="39.98489713602727" lon="15.804227771799312"><ele>95.66666666666666</ele><time>2026-04-26T15:54:01Z</time></trkpt><trkpt lat="39.98480229645898" lon="15.804035183073136"><ele>98.0</ele><time>2026-04-26T15:54:02Z</time></trkpt><trkpt lat="39.984734155614504" lon="15.803827628743333"><ele>98.0</ele><time>2026-04-26T15:54:03Z</time></trkpt><trkpt lat="39.98469158632631" lon="15.803597044437943"><ele>98.0</ele><time>2026-04-26T15:54:04Z</time></trkpt><trkpt lat="39.9846588833469" lon="15.803364434961486"><ele>98.0</ele><time>2026-04-26T15:54:05Z</time></trkpt><trkpt lat="39.98462658522214" lon="15.803129695481651"><ele>101.33333333333333</ele><time>2026-04-26T15:54:06Z</time></trkpt><trkpt lat="39.9845961704575" lon="15.80288927198225"><ele>104.66666666666666</ele><time>2026-04-26T15:54:07Z</time></trkpt><trkpt lat="39.98456571104984" lon="15.802647582815105"><ele>108.0</ele><time>2026-04-26T15:54:08Z</time></trkpt><trkpt lat="39.98453513498531" lon="15.802399147791897"><ele>109.0</ele><time>2026-04-26T15:54:09Z</time></trkpt><trkpt lat="39.984502083950225" lon="15.802156388274053"><ele>110.0</ele><time>2026-04-26T15:54:10Z</time></trkpt><trkpt lat="39.98447036815949" lon="15.801914336085273"><ele>111.0</ele><time>2026-04-26T15:54:11Z</time></trkpt><trkpt lat="39.9844277818332" lon="15.801676504982982"><ele>112.33333333333334</ele><time>2026-04-26T15:54:12Z</time></trkpt><trkpt lat="39.98436409875126" lon="15.801445620686568"><ele>113.66666666666667</ele><time>2026-04-26T15:54:13Z</time></trkpt><trkpt lat="39.984275254690296" lon="15.801230523635935"><ele>115.0</ele><time>2026-04-26T15:54:14Z</time></trkpt><trkpt lat="39.984158464896225" lon="15.801039225660205"><ele>105.33333333333334</ele><time>2026-04-26T15:54:15Z</time></trkpt><trkpt lat="39.984016545411436" lon="15.800877737864722"><ele>95.66666666666667</ele><time>2026-04-26T15:54:16Z</time></trkpt><trkpt lat="39.983866410082236" lon="15.800728490823568"><ele>86.0</ele><time>2026-04-26T15:54:17Z</time></trkpt><trkpt lat="39.983709257767" lon="15.800594295605887"><ele>86.0</ele><time>2026-04-26T15:54:18Z</time></trkpt><trkpt lat="39.98354498717729" lon="15.800466493978755"><ele>86.0</ele><time>2026-04-26T15:54:19Z</time></trkpt><trkpt lat="39.98338405460341" lon="15.800335231975627"><ele>86.0</ele><time>2026-04-26T15:54:20Z</time></trkpt><trkpt lat="39.98322669758171" lon="15.800198134606424"><ele>88.66666666666667</ele><time>2026-04-26T15:54:21Z</time></trkpt><trkpt lat="39.98306964219467" lon="15.80006024255178"><ele>91.33333333333333</ele><time>2026-04-26T15:54:22Z</time></trkpt><trkpt lat="39.982915930710824" lon="15.799927798806102"><ele>94.0</ele><time>2026-04-26T15:54:23Z</time></trkpt><trkpt lat="39.982762595711094" lon="15.799797955035293"><ele>94.0</ele><time>2026-04-26T15:54:24Z</time></trkpt><trkpt lat="39.982609148539005" lon="15.799671657165149"><ele>94.0</ele><time>2026-04-26T15:54:25Z</time></trkpt><trkpt lat="39.98245542227569" lon="15.799552633096468"><ele>94.0</ele><time>2026-04-26T15:54:26Z</time></trkpt><trkpt lat="39.98230292056688" lon="15.799431314019518"><ele>98.66666666666666</ele><time>2026-04-26T15:54:27Z</time></trkpt><trkpt lat="39.98214991526231" lon="15.799316742651964"><ele>103.33333333333333</ele><time>2026-04-26T15:54:28Z</time></trkpt><trkpt lat="39.981996569199076" lon="15.799208193364247"><ele>108.0</ele><time>2026-04-26T15:54:29Z</time></trkpt><trkpt lat="39.98184244099312" lon="15.799108383073579"><ele>108.0</ele><time>2026-04-26T15:54:30Z</time></trkpt><trkpt lat="39.9816863718021" lon="15.799003970117296"><ele>108.0</ele><time>2026-04-26T15:54:31Z</time></trkpt><trkpt lat="39.98152963099235" lon="15.798900368482592"><ele>108.0</ele><time>2026-04-26T15:54:32Z</time></trkpt><trkpt lat="39.98137401909183" lon="15.798796107036152"><ele>102.33333333333333</ele><time>2026-04-26T15:54:33Z</time></trkpt><trkpt lat="39.98121794893201" lon="15.798693191939147"><ele>96.66666666666666</ele><time>2026-04-26T15:54:34Z</time></trkpt><trkpt lat="39.981060097906976" lon="15.798593179083005"><ele>91.0</ele><time>2026-04-26T15:54:35Z</time></trkpt><trkpt lat="39.98090040320166" lon="15.798491302513176"><ele>97.0</ele><time>2026-04-26T15:54:36Z</time></trkpt><trkpt lat="39.980722351105385" lon="15.79837859845559"><ele>103.0</ele><time>2026-04-26T15:54:37.068Z</time></trkpt><trkpt lat="39.980548469444486" lon="15.79827060964802"><ele>109.0</ele><time>2026-04-26T15:54:38.052Z</time></trkpt><trkpt lat="39.98036761179311" lon="15.798160738078936"><ele>109.0</ele><time>2026-04-26T15:54:39.051Z</time></trkpt><trkpt lat="39.98018463873007" lon="15.79805268943036"><ele>109.0</ele><time>2026-04-26T15:54:40.048Z</time></trkpt><trkpt lat="39.98001146526313" lon="15.79794935012899"><ele>109.0</ele><time>2026-04-26T15:54:41Z</time></trkpt><trkpt lat="39.979835838275484" lon="15.797746117154201"><ele>102.66666666666667</ele><time>2026-04-26T15:54:42Z</time></trkpt><trkpt lat="39.97966546707008" lon="15.797593549497858"><ele>96.33333333333334</ele><time>2026-04-26T15:54:43Z</time></trkpt><trkpt lat="39.97946087690429" lon="15.797442218072362"><ele>90.0</ele><time>2026-04-26T15:54:44Z</time></trkpt><trkpt lat="39.97928796448091" lon="15.797317684621177"><ele>86.0</ele><time>2026-04-26T15:54:45Z</time></trkpt><trkpt lat="39.97912486199734" lon="15.797188503237253"><ele>82.0</ele><time>2026-04-26T15:54:46Z</time></trkpt><trkpt lat="39.978957286007734" lon="15.797059394486878"><ele>78.0</ele><time>2026-04-26T15:54:47Z</time></trkpt><trkpt lat="39.97879286821254" lon="15.796939100221538"><ele>80.33333333333333</ele><time>2026-04-26T15:54:48Z</time></trkpt><trkpt lat="39.97862785730625" lon="15.796828199781181"><ele>82.66666666666666</ele><time>2026-04-26T15:54:49Z</time></trkpt><trkpt lat="39.978459325683" lon="15.796739459235269"><ele>85.0</ele><time>2026-04-26T15:54:50Z</time></trkpt><trkpt lat="39.978288933224306" lon="15.796670480443462"><ele>85.0</ele><time>2026-04-26T15:54:51Z</time></trkpt><trkpt lat="39.97811634075444" lon="15.796621613825087"><ele>85.0</ele><time>2026-04-26T15:54:52Z</time></trkpt><trkpt lat="39.97793876682495" lon="15.796616798668348"><ele>85.0</ele><time>2026-04-26T15:54:52.999Z</time></trkpt><trkpt lat="39.977758489529315" lon="15.796646537503994"><ele>85.0</ele><time>2026-04-26T15:54:53.999Z</time></trkpt><trkpt lat="39.97758174901993" lon="15.796692592970636"><ele>85.0</ele><time>2026-04-26T15:54:54.999Z</time></trkpt><trkpt lat="39.977405145998766" lon="15.79673997310627"><ele>85.0</ele><time>2026-04-26T15:54:55.999Z</time></trkpt><trkpt lat="39.97722709983752" lon="15.796780343325144"><ele>83.33333333333333</ele><time>2026-04-26T15:54:56.999Z</time></trkpt><trkpt lat="39.97705107687718" lon="15.796796938222595"><ele>81.66666666666667</ele><time>2026-04-26T15:54:57.999Z</time></trkpt><trkpt lat="39.97687518952848" lon="15.796807998819654"><ele>80.0</ele><time>2026-04-26T15:54:58.999Z</time></trkpt><trkpt lat="39.97669471058453" lon="15.7968071317691"><ele>81.33333333333334</ele><time>2026-04-26T15:54:59.999Z</time></trkpt><trkpt lat="39.97651325170065" lon="15.796787342528605"><ele>82.66666666666667</ele><time>2026-04-26T15:55:00.999Z</time></trkpt><trkpt lat="39.97632970367893" lon="15.796755751487224"><ele>84.0</ele><time>2026-04-26T15:55:01.999Z</time></trkpt><trkpt lat="39.976146687886875" lon="15.796698241965968"><ele>84.0</ele><time>2026-04-26T15:55:02.999Z</time></trkpt><trkpt lat="39.9759589573024" lon="15.796626662844826"><ele>84.0</ele><time>2026-04-26T15:55:03.999Z</time></trkpt><trkpt lat="39.97577689152886" lon="15.796548991867548"><ele>84.0</ele><time>2026-04-26T15:55:04.999Z</time></trkpt><trkpt lat="39.97558743139272" lon="15.796471543047934"><ele>80.66666666666667</ele><time>2026-04-26T15:55:05.999Z</time></trkpt><trkpt lat="39.97539873687517" lon="15.796392311198868"><ele>77.33333333333334</ele><time>2026-04-26T15:55:06.999Z</time></trkpt><trkpt lat="39.975212441474945" lon="15.796311053918137"><ele>74.0</ele><time>2026-04-26T15:55:07.999Z</time></trkpt><trkpt lat="39.97503116440354" lon="15.796224651418385"><ele>71.66666666666667</ele><time>2026-04-26T15:55:08.999Z</time></trkpt><trkpt lat="39.974848126464856" lon="15.79613420711627"><ele>69.33333333333333</ele><time>2026-04-26T15:55:09.999Z</time></trkpt><trkpt lat="39.97465830389247" lon="15.796033235298216"><ele>67.0</ele><time>2026-04-26T15:55:10.999Z</time></trkpt><trkpt lat="39.97446865977382" lon="15.795946960396883"><ele>71.0</ele><time>2026-04-26T15:55:11.999Z</time></trkpt><trkpt lat="39.97428077522704" lon="15.795857759241507"><ele>75.0</ele><time>2026-04-26T15:55:12.999Z</time></trkpt><trkpt lat="39.974089182252825" lon="15.795759496102727"><ele>79.0</ele><time>2026-04-26T15:55:13.999Z</time></trkpt><trkpt lat="39.9738974724849" lon="15.795654400003592"><ele>79.0</ele><time>2026-04-26T15:55:14.999Z</time></trkpt><trkpt lat="39.97370656129285" lon="15.795542057417151"><ele>79.0</ele><time>2026-04-26T15:55:15.999Z</time></trkpt><trkpt lat="39.97351210168396" lon="15.795424746562079"><ele>79.0</ele><time>2026-04-26T15:55:16.999Z</time></trkpt><trkpt lat="39.97331624878583" lon="15.795301142641607"><ele>81.0</ele><time>2026-04-26T15:55:17.999Z</time></trkpt><trkpt lat="39.97312548108691" lon="15.795167727769861"><ele>83.0</ele><time>2026-04-26T15:55:18.999Z</time></trkpt><trkpt lat="39.97294017712532" lon="15.795024254018912"><ele>85.0</ele><time>2026-04-26T15:55:19.999Z</time></trkpt><trkpt lat="39.97276106229244" lon="15.794878836149062"><ele>85.0</ele><time>2026-04-26T15:55:20.999Z</time></trkpt><trkpt lat="39.972586743465115" lon="15.794736761543549"><ele>85.0</ele><time>2026-04-26T15:55:21.999Z</time></trkpt><trkpt lat="39.97241222710329" lon="15.794597722851424"><ele>85.0</ele><time>2026-04-26T15:55:22.999Z</time></trkpt><trkpt lat="39.972238387661186" lon="15.7944613704155"><ele>89.33333333333333</ele><time>2026-04-26T15:55:23.999Z</time></trkpt><trkpt lat="39.972069418127035" lon="15.794325384875808"><ele>93.66666666666666</ele><time>2026-04-26T15:55:24.999Z</time></trkpt><trkpt lat="39.97190892826109" lon="15.794181733731431"><ele>98.0</ele><time>2026-04-26T15:55:25.999Z</time></trkpt><trkpt lat="39.97176163399177" lon="15.794021874582997"><ele>95.33333333333333</ele><time>2026-04-26T15:55:26.999Z</time></trkpt><trkpt lat="39.97162447106989" lon="15.79384928957205"><ele>92.66666666666666</ele><time>2026-04-26T15:55:27.999Z</time></trkpt><trkpt lat="39.97149569707086" lon="15.79366821469433"><ele>90.0</ele><time>2026-04-26T15:55:28.999Z</time></trkpt><trkpt lat="39.9713754222724" lon="15.793474705785254"><ele>90.0</ele><time>2026-04-26T15:55:29.999Z</time></trkpt><trkpt lat="39.97126582057274" lon="15.793274332064462"><ele>90.0</ele><time>2026-04-26T15:55:30.999Z</time></trkpt><trkpt lat="39.97117226667633" lon="15.793055224090185"><ele>90.0</ele><time>2026-04-26T15:55:31.999Z</time></trkpt><trkpt lat="39.97108759680107" lon="15.792828600719597"><ele>85.33333333333333</ele><time>2026-04-26T15:55:32.999Z</time></trkpt><trkpt lat="39.97101318250173" lon="15.792585764892896"><ele>80.66666666666666</ele><time>2026-04-26T15:55:33.999Z</time></trkpt><trkpt lat="39.97095038990113" lon="15.792329266957356"><ele>76.0</ele><time>2026-04-26T15:55:34.999Z</time></trkpt><trkpt lat="39.9708942071301" lon="15.792061717415997"><ele>69.66666666666666</ele><time>2026-04-26T15:55:35.999Z</time></trkpt><trkpt lat="39.970840912278334" lon="15.791787003871306"><ele>63.33333333333333</ele><time>2026-04-26T15:55:36.999Z</time></trkpt><trkpt lat="39.970784950399626" lon="15.791511662761382"><ele>57.0</ele><time>2026-04-26T15:55:37.999Z</time></trkpt><trkpt lat="39.97072129083881" lon="15.79123266451041"><ele>57.0</ele><time>2026-04-26T15:55:38.999Z</time></trkpt><trkpt lat="39.97066047519438" lon="15.790955550602979"><ele>57.0</ele><time>2026-04-26T15:55:39.999Z</time></trkpt><trkpt lat="39.970598043069096" lon="15.790673892211178"><ele>57.0</ele><time>2026-04-26T15:55:40.999Z</time></trkpt><trkpt lat="39.97052903907467" lon="15.790395179818605"><ele>57.0</ele><time>2026-04-26T15:55:41.999Z</time></trkpt><trkpt lat="39.9704479233652" lon="15.790123168793217"><ele>57.0</ele><time>2026-04-26T15:55:42.999Z</time></trkpt><trkpt lat="39.97035621574893" lon="15.789859285485328"><ele>57.0</ele><time>2026-04-26T15:55:43.999Z</time></trkpt><trkpt lat="39.97025560497553" lon="15.789602979056056"><ele>57.0</ele><time>2026-04-26T15:55:44.999Z</time></trkpt><trkpt lat="39.97014625582719" lon="15.78935592507328"><ele>57.0</ele><time>2026-04-26T15:55:45.999Z</time></trkpt><trkpt lat="39.970029881761135" lon="15.789119227576798"><ele>57.0</ele><time>2026-04-26T15:55:46.999Z</time></trkpt><trkpt lat="39.96991011739989" lon="15.788892825741353"><ele>56.33333333333333</ele><time>2026-04-26T15:55:48Z</time></trkpt><trkpt lat="39.969786982659755" lon="15.788677926824132"><ele>55.666666666666664</ele><time>2026-04-26T15:55:49Z</time></trkpt><trkpt lat="39.969663871841234" lon="15.788469006892118"><ele>55.0</ele><time>2026-04-26T15:55:50Z</time></trkpt><trkpt lat="39.969546684484904" lon="15.788261285081893"><ele>60.33333333333333</ele><time>2026-04-26T15:55:51Z</time></trkpt><trkpt lat="39.96944241072503" lon="15.788049621157805"><ele>65.66666666666667</ele><time>2026-04-26T15:55:52Z</time></trkpt><trkpt lat="39.969356993087935" lon="15.787831875696547"><ele>71.0</ele><time>2026-04-26T15:55:53Z</time></trkpt><trkpt lat="39.96929422488555" lon="15.787606606387536"><ele>81.0</ele><time>2026-04-26T15:55:54Z</time></trkpt><trkpt lat="39.96925562302289" lon="15.787374250619772"><ele>91.0</ele><time>2026-04-26T15:55:55Z</time></trkpt><trkpt lat="39.96923926433785" lon="15.787137941079086"><ele>101.0</ele><time>2026-04-26T15:55:56Z</time></trkpt><trkpt lat="39.969248652259374" lon="15.786897320095553"><ele>100.0</ele><time>2026-04-26T15:55:57Z</time></trkpt><trkpt lat="39.969276777600676" lon="15.786651043505952"><ele>99.0</ele><time>2026-04-26T15:55:58Z</time></trkpt><trkpt lat="39.96930015353227" lon="15.786397413344956"><ele>98.0</ele><time>2026-04-26T15:55:59Z</time></trkpt><trkpt lat="39.96932166183483" lon="15.786140832414214"><ele>96.33333333333333</ele><time>2026-04-26T15:56:00Z</time></trkpt><trkpt lat="39.96934269076494" lon="15.785883336245732"><ele>94.66666666666666</ele><time>2026-04-26T15:56:01Z</time></trkpt><trkpt lat="39.969355576350075" lon="15.785628865485481"><ele>93.0</ele><time>2026-04-26T15:56:02Z</time></trkpt><trkpt lat="39.96935124198052" lon="15.785378161137722"><ele>84.66666666666667</ele><time>2026-04-26T15:56:03Z</time></trkpt><trkpt lat="39.96931665197563" lon="15.78513193656262"><ele>76.33333333333334</ele><time>2026-04-26T15:56:04Z</time></trkpt><trkpt lat="39.96924851480144" lon="15.784895873553175"><ele>68.0</ele><time>2026-04-26T15:56:05Z</time></trkpt><trkpt lat="39.969152762379714" lon="15.784675464928055"><ele>68.0</ele><time>2026-04-26T15:56:06Z</time></trkpt><trkpt lat="39.96904331555712" lon="15.784461013673836"><ele>68.0</ele><time>2026-04-26T15:56:07Z</time></trkpt><trkpt lat="39.968920409932906" lon="15.78424892069401"><ele>68.0</ele><time>2026-04-26T15:56:08Z</time></trkpt><trkpt lat="39.96878733346916" lon="15.784051639470897"><ele>64.33333333333334</ele><time>2026-04-26T15:56:09Z</time></trkpt><trkpt lat="39.9686440456515" lon="15.783866785015768"><ele>60.66666666666667</ele><time>2026-04-26T15:56:10Z</time></trkpt><trkpt lat="39.96848717199445" lon="15.783701882979177"><ele>57.0</ele><time>2026-04-26T15:56:11Z</time></trkpt><trkpt lat="39.96832132177659" lon="15.783548553100454"><ele>62.66666666666667</ele><time>2026-04-26T15:56:12Z</time></trkpt><trkpt lat="39.96815941297699" lon="15.78339728322243"><ele>68.33333333333334</ele><time>2026-04-26T15:56:13Z</time></trkpt><trkpt lat="39.96801337499289" lon="15.783231231142183"><ele>74.0</ele><time>2026-04-26T15:56:14Z</time></trkpt><trkpt lat="39.96788826063934" lon="15.783036997628429"><ele>74.0</ele><time>2026-04-26T15:56:15Z</time></trkpt><trkpt lat="39.9677774493527" lon="15.782828044853957"><ele>74.0</ele><time>2026-04-26T15:56:16Z</time></trkpt><trkpt lat="39.967683336192856" lon="15.782604631441114"><ele>74.0</ele><time>2026-04-26T15:56:17Z</time></trkpt><trkpt lat="39.96760450880164" lon="15.782368438690025"><ele>79.0</ele><time>2026-04-26T15:56:18Z</time></trkpt><trkpt lat="39.96753864349314" lon="15.782122736408235"><ele>84.0</ele><time>2026-04-26T15:56:19Z</time></trkpt><trkpt lat="39.96747677907213" lon="15.78187187972754"><ele>89.0</ele><time>2026-04-26T15:56:20Z</time></trkpt><trkpt lat="39.96741188401918" lon="15.781622354622273"><ele>77.0</ele><time>2026-04-26T15:56:21Z</time></trkpt><trkpt lat="39.96734601430942" lon="15.78136726128766"><ele>65.0</ele><time>2026-04-26T15:56:22Z</time></trkpt><trkpt lat="39.9672812164894" lon="15.781110361839739"><ele>53.0</ele><time>2026-04-26T15:56:23Z</time></trkpt><trkpt lat="39.967216758942115" lon="15.780853227459069"><ele>52.0</ele><time>2026-04-26T15:56:24Z</time></trkpt><trkpt lat="39.967151478971154" lon="15.780591343237367"><ele>51.0</ele><time>2026-04-26T15:56:25Z</time></trkpt><trkpt lat="39.96708780217231" lon="15.780330089587872"><ele>50.0</ele><time>2026-04-26T15:56:26Z</time></trkpt><trkpt lat="39.96702539601931" lon="15.78006441648723"><ele>54.66666666666667</ele><time>2026-04-26T15:56:27Z</time></trkpt><trkpt lat="39.96696397257513" lon="15.779802761975256"><ele>59.33333333333333</ele><time>2026-04-26T15:56:28Z</time></trkpt><trkpt lat="39.966902291521535" lon="15.779545198791864"><ele>64.0</ele><time>2026-04-26T15:56:29Z</time></trkpt><trkpt lat="39.966840170555365" lon="15.779290512578552"><ele>61.0</ele><time>2026-04-26T15:56:30Z</time></trkpt><trkpt lat="39.96677513209518" lon="15.779043658631709"><ele>58.0</ele><time>2026-04-26T15:56:31Z</time></trkpt><trkpt lat="39.96670063196379" lon="15.778805432308918"><ele>55.0</ele><time>2026-04-26T15:56:32Z</time></trkpt><trkpt lat="39.966612088406336" lon="15.77858131248786"><ele>60.33333333333333</ele><time>2026-04-26T15:56:33Z</time></trkpt><trkpt lat="39.966501716096225" lon="15.778370792872723"><ele>65.66666666666667</ele><time>2026-04-26T15:56:34Z</time></trkpt><trkpt lat="39.96637805854888" lon="15.778176347940999"><ele>71.0</ele><time>2026-04-26T15:56:35Z</time></trkpt><trkpt lat="39.96624413638287" lon="15.777992791651965"><ele>71.0</ele><time>2026-04-26T15:56:36Z</time></trkpt><trkpt lat="39.96609510861648" lon="15.777823974287417"><ele>71.0</ele><time>2026-04-26T15:56:37Z</time></trkpt><trkpt lat="39.9659347086651" lon="15.777670420005164"><ele>71.0</ele><time>2026-04-26T15:56:38Z</time></trkpt><trkpt lat="39.96576750466092" lon="15.777543344463995"><ele>69.66666666666667</ele><time>2026-04-26T15:56:39Z</time></trkpt><trkpt lat="39.965596404402234" lon="15.777434757076135"><ele>68.33333333333333</ele><time>2026-04-26T15:56:40Z</time></trkpt><trkpt lat="39.96542644392212" lon="15.777332279961193"><ele>67.0</ele><time>2026-04-26T15:56:40.999Z</time></trkpt><trkpt lat="39.965265449849284" lon="15.777220203131984"><ele>67.0</ele><time>2026-04-26T15:56:41.999Z</time></trkpt><trkpt lat="39.96511023635417" lon="15.777094464701486"><ele>67.0</ele><time>2026-04-26T15:56:42.999Z</time></trkpt><trkpt lat="39.96496377688316" lon="15.776955530392488"><ele>67.0</ele><time>2026-04-26T15:56:43.999Z</time></trkpt><trkpt lat="39.96481594527727" lon="15.776806423416808"><ele>68.0</ele><time>2026-04-26T15:56:44.999Z</time></trkpt><trkpt lat="39.96467363044818" lon="15.776639177494031"><ele>69.0</ele><time>2026-04-26T15:56:45.999Z</time></trkpt><trkpt lat="39.96453839148982" lon="15.776455384746136"><ele>70.0</ele><time>2026-04-26T15:56:46.999Z</time></trkpt><trkpt lat="39.96440805932482" lon="15.77625881849072"><ele>70.0</ele><time>2026-04-26T15:56:47.999Z</time></trkpt><trkpt lat="39.964283337803614" lon="15.77605117501783"><ele>70.0</ele><time>2026-04-26T15:56:48.999Z</time></trkpt><trkpt lat="39.96416011847129" lon="15.775837078490959"><ele>70.0</ele><time>2026-04-26T15:56:49.999Z</time></trkpt><trkpt lat="39.964028674414294" lon="15.77563146897912"><ele>68.33333333333333</ele><time>2026-04-26T15:56:50.999Z</time></trkpt><trkpt lat="39.96389015239808" lon="15.775434989725337"><ele>66.66666666666667</ele><time>2026-04-26T15:56:51.999Z</time></trkpt><trkpt lat="39.96374156012897" lon="15.775251392367316"><ele>65.0</ele><time>2026-04-26T15:56:52.999Z</time></trkpt><trkpt lat="39.963587681543856" lon="15.775074616630498"><ele>62.333333333333336</ele><time>2026-04-26T15:56:53.999Z</time></trkpt><trkpt lat="39.96343121282369" lon="15.77490373093895"><ele>59.66666666666667</ele><time>2026-04-26T15:56:54.999Z</time></trkpt><trkpt lat="39.9632696936613" lon="15.774740479857273"><ele>57.0</ele><time>2026-04-26T15:56:55.999Z</time></trkpt><trkpt lat="39.96310456007894" lon="15.774586081409591"><ele>57.0</ele><time>2026-04-26T15:56:56.999Z</time></trkpt><trkpt lat="39.96293618016026" lon="15.77443774708079"><ele>57.0</ele><time>2026-04-26T15:56:57.999Z</time></trkpt><trkpt lat="39.96276979099822" lon="15.774282297215462"><ele>57.0</ele><time>2026-04-26T15:56:58.999Z</time></trkpt><trkpt lat="39.96261008299327" lon="15.774114274535512"><ele>55.33333333333333</ele><time>2026-04-26T15:56:59.999Z</time></trkpt><trkpt lat="39.9624526392663" lon="15.773938928626398"><ele>53.666666666666664</ele><time>2026-04-26T15:57:00.999Z</time></trkpt><trkpt lat="39.962296658637484" lon="15.773760043515416"><ele>52.0</ele><time>2026-04-26T15:57:01.999Z</time></trkpt><trkpt lat="39.96214337356246" lon="15.773576785364423"><ele>59.33333333333333</ele><time>2026-04-26T15:57:02.999Z</time></trkpt><trkpt lat="39.96199480138574" lon="15.773383853874273"><ele>66.66666666666667</ele><time>2026-04-26T15:57:03.999Z</time></trkpt><trkpt lat="39.96185163712796" lon="15.773187340803615"><ele>74.0</ele><time>2026-04-26T15:57:04.999Z</time></trkpt><trkpt lat="39.961719806369764" lon="15.772995827798848"><ele>74.33333333333334</ele><time>2026-04-26T15:57:05.999Z</time></trkpt><trkpt lat="39.961592684697834" lon="15.772807640209233"><ele>74.66666666666667</ele><time>2026-04-26T15:57:06.999Z</time></trkpt><trkpt lat="39.96146406191664" lon="15.772631530450306"><ele>75.0</ele><time>2026-04-26T15:57:07.999Z</time></trkpt><trkpt lat="39.9613219502279" lon="15.772473659128671"><ele>75.0</ele><time>2026-04-26T15:57:08.999Z</time></trkpt><trkpt lat="39.96116191847765" lon="15.772341885554075"><ele>75.0</ele><time>2026-04-26T15:57:09.999Z</time></trkpt><trkpt lat="39.96098761334454" lon="15.772242986752863"><ele>75.0</ele><time>2026-04-26T15:57:10.999Z</time></trkpt><trkpt lat="39.960807088258356" lon="15.772157798566193"><ele>67.0</ele><time>2026-04-26T15:57:11.999Z</time></trkpt><trkpt lat="39.96062725637566" lon="15.772082962470597"><ele>59.0</ele><time>2026-04-26T15:57:12.999Z</time></trkpt><trkpt lat="39.960448160892874" lon="15.772007011196726"><ele>51.0</ele><time>2026-04-26T15:57:13.999Z</time></trkpt><trkpt lat="39.96026881962822" lon="15.771918901255116"><ele>55.33333333333333</ele><time>2026-04-26T15:57:14.999Z</time></trkpt><trkpt lat="39.960096444761525" lon="15.771813067099846"><ele>59.666666666666664</ele><time>2026-04-26T15:57:15.999Z</time></trkpt><trkpt lat="39.95993110542806" lon="15.771683733279112"><ele>64.0</ele><time>2026-04-26T15:57:16.999Z</time></trkpt><trkpt lat="39.95977198065154" lon="15.771545849032181"><ele>64.0</ele><time>2026-04-26T15:57:17.999Z</time></trkpt><trkpt lat="39.95961348888503" lon="15.77139187762232"><ele>64.0</ele><time>2026-04-26T15:57:18.999Z</time></trkpt><trkpt lat="39.95945272078352" lon="15.771237052961835"><ele>64.0</ele><time>2026-04-26T15:57:19.999Z</time></trkpt><trkpt lat="39.959298745467876" lon="15.771082937282209"><ele>64.66666666666666</ele><time>2026-04-26T15:57:20.999Z</time></trkpt><trkpt lat="39.959141965595954" lon="15.770930238479608"><ele>65.33333333333333</ele><time>2026-04-26T15:57:21.999Z</time></trkpt><trkpt lat="39.95898043074675" lon="15.77078170935948"><ele>66.0</ele><time>2026-04-26T15:57:22.999Z</time></trkpt><trkpt lat="39.95881015017453" lon="15.770641937372682"><ele>66.0</ele><time>2026-04-26T15:57:23.999Z</time></trkpt><trkpt lat="39.95863091758479" lon="15.77051393917747"><ele>66.0</ele><time>2026-04-26T15:57:24.999Z</time></trkpt><trkpt lat="39.95844575292976" lon="15.770390720692303"><ele>66.0</ele><time>2026-04-26T15:57:25.999Z</time></trkpt><trkpt lat="39.958256623032476" lon="15.770272470043063"><ele>60.33333333333333</ele><time>2026-04-26T15:57:26.999Z</time></trkpt><trkpt lat="39.95806115322831" lon="15.770157577625582"><ele>54.666666666666664</ele><time>2026-04-26T15:57:27.999Z</time></trkpt><trkpt lat="39.957866570557776" lon="15.770048011798096"><ele>49.0</ele><time>2026-04-26T15:57:28.999Z</time></trkpt><trkpt lat="39.95766813321183" lon="15.769950097096443"><ele>47.0</ele><time>2026-04-26T15:57:29.999Z</time></trkpt><trkpt lat="39.95746724673261" lon="15.769856151024554"><ele>45.0</ele><time>2026-04-26T15:57:30.999Z</time></trkpt><trkpt lat="39.95726349268044" lon="15.769775204403114"><ele>43.0</ele><time>2026-04-26T15:57:31.999Z</time></trkpt><trkpt lat="39.9570589205032" lon="15.769715421561523"><ele>43.0</ele><time>2026-04-26T15:57:32.999Z</time></trkpt><trkpt lat="39.95685687047138" lon="15.769680208757174"><ele>43.0</ele><time>2026-04-26T15:57:33.999Z</time></trkpt><trkpt lat="39.95665852238837" lon="15.769665200146708"><ele>43.0</ele><time>2026-04-26T15:57:34.999Z</time></trkpt><trkpt lat="39.9564595283343" lon="15.769673247665214"><ele>41.66666666666667</ele><time>2026-04-26T15:57:35.999Z</time></trkpt><trkpt lat="39.95627206835003" lon="15.769692644696207"><ele>40.333333333333336</ele><time>2026-04-26T15:57:36.999Z</time></trkpt><trkpt lat="39.95608671786668" lon="15.76972537225192"><ele>39.0</ele><time>2026-04-26T15:57:37.999Z</time></trkpt><trkpt lat="39.95590748473596" lon="15.769776296602666"><ele>42.0</ele><time>2026-04-26T15:57:38.999Z</time></trkpt><trkpt lat="39.955731566416105" lon="15.769844821375134"><ele>45.0</ele><time>2026-04-26T15:57:39.999Z</time></trkpt><trkpt lat="39.95556023712499" lon="15.76992010412959"><ele>48.0</ele><time>2026-04-26T15:57:40.999Z</time></trkpt><trkpt lat="39.955394932745264" lon="15.770004448945603"><ele>48.0</ele><time>2026-04-26T15:57:41.999Z</time></trkpt><trkpt lat="39.955234970503845" lon="15.770107375283983"><ele>48.0</ele><time>2026-04-26T15:57:42.999Z</time></trkpt><trkpt lat="39.95507943003863" lon="15.770214941582815"><ele>48.0</ele><time>2026-04-26T15:57:43.999Z</time></trkpt><trkpt lat="39.95491971339936" lon="15.770318364591954"><ele>46.333333333333336</ele><time>2026-04-26T15:57:44.999Z</time></trkpt><trkpt lat="39.954759369087064" lon="15.770423143501167"><ele>44.66666666666667</ele><time>2026-04-26T15:57:45.999Z</time></trkpt><trkpt lat="39.954598642669716" lon="15.77052783990136"><ele>43.0</ele><time>2026-04-26T15:57:46.999Z</time></trkpt><trkpt lat="39.95443570865076" lon="15.77063426362129"><ele>43.0</ele><time>2026-04-26T15:57:47.999Z</time></trkpt><trkpt lat="39.95426629544392" lon="15.770717931225745"><ele>43.0</ele><time>2026-04-26T15:57:48.999Z</time></trkpt><trkpt lat="39.95409156245768" lon="15.770785421057571"><ele>43.0</ele><time>2026-04-26T15:57:49.999Z</time></trkpt><trkpt lat="39.95391431812996" lon="15.770842723852208"><ele>46.0</ele><time>2026-04-26T15:57:50.999Z</time></trkpt><trkpt lat="39.953736779394035" lon="15.77090119207304"><ele>49.0</ele><time>2026-04-26T15:57:51.999Z</time></trkpt><trkpt lat="39.953557721371396" lon="15.770956915354764"><ele>52.0</ele><time>2026-04-26T15:57:52.999Z</time></trkpt><trkpt lat="39.95337380176029" lon="15.771016981615185"><ele>46.666666666666664</ele><time>2026-04-26T15:57:54Z</time></trkpt><trkpt lat="39.95318251785943" lon="15.771076040080779"><ele>41.33333333333333</ele><time>2026-04-26T15:57:55Z</time></trkpt><trkpt lat="39.95298829037524" lon="15.771119992753237"><ele>36.0</ele><time>2026-04-26T15:57:56Z</time></trkpt><trkpt lat="39.95279067864433" lon="15.771155824941738"><ele>36.0</ele><time>2026-04-26T15:57:57Z</time></trkpt><trkpt lat="39.95258943231712" lon="15.771183085821741"><ele>36.0</ele><time>2026-04-26T15:57:58Z</time></trkpt><trkpt lat="39.95238531121691" lon="15.771196669768273"><ele>36.0</ele><time>2026-04-26T15:57:59Z</time></trkpt><trkpt lat="39.95217938549109" lon="15.771198395866298"><ele>36.333333333333336</ele><time>2026-04-26T15:58:00Z</time></trkpt><trkpt lat="39.95197114769448" lon="15.771196004890816"><ele>36.66666666666667</ele><time>2026-04-26T15:58:01Z</time></trkpt><trkpt lat="39.951762800182124" lon="15.771182444522127"><ele>37.0</ele><time>2026-04-26T15:58:02Z</time></trkpt><trkpt lat="39.951556130694364" lon="15.771156497192958"><ele>37.0</ele><time>2026-04-26T15:58:03Z</time></trkpt><trkpt lat="39.95134905979813" lon="15.771120834716312"><ele>37.0</ele><time>2026-04-26T15:58:04Z</time></trkpt><trkpt lat="39.95114223885278" lon="15.771076441052019"><ele>37.0</ele><time>2026-04-26T15:58:05Z</time></trkpt><trkpt lat="39.9509366943324" lon="15.771022042568292"><ele>45.0</ele><time>2026-04-26T15:58:06Z</time></trkpt><trkpt lat="39.95072977460842" lon="15.77096125472616"><ele>53.0</ele><time>2026-04-26T15:58:07Z</time></trkpt><trkpt lat="39.95052266146308" lon="15.770896616303967"><ele>61.0</ele><time>2026-04-26T15:58:08Z</time></trkpt><trkpt lat="39.95031547079714" lon="15.770829616425049"><ele>61.0</ele><time>2026-04-26T15:58:09Z</time></trkpt><trkpt lat="39.950107695933724" lon="15.770759582292392"><ele>61.0</ele><time>2026-04-26T15:58:10Z</time></trkpt><trkpt lat="39.94990085979188" lon="15.770689491474272"><ele>61.0</ele><time>2026-04-26T15:58:11Z</time></trkpt><trkpt lat="39.94969340150327" lon="15.77061981746972"><ele>57.666666666666664</ele><time>2026-04-26T15:58:12Z</time></trkpt><trkpt lat="39.94948780615294" lon="15.770548819413843"><ele>54.33333333333333</ele><time>2026-04-26T15:58:13Z</time></trkpt><trkpt lat="39.94928344928838" lon="15.770476394444588"><ele>51.0</ele><time>2026-04-26T15:58:14Z</time></trkpt><trkpt lat="39.94907784106208" lon="15.770407020999487"><ele>46.333333333333336</ele><time>2026-04-26T15:58:15Z</time></trkpt><trkpt lat="39.94887029983517" lon="15.7703373694567"><ele>41.66666666666667</ele><time>2026-04-26T15:58:16Z</time></trkpt><trkpt lat="39.94866455789002" lon="15.770266410840442"><ele>37.0</ele><time>2026-04-26T15:58:17Z</time></trkpt><trkpt lat="39.948460403796446" lon="15.770200163929962"><ele>41.0</ele><time>2026-04-26T15:58:18Z</time></trkpt><trkpt lat="39.94825939603073" lon="15.7701330556029"><ele>45.0</ele><time>2026-04-26T15:58:19Z</time></trkpt><trkpt lat="39.948066424271836" lon="15.770069198403315"><ele>49.0</ele><time>2026-04-26T15:58:20Z</time></trkpt><trkpt lat="39.94787953343754" lon="15.770017065278719"><ele>49.0</ele><time>2026-04-26T15:58:21Z</time></trkpt><trkpt lat="39.94769821258838" lon="15.769977889700266"><ele>49.0</ele><time>2026-04-26T15:58:22Z</time></trkpt><trkpt lat="39.94751290042161" lon="15.76995551793727"><ele>49.0</ele><time>2026-04-26T15:58:23Z</time></trkpt><trkpt lat="39.94732783055511" lon="15.769952198904893"><ele>46.666666666666664</ele><time>2026-04-26T15:58:24Z</time></trkpt><trkpt lat="39.94714188411308" lon="15.769971873791668"><ele>44.33333333333333</ele><time>2026-04-26T15:58:25Z</time></trkpt><trkpt lat="39.946952440269435" lon="15.770013750400244"><ele>42.0</ele><time>2026-04-26T15:58:26Z</time></trkpt><trkpt lat="39.946771986391575" lon="15.770059453261535"><ele>43.333333333333336</ele><time>2026-04-26T15:58:27Z</time></trkpt><trkpt lat="39.946587078265274" lon="15.770114014871476"><ele>44.66666666666667</ele><time>2026-04-26T15:58:28Z</time></trkpt><trkpt lat="39.94640483018937" lon="15.770155618730698"><ele>46.0</ele><time>2026-04-26T15:58:29Z</time></trkpt><trkpt lat="39.94622539032021" lon="15.770172944714513"><ele>46.0</ele><time>2026-04-26T15:58:30Z</time></trkpt><trkpt lat="39.946048324501874" lon="15.770166581782936"><ele>46.0</ele><time>2026-04-26T15:58:31Z</time></trkpt><trkpt lat="39.94587539344961" lon="15.770139357987139"><ele>46.0</ele><time>2026-04-26T15:58:32Z</time></trkpt><trkpt lat="39.94570965930393" lon="15.770087059495436"><ele>45.0</ele><time>2026-04-26T15:58:33Z</time></trkpt><trkpt lat="39.94554919331668" lon="15.770014605267313"><ele>44.0</ele><time>2026-04-26T15:58:34Z</time></trkpt><trkpt lat="39.94539038990736" lon="15.769930302246657"><ele>43.0</ele><time>2026-04-26T15:58:35Z</time></trkpt><trkpt lat="39.94523438097294" lon="15.769820649382241"><ele>43.0</ele><time>2026-04-26T15:58:36Z</time></trkpt><trkpt lat="39.945083221851704" lon="15.769673813049868"><ele>43.0</ele><time>2026-04-26T15:58:37Z</time></trkpt><trkpt lat="39.94493279125317" lon="15.769521250318553"><ele>43.0</ele><time>2026-04-26T15:58:38Z</time></trkpt><trkpt lat="39.94478267423213" lon="15.769363717672217"><ele>45.66666666666667</ele><time>2026-04-26T15:58:39Z</time></trkpt><trkpt lat="39.94462969403656" lon="15.769202727573402"><ele>48.333333333333336</ele><time>2026-04-26T15:58:39.999Z</time></trkpt><trkpt lat="39.94447608557111" lon="15.769043032243"><ele>51.0</ele><time>2026-04-26T15:58:40.999Z</time></trkpt><trkpt lat="39.94431980868011" lon="15.768884730726905"><ele>50.66666666666667</ele><time>2026-04-26T15:58:41.999Z</time></trkpt><trkpt lat="39.94416533756366" lon="15.768721884363039"><ele>50.333333333333336</ele><time>2026-04-26T15:58:42.999Z</time></trkpt><trkpt lat="39.94400988361371" lon="15.768559963492475"><ele>50.0</ele><time>2026-04-26T15:58:43.999Z</time></trkpt><trkpt lat="39.94385120325836" lon="15.768405328806372"><ele>50.0</ele><time>2026-04-26T15:58:44.999Z</time></trkpt><trkpt lat="39.94368900312072" lon="15.768253758501329"><ele>50.0</ele><time>2026-04-26T15:58:45.999Z</time></trkpt><trkpt lat="39.94352466883918" lon="15.768103782170405"><ele>50.0</ele><time>2026-04-26T15:58:46.999Z</time></trkpt><trkpt lat="39.943358739205976" lon="15.767954550121384"><ele>48.0</ele><time>2026-04-26T15:58:47.999Z</time></trkpt><trkpt lat="39.94318979166229" lon="15.76781367666721"><ele>46.0</ele><time>2026-04-26T15:58:48.999Z</time></trkpt><trkpt lat="39.94301803950128" lon="15.76768685535511"><ele>44.0</ele><time>2026-04-26T15:58:49.999Z</time></trkpt><trkpt lat="39.94283832935168" lon="15.76758249069077"><ele>44.0</ele><time>2026-04-26T15:58:50.999Z</time></trkpt><trkpt lat="39.9426519481032" lon="15.767498223428795"><ele>44.0</ele><time>2026-04-26T15:58:51.999Z</time></trkpt><trkpt lat="39.94245551235684" lon="15.767439164833203"><ele>44.0</ele><time>2026-04-26T15:58:52.999Z</time></trkpt><trkpt lat="39.942255042920756" lon="15.76738909853677"><ele>40.666666666666664</ele><time>2026-04-26T15:58:53.999Z</time></trkpt><trkpt lat="39.942053951561945" lon="15.767343412553744"><ele>37.333333333333336</ele><time>2026-04-26T15:58:54.999Z</time></trkpt><trkpt lat="39.94184976770708" lon="15.76730587889264"><ele>34.0</ele><time>2026-04-26T15:58:55.999Z</time></trkpt><trkpt lat="39.94164464686141" lon="15.767267933862838"><ele>33.333333333333336</ele><time>2026-04-26T15:58:56.999Z</time></trkpt><trkpt lat="39.94143772061494" lon="15.767226450034387"><ele>32.666666666666664</ele><time>2026-04-26T15:58:57.999Z</time></trkpt><trkpt lat="39.94123158005808" lon="15.767178552099681"><ele>32.0</ele><time>2026-04-26T15:58:58.999Z</time></trkpt><trkpt lat="39.94103231302781" lon="15.767114071460263"><ele>30.333333333333332</ele><time>2026-04-26T15:58:59.999Z</time></trkpt><trkpt lat="39.94083723131263" lon="15.767035011012522"><ele>28.666666666666664</ele><time>2026-04-26T15:59:00.999Z</time></trkpt><trkpt lat="39.94064814471874" lon="15.766944717630349"><ele>27.0</ele><time>2026-04-26T15:59:01.999Z</time></trkpt><trkpt lat="39.94046662825634" lon="15.76684482776949"><ele>30.0</ele><time>2026-04-26T15:59:02.999Z</time></trkpt><trkpt lat="39.9402897411248" lon="15.766739229401214"><ele>33.0</ele><time>2026-04-26T15:59:03.999Z</time></trkpt><trkpt lat="39.94011663372319" lon="15.766629341626336"><ele>36.0</ele><time>2026-04-26T15:59:04.999Z</time></trkpt><trkpt lat="39.93995662537053" lon="15.76651058429507"><ele>36.0</ele><time>2026-04-26T15:59:05.999Z</time></trkpt><trkpt lat="39.93980038279968" lon="15.76639529447315"><ele>36.0</ele><time>2026-04-26T15:59:06.999Z</time></trkpt><trkpt lat="39.939637311938824" lon="15.766304023645795"><ele>36.0</ele><time>2026-04-26T15:59:07.999Z</time></trkpt><trkpt lat="39.93947232150373" lon="15.76623790269496"><ele>36.0</ele><time>2026-04-26T15:59:08.999Z</time></trkpt><trkpt lat="39.93930529339019" lon="15.76619829635399"><ele>36.0</ele><time>2026-04-26T15:59:09.999Z</time></trkpt><trkpt lat="39.93913333903992" lon="15.766190139634958"><ele>36.0</ele><time>2026-04-26T15:59:10.999Z</time></trkpt><trkpt lat="39.93896367231752" lon="15.766212664051338"><ele>32.666666666666664</ele><time>2026-04-26T15:59:11.999Z</time></trkpt><trkpt lat="39.938794952356176" lon="15.766264554927329"><ele>29.333333333333332</ele><time>2026-04-26T15:59:12.999Z</time></trkpt><trkpt lat="39.938626040745476" lon="15.766344951649607"><ele>26.0</ele><time>2026-04-26T15:59:13.999Z</time></trkpt><trkpt lat="39.93846837177484" lon="15.766461490547279"><ele>25.333333333333332</ele><time>2026-04-26T15:59:14.999Z</time></trkpt><trkpt lat="39.93831735703825" lon="15.766620247130277"><ele>24.666666666666664</ele><time>2026-04-26T15:59:15.999Z</time></trkpt><trkpt lat="39.93816746044125" lon="15.766802403459993"><ele>24.0</ele><time>2026-04-26T15:59:16.999Z</time></trkpt><trkpt lat="39.93801824215961" lon="15.766974861855877"><ele>23.0</ele><time>2026-04-26T15:59:17.999Z</time></trkpt><trkpt lat="39.93786598575326" lon="15.767147990299204"><ele>22.0</ele><time>2026-04-26T15:59:18.999Z</time></trkpt><trkpt lat="39.93771029272252" lon="15.767315005746438"><ele>21.0</ele><time>2026-04-26T15:59:19.999Z</time></trkpt><trkpt lat="39.93755912572221" lon="15.767484185706108"><ele>21.0</ele><time>2026-04-26T15:59:20.999Z</time></trkpt><trkpt lat="39.93741089456321" lon="15.767655826999446"><ele>21.0</ele><time>2026-04-26T15:59:21.999Z</time></trkpt><trkpt lat="39.937263467543765" lon="15.76782204458798"><ele>21.0</ele><time>2026-04-26T15:59:22.999Z</time></trkpt><trkpt lat="39.93711534096161" lon="15.76798335726474"><ele>20.666666666666668</ele><time>2026-04-26T15:59:23.999Z</time></trkpt><trkpt lat="39.93696896260578" lon="15.768147911196609"><ele>20.333333333333336</ele><time>2026-04-26T15:59:24.999Z</time></trkpt><trkpt lat="39.93682600920174" lon="15.76831091707568"><ele>20.0</ele><time>2026-04-26T15:59:25.999Z</time></trkpt><trkpt lat="39.936683141337674" lon="15.768471231330638"><ele>19.333333333333336</ele><time>2026-04-26T15:59:26.999Z</time></trkpt><trkpt lat="39.93653953695572" lon="15.768628972173985"><ele>18.666666666666668</ele><time>2026-04-26T15:59:27.999Z</time></trkpt><trkpt lat="39.93639419482066" lon="15.768786222841118"><ele>18.0</ele><time>2026-04-26T15:59:28.999Z</time></trkpt><trkpt lat="39.93624813230147" lon="15.768940911415303"><ele>18.0</ele><time>2026-04-26T15:59:29.999Z</time></trkpt><trkpt lat="39.936099505944924" lon="15.769086013145255"><ele>18.0</ele><time>2026-04-26T15:59:30.999Z</time></trkpt><trkpt lat="39.93594537966054" lon="15.769215163833678"><ele>18.0</ele><time>2026-04-26T15:59:31.999Z</time></trkpt><trkpt lat="39.93578249923257" lon="15.769326847558734"><ele>18.0</ele><time>2026-04-26T15:59:32.999Z</time></trkpt><trkpt lat="39.93560887336129" lon="15.769417815243818"><ele>18.0</ele><time>2026-04-26T15:59:33.999Z</time></trkpt><trkpt lat="39.9354279931199" lon="15.769493069791961"><ele>18.0</ele><time>2026-04-26T15:59:34.999Z</time></trkpt><trkpt lat="39.93523943471455" lon="15.769549419894593"><ele>18.666666666666668</ele><time>2026-04-26T15:59:35.999Z</time></trkpt><trkpt lat="39.93504517075018" lon="15.769585914687838"><ele>19.333333333333336</ele><time>2026-04-26T15:59:36.999Z</time></trkpt><trkpt lat="39.93484609096141" lon="15.769591963946016"><ele>20.0</ele><time>2026-04-26T15:59:37.999Z</time></trkpt><trkpt lat="39.934645640118866" lon="15.769574882274158"><ele>20.0</ele><time>2026-04-26T15:59:38.999Z</time></trkpt><trkpt lat="39.934442756380285" lon="15.769540741188184"><ele>20.0</ele><time>2026-04-26T15:59:39.999Z</time></trkpt><trkpt lat="39.93423840976817" lon="15.769494208928087"><ele>20.0</ele><time>2026-04-26T15:59:40.999Z</time></trkpt><trkpt lat="39.934036992497205" lon="15.769437807455787"><ele>20.0</ele><time>2026-04-26T15:59:41.999Z</time></trkpt><trkpt lat="39.93383751011444" lon="15.769379215824532"><ele>20.0</ele><time>2026-04-26T15:59:42.999Z</time></trkpt><trkpt lat="39.9336355577579" lon="15.769326837675452"><ele>20.0</ele><time>2026-04-26T15:59:43.999Z</time></trkpt><trkpt lat="39.93343438546505" lon="15.769272241848865"><ele>18.666666666666668</ele><time>2026-04-26T15:59:44.999Z</time></trkpt><trkpt lat="39.933232172261015" lon="15.76921345255029"><ele>17.333333333333332</ele><time>2026-04-26T15:59:45.999Z</time></trkpt><trkpt lat="39.93302626779466" lon="15.769158578397539"><ele>16.0</ele><time>2026-04-26T15:59:46.999Z</time></trkpt><trkpt lat="39.93281819712355" lon="15.769105174126393"><ele>16.0</ele><time>2026-04-26T15:59:47.999Z</time></trkpt><trkpt lat="39.93260822897052" lon="15.769050520185493"><ele>16.0</ele><time>2026-04-26T15:59:48.999Z</time></trkpt><trkpt lat="39.93239754204796" lon="15.768996096702162"><ele>16.0</ele><time>2026-04-26T15:59:49.999Z</time></trkpt><trkpt lat="39.93219095597794" lon="15.76894213016693"><ele>15.666666666666666</ele><time>2026-04-26T15:59:50.999Z</time></trkpt><trkpt lat="39.931986144874536" lon="15.768889658165596"><ele>15.333333333333332</ele><time>2026-04-26T15:59:51.999Z</time></trkpt><trkpt lat="39.93178362138455" lon="15.768837085676719"><ele>15.0</ele><time>2026-04-26T15:59:52.999Z</time></trkpt><trkpt lat="39.93158304061808" lon="15.768782652741269"><ele>15.666666666666668</ele><time>2026-04-26T15:59:53.999Z</time></trkpt><trkpt lat="39.93138648040489" lon="15.76872670215059"><ele>16.333333333333336</ele><time>2026-04-26T15:59:54.999Z</time></trkpt><trkpt lat="39.93119070861966" lon="15.768675643394637"><ele>17.0</ele><time>2026-04-26T15:59:55.999Z</time></trkpt><trkpt lat="39.93099769514228" lon="15.768627796731288"><ele>16.333333333333336</ele><time>2026-04-26T15:59:56.999Z</time></trkpt><trkpt lat="39.93080531417252" lon="15.7685846877783"><ele>15.666666666666668</ele><time>2026-04-26T15:59:57.999Z</time></trkpt><trkpt lat="39.93061296607961" lon="15.768549510533312"><ele>15.0</ele><time>2026-04-26T15:59:59Z</time></trkpt><trkpt lat="39.93042182459189" lon="15.768517813579132"><ele>15.0</ele><time>2026-04-26T16:00:00Z</time></trkpt><trkpt lat="39.9302322271524" lon="15.76849144101012"><ele>15.0</ele><time>2026-04-26T16:00:01Z</time></trkpt><trkpt lat="39.930045130642874" lon="15.768470307368908"><ele>15.0</ele><time>2026-04-26T16:00:02Z</time></trkpt><trkpt lat="39.92986042740236" lon="15.768451338798299"><ele>15.0</ele><time>2026-04-26T16:00:03Z</time></trkpt><trkpt lat="39.92967818599" lon="15.768430984396842"><ele>15.0</ele><time>2026-04-26T16:00:04Z</time></trkpt><trkpt lat="39.929494098128714" lon="15.768417771036175"><ele>15.0</ele><time>2026-04-26T16:00:05Z</time></trkpt><trkpt lat="39.929306897302524" lon="15.768407178903997"><ele>14.333333333333332</ele><time>2026-04-26T16:00:06Z</time></trkpt><trkpt lat="39.9291160771641" lon="15.768385849677498"><ele>13.666666666666666</ele><time>2026-04-26T16:00:07Z</time></trkpt><trkpt lat="39.92891748099971" lon="15.768369524997915"><ele>13.0</ele><time>2026-04-26T16:00:08Z</time></trkpt><trkpt lat="39.92871920058187" lon="15.76834986417792"><ele>13.0</ele><time>2026-04-26T16:00:09Z</time></trkpt><trkpt lat="39.928517913223004" lon="15.76833126638388"><ele>13.0</ele><time>2026-04-26T16:00:10Z</time></trkpt><trkpt lat="39.92831461016274" lon="15.768316003243985"><ele>13.0</ele><time>2026-04-26T16:00:11Z</time></trkpt><trkpt lat="39.928109129058655" lon="15.768298622597595"><ele>13.333333333333332</ele><time>2026-04-26T16:00:12Z</time></trkpt><trkpt lat="39.92790249064814" lon="15.76828070045956"><ele>13.666666666666668</ele><time>2026-04-26T16:00:13Z</time></trkpt><trkpt lat="39.92769890409464" lon="15.768267961820957"><ele>14.0</ele><time>2026-04-26T16:00:14Z</time></trkpt><trkpt lat="39.92749625016188" lon="15.768250385930207"><ele>14.0</ele><time>2026-04-26T16:00:15Z</time></trkpt><trkpt lat="39.927292924896605" lon="15.768234423838278"><ele>14.0</ele><time>2026-04-26T16:00:16Z</time></trkpt><trkpt lat="39.92708799444983" lon="15.768220068086608"><ele>14.0</ele><time>2026-04-26T16:00:17Z</time></trkpt><trkpt lat="39.92688331803518" lon="15.768206643341976"><ele>14.666666666666668</ele><time>2026-04-26T16:00:18Z</time></trkpt><trkpt lat="39.92668471212683" lon="15.768197692699376"><ele>15.333333333333332</ele><time>2026-04-26T16:00:19Z</time></trkpt><trkpt lat="39.92649417620842" lon="15.768194830871497"><ele>16.0</ele><time>2026-04-26T16:00:20Z</time></trkpt><trkpt lat="39.92630312862212" lon="15.768206372320659"><ele>16.0</ele><time>2026-04-26T16:00:21Z</time></trkpt><trkpt lat="39.926110941516754" lon="15.76822752275975"><ele>16.0</ele><time>2026-04-26T16:00:22Z</time></trkpt><trkpt lat="39.92592076919801" lon="15.768265679547975"><ele>16.0</ele><time>2026-04-26T16:00:23Z</time></trkpt><trkpt lat="39.925730669225395" lon="15.768312632418395"><ele>16.0</ele><time>2026-04-26T16:00:24Z</time></trkpt><trkpt lat="39.92554067734815" lon="15.76836831757006"><ele>16.0</ele><time>2026-04-26T16:00:25Z</time></trkpt><trkpt lat="39.92535104697543" lon="15.768435395296663"><ele>16.0</ele><time>2026-04-26T16:00:26Z</time></trkpt><trkpt lat="39.925163826412394" lon="15.768509638595086"><ele>16.0</ele><time>2026-04-26T16:00:27Z</time></trkpt><trkpt lat="39.92497925635859" lon="15.768594737366962"><ele>16.0</ele><time>2026-04-26T16:00:28Z</time></trkpt><trkpt lat="39.924798256115054" lon="15.76868821186947"><ele>16.0</ele><time>2026-04-26T16:00:29Z</time></trkpt><trkpt lat="39.92462019076603" lon="15.768793218422068"><ele>16.0</ele><time>2026-04-26T16:00:30Z</time></trkpt><trkpt lat="39.924445036679046" lon="15.768913834597612"><ele>16.0</ele><time>2026-04-26T16:00:31Z</time></trkpt><trkpt lat="39.9242741359295" lon="15.769045124585588"><ele>16.0</ele><time>2026-04-26T16:00:32Z</time></trkpt><trkpt lat="39.92410726384575" lon="15.769184609601373"><ele>16.0</ele><time>2026-04-26T16:00:33Z</time></trkpt><trkpt lat="39.92394523192711" lon="15.769333287182407"><ele>16.0</ele><time>2026-04-26T16:00:34Z</time></trkpt><trkpt lat="39.923785687949916" lon="15.769488934552786"><ele>16.0</ele><time>2026-04-26T16:00:35Z</time></trkpt><trkpt lat="39.92362743047367" lon="15.769651112029049"><ele>16.333333333333332</ele><time>2026-04-26T16:00:35.999Z</time></trkpt><trkpt lat="39.92346946018406" lon="15.769816548395582"><ele>16.666666666666668</ele><time>2026-04-26T16:00:36.999Z</time></trkpt><trkpt lat="39.923310075116326" lon="15.76997950322883"><ele>17.0</ele><time>2026-04-26T16:00:37.999Z</time></trkpt><trkpt lat="39.92315449223255" lon="15.770141477911558"><ele>17.333333333333336</ele><time>2026-04-26T16:00:38.999Z</time></trkpt><trkpt lat="39.9230086760548" lon="15.77029589661757"><ele>17.666666666666668</ele><time>2026-04-26T16:00:39.999Z</time></trkpt><trkpt lat="39.92287145754714" lon="15.770442244973507"><ele>18.0</ele><time>2026-04-26T16:00:40.999Z</time></trkpt><trkpt lat="39.922738385211225" lon="15.770583100894466"><ele>18.0</ele><time>2026-04-26T16:00:41.999Z</time></trkpt><trkpt lat="39.92260428005561" lon="15.770727818950062"><ele>18.0</ele><time>2026-04-26T16:00:42.999Z</time></trkpt><trkpt lat="39.922463101206255" lon="15.770873256328207"><ele>18.0</ele><time>2026-04-26T16:00:43.999Z</time></trkpt><trkpt lat="39.92217728634199" lon="15.771165341707972"><ele>18.666666666666668</ele><time>2026-04-26T16:00:45.999Z</time></trkpt><trkpt lat="39.922032840364274" lon="15.77131552506402"><ele>19.333333333333336</ele><time>2026-04-26T16:00:46.999Z</time></trkpt><trkpt lat="39.92188483098521" lon="15.77147330164621"><ele>20.0</ele><time>2026-04-26T16:00:47.999Z</time></trkpt><trkpt lat="39.92173305709679" lon="15.771631021258182"><ele>20.0</ele><time>2026-04-26T16:00:48.999Z</time></trkpt><trkpt lat="39.92157841129132" lon="15.7717930408901"><ele>20.0</ele><time>2026-04-26T16:00:49.999Z</time></trkpt><trkpt lat="39.92142047231593" lon="15.77195529438831"><ele>20.0</ele><time>2026-04-26T16:00:50.999Z</time></trkpt><trkpt lat="39.921262835766825" lon="15.772121570399214"><ele>23.333333333333336</ele><time>2026-04-26T16:00:51.999Z</time></trkpt><trkpt lat="39.921105274035234" lon="15.772291524097554"><ele>26.666666666666668</ele><time>2026-04-26T16:00:52.999Z</time></trkpt><trkpt lat="39.92094860395372" lon="15.772462635091728"><ele>30.0</ele><time>2026-04-26T16:00:53.999Z</time></trkpt><trkpt lat="39.920789049485975" lon="15.772630827642066"><ele>40.0</ele><time>2026-04-26T16:00:54.999Z</time></trkpt><trkpt lat="39.92062937266467" lon="15.772798027588811"><ele>50.0</ele><time>2026-04-26T16:00:55.999Z</time></trkpt><trkpt lat="39.920471117948665" lon="15.772968310227087"><ele>60.0</ele><time>2026-04-26T16:00:56.999Z</time></trkpt><trkpt lat="39.920314500327834" lon="15.773140776345183"><ele>60.0</ele><time>2026-04-26T16:00:57.999Z</time></trkpt><trkpt lat="39.92014532989555" lon="15.773293149746914"><ele>60.0</ele><time>2026-04-26T16:00:58.999Z</time></trkpt><trkpt lat="39.91998336880241" lon="15.77346048462278"><ele>60.0</ele><time>2026-04-26T16:00:59.999Z</time></trkpt><trkpt lat="39.91981145107824" lon="15.77363861591975"><ele>64.0</ele><time>2026-04-26T16:01:01.065Z</time></trkpt><trkpt lat="39.91965517453537" lon="15.773800589070376"><ele>68.0</ele><time>2026-04-26T16:01:02.056Z</time></trkpt><trkpt lat="39.9194996327899" lon="15.773963948351712"><ele>72.0</ele><time>2026-04-26T16:01:03.056Z</time></trkpt><trkpt lat="39.91934544617493" lon="15.774124163930649"><ele>65.66666666666667</ele><time>2026-04-26T16:01:04.052Z</time></trkpt><trkpt lat="39.91919588227438" lon="15.774278960791275"><ele>59.333333333333336</ele><time>2026-04-26T16:01:04.999Z</time></trkpt><trkpt lat="39.91905050866776" lon="15.774430338017392"><ele>53.0</ele><time>2026-04-26T16:01:05.999Z</time></trkpt><trkpt lat="39.9188995795079" lon="15.774589565907354"><ele>53.0</ele><time>2026-04-26T16:01:06.999Z</time></trkpt><trkpt lat="39.91874427826443" lon="15.774764610492644"><ele>53.0</ele><time>2026-04-26T16:01:07.999Z</time></trkpt><trkpt lat="39.918586810196174" lon="15.77492518218682"><ele>53.0</ele><time>2026-04-26T16:01:08.999Z</time></trkpt><trkpt lat="39.91843163218002" lon="15.775090919635913"><ele>54.0</ele><time>2026-04-26T16:01:09.999Z</time></trkpt><trkpt lat="39.9182763943616" lon="15.775264614475466"><ele>55.0</ele><time>2026-04-26T16:01:10.999Z</time></trkpt><trkpt lat="39.918124109497896" lon="15.77544546341014"><ele>56.0</ele><time>2026-04-26T16:01:11.999Z</time></trkpt><trkpt lat="39.917968452636735" lon="15.775634627682178"><ele>56.0</ele><time>2026-04-26T16:01:12.999Z</time></trkpt><trkpt lat="39.91781368421791" lon="15.775828066468083"><ele>56.0</ele><time>2026-04-26T16:01:13.999Z</time></trkpt><trkpt lat="39.91765868979228" lon="15.776034148551327"><ele>56.0</ele><time>2026-04-26T16:01:14.999Z</time></trkpt><trkpt lat="39.91750743505481" lon="15.776251068691984"><ele>60.5</ele><time>2026-04-26T16:01:15.999Z</time></trkpt><trkpt lat="39.91735532554307" lon="15.776474587536404"><ele>65.0</ele><time>2026-04-26T16:01:16.999Z</time></trkpt><trkpt lat="39.91720519759776" lon="15.776696015599622"><ele>71.0</ele><time>2026-04-26T16:01:17.999Z</time></trkpt><trkpt lat="39.917055133340455" lon="15.77692085854259"><ele>77.0</ele><time>2026-04-26T16:01:18.999Z</time></trkpt><trkpt lat="39.916892393923206" lon="15.777131276534128"><ele>77.0</ele><time>2026-04-26T16:01:19.999Z</time></trkpt><trkpt lat="39.916744205855984" lon="15.777354321538226"><ele>77.0</ele><time>2026-04-26T16:01:20.999Z</time></trkpt><trkpt lat="39.91659716886876" lon="15.77757710752151"><ele>82.66666666666667</ele><time>2026-04-26T16:01:21.999Z</time></trkpt><trkpt lat="39.91643744899941" lon="15.77778426763648"><ele>88.33333333333333</ele><time>2026-04-26T16:01:22.999Z</time></trkpt><trkpt lat="39.91628934634257" lon="15.778000536495124"><ele>94.0</ele><time>2026-04-26T16:01:23.999Z</time></trkpt><trkpt lat="39.91614021591215" lon="15.778215884484002"><ele>94.0</ele><time>2026-04-26T16:01:24.999Z</time></trkpt><trkpt lat="39.91599335352987" lon="15.778429686983985"><ele>94.0</ele><time>2026-04-26T16:01:25.999Z</time></trkpt><trkpt lat="39.91583790721904" lon="15.778658708603825"><ele>92.0</ele><time>2026-04-26T16:01:27.06Z</time></trkpt><trkpt lat="39.91569045375391" lon="15.778866815000542"><ele>90.0</ele><time>2026-04-26T16:01:28.053Z</time></trkpt><trkpt lat="39.91554402179802" lon="15.77908190690325"><ele>88.0</ele><time>2026-04-26T16:01:28.999Z</time></trkpt><trkpt lat="39.915450647917076" lon="15.779359033422864"><ele>88.0</ele><time>2026-04-26T16:01:29.999Z</time></trkpt><trkpt lat="39.91527802418259" lon="15.779583466521093"><ele>88.0</ele><time>2026-04-26T16:01:30.999Z</time></trkpt><trkpt lat="39.91513958674512" lon="15.779761500348766"><ele>88.0</ele><time>2026-04-26T16:01:31.999Z</time></trkpt><trkpt lat="39.914996600813915" lon="15.77997864961574"><ele>87.33333333333333</ele><time>2026-04-26T16:01:32.999Z</time></trkpt><trkpt lat="39.9148540339307" lon="15.780190242823098"><ele>86.66666666666667</ele><time>2026-04-26T16:01:33.999Z</time></trkpt><trkpt lat="39.9147114491165" lon="15.780407834837314"><ele>86.0</ele><time>2026-04-26T16:01:34.999Z</time></trkpt><trkpt lat="39.9145751865289" lon="15.780634636036716"><ele>86.0</ele><time>2026-04-26T16:01:35.999Z</time></trkpt><trkpt lat="39.91444542344922" lon="15.78086823147939"><ele>86.0</ele><time>2026-04-26T16:01:36.999Z</time></trkpt><trkpt lat="39.9143225032826" lon="15.781102623046396"><ele>86.0</ele><time>2026-04-26T16:01:37.999Z</time></trkpt><trkpt lat="39.91421034411884" lon="15.781348723102361"><ele>84.33333333333334</ele><time>2026-04-26T16:01:38.999Z</time></trkpt><trkpt lat="39.91410442099012" lon="15.781601885897311"><ele>82.66666666666667</ele><time>2026-04-26T16:01:39.999Z</time></trkpt><trkpt lat="39.914027619066495" lon="15.781874086819071"><ele>81.0</ele><time>2026-04-26T16:01:40.999Z</time></trkpt><trkpt lat="39.913915291511486" lon="15.782126853605288"><ele>81.0</ele><time>2026-04-26T16:01:41.999Z</time></trkpt><trkpt lat="39.913805095340315" lon="15.782377407299721"><ele>81.0</ele><time>2026-04-26T16:01:42.999Z</time></trkpt><trkpt lat="39.91369620263523" lon="15.782630812795803"><ele>81.0</ele><time>2026-04-26T16:01:43.999Z</time></trkpt><trkpt lat="39.913589228247886" lon="15.782883805473086"><ele>80.0</ele><time>2026-04-26T16:01:44.999Z</time></trkpt><trkpt lat="39.91347972595737" lon="15.78313725538808"><ele>79.0</ele><time>2026-04-26T16:01:45.999Z</time></trkpt><trkpt lat="39.9133697481663" lon="15.783389275125126"><ele>78.0</ele><time>2026-04-26T16:01:46.999Z</time></trkpt><trkpt lat="39.9132611601061" lon="15.783639789187548"><ele>81.33333333333333</ele><time>2026-04-26T16:01:47.999Z</time></trkpt><trkpt lat="39.913150770754775" lon="15.783890317573864"><ele>84.66666666666666</ele><time>2026-04-26T16:01:48.999Z</time></trkpt><trkpt lat="39.913038156966444" lon="15.78413393688775"><ele>88.0</ele><time>2026-04-26T16:01:49.999Z</time></trkpt><trkpt lat="39.91291998197007" lon="15.784369156268447"><ele>89.66666666666666</ele><time>2026-04-26T16:01:50.999Z</time></trkpt><trkpt lat="39.912787887741615" lon="15.78459295954399"><ele>91.33333333333333</ele><time>2026-04-26T16:01:51.999Z</time></trkpt><trkpt lat="39.91264704083936" lon="15.784805240565257"><ele>93.0</ele><time>2026-04-26T16:01:52.999Z</time></trkpt><trkpt lat="39.91250276788783" lon="15.785013160039753"><ele>97.66666666666666</ele><time>2026-04-26T16:01:53.999Z</time></trkpt><trkpt lat="39.91235161736589" lon="15.785211399350285"><ele>102.33333333333333</ele><time>2026-04-26T16:01:54.999Z</time></trkpt><trkpt lat="39.91219040234838" lon="15.78539692263627"><ele>107.0</ele><time>2026-04-26T16:01:55.998Z</time></trkpt><trkpt lat="39.91202617051313" lon="15.785573921623241"><ele>107.0</ele><time>2026-04-26T16:01:56.998Z</time></trkpt><trkpt lat="39.91186159433481" lon="15.78575003420709"><ele>107.0</ele><time>2026-04-26T16:01:57.998Z</time></trkpt><trkpt lat="39.91169852658947" lon="15.78593380673481"><ele>107.0</ele><time>2026-04-26T16:01:58.998Z</time></trkpt><trkpt lat="39.91153182082543" lon="15.786127646833137"><ele>108.5</ele><time>2026-04-26T16:01:59.998Z</time></trkpt><trkpt lat="39.91136069837585" lon="15.78633103367235"><ele>110.0</ele><time>2026-04-26T16:02:00.998Z</time></trkpt><trkpt lat="39.91118538205929" lon="15.786532300437313"><ele>110.0</ele><time>2026-04-26T16:02:01.998Z</time></trkpt><trkpt lat="39.91100865742328" lon="15.786732421400133"><ele>110.0</ele><time>2026-04-26T16:02:02.998Z</time></trkpt><trkpt lat="39.91083268583021" lon="15.786930071552314"><ele>106.5</ele><time>2026-04-26T16:02:04Z</time></trkpt><trkpt lat="39.91065709766123" lon="15.787129319916835"><ele>103.0</ele><time>2026-04-26T16:02:05Z</time></trkpt><trkpt lat="39.91048076901085" lon="15.787330821887364"><ele>103.0</ele><time>2026-04-26T16:02:06Z</time></trkpt><trkpt lat="39.91030469979895" lon="15.787535333864549"><ele>103.0</ele><time>2026-04-26T16:02:07Z</time></trkpt><trkpt lat="39.910125533716" lon="15.787732945542759"><ele>110.0</ele><time>2026-04-26T16:02:08Z</time></trkpt><trkpt lat="39.909946772102515" lon="15.787920375164475"><ele>117.0</ele><time>2026-04-26T16:02:09Z</time></trkpt><trkpt lat="39.9097639395953" lon="15.788090225335962"><ele>117.0</ele><time>2026-04-26T16:02:10Z</time></trkpt><trkpt lat="39.909567598234325" lon="15.788234834877573"><ele>117.0</ele><time>2026-04-26T16:02:11Z</time></trkpt><trkpt lat="39.90936096733295" lon="15.788359751048635"><ele>113.0</ele><time>2026-04-26T16:02:12Z</time></trkpt><trkpt lat="39.90914737903326" lon="15.788471325901087"><ele>109.0</ele><time>2026-04-26T16:02:13Z</time></trkpt><trkpt lat="39.90892752904375" lon="15.788573587744034"><ele>109.0</ele><time>2026-04-26T16:02:14Z</time></trkpt><trkpt lat="39.908708287569375" lon="15.788670396791087"><ele>109.0</ele><time>2026-04-26T16:02:15Z</time></trkpt><trkpt lat="39.908488972942756" lon="15.788768511305245"><ele>106.0</ele><time>2026-04-26T16:02:16Z</time></trkpt><trkpt lat="39.908267167377325" lon="15.788872604505347"><ele>103.0</ele><time>2026-04-26T16:02:17Z</time></trkpt><trkpt lat="39.908044717652444" lon="15.78897562242325"><ele>103.0</ele><time>2026-04-26T16:02:18Z</time></trkpt><trkpt lat="39.90781920778039" lon="15.78907421477573"><ele>103.0</ele><time>2026-04-26T16:02:19Z</time></trkpt><trkpt lat="39.90759445001857" lon="15.789175755110024"><ele>107.0</ele><time>2026-04-26T16:02:20Z</time></trkpt><trkpt lat="39.90736972339605" lon="15.789280958101934"><ele>111.0</ele><time>2026-04-26T16:02:21Z</time></trkpt><trkpt lat="39.90714562981208" lon="15.789382107920428"><ele>118.5</ele><time>2026-04-26T16:02:22Z</time></trkpt><trkpt lat="39.9069230638003" lon="15.789480411515802"><ele>126.0</ele><time>2026-04-26T16:02:23Z</time></trkpt><trkpt lat="39.906698893761735" lon="15.789580542643407"><ele>128.5</ele><time>2026-04-26T16:02:24Z</time></trkpt><trkpt lat="39.90647736848392" lon="15.789683630851098"><ele>131.0</ele><time>2026-04-26T16:02:25Z</time></trkpt><trkpt lat="39.90625671419606" lon="15.789785333773027"><ele>131.0</ele><time>2026-04-26T16:02:25.999Z</time></trkpt><trkpt lat="39.90603713845058" lon="15.789885973084907"><ele>131.0</ele><time>2026-04-26T16:02:26.999Z</time></trkpt><trkpt lat="39.905817762501535" lon="15.789983847269472"><ele>128.5</ele><time>2026-04-26T16:02:27.999Z</time></trkpt><trkpt lat="39.905599979292994" lon="15.790080949585915"><ele>126.0</ele><time>2026-04-26T16:02:28.999Z</time></trkpt><trkpt lat="39.905390703699574" lon="15.790178035323855"><ele>129.66666666666666</ele><time>2026-04-26T16:02:29.999Z</time></trkpt><trkpt lat="39.905186256386834" lon="15.790275639114334"><ele>133.33333333333331</ele><time>2026-04-26T16:02:30.999Z</time></trkpt><trkpt lat="39.904983510410865" lon="15.790369966941197"><ele>137.0</ele><time>2026-04-26T16:02:31.999Z</time></trkpt><trkpt lat="39.9047873620903" lon="15.790460569823711"><ele>137.0</ele><time>2026-04-26T16:02:32.999Z</time></trkpt><trkpt lat="39.904600220421266" lon="15.790548113547349"><ele>137.0</ele><time>2026-04-26T16:02:33.999Z</time></trkpt><trkpt lat="39.904423715132694" lon="15.790632769740013"><ele>137.0</ele><time>2026-04-26T16:02:34.999Z</time></trkpt><trkpt lat="39.904251111160754" lon="15.790711578923691"><ele>134.0</ele><time>2026-04-26T16:02:35.999Z</time></trkpt><trkpt lat="39.904079997896694" lon="15.790785446878422"><ele>131.0</ele><time>2026-04-26T16:02:36.999Z</time></trkpt><trkpt lat="39.90391167901299" lon="15.790861002469956"><ele>128.0</ele><time>2026-04-26T16:02:37.999Z</time></trkpt><trkpt lat="39.90374741338739" lon="15.790932298962725"><ele>128.0</ele><time>2026-04-26T16:02:38.999Z</time></trkpt><trkpt lat="39.90358231146601" lon="15.790999189339464"><ele>128.0</ele><time>2026-04-26T16:02:39.999Z</time></trkpt><trkpt lat="39.90340711687323" lon="15.791057309308123"><ele>128.0</ele><time>2026-04-26T16:02:40.999Z</time></trkpt><trkpt lat="39.90322863838885" lon="15.791102982849834"><ele>132.33333333333331</ele><time>2026-04-26T16:02:41.999Z</time></trkpt><trkpt lat="39.90304429691191" lon="15.79113225729476"><ele>136.66666666666666</ele><time>2026-04-26T16:02:42.999Z</time></trkpt><trkpt lat="39.902857285401566" lon="15.791138415070769"><ele>141.0</ele><time>2026-04-26T16:02:43.999Z</time></trkpt><trkpt lat="39.90266666926939" lon="15.791127047435321"><ele>147.0</ele><time>2026-04-26T16:02:44.999Z</time></trkpt><trkpt lat="39.90247826571163" lon="15.79110268511573"><ele>153.0</ele><time>2026-04-26T16:02:45.999Z</time></trkpt><trkpt lat="39.90230882148174" lon="15.791069074662174"><ele>159.0</ele><time>2026-04-26T16:02:46.999Z</time></trkpt><trkpt lat="39.90215087055725" lon="15.79102625018479"><ele>158.0</ele><time>2026-04-26T16:02:47.999Z</time></trkpt><trkpt lat="39.90200393836724" lon="15.790974693452187"><ele>157.0</ele><time>2026-04-26T16:02:48.999Z</time></trkpt><trkpt lat="39.90186391166339" lon="15.790915834316392"><ele>156.0</ele><time>2026-04-26T16:02:49.999Z</time></trkpt><trkpt lat="39.9017341831272" lon="15.790824208302066"><ele>155.0</ele><time>2026-04-26T16:02:50.999Z</time></trkpt><trkpt lat="39.90159807491187" lon="15.790744409207761"><ele>155.0</ele><time>2026-04-26T16:02:51.999Z</time></trkpt><trkpt lat="39.901455002273416" lon="15.79068020603869"><ele>155.0</ele><time>2026-04-26T16:02:52.999Z</time></trkpt><trkpt lat="39.90131727149225" lon="15.79059788092567"><ele>155.0</ele><time>2026-04-26T16:02:53.999Z</time></trkpt><trkpt lat="39.901185221128415" lon="15.79049356866772"><ele>155.0</ele><time>2026-04-26T16:02:54.999Z</time></trkpt><trkpt lat="39.901044091768064" lon="15.790407514212907"><ele>155.0</ele><time>2026-04-26T16:02:55.999Z</time></trkpt><trkpt lat="39.900903497026775" lon="15.79032178565216"><ele>155.0</ele><time>2026-04-26T16:02:56.999Z</time></trkpt><trkpt lat="39.900756482481974" lon="15.790232142615238"><ele>157.66666666666666</ele><time>2026-04-26T16:02:58.053Z</time></trkpt><trkpt lat="39.90061569487577" lon="15.790146296714093"><ele>160.33333333333334</ele><time>2026-04-26T16:02:59.05Z</time></trkpt><trkpt lat="39.90047239081331" lon="15.790058916070196"><ele>163.0</ele><time>2026-04-26T16:03:00.054Z</time></trkpt><trkpt lat="39.90032925783139" lon="15.78997163983378"><ele>220.0</ele><time>2026-04-26T16:03:01.046Z</time></trkpt><trkpt lat="39.89791317669243" lon="15.788526168672043"><ele>195.0</ele><time>2026-04-26T16:03:05.801Z</time></trkpt><trkpt lat="39.897343953914394" lon="15.788180820247085"><ele>195.0</ele><time>2026-04-26T16:03:06.797Z</time></trkpt><trkpt lat="39.89677125305011" lon="15.787831991537596"><ele>159.0</ele><time>2026-04-26T16:03:07.801Z</time></trkpt><trkpt lat="39.89618984998" lon="15.787520288827913"><ele>157.5</ele><time>2026-04-26T16:03:08.8Z</time></trkpt><trkpt lat="39.8958384" lon="15.7874112"><ele>156.0</ele><time>2026-04-26T16:03:09.801Z</time></trkpt><trkpt lat="39.894613752129274" lon="15.787523703496714"><ele>156.0</ele><time>2026-04-26T16:03:32.999Z</time></trkpt><trkpt lat="39.894402543508185" lon="15.787556299016499"><ele>156.0</ele><time>2026-04-26T16:03:33.999Z</time></trkpt><trkpt lat="39.8942238760687" lon="15.787677489743713"><ele>156.0</ele><time>2026-04-26T16:03:34.999Z</time></trkpt><trkpt lat="39.894020714517204" lon="15.787788942859493"><ele>160.0</ele><time>2026-04-26T16:03:35.999Z</time></trkpt><trkpt lat="39.89384054330666" lon="15.787944073566425"><ele>164.0</ele><time>2026-04-26T16:03:36.999Z</time></trkpt><trkpt lat="39.89368157155062" lon="15.788116043168097"><ele>168.0</ele><time>2026-04-26T16:03:37.999Z</time></trkpt><trkpt lat="39.89350903407636" lon="15.788295361559046"><ele>165.0</ele><time>2026-04-26T16:03:38.999Z</time></trkpt><trkpt lat="39.89334756678567" lon="15.788503051934606"><ele>162.0</ele><time>2026-04-26T16:03:39.999Z</time></trkpt><trkpt lat="39.89317950716371" lon="15.788713981603607"><ele>162.0</ele><time>2026-04-26T16:03:40.999Z</time></trkpt><trkpt lat="39.89300625945041" lon="15.788918343346205"><ele>162.0</ele><time>2026-04-26T16:03:41.999Z</time></trkpt><trkpt lat="39.892832171880755" lon="15.789116209020037"><ele>162.0</ele><time>2026-04-26T16:03:42.999Z</time></trkpt><trkpt lat="39.89266097304672" lon="15.789317948014792"><ele>162.0</ele><time>2026-04-26T16:03:43.999Z</time></trkpt><trkpt lat="39.89249023934599" lon="15.789520258724462"><ele>158.0</ele><time>2026-04-26T16:03:44.999Z</time></trkpt><trkpt lat="39.892317520337336" lon="15.789720240909585"><ele>154.0</ele><time>2026-04-26T16:03:45.999Z</time></trkpt><trkpt lat="39.89214507491895" lon="15.789919766585827"><ele>154.0</ele><time>2026-04-26T16:03:46.998Z</time></trkpt><trkpt lat="39.89197277388526" lon="15.790120136574403"><ele>154.0</ele><time>2026-04-26T16:03:47.998Z</time></trkpt><trkpt lat="39.89179960841338" lon="15.790321117267945"><ele>149.5</ele><time>2026-04-26T16:03:48.998Z</time></trkpt><trkpt lat="39.891625298999365" lon="15.790520638448385"><ele>145.0</ele><time>2026-04-26T16:03:49.998Z</time></trkpt><trkpt lat="39.89144946712908" lon="15.790719896871407"><ele>145.0</ele><time>2026-04-26T16:03:50.998Z</time></trkpt><trkpt lat="39.891279064447495" lon="15.790918845369124"><ele>145.0</ele><time>2026-04-26T16:03:51.998Z</time></trkpt><trkpt lat="39.8911098284257" lon="15.791116925878875"><ele>146.0</ele><time>2026-04-26T16:03:52.998Z</time></trkpt><trkpt lat="39.890941018488725" lon="15.791311426411884"><ele>147.0</ele><time>2026-04-26T16:03:53.998Z</time></trkpt><trkpt lat="39.89077176284997" lon="15.791502343544153"><ele>148.0</ele><time>2026-04-26T16:03:54.998Z</time></trkpt><trkpt lat="39.89060039726282" lon="15.791683351253969"><ele>150.0</ele><time>2026-04-26T16:03:55.998Z</time></trkpt><trkpt lat="39.89042310990373" lon="15.791854564198776"><ele>152.0</ele><time>2026-04-26T16:03:56.998Z</time></trkpt><trkpt lat="39.8902337043825" lon="15.792002438208469"><ele>154.0</ele><time>2026-04-26T16:03:57.998Z</time></trkpt><trkpt lat="39.890038891889475" lon="15.792135304396107"><ele>154.0</ele><time>2026-04-26T16:03:58.998Z</time></trkpt><trkpt lat="39.889839773817926" lon="15.792258533097492"><ele>154.0</ele><time>2026-04-26T16:03:59.998Z</time></trkpt><trkpt lat="39.889631145667586" lon="15.79236358387701"><ele>154.0</ele><time>2026-04-26T16:04:00.998Z</time></trkpt><trkpt lat="39.88941673749909" lon="15.792457622257768"><ele>154.0</ele><time>2026-04-26T16:04:01.998Z</time></trkpt><trkpt lat="39.88920102007503" lon="15.79255235967951"><ele>154.0</ele><time>2026-04-26T16:04:02.998Z</time></trkpt><trkpt lat="39.88898405439696" lon="15.792649208733822"><ele>161.0</ele><time>2026-04-26T16:04:03.998Z</time></trkpt><trkpt lat="39.88876834146846" lon="15.792749413186215"><ele>168.0</ele><time>2026-04-26T16:04:04.998Z</time></trkpt><trkpt lat="39.88855085596572" lon="15.79285097915152"><ele>162.0</ele><time>2026-04-26T16:04:05.998Z</time></trkpt><trkpt lat="39.88833446108764" lon="15.792949313025922"><ele>156.0</ele><time>2026-04-26T16:04:06.998Z</time></trkpt><trkpt lat="39.88811706388963" lon="15.793046555190955"><ele>156.0</ele><time>2026-04-26T16:04:07.998Z</time></trkpt><trkpt lat="39.8879023924183" lon="15.793142339333956"><ele>156.0</ele><time>2026-04-26T16:04:08.998Z</time></trkpt><trkpt lat="39.88768566375233" lon="15.79323548538562"><ele>153.66666666666666</ele><time>2026-04-26T16:04:09.999Z</time></trkpt><trkpt lat="39.887470353322676" lon="15.793329172277838"><ele>151.33333333333331</ele><time>2026-04-26T16:04:10.999Z</time></trkpt><trkpt lat="39.887258834925575" lon="15.793411346289616"><ele>149.0</ele><time>2026-04-26T16:04:11.999Z</time></trkpt><trkpt lat="39.88704365969646" lon="15.793479149733203"><ele>153.66666666666666</ele><time>2026-04-26T16:04:12.999Z</time></trkpt><trkpt lat="39.88682763337112" lon="15.793534917532924"><ele>158.33333333333334</ele><time>2026-04-26T16:04:13.999Z</time></trkpt><trkpt lat="39.88660580791463" lon="15.793579258816418"><ele>163.0</ele><time>2026-04-26T16:04:14.999Z</time></trkpt><trkpt lat="39.88638054673712" lon="15.793611765517838"><ele>163.0</ele><time>2026-04-26T16:04:15.999Z</time></trkpt><trkpt lat="39.886151653704545" lon="15.793637607843943"><ele>163.0</ele><time>2026-04-26T16:04:16.999Z</time></trkpt><trkpt lat="39.885921795379545" lon="15.793661347447227"><ele>157.0</ele><time>2026-04-26T16:04:17.999Z</time></trkpt><trkpt lat="39.88568858512338" lon="15.793687717795471"><ele>151.0</ele><time>2026-04-26T16:04:18.999Z</time></trkpt><trkpt lat="39.88545376012258" lon="15.793715686422425"><ele>151.0</ele><time>2026-04-26T16:04:19.999Z</time></trkpt><trkpt lat="39.88521888565784" lon="15.793742370268118"><ele>151.0</ele><time>2026-04-26T16:04:20.999Z</time></trkpt><trkpt lat="39.88498512021581" lon="15.793766637386891"><ele>139.0</ele><time>2026-04-26T16:04:21.999Z</time></trkpt><trkpt lat="39.88475233455557" lon="15.793791829107914"><ele>127.0</ele><time>2026-04-26T16:04:22.999Z</time></trkpt><trkpt lat="39.88452172122938" lon="15.793813967123851"><ele>127.0</ele><time>2026-04-26T16:04:23.999Z</time></trkpt><trkpt lat="39.884294143907496" lon="15.793835297131919"><ele>127.0</ele><time>2026-04-26T16:04:24.999Z</time></trkpt><trkpt lat="39.88406718314665" lon="15.793862030214488"><ele>127.0</ele><time>2026-04-26T16:04:25.999Z</time></trkpt><trkpt lat="39.88383694094737" lon="15.793888376551676"><ele>127.0</ele><time>2026-04-26T16:04:26.999Z</time></trkpt><trkpt lat="39.88360734181174" lon="15.79391355262099"><ele>134.0</ele><time>2026-04-26T16:04:27.999Z</time></trkpt><trkpt lat="39.883375563575214" lon="15.793939544365951"><ele>141.0</ele><time>2026-04-26T16:04:28.999Z</time></trkpt><trkpt lat="39.883145009531454" lon="15.79396967649547"><ele>141.0</ele><time>2026-04-26T16:04:29.999Z</time></trkpt><trkpt lat="39.88291536192774" lon="15.79400389272897"><ele>141.0</ele><time>2026-04-26T16:04:30.999Z</time></trkpt><trkpt lat="39.882687254123105" lon="15.794045690435"><ele>139.0</ele><time>2026-04-26T16:04:31.999Z</time></trkpt><trkpt lat="39.88246172906176" lon="15.794098467948304"><ele>137.0</ele><time>2026-04-26T16:04:32.999Z</time></trkpt><trkpt lat="39.882235742404184" lon="15.794155326983446"><ele>137.0</ele><time>2026-04-26T16:04:33.999Z</time></trkpt><trkpt lat="39.88201022582835" lon="15.79421505492924"><ele>137.0</ele><time>2026-04-26T16:04:34.999Z</time></trkpt><trkpt lat="39.8817831827991" lon="15.794271720639845"><ele>134.5</ele><time>2026-04-26T16:04:35.999Z</time></trkpt><trkpt lat="39.88155663859531" lon="15.79432772047635"><ele>132.0</ele><time>2026-04-26T16:04:36.999Z</time></trkpt><trkpt lat="39.88132967660159" lon="15.794383587026587"><ele>134.5</ele><time>2026-04-26T16:04:37.999Z</time></trkpt><trkpt lat="39.88110165034007" lon="15.794440603583865"><ele>137.0</ele><time>2026-04-26T16:04:38.999Z</time></trkpt><trkpt lat="39.880873279891986" lon="15.794497412947692"><ele>137.0</ele><time>2026-04-26T16:04:39.999Z</time></trkpt><trkpt lat="39.88064603617535" lon="15.794555039258597"><ele>137.0</ele><time>2026-04-26T16:04:40.999Z</time></trkpt><trkpt lat="39.88041983109599" lon="15.794612228006946"><ele>137.0</ele><time>2026-04-26T16:04:41.999Z</time></trkpt><trkpt lat="39.88019481916223" lon="15.794668357437203"><ele>137.0</ele><time>2026-04-26T16:04:42.999Z</time></trkpt><trkpt lat="39.879970421068194" lon="15.79472149851652"><ele>134.0</ele><time>2026-04-26T16:04:43.999Z</time></trkpt><trkpt lat="39.879745980176814" lon="15.794776853267765"><ele>131.0</ele><time>2026-04-26T16:04:44.999Z</time></trkpt><trkpt lat="39.87952095445103" lon="15.794835424728628"><ele>131.0</ele><time>2026-04-26T16:04:45.999Z</time></trkpt><trkpt lat="39.879294130643515" lon="15.794890692995224"><ele>131.0</ele><time>2026-04-26T16:04:46.999Z</time></trkpt><trkpt lat="39.879066047110676" lon="15.79494337890332"><ele>129.0</ele><time>2026-04-26T16:04:47.999Z</time></trkpt><trkpt lat="39.878834386932745" lon="15.794996120913627"><ele>127.0</ele><time>2026-04-26T16:04:48.999Z</time></trkpt><trkpt lat="39.87860158425782" lon="15.795047862344148"><ele>125.0</ele><time>2026-04-26T16:04:49.999Z</time></trkpt><trkpt lat="39.87837220826006" lon="15.79509781422214"><ele>123.0</ele><time>2026-04-26T16:04:50.999Z</time></trkpt><trkpt lat="39.87814198394392" lon="15.795136048238264"><ele>123.0</ele><time>2026-04-26T16:04:51.999Z</time></trkpt><trkpt lat="39.877911219976596" lon="15.795165123051408"><ele>123.0</ele><time>2026-04-26T16:04:52.999Z</time></trkpt><trkpt lat="39.87768022489677" lon="15.795186021917807"><ele>125.0</ele><time>2026-04-26T16:04:53.999Z</time></trkpt><trkpt lat="39.87745027237269" lon="15.7951965953386"><ele>127.0</ele><time>2026-04-26T16:04:54.999Z</time></trkpt><trkpt lat="39.877215576701694" lon="15.79519917293767"><ele>127.0</ele><time>2026-04-26T16:04:55.999Z</time></trkpt><trkpt lat="39.876976209804994" lon="15.79519491807833"><ele>127.0</ele><time>2026-04-26T16:04:56.999Z</time></trkpt><trkpt lat="39.87673438967394" lon="15.795187690202317"><ele>127.0</ele><time>2026-04-26T16:04:57.999Z</time></trkpt><trkpt lat="39.87649119241786" lon="15.795175061919489"><ele>127.0</ele><time>2026-04-26T16:04:58.999Z</time></trkpt><trkpt lat="39.876247990044035" lon="15.79516499085739"><ele>125.0</ele><time>2026-04-26T16:04:59.999Z</time></trkpt><trkpt lat="39.876008092045545" lon="15.79515933852734"><ele>123.0</ele><time>2026-04-26T16:05:00.999Z</time></trkpt><trkpt lat="39.8757687068726" lon="15.79515466484152"><ele>122.0</ele><time>2026-04-26T16:05:01.999Z</time></trkpt><trkpt lat="39.87553189645747" lon="15.795147816073886"><ele>121.0</ele><time>2026-04-26T16:05:02.999Z</time></trkpt><trkpt lat="39.87530137457215" lon="15.79514127006207"><ele>120.0</ele><time>2026-04-26T16:05:03.999Z</time></trkpt><trkpt lat="39.87508190244378" lon="15.795137762864169"><ele>119.0</ele><time>2026-04-26T16:05:04.999Z</time></trkpt><trkpt lat="39.874869873111706" lon="15.79513448535577"><ele>118.0</ele><time>2026-04-26T16:05:05.999Z</time></trkpt><trkpt lat="39.87466556768671" lon="15.7951295145442"><ele>118.0</ele><time>2026-04-26T16:05:06.999Z</time></trkpt><trkpt lat="39.87446896662647" lon="15.7951227596713"><ele>118.0</ele><time>2026-04-26T16:05:07.999Z</time></trkpt><trkpt lat="39.87427037860751" lon="15.795118883330725"><ele>118.0</ele><time>2026-04-26T16:05:08.999Z</time></trkpt><trkpt lat="39.874070669968454" lon="15.795111580950014"><ele>117.0</ele><time>2026-04-26T16:05:09.999Z</time></trkpt><trkpt lat="39.87386883279806" lon="15.795103765284592"><ele>116.0</ele><time>2026-04-26T16:05:10.999Z</time></trkpt><trkpt lat="39.87366377053342" lon="15.795096606184385"><ele>115.0</ele><time>2026-04-26T16:05:11.999Z</time></trkpt><trkpt lat="39.87345504713797" lon="15.795092264504616"><ele>114.0</ele><time>2026-04-26T16:05:12.999Z</time></trkpt><trkpt lat="39.87324322138911" lon="15.795089034992646"><ele>113.0</ele><time>2026-04-26T16:05:13.999Z</time></trkpt><trkpt lat="39.87302603192912" lon="15.795082734130212"><ele>112.0</ele><time>2026-04-26T16:05:14.999Z</time></trkpt><trkpt lat="39.87280425893535" lon="15.795076633634723"><ele>110.0</ele><time>2026-04-26T16:05:15.999Z</time></trkpt><trkpt lat="39.87257933860217" lon="15.795073081399892"><ele>108.0</ele><time>2026-04-26T16:05:16.999Z</time></trkpt><trkpt lat="39.87235046081197" lon="15.795070784291068"><ele>108.0</ele><time>2026-04-26T16:05:17.999Z</time></trkpt><trkpt lat="39.87212401830411" lon="15.795071253850598"><ele>108.0</ele><time>2026-04-26T16:05:18.999Z</time></trkpt><trkpt lat="39.871898963841026" lon="15.795078834644109"><ele>107.0</ele><time>2026-04-26T16:05:19.999Z</time></trkpt><trkpt lat="39.87168152916317" lon="15.795102079107618"><ele>106.0</ele><time>2026-04-26T16:05:20.999Z</time></trkpt><trkpt lat="39.87147571877412" lon="15.795137415292917"><ele>105.0</ele><time>2026-04-26T16:05:21.999Z</time></trkpt><trkpt lat="39.871278399783044" lon="15.795183519055792"><ele>103.33333333333334</ele><time>2026-04-26T16:05:22.999Z</time></trkpt><trkpt lat="39.871084483947755" lon="15.795243055082636"><ele>101.66666666666667</ele><time>2026-04-26T16:05:23.999Z</time></trkpt><trkpt lat="39.87089372177666" lon="15.795307657242477"><ele>100.0</ele><time>2026-04-26T16:05:24.999Z</time></trkpt><trkpt lat="39.87070681995214" lon="15.79537469512356"><ele>100.0</ele><time>2026-04-26T16:05:25.999Z</time></trkpt><trkpt lat="39.870522749245055" lon="15.79544274955133"><ele>100.0</ele><time>2026-04-26T16:05:26.999Z</time></trkpt><trkpt lat="39.87034010763889" lon="15.795511844482036"><ele>100.0</ele><time>2026-04-26T16:05:27.999Z</time></trkpt><trkpt lat="39.870158220368104" lon="15.795579259767605"><ele>92.66666666666667</ele><time>2026-04-26T16:05:28.999Z</time></trkpt><trkpt lat="39.86997651535079" lon="15.795643678140747"><ele>85.33333333333334</ele><time>2026-04-26T16:05:29.999Z</time></trkpt><trkpt lat="39.86979023529011" lon="15.795710412830864"><ele>78.0</ele><time>2026-04-26T16:05:30.999Z</time></trkpt><trkpt lat="39.86959901604311" lon="15.795780346556988"><ele>78.0</ele><time>2026-04-26T16:05:31.999Z</time></trkpt><trkpt lat="39.86940918293946" lon="15.795850368487166"><ele>78.0</ele><time>2026-04-26T16:05:32.999Z</time></trkpt><trkpt lat="39.86921898448367" lon="15.795920937134442"><ele>78.0</ele><time>2026-04-26T16:05:33.999Z</time></trkpt><trkpt lat="39.86902922507744" lon="15.79599283856498"><ele>83.0</ele><time>2026-04-26T16:05:34.999Z</time></trkpt><trkpt lat="39.86883658039095" lon="15.796066692890616"><ele>88.0</ele><time>2026-04-26T16:05:35.999Z</time></trkpt><trkpt lat="39.86864234016472" lon="15.796137562618096"><ele>93.0</ele><time>2026-04-26T16:05:36.999Z</time></trkpt><trkpt lat="39.86844777269459" lon="15.796209001027368"><ele>98.0</ele><time>2026-04-26T16:05:37.999Z</time></trkpt><trkpt lat="39.868250349212126" lon="15.796278982009126"><ele>103.0</ele><time>2026-04-26T16:05:38.999Z</time></trkpt><trkpt lat="39.86804933270757" lon="15.796338124834158"><ele>108.0</ele><time>2026-04-26T16:05:39.999Z</time></trkpt><trkpt lat="39.86784791665537" lon="15.79638207059874"><ele>108.0</ele><time>2026-04-26T16:05:40.999Z</time></trkpt><trkpt lat="39.867642652078025" lon="15.796397046858031"><ele>108.0</ele><time>2026-04-26T16:05:41.999Z</time></trkpt><trkpt lat="39.867439217605884" lon="15.796405781502019"><ele>108.0</ele><time>2026-04-26T16:05:42.999Z</time></trkpt><trkpt lat="39.86723766214471" lon="15.796420127230142"><ele>108.33333333333334</ele><time>2026-04-26T16:05:43.999Z</time></trkpt><trkpt lat="39.867034950635485" lon="15.796433047468353"><ele>108.66666666666667</ele><time>2026-04-26T16:05:44.999Z</time></trkpt><trkpt lat="39.866831986484264" lon="15.796448172254886"><ele>109.0</ele><time>2026-04-26T16:05:45.999Z</time></trkpt><trkpt lat="39.86662731092653" lon="15.796463145301274"><ele>109.0</ele><time>2026-04-26T16:05:46.999Z</time></trkpt><trkpt lat="39.86642344808195" lon="15.796472256519616"><ele>109.0</ele><time>2026-04-26T16:05:47.999Z</time></trkpt><trkpt lat="39.866218475385075" lon="15.79648369585861"><ele>109.0</ele><time>2026-04-26T16:05:48.998Z</time></trkpt><trkpt lat="39.866012968847905" lon="15.79650170809577"><ele>110.33333333333334</ele><time>2026-04-26T16:05:49.998Z</time></trkpt><trkpt lat="39.86580421307069" lon="15.796518162688042"><ele>111.66666666666666</ele><time>2026-04-26T16:05:50.998Z</time></trkpt><trkpt lat="39.865592638732714" lon="15.796536145643495"><ele>113.0</ele><time>2026-04-26T16:05:51.998Z</time></trkpt><trkpt lat="39.86537948317224" lon="15.796553382930007"><ele>113.0</ele><time>2026-04-26T16:05:52.998Z</time></trkpt><trkpt lat="39.86516647494507" lon="15.796567844474321"><ele>113.0</ele><time>2026-04-26T16:05:53.998Z</time></trkpt><trkpt lat="39.864952089892114" lon="15.79658228340963"><ele>113.0</ele><time>2026-04-26T16:05:54.998Z</time></trkpt><trkpt lat="39.864737678304" lon="15.796598162914332"><ele>114.66666666666666</ele><time>2026-04-26T16:05:55.998Z</time></trkpt><trkpt lat="39.8645225622693" lon="15.796616148652816"><ele>116.33333333333334</ele><time>2026-04-26T16:05:56.998Z</time></trkpt><trkpt lat="39.86430729024002" lon="15.796631948418229"><ele>118.0</ele><time>2026-04-26T16:05:57.998Z</time></trkpt><trkpt lat="39.86409634978638" lon="15.796645300315085"><ele>119.0</ele><time>2026-04-26T16:05:58.998Z</time></trkpt><trkpt lat="39.86389429381872" lon="15.796656747798412"><ele>120.0</ele><time>2026-04-26T16:05:59.998Z</time></trkpt><trkpt lat="39.86369990605213" lon="15.796669185708504"><ele>121.0</ele><time>2026-04-26T16:06:00.998Z</time></trkpt><trkpt lat="39.86350745310036" lon="15.796685225703257"><ele>121.33333333333334</ele><time>2026-04-26T16:06:01.998Z</time></trkpt><trkpt lat="39.86331882571735" lon="15.796703476837028"><ele>121.66666666666666</ele><time>2026-04-26T16:06:02.998Z</time></trkpt><trkpt lat="39.863130871737475" lon="15.796733551749798"><ele>122.0</ele><time>2026-04-26T16:06:03.998Z</time></trkpt><trkpt lat="39.8629430531474" lon="15.796782462915775"><ele>123.66666666666666</ele><time>2026-04-26T16:06:04.998Z</time></trkpt><trkpt lat="39.86275836917394" lon="15.796848502348652"><ele>125.33333333333334</ele><time>2026-04-26T16:06:05.998Z</time></trkpt><trkpt lat="39.862577401860634" lon="15.796929849500954"><ele>127.0</ele><time>2026-04-26T16:06:06.998Z</time></trkpt><trkpt lat="39.862401532176676" lon="15.797020808382351"><ele>127.0</ele><time>2026-04-26T16:06:07.998Z</time></trkpt><trkpt lat="39.86222422168324" lon="15.797118633565137"><ele>127.0</ele><time>2026-04-26T16:06:08.998Z</time></trkpt><trkpt lat="39.8620477952515" lon="15.797223206248617"><ele>127.0</ele><time>2026-04-26T16:06:09.998Z</time></trkpt><trkpt lat="39.8618692371395" lon="15.797327079806688"><ele>125.33333333333334</ele><time>2026-04-26T16:06:10.998Z</time></trkpt><trkpt lat="39.86168990024674" lon="15.797427472151076"><ele>123.66666666666666</ele><time>2026-04-26T16:06:11.998Z</time></trkpt><trkpt lat="39.86150924725751" lon="15.797527110699866"><ele>122.0</ele><time>2026-04-26T16:06:12.998Z</time></trkpt><trkpt lat="39.86133095186899" lon="15.797628234361802"><ele>120.0</ele><time>2026-04-26T16:06:13.998Z</time></trkpt><trkpt lat="39.861156823236335" lon="15.797723688989374"><ele>118.0</ele><time>2026-04-26T16:06:14.998Z</time></trkpt><trkpt lat="39.86098936049152" lon="15.79781032499007"><ele>116.0</ele><time>2026-04-26T16:06:15.999Z</time></trkpt><trkpt lat="39.860825028240285" lon="15.7978905058137"><ele>116.0</ele><time>2026-04-26T16:06:16.999Z</time></trkpt><trkpt lat="39.860664227503655" lon="15.797949620325669"><ele>116.0</ele><time>2026-04-26T16:06:17.999Z</time></trkpt><trkpt lat="39.86050099728438" lon="15.798004780368265"><ele>116.0</ele><time>2026-04-26T16:06:18.999Z</time></trkpt><trkpt lat="39.8603328446248" lon="15.798048090832202"><ele>116.0</ele><time>2026-04-26T16:06:19.999Z</time></trkpt><trkpt lat="39.860158243499136" lon="15.798070018050655"><ele>116.0</ele><time>2026-04-26T16:06:20.999Z</time></trkpt><trkpt lat="39.85998081105318" lon="15.79807746085902"><ele>116.0</ele><time>2026-04-26T16:06:21.999Z</time></trkpt><trkpt lat="39.859798734992914" lon="15.798076651887872"><ele>117.33333333333333</ele><time>2026-04-26T16:06:22.999Z</time></trkpt><trkpt lat="39.85961566258886" lon="15.798052925548445"><ele>118.66666666666666</ele><time>2026-04-26T16:06:23.999Z</time></trkpt><trkpt lat="39.85943217316078" lon="15.798008957948255"><ele>120.0</ele><time>2026-04-26T16:06:24.999Z</time></trkpt><trkpt lat="39.8592489037055" lon="15.797952742457136"><ele>120.0</ele><time>2026-04-26T16:06:25.999Z</time></trkpt><trkpt lat="39.859066382662" lon="15.79788087966771"><ele>120.0</ele><time>2026-04-26T16:06:26.999Z</time></trkpt><trkpt lat="39.85888592660176" lon="15.797791610186612"><ele>120.0</ele><time>2026-04-26T16:06:27.999Z</time></trkpt><trkpt lat="39.858710533738254" lon="15.79768493238531"><ele>115.0</ele><time>2026-04-26T16:06:28.999Z</time></trkpt><trkpt lat="39.85853921803158" lon="15.797565693823637"><ele>110.0</ele><time>2026-04-26T16:06:29.999Z</time></trkpt><trkpt lat="39.858369651966235" lon="15.797447657923012"><ele>105.0</ele><time>2026-04-26T16:06:30.999Z</time></trkpt><trkpt lat="39.85820016837736" lon="15.79733480956645"><ele>104.0</ele><time>2026-04-26T16:06:31.999Z</time></trkpt><trkpt lat="39.858034263935046" lon="15.797220691027105"><ele>103.0</ele><time>2026-04-26T16:06:32.999Z</time></trkpt><trkpt lat="39.85787112548324" lon="15.797105680791814"><ele>102.0</ele><time>2026-04-26T16:06:33.999Z</time></trkpt><trkpt lat="39.85770654680569" lon="15.796995923199164"><ele>91.0</ele><time>2026-04-26T16:06:34.999Z</time></trkpt><trkpt lat="39.85754402587907" lon="15.796889610577344"><ele>80.0</ele><time>2026-04-26T16:06:35.999Z</time></trkpt><trkpt lat="39.85738867286649" lon="15.796776773782877"><ele>69.0</ele><time>2026-04-26T16:06:36.999Z</time></trkpt><trkpt lat="39.85723562160493" lon="15.796667337370984"><ele>68.33333333333333</ele><time>2026-04-26T16:06:37.999Z</time></trkpt><trkpt lat="39.857075857740924" lon="15.79656430002063"><ele>67.66666666666666</ele><time>2026-04-26T16:06:38.999Z</time></trkpt><trkpt lat="39.85692148211904" lon="15.796459762858225"><ele>67.0</ele><time>2026-04-26T16:06:39.999Z</time></trkpt><trkpt lat="39.8567646143641" lon="15.796357296915698"><ele>76.33333333333333</ele><time>2026-04-26T16:06:40.999Z</time></trkpt><trkpt lat="39.85660740121747" lon="15.7962502830966"><ele>85.66666666666667</ele><time>2026-04-26T16:06:41.999Z</time></trkpt><trkpt lat="39.856450197591016" lon="15.79613405964967"><ele>95.0</ele><time>2026-04-26T16:06:42.999Z</time></trkpt><trkpt lat="39.85628843197048" lon="15.796023226092688"><ele>95.33333333333334</ele><time>2026-04-26T16:06:43.999Z</time></trkpt><trkpt lat="39.85612323916372" lon="15.795917017254252"><ele>95.66666666666667</ele><time>2026-04-26T16:06:44.999Z</time></trkpt><trkpt lat="39.855957702697665" lon="15.795812448388856"><ele>96.0</ele><time>2026-04-26T16:06:45.999Z</time></trkpt><trkpt lat="39.855790747398174" lon="15.795716860330561"><ele>106.33333333333334</ele><time>2026-04-26T16:06:46.999Z</time></trkpt><trkpt lat="39.85561689404318" lon="15.79563942352701"><ele>116.66666666666667</ele><time>2026-04-26T16:06:47.999Z</time></trkpt><trkpt lat="39.85543736121869" lon="15.795583364107873"><ele>127.0</ele><time>2026-04-26T16:06:48.999Z</time></trkpt><trkpt lat="39.85525359146494" lon="15.795544718111792"><ele>128.66666666666669</ele><time>2026-04-26T16:06:49.999Z</time></trkpt><trkpt lat="39.85506645727189" lon="15.79552734042562"><ele>130.33333333333334</ele><time>2026-04-26T16:06:50.999Z</time></trkpt><trkpt lat="39.854879449807214" lon="15.795531948411272"><ele>132.0</ele><time>2026-04-26T16:06:51.999Z</time></trkpt><trkpt lat="39.85470620771291" lon="15.795549759390237"><ele>132.0</ele><time>2026-04-26T16:06:52.999Z</time></trkpt><trkpt lat="39.85454612913072" lon="15.795581749956924"><ele>132.0</ele><time>2026-04-26T16:06:53.999Z</time></trkpt><trkpt lat="39.85439679925411" lon="15.795632391603633"><ele>132.0</ele><time>2026-04-26T16:06:54.999Z</time></trkpt><trkpt lat="39.85425636686873" lon="15.795693375434753"><ele>131.25</ele><time>2026-04-26T16:06:55.999Z</time></trkpt><trkpt lat="39.85412394605176" lon="15.795758000767066"><ele>130.5</ele><time>2026-04-26T16:06:56.999Z</time></trkpt><trkpt lat="39.853995206851266" lon="15.795830537690128"><ele>129.75</ele><time>2026-04-26T16:06:57.999Z</time></trkpt><trkpt lat="39.85387007403781" lon="15.795915944572753"><ele>129.0</ele><time>2026-04-26T16:06:58.999Z</time></trkpt><trkpt lat="39.853750776973015" lon="15.796014673321004"><ele>129.75</ele><time>2026-04-26T16:06:59.999Z</time></trkpt><trkpt lat="39.85363536968906" lon="15.796120116555183"><ele>130.5</ele><time>2026-04-26T16:07:00.999Z</time></trkpt><trkpt lat="39.85352311108955" lon="15.796232169999486"><ele>131.25</ele><time>2026-04-26T16:07:01.999Z</time></trkpt><trkpt lat="39.85341176463549" lon="15.796348754552264"><ele>132.0</ele><time>2026-04-26T16:07:02.999Z</time></trkpt><trkpt lat="39.853302190307964" lon="15.796469571547258"><ele>132.0</ele><time>2026-04-26T16:07:03.999Z</time></trkpt><trkpt lat="39.8531867880305" lon="15.796596317762965"><ele>132.0</ele><time>2026-04-26T16:07:04.999Z</time></trkpt><trkpt lat="39.85306571755168" lon="15.796721636490178"><ele>132.0</ele><time>2026-04-26T16:07:05.999Z</time></trkpt><trkpt lat="39.8529437697397" lon="15.796850706566609"><ele>134.0</ele><time>2026-04-26T16:07:06.999Z</time></trkpt><trkpt lat="39.85281910498773" lon="15.79698412511857"><ele>136.0</ele><time>2026-04-26T16:07:07.999Z</time></trkpt><trkpt lat="39.852689633097604" lon="15.797121011876541"><ele>138.0</ele><time>2026-04-26T16:07:08.999Z</time></trkpt><trkpt lat="39.85255720439999" lon="15.797258419104878"><ele>138.0</ele><time>2026-04-26T16:07:09.999Z</time></trkpt><trkpt lat="39.852420543183094" lon="15.797399688701514"><ele>138.0</ele><time>2026-04-26T16:07:10.999Z</time></trkpt><trkpt lat="39.85228233750085" lon="15.797542741488487"><ele>138.0</ele><time>2026-04-26T16:07:11.999Z</time></trkpt><trkpt lat="39.85214716293461" lon="15.797683623480774"><ele>138.66666666666666</ele><time>2026-04-26T16:07:12.999Z</time></trkpt><trkpt lat="39.85201203080606" lon="15.797814531493152"><ele>139.33333333333331</ele><time>2026-04-26T16:07:13.999Z</time></trkpt><trkpt lat="39.85187053401688" lon="15.797932708109382"><ele>140.0</ele><time>2026-04-26T16:07:14.999Z</time></trkpt><trkpt lat="39.85172181281718" lon="15.798031151663904"><ele>136.66666666666666</ele><time>2026-04-26T16:07:15.999Z</time></trkpt><trkpt lat="39.85156865914541" lon="15.798113343758091"><ele>133.33333333333334</ele><time>2026-04-26T16:07:16.999Z</time></trkpt><trkpt lat="39.85141452043241" lon="15.798185413973156"><ele>130.0</ele><time>2026-04-26T16:07:17.999Z</time></trkpt><trkpt lat="39.85125681093138" lon="15.798244199365062"><ele>130.0</ele><time>2026-04-26T16:07:19Z</time></trkpt><trkpt lat="39.851092300627066" lon="15.798287215510818"><ele>130.0</ele><time>2026-04-26T16:07:20Z</time></trkpt><trkpt lat="39.85092286805162" lon="15.798310351664115"><ele>130.0</ele><time>2026-04-26T16:07:21Z</time></trkpt><trkpt lat="39.850750630187434" lon="15.798316731023819"><ele>122.33333333333334</ele><time>2026-04-26T16:07:22Z</time></trkpt><trkpt lat="39.850574920040536" lon="15.798301646236254"><ele>114.66666666666666</ele><time>2026-04-26T16:07:23Z</time></trkpt><trkpt lat="39.85039908271211" lon="15.79827483508289"><ele>107.0</ele><time>2026-04-26T16:07:24Z</time></trkpt><trkpt lat="39.85022030464129" lon="15.798237313479593"><ele>96.0</ele><time>2026-04-26T16:07:25Z</time></trkpt><trkpt lat="39.8500399765146" lon="15.7981928918913"><ele>85.0</ele><time>2026-04-26T16:07:26Z</time></trkpt><trkpt lat="39.84985958038783" lon="15.798149108252764"><ele>74.0</ele><time>2026-04-26T16:07:27Z</time></trkpt><trkpt lat="39.8496747059211" lon="15.798107322313664"><ele>74.0</ele><time>2026-04-26T16:07:28Z</time></trkpt><trkpt lat="39.84948721476339" lon="15.798065534284987"><ele>74.0</ele><time>2026-04-26T16:07:29Z</time></trkpt><trkpt lat="39.84929871111434" lon="15.79801717527027"><ele>74.0</ele><time>2026-04-26T16:07:30Z</time></trkpt><trkpt lat="39.84910859570022" lon="15.797969483202905"><ele>66.0</ele><time>2026-04-26T16:07:31Z</time></trkpt><trkpt lat="39.84891859754953" lon="15.797923356211832"><ele>58.0</ele><time>2026-04-26T16:07:32Z</time></trkpt><trkpt lat="39.8487298827571" lon="15.797877492745343"><ele>50.0</ele><time>2026-04-26T16:07:33Z</time></trkpt><trkpt lat="39.84854180654688" lon="15.797832137157409"><ele>61.66666666666667</ele><time>2026-04-26T16:07:34Z</time></trkpt><trkpt lat="39.84835348009947" lon="15.797787306793824"><ele>73.33333333333333</ele><time>2026-04-26T16:07:35Z</time></trkpt><trkpt lat="39.84816626156865" lon="15.797744827019134"><ele>85.0</ele><time>2026-04-26T16:07:36Z</time></trkpt><trkpt lat="39.84798077021133" lon="15.797698042786438"><ele>90.66666666666666</ele><time>2026-04-26T16:07:37Z</time></trkpt><trkpt lat="39.84779541824849" lon="15.797651971375766"><ele>96.33333333333333</ele><time>2026-04-26T16:07:38Z</time></trkpt><trkpt lat="39.84760630983552" lon="15.797608279541503"><ele>102.0</ele><time>2026-04-26T16:07:39Z</time></trkpt><trkpt lat="39.84741433360212" lon="15.797562872556846"><ele>106.66666666666666</ele><time>2026-04-26T16:07:40Z</time></trkpt><trkpt lat="39.84721747133907" lon="15.79751603792306"><ele>111.33333333333333</ele><time>2026-04-26T16:07:41Z</time></trkpt><trkpt lat="39.84702223543631" lon="15.797468887671194"><ele>116.0</ele><time>2026-04-26T16:07:42Z</time></trkpt><trkpt lat="39.84682603448632" lon="15.797419369552044"><ele>116.33333333333333</ele><time>2026-04-26T16:07:43Z</time></trkpt><trkpt lat="39.84662905106825" lon="15.79737510558367"><ele>116.66666666666666</ele><time>2026-04-26T16:07:44Z</time></trkpt><trkpt lat="39.84643559972558" lon="15.797331227933224"><ele>117.0</ele><time>2026-04-26T16:07:45Z</time></trkpt><trkpt lat="39.84624385612605" lon="15.797283331879616"><ele>117.0</ele><time>2026-04-26T16:07:46Z</time></trkpt><trkpt lat="39.846056621645104" lon="15.797233165540623"><ele>117.0</ele><time>2026-04-26T16:07:47Z</time></trkpt><trkpt lat="39.84587290049729" lon="15.797187412426494"><ele>117.0</ele><time>2026-04-26T16:07:47.999Z</time></trkpt><trkpt lat="39.84569218590221" lon="15.797145212780608"><ele>120.66666666666666</ele><time>2026-04-26T16:07:48.999Z</time></trkpt><trkpt lat="39.84551182433546" lon="15.797102472623388"><ele>124.33333333333333</ele><time>2026-04-26T16:07:49.999Z</time></trkpt><trkpt lat="39.84533005519444" lon="15.797058684637618"><ele>128.0</ele><time>2026-04-26T16:07:50.999Z</time></trkpt><trkpt lat="39.84514751540921" lon="15.797013112722565"><ele>133.33333333333331</ele><time>2026-04-26T16:07:51.999Z</time></trkpt><trkpt lat="39.84496207979709" lon="15.796967316406313"><ele>138.66666666666666</ele><time>2026-04-26T16:07:52.999Z</time></trkpt><trkpt lat="39.844773720942904" lon="15.796921920580257"><ele>144.0</ele><time>2026-04-26T16:07:53.999Z</time></trkpt><trkpt lat="39.844585144086665" lon="15.796875749678518"><ele>145.33333333333334</ele><time>2026-04-26T16:07:54.999Z</time></trkpt><trkpt lat="39.8443944658424" lon="15.79682925675455"><ele>146.66666666666669</ele><time>2026-04-26T16:07:55.999Z</time></trkpt><trkpt lat="39.84420042084113" lon="15.79678302276009"><ele>148.0</ele><time>2026-04-26T16:07:56.999Z</time></trkpt><trkpt lat="39.84400369392253" lon="15.796736547076442"><ele>150.66666666666669</ele><time>2026-04-26T16:07:57.999Z</time></trkpt><trkpt lat="39.84380492538187" lon="15.796688501116767"><ele>153.33333333333334</ele><time>2026-04-26T16:07:58.999Z</time></trkpt><trkpt lat="39.84360324685089" lon="15.796637983766717"><ele>156.0</ele><time>2026-04-26T16:07:59.999Z</time></trkpt><trkpt lat="39.84340179801531" lon="15.796585511205999"><ele>156.66666666666666</ele><time>2026-04-26T16:08:00.999Z</time></trkpt><trkpt lat="39.843200082309096" lon="15.79653144384894"><ele>157.33333333333331</ele><time>2026-04-26T16:08:01.999Z</time></trkpt><trkpt lat="39.84300338913558" lon="15.796478360934103"><ele>158.0</ele><time>2026-04-26T16:08:02.999Z</time></trkpt><trkpt lat="39.84280979692445" lon="15.79642060708835"><ele>157.66666666666666</ele><time>2026-04-26T16:08:03.999Z</time></trkpt><trkpt lat="39.842617115493915" lon="15.796354795075302"><ele>157.33333333333334</ele><time>2026-04-26T16:08:04.999Z</time></trkpt><trkpt lat="39.84242525732148" lon="15.796279633708496"><ele>157.0</ele><time>2026-04-26T16:08:05.999Z</time></trkpt><trkpt lat="39.84223122261875" lon="15.796200205232784"><ele>157.0</ele><time>2026-04-26T16:08:06.999Z</time></trkpt><trkpt lat="39.842033380895714" lon="15.796116635198338"><ele>157.0</ele><time>2026-04-26T16:08:07.999Z</time></trkpt><trkpt lat="39.84183690653054" lon="15.796024289271633"><ele>157.0</ele><time>2026-04-26T16:08:08.999Z</time></trkpt><trkpt lat="39.84164006420226" lon="15.79592523823202"><ele>156.0</ele><time>2026-04-26T16:08:09.999Z</time></trkpt><trkpt lat="39.84144428793567" lon="15.795822486427952"><ele>155.0</ele><time>2026-04-26T16:08:10.999Z</time></trkpt><trkpt lat="39.84124751345892" lon="15.795720731163671"><ele>154.0</ele><time>2026-04-26T16:08:11.999Z</time></trkpt><trkpt lat="39.84105128697574" lon="15.79561836906936"><ele>154.0</ele><time>2026-04-26T16:08:12.999Z</time></trkpt><trkpt lat="39.8408606965685" lon="15.79552080669774"><ele>154.0</ele><time>2026-04-26T16:08:13.999Z</time></trkpt><trkpt lat="39.840678608228295" lon="15.795429874990434"><ele>154.0</ele><time>2026-04-26T16:08:14.999Z</time></trkpt><trkpt lat="39.84050084172766" lon="15.795338051054042"><ele>154.0</ele><time>2026-04-26T16:08:15.999Z</time></trkpt><trkpt lat="39.840321828793016" lon="15.795244508856445"><ele>154.0</ele><time>2026-04-26T16:08:16.999Z</time></trkpt><trkpt lat="39.8401388207556" lon="15.795147421756315"><ele>154.0</ele><time>2026-04-26T16:08:17.999Z</time></trkpt><trkpt lat="39.839952283470595" lon="15.795047128051426"><ele>151.33333333333334</ele><time>2026-04-26T16:08:18.999Z</time></trkpt><trkpt lat="39.839761679711216" lon="15.794947701189953"><ele>148.66666666666666</ele><time>2026-04-26T16:08:19.999Z</time></trkpt><trkpt lat="39.83957876388961" lon="15.794850755800121"><ele>146.0</ele><time>2026-04-26T16:08:20.999Z</time></trkpt><trkpt lat="39.83940254131806" lon="15.794758639017033"><ele>145.66666666666666</ele><time>2026-04-26T16:08:22Z</time></trkpt><trkpt lat="39.83923361667701" lon="15.794668888260068"><ele>145.33333333333334</ele><time>2026-04-26T16:08:23Z</time></trkpt><trkpt lat="39.839067672713945" lon="15.79458217565399"><ele>145.0</ele><time>2026-04-26T16:08:24Z</time></trkpt><trkpt lat="39.838895397763345" lon="15.794493922353373"><ele>145.0</ele><time>2026-04-26T16:08:25Z</time></trkpt><trkpt lat="39.83872091002723" lon="15.794404198467713"><ele>145.0</ele><time>2026-04-26T16:08:26Z</time></trkpt><trkpt lat="39.83854457573045" lon="15.79431042818931"><ele>145.0</ele><time>2026-04-26T16:08:27Z</time></trkpt><trkpt lat="39.83836600831682" lon="15.794214383350614"><ele>143.33333333333334</ele><time>2026-04-26T16:08:28Z</time></trkpt><trkpt lat="39.83818501503805" lon="15.794120266324077"><ele>141.66666666666666</ele><time>2026-04-26T16:08:29Z</time></trkpt><trkpt lat="39.838002665261556" lon="15.79402655681045"><ele>140.0</ele><time>2026-04-26T16:08:30Z</time></trkpt><trkpt lat="39.8378206791834" lon="15.793930902137676"><ele>140.0</ele><time>2026-04-26T16:08:31Z</time></trkpt><trkpt lat="39.83763676713398" lon="15.793832974827726"><ele>140.0</ele><time>2026-04-26T16:08:32Z</time></trkpt><trkpt lat="39.83745250957783" lon="15.793734273391559"><ele>140.0</ele><time>2026-04-26T16:08:33Z</time></trkpt><trkpt lat="39.83726954253594" lon="15.793637217766367"><ele>140.33333333333331</ele><time>2026-04-26T16:08:34Z</time></trkpt><trkpt lat="39.83708698474201" lon="15.793539653009868"><ele>140.66666666666666</ele><time>2026-04-26T16:08:35Z</time></trkpt><trkpt lat="39.836901702617915" lon="15.79344114077254"><ele>141.0</ele><time>2026-04-26T16:08:36Z</time></trkpt><trkpt lat="39.83671483090281" lon="15.793343385271918"><ele>139.66666666666666</ele><time>2026-04-26T16:08:37Z</time></trkpt><trkpt lat="39.8365280434175" lon="15.793244804231822"><ele>138.33333333333331</ele><time>2026-04-26T16:08:38Z</time></trkpt><trkpt lat="39.836341061835554" lon="15.793144654937304"><ele>137.0</ele><time>2026-04-26T16:08:39Z</time></trkpt><trkpt lat="39.83615489760537" lon="15.793043803183894"><ele>136.33333333333331</ele><time>2026-04-26T16:08:40Z</time></trkpt><trkpt lat="39.83596810429393" lon="15.792944137166094"><ele>135.66666666666666</ele><time>2026-04-26T16:08:41Z</time></trkpt><trkpt lat="39.83578051717821" lon="15.792847008096683"><ele>135.0</ele><time>2026-04-26T16:08:42Z</time></trkpt><trkpt lat="39.83559267738859" lon="15.792749761753278"><ele>134.0</ele><time>2026-04-26T16:08:43Z</time></trkpt><trkpt lat="39.83540458988019" lon="15.792653074206614"><ele>133.0</ele><time>2026-04-26T16:08:44Z</time></trkpt><trkpt lat="39.83521643779975" lon="15.792555517042755"><ele>132.0</ele><time>2026-04-26T16:08:45Z</time></trkpt><trkpt lat="39.83502842905809" lon="15.792457679489216"><ele>131.33333333333334</ele><time>2026-04-26T16:08:46Z</time></trkpt><trkpt lat="39.834840626026256" lon="15.792358646179233"><ele>130.66666666666669</ele><time>2026-04-26T16:08:47Z</time></trkpt><trkpt lat="39.834652098621" lon="15.792261047983883"><ele>130.0</ele><time>2026-04-26T16:08:48Z</time></trkpt><trkpt lat="39.83446747349035" lon="15.792164355263367"><ele>129.66666666666669</ele><time>2026-04-26T16:08:49Z</time></trkpt><trkpt lat="39.834286751469335" lon="15.792065146001589"><ele>129.33333333333334</ele><time>2026-04-26T16:08:50Z</time></trkpt><trkpt lat="39.834106140531595" lon="15.791962583121471"><ele>129.0</ele><time>2026-04-26T16:08:51Z</time></trkpt><trkpt lat="39.83392587691413" lon="15.791851008289427"><ele>127.0</ele><time>2026-04-26T16:08:52Z</time></trkpt><trkpt lat="39.83374975801995" lon="15.79172179482666"><ele>125.0</ele><time>2026-04-26T16:08:53Z</time></trkpt><trkpt lat="39.83357271155994" lon="15.79158392004633"><ele>123.0</ele><time>2026-04-26T16:08:54Z</time></trkpt><trkpt lat="39.833398401737405" lon="15.791432128891184"><ele>121.66666666666666</ele><time>2026-04-26T16:08:55Z</time></trkpt><trkpt lat="39.83322704841458" lon="15.791266728746901"><ele>120.33333333333333</ele><time>2026-04-26T16:08:56Z</time></trkpt><trkpt lat="39.83306231599876" lon="15.791086978764834"><ele>119.0</ele><time>2026-04-26T16:08:57Z</time></trkpt><trkpt lat="39.83290683280704" lon="15.790897408869409"><ele>117.66666666666666</ele><time>2026-04-26T16:08:58Z</time></trkpt><trkpt lat="39.83276303812739" lon="15.790705031616792"><ele>116.33333333333334</ele><time>2026-04-26T16:08:59Z</time></trkpt><trkpt lat="39.832630838282014" lon="15.790507617493137"><ele>115.0</ele><time>2026-04-26T16:09:00Z</time></trkpt><trkpt lat="39.83250567532809" lon="15.790308466076388"><ele>111.33333333333334</ele><time>2026-04-26T16:09:01Z</time></trkpt><trkpt lat="39.83238806833201" lon="15.790109316235547"><ele>107.66666666666666</ele><time>2026-04-26T16:09:02Z</time></trkpt><trkpt lat="39.83227877936203" lon="15.78991025053539"><ele>104.0</ele><time>2026-04-26T16:09:03Z</time></trkpt><trkpt lat="39.83217724889525" lon="15.789711862356162"><ele>104.0</ele><time>2026-04-26T16:09:04Z</time></trkpt><trkpt lat="39.83208329731303" lon="15.789505974744902"><ele>104.0</ele><time>2026-04-26T16:09:05Z</time></trkpt><trkpt lat="39.8319959841707" lon="15.789290807305868"><ele>104.0</ele><time>2026-04-26T16:09:06Z</time></trkpt><trkpt lat="39.83191566026804" lon="15.789068123414161"><ele>104.66666666666666</ele><time>2026-04-26T16:09:07Z</time></trkpt><trkpt lat="39.83184555851912" lon="15.788843358846814"><ele>105.33333333333334</ele><time>2026-04-26T16:09:08Z</time></trkpt><trkpt lat="39.83178310133296" lon="15.788616466054972"><ele>106.0</ele><time>2026-04-26T16:09:09Z</time></trkpt><trkpt lat="39.83172157147867" lon="15.788385830641019"><ele>106.0</ele><time>2026-04-26T16:09:10Z</time></trkpt><trkpt lat="39.831658065792936" lon="15.788156898437004"><ele>106.0</ele><time>2026-04-26T16:09:11Z</time></trkpt><trkpt lat="39.831593664222346" lon="15.787935943789078"><ele>106.0</ele><time>2026-04-26T16:09:12Z</time></trkpt><trkpt lat="39.8315332057728" lon="15.787723463830583"><ele>105.33333333333334</ele><time>2026-04-26T16:09:13Z</time></trkpt><trkpt lat="39.8314758177212" lon="15.787517063965629"><ele>104.66666666666666</ele><time>2026-04-26T16:09:14Z</time></trkpt><trkpt lat="39.83141980088817" lon="15.787320065193837"><ele>104.0</ele><time>2026-04-26T16:09:15Z</time></trkpt><trkpt lat="39.831365535097014" lon="15.78712781922479"><ele>104.0</ele><time>2026-04-26T16:09:16Z</time></trkpt><trkpt lat="39.83131029593677" lon="15.786930113151492"><ele>104.0</ele><time>2026-04-26T16:09:17Z</time></trkpt><trkpt lat="39.83125523952105" lon="15.786728729974927"><ele>104.0</ele><time>2026-04-26T16:09:18Z</time></trkpt><trkpt lat="39.83119910833324" lon="15.786519831125927"><ele>104.0</ele><time>2026-04-26T16:09:19Z</time></trkpt><trkpt lat="39.83113880302078" lon="15.786306984807245"><ele>104.0</ele><time>2026-04-26T16:09:20Z</time></trkpt><trkpt lat="39.831078401781944" lon="15.786085972282905"><ele>104.0</ele><time>2026-04-26T16:09:21Z</time></trkpt><trkpt lat="39.8310154754272" lon="15.785862580579176"><ele>105.0</ele><time>2026-04-26T16:09:22Z</time></trkpt><trkpt lat="39.830950561123274" lon="15.785633788184242"><ele>106.0</ele><time>2026-04-26T16:09:23Z</time></trkpt><trkpt lat="39.83088592827132" lon="15.785403489456877"><ele>107.0</ele><time>2026-04-26T16:09:24Z</time></trkpt><trkpt lat="39.83082109550698" lon="15.785172510921226"><ele>107.0</ele><time>2026-04-26T16:09:25Z</time></trkpt><trkpt lat="39.83075903360432" lon="15.784954384008223"><ele>107.0</ele><time>2026-04-26T16:09:26Z</time></trkpt><trkpt lat="39.830699156766165" lon="15.784738012225873"><ele>107.0</ele><time>2026-04-26T16:09:27Z</time></trkpt><trkpt lat="39.83063760768995" lon="15.784524596315348"><ele>104.66666666666666</ele><time>2026-04-26T16:09:28Z</time></trkpt><trkpt lat="39.830576289267675" lon="15.784310681087947"><ele>102.33333333333334</ele><time>2026-04-26T16:09:29Z</time></trkpt><trkpt lat="39.8305130719417" lon="15.784094702489622"><ele>100.0</ele><time>2026-04-26T16:09:30Z</time></trkpt><trkpt lat="39.83045060992104" lon="15.783876747932608"><ele>100.0</ele><time>2026-04-26T16:09:31Z</time></trkpt><trkpt lat="39.83038902586403" lon="15.78366076879064"><ele>100.0</ele><time>2026-04-26T16:09:32Z</time></trkpt><trkpt lat="39.830326602679406" lon="15.783440307904915"><ele>100.0</ele><time>2026-04-26T16:09:33Z</time></trkpt><trkpt lat="39.83026468696234" lon="15.78321820332795"><ele>99.0</ele><time>2026-04-26T16:09:34Z</time></trkpt><trkpt lat="39.83020198229976" lon="15.782996470546173"><ele>98.0</ele><time>2026-04-26T16:09:35Z</time></trkpt><trkpt lat="39.83014005167293" lon="15.782784213618127"><ele>97.0</ele><time>2026-04-26T16:09:36Z</time></trkpt><trkpt lat="39.83008281661236" lon="15.782577303856925"><ele>95.0</ele><time>2026-04-26T16:09:37Z</time></trkpt><trkpt lat="39.830023007388526" lon="15.782368802387676"><ele>93.0</ele><time>2026-04-26T16:09:38Z</time></trkpt><trkpt lat="39.829963205640425" lon="15.782156678409844"><ele>91.0</ele><time>2026-04-26T16:09:39Z</time></trkpt><trkpt lat="39.82990429238997" lon="15.781939197842673"><ele>89.33333333333333</ele><time>2026-04-26T16:09:40Z</time></trkpt><trkpt lat="39.82984373986489" lon="15.78171913656872"><ele>87.66666666666667</ele><time>2026-04-26T16:09:41Z</time></trkpt><trkpt lat="39.829781974547274" lon="15.781495219837682"><ele>86.0</ele><time>2026-04-26T16:09:42Z</time></trkpt><trkpt lat="39.82971826980083" lon="15.781268616702135"><ele>86.0</ele><time>2026-04-26T16:09:43Z</time></trkpt><trkpt lat="39.82965383025002" lon="15.78103916787014"><ele>86.0</ele><time>2026-04-26T16:09:44Z</time></trkpt><trkpt lat="39.82958967075481" lon="15.780807143343345"><ele>86.0</ele><time>2026-04-26T16:09:45Z</time></trkpt><trkpt lat="39.82952592113286" lon="15.780571633206938"><ele>85.0</ele><time>2026-04-26T16:09:46Z</time></trkpt><trkpt lat="39.82945880989226" lon="15.780335003892013"><ele>84.0</ele><time>2026-04-26T16:09:47Z</time></trkpt><trkpt lat="39.82938753215461" lon="15.780097817084052"><ele>83.0</ele><time>2026-04-26T16:09:48Z</time></trkpt><trkpt lat="39.82930914211806" lon="15.77986160817438"><ele>85.66666666666667</ele><time>2026-04-26T16:09:48.999Z</time></trkpt><trkpt lat="39.829220803115646" lon="15.779632731243813"><ele>88.33333333333333</ele><time>2026-04-26T16:09:49.999Z</time></trkpt><trkpt lat="39.829119877695135" lon="15.77941662540444"><ele>91.0</ele><time>2026-04-26T16:09:50.999Z</time></trkpt><trkpt lat="39.82901356924105" lon="15.779218631837548"><ele>91.0</ele><time>2026-04-26T16:09:51.999Z</time></trkpt><trkpt lat="39.82889873168342" lon="15.779034146686783"><ele>91.0</ele><time>2026-04-26T16:09:52.999Z</time></trkpt><trkpt lat="39.828769584633704" lon="15.77886309394457"><ele>91.0</ele><time>2026-04-26T16:09:53.999Z</time></trkpt><trkpt lat="39.82863474214688" lon="15.778699713314875"><ele>91.0</ele><time>2026-04-26T16:09:54.999Z</time></trkpt><trkpt lat="39.82849200590996" lon="15.77854275611807"><ele>91.0</ele><time>2026-04-26T16:09:55.999Z</time></trkpt><trkpt lat="39.82834051019795" lon="15.7784089255379"><ele>91.0</ele><time>2026-04-26T16:09:56.999Z</time></trkpt><trkpt lat="39.82817993721645" lon="15.778285431614814"><ele>90.33333333333333</ele><time>2026-04-26T16:09:57.999Z</time></trkpt><trkpt lat="39.82801274054135" lon="15.778175047398975"><ele>89.66666666666667</ele><time>2026-04-26T16:09:58.999Z</time></trkpt><trkpt lat="39.82784094613292" lon="15.778077682815148"><ele>89.0</ele><time>2026-04-26T16:09:59.999Z</time></trkpt><trkpt lat="39.82766647392824" lon="15.777994648681299"><ele>89.33333333333334</ele><time>2026-04-26T16:10:00.999Z</time></trkpt><trkpt lat="39.827483295319105" lon="15.777926029029295"><ele>89.66666666666667</ele><time>2026-04-26T16:10:01.999Z</time></trkpt><trkpt lat="39.82729627533226" lon="15.777874431318224"><ele>90.0</ele><time>2026-04-26T16:10:02.999Z</time></trkpt><trkpt lat="39.82710725518574" lon="15.777840597318459"><ele>90.0</ele><time>2026-04-26T16:10:03.999Z</time></trkpt><trkpt lat="39.82691976326402" lon="15.777825040098062"><ele>90.0</ele><time>2026-04-26T16:10:04.999Z</time></trkpt><trkpt lat="39.82673780645023" lon="15.777824650610945"><ele>90.0</ele><time>2026-04-26T16:10:05.999Z</time></trkpt><trkpt lat="39.826560002767835" lon="15.777846968341041"><ele>89.0</ele><time>2026-04-26T16:10:06.999Z</time></trkpt><trkpt lat="39.82638457666188" lon="15.777882469396388"><ele>88.0</ele><time>2026-04-26T16:10:07.999Z</time></trkpt><trkpt lat="39.826212294241614" lon="15.777931280325372"><ele>87.0</ele><time>2026-04-26T16:10:08.999Z</time></trkpt><trkpt lat="39.826042355026765" lon="15.777991898166158"><ele>83.66666666666667</ele><time>2026-04-26T16:10:09.999Z</time></trkpt><trkpt lat="39.82587642669515" lon="15.77806638301362"><ele>80.33333333333334</ele><time>2026-04-26T16:10:10.999Z</time></trkpt><trkpt lat="39.825714206000995" lon="15.778153304484249"><ele>77.0</ele><time>2026-04-26T16:10:11.999Z</time></trkpt><trkpt lat="39.82555698945202" lon="15.778252321094584"><ele>77.0</ele><time>2026-04-26T16:10:12.999Z</time></trkpt><trkpt lat="39.825406024687716" lon="15.778367212676136"><ele>77.0</ele><time>2026-04-26T16:10:13.999Z</time></trkpt><trkpt lat="39.825259789519464" lon="15.778495673967441"><ele>77.0</ele><time>2026-04-26T16:10:14.999Z</time></trkpt><trkpt lat="39.82511737021145" lon="15.7786333524835"><ele>76.0</ele><time>2026-04-26T16:10:15.999Z</time></trkpt><trkpt lat="39.82497849737176" lon="15.778776688197613"><ele>75.0</ele><time>2026-04-26T16:10:16.999Z</time></trkpt><trkpt lat="39.824843732167075" lon="15.77892517992742"><ele>74.0</ele><time>2026-04-26T16:10:17.999Z</time></trkpt><trkpt lat="39.82470845752503" lon="15.779072087763433"><ele>74.0</ele><time>2026-04-26T16:10:18.999Z</time></trkpt><trkpt lat="39.8245716320655" lon="15.779215113261476"><ele>74.0</ele><time>2026-04-26T16:10:19.999Z</time></trkpt><trkpt lat="39.82443404892908" lon="15.779358561855574"><ele>74.0</ele><time>2026-04-26T16:10:20.999Z</time></trkpt><trkpt lat="39.824295865384244" lon="15.77950748372578"><ele>73.33333333333334</ele><time>2026-04-26T16:10:21.999Z</time></trkpt><trkpt lat="39.82415618843025" lon="15.779656430705247"><ele>72.66666666666667</ele><time>2026-04-26T16:10:22.999Z</time></trkpt><trkpt lat="39.82401398070381" lon="15.779802526932638"><ele>72.0</ele><time>2026-04-26T16:10:23.999Z</time></trkpt><trkpt lat="39.823873337632335" lon="15.779952837528072"><ele>72.0</ele><time>2026-04-26T16:10:24.999Z</time></trkpt><trkpt lat="39.82373355272331" lon="15.780107294519574"><ele>72.0</ele><time>2026-04-26T16:10:25.999Z</time></trkpt><trkpt lat="39.823592813153425" lon="15.78025985786315"><ele>72.0</ele><time>2026-04-26T16:10:26.999Z</time></trkpt><trkpt lat="39.823455784794554" lon="15.780407584786186"><ele>69.66666666666667</ele><time>2026-04-26T16:10:28Z</time></trkpt><trkpt lat="39.82332032825987" lon="15.780552763711901"><ele>67.33333333333334</ele><time>2026-04-26T16:10:29Z</time></trkpt><trkpt lat="39.8231900709217" lon="15.780695170227455"><ele>65.0</ele><time>2026-04-26T16:10:30Z</time></trkpt><trkpt lat="39.82306367881638" lon="15.780830531265352"><ele>65.0</ele><time>2026-04-26T16:10:31Z</time></trkpt><trkpt lat="39.82294074443893" lon="15.780961207351835"><ele>65.0</ele><time>2026-04-26T16:10:32Z</time></trkpt><trkpt lat="39.82282089723007" lon="15.781085428400516"><ele>65.0</ele><time>2026-04-26T16:10:33Z</time></trkpt><trkpt lat="39.822703538555146" lon="15.781207490643713"><ele>63.0</ele><time>2026-04-26T16:10:34Z</time></trkpt><trkpt lat="39.822589533707195" lon="15.781328470430648"><ele>61.0</ele><time>2026-04-26T16:10:35Z</time></trkpt><trkpt lat="39.82247750163634" lon="15.781450442467381"><ele>59.0</ele><time>2026-04-26T16:10:36Z</time></trkpt><trkpt lat="39.82236438085419" lon="15.781568443497097"><ele>57.0</ele><time>2026-04-26T16:10:37Z</time></trkpt><trkpt lat="39.822254289424855" lon="15.781688469532355"><ele>57.0</ele><time>2026-04-26T16:10:38Z</time></trkpt><trkpt lat="39.82214221198325" lon="15.781805052573718"><ele>57.0</ele><time>2026-04-26T16:10:39Z</time></trkpt><trkpt lat="39.82202917883859" lon="15.781922841751362"><ele>57.0</ele><time>2026-04-26T16:10:40Z</time></trkpt><trkpt lat="39.82191627968707" lon="15.782042427584681"><ele>57.0</ele><time>2026-04-26T16:10:41Z</time></trkpt><trkpt lat="39.82180291649054" lon="15.782163644650344"><ele>55.25</ele><time>2026-04-26T16:10:42Z</time></trkpt><trkpt lat="39.82168977423113" lon="15.782287534978002"><ele>53.5</ele><time>2026-04-26T16:10:43Z</time></trkpt><trkpt lat="39.8215732377316" lon="15.78241088859534"><ele>51.75</ele><time>2026-04-26T16:10:44Z</time></trkpt><trkpt lat="39.82145543523531" lon="15.78253361791772"><ele>50.0</ele><time>2026-04-26T16:10:45Z</time></trkpt><trkpt lat="39.821340347671416" lon="15.782660982046025"><ele>54.0</ele><time>2026-04-26T16:10:46Z</time></trkpt><trkpt lat="39.821227012045284" lon="15.782795266438953"><ele>58.0</ele><time>2026-04-26T16:10:47Z</time></trkpt><trkpt lat="39.82111807303738" lon="15.782936755614765"><ele>62.0</ele><time>2026-04-26T16:10:48Z</time></trkpt><trkpt lat="39.82101119446378" lon="15.78308298916183"><ele>59.0</ele><time>2026-04-26T16:10:49Z</time></trkpt><trkpt lat="39.820908270586344" lon="15.783233181562112"><ele>56.0</ele><time>2026-04-26T16:10:50Z</time></trkpt><trkpt lat="39.820813735652976" lon="15.783383370118115"><ele>53.0</ele><time>2026-04-26T16:10:51Z</time></trkpt><trkpt lat="39.82072288270073" lon="15.783532293345596"><ele>53.0</ele><time>2026-04-26T16:10:52Z</time></trkpt><trkpt lat="39.82063621591786" lon="15.783680479945719"><ele>53.0</ele><time>2026-04-26T16:10:53Z</time></trkpt><trkpt lat="39.820552845006574" lon="15.78382669209383"><ele>53.0</ele><time>2026-04-26T16:10:54Z</time></trkpt><trkpt lat="39.8204700152295" lon="15.783969631129947"><ele>53.0</ele><time>2026-04-26T16:10:55Z</time></trkpt><trkpt lat="39.820383540858714" lon="15.784105175931309"><ele>53.0</ele><time>2026-04-26T16:10:56Z</time></trkpt><trkpt lat="39.82030072037971" lon="15.784237222328633"><ele>53.0</ele><time>2026-04-26T16:10:57Z</time></trkpt><trkpt lat="39.82021944168441" lon="15.784368069130624"><ele>53.0</ele><time>2026-04-26T16:10:58Z</time></trkpt><trkpt lat="39.82013730461154" lon="15.784500956198883"><ele>53.0</ele><time>2026-04-26T16:10:59Z</time></trkpt><trkpt lat="39.82005963146383" lon="15.7846328593032"><ele>50.25</ele><time>2026-04-26T16:11:00Z</time></trkpt><trkpt lat="39.819981367340105" lon="15.78475721761777"><ele>47.5</ele><time>2026-04-26T16:11:01Z</time></trkpt><trkpt lat="39.81990162123469" lon="15.784879668912897"><ele>44.75</ele><time>2026-04-26T16:11:02Z</time></trkpt><trkpt lat="39.819821867474175" lon="15.785002184361723"><ele>42.0</ele><time>2026-04-26T16:11:03Z</time></trkpt><trkpt lat="39.819740576343136" lon="15.785123964378057"><ele>43.75</ele><time>2026-04-26T16:11:04Z</time></trkpt><trkpt lat="39.81965811039105" lon="15.78524426607245"><ele>45.5</ele><time>2026-04-26T16:11:05Z</time></trkpt><trkpt lat="39.81957523240314" lon="15.785364307358535"><ele>47.25</ele><time>2026-04-26T16:11:06Z</time></trkpt><trkpt lat="39.81949008488227" lon="15.785481979474334"><ele>49.0</ele><time>2026-04-26T16:11:07Z</time></trkpt><trkpt lat="39.81940317557353" lon="15.785597962382806"><ele>49.0</ele><time>2026-04-26T16:11:08Z</time></trkpt><trkpt lat="39.81931885704622" lon="15.785712251802753"><ele>49.0</ele><time>2026-04-26T16:11:09Z</time></trkpt><trkpt lat="39.81923433320338" lon="15.785824197099743"><ele>49.0</ele><time>2026-04-26T16:11:10Z</time></trkpt><trkpt lat="39.819150905458976" lon="15.78593246625535"><ele>49.0</ele><time>2026-04-26T16:11:11Z</time></trkpt><trkpt lat="39.81906926025619" lon="15.786038054256881"><ele>47.6</ele><time>2026-04-26T16:11:12Z</time></trkpt><trkpt lat="39.818989151643784" lon="15.786140799182975"><ele>46.2</ele><time>2026-04-26T16:11:13Z</time></trkpt><trkpt lat="39.818910874781494" lon="15.786244487362545"><ele>44.800000000000004</ele><time>2026-04-26T16:11:14Z</time></trkpt><trkpt lat="39.81883246493547" lon="15.786344913408897"><ele>43.400000000000006</ele><time>2026-04-26T16:11:15Z</time></trkpt><trkpt lat="39.81874963966553" lon="15.786435771190108"><ele>42.0</ele><time>2026-04-26T16:11:16Z</time></trkpt><trkpt lat="39.81866578811596" lon="15.786517471470853"><ele>42.0</ele><time>2026-04-26T16:11:17Z</time></trkpt><trkpt lat="39.81858155472658" lon="15.786596440855643"><ele>42.0</ele><time>2026-04-26T16:11:18Z</time></trkpt><trkpt lat="39.818499152135516" lon="15.786677483115424"><ele>42.0</ele><time>2026-04-26T16:11:19Z</time></trkpt><trkpt lat="39.818414486207374" lon="15.786755484735917"><ele>42.0</ele><time>2026-04-26T16:11:20Z</time></trkpt><trkpt lat="39.81832450697533" lon="15.786831245846233"><ele>42.0</ele><time>2026-04-26T16:11:21Z</time></trkpt><trkpt lat="39.818228103366415" lon="15.786901084594197"><ele>41.75</ele><time>2026-04-26T16:11:22Z</time></trkpt><trkpt lat="39.8181300101471" lon="15.786972972417209"><ele>41.5</ele><time>2026-04-26T16:11:23Z</time></trkpt><trkpt lat="39.818025369548266" lon="15.787038385270728"><ele>41.25</ele><time>2026-04-26T16:11:24Z</time></trkpt><trkpt lat="39.81792027160442" lon="15.787105230917263"><ele>41.0</ele><time>2026-04-26T16:11:25Z</time></trkpt><trkpt lat="39.81781334814445" lon="15.787168390891225"><ele>41.0</ele><time>2026-04-26T16:11:26Z</time></trkpt><trkpt lat="39.817707504508405" lon="15.787227044395188"><ele>41.0</ele><time>2026-04-26T16:11:27Z</time></trkpt><trkpt lat="39.817598800474144" lon="15.78728295161539"><ele>41.0</ele><time>2026-04-26T16:11:28Z</time></trkpt><trkpt lat="39.817486665640914" lon="15.787328955965117"><ele>41.0</ele><time>2026-04-26T16:11:29Z</time></trkpt><trkpt lat="39.81736804705134" lon="15.787359121676587"><ele>37.0</ele><time>2026-04-26T16:11:30Z</time></trkpt><trkpt lat="39.817251762948764" lon="15.787377732263412"><ele>33.0</ele><time>2026-04-26T16:11:31Z</time></trkpt><trkpt lat="39.81713220242284" lon="15.787389695848885"><ele>29.0</ele><time>2026-04-26T16:11:32Z</time></trkpt><trkpt lat="39.817012967259465" lon="15.78739749042222"><ele>25.0</ele><time>2026-04-26T16:11:33Z</time></trkpt><trkpt lat="39.81689555515923" lon="15.787405749696019"><ele>22.5</ele><time>2026-04-26T16:11:34Z</time></trkpt><trkpt lat="39.81677460703193" lon="15.78741014766861"><ele>20.0</ele><time>2026-04-26T16:11:35Z</time></trkpt><trkpt lat="39.81665464608318" lon="15.787414719635569"><ele>17.5</ele><time>2026-04-26T16:11:36Z</time></trkpt><trkpt lat="39.81653542547647" lon="15.78742334430698"><ele>15.0</ele><time>2026-04-26T16:11:37Z</time></trkpt><trkpt lat="39.81641796599792" lon="15.787442940177069"><ele>15.0</ele><time>2026-04-26T16:11:38Z</time></trkpt><trkpt lat="39.81630536164953" lon="15.787479173075544"><ele>15.0</ele><time>2026-04-26T16:11:39Z</time></trkpt><trkpt lat="39.81619883490132" lon="15.787532884372666"><ele>15.0</ele><time>2026-04-26T16:11:40Z</time></trkpt><trkpt lat="39.81609564177602" lon="15.787595425538832"><ele>15.0</ele><time>2026-04-26T16:11:41Z</time></trkpt><trkpt lat="39.81599522308648" lon="15.787661493869464"><ele>13.4</ele><time>2026-04-26T16:11:42Z</time></trkpt><trkpt lat="39.815893698997314" lon="15.787724040760894"><ele>11.8</ele><time>2026-04-26T16:11:43Z</time></trkpt><trkpt lat="39.815791813652844" lon="15.78778487451014"><ele>10.2</ele><time>2026-04-26T16:11:44Z</time></trkpt><trkpt lat="39.8156937332727" lon="15.787842031459437"><ele>8.6</ele><time>2026-04-26T16:11:45Z</time></trkpt><trkpt lat="39.81559299540264" lon="15.787902173860003"><ele>7.0</ele><time>2026-04-26T16:11:46Z</time></trkpt><trkpt lat="39.815490894832905" lon="15.787966852340716"><ele>7.0</ele><time>2026-04-26T16:11:47Z</time></trkpt><trkpt lat="39.81539197948984" lon="15.788032441535023"><ele>7.0</ele><time>2026-04-26T16:11:48Z</time></trkpt><trkpt lat="39.81528809214927" lon="15.788100898521122"><ele>7.0</ele><time>2026-04-26T16:11:49Z</time></trkpt><trkpt lat="39.81518222641192" lon="15.788165967072675"><ele>7.0</ele><time>2026-04-26T16:11:50Z</time></trkpt><trkpt lat="39.81507931473453" lon="15.788226427771571"><ele>6.3999999999999995</ele><time>2026-04-26T16:11:51Z</time></trkpt><trkpt lat="39.81497922395045" lon="15.78828523850897"><ele>5.799999999999999</ele><time>2026-04-26T16:11:52Z</time></trkpt><trkpt lat="39.8148808619214" lon="15.788343195985748"><ele>5.2</ele><time>2026-04-26T16:11:53Z</time></trkpt><trkpt lat="39.81477974011393" lon="15.788400659672122"><ele>4.6</ele><time>2026-04-26T16:11:54Z</time></trkpt><trkpt lat="39.81467839431398" lon="15.788459206542218"><ele>4.0</ele><time>2026-04-26T16:11:55Z</time></trkpt><trkpt lat="39.8145839354946" lon="15.788514249833016"><ele>3.9999999999999996</ele><time>2026-04-26T16:11:56Z</time></trkpt><trkpt lat="39.814504158123356" lon="15.788561167947174"><ele>4.0</ele><time>2026-04-26T16:11:57Z</time></trkpt><trkpt lat="39.81443460918486" lon="15.788601475239915"><ele>4.0</ele><time>2026-04-26T16:11:58Z</time></trkpt><trkpt lat="39.814340400781965" lon="15.788656234549997"><ele>4.0</ele><time>2026-04-26T16:12:00Z</time></trkpt><trkpt lat="39.81425576359248" lon="15.788705664222665"><ele>3.9999999999999996</ele><time>2026-04-26T16:12:03Z</time></trkpt><trkpt lat="39.814189867286785" lon="15.78874137625799"><ele>4.0</ele><time>2026-04-26T16:12:04.999Z</time></trkpt><trkpt lat="39.81411424651339" lon="15.788779355712135"><ele>4.166666666666666</ele><time>2026-04-26T16:12:06.999Z</time></trkpt><trkpt lat="39.81403888968051" lon="15.788832826553483"><ele>4.333333333333333</ele><time>2026-04-26T16:12:08.999Z</time></trkpt><trkpt lat="39.8139551916689" lon="15.788886431345812"><ele>4.5</ele><time>2026-04-26T16:12:10.999Z</time></trkpt><trkpt lat="39.813855211500666" lon="15.788957525121246"><ele>4.666666666666667</ele><time>2026-04-26T16:12:12.999Z</time></trkpt><trkpt lat="39.81379193772192" lon="15.789000143747984"><ele>4.833333333333334</ele><time>2026-04-26T16:12:13.999Z</time></trkpt><trkpt lat="39.813727895140566" lon="15.789044436997983"><ele>5.0</ele><time>2026-04-26T16:12:14.999Z</time></trkpt><trkpt lat="39.81366042911265" lon="15.789084476801909"><ele>5.0</ele><time>2026-04-26T16:12:15.999Z</time></trkpt><trkpt lat="39.813589918759924" lon="15.78912917079448"><ele>5.0</ele><time>2026-04-26T16:12:16.999Z</time></trkpt><trkpt lat="39.8135159467209" lon="15.789172263390727"><ele>5.0</ele><time>2026-04-26T16:12:17.999Z</time></trkpt><trkpt lat="39.813444755552965" lon="15.789215247090675"><ele>5.0</ele><time>2026-04-26T16:12:18.999Z</time></trkpt><trkpt lat="39.81337338306509" lon="15.789258790481037"><ele>5.0</ele><time>2026-04-26T16:12:19.999Z</time></trkpt><trkpt lat="39.81330022213197" lon="15.789300941447022"><ele>5.0</ele><time>2026-04-26T16:12:20.999Z</time></trkpt><trkpt lat="39.813227368343355" lon="15.789342063872924"><ele>4.857142857142857</ele><time>2026-04-26T16:12:21.999Z</time></trkpt><trkpt lat="39.813154892363436" lon="15.789385404773068"><ele>4.714285714285714</ele><time>2026-04-26T16:12:22.999Z</time></trkpt><trkpt lat="39.81308841944615" lon="15.789423449000399"><ele>4.571428571428571</ele><time>2026-04-26T16:12:23.999Z</time></trkpt><trkpt lat="39.813025060908956" lon="15.789459581018614"><ele>4.428571428571429</ele><time>2026-04-26T16:12:24.999Z</time></trkpt><trkpt lat="39.81296033124503" lon="15.789491879096257"><ele>4.285714285714286</ele><time>2026-04-26T16:12:25.999Z</time></trkpt><trkpt lat="39.812890219430884" lon="15.789526702634385"><ele>4.142857142857142</ele><time>2026-04-26T16:12:26.999Z</time></trkpt><trkpt lat="39.81281375617282" lon="15.789565458296284"><ele>4.0</ele><time>2026-04-26T16:12:27.999Z</time></trkpt><trkpt lat="39.81273540848971" lon="15.789605157205802"><ele>4.0</ele><time>2026-04-26T16:12:28.999Z</time></trkpt><trkpt lat="39.81266195274208" lon="15.78964082493027"><ele>3.9999999999999996</ele><time>2026-04-26T16:12:29.999Z</time></trkpt><trkpt lat="39.8125930568018" lon="15.789664959907658"><ele>4.0</ele><time>2026-04-26T16:12:30.999Z</time></trkpt><trkpt lat="39.81252970196402" lon="15.7896876787847"><ele>4.0</ele><time>2026-04-26T16:12:31.999Z</time></trkpt><trkpt lat="39.81244386876556" lon="15.789716776698851"><ele>3.9999999999999996</ele><time>2026-04-26T16:12:34Z</time></trkpt><trkpt lat="39.812376622461805" lon="15.7897335935557"><ele>4.0</ele><time>2026-04-26T16:12:36Z</time></trkpt><trkpt lat="39.812303689768264" lon="15.789747241692675"><ele>4.0</ele><time>2026-04-26T16:12:38Z</time></trkpt><trkpt lat="39.812223639774174" lon="15.789762538798817"><ele>3.833333333333333</ele><time>2026-04-26T16:12:40Z</time></trkpt><trkpt lat="39.81210827087243" lon="15.789777270264059"><ele>3.6666666666666665</ele><time>2026-04-26T16:12:42Z</time></trkpt><trkpt lat="39.8120336470851" lon="15.789785275024373"><ele>3.5</ele><time>2026-04-26T16:12:43Z</time></trkpt><trkpt lat="39.811949551938405" lon="15.789795359384748"><ele>3.333333333333333</ele><time>2026-04-26T16:12:44Z</time></trkpt><trkpt lat="39.81186512372203" lon="15.78980406718241"><ele>3.1666666666666665</ele><time>2026-04-26T16:12:45Z</time></trkpt><trkpt lat="39.8117802927104" lon="15.78980856672288"><ele>3.0</ele><time>2026-04-26T16:12:46Z</time></trkpt><trkpt lat="39.811692054861965" lon="15.789816687016753"><ele>3.2857142857142856</ele><time>2026-04-26T16:12:47Z</time></trkpt><trkpt lat="39.81160789577695" lon="15.789825982273136"><ele>3.571428571428571</ele><time>2026-04-26T16:12:48Z</time></trkpt><trkpt lat="39.811529706542835" lon="15.789836252144402"><ele>3.8571428571428568</ele><time>2026-04-26T16:12:49Z</time></trkpt><trkpt lat="39.81145572991633" lon="15.78984389137391"><ele>4.142857142857142</ele><time>2026-04-26T16:12:50Z</time></trkpt><trkpt lat="39.81138539966267" lon="15.789855860878852"><ele>4.428571428571429</ele><time>2026-04-26T16:12:51Z</time></trkpt><trkpt lat="39.81131745991409" lon="15.78986304320111"><ele>4.714285714285714</ele><time>2026-04-26T16:12:52Z</time></trkpt><trkpt lat="39.81124770057248" lon="15.78986984961206"><ele>5.0</ele><time>2026-04-26T16:12:53Z</time></trkpt><trkpt lat="39.811177303293114" lon="15.789881820872898"><ele>5.0</ele><time>2026-04-26T16:12:54Z</time></trkpt><trkpt lat="39.81110783585635" lon="15.789890325092841"><ele>5.0</ele><time>2026-04-26T16:12:55Z</time></trkpt><trkpt lat="39.81103931508346" lon="15.78989927522897"><ele>5.0</ele><time>2026-04-26T16:12:56Z</time></trkpt><trkpt lat="39.81096741797541" lon="15.789905885734067"><ele>5.0</ele><time>2026-04-26T16:12:57Z</time></trkpt><trkpt lat="39.81089165508658" lon="15.78991236486806"><ele>5.0</ele><time>2026-04-26T16:12:58Z</time></trkpt><trkpt lat="39.81081288427836" lon="15.789922185616838"><ele>5.0</ele><time>2026-04-26T16:12:59Z</time></trkpt><trkpt lat="39.81073256916649" lon="15.789935036344994"><ele>5.0</ele><time>2026-04-26T16:13:00Z</time></trkpt><trkpt lat="39.81065209804445" lon="15.789943800151834"><ele>5.428571428571429</ele><time>2026-04-26T16:13:01Z</time></trkpt><trkpt lat="39.81057090843677" lon="15.789948952344153"><ele>5.857142857142858</ele><time>2026-04-26T16:13:02Z</time></trkpt><trkpt lat="39.810489967448504" lon="15.789954602183714"><ele>6.285714285714286</ele><time>2026-04-26T16:13:03Z</time></trkpt><trkpt lat="39.81041619214119" lon="15.789966457469331"><ele>6.7142857142857135</ele><time>2026-04-26T16:13:04Z</time></trkpt><trkpt lat="39.81034863567287" lon="15.789975017049398"><ele>7.142857142857142</ele><time>2026-04-26T16:13:05Z</time></trkpt><trkpt lat="39.81028332133735" lon="15.789981926859944"><ele>7.571428571428571</ele><time>2026-04-26T16:13:06Z</time></trkpt><trkpt lat="39.81022037457468" lon="15.789988294516547"><ele>8.0</ele><time>2026-04-26T16:13:07Z</time></trkpt><trkpt lat="39.810102296718064" lon="15.79000222541181"><ele>7.999999999999999</ele><time>2026-04-26T16:13:09Z</time></trkpt><trkpt lat="39.809975060431135" lon="15.790011638767844"><ele>8.0</ele><time>2026-04-26T16:13:11Z</time></trkpt><trkpt lat="39.80990535848765" lon="15.790018172490216"><ele>8.0</ele><time>2026-04-26T16:13:12Z</time></trkpt><trkpt lat="39.80983490331707" lon="15.79002388721603"><ele>8.0</ele><time>2026-04-26T16:13:13Z</time></trkpt><trkpt lat="39.809760367733865" lon="15.790030800571154"><ele>7.999999999999999</ele><time>2026-04-26T16:13:14Z</time></trkpt><trkpt lat="39.809682120177506" lon="15.790043823393257"><ele>8.0</ele><time>2026-04-26T16:13:15Z</time></trkpt><trkpt lat="39.80960255907898" lon="15.790054074271136"><ele>8.0</ele><time>2026-04-26T16:13:16Z</time></trkpt><trkpt lat="39.80951833854369" lon="15.790063421525074"><ele>8.0</ele><time>2026-04-26T16:13:17Z</time></trkpt><trkpt lat="39.80943213290633" lon="15.790072766709988"><ele>8.0</ele><time>2026-04-26T16:13:18Z</time></trkpt><trkpt lat="39.809343020760494" lon="15.790084295362718"><ele>8.0</ele><time>2026-04-26T16:13:19Z</time></trkpt><trkpt lat="39.80925014318715" lon="15.7900941264064"><ele>8.0</ele><time>2026-04-26T16:13:20Z</time></trkpt><trkpt lat="39.80915233936863" lon="15.790099991220812"><ele>7.25</ele><time>2026-04-26T16:13:21Z</time></trkpt><trkpt lat="39.80904743482728" lon="15.790100138277756"><ele>6.5</ele><time>2026-04-26T16:13:22Z</time></trkpt><trkpt lat="39.8089373141551" lon="15.790112050640476"><ele>5.75</ele><time>2026-04-26T16:13:23Z</time></trkpt><trkpt lat="39.80881796815451" lon="15.790128940406603"><ele>5.0</ele><time>2026-04-26T16:13:24Z</time></trkpt><trkpt lat="39.80869439301518" lon="15.790146090936812"><ele>5.0</ele><time>2026-04-26T16:13:25Z</time></trkpt><trkpt lat="39.808567171396426" lon="15.790161691299623"><ele>5.0</ele><time>2026-04-26T16:13:26Z</time></trkpt><trkpt lat="39.80843836089475" lon="15.790178796901492"><ele>5.0</ele><time>2026-04-26T16:13:27Z</time></trkpt><trkpt lat="39.80830692460812" lon="15.790192760850154"><ele>5.0</ele><time>2026-04-26T16:13:28Z</time></trkpt><trkpt lat="39.808178875032475" lon="15.790207258776359"><ele>5.25</ele><time>2026-04-26T16:13:29Z</time></trkpt><trkpt lat="39.80805588255285" lon="15.790221092301493"><ele>5.5</ele><time>2026-04-26T16:13:30Z</time></trkpt><trkpt lat="39.807937010889994" lon="15.790234159263179"><ele>5.75</ele><time>2026-04-26T16:13:31Z</time></trkpt><trkpt lat="39.80782291631023" lon="15.790240997596797"><ele>6.0</ele><time>2026-04-26T16:13:32Z</time></trkpt><trkpt lat="39.807714638080874" lon="15.79024744947103"><ele>5.6</ele><time>2026-04-26T16:13:33Z</time></trkpt><trkpt lat="39.80760813731121" lon="15.790244266656654"><ele>5.199999999999999</ele><time>2026-04-26T16:13:34Z</time></trkpt><trkpt lat="39.80749868195629" lon="15.790255145565881"><ele>4.800000000000001</ele><time>2026-04-26T16:13:35Z</time></trkpt><trkpt lat="39.80738446495009" lon="15.790278013753962"><ele>4.4</ele><time>2026-04-26T16:13:36Z</time></trkpt><trkpt lat="39.807270013676344" lon="15.790296120082965"><ele>4.0</ele><time>2026-04-26T16:13:37Z</time></trkpt><trkpt lat="39.807146386687585" lon="15.790318905127494"><ele>4.0</ele><time>2026-04-26T16:13:38Z</time></trkpt><trkpt lat="39.80702842850055" lon="15.790329101969874"><ele>4.0</ele><time>2026-04-26T16:13:39Z</time></trkpt><trkpt lat="39.80690609240351" lon="15.790340218353839"><ele>4.0</ele><time>2026-04-26T16:13:40Z</time></trkpt><trkpt lat="39.80678453662001" lon="15.790348287626276"><ele>4.0</ele><time>2026-04-26T16:13:41Z</time></trkpt><trkpt lat="39.80666138903308" lon="15.790360960244326"><ele>4.0</ele><time>2026-04-26T16:13:42Z</time></trkpt><trkpt lat="39.8065377201038" lon="15.790373842795669"><ele>4.0</ele><time>2026-04-26T16:13:43Z</time></trkpt><trkpt lat="39.80641215373783" lon="15.790388213698382"><ele>4.0</ele><time>2026-04-26T16:13:44Z</time></trkpt><trkpt lat="39.80628541033851" lon="15.790403543280002"><ele>4.0</ele><time>2026-04-26T16:13:45Z</time></trkpt><trkpt lat="39.80615963697333" lon="15.790414314039941"><ele>4.0</ele><time>2026-04-26T16:13:46Z</time></trkpt><trkpt lat="39.806033960605" lon="15.7904259634042"><ele>4.0</ele><time>2026-04-26T16:13:47Z</time></trkpt><trkpt lat="39.80590698145938" lon="15.790441189697004"><ele>4.0</ele><time>2026-04-26T16:13:48Z</time></trkpt><trkpt lat="39.80577956783644" lon="15.790456148256172"><ele>4.0</ele><time>2026-04-26T16:13:49Z</time></trkpt><trkpt lat="39.80565319890817" lon="15.7904691666946"><ele>4.0</ele><time>2026-04-26T16:13:50Z</time></trkpt><trkpt lat="39.80552505267668" lon="15.790487517775679"><ele>4.0</ele><time>2026-04-26T16:13:51Z</time></trkpt><trkpt lat="39.80539867970831" lon="15.79050055375142"><ele>4.0</ele><time>2026-04-26T16:13:52Z</time></trkpt><trkpt lat="39.80527500339683" lon="15.790508005338488"><ele>4.0</ele><time>2026-04-26T16:13:53Z</time></trkpt><trkpt lat="39.80515104847852" lon="15.790519370722265"><ele>3.75</ele><time>2026-04-26T16:13:54Z</time></trkpt><trkpt lat="39.80502733511765" lon="15.790535778435517"><ele>3.5</ele><time>2026-04-26T16:13:55Z</time></trkpt><trkpt lat="39.80490151422935" lon="15.79055109524507"><ele>3.25</ele><time>2026-04-26T16:13:56Z</time></trkpt><trkpt lat="39.804776584036105" lon="15.790561139745515"><ele>3.0</ele><time>2026-04-26T16:13:57Z</time></trkpt><trkpt lat="39.804650891286244" lon="15.790573730366306"><ele>3.0</ele><time>2026-04-26T16:13:58Z</time></trkpt><trkpt lat="39.80452516063481" lon="15.79058824882133"><ele>3.0</ele><time>2026-04-26T16:13:59Z</time></trkpt><trkpt lat="39.804398481739796" lon="15.790604044976446"><ele>3.0</ele><time>2026-04-26T16:14:00Z</time></trkpt><trkpt lat="39.80427255937192" lon="15.790621180781969"><ele>3.0</ele><time>2026-04-26T16:14:01Z</time></trkpt><trkpt lat="39.804145308523985" lon="15.790638939419665"><ele>3.75</ele><time>2026-04-26T16:14:02Z</time></trkpt><trkpt lat="39.804018795260376" lon="15.790656916176717"><ele>4.5</ele><time>2026-04-26T16:14:03Z</time></trkpt><trkpt lat="39.80389232291196" lon="15.790674411967112"><ele>5.25</ele><time>2026-04-26T16:14:04Z</time></trkpt><trkpt lat="39.80376822472591" lon="15.790693758244753"><ele>6.0</ele><time>2026-04-26T16:14:05Z</time></trkpt><trkpt lat="39.803647205178564" lon="15.790712518076278"><ele>6.0</ele><time>2026-04-26T16:14:06Z</time></trkpt><trkpt lat="39.80352902830411" lon="15.790732605202345"><ele>6.0</ele><time>2026-04-26T16:14:06.999Z</time></trkpt><trkpt lat="39.803414052884655" lon="15.790756091718114"><ele>6.0</ele><time>2026-04-26T16:14:07.999Z</time></trkpt><trkpt lat="39.80329980236172" lon="15.790778282143686"><ele>6.0</ele><time>2026-04-26T16:14:08.999Z</time></trkpt><trkpt lat="39.80318651059313" lon="15.790798252285548"><ele>6.0</ele><time>2026-04-26T16:14:09.999Z</time></trkpt><trkpt lat="39.80307517080397" lon="15.790824471654604"><ele>6.0</ele><time>2026-04-26T16:14:10.999Z</time></trkpt><trkpt lat="39.8029647617079" lon="15.790847462524109"><ele>6.0</ele><time>2026-04-26T16:14:11.999Z</time></trkpt><trkpt lat="39.802855184078894" lon="15.790872097907657"><ele>6.0</ele><time>2026-04-26T16:14:12.999Z</time></trkpt><trkpt lat="39.80274613608205" lon="15.790896909119516"><ele>6.0</ele><time>2026-04-26T16:14:13.999Z</time></trkpt><trkpt lat="39.80263764219261" lon="15.790923223771415"><ele>6.0</ele><time>2026-04-26T16:14:14.999Z</time></trkpt><trkpt lat="39.80252958717547" lon="15.790951637333743"><ele>6.0</ele><time>2026-04-26T16:14:15.999Z</time></trkpt><trkpt lat="39.80242116086712" lon="15.790980017431869"><ele>6.0</ele><time>2026-04-26T16:14:16.999Z</time></trkpt><trkpt lat="39.80231324457274" lon="15.791008530711961"><ele>6.0</ele><time>2026-04-26T16:14:17.999Z</time></trkpt><trkpt lat="39.80220400287272" lon="15.791038866598525"><ele>6.0</ele><time>2026-04-26T16:14:18.999Z</time></trkpt><trkpt lat="39.80209940723304" lon="15.791065537952264"><ele>6.0</ele><time>2026-04-26T16:14:19.999Z</time></trkpt><trkpt lat="39.801991363646664" lon="15.79109231192402"><ele>6.0</ele><time>2026-04-26T16:14:20.999Z</time></trkpt><trkpt lat="39.80187850326503" lon="15.791124960877596"><ele>6.0</ele><time>2026-04-26T16:14:21.999Z</time></trkpt><trkpt lat="39.80176234969945" lon="15.791158335881017"><ele>6.0</ele><time>2026-04-26T16:14:22.999Z</time></trkpt><trkpt lat="39.80164131378853" lon="15.791197010262636"><ele>6.0</ele><time>2026-04-26T16:14:23.999Z</time></trkpt><trkpt lat="39.80152091540535" lon="15.791233438718123"><ele>6.0</ele><time>2026-04-26T16:14:24.999Z</time></trkpt><trkpt lat="39.801402213363765" lon="15.791269252693485"><ele>6.0</ele><time>2026-04-26T16:14:25.999Z</time></trkpt><trkpt lat="39.80128894106486" lon="15.79130387090537"><ele>6.0</ele><time>2026-04-26T16:14:26.999Z</time></trkpt><trkpt lat="39.80117554198316" lon="15.791337408849335"><ele>6.0</ele><time>2026-04-26T16:14:27.999Z</time></trkpt><trkpt lat="39.80106092321943" lon="15.791371300123101"><ele>6.0</ele><time>2026-04-26T16:14:28.999Z</time></trkpt><trkpt lat="39.8009445515429" lon="15.791404949541661"><ele>6.0</ele><time>2026-04-26T16:14:29.999Z</time></trkpt><trkpt lat="39.80080976540785" lon="15.791336766958512"><ele>6.0</ele><time>2026-04-26T16:14:30.999Z</time></trkpt><trkpt lat="39.80071378494302" lon="15.791476344120076"><ele>6.0</ele><time>2026-04-26T16:14:31.999Z</time></trkpt><trkpt lat="39.800597365015776" lon="15.791511798661531"><ele>6.0</ele><time>2026-04-26T16:14:32.999Z</time></trkpt><trkpt lat="39.80048118894329" lon="15.791547623944162"><ele>6.0</ele><time>2026-04-26T16:14:33.999Z</time></trkpt><trkpt lat="39.800365505439785" lon="15.791583467905875"><ele>6.0</ele><time>2026-04-26T16:14:34.999Z</time></trkpt><trkpt lat="39.80025012693604" lon="15.791616768269835"><ele>5.5</ele><time>2026-04-26T16:14:35.999Z</time></trkpt><trkpt lat="39.80013459076709" lon="15.791649965665348"><ele>5.0</ele><time>2026-04-26T16:14:36.999Z</time></trkpt><trkpt lat="39.80002023214012" lon="15.791684106771912"><ele>4.5</ele><time>2026-04-26T16:14:37.999Z</time></trkpt><trkpt lat="39.799904892457214" lon="15.791719591065549"><ele>4.0</ele><time>2026-04-26T16:14:39Z</time></trkpt><trkpt lat="39.79976951058515" lon="15.791646374896343"><ele>4.0</ele><time>2026-04-26T16:14:40Z</time></trkpt><trkpt lat="39.79967311248735" lon="15.791788386600548"><ele>4.0</ele><time>2026-04-26T16:14:41Z</time></trkpt><trkpt lat="39.799557941329745" lon="15.791822297554571"><ele>4.0</ele><time>2026-04-26T16:14:42Z</time></trkpt><trkpt lat="39.799442013160736" lon="15.791856043144458"><ele>4.0</ele><time>2026-04-26T16:14:43Z</time></trkpt><trkpt lat="39.79932648194897" lon="15.791891293740601"><ele>3.5</ele><time>2026-04-26T16:14:44Z</time></trkpt><trkpt lat="39.79921086557443" lon="15.791928389506197"><ele>3.0</ele><time>2026-04-26T16:14:45Z</time></trkpt><trkpt lat="39.799095169024426" lon="15.791964188819382"><ele>2.5</ele><time>2026-04-26T16:14:46Z</time></trkpt><trkpt lat="39.79897878115986" lon="15.791995514541801"><ele>2.0</ele><time>2026-04-26T16:14:47Z</time></trkpt><trkpt lat="39.79886386756518" lon="15.792026564690063"><ele>2.0</ele><time>2026-04-26T16:14:48Z</time></trkpt><trkpt lat="39.798750241310856" lon="15.792065086335006"><ele>2.0</ele><time>2026-04-26T16:14:49Z</time></trkpt><trkpt lat="39.798635428036754" lon="15.792100407287563"><ele>2.0</ele><time>2026-04-26T16:14:50Z</time></trkpt><trkpt lat="39.79852015466566" lon="15.792137386641697"><ele>2.0</ele><time>2026-04-26T16:14:51Z</time></trkpt><trkpt lat="39.79840439733024" lon="15.792173205654871"><ele>2.5</ele><time>2026-04-26T16:14:52Z</time></trkpt><trkpt lat="39.79828816849958" lon="15.792207228928744"><ele>3.0</ele><time>2026-04-26T16:14:53Z</time></trkpt><trkpt lat="39.79817206526159" lon="15.792241001871144"><ele>3.5</ele><time>2026-04-26T16:14:54Z</time></trkpt><trkpt lat="39.79805627098077" lon="15.792271773502328"><ele>4.0</ele><time>2026-04-26T16:14:55Z</time></trkpt><trkpt lat="39.79794046168534" lon="15.79230783903585"><ele>4.0</ele><time>2026-04-26T16:14:56Z</time></trkpt><trkpt lat="39.79782511554122" lon="15.792345668400724"><ele>4.0</ele><time>2026-04-26T16:14:57Z</time></trkpt><trkpt lat="39.79770882594961" lon="15.792382240242476"><ele>4.0</ele><time>2026-04-26T16:14:58Z</time></trkpt><trkpt lat="39.79759346151693" lon="15.79241473559193"><ele>4.0</ele><time>2026-04-26T16:14:59Z</time></trkpt><trkpt lat="39.79747670466226" lon="15.792442782613776"><ele>3.5</ele><time>2026-04-26T16:15:00Z</time></trkpt><trkpt lat="39.797361199134194" lon="15.792473601059006"><ele>3.0</ele><time>2026-04-26T16:15:01Z</time></trkpt><trkpt lat="39.797244578018265" lon="15.792504675155888"><ele>2.5</ele><time>2026-04-26T16:15:02Z</time></trkpt><trkpt lat="39.79712784625092" lon="15.792533002699887"><ele>2.0</ele><time>2026-04-26T16:15:03Z</time></trkpt><trkpt lat="39.79701171230674" lon="15.792564910125718"><ele>2.0</ele><time>2026-04-26T16:15:04Z</time></trkpt><trkpt lat="39.79689587239246" lon="15.792597655049816"><ele>2.0</ele><time>2026-04-26T16:15:05Z</time></trkpt><trkpt lat="39.79677987004482" lon="15.792629138865351"><ele>2.0</ele><time>2026-04-26T16:15:06Z</time></trkpt><trkpt lat="39.79666318537249" lon="15.792660657463012"><ele>2.0</ele><time>2026-04-26T16:15:07Z</time></trkpt><trkpt lat="39.79654668702024" lon="15.792688921792598"><ele>2.0</ele><time>2026-04-26T16:15:08Z</time></trkpt><trkpt lat="39.79643027836639" lon="15.792713320213945"><ele>2.0</ele><time>2026-04-26T16:15:09Z</time></trkpt><trkpt lat="39.796303961800376" lon="15.792669435528133"><ele>2.0</ele><time>2026-04-26T16:15:10Z</time></trkpt><trkpt lat="39.79619850889792" lon="15.7927692192239"><ele>2.0</ele><time>2026-04-26T16:15:11Z</time></trkpt><trkpt lat="39.79608291720083" lon="15.792798393696115"><ele>2.0</ele><time>2026-04-26T16:15:12Z</time></trkpt><trkpt lat="39.79596013745338" lon="15.792824102881049"><ele>2.0</ele><time>2026-04-26T16:15:13Z</time></trkpt><trkpt lat="39.79583181820805" lon="15.792851714597495"><ele>2.0</ele><time>2026-04-26T16:15:14Z</time></trkpt><trkpt lat="39.79569429431564" lon="15.792881830136762"><ele>2.0</ele><time>2026-04-26T16:15:15Z</time></trkpt><trkpt lat="39.79555131368539" lon="15.792909139417336"><ele>2.0</ele><time>2026-04-26T16:15:16Z</time></trkpt><trkpt lat="39.795401767476996" lon="15.792938245467452"><ele>2.0</ele><time>2026-04-26T16:15:17Z</time></trkpt><trkpt lat="39.79525041686591" lon="15.792966856029128"><ele>2.0</ele><time>2026-04-26T16:15:18Z</time></trkpt><trkpt lat="39.795097621892175" lon="15.792995371692363"><ele>2.333333333333333</ele><time>2026-04-26T16:15:19Z</time></trkpt><trkpt lat="39.79494039381644" lon="15.79302662827909"><ele>2.6666666666666665</ele><time>2026-04-26T16:15:20Z</time></trkpt><trkpt lat="39.79478275483902" lon="15.793054350238267"><ele>3.0</ele><time>2026-04-26T16:15:21Z</time></trkpt><trkpt lat="39.79462594024568" lon="15.793080803702484"><ele>3.0</ele><time>2026-04-26T16:15:22Z</time></trkpt><trkpt lat="39.79447201277681" lon="15.793107894223654"><ele>3.0</ele><time>2026-04-26T16:15:23Z</time></trkpt><trkpt lat="39.794321714216196" lon="15.793137395851737"><ele>3.0</ele><time>2026-04-26T16:15:24Z</time></trkpt><trkpt lat="39.79417365154091" lon="15.793166391015752"><ele>2.75</ele><time>2026-04-26T16:15:25Z</time></trkpt><trkpt lat="39.79402737041018" lon="15.793193358402302"><ele>2.5</ele><time>2026-04-26T16:15:26Z</time></trkpt><trkpt lat="39.79388327318765" lon="15.793220875308139"><ele>2.25</ele><time>2026-04-26T16:15:27Z</time></trkpt><trkpt lat="39.793741578222736" lon="15.793248278176774"><ele>2.0</ele><time>2026-04-26T16:15:28Z</time></trkpt><trkpt lat="39.79359828876701" lon="15.793274558742244"><ele>2.0</ele><time>2026-04-26T16:15:29Z</time></trkpt><trkpt lat="39.7934536282432" lon="15.7933012383612"><ele>2.0</ele><time>2026-04-26T16:15:30Z</time></trkpt><trkpt lat="39.793306300537125" lon="15.793327544415705"><ele>2.0</ele><time>2026-04-26T16:15:31Z</time></trkpt><trkpt lat="39.79316035522796" lon="15.793353420525312"><ele>2.0</ele><time>2026-04-26T16:15:32Z</time></trkpt><trkpt lat="39.79301390290819" lon="15.793383377740815"><ele>2.0</ele><time>2026-04-26T16:15:33Z</time></trkpt><trkpt lat="39.79286951075572" lon="15.793413923668231"><ele>2.0</ele><time>2026-04-26T16:15:34Z</time></trkpt><trkpt lat="39.79272736580678" lon="15.793442714171666"><ele>2.0</ele><time>2026-04-26T16:15:35Z</time></trkpt><trkpt lat="39.792585988695876" lon="15.79346758622458"><ele>2.0</ele><time>2026-04-26T16:15:36Z</time></trkpt><trkpt lat="39.792444732449454" lon="15.793493182614819"><ele>1.75</ele><time>2026-04-26T16:15:37Z</time></trkpt><trkpt lat="39.79230056704566" lon="15.793521426390683"><ele>1.5</ele><time>2026-04-26T16:15:38Z</time></trkpt><trkpt lat="39.79215232913524" lon="15.793553611964754"><ele>1.25</ele><time>2026-04-26T16:15:39Z</time></trkpt><trkpt lat="39.79200159858857" lon="15.793587333716555"><ele>1.0</ele><time>2026-04-26T16:15:40Z</time></trkpt><trkpt lat="39.79184807274798" lon="15.793614118731973"><ele>1.0</ele><time>2026-04-26T16:15:41Z</time></trkpt><trkpt lat="39.79169054606391" lon="15.793642127861268"><ele>1.0</ele><time>2026-04-26T16:15:42Z</time></trkpt><trkpt lat="39.7915303344352" lon="15.793668317508034"><ele>1.0</ele><time>2026-04-26T16:15:43Z</time></trkpt><trkpt lat="39.791366730259625" lon="15.79369498482126"><ele>1.0</ele><time>2026-04-26T16:15:44Z</time></trkpt><trkpt lat="39.79120321610236" lon="15.793723663171688"><ele>1.0</ele><time>2026-04-26T16:15:45Z</time></trkpt><trkpt lat="39.79103847092695" lon="15.793756950779386"><ele>1.0</ele><time>2026-04-26T16:15:46Z</time></trkpt><trkpt lat="39.7908716374934" lon="15.7937887336478"><ele>1.0</ele><time>2026-04-26T16:15:47Z</time></trkpt><trkpt lat="39.79070559079978" lon="15.793817692600015"><ele>1.0</ele><time>2026-04-26T16:15:48Z</time></trkpt><trkpt lat="39.790543620935516" lon="15.793851179044202"><ele>1.0</ele><time>2026-04-26T16:15:49Z</time></trkpt><trkpt lat="39.79038158851199" lon="15.79388500735022"><ele>1.0</ele><time>2026-04-26T16:15:50Z</time></trkpt><trkpt lat="39.79021775563652" lon="15.793911857827865"><ele>1.0</ele><time>2026-04-26T16:15:51Z</time></trkpt><trkpt lat="39.79005353576917" lon="15.793939828574198"><ele>1.0</ele><time>2026-04-26T16:15:52Z</time></trkpt><trkpt lat="39.78988953288787" lon="15.793972443563785"><ele>1.3333333333333333</ele><time>2026-04-26T16:15:53Z</time></trkpt><trkpt lat="39.78972483839947" lon="15.79400189029095"><ele>1.6666666666666665</ele><time>2026-04-26T16:15:54Z</time></trkpt><trkpt lat="39.78956004355731" lon="15.794030430015892"><ele>2.0</ele><time>2026-04-26T16:15:55Z</time></trkpt><trkpt lat="39.78939750372699" lon="15.794060224106738"><ele>2.0</ele><time>2026-04-26T16:15:56Z</time></trkpt><trkpt lat="39.789234550714944" lon="15.794090554903384"><ele>2.0</ele><time>2026-04-26T16:15:57Z</time></trkpt><trkpt lat="39.789072637248495" lon="15.79411973772408"><ele>2.0</ele><time>2026-04-26T16:15:58Z</time></trkpt><trkpt lat="39.78891110530218" lon="15.794152568340344"><ele>2.0</ele><time>2026-04-26T16:15:59Z</time></trkpt><trkpt lat="39.788750623782356" lon="15.794185190998501"><ele>2.0</ele><time>2026-04-26T16:16:00Z</time></trkpt><trkpt lat="39.78859170207805" lon="15.794213050477161"><ele>2.0</ele><time>2026-04-26T16:16:01Z</time></trkpt><trkpt lat="39.78843340610526" lon="15.79424273745403"><ele>2.0</ele><time>2026-04-26T16:16:02Z</time></trkpt><trkpt lat="39.78827641595483" lon="15.794270506158764"><ele>2.0</ele><time>2026-04-26T16:16:03Z</time></trkpt><trkpt lat="39.78812231497951" lon="15.79430043172746"><ele>2.0</ele><time>2026-04-26T16:16:03.999Z</time></trkpt><trkpt lat="39.787968626689214" lon="15.794330303567985"><ele>1.6666666666666665</ele><time>2026-04-26T16:16:04.999Z</time></trkpt><trkpt lat="39.787815315946986" lon="15.794359678773736"><ele>1.3333333333333333</ele><time>2026-04-26T16:16:05.999Z</time></trkpt><trkpt lat="39.787663003612046" lon="15.794389711889155"><ele>1.0</ele><time>2026-04-26T16:16:06.999Z</time></trkpt><trkpt lat="39.78751144424183" lon="15.794421078356834"><ele>1.0</ele><time>2026-04-26T16:16:07.999Z</time></trkpt><trkpt lat="39.78735862973826" lon="15.79445492653813"><ele>1.0</ele><time>2026-04-26T16:16:08.999Z</time></trkpt><trkpt lat="39.787203723544444" lon="15.794484943695958"><ele>1.0</ele><time>2026-04-26T16:16:09.999Z</time></trkpt><trkpt lat="39.78704881275214" lon="15.794509669063679"><ele>1.0</ele><time>2026-04-26T16:16:10.999Z</time></trkpt><trkpt lat="39.786891341269644" lon="15.794537734450016"><ele>1.0</ele><time>2026-04-26T16:16:11.999Z</time></trkpt><trkpt lat="39.7867304411845" lon="15.794569987495702"><ele>1.0</ele><time>2026-04-26T16:16:12.999Z</time></trkpt><trkpt lat="39.786569058251914" lon="15.794596264607964"><ele>1.3333333333333333</ele><time>2026-04-26T16:16:13.999Z</time></trkpt><trkpt lat="39.78640535016331" lon="15.794626411762609"><ele>1.6666666666666665</ele><time>2026-04-26T16:16:14.999Z</time></trkpt><trkpt lat="39.78624243618397" lon="15.794655494811144"><ele>2.0</ele><time>2026-04-26T16:16:15.999Z</time></trkpt><trkpt lat="39.7860787981518" lon="15.79468710747267"><ele>1.6666666666666665</ele><time>2026-04-26T16:16:16.999Z</time></trkpt><trkpt lat="39.785913259882086" lon="15.794717311163076"><ele>1.3333333333333333</ele><time>2026-04-26T16:16:17.999Z</time></trkpt><trkpt lat="39.785742213262466" lon="15.79475075265644"><ele>1.0</ele><time>2026-04-26T16:16:18.999Z</time></trkpt><trkpt lat="39.78556466253727" lon="15.79478548407444"><ele>1.0</ele><time>2026-04-26T16:16:19.999Z</time></trkpt><trkpt lat="39.78538325215163" lon="15.794815848577832"><ele>1.0</ele><time>2026-04-26T16:16:20.999Z</time></trkpt><trkpt lat="39.785198948515216" lon="15.794847600070941"><ele>1.0</ele><time>2026-04-26T16:16:21.999Z</time></trkpt><trkpt lat="39.78501590175693" lon="15.794881769301801"><ele>0.3333333333333333</ele><time>2026-04-26T16:16:22.999Z</time></trkpt><trkpt lat="39.78483798739459" lon="15.794912517798608"><ele>-0.3333333333333333</ele><time>2026-04-26T16:16:23.999Z</time></trkpt><trkpt lat="39.78466892130231" lon="15.794946521271559"><ele>-1.0</ele><time>2026-04-26T16:16:24.999Z</time></trkpt><trkpt lat="39.78449811988492" lon="15.794982267622125"><ele>-0.6666666666666666</ele><time>2026-04-26T16:16:25.999Z</time></trkpt><trkpt lat="39.78432813105908" lon="15.795016288797104"><ele>-0.3333333333333333</ele><time>2026-04-26T16:16:26.999Z</time></trkpt><trkpt lat="39.784162728929175" lon="15.795047629427788"><ele>0.0</ele><time>2026-04-26T16:16:27.999Z</time></trkpt><trkpt lat="39.78400251899878" lon="15.795079563985247"><ele>0.0</ele><time>2026-04-26T16:16:28.999Z</time></trkpt><trkpt lat="39.78384239483197" lon="15.795114170498575"><ele>0.0</ele><time>2026-04-26T16:16:29.999Z</time></trkpt><trkpt lat="39.78368676282599" lon="15.79515193097026"><ele>0.0</ele><time>2026-04-26T16:16:30.999Z</time></trkpt><trkpt lat="39.78354012941861" lon="15.795198432503563"><ele>0.0</ele><time>2026-04-26T16:16:31.999Z</time></trkpt><trkpt lat="39.78340109482996" lon="15.795255804925864"><ele>0.0</ele><time>2026-04-26T16:16:32.999Z</time></trkpt><trkpt lat="39.783279484771064" lon="15.79531833265301"><ele>0.0</ele><time>2026-04-26T16:16:33.999Z</time></trkpt><trkpt lat="39.78317449094296" lon="15.795365230582291"><ele>0.0</ele><time>2026-04-26T16:16:34.999Z</time></trkpt><trkpt lat="39.783080700709675" lon="15.795392851541283"><ele>0.0</ele><time>2026-04-26T16:16:35.999Z</time></trkpt><trkpt lat="39.782990975445365" lon="15.795402956708818"><ele>0.0</ele><time>2026-04-26T16:16:36.999Z</time></trkpt><trkpt lat="39.782903733098166" lon="15.795390097025429"><ele>0.0</ele><time>2026-04-26T16:16:37.999Z</time></trkpt><trkpt lat="39.782821797160665" lon="15.795365343270744"><ele>0.0</ele><time>2026-04-26T16:16:38.999Z</time></trkpt><trkpt lat="39.78273686692762" lon="15.795354974371254"><ele>0.0</ele><time>2026-04-26T16:16:39.999Z</time></trkpt><trkpt lat="39.78264514487561" lon="15.795380905172346"><ele>0.0</ele><time>2026-04-26T16:16:40.999Z</time></trkpt><trkpt lat="39.78255288878552" lon="15.795443877633629"><ele>0.25</ele><time>2026-04-26T16:16:41.999Z</time></trkpt><trkpt lat="39.78247502578479" lon="15.795528786326713"><ele>0.5</ele><time>2026-04-26T16:16:42.999Z</time></trkpt><trkpt lat="39.7823783560776" lon="15.795598802130584"><ele>0.75</ele><time>2026-04-26T16:16:43.999Z</time></trkpt><trkpt lat="39.78226059748006" lon="15.79563531563509"><ele>1.0</ele><time>2026-04-26T16:16:45Z</time></trkpt><trkpt lat="39.78213254050916" lon="15.79565915212654"><ele>1.0</ele><time>2026-04-26T16:16:46Z</time></trkpt><trkpt lat="39.78199546463948" lon="15.795682138354215"><ele>1.0</ele><time>2026-04-26T16:16:47Z</time></trkpt><trkpt lat="39.781852323127474" lon="15.795721810029542"><ele>1.0</ele><time>2026-04-26T16:16:48Z</time></trkpt><trkpt lat="39.78171179511333" lon="15.795771555910104"><ele>1.0</ele><time>2026-04-26T16:16:49Z</time></trkpt><trkpt lat="39.78158116464491" lon="15.795815890715701"><ele>1.4</ele><time>2026-04-26T16:16:50Z</time></trkpt><trkpt lat="39.78145956971827" lon="15.795856376638726"><ele>1.8</ele><time>2026-04-26T16:16:51Z</time></trkpt><trkpt lat="39.78135447535725" lon="15.79589202500026"><ele>2.1999999999999997</ele><time>2026-04-26T16:16:52Z</time></trkpt><trkpt lat="39.78125347269494" lon="15.79592830443138"><ele>2.6</ele><time>2026-04-26T16:16:53Z</time></trkpt><trkpt lat="39.78115145637943" lon="15.795965165479444"><ele>3.0</ele><time>2026-04-26T16:16:54Z</time></trkpt><trkpt lat="39.78104633680456" lon="15.796001606881138"><ele>2.75</ele><time>2026-04-26T16:16:55Z</time></trkpt><trkpt lat="39.78094004141802" lon="15.796039985349392"><ele>2.5</ele><time>2026-04-26T16:16:56Z</time></trkpt><trkpt lat="39.780828671301826" lon="15.79608519095719"><ele>2.25</ele><time>2026-04-26T16:16:57Z</time></trkpt><trkpt lat="39.78070944631483" lon="15.796131001500706"><ele>2.0</ele><time>2026-04-26T16:16:58Z</time></trkpt><trkpt lat="39.78057871575602" lon="15.796180745657729"><ele>2.0</ele><time>2026-04-26T16:16:59Z</time></trkpt><trkpt lat="39.78043726012426" lon="15.796231274186486"><ele>2.0</ele><time>2026-04-26T16:17:00Z</time></trkpt><trkpt lat="39.78028553155057" lon="15.796285988745229"><ele>2.0</ele><time>2026-04-26T16:17:01Z</time></trkpt><trkpt lat="39.78012107749657" lon="15.796348288320656"><ele>1.6666666666666665</ele><time>2026-04-26T16:17:02Z</time></trkpt><trkpt lat="39.77994818421592" lon="15.796419190592834"><ele>1.3333333333333333</ele><time>2026-04-26T16:17:03Z</time></trkpt><trkpt lat="39.7797647325903" lon="15.796496082685993"><ele>1.0</ele><time>2026-04-26T16:17:04Z</time></trkpt><trkpt lat="39.7795744638338" lon="15.796572001664993"><ele>1.0</ele><time>2026-04-26T16:17:05Z</time></trkpt><trkpt lat="39.77937893429204" lon="15.796642494444974"><ele>1.0</ele><time>2026-04-26T16:17:06Z</time></trkpt><trkpt lat="39.7791806614333" lon="15.796707147239648"><ele>1.0</ele><time>2026-04-26T16:17:07Z</time></trkpt><trkpt lat="39.778980052530706" lon="15.796766528709497"><ele>1.0</ele><time>2026-04-26T16:17:08Z</time></trkpt><trkpt lat="39.77878083074725" lon="15.796834256852039"><ele>1.0</ele><time>2026-04-26T16:17:09Z</time></trkpt><trkpt lat="39.77858579352036" lon="15.79690535068245"><ele>1.0</ele><time>2026-04-26T16:17:10Z</time></trkpt><trkpt lat="39.778395387390574" lon="15.796973336271204"><ele>0.6666666666666666</ele><time>2026-04-26T16:17:11Z</time></trkpt><trkpt lat="39.77820976158031" lon="15.797040654046768"><ele>0.3333333333333333</ele><time>2026-04-26T16:17:12Z</time></trkpt><trkpt lat="39.778026106576384" lon="15.797108970578702"><ele>0.0</ele><time>2026-04-26T16:17:13Z</time></trkpt><trkpt lat="39.77784559787034" lon="15.797176161056834"><ele>0.0</ele><time>2026-04-26T16:17:14Z</time></trkpt><trkpt lat="39.77766046405195" lon="15.797241337426067"><ele>0.0</ele><time>2026-04-26T16:17:15Z</time></trkpt><trkpt lat="39.77747172249829" lon="15.797309064075469"><ele>0.0</ele><time>2026-04-26T16:17:16Z</time></trkpt><trkpt lat="39.77728423820457" lon="15.797376204788508"><ele>0.0</ele><time>2026-04-26T16:17:17Z</time></trkpt><trkpt lat="39.77709783835236" lon="15.797442784095104"><ele>0.0</ele><time>2026-04-26T16:17:18Z</time></trkpt><trkpt lat="39.77691278090888" lon="15.797509456476854"><ele>0.0</ele><time>2026-04-26T16:17:19Z</time></trkpt><trkpt lat="39.77672713887037" lon="15.797577488405988"><ele>0.3333333333333333</ele><time>2026-04-26T16:17:20Z</time></trkpt><trkpt lat="39.77654018348297" lon="15.797645553575684"><ele>0.6666666666666666</ele><time>2026-04-26T16:17:21Z</time></trkpt><trkpt lat="39.77634992644185" lon="15.797715639273585"><ele>1.0</ele><time>2026-04-26T16:17:22Z</time></trkpt><trkpt lat="39.77615908969021" lon="15.797789661664588"><ele>1.3333333333333333</ele><time>2026-04-26T16:17:23Z</time></trkpt><trkpt lat="39.77596577029371" lon="15.797860566822154"><ele>1.6666666666666665</ele><time>2026-04-26T16:17:24Z</time></trkpt><trkpt lat="39.77577378595005" lon="15.797930421834085"><ele>2.0</ele><time>2026-04-26T16:17:25Z</time></trkpt><trkpt lat="39.7755837974813" lon="15.798002416959342"><ele>2.0</ele><time>2026-04-26T16:17:26Z</time></trkpt><trkpt lat="39.77539455189967" lon="15.798071356284787"><ele>2.0</ele><time>2026-04-26T16:17:27Z</time></trkpt><trkpt lat="39.77520440163054" lon="15.798139643963736"><ele>2.0</ele><time>2026-04-26T16:17:28Z</time></trkpt><trkpt lat="39.77501386751981" lon="15.798206928959143"><ele>2.0</ele><time>2026-04-26T16:17:29Z</time></trkpt><trkpt lat="39.774824292006805" lon="15.798276027559842"><ele>2.0</ele><time>2026-04-26T16:17:30Z</time></trkpt><trkpt lat="39.774633885225704" lon="15.798348553291612"><ele>2.0</ele><time>2026-04-26T16:17:31Z</time></trkpt><trkpt lat="39.77444207731418" lon="15.798414930645583"><ele>2.0</ele><time>2026-04-26T16:17:32Z</time></trkpt><trkpt lat="39.774248218363034" lon="15.79848465436241"><ele>2.0</ele><time>2026-04-26T16:17:33Z</time></trkpt><trkpt lat="39.77405205021758" lon="15.798557322109355"><ele>2.0</ele><time>2026-04-26T16:17:34Z</time></trkpt><trkpt lat="39.7738531412429" lon="15.798629428299831"><ele>2.0</ele><time>2026-04-26T16:17:35Z</time></trkpt><trkpt lat="39.77365235560521" lon="15.798700254915586"><ele>2.0</ele><time>2026-04-26T16:17:36Z</time></trkpt><trkpt lat="39.773449222128946" lon="15.798775034213351"><ele>2.0</ele><time>2026-04-26T16:17:37Z</time></trkpt><trkpt lat="39.773245760300824" lon="15.798851052412271"><ele>2.0</ele><time>2026-04-26T16:17:38Z</time></trkpt><trkpt lat="39.77303910644921" lon="15.798925943282805"><ele>2.0</ele><time>2026-04-26T16:17:39Z</time></trkpt><trkpt lat="39.77283216217994" lon="15.79899970941272"><ele>2.0</ele><time>2026-04-26T16:17:40Z</time></trkpt><trkpt lat="39.77262408265035" lon="15.79907617422722"><ele>2.0</ele><time>2026-04-26T16:17:41Z</time></trkpt><trkpt lat="39.772416004850285" lon="15.79915109276165"><ele>2.0</ele><time>2026-04-26T16:17:42Z</time></trkpt><trkpt lat="39.77221046094606" lon="15.799224702622105"><ele>2.0</ele><time>2026-04-26T16:17:43Z</time></trkpt><trkpt lat="39.77200812863359" lon="15.799298545808066"><ele>1.3333333333333333</ele><time>2026-04-26T16:17:44Z</time></trkpt><trkpt lat="39.771808743521994" lon="15.79937266590128"><ele>0.6666666666666666</ele><time>2026-04-26T16:17:45Z</time></trkpt><trkpt lat="39.771611988306056" lon="15.799446080302916"><ele>0.0</ele><time>2026-04-26T16:17:46Z</time></trkpt><trkpt lat="39.77141728812391" lon="15.799520364920404"><ele>0.0</ele><time>2026-04-26T16:17:47Z</time></trkpt><trkpt lat="39.77122561749536" lon="15.799591412624958"><ele>0.0</ele><time>2026-04-26T16:17:48Z</time></trkpt><trkpt lat="39.771035361154716" lon="15.799658628170246"><ele>0.0</ele><time>2026-04-26T16:17:49Z</time></trkpt><trkpt lat="39.77084639327449" lon="15.79972376421442"><ele>0.0</ele><time>2026-04-26T16:17:50Z</time></trkpt><trkpt lat="39.770659206420326" lon="15.79978773480047"><ele>0.0</ele><time>2026-04-26T16:17:51Z</time></trkpt><trkpt lat="39.770470057720075" lon="15.799853424236217"><ele>0.0</ele><time>2026-04-26T16:17:52Z</time></trkpt><trkpt lat="39.77028159348974" lon="15.799917105159734"><ele>0.0</ele><time>2026-04-26T16:17:53Z</time></trkpt><trkpt lat="39.770091837160976" lon="15.79997664470838"><ele>0.0</ele><time>2026-04-26T16:17:54Z</time></trkpt><trkpt lat="39.76990091981441" lon="15.800030597649268"><ele>0.0</ele><time>2026-04-26T16:17:55Z</time></trkpt><trkpt lat="39.76970849821898" lon="15.800080592399974"><ele>0.0</ele><time>2026-04-26T16:17:56Z</time></trkpt><trkpt lat="39.76951512573985" lon="15.80012557649034"><ele>0.0</ele><time>2026-04-26T16:17:57Z</time></trkpt><trkpt lat="39.769321055915235" lon="15.80017058926235"><ele>0.0</ele><time>2026-04-26T16:17:58Z</time></trkpt><trkpt lat="39.76912654140469" lon="15.800216659680821"><ele>0.6666666666666666</ele><time>2026-04-26T16:17:59Z</time></trkpt><trkpt lat="39.76893034486336" lon="15.800258573961008"><ele>1.3333333333333333</ele><time>2026-04-26T16:18:00Z</time></trkpt><trkpt lat="39.76873383959974" lon="15.800299418961478"><ele>2.0</ele><time>2026-04-26T16:18:01Z</time></trkpt><trkpt lat="39.76853931914006" lon="15.800342350518932"><ele>2.0</ele><time>2026-04-26T16:18:02Z</time></trkpt><trkpt lat="39.76834633827793" lon="15.800384319383316"><ele>2.0</ele><time>2026-04-26T16:18:03Z</time></trkpt><trkpt lat="39.768155048633325" lon="15.800423357040907"><ele>2.0</ele><time>2026-04-26T16:18:04Z</time></trkpt><trkpt lat="39.76796701250452" lon="15.80046201597883"><ele>2.0</ele><time>2026-04-26T16:18:05Z</time></trkpt><trkpt lat="39.767781998839695" lon="15.800501831088111"><ele>2.0</ele><time>2026-04-26T16:18:06Z</time></trkpt><trkpt lat="39.76759812155447" lon="15.800540079905398"><ele>2.0</ele><time>2026-04-26T16:18:07Z</time></trkpt><trkpt lat="39.76741635263199" lon="15.80057794893424"><ele>1.6666666666666665</ele><time>2026-04-26T16:18:08Z</time></trkpt><trkpt lat="39.76723600974707" lon="15.800614471136603"><ele>1.3333333333333333</ele><time>2026-04-26T16:18:08.999Z</time></trkpt><trkpt lat="39.76705736045155" lon="15.800653571766247"><ele>1.0</ele><time>2026-04-26T16:18:09.999Z</time></trkpt><trkpt lat="39.76688151637535" lon="15.800691352805973"><ele>1.3333333333333333</ele><time>2026-04-26T16:18:10.999Z</time></trkpt><trkpt lat="39.76670654797116" lon="15.800723836269533"><ele>1.6666666666666665</ele><time>2026-04-26T16:18:11.999Z</time></trkpt><trkpt lat="39.766533042730636" lon="15.80075736674243"><ele>2.0</ele><time>2026-04-26T16:18:12.999Z</time></trkpt><trkpt lat="39.766360809332355" lon="15.800794406321884"><ele>2.0</ele><time>2026-04-26T16:18:13.999Z</time></trkpt><trkpt lat="39.76618999862336" lon="15.800830033981104"><ele>2.0</ele><time>2026-04-26T16:18:14.999Z</time></trkpt><trkpt lat="39.76602025891817" lon="15.800866277879356"><ele>2.0</ele><time>2026-04-26T16:18:15.999Z</time></trkpt><trkpt lat="39.765851418183715" lon="15.800901200513026"><ele>2.0</ele><time>2026-04-26T16:18:16.999Z</time></trkpt><trkpt lat="39.76568862420031" lon="15.800931582494263"><ele>2.0</ele><time>2026-04-26T16:18:17.999Z</time></trkpt><trkpt lat="39.76552897714212" lon="15.800961709398342"><ele>2.0</ele><time>2026-04-26T16:18:18.999Z</time></trkpt><trkpt lat="39.7653724337308" lon="15.80099250346881"><ele>2.0</ele><time>2026-04-26T16:18:19.999Z</time></trkpt><trkpt lat="39.765220349652424" lon="15.801026410153945"><ele>2.0</ele><time>2026-04-26T16:18:20.999Z</time></trkpt><trkpt lat="39.76507642112109" lon="15.801059980790289"><ele>2.0</ele><time>2026-04-26T16:18:21.999Z</time></trkpt><trkpt lat="39.76493650177659" lon="15.8010883935111"><ele>2.0</ele><time>2026-04-26T16:18:22.999Z</time></trkpt><trkpt lat="39.764801942670566" lon="15.80111589855778"><ele>2.0</ele><time>2026-04-26T16:18:23.999Z</time></trkpt><trkpt lat="39.764671347085056" lon="15.801142134785042"><ele>2.0</ele><time>2026-04-26T16:18:24.999Z</time></trkpt><trkpt lat="39.764542137510546" lon="15.801170322294908"><ele>2.0</ele><time>2026-04-26T16:18:25.999Z</time></trkpt><trkpt lat="39.7644107737636" lon="15.801199768966228"><ele>2.0</ele><time>2026-04-26T16:18:26.999Z</time></trkpt><trkpt lat="39.76428270802501" lon="15.801226642918612"><ele>2.0</ele><time>2026-04-26T16:18:27.999Z</time></trkpt><trkpt lat="39.764159742662414" lon="15.801251984159121"><ele>2.0</ele><time>2026-04-26T16:18:28.999Z</time></trkpt><trkpt lat="39.7640391768434" lon="15.80127645416515"><ele>2.0</ele><time>2026-04-26T16:18:29.999Z</time></trkpt><trkpt lat="39.76391586809106" lon="15.801303377251806"><ele>2.0</ele><time>2026-04-26T16:18:30.999Z</time></trkpt><trkpt lat="39.763800256734164" lon="15.801330694069515"><ele>2.0</ele><time>2026-04-26T16:18:31.999Z</time></trkpt><trkpt lat="39.76369066936606" lon="15.80135573969246"><ele>2.0</ele><time>2026-04-26T16:18:32.999Z</time></trkpt><trkpt lat="39.76357915897823" lon="15.801378917334535"><ele>2.0</ele><time>2026-04-26T16:18:33.999Z</time></trkpt><trkpt lat="39.76346468749848" lon="15.801399564300224"><ele>2.0</ele><time>2026-04-26T16:18:34.999Z</time></trkpt><trkpt lat="39.76334890046887" lon="15.801424139668965"><ele>2.0</ele><time>2026-04-26T16:18:35.999Z</time></trkpt><trkpt lat="39.763232821131325" lon="15.801449521853604"><ele>2.0</ele><time>2026-04-26T16:18:36.999Z</time></trkpt><trkpt lat="39.763117503092005" lon="15.801473023671228"><ele>2.0</ele><time>2026-04-26T16:18:37.999Z</time></trkpt><trkpt lat="39.763002422309526" lon="15.80149793039353"><ele>2.0</ele><time>2026-04-26T16:18:38.999Z</time></trkpt><trkpt lat="39.76288789673604" lon="15.80152111560017"><ele>2.0</ele><time>2026-04-26T16:18:39.999Z</time></trkpt><trkpt lat="39.76277367227137" lon="15.80154451556428"><ele>2.0</ele><time>2026-04-26T16:18:40.999Z</time></trkpt><trkpt lat="39.762660504102534" lon="15.8015680288682"><ele>2.0</ele><time>2026-04-26T16:18:41.999Z</time></trkpt><trkpt lat="39.76254618883848" lon="15.801591183835173"><ele>2.0</ele><time>2026-04-26T16:18:42.999Z</time></trkpt><trkpt lat="39.7624313542337" lon="15.801615603694522"><ele>2.5</ele><time>2026-04-26T16:18:43.999Z</time></trkpt><trkpt lat="39.76231634576578" lon="15.801639071652117"><ele>3.0</ele><time>2026-04-26T16:18:44.999Z</time></trkpt><trkpt lat="39.762200884061556" lon="15.801664771079093"><ele>3.5</ele><time>2026-04-26T16:18:45.999Z</time></trkpt><trkpt lat="39.76208557363268" lon="15.801689830652561"><ele>4.0</ele><time>2026-04-26T16:18:46.999Z</time></trkpt><trkpt lat="39.761970428937616" lon="15.801712876586748"><ele>4.0</ele><time>2026-04-26T16:18:47.999Z</time></trkpt><trkpt lat="39.761855814407284" lon="15.801733728712998"><ele>4.0</ele><time>2026-04-26T16:18:48.999Z</time></trkpt><trkpt lat="39.761741273000816" lon="15.801755131567829"><ele>4.0</ele><time>2026-04-26T16:18:49.999Z</time></trkpt><trkpt lat="39.76162643058458" lon="15.801777429184131"><ele>4.0</ele><time>2026-04-26T16:18:51Z</time></trkpt><trkpt lat="39.761511724909404" lon="15.801801573999073"><ele>4.0</ele><time>2026-04-26T16:18:52Z</time></trkpt><trkpt lat="39.76139778550171" lon="15.80182693216015"><ele>4.0</ele><time>2026-04-26T16:18:53Z</time></trkpt><trkpt lat="39.761284325918695" lon="15.801850103112345"><ele>4.0</ele><time>2026-04-26T16:18:54Z</time></trkpt><trkpt lat="39.761169624778574" lon="15.801872295263944"><ele>4.0</ele><time>2026-04-26T16:18:55Z</time></trkpt><trkpt lat="39.76105533669305" lon="15.801895483377576"><ele>4.25</ele><time>2026-04-26T16:18:56Z</time></trkpt><trkpt lat="39.76094103962852" lon="15.80191870945711"><ele>4.5</ele><time>2026-04-26T16:18:57Z</time></trkpt><trkpt lat="39.76082703698164" lon="15.801942349595945"><ele>4.75</ele><time>2026-04-26T16:18:58Z</time></trkpt><trkpt lat="39.76071197567528" lon="15.801965563714248"><ele>5.0</ele><time>2026-04-26T16:18:59Z</time></trkpt><trkpt lat="39.76059693346353" lon="15.801989432113755"><ele>5.0</ele><time>2026-04-26T16:19:00Z</time></trkpt><trkpt lat="39.76048181067398" lon="15.80201325761128"><ele>5.0</ele><time>2026-04-26T16:19:01Z</time></trkpt><trkpt lat="39.76036767388164" lon="15.802039509733255"><ele>5.0</ele><time>2026-04-26T16:19:02Z</time></trkpt><trkpt lat="39.76025378946051" lon="15.80206638061899"><ele>5.0</ele><time>2026-04-26T16:19:03Z</time></trkpt><trkpt lat="39.76013934928747" lon="15.802096549350553"><ele>4.75</ele><time>2026-04-26T16:19:04Z</time></trkpt><trkpt lat="39.76002502753658" lon="15.802128486054652"><ele>4.5</ele><time>2026-04-26T16:19:05Z</time></trkpt><trkpt lat="39.75991109644853" lon="15.802160226786027"><ele>4.25</ele><time>2026-04-26T16:19:06Z</time></trkpt><trkpt lat="39.75979742369005" lon="15.802190845445429"><ele>4.0</ele><time>2026-04-26T16:19:07Z</time></trkpt><trkpt lat="39.75968333098426" lon="15.80222244004219"><ele>4.0</ele><time>2026-04-26T16:19:08Z</time></trkpt><trkpt lat="39.759569682445395" lon="15.802255215945351"><ele>4.0</ele><time>2026-04-26T16:19:09Z</time></trkpt><trkpt lat="39.759455553525" lon="15.802288493099253"><ele>4.0</ele><time>2026-04-26T16:19:10Z</time></trkpt><trkpt lat="39.759341679194385" lon="15.80232224329795"><ele>4.0</ele><time>2026-04-26T16:19:11Z</time></trkpt><trkpt lat="39.759231317641294" lon="15.802358473036696"><ele>4.0</ele><time>2026-04-26T16:19:12Z</time></trkpt><trkpt lat="39.759119989452905" lon="15.802399506323948"><ele>4.0</ele><time>2026-04-26T16:19:13Z</time></trkpt><trkpt lat="39.759007783609206" lon="15.80244252179157"><ele>4.0</ele><time>2026-04-26T16:19:14Z</time></trkpt><trkpt lat="39.75889689323918" lon="15.802485824290189"><ele>4.0</ele><time>2026-04-26T16:19:15Z</time></trkpt><trkpt lat="39.75878488882677" lon="15.802526587675437"><ele>4.0</ele><time>2026-04-26T16:19:16Z</time></trkpt><trkpt lat="39.75867375261312" lon="15.802567183272231"><ele>4.0</ele><time>2026-04-26T16:19:17Z</time></trkpt><trkpt lat="39.75856281107311" lon="15.802608812457667"><ele>4.0</ele><time>2026-04-26T16:19:18Z</time></trkpt><trkpt lat="39.758451744792104" lon="15.8026494507915"><ele>4.0</ele><time>2026-04-26T16:19:19Z</time></trkpt><trkpt lat="39.7583402023873" lon="15.80268933806782"><ele>4.25</ele><time>2026-04-26T16:19:20Z</time></trkpt><trkpt lat="39.758228423470726" lon="15.802729188956663"><ele>4.5</ele><time>2026-04-26T16:19:21Z</time></trkpt><trkpt lat="39.75811714799851" lon="15.802769970330802"><ele>4.75</ele><time>2026-04-26T16:19:22Z</time></trkpt><trkpt lat="39.75800668200355" lon="15.802813010607542"><ele>5.0</ele><time>2026-04-26T16:19:23Z</time></trkpt><trkpt lat="39.75789608965314" lon="15.802857092932578"><ele>5.0</ele><time>2026-04-26T16:19:24Z</time></trkpt><trkpt lat="39.757785300372355" lon="15.802901232954067"><ele>5.0</ele><time>2026-04-26T16:19:25Z</time></trkpt><trkpt lat="39.75767443047632" lon="15.802948268866517"><ele>5.0</ele><time>2026-04-26T16:19:26Z</time></trkpt><trkpt lat="39.75756347691178" lon="15.802993419938245"><ele>5.0</ele><time>2026-04-26T16:19:27Z</time></trkpt><trkpt lat="39.7574520977094" lon="15.803035450356276"><ele>5.0</ele><time>2026-04-26T16:19:28Z</time></trkpt><trkpt lat="39.757341484838946" lon="15.803079875870218"><ele>5.0</ele><time>2026-04-26T16:19:29Z</time></trkpt><trkpt lat="39.75723039444845" lon="15.80312398182956"><ele>5.0</ele><time>2026-04-26T16:19:30Z</time></trkpt><trkpt lat="39.757117564774845" lon="15.803165576496625"><ele>5.0</ele><time>2026-04-26T16:19:31Z</time></trkpt><trkpt lat="39.757004475074645" lon="15.80320861110698"><ele>5.0</ele><time>2026-04-26T16:19:32Z</time></trkpt><trkpt lat="39.75689297012908" lon="15.803253066026487"><ele>5.0</ele><time>2026-04-26T16:19:33Z</time></trkpt><trkpt lat="39.75678136403697" lon="15.803295377285902"><ele>5.0</ele><time>2026-04-26T16:19:34Z</time></trkpt><trkpt lat="39.7566696269849" lon="15.803338894194635"><ele>5.0</ele><time>2026-04-26T16:19:35Z</time></trkpt><trkpt lat="39.756556975351565" lon="15.803381046235819"><ele>5.0</ele><time>2026-04-26T16:19:36Z</time></trkpt><trkpt lat="39.756444324996515" lon="15.803424947961735"><ele>5.0</ele><time>2026-04-26T16:19:37Z</time></trkpt><trkpt lat="39.75633212948349" lon="15.803468111987325"><ele>5.0</ele><time>2026-04-26T16:19:38Z</time></trkpt><trkpt lat="39.75622038243968" lon="15.80350898998639"><ele>5.0</ele><time>2026-04-26T16:19:39Z</time></trkpt><trkpt lat="39.75610919111272" lon="15.803549985931427"><ele>4.75</ele><time>2026-04-26T16:19:40Z</time></trkpt><trkpt lat="39.75599816950575" lon="15.803593422761573"><ele>4.5</ele><time>2026-04-26T16:19:41Z</time></trkpt><trkpt lat="39.755888566396145" lon="15.803637325578789"><ele>4.25</ele><time>2026-04-26T16:19:42Z</time></trkpt><trkpt lat="39.75577729122976" lon="15.803679309446482"><ele>4.0</ele><time>2026-04-26T16:19:43Z</time></trkpt><trkpt lat="39.755665686689746" lon="15.803718834331278"><ele>4.0</ele><time>2026-04-26T16:19:44Z</time></trkpt><trkpt lat="39.75555413875035" lon="15.803762065959889"><ele>4.0</ele><time>2026-04-26T16:19:45Z</time></trkpt><trkpt lat="39.755444290765425" lon="15.80380338969648"><ele>4.0</ele><time>2026-04-26T16:19:46Z</time></trkpt><trkpt lat="39.755333304142646" lon="15.803843037735769"><ele>4.0</ele><time>2026-04-26T16:19:47Z</time></trkpt><trkpt lat="39.75522258424564" lon="15.803885003984936"><ele>4.0</ele><time>2026-04-26T16:19:48Z</time></trkpt><trkpt lat="39.75510820553114" lon="15.803929006301402"><ele>4.0</ele><time>2026-04-26T16:19:49Z</time></trkpt><trkpt lat="39.75499499575563" lon="15.803971775146557"><ele>4.0</ele><time>2026-04-26T16:19:50Z</time></trkpt><trkpt lat="39.75488359395837" lon="15.804015419648568"><ele>4.0</ele><time>2026-04-26T16:19:51Z</time></trkpt><trkpt lat="39.75477243174297" lon="15.804056204371062"><ele>4.0</ele><time>2026-04-26T16:19:52Z</time></trkpt><trkpt lat="39.75466080269553" lon="15.804099105838176"><ele>4.0</ele><time>2026-04-26T16:19:53Z</time></trkpt><trkpt lat="39.75454947713674" lon="15.804141206761642"><ele>4.0</ele><time>2026-04-26T16:19:54Z</time></trkpt><trkpt lat="39.75443786828045" lon="15.80418360146435"><ele>4.0</ele><time>2026-04-26T16:19:55Z</time></trkpt><trkpt lat="39.754325142697645" lon="15.80422717851074"><ele>4.0</ele><time>2026-04-26T16:19:56Z</time></trkpt><trkpt lat="39.75421268547972" lon="15.804270791395124"><ele>4.0</ele><time>2026-04-26T16:19:57Z</time></trkpt><trkpt lat="39.75410313923" lon="15.804316007469694"><ele>4.0</ele><time>2026-04-26T16:19:58Z</time></trkpt><trkpt lat="39.753994061354454" lon="15.804360630334163"><ele>4.0</ele><time>2026-04-26T16:19:59Z</time></trkpt><trkpt lat="39.75388478014695" lon="15.804404657445387"><ele>4.0</ele><time>2026-04-26T16:20:00Z</time></trkpt><trkpt lat="39.75377559230018" lon="15.804447430162075"><ele>4.0</ele><time>2026-04-26T16:20:01Z</time></trkpt><trkpt lat="39.75367579767656" lon="15.804483541706235"><ele>4.0</ele><time>2026-04-26T16:20:02Z</time></trkpt><trkpt lat="39.75358593330222" lon="15.80451550826327"><ele>4.0</ele><time>2026-04-26T16:20:03Z</time></trkpt><trkpt lat="39.7535015993618" lon="15.804547721017338"><ele>4.0</ele><time>2026-04-26T16:20:04Z</time></trkpt><trkpt lat="39.75342088255172" lon="15.804580118678755"><ele>4.0</ele><time>2026-04-26T16:20:05Z</time></trkpt><trkpt lat="39.75334530455472" lon="15.804613280512546"><ele>3.9999999999999996</ele><time>2026-04-26T16:20:06Z</time></trkpt><trkpt lat="39.75327263095435" lon="15.804641283268936"><ele>4.0</ele><time>2026-04-26T16:20:07Z</time></trkpt><trkpt lat="39.75320161552725" lon="15.80466901607116"><ele>4.0</ele><time>2026-04-26T16:20:08Z</time></trkpt><trkpt lat="39.7531324723643" lon="15.804692712536418"><ele>3.9999999999999996</ele><time>2026-04-26T16:20:09Z</time></trkpt><trkpt lat="39.75306340306019" lon="15.804716965529774"><ele>4.0</ele><time>2026-04-26T16:20:10Z</time></trkpt><trkpt lat="39.75299405897983" lon="15.80474066340296"><ele>4.0</ele><time>2026-04-26T16:20:11Z</time></trkpt><trkpt lat="39.752923293505596" lon="15.80476853957643"><ele>3.9999999999999996</ele><time>2026-04-26T16:20:12Z</time></trkpt><trkpt lat="39.7528467069086" lon="15.80479492255317"><ele>4.0</ele><time>2026-04-26T16:20:13Z</time></trkpt><trkpt lat="39.752767229763975" lon="15.804823919779993"><ele>4.0</ele><time>2026-04-26T16:20:14Z</time></trkpt><trkpt lat="39.75268405411444" lon="15.804849868023894"><ele>4.0</ele><time>2026-04-26T16:20:15Z</time></trkpt><trkpt lat="39.752599842863575" lon="15.804882220318225"><ele>3.9999999999999996</ele><time>2026-04-26T16:20:16Z</time></trkpt><trkpt lat="39.752514332181164" lon="15.804920258491784"><ele>4.0</ele><time>2026-04-26T16:20:17Z</time></trkpt><trkpt lat="39.75242705663285" lon="15.804956761504894"><ele>4.0</ele><time>2026-04-26T16:20:18Z</time></trkpt><trkpt lat="39.75233842382015" lon="15.804994625533348"><ele>4.0</ele><time>2026-04-26T16:20:19Z</time></trkpt><trkpt lat="39.75224872056993" lon="15.805023464644032"><ele>4.0</ele><time>2026-04-26T16:20:20Z</time></trkpt><trkpt lat="39.75215647253804" lon="15.805053466793426"><ele>4.0</ele><time>2026-04-26T16:20:21Z</time></trkpt><trkpt lat="39.75206419599055" lon="15.805084899004669"><ele>4.0</ele><time>2026-04-26T16:20:22Z</time></trkpt><trkpt lat="39.751971928753164" lon="15.805119346747825"><ele>4.0</ele><time>2026-04-26T16:20:23Z</time></trkpt><trkpt lat="39.75187818618054" lon="15.805152787317642"><ele>4.0</ele><time>2026-04-26T16:20:23.999Z</time></trkpt><trkpt lat="39.75178457563927" lon="15.805185864474279"><ele>4.0</ele><time>2026-04-26T16:20:24.999Z</time></trkpt><trkpt lat="39.75169147624817" lon="15.80522293614118"><ele>4.0</ele><time>2026-04-26T16:20:25.999Z</time></trkpt><trkpt lat="39.75159818374594" lon="15.805261234758762"><ele>4.0</ele><time>2026-04-26T16:20:26.999Z</time></trkpt><trkpt lat="39.75150414661246" lon="15.80530021806865"><ele>4.0</ele><time>2026-04-26T16:20:27.999Z</time></trkpt><trkpt lat="39.751408080816645" lon="15.80533260039799"><ele>4.0</ele><time>2026-04-26T16:20:28.999Z</time></trkpt><trkpt lat="39.75131326584151" lon="15.805363361153384"><ele>4.0</ele><time>2026-04-26T16:20:29.999Z</time></trkpt><trkpt lat="39.75121884519759" lon="15.805398056912345"><ele>4.0</ele><time>2026-04-26T16:20:30.999Z</time></trkpt><trkpt lat="39.75112365001864" lon="15.805437537139442"><ele>4.0</ele><time>2026-04-26T16:20:31.999Z</time></trkpt><trkpt lat="39.75102812438289" lon="15.80547521882222"><ele>3.8000000000000003</ele><time>2026-04-26T16:20:32.999Z</time></trkpt><trkpt lat="39.750931438301826" lon="15.805511457462005"><ele>3.6000000000000005</ele><time>2026-04-26T16:20:33.999Z</time></trkpt><trkpt lat="39.75083143459226" lon="15.805542638172778"><ele>3.4</ele><time>2026-04-26T16:20:34.999Z</time></trkpt><trkpt lat="39.7507308697393" lon="15.805574741397596"><ele>3.2</ele><time>2026-04-26T16:20:35.999Z</time></trkpt><trkpt lat="39.750628669494326" lon="15.805611054631353"><ele>3.0</ele><time>2026-04-26T16:20:36.999Z</time></trkpt><trkpt lat="39.750528108678985" lon="15.805644608615584"><ele>3.0</ele><time>2026-04-26T16:20:37.999Z</time></trkpt><trkpt lat="39.750422876597995" lon="15.805680071739909"><ele>3.0</ele><time>2026-04-26T16:20:38.999Z</time></trkpt><trkpt lat="39.750312681598174" lon="15.805719496791482"><ele>3.0</ele><time>2026-04-26T16:20:39.999Z</time></trkpt><trkpt lat="39.75019829498584" lon="15.805753780260869"><ele>3.0</ele><time>2026-04-26T16:20:40.999Z</time></trkpt><trkpt lat="39.75008482213365" lon="15.805787830738808"><ele>3.0</ele><time>2026-04-26T16:20:41.999Z</time></trkpt><trkpt lat="39.74997181316657" lon="15.805817755402561"><ele>3.0</ele><time>2026-04-26T16:20:42.999Z</time></trkpt><trkpt lat="39.749858543878894" lon="15.80585174465188"><ele>3.0</ele><time>2026-04-26T16:20:43.999Z</time></trkpt><trkpt lat="39.74974599189225" lon="15.805888199686713"><ele>3.0</ele><time>2026-04-26T16:20:44.999Z</time></trkpt><trkpt lat="39.74963200747394" lon="15.80592226688882"><ele>3.0</ele><time>2026-04-26T16:20:45.999Z</time></trkpt><trkpt lat="39.74951833458492" lon="15.805957203288182"><ele>3.0</ele><time>2026-04-26T16:20:46.999Z</time></trkpt><trkpt lat="39.749405359532" lon="15.805990283564332"><ele>3.0</ele><time>2026-04-26T16:20:47.999Z</time></trkpt><trkpt lat="39.74929295043118" lon="15.806025962541321"><ele>3.0</ele><time>2026-04-26T16:20:48.999Z</time></trkpt><trkpt lat="39.74918058607122" lon="15.806063994522992"><ele>3.2</ele><time>2026-04-26T16:20:49.999Z</time></trkpt><trkpt lat="39.74906836538258" lon="15.806101080797283"><ele>3.4</ele><time>2026-04-26T16:20:50.999Z</time></trkpt><trkpt lat="39.74895518038565" lon="15.80613881267419"><ele>3.6000000000000005</ele><time>2026-04-26T16:20:51.999Z</time></trkpt><trkpt lat="39.748848119535964" lon="15.806169808530688"><ele>3.8000000000000003</ele><time>2026-04-26T16:20:52.999Z</time></trkpt><trkpt lat="39.74874505119252" lon="15.806200797161038"><ele>4.0</ele><time>2026-04-26T16:20:53.999Z</time></trkpt><trkpt lat="39.748646083946554" lon="15.806233339742219"><ele>4.0</ele><time>2026-04-26T16:20:54.999Z</time></trkpt><trkpt lat="39.7485464431163" lon="15.806267235551154"><ele>4.0</ele><time>2026-04-26T16:20:55.999Z</time></trkpt><trkpt lat="39.748446253798434" lon="15.806299731273361"><ele>4.0</ele><time>2026-04-26T16:20:57Z</time></trkpt><trkpt lat="39.74834578354052" lon="15.806333482396987"><ele>4.0</ele><time>2026-04-26T16:20:58Z</time></trkpt><trkpt lat="39.74824433227603" lon="15.806367591273984"><ele>4.0</ele><time>2026-04-26T16:20:59Z</time></trkpt><trkpt lat="39.74814080003398" lon="15.806400186993773"><ele>4.0</ele><time>2026-04-26T16:21:00Z</time></trkpt><trkpt lat="39.74803871273158" lon="15.806430992005783"><ele>4.0</ele><time>2026-04-26T16:21:01Z</time></trkpt><trkpt lat="39.747937609056976" lon="15.806465152877973"><ele>4.0</ele><time>2026-04-26T16:21:02Z</time></trkpt><trkpt lat="39.74783779156369" lon="15.806498480548862"><ele>4.0</ele><time>2026-04-26T16:21:03Z</time></trkpt><trkpt lat="39.7477415983638" lon="15.806528467357099"><ele>4.0</ele><time>2026-04-26T16:21:04Z</time></trkpt><trkpt lat="39.74764651766656" lon="15.80655737718596"><ele>4.0</ele><time>2026-04-26T16:21:05Z</time></trkpt><trkpt lat="39.747553477157865" lon="15.806588308184455"><ele>4.0</ele><time>2026-04-26T16:21:06Z</time></trkpt><trkpt lat="39.74746291491529" lon="15.806616994836562"><ele>4.0</ele><time>2026-04-26T16:21:07Z</time></trkpt><trkpt lat="39.747370950939775" lon="15.806646730479574"><ele>4.0</ele><time>2026-04-26T16:21:08Z</time></trkpt><trkpt lat="39.74727651795526" lon="15.806675974134906"><ele>4.0</ele><time>2026-04-26T16:21:09Z</time></trkpt><trkpt lat="39.74718023665802" lon="15.806706174779825"><ele>4.0</ele><time>2026-04-26T16:21:10Z</time></trkpt><trkpt lat="39.747080093475645" lon="15.806735023806102"><ele>4.0</ele><time>2026-04-26T16:21:11Z</time></trkpt><trkpt lat="39.746976854559435" lon="15.806767204190203"><ele>4.0</ele><time>2026-04-26T16:21:12Z</time></trkpt><trkpt lat="39.746871318843624" lon="15.806797639990284"><ele>4.0</ele><time>2026-04-26T16:21:13Z</time></trkpt><trkpt lat="39.74676277717697" lon="15.806830473333239"><ele>4.0</ele><time>2026-04-26T16:21:14Z</time></trkpt><trkpt lat="39.7466533176849" lon="15.806865545154507"><ele>3.75</ele><time>2026-04-26T16:21:15Z</time></trkpt><trkpt lat="39.74654199801122" lon="15.806899180355197"><ele>3.5</ele><time>2026-04-26T16:21:16Z</time></trkpt><trkpt lat="39.746429491163894" lon="15.80693681719323"><ele>3.25</ele><time>2026-04-26T16:21:17Z</time></trkpt><trkpt lat="39.74631536665718" lon="15.80697073671174"><ele>3.0</ele><time>2026-04-26T16:21:18Z</time></trkpt><trkpt lat="39.74620203140885" lon="15.80700201219759"><ele>3.0</ele><time>2026-04-26T16:21:19Z</time></trkpt><trkpt lat="39.746088063991174" lon="15.807036318571475"><ele>3.0</ele><time>2026-04-26T16:21:20Z</time></trkpt><trkpt lat="39.74597488592448" lon="15.80707195260088"><ele>3.0</ele><time>2026-04-26T16:21:21Z</time></trkpt><trkpt lat="39.74586122944454" lon="15.807108005733832"><ele>3.0</ele><time>2026-04-26T16:21:22Z</time></trkpt><trkpt lat="39.74574801613097" lon="15.807146923082389"><ele>3.2</ele><time>2026-04-26T16:21:23Z</time></trkpt><trkpt lat="39.74563853581071" lon="15.807180915066455"><ele>3.4</ele><time>2026-04-26T16:21:24Z</time></trkpt><trkpt lat="39.74553173259641" lon="15.807217034032123"><ele>3.6000000000000005</ele><time>2026-04-26T16:21:25Z</time></trkpt><trkpt lat="39.74542500287763" lon="15.807251216477987"><ele>3.8000000000000003</ele><time>2026-04-26T16:21:26Z</time></trkpt><trkpt lat="39.74531697986603" lon="15.807285069694107"><ele>4.0</ele><time>2026-04-26T16:21:27Z</time></trkpt><trkpt lat="39.745209553415094" lon="15.807320003442864"><ele>4.0</ele><time>2026-04-26T16:21:28Z</time></trkpt><trkpt lat="39.74510151552602" lon="15.80735208108042"><ele>4.0</ele><time>2026-04-26T16:21:29Z</time></trkpt><trkpt lat="39.744993231671295" lon="15.807380664666127"><ele>4.0</ele><time>2026-04-26T16:21:30Z</time></trkpt><trkpt lat="39.74488486559675" lon="15.807409921530178"><ele>4.0</ele><time>2026-04-26T16:21:31Z</time></trkpt><trkpt lat="39.74477599296924" lon="15.807444855248725"><ele>4.0</ele><time>2026-04-26T16:21:32Z</time></trkpt><trkpt lat="39.74466801393674" lon="15.807480440154261"><ele>4.0</ele><time>2026-04-26T16:21:33Z</time></trkpt><trkpt lat="39.74455759094529" lon="15.80751085159866"><ele>4.0</ele><time>2026-04-26T16:21:34Z</time></trkpt><trkpt lat="39.74444719763453" lon="15.80754439885875"><ele>4.0</ele><time>2026-04-26T16:21:35Z</time></trkpt><trkpt lat="39.74433558439639" lon="15.807578375765592"><ele>4.0</ele><time>2026-04-26T16:21:36Z</time></trkpt><trkpt lat="39.74422318953152" lon="15.807615039027555"><ele>3.75</ele><time>2026-04-26T16:21:37Z</time></trkpt><trkpt lat="39.74411006644594" lon="15.807649477568749"><ele>3.5</ele><time>2026-04-26T16:21:38Z</time></trkpt><trkpt lat="39.743995260574785" lon="15.807686063956503"><ele>3.25</ele><time>2026-04-26T16:21:39Z</time></trkpt><trkpt lat="39.74387876119894" lon="15.807724129691511"><ele>3.0</ele><time>2026-04-26T16:21:40Z</time></trkpt><trkpt lat="39.74376310043316" lon="15.807759863114292"><ele>3.0</ele><time>2026-04-26T16:21:41Z</time></trkpt><trkpt lat="39.74364872438374" lon="15.80779333484669"><ele>3.0</ele><time>2026-04-26T16:21:42Z</time></trkpt><trkpt lat="39.74353282132494" lon="15.807825910874946"><ele>3.0</ele><time>2026-04-26T16:21:43Z</time></trkpt><trkpt lat="39.74341315020512" lon="15.807862787885046"><ele>3.0</ele><time>2026-04-26T16:21:44Z</time></trkpt><trkpt lat="39.7432923308517" lon="15.807901214899744"><ele>2.5</ele><time>2026-04-26T16:21:45Z</time></trkpt><trkpt lat="39.743169458183246" lon="15.807938671963155"><ele>2.0</ele><time>2026-04-26T16:21:46Z</time></trkpt><trkpt lat="39.74304215200896" lon="15.80797667889736"><ele>1.5</ele><time>2026-04-26T16:21:47Z</time></trkpt><trkpt lat="39.74291441982628" lon="15.808010706970867"><ele>1.0</ele><time>2026-04-26T16:21:48Z</time></trkpt><trkpt lat="39.74278426639759" lon="15.808044675057392"><ele>1.5</ele><time>2026-04-26T16:21:49Z</time></trkpt><trkpt lat="39.742653043206495" lon="15.808081846513817"><ele>2.0</ele><time>2026-04-26T16:21:50Z</time></trkpt><trkpt lat="39.74252181243982" lon="15.808114065230429"><ele>2.5</ele><time>2026-04-26T16:21:51Z</time></trkpt><trkpt lat="39.742393223187584" lon="15.80814647221036"><ele>3.0</ele><time>2026-04-26T16:21:52Z</time></trkpt><trkpt lat="39.74226754303715" lon="15.808177647530547"><ele>3.0</ele><time>2026-04-26T16:21:53Z</time></trkpt><trkpt lat="39.74214456425733" lon="15.808206999192215"><ele>3.0</ele><time>2026-04-26T16:21:54Z</time></trkpt><trkpt lat="39.74202167338733" lon="15.808236305112986"><ele>3.0</ele><time>2026-04-26T16:21:55Z</time></trkpt><trkpt lat="39.74189984651669" lon="15.808260630272875"><ele>3.0</ele><time>2026-04-26T16:21:56Z</time></trkpt><trkpt lat="39.74177736159643" lon="15.80828208961146"><ele>3.0</ele><time>2026-04-26T16:21:57Z</time></trkpt><trkpt lat="39.741656426377745" lon="15.808304418314323"><ele>3.0</ele><time>2026-04-26T16:21:58Z</time></trkpt><trkpt lat="39.74153497943654" lon="15.808327207692953"><ele>3.0</ele><time>2026-04-26T16:21:59Z</time></trkpt><trkpt lat="39.74141435495901" lon="15.808347990839236"><ele>3.0</ele><time>2026-04-26T16:22:00Z</time></trkpt><trkpt lat="39.741292970621636" lon="15.808366075750541"><ele>3.0</ele><time>2026-04-26T16:22:01Z</time></trkpt><trkpt lat="39.741173580748054" lon="15.808381046648977"><ele>3.0</ele><time>2026-04-26T16:22:02Z</time></trkpt><trkpt lat="39.74105994015574" lon="15.808393870057113"><ele>3.0</ele><time>2026-04-26T16:22:03Z</time></trkpt><trkpt lat="39.7409513569516" lon="15.808402803806516"><ele>3.0</ele><time>2026-04-26T16:22:04Z</time></trkpt><trkpt lat="39.740846462926356" lon="15.80840954222001"><ele>3.0</ele><time>2026-04-26T16:22:05Z</time></trkpt><trkpt lat="39.74074674113054" lon="15.808409284394404"><ele>2.8333333333333335</ele><time>2026-04-26T16:22:06Z</time></trkpt><trkpt lat="39.74065196302439" lon="15.808390483245502"><ele>2.6666666666666665</ele><time>2026-04-26T16:22:07Z</time></trkpt><trkpt lat="39.74057574915376" lon="15.808343419496524"><ele>2.5</ele><time>2026-04-26T16:22:08Z</time></trkpt><trkpt lat="39.740510920602176" lon="15.808267670332942"><ele>2.333333333333333</ele><time>2026-04-26T16:22:09Z</time></trkpt><trkpt lat="39.74046292695639" lon="15.808196536238707"><ele>2.1666666666666665</ele><time>2026-04-26T16:22:10Z</time></trkpt><trkpt lat="39.74039527151939" lon="15.808171016499827"><ele>2.0</ele><time>2026-04-26T16:22:11Z</time></trkpt><trkpt lat="39.74031846070385" lon="15.808181232072597"><ele>1.9999999999999998</ele><time>2026-04-26T16:22:12Z</time></trkpt><trkpt lat="39.74025550728846" lon="15.808242766115223"><ele>2.0</ele><time>2026-04-26T16:22:13Z</time></trkpt><trkpt lat="39.74020402026435" lon="15.80832341400319"><ele>2.0</ele><time>2026-04-26T16:22:14Z</time></trkpt><trkpt lat="39.740144390024945" lon="15.808391932555258"><ele>2.0</ele><time>2026-04-26T16:22:15Z</time></trkpt><trkpt lat="39.74007224473258" lon="15.80844703441217"><ele>1.9999999999999998</ele><time>2026-04-26T16:22:16Z</time></trkpt><trkpt lat="39.73998916990521" lon="15.80848479353314"><ele>2.0</ele><time>2026-04-26T16:22:17Z</time></trkpt><trkpt lat="39.73989707118626" lon="15.808509199009091"><ele>2.0</ele><time>2026-04-26T16:22:18Z</time></trkpt><trkpt lat="39.739796936935484" lon="15.80852055164048"><ele>2.0</ele><time>2026-04-26T16:22:19Z</time></trkpt><trkpt lat="39.73969594993201" lon="15.808531060088502"><ele>2.0</ele><time>2026-04-26T16:22:20Z</time></trkpt><trkpt lat="39.73959007758765" lon="15.8085478917294"><ele>2.0</ele><time>2026-04-26T16:22:21Z</time></trkpt><trkpt lat="39.739480334797264" lon="15.808563686118758"><ele>2.0</ele><time>2026-04-26T16:22:22Z</time></trkpt><trkpt lat="39.73936663659761" lon="15.808571589335074"><ele>2.0</ele><time>2026-04-26T16:22:23Z</time></trkpt><trkpt lat="39.73925034095506" lon="15.80858035096262"><ele>2.0</ele><time>2026-04-26T16:22:24Z</time></trkpt><trkpt lat="39.7391276115646" lon="15.808593914817738"><ele>2.0</ele><time>2026-04-26T16:22:25Z</time></trkpt><trkpt lat="39.73899856809146" lon="15.808611075605201"><ele>2.0</ele><time>2026-04-26T16:22:26Z</time></trkpt><trkpt lat="39.738865669515945" lon="15.808629887327927"><ele>2.0</ele><time>2026-04-26T16:22:27Z</time></trkpt><trkpt lat="39.73872944055357" lon="15.808639349504828"><ele>2.0</ele><time>2026-04-26T16:22:28Z</time></trkpt><trkpt lat="39.73858995519218" lon="15.808650700353013"><ele>2.0</ele><time>2026-04-26T16:22:29Z</time></trkpt><trkpt lat="39.738447730362836" lon="15.808670149598495"><ele>2.0</ele><time>2026-04-26T16:22:30Z</time></trkpt><trkpt lat="39.738303254747734" lon="15.808690054060067"><ele>2.333333333333333</ele><time>2026-04-26T16:22:31Z</time></trkpt><trkpt lat="39.73815584543502" lon="15.808701405613267"><ele>2.6666666666666665</ele><time>2026-04-26T16:22:32Z</time></trkpt><trkpt lat="39.73800498217064" lon="15.80871388230685"><ele>3.0</ele><time>2026-04-26T16:22:33Z</time></trkpt><trkpt lat="39.73784995106712" lon="15.808732199392706"><ele>3.666666666666667</ele><time>2026-04-26T16:22:34Z</time></trkpt><trkpt lat="39.737692031221165" lon="15.808754698061103"><ele>4.333333333333334</ele><time>2026-04-26T16:22:35Z</time></trkpt><trkpt lat="39.73753127023773" lon="15.808775772799862"><ele>5.0</ele><time>2026-04-26T16:22:36Z</time></trkpt><trkpt lat="39.73737477277484" lon="15.808791638481063"><ele>5.0</ele><time>2026-04-26T16:22:36.999Z</time></trkpt><trkpt lat="39.73722521974786" lon="15.808805869629682"><ele>5.0</ele><time>2026-04-26T16:22:37.999Z</time></trkpt><trkpt lat="39.73708034992589" lon="15.808823921349097"><ele>5.0</ele><time>2026-04-26T16:22:38.999Z</time></trkpt><trkpt lat="39.736938926253096" lon="15.808846176264003"><ele>5.0</ele><time>2026-04-26T16:22:39.999Z</time></trkpt><trkpt lat="39.736799836850885" lon="15.808862663885632"><ele>4.5</ele><time>2026-04-26T16:22:40.999Z</time></trkpt><trkpt lat="39.73666186390502" lon="15.808878945121375"><ele>4.0</ele><time>2026-04-26T16:22:41.999Z</time></trkpt><trkpt lat="39.73652564289298" lon="15.808897437786891"><ele>3.5</ele><time>2026-04-26T16:22:42.999Z</time></trkpt><trkpt lat="39.73639010718367" lon="15.808916693573837"><ele>3.0</ele><time>2026-04-26T16:22:43.999Z</time></trkpt><trkpt lat="39.736255817355" lon="15.808938817232116"><ele>3.0</ele><time>2026-04-26T16:22:44.999Z</time></trkpt><trkpt lat="39.73612357718323" lon="15.808958009164193"><ele>3.0</ele><time>2026-04-26T16:22:45.999Z</time></trkpt><trkpt lat="39.73598900577725" lon="15.80897769413055"><ele>3.0</ele><time>2026-04-26T16:22:46.999Z</time></trkpt><trkpt lat="39.7358552486961" lon="15.809001565117658"><ele>3.0</ele><time>2026-04-26T16:22:47.999Z</time></trkpt><trkpt lat="39.735721868908215" lon="15.80902389380416"><ele>3.25</ele><time>2026-04-26T16:22:48.999Z</time></trkpt><trkpt lat="39.73558866858195" lon="15.809048861318228"><ele>3.5</ele><time>2026-04-26T16:22:49.999Z</time></trkpt><trkpt lat="39.73545585824974" lon="15.809073388546278"><ele>3.75</ele><time>2026-04-26T16:22:50.999Z</time></trkpt><trkpt lat="39.73532361700146" lon="15.809096133979892"><ele>4.0</ele><time>2026-04-26T16:22:51.999Z</time></trkpt><trkpt lat="39.73519232257427" lon="15.80912379819194"><ele>4.25</ele><time>2026-04-26T16:22:52.999Z</time></trkpt><trkpt lat="39.73506104870399" lon="15.809148206604378"><ele>4.5</ele><time>2026-04-26T16:22:53.999Z</time></trkpt><trkpt lat="39.73493043983981" lon="15.809168707659731"><ele>4.75</ele><time>2026-04-26T16:22:54.999Z</time></trkpt><trkpt lat="39.73480155531547" lon="15.809197991355079"><ele>5.0</ele><time>2026-04-26T16:22:55.999Z</time></trkpt><trkpt lat="39.734672409930646" lon="15.809231383955822"><ele>5.0</ele><time>2026-04-26T16:22:56.999Z</time></trkpt><trkpt lat="39.73454355728065" lon="15.809264410683879"><ele>5.0</ele><time>2026-04-26T16:22:57.999Z</time></trkpt><trkpt lat="39.73441347662269" lon="15.809298470745729"><ele>5.0</ele><time>2026-04-26T16:22:58.999Z</time></trkpt><trkpt lat="39.73428153592077" lon="15.809334520125816"><ele>5.0</ele><time>2026-04-26T16:22:59.999Z</time></trkpt><trkpt lat="39.73414820885763" lon="15.809371848468093"><ele>4.75</ele><time>2026-04-26T16:23:00.999Z</time></trkpt><trkpt lat="39.73401461621803" lon="15.809407275151663"><ele>4.5</ele><time>2026-04-26T16:23:01.999Z</time></trkpt><trkpt lat="39.73387610848723" lon="15.809440124937412"><ele>4.25</ele><time>2026-04-26T16:23:03Z</time></trkpt><trkpt lat="39.733738368108796" lon="15.809472896611705"><ele>4.0</ele><time>2026-04-26T16:23:04Z</time></trkpt><trkpt lat="39.733601030806035" lon="15.809508894079013"><ele>4.25</ele><time>2026-04-26T16:23:05Z</time></trkpt><trkpt lat="39.73346811799663" lon="15.809543067916406"><ele>4.5</ele><time>2026-04-26T16:23:06Z</time></trkpt><trkpt lat="39.73334213385671" lon="15.80957535412227"><ele>4.75</ele><time>2026-04-26T16:23:07Z</time></trkpt><trkpt lat="39.733218822765664" lon="15.809607711651203"><ele>5.0</ele><time>2026-04-26T16:23:08Z</time></trkpt><trkpt lat="39.73309896386597" lon="15.809639241180555"><ele>5.0</ele><time>2026-04-26T16:23:09Z</time></trkpt><trkpt lat="39.73297977230542" lon="15.809670664680874"><ele>5.0</ele><time>2026-04-26T16:23:10Z</time></trkpt><trkpt lat="39.73286072008523" lon="15.80970426455516"><ele>5.0</ele><time>2026-04-26T16:23:11Z</time></trkpt><trkpt lat="39.732742448045485" lon="15.809737833744984"><ele>5.0</ele><time>2026-04-26T16:23:12Z</time></trkpt><trkpt lat="39.732620602055924" lon="15.809771528043665"><ele>5.0</ele><time>2026-04-26T16:23:13Z</time></trkpt><trkpt lat="39.73249690174262" lon="15.809806526516494"><ele>5.0</ele><time>2026-04-26T16:23:14Z</time></trkpt><trkpt lat="39.73237225150678" lon="15.809842728739094"><ele>5.0</ele><time>2026-04-26T16:23:15Z</time></trkpt><trkpt lat="39.73224478142514" lon="15.809880312996002"><ele>5.0</ele><time>2026-04-26T16:23:16Z</time></trkpt><trkpt lat="39.73211570698269" lon="15.809917409776904"><ele>5.0</ele><time>2026-04-26T16:23:17Z</time></trkpt><trkpt lat="39.731991020630964" lon="15.809949651887258"><ele>5.0</ele><time>2026-04-26T16:23:18Z</time></trkpt><trkpt lat="39.7318723168961" lon="15.809981440526865"><ele>5.0</ele><time>2026-04-26T16:23:19Z</time></trkpt><trkpt lat="39.7317601770679" lon="15.810014560329025"><ele>5.0</ele><time>2026-04-26T16:23:20Z</time></trkpt><trkpt lat="39.73165412595163" lon="15.810047080466314"><ele>4.4</ele><time>2026-04-26T16:23:21Z</time></trkpt><trkpt lat="39.7315535606484" lon="15.810078992391608"><ele>3.8</ele><time>2026-04-26T16:23:22Z</time></trkpt><trkpt lat="39.73145586487484" lon="15.81010548809021"><ele>3.2</ele><time>2026-04-26T16:23:23Z</time></trkpt><trkpt lat="39.73136243816301" lon="15.810120423333476"><ele>2.6</ele><time>2026-04-26T16:23:24Z</time></trkpt><trkpt lat="39.731271115318116" lon="15.81010479141309"><ele>2.0</ele><time>2026-04-26T16:23:25Z</time></trkpt><trkpt lat="39.73117477420492" lon="15.810061398282"><ele>2.0</ele><time>2026-04-26T16:23:26Z</time></trkpt><trkpt lat="39.731081954356995" lon="15.810007568091342"><ele>2.0</ele><time>2026-04-26T16:23:27Z</time></trkpt><trkpt lat="39.73099010258099" lon="15.810008695751135"><ele>2.0</ele><time>2026-04-26T16:23:28Z</time></trkpt><trkpt lat="39.730906398742306" lon="15.810053820782242"><ele>2.0</ele><time>2026-04-26T16:23:29Z</time></trkpt><trkpt lat="39.73084437059574" lon="15.81014689179626"><ele>2.0</ele><time>2026-04-26T16:23:30Z</time></trkpt><trkpt lat="39.730784574641085" lon="15.810242945722855"><ele>2.5</ele><time>2026-04-26T16:23:31Z</time></trkpt><trkpt lat="39.73069722553061" lon="15.810311052968492"><ele>3.0</ele><time>2026-04-26T16:23:32Z</time></trkpt><trkpt lat="39.730594090307726" lon="15.810356794426701"><ele>3.5</ele><time>2026-04-26T16:23:33Z</time></trkpt><trkpt lat="39.73046644137557" lon="15.810399472330023"><ele>4.0</ele><time>2026-04-26T16:23:34Z</time></trkpt><trkpt lat="39.73032185592168" lon="15.810447913634832"><ele>3.333333333333333</ele><time>2026-04-26T16:23:35Z</time></trkpt><trkpt lat="39.730150697134725" lon="15.81049700989076"><ele>2.6666666666666665</ele><time>2026-04-26T16:23:36Z</time></trkpt><trkpt lat="39.729971727848515" lon="15.810548290271456"><ele>2.0</ele><time>2026-04-26T16:23:37Z</time></trkpt><trkpt lat="39.72978466813491" lon="15.810595361071934"><ele>2.0</ele><time>2026-04-26T16:23:38Z</time></trkpt><trkpt lat="39.729589670779156" lon="15.810637000637227"><ele>2.0</ele><time>2026-04-26T16:23:39Z</time></trkpt><trkpt lat="39.72939336298123" lon="15.810672079176726"><ele>2.0</ele><time>2026-04-26T16:23:40Z</time></trkpt><trkpt lat="39.72920158695241" lon="15.81070388955855"><ele>2.333333333333333</ele><time>2026-04-26T16:23:41Z</time></trkpt><trkpt lat="39.729009853529924" lon="15.810737049720556"><ele>2.6666666666666665</ele><time>2026-04-26T16:23:42Z</time></trkpt><trkpt lat="39.728816964021824" lon="15.810769254485312"><ele>3.0</ele><time>2026-04-26T16:23:43Z</time></trkpt><trkpt lat="39.7286196287658" lon="15.810799351072921"><ele>3.0</ele><time>2026-04-26T16:23:44Z</time></trkpt><trkpt lat="39.72842446168099" lon="15.810827715146722"><ele>3.0</ele><time>2026-04-26T16:23:45Z</time></trkpt><trkpt lat="39.7282349038785" lon="15.81085050553063"><ele>3.0</ele><time>2026-04-26T16:23:46Z</time></trkpt><trkpt lat="39.728047559033094" lon="15.810873197923637"><ele>3.0</ele><time>2026-04-26T16:23:47Z</time></trkpt><trkpt lat="39.72786856670152" lon="15.810898297356788"><ele>3.0</ele><time>2026-04-26T16:23:48Z</time></trkpt><trkpt lat="39.72769343871467" lon="15.810925773567124"><ele>3.0</ele><time>2026-04-26T16:23:49Z</time></trkpt><trkpt lat="39.727511805036116" lon="15.81095532990425"><ele>3.0</ele><time>2026-04-26T16:23:50Z</time></trkpt><trkpt lat="39.72732046956066" lon="15.810971111683086"><ele>3.0</ele><time>2026-04-26T16:23:51Z</time></trkpt><trkpt lat="39.727112029627065" lon="15.811001001181916"><ele>3.0</ele><time>2026-04-26T16:23:52Z</time></trkpt><trkpt lat="39.726879635407585" lon="15.811051172165715"><ele>3.5</ele><time>2026-04-26T16:23:53Z</time></trkpt><trkpt lat="39.72662684927316" lon="15.81107256322908"><ele>4.0</ele><time>2026-04-26T16:23:54Z</time></trkpt><trkpt lat="39.72636818261712" lon="15.811108214082676"><ele>4.0</ele><time>2026-04-26T16:23:55Z</time></trkpt><trkpt lat="39.726109844062584" lon="15.811143378976531"><ele>4.0</ele><time>2026-04-26T16:23:56Z</time></trkpt><trkpt lat="39.72585213169691" lon="15.811176486439798"><ele>3.5</ele><time>2026-04-26T16:23:57Z</time></trkpt><trkpt lat="39.72559757324795" lon="15.811211666966312"><ele>3.0</ele><time>2026-04-26T16:23:58Z</time></trkpt><trkpt lat="39.72535013304137" lon="15.811248837286266"><ele>3.5</ele><time>2026-04-26T16:23:59Z</time></trkpt><trkpt lat="39.7251003321948" lon="15.811283121707952"><ele>4.0</ele><time>2026-04-26T16:24:00Z</time></trkpt><trkpt lat="39.724851202682096" lon="15.8113167350528"><ele>4.0</ele><time>2026-04-26T16:24:01Z</time></trkpt><trkpt lat="39.724605230739016" lon="15.81135122088466"><ele>4.0</ele><time>2026-04-26T16:24:02Z</time></trkpt><trkpt lat="39.72436617069296" lon="15.81138599623338"><ele>3.5</ele><time>2026-04-26T16:24:03Z</time></trkpt><trkpt lat="39.72413394354857" lon="15.81141946052822"><ele>3.0</ele><time>2026-04-26T16:24:04Z</time></trkpt><trkpt lat="39.723908218767455" lon="15.81144986998373"><ele>3.0</ele><time>2026-04-26T16:24:05Z</time></trkpt><trkpt lat="39.723688033744374" lon="15.811481371117091"><ele>3.0</ele><time>2026-04-26T16:24:06Z</time></trkpt><trkpt lat="39.72347635839585" lon="15.81151560003248"><ele>3.0</ele><time>2026-04-26T16:24:07Z</time></trkpt><trkpt lat="39.72326477925085" lon="15.811551966594491"><ele>2.6666666666666665</ele><time>2026-04-26T16:24:08Z</time></trkpt><trkpt lat="39.723051277994465" lon="15.8115927977181"><ele>2.333333333333333</ele><time>2026-04-26T16:24:09Z</time></trkpt><trkpt lat="39.722823887461054" lon="15.811606900120541"><ele>2.0</ele><time>2026-04-26T16:24:10Z</time></trkpt><trkpt lat="39.72259268549811" lon="15.811639048245054"><ele>2.0</ele><time>2026-04-26T16:24:11Z</time></trkpt><trkpt lat="39.722362544625945" lon="15.8116735351246"><ele>2.0</ele><time>2026-04-26T16:24:12Z</time></trkpt><trkpt lat="39.72214214191899" lon="15.811707744013267"><ele>2.0</ele><time>2026-04-26T16:24:13Z</time></trkpt><trkpt lat="39.72192760350002" lon="15.811726047777757"><ele>2.0</ele><time>2026-04-26T16:24:14Z</time></trkpt><trkpt lat="39.72171790438714" lon="15.81175377738806"><ele>2.0</ele><time>2026-04-26T16:24:15Z</time></trkpt><trkpt lat="39.72151703659939" lon="15.811784225460977"><ele>2.0</ele><time>2026-04-26T16:24:16Z</time></trkpt><trkpt lat="39.72131695024208" lon="15.811815695273884"><ele>2.0</ele><time>2026-04-26T16:24:17Z</time></trkpt><trkpt lat="39.721119050113295" lon="15.811842985329756"><ele>2.0</ele><time>2026-04-26T16:24:18Z</time></trkpt><trkpt lat="39.720923674315515" lon="15.81186903739467"><ele>2.0</ele><time>2026-04-26T16:24:19Z</time></trkpt><trkpt lat="39.720731921832076" lon="15.811894888956427"><ele>2.0</ele><time>2026-04-26T16:24:20Z</time></trkpt><trkpt lat="39.72054174484283" lon="15.811918843652757"><ele>2.0</ele><time>2026-04-26T16:24:21Z</time></trkpt><trkpt lat="39.720354856142386" lon="15.811935439908893"><ele>2.6666666666666665</ele><time>2026-04-26T16:24:22Z</time></trkpt><trkpt lat="39.72016668846328" lon="15.811948617216105"><ele>3.333333333333333</ele><time>2026-04-26T16:24:23Z</time></trkpt><trkpt lat="39.7199747857547" lon="15.811956609495098"><ele>4.0</ele><time>2026-04-26T16:24:24Z</time></trkpt><trkpt lat="39.71978621348244" lon="15.811954462697956"><ele>4.0</ele><time>2026-04-26T16:24:25Z</time></trkpt><trkpt lat="39.7196045854988" lon="15.811948342878162"><ele>4.0</ele><time>2026-04-26T16:24:26Z</time></trkpt><trkpt lat="39.719429030479404" lon="15.811943627239092"><ele>4.0</ele><time>2026-04-26T16:24:27Z</time></trkpt><trkpt lat="39.719255683998995" lon="15.811938540408763"><ele>3.6666666666666665</ele><time>2026-04-26T16:24:28Z</time></trkpt><trkpt lat="39.71908817211274" lon="15.81192748441123"><ele>3.333333333333333</ele><time>2026-04-26T16:24:29Z</time></trkpt><trkpt lat="39.71892232938703" lon="15.811912661267858"><ele>3.0</ele><time>2026-04-26T16:24:30Z</time></trkpt><trkpt lat="39.71875942841128" lon="15.811895761742775"><ele>3.0</ele><time>2026-04-26T16:24:31Z</time></trkpt><trkpt lat="39.718598032810775" lon="15.811877672541824"><ele>3.0</ele><time>2026-04-26T16:24:32Z</time></trkpt><trkpt lat="39.718441419358854" lon="15.811857016167757"><ele>3.0</ele><time>2026-04-26T16:24:33Z</time></trkpt><trkpt lat="39.718286643789114" lon="15.81183346168494"><ele>5.333333333333334</ele><time>2026-04-26T16:24:34Z</time></trkpt><trkpt lat="39.71813376297695" lon="15.811806601811329"><ele>7.666666666666667</ele><time>2026-04-26T16:24:35Z</time></trkpt><trkpt lat="39.71798071511589" lon="15.811782011399623"><ele>10.0</ele><time>2026-04-26T16:24:35.999Z</time></trkpt><trkpt lat="39.71783425186188" lon="15.811757871852288"><ele>12.75</ele><time>2026-04-26T16:24:36.999Z</time></trkpt><trkpt lat="39.7176888053" lon="15.81173330574914"><ele>15.5</ele><time>2026-04-26T16:24:37.999Z</time></trkpt><trkpt lat="39.717542837938254" lon="15.811706488887808"><ele>18.25</ele><time>2026-04-26T16:24:38.999Z</time></trkpt><trkpt lat="39.71739481838071" lon="15.811680553405603"><ele>21.0</ele><time>2026-04-26T16:24:39.999Z</time></trkpt><trkpt lat="39.71724501054346" lon="15.811655377898573"><ele>21.0</ele><time>2026-04-26T16:24:40.999Z</time></trkpt><trkpt lat="39.71709007602944" lon="15.8116307730448"><ele>21.0</ele><time>2026-04-26T16:24:41.999Z</time></trkpt><trkpt lat="39.71693251732512" lon="15.811605157061992"><ele>21.0</ele><time>2026-04-26T16:24:42.999Z</time></trkpt><trkpt lat="39.71677399733125" lon="15.811577625163663"><ele>23.666666666666664</ele><time>2026-04-26T16:24:43.999Z</time></trkpt><trkpt lat="39.71661235314823" lon="15.81155187613072"><ele>26.333333333333332</ele><time>2026-04-26T16:24:44.999Z</time></trkpt><trkpt lat="39.71645105596138" lon="15.81152725149809"><ele>29.0</ele><time>2026-04-26T16:24:45.999Z</time></trkpt><trkpt lat="39.71628951046777" lon="15.811504800949917"><ele>29.0</ele><time>2026-04-26T16:24:46.999Z</time></trkpt><trkpt lat="39.716127340132815" lon="15.811484007726982"><ele>29.0</ele><time>2026-04-26T16:24:47.999Z</time></trkpt><trkpt lat="39.71596454367108" lon="15.811464276968207"><ele>29.0</ele><time>2026-04-26T16:24:48.999Z</time></trkpt><trkpt lat="39.71580353916072" lon="15.811448698692026"><ele>31.0</ele><time>2026-04-26T16:24:49.999Z</time></trkpt><trkpt lat="39.715642529158146" lon="15.811440422847697"><ele>33.0</ele><time>2026-04-26T16:24:50.999Z</time></trkpt><trkpt lat="39.71548195223124" lon="15.811439054700644"><ele>35.0</ele><time>2026-04-26T16:24:51.999Z</time></trkpt><trkpt lat="39.71532131975284" lon="15.811441891448421"><ele>35.666666666666664</ele><time>2026-04-26T16:24:52.999Z</time></trkpt><trkpt lat="39.715161735951355" lon="15.811456635563063"><ele>36.333333333333336</ele><time>2026-04-26T16:24:53.999Z</time></trkpt><trkpt lat="39.715001390556296" lon="15.811472478523417"><ele>37.0</ele><time>2026-04-26T16:24:54.999Z</time></trkpt><trkpt lat="39.7148424086335" lon="15.811494196383212"><ele>37.0</ele><time>2026-04-26T16:24:55.999Z</time></trkpt><trkpt lat="39.71468055796366" lon="15.811519409910563"><ele>37.0</ele><time>2026-04-26T16:24:56.999Z</time></trkpt><trkpt lat="39.71451875631321" lon="15.811546662144993"><ele>37.0</ele><time>2026-04-26T16:24:57.999Z</time></trkpt><trkpt lat="39.71435738506866" lon="15.811577335812853"><ele>36.333333333333336</ele><time>2026-04-26T16:24:58.999Z</time></trkpt><trkpt lat="39.71420348697495" lon="15.811605831638312"><ele>35.666666666666664</ele><time>2026-04-26T16:24:59.999Z</time></trkpt><trkpt lat="39.71405351819533" lon="15.811634755904624"><ele>35.0</ele><time>2026-04-26T16:25:00.999Z</time></trkpt><trkpt lat="39.71390507805575" lon="15.811666316807125"><ele>35.0</ele><time>2026-04-26T16:25:01.999Z</time></trkpt><trkpt lat="39.71375948505298" lon="15.811693812859621"><ele>35.0</ele><time>2026-04-26T16:25:02.999Z</time></trkpt><trkpt lat="39.71361571648921" lon="15.811723422302574"><ele>35.0</ele><time>2026-04-26T16:25:03.999Z</time></trkpt><trkpt lat="39.71347530557719" lon="15.811751095525281"><ele>35.0</ele><time>2026-04-26T16:25:04.999Z</time></trkpt><trkpt lat="39.713340088310446" lon="15.81177757277616"><ele>34.25</ele><time>2026-04-26T16:25:05.999Z</time></trkpt><trkpt lat="39.713210213186706" lon="15.811810436330644"><ele>33.5</ele><time>2026-04-26T16:25:06.999Z</time></trkpt><trkpt lat="39.71308219956142" lon="15.81183653163433"><ele>32.75</ele><time>2026-04-26T16:25:08Z</time></trkpt><trkpt lat="39.712963155477226" lon="15.811868143422807"><ele>32.0</ele><time>2026-04-26T16:25:09Z</time></trkpt><trkpt lat="39.712849163932034" lon="15.811897490098879"><ele>32.0</ele><time>2026-04-26T16:25:10Z</time></trkpt><trkpt lat="39.71274291316693" lon="15.811923084335236"><ele>32.0</ele><time>2026-04-26T16:25:11Z</time></trkpt><trkpt lat="39.71264744312119" lon="15.811948540722671"><ele>32.0</ele><time>2026-04-26T16:25:12Z</time></trkpt><trkpt lat="39.712569964239066" lon="15.811968335249487"><ele>32.0</ele><time>2026-04-26T16:25:13Z</time></trkpt><trkpt lat="39.71248287823874" lon="15.81198414398757"><ele>32.0</ele><time>2026-04-26T16:25:15Z</time></trkpt><trkpt lat="39.71239848489029" lon="15.81199297736535"><ele>32.0</ele><time>2026-04-26T16:25:18Z</time></trkpt><trkpt lat="39.71229823550219" lon="15.811958895436234"><ele>32.0</ele><time>2026-04-26T16:25:20Z</time></trkpt><trkpt lat="39.71218334688126" lon="15.811942964807503"><ele>32.0</ele><time>2026-04-26T16:25:22Z</time></trkpt><trkpt lat="39.712098891728445" lon="15.812012973347386"><ele>32.0</ele><time>2026-04-26T16:25:24Z</time></trkpt><trkpt lat="39.712071508790125" lon="15.81215163945477"><ele>32.0</ele><time>2026-04-26T16:25:26Z</time></trkpt><trkpt lat="39.71206407954705" lon="15.812237121380551"><ele>31.999999999999996</ele><time>2026-04-26T16:25:27Z</time></trkpt><trkpt lat="39.71204841448426" lon="15.812323966897637"><ele>32.0</ele><time>2026-04-26T16:25:28Z</time></trkpt><trkpt lat="39.71201622065301" lon="15.812406625089283"><ele>32.0</ele><time>2026-04-26T16:25:29Z</time></trkpt><trkpt lat="39.711964573805034" lon="15.812488276581343"><ele>32.0</ele><time>2026-04-26T16:25:30Z</time></trkpt><trkpt lat="39.71189682456984" lon="15.812563300095109"><ele>31.999999999999996</ele><time>2026-04-26T16:25:31Z</time></trkpt><trkpt lat="39.71180868718775" lon="15.812649492844034"><ele>32.0</ele><time>2026-04-26T16:25:32Z</time></trkpt><trkpt lat="39.71171009480019" lon="15.812741271177917"><ele>33.0</ele><time>2026-04-26T16:25:33Z</time></trkpt><trkpt lat="39.71158655033225" lon="15.812839688060734"><ele>34.0</ele><time>2026-04-26T16:25:34Z</time></trkpt><trkpt lat="39.71144350613486" lon="15.812939251473383"><ele>35.0</ele><time>2026-04-26T16:25:35Z</time></trkpt><trkpt lat="39.71128060321629" lon="15.813030993258836"><ele>35.0</ele><time>2026-04-26T16:25:36Z</time></trkpt><trkpt lat="39.71114370725775" lon="15.813118749102657"><ele>35.0</ele><time>2026-04-26T16:25:37Z</time></trkpt><trkpt lat="39.71092699405667" lon="15.813204436235011"><ele>35.0</ele><time>2026-04-26T16:25:38Z</time></trkpt><trkpt lat="39.710735801056785" lon="15.813287037285404"><ele>35.0</ele><time>2026-04-26T16:25:39Z</time></trkpt><trkpt lat="39.71053725621307" lon="15.813364502861448"><ele>35.0</ele><time>2026-04-26T16:25:40Z</time></trkpt><trkpt lat="39.71033804174537" lon="15.813435616610937"><ele>35.0</ele><time>2026-04-26T16:25:41Z</time></trkpt><trkpt lat="39.710134107002546" lon="15.813506587345909"><ele>35.0</ele><time>2026-04-26T16:25:42Z</time></trkpt><trkpt lat="39.70992976947429" lon="15.813562383696913"><ele>35.0</ele><time>2026-04-26T16:25:43Z</time></trkpt><trkpt lat="39.70972647663485" lon="15.813602330937623"><ele>35.0</ele><time>2026-04-26T16:25:44Z</time></trkpt><trkpt lat="39.709526995751986" lon="15.813629349622426"><ele>29.666666666666664</ele><time>2026-04-26T16:25:45Z</time></trkpt><trkpt lat="39.70932595415596" lon="15.813653273001448"><ele>24.333333333333332</ele><time>2026-04-26T16:25:46Z</time></trkpt><trkpt lat="39.709122531645576" lon="15.81367819652893"><ele>19.0</ele><time>2026-04-26T16:25:47Z</time></trkpt><trkpt lat="39.708917079616384" lon="15.813704672377076"><ele>19.0</ele><time>2026-04-26T16:25:48Z</time></trkpt><trkpt lat="39.7087094638946" lon="15.813729892235301"><ele>19.0</ele><time>2026-04-26T16:25:49Z</time></trkpt><trkpt lat="39.70850230981576" lon="15.813749734090841"><ele>19.0</ele><time>2026-04-26T16:25:50Z</time></trkpt><trkpt lat="39.70829286219839" lon="15.813774357042394"><ele>17.0</ele><time>2026-04-26T16:25:51Z</time></trkpt><trkpt lat="39.70807951084278" lon="15.81380575765397"><ele>15.0</ele><time>2026-04-26T16:25:52Z</time></trkpt><trkpt lat="39.70787081158548" lon="15.813833163173165"><ele>13.0</ele><time>2026-04-26T16:25:53Z</time></trkpt><trkpt lat="39.707661020627114" lon="15.813854920007639"><ele>12.666666666666666</ele><time>2026-04-26T16:25:54Z</time></trkpt><trkpt lat="39.707453453246686" lon="15.813878498658282"><ele>12.333333333333332</ele><time>2026-04-26T16:25:55Z</time></trkpt><trkpt lat="39.707245818525145" lon="15.813901791434029"><ele>12.0</ele><time>2026-04-26T16:25:56Z</time></trkpt><trkpt lat="39.707039424471496" lon="15.81392130872741"><ele>12.0</ele><time>2026-04-26T16:25:57Z</time></trkpt><trkpt lat="39.70684148701301" lon="15.813941665188736"><ele>12.0</ele><time>2026-04-26T16:25:58Z</time></trkpt><trkpt lat="39.70665522966183" lon="15.813963477893479"><ele>12.0</ele><time>2026-04-26T16:25:59Z</time></trkpt><trkpt lat="39.706478537358706" lon="15.813985939080926"><ele>12.0</ele><time>2026-04-26T16:26:00Z</time></trkpt><trkpt lat="39.70631019957258" lon="15.814004162617344"><ele>12.0</ele><time>2026-04-26T16:26:01Z</time></trkpt><trkpt lat="39.70614496039561" lon="15.814022872777931"><ele>12.0</ele><time>2026-04-26T16:26:02Z</time></trkpt><trkpt lat="39.70598278746625" lon="15.814045620673928"><ele>13.333333333333332</ele><time>2026-04-26T16:26:03Z</time></trkpt><trkpt lat="39.70582063035014" lon="15.814067313345342"><ele>14.666666666666666</ele><time>2026-04-26T16:26:04Z</time></trkpt><trkpt lat="39.70565904848981" lon="15.81408131282655"><ele>16.0</ele><time>2026-04-26T16:26:05Z</time></trkpt><trkpt lat="39.705496491908924" lon="15.814091663294729"><ele>16.0</ele><time>2026-04-26T16:26:06Z</time></trkpt><trkpt lat="39.70533435896406" lon="15.814104624734266"><ele>16.0</ele><time>2026-04-26T16:26:07Z</time></trkpt><trkpt lat="39.705170518833555" lon="15.814116080626457"><ele>16.0</ele><time>2026-04-26T16:26:08Z</time></trkpt><trkpt lat="39.705006244281904" lon="15.814118773749135"><ele>15.333333333333332</ele><time>2026-04-26T16:26:09Z</time></trkpt><trkpt lat="39.70484330068758" lon="15.814115762052962"><ele>14.666666666666668</ele><time>2026-04-26T16:26:10Z</time></trkpt><trkpt lat="39.704679814291204" lon="15.814109820243004"><ele>14.0</ele><time>2026-04-26T16:26:11Z</time></trkpt><trkpt lat="39.704515218131824" lon="15.814107073412"><ele>14.0</ele><time>2026-04-26T16:26:12Z</time></trkpt><trkpt lat="39.70434906408072" lon="15.814106860062017"><ele>14.0</ele><time>2026-04-26T16:26:13Z</time></trkpt><trkpt lat="39.70418317767198" lon="15.814103942301328"><ele>14.0</ele><time>2026-04-26T16:26:14Z</time></trkpt><trkpt lat="39.70401534029261" lon="15.814101050094147"><ele>14.0</ele><time>2026-04-26T16:26:15Z</time></trkpt><trkpt lat="39.70384815313496" lon="15.814097173362258"><ele>14.0</ele><time>2026-04-26T16:26:16Z</time></trkpt><trkpt lat="39.70368263916785" lon="15.814091298010428"><ele>14.0</ele><time>2026-04-26T16:26:17Z</time></trkpt><trkpt lat="39.70351560855059" lon="15.814082034481203"><ele>14.0</ele><time>2026-04-26T16:26:18Z</time></trkpt><trkpt lat="39.70334834605447" lon="15.814076490349246"><ele>14.0</ele><time>2026-04-26T16:26:19Z</time></trkpt><trkpt lat="39.70318121111829" lon="15.814073426048436"><ele>14.0</ele><time>2026-04-26T16:26:20Z</time></trkpt><trkpt lat="39.70301329386809" lon="15.814068810274218"><ele>14.0</ele><time>2026-04-26T16:26:21Z</time></trkpt><trkpt lat="39.70284404099347" lon="15.814063654984205"><ele>14.0</ele><time>2026-04-26T16:26:22Z</time></trkpt><trkpt lat="39.70267549246317" lon="15.81405718838791"><ele>14.0</ele><time>2026-04-26T16:26:23Z</time></trkpt><trkpt lat="39.702505953701056" lon="15.814055000173191"><ele>14.666666666666668</ele><time>2026-04-26T16:26:24Z</time></trkpt><trkpt lat="39.70233624934812" lon="15.814053267678178"><ele>15.333333333333332</ele><time>2026-04-26T16:26:25Z</time></trkpt><trkpt lat="39.702166907045836" lon="15.814048447594455"><ele>16.0</ele><time>2026-04-26T16:26:26Z</time></trkpt><trkpt lat="39.70199777638243" lon="15.81404276199196"><ele>17.333333333333332</ele><time>2026-04-26T16:26:27Z</time></trkpt><trkpt lat="39.70183220482639" lon="15.814041007784526"><ele>18.666666666666668</ele><time>2026-04-26T16:26:28Z</time></trkpt><trkpt lat="39.701671273456036" lon="15.814039781941357"><ele>20.0</ele><time>2026-04-26T16:26:29Z</time></trkpt><trkpt lat="39.70151481445166" lon="15.814037928010212"><ele>20.0</ele><time>2026-04-26T16:26:30Z</time></trkpt><trkpt lat="39.70135963296683" lon="15.814032888126148"><ele>20.0</ele><time>2026-04-26T16:26:31Z</time></trkpt><trkpt lat="39.701206877661946" lon="15.814024488094221"><ele>20.0</ele><time>2026-04-26T16:26:32Z</time></trkpt><trkpt lat="39.70105450060339" lon="15.814019418467785"><ele>19.0</ele><time>2026-04-26T16:26:33Z</time></trkpt><trkpt lat="39.7009020556197" lon="15.814015401817358"><ele>18.0</ele><time>2026-04-26T16:26:34Z</time></trkpt><trkpt lat="39.700747605955414" lon="15.814013625449942"><ele>17.0</ele><time>2026-04-26T16:26:35Z</time></trkpt><trkpt lat="39.70059282719542" lon="15.814009551919284"><ele>17.0</ele><time>2026-04-26T16:26:36Z</time></trkpt><trkpt lat="39.700434303994" lon="15.814009378782778"><ele>17.0</ele><time>2026-04-26T16:26:37Z</time></trkpt><trkpt lat="39.700274808369095" lon="15.81400739184885"><ele>17.0</ele><time>2026-04-26T16:26:38Z</time></trkpt><trkpt lat="39.70011357607974" lon="15.81400161349764"><ele>16.0</ele><time>2026-04-26T16:26:39Z</time></trkpt><trkpt lat="39.69995096568174" lon="15.814003466308794"><ele>15.0</ele><time>2026-04-26T16:26:40Z</time></trkpt><trkpt lat="39.69978603549708" lon="15.81401435483607"><ele>14.0</ele><time>2026-04-26T16:26:41Z</time></trkpt><trkpt lat="39.69962107992955" lon="15.814030535554064"><ele>14.0</ele><time>2026-04-26T16:26:41.999Z</time></trkpt><trkpt lat="39.69945471158104" lon="15.81405710138603"><ele>14.0</ele><time>2026-04-26T16:26:42.999Z</time></trkpt><trkpt lat="39.699288288101975" lon="15.814092606204973"><ele>14.0</ele><time>2026-04-26T16:26:43.999Z</time></trkpt><trkpt lat="39.69912352009633" lon="15.814133478548776"><ele>13.666666666666668</ele><time>2026-04-26T16:26:44.999Z</time></trkpt><trkpt lat="39.69896087749866" lon="15.814178756891746"><ele>13.333333333333332</ele><time>2026-04-26T16:26:45.999Z</time></trkpt><trkpt lat="39.69880042212379" lon="15.814229926632496"><ele>13.0</ele><time>2026-04-26T16:26:46.999Z</time></trkpt><trkpt lat="39.69864325016607" lon="15.814286264996516"><ele>14.333333333333332</ele><time>2026-04-26T16:26:47.999Z</time></trkpt><trkpt lat="39.6984873691703" lon="15.814345192689288"><ele>15.666666666666668</ele><time>2026-04-26T16:26:48.999Z</time></trkpt><trkpt lat="39.69833318335852" lon="15.814402888045281"><ele>17.0</ele><time>2026-04-26T16:26:49.999Z</time></trkpt><trkpt lat="39.69818085700367" lon="15.814462388044038"><ele>17.0</ele><time>2026-04-26T16:26:50.999Z</time></trkpt><trkpt lat="39.6980310830373" lon="15.81452404783775"><ele>17.0</ele><time>2026-04-26T16:26:51.999Z</time></trkpt><trkpt lat="39.69788183406854" lon="15.81458290820247"><ele>17.0</ele><time>2026-04-26T16:26:52.999Z</time></trkpt><trkpt lat="39.697732161834715" lon="15.814637628832191"><ele>16.666666666666668</ele><time>2026-04-26T16:26:53.999Z</time></trkpt><trkpt lat="39.69758577301075" lon="15.814690395321641"><ele>16.333333333333332</ele><time>2026-04-26T16:26:54.999Z</time></trkpt><trkpt lat="39.697440053578624" lon="15.814747270973003"><ele>16.0</ele><time>2026-04-26T16:26:55.999Z</time></trkpt><trkpt lat="39.69729729046631" lon="15.81480546963044"><ele>16.0</ele><time>2026-04-26T16:26:56.999Z</time></trkpt><trkpt lat="39.69715294703053" lon="15.814862260793879"><ele>16.0</ele><time>2026-04-26T16:26:57.999Z</time></trkpt><trkpt lat="39.69701182976809" lon="15.81491597508079"><ele>16.0</ele><time>2026-04-26T16:26:58.999Z</time></trkpt><trkpt lat="39.69687348276355" lon="15.814972024136425"><ele>16.0</ele><time>2026-04-26T16:26:59.999Z</time></trkpt><trkpt lat="39.696736137773904" lon="15.815030804201228"><ele>15.25</ele><time>2026-04-26T16:27:00.999Z</time></trkpt><trkpt lat="39.696600631167605" lon="15.81508391240695"><ele>14.5</ele><time>2026-04-26T16:27:01.999Z</time></trkpt><trkpt lat="39.69646659788945" lon="15.815139221477837"><ele>13.75</ele><time>2026-04-26T16:27:02.999Z</time></trkpt><trkpt lat="39.69633137459656" lon="15.815193102782285"><ele>13.0</ele><time>2026-04-26T16:27:03.999Z</time></trkpt><trkpt lat="39.69619729775472" lon="15.81524775438662"><ele>16.0</ele><time>2026-04-26T16:27:04.999Z</time></trkpt><trkpt lat="39.69606192082023" lon="15.815300628405202"><ele>19.0</ele><time>2026-04-26T16:27:05.999Z</time></trkpt><trkpt lat="39.69592608607564" lon="15.815351943938829"><ele>22.0</ele><time>2026-04-26T16:27:06.999Z</time></trkpt><trkpt lat="39.69578774801864" lon="15.815403794929491"><ele>25.0</ele><time>2026-04-26T16:27:07.999Z</time></trkpt><trkpt lat="39.69564716351805" lon="15.81545654982452"><ele>25.0</ele><time>2026-04-26T16:27:08.999Z</time></trkpt><trkpt lat="39.695503721008" lon="15.815511870867267"><ele>25.0</ele><time>2026-04-26T16:27:09.999Z</time></trkpt><trkpt lat="39.69536079899231" lon="15.815568773426671"><ele>25.0</ele><time>2026-04-26T16:27:10.999Z</time></trkpt><trkpt lat="39.69521895436999" lon="15.815625025884371"><ele>25.0</ele><time>2026-04-26T16:27:11.999Z</time></trkpt><trkpt lat="39.69507831260969" lon="15.815682294732508"><ele>23.25</ele><time>2026-04-26T16:27:12.999Z</time></trkpt><trkpt lat="39.69493649336327" lon="15.815740178553181"><ele>21.5</ele><time>2026-04-26T16:27:14Z</time></trkpt><trkpt lat="39.69479457110779" lon="15.81579773182795"><ele>19.75</ele><time>2026-04-26T16:27:15Z</time></trkpt><trkpt lat="39.69465155978693" lon="15.815855826927848"><ele>18.0</ele><time>2026-04-26T16:27:16Z</time></trkpt><trkpt lat="39.694508279915745" lon="15.815913262024532"><ele>17.5</ele><time>2026-04-26T16:27:17Z</time></trkpt><trkpt lat="39.69436683437608" lon="15.815968365778788"><ele>17.0</ele><time>2026-04-26T16:27:18Z</time></trkpt><trkpt lat="39.694223818306874" lon="15.81602487750648"><ele>16.5</ele><time>2026-04-26T16:27:19Z</time></trkpt><trkpt lat="39.6940831252745" lon="15.816079944830783"><ele>16.0</ele><time>2026-04-26T16:27:20Z</time></trkpt><trkpt lat="39.693942799626804" lon="15.816134850532716"><ele>16.0</ele><time>2026-04-26T16:27:21Z</time></trkpt><trkpt lat="39.69380536378543" lon="15.81619041614478"><ele>16.0</ele><time>2026-04-26T16:27:22Z</time></trkpt><trkpt lat="39.693666363118346" lon="15.816245839492108"><ele>16.0</ele><time>2026-04-26T16:27:23Z</time></trkpt><trkpt lat="39.693526244214866" lon="15.816301087927153"><ele>16.0</ele><time>2026-04-26T16:27:24Z</time></trkpt><trkpt lat="39.6933856020231" lon="15.816352782077796"><ele>16.0</ele><time>2026-04-26T16:27:25Z</time></trkpt><trkpt lat="39.69324400881201" lon="15.816407044533191"><ele>16.0</ele><time>2026-04-26T16:27:26Z</time></trkpt><trkpt lat="39.69310279426232" lon="15.81646340727037"><ele>16.0</ele><time>2026-04-26T16:27:27Z</time></trkpt><trkpt lat="39.69296258342346" lon="15.81651776249408"><ele>16.0</ele><time>2026-04-26T16:27:28Z</time></trkpt><trkpt lat="39.6928239905913" lon="15.816570251013875"><ele>15.0</ele><time>2026-04-26T16:27:29Z</time></trkpt><trkpt lat="39.692687921186945" lon="15.81662295201933"><ele>14.0</ele><time>2026-04-26T16:27:30Z</time></trkpt><trkpt lat="39.69255435160349" lon="15.816675063650274"><ele>13.0</ele><time>2026-04-26T16:27:31Z</time></trkpt><trkpt lat="39.6924237890316" lon="15.816724941146628"><ele>12.0</ele><time>2026-04-26T16:27:32Z</time></trkpt><trkpt lat="39.6922937463956" lon="15.816777982277966"><ele>13.25</ele><time>2026-04-26T16:27:33Z</time></trkpt><trkpt lat="39.69216745428985" lon="15.816828180221341"><ele>14.5</ele><time>2026-04-26T16:27:34Z</time></trkpt><trkpt lat="39.692042265699705" lon="15.81687592570432"><ele>15.75</ele><time>2026-04-26T16:27:35Z</time></trkpt><trkpt lat="39.69191950673255" lon="15.816925256010883"><ele>17.0</ele><time>2026-04-26T16:27:36Z</time></trkpt><trkpt lat="39.69179495796602" lon="15.816977234463549"><ele>17.0</ele><time>2026-04-26T16:27:37Z</time></trkpt><trkpt lat="39.691676324868936" lon="15.817028168016357"><ele>17.0</ele><time>2026-04-26T16:27:38Z</time></trkpt><trkpt lat="39.69156374305014" lon="15.817071173717384"><ele>17.0</ele><time>2026-04-26T16:27:39Z</time></trkpt><trkpt lat="39.691456040307166" lon="15.81711123679431"><ele>17.0</ele><time>2026-04-26T16:27:40Z</time></trkpt><trkpt lat="39.69135206278611" lon="15.817150925520101"><ele>17.0</ele><time>2026-04-26T16:27:41Z</time></trkpt><trkpt lat="39.69125262330809" lon="15.81718997042066"><ele>17.0</ele><time>2026-04-26T16:27:42Z</time></trkpt><trkpt lat="39.691152600587166" lon="15.817229153455713"><ele>17.0</ele><time>2026-04-26T16:27:43Z</time></trkpt><trkpt lat="39.69105500118579" lon="15.817268364493854"><ele>17.0</ele><time>2026-04-26T16:27:44Z</time></trkpt><trkpt lat="39.690954879259834" lon="15.817309150095175"><ele>17.0</ele><time>2026-04-26T16:27:45Z</time></trkpt><trkpt lat="39.690856282701475" lon="15.817348907212397"><ele>16.8</ele><time>2026-04-26T16:27:46Z</time></trkpt><trkpt lat="39.690761608085545" lon="15.81738555121525"><ele>16.6</ele><time>2026-04-26T16:27:47Z</time></trkpt><trkpt lat="39.690668787219494" lon="15.81742427365882"><ele>16.400000000000002</ele><time>2026-04-26T16:27:48Z</time></trkpt><trkpt lat="39.69057946021521" lon="15.81746077440973"><ele>16.2</ele><time>2026-04-26T16:27:49Z</time></trkpt><trkpt lat="39.690493794305944" lon="15.81749418392764"><ele>16.0</ele><time>2026-04-26T16:27:50Z</time></trkpt><trkpt lat="39.69041045368805" lon="15.817525616557951"><ele>15.999999999999998</ele><time>2026-04-26T16:27:51Z</time></trkpt><trkpt lat="39.69032766463228" lon="15.817560810915094"><ele>16.0</ele><time>2026-04-26T16:27:52Z</time></trkpt><trkpt lat="39.69024442236602" lon="15.817594688107695"><ele>16.0</ele><time>2026-04-26T16:27:53Z</time></trkpt><trkpt lat="39.690162813257594" lon="15.817626233460395"><ele>16.0</ele><time>2026-04-26T16:27:54Z</time></trkpt><trkpt lat="39.690085752472974" lon="15.81765668492882"><ele>15.999999999999998</ele><time>2026-04-26T16:27:55Z</time></trkpt><trkpt lat="39.690012180877254" lon="15.817685171870723"><ele>16.0</ele><time>2026-04-26T16:27:56Z</time></trkpt><trkpt lat="39.68994280336209" lon="15.817709146170627"><ele>17.166666666666664</ele><time>2026-04-26T16:27:57Z</time></trkpt><trkpt lat="39.68987647995474" lon="15.817735493453851"><ele>18.333333333333332</ele><time>2026-04-26T16:27:58Z</time></trkpt><trkpt lat="39.689810311925264" lon="15.817755797009717"><ele>19.5</ele><time>2026-04-26T16:27:59Z</time></trkpt><trkpt lat="39.68974434536901" lon="15.817763781602029"><ele>20.666666666666668</ele><time>2026-04-26T16:28:00Z</time></trkpt><trkpt lat="39.68962237312764" lon="15.817747306141952"><ele>21.833333333333336</ele><time>2026-04-26T16:28:02Z</time></trkpt><trkpt lat="39.68953158391366" lon="15.817801830695633"><ele>23.0</ele><time>2026-04-26T16:28:04Z</time></trkpt><trkpt lat="39.6894573175678" lon="15.817885824629721"><ele>22.166666666666668</ele><time>2026-04-26T16:28:06Z</time></trkpt><trkpt lat="39.68936748750832" lon="15.817945336700348"><ele>21.333333333333336</ele><time>2026-04-26T16:28:08Z</time></trkpt><trkpt lat="39.68930644831175" lon="15.817969496071886"><ele>20.5</ele><time>2026-04-26T16:28:09Z</time></trkpt><trkpt lat="39.68923973062951" lon="15.817992476492025"><ele>19.666666666666668</ele><time>2026-04-26T16:28:10Z</time></trkpt><trkpt lat="39.68916935420469" lon="15.818023422649679"><ele>18.833333333333332</ele><time>2026-04-26T16:28:11Z</time></trkpt><trkpt lat="39.68909348043141" lon="15.818053521031796"><ele>18.0</ele><time>2026-04-26T16:28:12Z</time></trkpt><trkpt lat="39.6890113581565" lon="15.81807880023404"><ele>18.0</ele><time>2026-04-26T16:28:13Z</time></trkpt><trkpt lat="39.688929375567916" lon="15.818114019318015"><ele>18.0</ele><time>2026-04-26T16:28:14Z</time></trkpt><trkpt lat="39.68884516163384" lon="15.81814623875666"><ele>18.0</ele><time>2026-04-26T16:28:15Z</time></trkpt><trkpt lat="39.6887605260905" lon="15.81818167870294"><ele>18.0</ele><time>2026-04-26T16:28:16Z</time></trkpt><trkpt lat="39.68867597885584" lon="15.818213642753808"><ele>18.0</ele><time>2026-04-26T16:28:17Z</time></trkpt><trkpt lat="39.68859495190157" lon="15.818251041802089"><ele>18.0</ele><time>2026-04-26T16:28:18Z</time></trkpt><trkpt lat="39.68851246610201" lon="15.818278269689294"><ele>17.4</ele><time>2026-04-26T16:28:19Z</time></trkpt><trkpt lat="39.688427755049595" lon="15.818309301978818"><ele>16.8</ele><time>2026-04-26T16:28:20Z</time></trkpt><trkpt lat="39.68834052029212" lon="15.818341043673106"><ele>16.2</ele><time>2026-04-26T16:28:21Z</time></trkpt><trkpt lat="39.68825180296295" lon="15.81838017817381"><ele>15.6</ele><time>2026-04-26T16:28:22Z</time></trkpt><trkpt lat="39.688158604322886" lon="15.81841288800508"><ele>15.0</ele><time>2026-04-26T16:28:23Z</time></trkpt><trkpt lat="39.68806559734507" lon="15.81844764017763"><ele>15.0</ele><time>2026-04-26T16:28:24Z</time></trkpt><trkpt lat="39.68797498847943" lon="15.818481696576052"><ele>15.0</ele><time>2026-04-26T16:28:25Z</time></trkpt><trkpt lat="39.68788202618351" lon="15.81851362445325"><ele>15.0</ele><time>2026-04-26T16:28:26Z</time></trkpt><trkpt lat="39.687792256053235" lon="15.818550338081401"><ele>15.0</ele><time>2026-04-26T16:28:27Z</time></trkpt><trkpt lat="39.68770359977128" lon="15.818585253426026"><ele>15.0</ele><time>2026-04-26T16:28:28Z</time></trkpt><trkpt lat="39.68761064043207" lon="15.81862497494687"><ele>16.0</ele><time>2026-04-26T16:28:29Z</time></trkpt><trkpt lat="39.687516781460694" lon="15.818660801929914"><ele>17.0</ele><time>2026-04-26T16:28:30Z</time></trkpt><trkpt lat="39.68741942202381" lon="15.81869773542735"><ele>18.0</ele><time>2026-04-26T16:28:31Z</time></trkpt><trkpt lat="39.68732219014017" lon="15.818732283127146"><ele>19.0</ele><time>2026-04-26T16:28:32Z</time></trkpt><trkpt lat="39.68722282973032" lon="15.818771515724876"><ele>20.0</ele><time>2026-04-26T16:28:33Z</time></trkpt><trkpt lat="39.68712074173118" lon="15.818810448491467"><ele>20.0</ele><time>2026-04-26T16:28:34Z</time></trkpt><trkpt lat="39.68701733751642" lon="15.818851420531967"><ele>20.0</ele><time>2026-04-26T16:28:35Z</time></trkpt><trkpt lat="39.68691350645941" lon="15.818890162855874"><ele>20.0</ele><time>2026-04-26T16:28:36Z</time></trkpt><trkpt lat="39.68680770323161" lon="15.818931821950411"><ele>20.0</ele><time>2026-04-26T16:28:37Z</time></trkpt><trkpt lat="39.68670268614571" lon="15.818972127024082"><ele>20.0</ele><time>2026-04-26T16:28:38Z</time></trkpt><trkpt lat="39.686595680804" lon="15.819016432051361"><ele>20.0</ele><time>2026-04-26T16:28:39Z</time></trkpt><trkpt lat="39.68648647786304" lon="15.819055057908486"><ele>20.0</ele><time>2026-04-26T16:28:40Z</time></trkpt><trkpt lat="39.68637717760504" lon="15.81909280903848"><ele>20.0</ele><time>2026-04-26T16:28:41Z</time></trkpt><trkpt lat="39.68626357056356" lon="15.819129652828876"><ele>20.0</ele><time>2026-04-26T16:28:42Z</time></trkpt><trkpt lat="39.68614327005889" lon="15.819167768666011"><ele>20.0</ele><time>2026-04-26T16:28:43Z</time></trkpt><trkpt lat="39.68602024956617" lon="15.819212335344718"><ele>20.0</ele><time>2026-04-26T16:28:44Z</time></trkpt><trkpt lat="39.68589500876277" lon="15.819256988355626"><ele>20.0</ele><time>2026-04-26T16:28:45Z</time></trkpt><trkpt lat="39.68576730483695" lon="15.819301458181066"><ele>20.0</ele><time>2026-04-26T16:28:46Z</time></trkpt><trkpt lat="39.685635004620416" lon="15.819342846776934"><ele>20.75</ele><time>2026-04-26T16:28:47Z</time></trkpt><trkpt lat="39.685502963270764" lon="15.81939151379176"><ele>21.5</ele><time>2026-04-26T16:28:48Z</time></trkpt><trkpt lat="39.68536811425298" lon="15.81943895841949"><ele>22.25</ele><time>2026-04-26T16:28:49Z</time></trkpt><trkpt lat="39.68523004516523" lon="15.81948005485799"><ele>23.0</ele><time>2026-04-26T16:28:50Z</time></trkpt><trkpt lat="39.6850927216105" lon="15.819518489657348"><ele>23.0</ele><time>2026-04-26T16:28:50.999Z</time></trkpt><trkpt lat="39.68495750721635" lon="15.819561971573501"><ele>23.0</ele><time>2026-04-26T16:28:51.999Z</time></trkpt><trkpt lat="39.6848274653897" lon="15.819607531972267"><ele>23.0</ele><time>2026-04-26T16:28:52.999Z</time></trkpt><trkpt lat="39.68470387154125" lon="15.819651730144123"><ele>23.0</ele><time>2026-04-26T16:28:53.999Z</time></trkpt><trkpt lat="39.68457880436532" lon="15.819692903235895"><ele>23.0</ele><time>2026-04-26T16:28:54.999Z</time></trkpt><trkpt lat="39.68445808060946" lon="15.819729252957414"><ele>23.0</ele><time>2026-04-26T16:28:55.999Z</time></trkpt><trkpt lat="39.684339429722606" lon="15.81976473439473"><ele>23.0</ele><time>2026-04-26T16:28:56.999Z</time></trkpt><trkpt lat="39.684219939239135" lon="15.819804650491951"><ele>23.0</ele><time>2026-04-26T16:28:57.999Z</time></trkpt><trkpt lat="39.684098903109" lon="15.819845957208656"><ele>22.25</ele><time>2026-04-26T16:28:58.999Z</time></trkpt><trkpt lat="39.68397434853993" lon="15.819884763323628"><ele>21.5</ele><time>2026-04-26T16:28:59.999Z</time></trkpt><trkpt lat="39.683849683843455" lon="15.819923420142437"><ele>20.75</ele><time>2026-04-26T16:29:00.999Z</time></trkpt><trkpt lat="39.68372589141152" lon="15.819969846329252"><ele>20.0</ele><time>2026-04-26T16:29:01.999Z</time></trkpt><trkpt lat="39.683600185905775" lon="15.820013177096232"><ele>19.75</ele><time>2026-04-26T16:29:02.999Z</time></trkpt><trkpt lat="39.68347089131849" lon="15.820052775110664"><ele>19.5</ele><time>2026-04-26T16:29:03.999Z</time></trkpt><trkpt lat="39.6833454916514" lon="15.820094836229817"><ele>19.25</ele><time>2026-04-26T16:29:04.999Z</time></trkpt><trkpt lat="39.683222097292266" lon="15.820139177140195"><ele>19.0</ele><time>2026-04-26T16:29:05.999Z</time></trkpt><trkpt lat="39.68310164616912" lon="15.820178270158204"><ele>21.5</ele><time>2026-04-26T16:29:06.999Z</time></trkpt><trkpt lat="39.682983449442474" lon="15.820216804353247"><ele>24.0</ele><time>2026-04-26T16:29:07.999Z</time></trkpt><trkpt lat="39.682864362939064" lon="15.8202542232662"><ele>26.5</ele><time>2026-04-26T16:29:08.999Z</time></trkpt><trkpt lat="39.68274481468935" lon="15.820287018233387"><ele>29.0</ele><time>2026-04-26T16:29:09.999Z</time></trkpt><trkpt lat="39.68262627006081" lon="15.820323953267955"><ele>29.0</ele><time>2026-04-26T16:29:10.999Z</time></trkpt><trkpt lat="39.68250880438143" lon="15.820362618818965"><ele>29.0</ele><time>2026-04-26T16:29:11.999Z</time></trkpt><trkpt lat="39.682394125998094" lon="15.820403774962706"><ele>29.0</ele><time>2026-04-26T16:29:12.999Z</time></trkpt><trkpt lat="39.68228120241928" lon="15.820442850799331"><ele>29.0</ele><time>2026-04-26T16:29:13.999Z</time></trkpt><trkpt lat="39.682167271383015" lon="15.820477724122606"><ele>29.0</ele><time>2026-04-26T16:29:14.999Z</time></trkpt><trkpt lat="39.682052205196946" lon="15.820512378234461"><ele>29.0</ele><time>2026-04-26T16:29:15.999Z</time></trkpt><trkpt lat="39.68193716013215" lon="15.820547581013871"><ele>29.0</ele><time>2026-04-26T16:29:16.999Z</time></trkpt><trkpt lat="39.681820681089185" lon="15.82058609033586"><ele>29.0</ele><time>2026-04-26T16:29:17.999Z</time></trkpt><trkpt lat="39.68170246882003" lon="15.820628611808544"><ele>29.75</ele><time>2026-04-26T16:29:18.999Z</time></trkpt><trkpt lat="39.68158157537913" lon="15.820666054034907"><ele>30.5</ele><time>2026-04-26T16:29:20Z</time></trkpt><trkpt lat="39.68145934765822" lon="15.82070919235267"><ele>31.25</ele><time>2026-04-26T16:29:21Z</time></trkpt><trkpt lat="39.68133773104047" lon="15.820755137522417"><ele>32.0</ele><time>2026-04-26T16:29:22Z</time></trkpt><trkpt lat="39.68121710748055" lon="15.820808800676595"><ele>31.75</ele><time>2026-04-26T16:29:23Z</time></trkpt><trkpt lat="39.681096719708776" lon="15.820868528888042"><ele>31.5</ele><time>2026-04-26T16:29:24Z</time></trkpt><trkpt lat="39.680975693569025" lon="15.820930313544922"><ele>31.25</ele><time>2026-04-26T16:29:25Z</time></trkpt><trkpt lat="39.68085497398673" lon="15.820996362865138"><ele>31.0</ele><time>2026-04-26T16:29:26Z</time></trkpt><trkpt lat="39.68073717349758" lon="15.82107242041667"><ele>34.0</ele><time>2026-04-26T16:29:27Z</time></trkpt><trkpt lat="39.680623790852735" lon="15.821156877525722"><ele>37.0</ele><time>2026-04-26T16:29:28Z</time></trkpt><trkpt lat="39.68050987232456" lon="15.821248784213891"><ele>40.0</ele><time>2026-04-26T16:29:29Z</time></trkpt><trkpt lat="39.68039393243345" lon="15.821339448853903"><ele>43.0</ele><time>2026-04-26T16:29:30Z</time></trkpt><trkpt lat="39.680278424231304" lon="15.821434776525518"><ele>38.0</ele><time>2026-04-26T16:29:31Z</time></trkpt><trkpt lat="39.680168634137225" lon="15.821541690329115"><ele>33.0</ele><time>2026-04-26T16:29:32Z</time></trkpt><trkpt lat="39.680055679096974" lon="15.821651116277994"><ele>28.0</ele><time>2026-04-26T16:29:33Z</time></trkpt><trkpt lat="39.67994421395911" lon="15.821757710975792"><ele>23.0</ele><time>2026-04-26T16:29:34Z</time></trkpt><trkpt lat="39.679835825962165" lon="15.821854728009303"><ele>23.0</ele><time>2026-04-26T16:29:35Z</time></trkpt><trkpt lat="39.67973095696702" lon="15.821952897626158"><ele>23.0</ele><time>2026-04-26T16:29:36Z</time></trkpt><trkpt lat="39.67962584657022" lon="15.82205066051039"><ele>23.0</ele><time>2026-04-26T16:29:37Z</time></trkpt><trkpt lat="39.6795214552656" lon="15.822149615089328"><ele>23.0</ele><time>2026-04-26T16:29:38Z</time></trkpt><trkpt lat="39.67941802445529" lon="15.822250532766343"><ele>22.5</ele><time>2026-04-26T16:29:39Z</time></trkpt><trkpt lat="39.679310154010565" lon="15.82234854368269"><ele>22.0</ele><time>2026-04-26T16:29:40Z</time></trkpt><trkpt lat="39.679206568636964" lon="15.82244576702652"><ele>21.5</ele><time>2026-04-26T16:29:41Z</time></trkpt><trkpt lat="39.67910515146462" lon="15.822540963263437"><ele>21.0</ele><time>2026-04-26T16:29:42Z</time></trkpt><trkpt lat="39.67900737904425" lon="15.822630712938066"><ele>21.4</ele><time>2026-04-26T16:29:43Z</time></trkpt><trkpt lat="39.67891535957982" lon="15.822715777434817"><ele>21.8</ele><time>2026-04-26T16:29:44Z</time></trkpt><trkpt lat="39.67883032106929" lon="15.822797749311679"><ele>22.2</ele><time>2026-04-26T16:29:45Z</time></trkpt><trkpt lat="39.67874871149083" lon="15.82287612202502"><ele>22.599999999999998</ele><time>2026-04-26T16:29:46Z</time></trkpt><trkpt lat="39.67866822559671" lon="15.822950083608402"><ele>23.0</ele><time>2026-04-26T16:29:47Z</time></trkpt><trkpt lat="39.67859318355569" lon="15.82301976579069"><ele>23.599999999999998</ele><time>2026-04-26T16:29:48Z</time></trkpt><trkpt lat="39.678521231667325" lon="15.823088880597195"><ele>24.2</ele><time>2026-04-26T16:29:49Z</time></trkpt><trkpt lat="39.678444022900564" lon="15.823160980042045"><ele>24.8</ele><time>2026-04-26T16:29:50Z</time></trkpt><trkpt lat="39.67835638493112" lon="15.823238274439326"><ele>25.4</ele><time>2026-04-26T16:29:51Z</time></trkpt><trkpt lat="39.678265792794086" lon="15.823318717677147"><ele>26.0</ele><time>2026-04-26T16:29:52Z</time></trkpt><trkpt lat="39.678173431440136" lon="15.823404920898646"><ele>27.5</ele><time>2026-04-26T16:29:53Z</time></trkpt><trkpt lat="39.678082390660244" lon="15.823501417426057"><ele>29.0</ele><time>2026-04-26T16:29:54Z</time></trkpt><trkpt lat="39.67799652704715" lon="15.823603375085625"><ele>30.5</ele><time>2026-04-26T16:29:55Z</time></trkpt><trkpt lat="39.67790237901261" lon="15.823717118471468"><ele>32.0</ele><time>2026-04-26T16:29:56Z</time></trkpt><trkpt lat="39.677802643243744" lon="15.823840305797672"><ele>30.0</ele><time>2026-04-26T16:29:57Z</time></trkpt><trkpt lat="39.677695298234816" lon="15.82398272005051"><ele>28.0</ele><time>2026-04-26T16:29:58Z</time></trkpt><trkpt lat="39.67758400565297" lon="15.824138251793226"><ele>26.0</ele><time>2026-04-26T16:29:59Z</time></trkpt><trkpt lat="39.67746987809048" lon="15.824301958713088"><ele>26.333333333333332</ele><time>2026-04-26T16:30:00Z</time></trkpt><trkpt lat="39.67735372442128" lon="15.82446568371673"><ele>26.666666666666664</ele><time>2026-04-26T16:30:01Z</time></trkpt><trkpt lat="39.67723413165097" lon="15.824629479801649"><ele>27.0</ele><time>2026-04-26T16:30:02Z</time></trkpt><trkpt lat="39.67711725613405" lon="15.824795918101703"><ele>27.0</ele><time>2026-04-26T16:30:03Z</time></trkpt><trkpt lat="39.67700234878615" lon="15.82496353079825"><ele>27.0</ele><time>2026-04-26T16:30:04Z</time></trkpt><trkpt lat="39.67688936561901" lon="15.825130092731706"><ele>27.0</ele><time>2026-04-26T16:30:05Z</time></trkpt><trkpt lat="39.6767777446166" lon="15.825294254065883"><ele>26.0</ele><time>2026-04-26T16:30:06Z</time></trkpt><trkpt lat="39.67666669833672" lon="15.825453466829973"><ele>25.0</ele><time>2026-04-26T16:30:07Z</time></trkpt><trkpt lat="39.676555965968014" lon="15.825610679118437"><ele>24.0</ele><time>2026-04-26T16:30:08Z</time></trkpt><trkpt lat="39.67645031464304" lon="15.825769617872158"><ele>24.0</ele><time>2026-04-26T16:30:09Z</time></trkpt><trkpt lat="39.67633989105006" lon="15.825930352725281"><ele>24.0</ele><time>2026-04-26T16:30:10Z</time></trkpt><trkpt lat="39.67622408306176" lon="15.826091323196373"><ele>24.0</ele><time>2026-04-26T16:30:11Z</time></trkpt><trkpt lat="39.6761080452302" lon="15.826257971708738"><ele>23.666666666666668</ele><time>2026-04-26T16:30:12Z</time></trkpt><trkpt lat="39.675989378088936" lon="15.826427365288605"><ele>23.333333333333336</ele><time>2026-04-26T16:30:13Z</time></trkpt><trkpt lat="39.67586941851035" lon="15.826597869956371"><ele>23.0</ele><time>2026-04-26T16:30:14Z</time></trkpt><trkpt lat="39.67575019610573" lon="15.826770285515703"><ele>26.666666666666668</ele><time>2026-04-26T16:30:15Z</time></trkpt><trkpt lat="39.6756358013156" lon="15.82693241520916"><ele>30.333333333333336</ele><time>2026-04-26T16:30:16Z</time></trkpt><trkpt lat="39.67553050762735" lon="15.82708665010758"><ele>34.0</ele><time>2026-04-26T16:30:17Z</time></trkpt><trkpt lat="39.67542766994348" lon="15.82723676150398"><ele>34.0</ele><time>2026-04-26T16:30:18Z</time></trkpt><trkpt lat="39.67532659985189" lon="15.827377372892364"><ele>34.0</ele><time>2026-04-26T16:30:19Z</time></trkpt><trkpt lat="39.675230484134744" lon="15.827514685392861"><ele>34.0</ele><time>2026-04-26T16:30:20Z</time></trkpt><trkpt lat="39.67513791698621" lon="15.827645506780604"><ele>34.0</ele><time>2026-04-26T16:30:21Z</time></trkpt><trkpt lat="39.67504631606387" lon="15.82777687631522"><ele>34.0</ele><time>2026-04-26T16:30:22Z</time></trkpt><trkpt lat="39.67495360456959" lon="15.827910965839038"><ele>34.0</ele><time>2026-04-26T16:30:23Z</time></trkpt><trkpt lat="39.67485889013348" lon="15.82804362697459"><ele>34.0</ele><time>2026-04-26T16:30:24Z</time></trkpt><trkpt lat="39.67476461994071" lon="15.828181736811597"><ele>34.0</ele><time>2026-04-26T16:30:25Z</time></trkpt><trkpt lat="39.67466795794267" lon="15.828320678996722"><ele>34.0</ele><time>2026-04-26T16:30:26Z</time></trkpt><trkpt lat="39.674569483364266" lon="15.828461171426548"><ele>34.0</ele><time>2026-04-26T16:30:27Z</time></trkpt><trkpt lat="39.67446230140071" lon="15.828602547658793"><ele>34.0</ele><time>2026-04-26T16:30:28Z</time></trkpt><trkpt lat="39.67434589937997" lon="15.828739603933263"><ele>33.66666666666667</ele><time>2026-04-26T16:30:29Z</time></trkpt><trkpt lat="39.67421786649986" lon="15.828871866062794"><ele>33.333333333333336</ele><time>2026-04-26T16:30:30Z</time></trkpt><trkpt lat="39.674074468133426" lon="15.829002571424489"><ele>33.0</ele><time>2026-04-26T16:30:31Z</time></trkpt><trkpt lat="39.673919475875515" lon="15.829126830322547"><ele>33.0</ele><time>2026-04-26T16:30:32Z</time></trkpt><trkpt lat="39.67375227602071" lon="15.829238623422441"><ele>33.0</ele><time>2026-04-26T16:30:33Z</time></trkpt><trkpt lat="39.67357250995379" lon="15.829332281672743"><ele>33.0</ele><time>2026-04-26T16:30:34Z</time></trkpt><trkpt lat="39.673384568947775" lon="15.829419694758263"><ele>34.333333333333336</ele><time>2026-04-26T16:30:35Z</time></trkpt><trkpt lat="39.67319201955117" lon="15.829493088979415"><ele>35.66666666666667</ele><time>2026-04-26T16:30:36Z</time></trkpt><trkpt lat="39.67299889667792" lon="15.829558987318354"><ele>37.0</ele><time>2026-04-26T16:30:37Z</time></trkpt><trkpt lat="39.67281079865134" lon="15.82962964950909"><ele>38.0</ele><time>2026-04-26T16:30:38Z</time></trkpt><trkpt lat="39.67262408691686" lon="15.829697594500102"><ele>39.0</ele><time>2026-04-26T16:30:39Z</time></trkpt><trkpt lat="39.672442644413564" lon="15.829769782856639"><ele>40.0</ele><time>2026-04-26T16:30:40Z</time></trkpt><trkpt lat="39.672263430253416" lon="15.829846044179721"><ele>40.0</ele><time>2026-04-26T16:30:41Z</time></trkpt><trkpt lat="39.67208812991097" lon="15.829935196615242"><ele>40.0</ele><time>2026-04-26T16:30:42Z</time></trkpt><trkpt lat="39.67192216152014" lon="15.830037556851165"><ele>40.0</ele><time>2026-04-26T16:30:43Z</time></trkpt><trkpt lat="39.671760844889825" lon="15.830154292836779"><ele>40.0</ele><time>2026-04-26T16:30:44Z</time></trkpt><trkpt lat="39.67160240717986" lon="15.830282488064809"><ele>40.0</ele><time>2026-04-26T16:30:45Z</time></trkpt><trkpt lat="39.67144732036934" lon="15.830428128010654"><ele>40.0</ele><time>2026-04-26T16:30:46Z</time></trkpt><trkpt lat="39.6712935029212" lon="15.830572951544532"><ele>40.0</ele><time>2026-04-26T16:30:47Z</time></trkpt><trkpt lat="39.67114138341014" lon="15.830720965136944"><ele>40.0</ele><time>2026-04-26T16:30:48Z</time></trkpt><trkpt lat="39.6709941850459" lon="15.83085920862639"><ele>40.0</ele><time>2026-04-26T16:30:49Z</time></trkpt><trkpt lat="39.67085008015999" lon="15.830993495555592"><ele>38.0</ele><time>2026-04-26T16:30:50Z</time></trkpt><trkpt lat="39.67070984012088" lon="15.83112381455217"><ele>36.0</ele><time>2026-04-26T16:30:51Z</time></trkpt><trkpt lat="39.67057227349301" lon="15.831252325423419"><ele>34.0</ele><time>2026-04-26T16:30:52Z</time></trkpt><trkpt lat="39.6704346922503" lon="15.831378960146898"><ele>34.0</ele><time>2026-04-26T16:30:53Z</time></trkpt><trkpt lat="39.670295941932395" lon="15.831504755514269"><ele>34.0</ele><time>2026-04-26T16:30:54Z</time></trkpt><trkpt lat="39.670161457790904" lon="15.831632847296982"><ele>34.0</ele><time>2026-04-26T16:30:54.999Z</time></trkpt><trkpt lat="39.6700256787756" lon="15.831764698495107"><ele>34.0</ele><time>2026-04-26T16:30:55.999Z</time></trkpt><trkpt lat="39.66988931546539" lon="15.83189119889475"><ele>34.0</ele><time>2026-04-26T16:30:56.999Z</time></trkpt><trkpt lat="39.66975193668789" lon="15.8320202411745"><ele>34.0</ele><time>2026-04-26T16:30:57.999Z</time></trkpt><trkpt lat="39.669615833781265" lon="15.83215030337777"><ele>34.0</ele><time>2026-04-26T16:30:58.999Z</time></trkpt><trkpt lat="39.66947767771325" lon="15.832276691550536"><ele>34.0</ele><time>2026-04-26T16:30:59.999Z</time></trkpt><trkpt lat="39.66934227133065" lon="15.832402580049187"><ele>34.0</ele><time>2026-04-26T16:31:00.999Z</time></trkpt><trkpt lat="39.669199973940664" lon="15.832526304233193"><ele>36.0</ele><time>2026-04-26T16:31:01.999Z</time></trkpt><trkpt lat="39.6690485368378" lon="15.832633680088264"><ele>38.0</ele><time>2026-04-26T16:31:02.999Z</time></trkpt><trkpt lat="39.66889056914673" lon="15.832731577626243"><ele>40.0</ele><time>2026-04-26T16:31:03.999Z</time></trkpt><trkpt lat="39.66872700188155" lon="15.832821405328442"><ele>36.0</ele><time>2026-04-26T16:31:04.999Z</time></trkpt><trkpt lat="39.66855669774595" lon="15.832896146304575"><ele>32.0</ele><time>2026-04-26T16:31:05.999Z</time></trkpt><trkpt lat="39.6683832689523" lon="15.832956870504013"><ele>28.0</ele><time>2026-04-26T16:31:06.999Z</time></trkpt><trkpt lat="39.66821142905168" lon="15.83301154352191"><ele>28.0</ele><time>2026-04-26T16:31:07.999Z</time></trkpt><trkpt lat="39.66803773625191" lon="15.833057079518008"><ele>28.0</ele><time>2026-04-26T16:31:08.999Z</time></trkpt><trkpt lat="39.667865784225135" lon="15.833102602778684"><ele>28.0</ele><time>2026-04-26T16:31:09.999Z</time></trkpt><trkpt lat="39.66769486705072" lon="15.83315571812357"><ele>28.333333333333336</ele><time>2026-04-26T16:31:10.999Z</time></trkpt><trkpt lat="39.667525422790575" lon="15.833208148105323"><ele>28.666666666666664</ele><time>2026-04-26T16:31:11.999Z</time></trkpt><trkpt lat="39.6673579783817" lon="15.833258913013651"><ele>29.0</ele><time>2026-04-26T16:31:12.999Z</time></trkpt><trkpt lat="39.66719307579765" lon="15.833310266071386"><ele>29.0</ele><time>2026-04-26T16:31:13.999Z</time></trkpt><trkpt lat="39.667031358985874" lon="15.833361565204969"><ele>29.0</ele><time>2026-04-26T16:31:14.999Z</time></trkpt><trkpt lat="39.66687146576256" lon="15.833410289590203"><ele>29.0</ele><time>2026-04-26T16:31:15.999Z</time></trkpt><trkpt lat="39.66671728836955" lon="15.833453047794217"><ele>35.0</ele><time>2026-04-26T16:31:16.999Z</time></trkpt><trkpt lat="39.66657072852336" lon="15.833507307680414"><ele>41.0</ele><time>2026-04-26T16:31:17.999Z</time></trkpt><trkpt lat="39.66642618548435" lon="15.833552710226709"><ele>47.0</ele><time>2026-04-26T16:31:18.999Z</time></trkpt><trkpt lat="39.66628506744306" lon="15.833597973885475"><ele>53.0</ele><time>2026-04-26T16:31:19.999Z</time></trkpt><trkpt lat="39.6661495905092" lon="15.833648972002678"><ele>47.25</ele><time>2026-04-26T16:31:20.999Z</time></trkpt><trkpt lat="39.66602165495641" lon="15.833712515377131"><ele>41.5</ele><time>2026-04-26T16:31:21.999Z</time></trkpt><trkpt lat="39.66589746798762" lon="15.833784660881285"><ele>35.75</ele><time>2026-04-26T16:31:22.999Z</time></trkpt><trkpt lat="39.66577770979877" lon="15.833855918946936"><ele>30.0</ele><time>2026-04-26T16:31:23.999Z</time></trkpt><trkpt lat="39.66565867713961" lon="15.833929692806356"><ele>30.0</ele><time>2026-04-26T16:31:24.999Z</time></trkpt><trkpt lat="39.66554320164146" lon="15.834016440255745"><ele>30.0</ele><time>2026-04-26T16:31:26Z</time></trkpt><trkpt lat="39.66542955097984" lon="15.83410341247643"><ele>30.0</ele><time>2026-04-26T16:31:27Z</time></trkpt><trkpt lat="39.665318010156305" lon="15.834189909317509"><ele>30.0</ele><time>2026-04-26T16:31:28Z</time></trkpt><trkpt lat="39.66520478079362" lon="15.834280764380283"><ele>26.5</ele><time>2026-04-26T16:31:29Z</time></trkpt><trkpt lat="39.66509264201897" lon="15.834370346799675"><ele>23.0</ele><time>2026-04-26T16:31:30Z</time></trkpt><trkpt lat="39.66498036995518" lon="15.834460737667246"><ele>19.5</ele><time>2026-04-26T16:31:31Z</time></trkpt><trkpt lat="39.66486716678453" lon="15.834545525672707"><ele>16.0</ele><time>2026-04-26T16:31:32Z</time></trkpt><trkpt lat="39.66475530427468" lon="15.834633374010933"><ele>16.0</ele><time>2026-04-26T16:31:33Z</time></trkpt><trkpt lat="39.66464608081987" lon="15.834724689673097"><ele>16.0</ele><time>2026-04-26T16:31:34Z</time></trkpt><trkpt lat="39.66453468551577" lon="15.834816784681262"><ele>16.0</ele><time>2026-04-26T16:31:35Z</time></trkpt><trkpt lat="39.66442131069426" lon="15.834906893855516"><ele>16.0</ele><time>2026-04-26T16:31:36Z</time></trkpt><trkpt lat="39.66430794324783" lon="15.834997880120829"><ele>16.0</ele><time>2026-04-26T16:31:37Z</time></trkpt><trkpt lat="39.66419322025294" lon="15.835088857496224"><ele>16.0</ele><time>2026-04-26T16:31:38Z</time></trkpt><trkpt lat="39.66408141560257" lon="15.835180781911587"><ele>16.0</ele><time>2026-04-26T16:31:39Z</time></trkpt><trkpt lat="39.66396371779642" lon="15.835278816371611"><ele>16.0</ele><time>2026-04-26T16:31:40Z</time></trkpt><trkpt lat="39.66384258314337" lon="15.835372436106963"><ele>16.25</ele><time>2026-04-26T16:31:41Z</time></trkpt><trkpt lat="39.663722065012344" lon="15.835466373919964"><ele>16.5</ele><time>2026-04-26T16:31:42Z</time></trkpt><trkpt lat="39.66360221737108" lon="15.835566822329541"><ele>16.75</ele><time>2026-04-26T16:31:43Z</time></trkpt><trkpt lat="39.663482115926435" lon="15.835657758078481"><ele>17.0</ele><time>2026-04-26T16:31:44Z</time></trkpt><trkpt lat="39.66336323567859" lon="15.835742005115378"><ele>17.0</ele><time>2026-04-26T16:31:45Z</time></trkpt><trkpt lat="39.66324047457339" lon="15.835818128235882"><ele>17.0</ele><time>2026-04-26T16:31:46Z</time></trkpt><trkpt lat="39.66311149651564" lon="15.83588703282412"><ele>17.0</ele><time>2026-04-26T16:31:47Z</time></trkpt><trkpt lat="39.6629761562977" lon="15.83595080926241"><ele>17.0</ele><time>2026-04-26T16:31:48Z</time></trkpt><trkpt lat="39.6628364694089" lon="15.836004859883513"><ele>18.0</ele><time>2026-04-26T16:31:49Z</time></trkpt><trkpt lat="39.66268983433054" lon="15.836047023659077"><ele>19.0</ele><time>2026-04-26T16:31:50Z</time></trkpt><trkpt lat="39.662540663998506" lon="15.836077106579625"><ele>20.0</ele><time>2026-04-26T16:31:51Z</time></trkpt><trkpt lat="39.6623871704168" lon="15.83609820688224"><ele>20.0</ele><time>2026-04-26T16:31:52Z</time></trkpt><trkpt lat="39.66223071756307" lon="15.836107661524597"><ele>20.0</ele><time>2026-04-26T16:31:53Z</time></trkpt><trkpt lat="39.662071023428155" lon="15.836106925025177"><ele>20.0</ele><time>2026-04-26T16:31:54Z</time></trkpt><trkpt lat="39.661909692964585" lon="15.836104413051423"><ele>22.333333333333336</ele><time>2026-04-26T16:31:55Z</time></trkpt><trkpt lat="39.66174049905231" lon="15.836101014363006"><ele>24.666666666666668</ele><time>2026-04-26T16:31:56Z</time></trkpt><trkpt lat="39.66156824297904" lon="15.836097717584696"><ele>27.0</ele><time>2026-04-26T16:31:57Z</time></trkpt><trkpt lat="39.66139366838369" lon="15.836091900774816"><ele>27.0</ele><time>2026-04-26T16:31:58Z</time></trkpt><trkpt lat="39.66121710698628" lon="15.836088917053917"><ele>27.0</ele><time>2026-04-26T16:31:59Z</time></trkpt><trkpt lat="39.66103878504499" lon="15.836081097902127"><ele>27.0</ele><time>2026-04-26T16:32:00Z</time></trkpt><trkpt lat="39.660857031553896" lon="15.836074164649025"><ele>25.0</ele><time>2026-04-26T16:32:01Z</time></trkpt><trkpt lat="39.66067555639871" lon="15.836065231861358"><ele>23.0</ele><time>2026-04-26T16:32:02Z</time></trkpt><trkpt lat="39.66049278366257" lon="15.836057628387323"><ele>21.0</ele><time>2026-04-26T16:32:03Z</time></trkpt><trkpt lat="39.66030890005086" lon="15.836049208447038"><ele>19.0</ele><time>2026-04-26T16:32:04Z</time></trkpt><trkpt lat="39.66012380699876" lon="15.836041170838731"><ele>17.0</ele><time>2026-04-26T16:32:05Z</time></trkpt><trkpt lat="39.65993748029219" lon="15.836030614129221"><ele>15.0</ele><time>2026-04-26T16:32:06Z</time></trkpt><trkpt lat="39.65975144606032" lon="15.836022589549524"><ele>15.0</ele><time>2026-04-26T16:32:07Z</time></trkpt><trkpt lat="39.659562188054885" lon="15.836020991714243"><ele>15.0</ele><time>2026-04-26T16:32:08Z</time></trkpt><trkpt lat="39.65937186183047" lon="15.836015072224729"><ele>15.0</ele><time>2026-04-26T16:32:09Z</time></trkpt><trkpt lat="39.659180942986055" lon="15.836001969018522"><ele>15.666666666666668</ele><time>2026-04-26T16:32:10Z</time></trkpt><trkpt lat="39.658987789611984" lon="15.835994658251337"><ele>16.333333333333336</ele><time>2026-04-26T16:32:11Z</time></trkpt><trkpt lat="39.65878988733695" lon="15.835986305402507"><ele>17.0</ele><time>2026-04-26T16:32:12Z</time></trkpt><trkpt lat="39.65858585783667" lon="15.83597846381549"><ele>15.333333333333334</ele><time>2026-04-26T16:32:13Z</time></trkpt><trkpt lat="39.65837878927141" lon="15.835967368327124"><ele>13.666666666666668</ele><time>2026-04-26T16:32:14Z</time></trkpt><trkpt lat="39.658169506637535" lon="15.835959317776501"><ele>12.0</ele><time>2026-04-26T16:32:15Z</time></trkpt><trkpt lat="39.6579585078965" lon="15.835954417853463"><ele>12.333333333333332</ele><time>2026-04-26T16:32:16Z</time></trkpt><trkpt lat="39.65774807217768" lon="15.835950662244914"><ele>12.666666666666666</ele><time>2026-04-26T16:32:17Z</time></trkpt><trkpt lat="39.65753455421555" lon="15.835946174475929"><ele>13.0</ele><time>2026-04-26T16:32:18Z</time></trkpt><trkpt lat="39.6573202381465" lon="15.835941909196581"><ele>13.0</ele><time>2026-04-26T16:32:19Z</time></trkpt><trkpt lat="39.65710482466564" lon="15.835947465679395"><ele>13.0</ele><time>2026-04-26T16:32:20Z</time></trkpt><trkpt lat="39.656916056729166" lon="15.835956742032458"><ele>13.0</ele><time>2026-04-26T16:32:21Z</time></trkpt><trkpt lat="39.656679038037716" lon="15.836009277741024"><ele>15.666666666666666</ele><time>2026-04-26T16:32:22Z</time></trkpt><trkpt lat="39.65647065558023" lon="15.83608535133118"><ele>18.333333333333332</ele><time>2026-04-26T16:32:23Z</time></trkpt><trkpt lat="39.6562652466795" lon="15.83616378408668"><ele>21.0</ele><time>2026-04-26T16:32:24Z</time></trkpt><trkpt lat="39.65606110733319" lon="15.836245485845259"><ele>21.0</ele><time>2026-04-26T16:32:25Z</time></trkpt><trkpt lat="39.655856170237115" lon="15.836341201178026"><ele>21.0</ele><time>2026-04-26T16:32:26Z</time></trkpt><trkpt lat="39.655658311398774" lon="15.836439784705437"><ele>21.0</ele><time>2026-04-26T16:32:27Z</time></trkpt><trkpt lat="39.655463694893015" lon="15.836545440938327"><ele>22.666666666666664</ele><time>2026-04-26T16:32:28Z</time></trkpt><trkpt lat="39.65527222876318" lon="15.836656811020996"><ele>24.333333333333332</ele><time>2026-04-26T16:32:29Z</time></trkpt><trkpt lat="39.655085585965544" lon="15.836780146324154"><ele>26.0</ele><time>2026-04-26T16:32:30Z</time></trkpt><trkpt lat="39.654904675512114" lon="15.836917680070291"><ele>26.0</ele><time>2026-04-26T16:32:31Z</time></trkpt><trkpt lat="39.65472930614249" lon="15.837070508731033"><ele>26.0</ele><time>2026-04-26T16:32:32Z</time></trkpt><trkpt lat="39.65455912235426" lon="15.83724149347388"><ele>26.0</ele><time>2026-04-26T16:32:33Z</time></trkpt><trkpt lat="39.65438875753721" lon="15.837417157960079"><ele>23.666666666666664</ele><time>2026-04-26T16:32:34Z</time></trkpt><trkpt lat="39.6542135964808" lon="15.837592240966913"><ele>21.333333333333332</ele><time>2026-04-26T16:32:35Z</time></trkpt><trkpt lat="39.654038402202254" lon="15.837766653874262"><ele>19.0</ele><time>2026-04-26T16:32:36Z</time></trkpt><trkpt lat="39.65386854667742" lon="15.837939446605956"><ele>19.0</ele><time>2026-04-26T16:32:37Z</time></trkpt><trkpt lat="39.65370375630355" lon="15.838108586121725"><ele>19.0</ele><time>2026-04-26T16:32:38Z</time></trkpt><trkpt lat="39.653542238062506" lon="15.838272163999422"><ele>19.0</ele><time>2026-04-26T16:32:39Z</time></trkpt><trkpt lat="39.65338358392543" lon="15.838431121010878"><ele>18.0</ele><time>2026-04-26T16:32:40Z</time></trkpt><trkpt lat="39.653225076126326" lon="15.838587858763232"><ele>17.0</ele><time>2026-04-26T16:32:41Z</time></trkpt><trkpt lat="39.65306582570073" lon="15.838742193311251"><ele>16.0</ele><time>2026-04-26T16:32:42Z</time></trkpt><trkpt lat="39.65290533339874" lon="15.838892787115263"><ele>14.0</ele><time>2026-04-26T16:32:43Z</time></trkpt><trkpt lat="39.65274933667927" lon="15.839037809954617"><ele>12.0</ele><time>2026-04-26T16:32:44Z</time></trkpt><trkpt lat="39.65259369106742" lon="15.839174135794693"><ele>10.0</ele><time>2026-04-26T16:32:45Z</time></trkpt><trkpt lat="39.65243727622114" lon="15.839296950781321"><ele>13.333333333333334</ele><time>2026-04-26T16:32:46Z</time></trkpt><trkpt lat="39.65228143605479" lon="15.839406426954588"><ele>16.666666666666668</ele><time>2026-04-26T16:32:47Z</time></trkpt><trkpt lat="39.65212250485516" lon="15.839499765131157"><ele>20.0</ele><time>2026-04-26T16:32:48Z</time></trkpt><trkpt lat="39.65195572352692" lon="15.839578655219228"><ele>20.0</ele><time>2026-04-26T16:32:49Z</time></trkpt><trkpt lat="39.65178637449606" lon="15.839645623845994"><ele>20.0</ele><time>2026-04-26T16:32:50Z</time></trkpt><trkpt lat="39.65161534474662" lon="15.839708805480742"><ele>20.0</ele><time>2026-04-26T16:32:51Z</time></trkpt><trkpt lat="39.651445363474686" lon="15.839768238503288"><ele>20.0</ele><time>2026-04-26T16:32:52Z</time></trkpt><trkpt lat="39.651275989441366" lon="15.839819833524839"><ele>20.0</ele><time>2026-04-26T16:32:53Z</time></trkpt><trkpt lat="39.651106901711664" lon="15.839862263531467"><ele>20.0</ele><time>2026-04-26T16:32:54Z</time></trkpt><trkpt lat="39.65093749921086" lon="15.839895183371953"><ele>18.0</ele><time>2026-04-26T16:32:55Z</time></trkpt><trkpt lat="39.65076774940392" lon="15.83991944334874"><ele>16.0</ele><time>2026-04-26T16:32:56Z</time></trkpt><trkpt lat="39.65060011681798" lon="15.839933026588483"><ele>14.0</ele><time>2026-04-26T16:32:57Z</time></trkpt><trkpt lat="39.65043185273142" lon="15.839936383801133"><ele>14.0</ele><time>2026-04-26T16:32:58Z</time></trkpt><trkpt lat="39.6502589022944" lon="15.83993700557631"><ele>14.0</ele><time>2026-04-26T16:32:59Z</time></trkpt><trkpt lat="39.65008469521507" lon="15.839933647372733"><ele>14.0</ele><time>2026-04-26T16:33:00Z</time></trkpt><trkpt lat="39.649909045515386" lon="15.839930593861054"><ele>14.0</ele><time>2026-04-26T16:33:01Z</time></trkpt><trkpt lat="39.64973204506887" lon="15.839930449561733"><ele>14.0</ele><time>2026-04-26T16:33:01.999Z</time></trkpt><trkpt lat="39.64955407421481" lon="15.839931010887666"><ele>14.0</ele><time>2026-04-26T16:33:02.999Z</time></trkpt><trkpt lat="39.64937985703521" lon="15.839930213095416"><ele>13.333333333333334</ele><time>2026-04-26T16:33:03.999Z</time></trkpt><trkpt lat="39.6492124620511" lon="15.839927618743594"><ele>12.666666666666668</ele><time>2026-04-26T16:33:04.999Z</time></trkpt><trkpt lat="39.64904839927945" lon="15.839923822334088"><ele>12.0</ele><time>2026-04-26T16:33:05.999Z</time></trkpt><trkpt lat="39.648888703590764" lon="15.839921155419942"><ele>12.0</ele><time>2026-04-26T16:33:06.999Z</time></trkpt><trkpt lat="39.64873039841769" lon="15.83992018697045"><ele>12.0</ele><time>2026-04-26T16:33:07.999Z</time></trkpt><trkpt lat="39.64857397254359" lon="15.839916389054691"><ele>12.0</ele><time>2026-04-26T16:33:08.999Z</time></trkpt><trkpt lat="39.64841631957618" lon="15.839910083381435"><ele>12.0</ele><time>2026-04-26T16:33:09.999Z</time></trkpt><trkpt lat="39.648257230491176" lon="15.839906357324018"><ele>12.0</ele><time>2026-04-26T16:33:10.999Z</time></trkpt><trkpt lat="39.6480982705128" lon="15.839902371402971"><ele>12.0</ele><time>2026-04-26T16:33:11.999Z</time></trkpt><trkpt lat="39.64793887652138" lon="15.839898228738608"><ele>11.666666666666666</ele><time>2026-04-26T16:33:12.999Z</time></trkpt><trkpt lat="39.64777949743354" lon="15.839899895424036"><ele>11.333333333333332</ele><time>2026-04-26T16:33:13.999Z</time></trkpt><trkpt lat="39.64762150495205" lon="15.839898933883367"><ele>11.0</ele><time>2026-04-26T16:33:14.999Z</time></trkpt><trkpt lat="39.647462644667606" lon="15.839896940171585"><ele>11.0</ele><time>2026-04-26T16:33:15.999Z</time></trkpt><trkpt lat="39.64730394940894" lon="15.83989407839044"><ele>11.0</ele><time>2026-04-26T16:33:16.999Z</time></trkpt><trkpt lat="39.64714535071663" lon="15.839890130428955"><ele>11.0</ele><time>2026-04-26T16:33:17.999Z</time></trkpt><trkpt lat="39.64698700449788" lon="15.839887331371921"><ele>12.333333333333332</ele><time>2026-04-26T16:33:18.999Z</time></trkpt><trkpt lat="39.6468282095732" lon="15.839887722161933"><ele>13.666666666666666</ele><time>2026-04-26T16:33:19.999Z</time></trkpt><trkpt lat="39.646669639099336" lon="15.839888969465159"><ele>15.0</ele><time>2026-04-26T16:33:20.999Z</time></trkpt><trkpt lat="39.64651267827975" lon="15.839891780594947"><ele>15.0</ele><time>2026-04-26T16:33:21.999Z</time></trkpt><trkpt lat="39.646354559098015" lon="15.83989617294101"><ele>15.0</ele><time>2026-04-26T16:33:22.999Z</time></trkpt><trkpt lat="39.646196566483056" lon="15.839903272376977"><ele>15.0</ele><time>2026-04-26T16:33:23.999Z</time></trkpt><trkpt lat="39.64604034352592" lon="15.839915833409629"><ele>13.666666666666666</ele><time>2026-04-26T16:33:24.999Z</time></trkpt><trkpt lat="39.64588528825129" lon="15.839936096446731"><ele>12.333333333333332</ele><time>2026-04-26T16:33:25.999Z</time></trkpt><trkpt lat="39.645728551624806" lon="15.83995438604174"><ele>11.0</ele><time>2026-04-26T16:33:26.999Z</time></trkpt><trkpt lat="39.645573179244366" lon="15.839973877518773"><ele>11.0</ele><time>2026-04-26T16:33:27.999Z</time></trkpt><trkpt lat="39.64541771184247" lon="15.839988931981807"><ele>11.0</ele><time>2026-04-26T16:33:28.999Z</time></trkpt><trkpt lat="39.64526318556378" lon="15.840004631697287"><ele>11.0</ele><time>2026-04-26T16:33:29.999Z</time></trkpt><trkpt lat="39.645109282017756" lon="15.840024987960275"><ele>11.333333333333332</ele><time>2026-04-26T16:33:30.999Z</time></trkpt><trkpt lat="39.644955245576845" lon="15.840044740315328"><ele>11.666666666666666</ele><time>2026-04-26T16:33:32.001Z</time></trkpt><trkpt lat="39.644803745529664" lon="15.840063765118488"><ele>12.0</ele><time>2026-04-26T16:33:33.001Z</time></trkpt><trkpt lat="39.64465076762945" lon="15.840084072057694"><ele>12.0</ele><time>2026-04-26T16:33:34.001Z</time></trkpt><trkpt lat="39.64450009160484" lon="15.840104996162653"><ele>12.0</ele><time>2026-04-26T16:33:35.001Z</time></trkpt><trkpt lat="39.644350069714875" lon="15.840126400280685"><ele>12.0</ele><time>2026-04-26T16:33:36.001Z</time></trkpt><trkpt lat="39.64420789936574" lon="15.840148610037948"><ele>12.0</ele><time>2026-04-26T16:33:37.001Z</time></trkpt><trkpt lat="39.64409892578189" lon="15.84016357413202"><ele>13.0</ele><time>2026-04-26T16:33:38.001Z</time></trkpt><trkpt lat="39.64401754197741" lon="15.840176642222309"><ele>14.0</ele><time>2026-04-26T16:33:39.001Z</time></trkpt><trkpt lat="39.643951211930386" lon="15.840186422363223"><ele>15.0</ele><time>2026-04-26T16:33:40.001Z</time></trkpt><trkpt lat="39.64384899893656" lon="15.84020996537944"><ele>16.0</ele><time>2026-04-26T16:33:42.001Z</time></trkpt><trkpt lat="39.64375335704552" lon="15.840232545559166"><ele>17.0</ele><time>2026-04-26T16:33:44.001Z</time></trkpt><trkpt lat="39.643650010565885" lon="15.840256667813934"><ele>16.833333333333336</ele><time>2026-04-26T16:33:46.001Z</time></trkpt><trkpt lat="39.64358539612476" lon="15.840264882234838"><ele>16.666666666666668</ele><time>2026-04-26T16:33:47.001Z</time></trkpt><trkpt lat="39.64350651600888" lon="15.840297755390697"><ele>16.5</ele><time>2026-04-26T16:33:48Z</time></trkpt><trkpt lat="39.64342062852946" lon="15.840335577917376"><ele>16.333333333333332</ele><time>2026-04-26T16:33:49Z</time></trkpt><trkpt lat="39.64333642480565" lon="15.840367483084348"><ele>16.166666666666664</ele><time>2026-04-26T16:33:50Z</time></trkpt><trkpt lat="39.643250868405964" lon="15.840399654752858"><ele>16.0</ele><time>2026-04-26T16:33:51Z</time></trkpt><trkpt lat="39.64316248318886" lon="15.840435591861542"><ele>16.0</ele><time>2026-04-26T16:33:52Z</time></trkpt><trkpt lat="39.643070764641294" lon="15.840469583123745"><ele>16.0</ele><time>2026-04-26T16:33:53Z</time></trkpt><trkpt lat="39.642974173905344" lon="15.840510216437892"><ele>16.0</ele><time>2026-04-26T16:33:54Z</time></trkpt><trkpt lat="39.64287131466345" lon="15.840545184286006"><ele>16.0</ele><time>2026-04-26T16:33:55Z</time></trkpt><trkpt lat="39.6427660196781" lon="15.840587371115769"><ele>16.0</ele><time>2026-04-26T16:33:56Z</time></trkpt><trkpt lat="39.64265958493729" lon="15.840631445564963"><ele>15.5</ele><time>2026-04-26T16:33:57Z</time></trkpt><trkpt lat="39.64255296293644" lon="15.840681883406848"><ele>15.0</ele><time>2026-04-26T16:33:58Z</time></trkpt><trkpt lat="39.64244321013579" lon="15.840731543241104"><ele>14.5</ele><time>2026-04-26T16:33:59Z</time></trkpt><trkpt lat="39.642330086451665" lon="15.840787293422354"><ele>14.0</ele><time>2026-04-26T16:34:00Z</time></trkpt><trkpt lat="39.64221325471363" lon="15.84084542132115"><ele>14.0</ele><time>2026-04-26T16:34:01Z</time></trkpt><trkpt lat="39.642091182435216" lon="15.840902992277348"><ele>14.0</ele><time>2026-04-26T16:34:02Z</time></trkpt><trkpt lat="39.64196698800182" lon="15.840957480056266"><ele>14.0</ele><time>2026-04-26T16:34:03Z</time></trkpt><trkpt lat="39.64184246162582" lon="15.841014168417741"><ele>14.0</ele><time>2026-04-26T16:34:04Z</time></trkpt><trkpt lat="39.641715940010805" lon="15.841077013260433"><ele>13.75</ele><time>2026-04-26T16:34:05Z</time></trkpt><trkpt lat="39.6415861144841" lon="15.841137674227387"><ele>13.5</ele><time>2026-04-26T16:34:06Z</time></trkpt><trkpt lat="39.64145333918384" lon="15.84119918649125"><ele>13.25</ele><time>2026-04-26T16:34:07Z</time></trkpt><trkpt lat="39.64131822825323" lon="15.841262403216579"><ele>13.0</ele><time>2026-04-26T16:34:08Z</time></trkpt><trkpt lat="39.64118179577275" lon="15.8413273153806"><ele>12.25</ele><time>2026-04-26T16:34:09Z</time></trkpt><trkpt lat="39.64104389780211" lon="15.841390695910803"><ele>11.5</ele><time>2026-04-26T16:34:10Z</time></trkpt><trkpt lat="39.640905372686284" lon="15.841456181095966"><ele>10.75</ele><time>2026-04-26T16:34:11Z</time></trkpt><trkpt lat="39.64076355230522" lon="15.841523685543667"><ele>10.0</ele><time>2026-04-26T16:34:12Z</time></trkpt><trkpt lat="39.64062411402298" lon="15.84159227440797"><ele>10.0</ele><time>2026-04-26T16:34:13Z</time></trkpt><trkpt lat="39.64048168004044" lon="15.841659344818607"><ele>10.0</ele><time>2026-04-26T16:34:14Z</time></trkpt><trkpt lat="39.640337365282186" lon="15.84172474117729"><ele>10.0</ele><time>2026-04-26T16:34:15Z</time></trkpt><trkpt lat="39.640194089090755" lon="15.841789043265624"><ele>10.5</ele><time>2026-04-26T16:34:16Z</time></trkpt><trkpt lat="39.640052279251215" lon="15.841849598859548"><ele>11.0</ele><time>2026-04-26T16:34:17Z</time></trkpt><trkpt lat="39.6399156261907" lon="15.841912273926052"><ele>11.5</ele><time>2026-04-26T16:34:18Z</time></trkpt><trkpt lat="39.63977546407318" lon="15.841981178471082"><ele>12.0</ele><time>2026-04-26T16:34:19Z</time></trkpt><trkpt lat="39.63963190852579" lon="15.842051640578216"><ele>12.0</ele><time>2026-04-26T16:34:20Z</time></trkpt><trkpt lat="39.639499818724794" lon="15.842115981989174"><ele>12.0</ele><time>2026-04-26T16:34:21Z</time></trkpt><trkpt lat="39.63933775328035" lon="15.842182504396742"><ele>12.0</ele><time>2026-04-26T16:34:22Z</time></trkpt><trkpt lat="39.63918529444637" lon="15.842232614576488"><ele>12.0</ele><time>2026-04-26T16:34:23Z</time></trkpt><trkpt lat="39.639028869699075" lon="15.842289365563053"><ele>12.0</ele><time>2026-04-26T16:34:24Z</time></trkpt><trkpt lat="39.63886992711536" lon="15.842337960351166"><ele>12.0</ele><time>2026-04-26T16:34:25Z</time></trkpt><trkpt lat="39.638710587312545" lon="15.842379371617872"><ele>12.0</ele><time>2026-04-26T16:34:26Z</time></trkpt><trkpt lat="39.638548775833364" lon="15.842417144112497"><ele>12.0</ele><time>2026-04-26T16:34:27Z</time></trkpt><trkpt lat="39.638387338342405" lon="15.842446892566809"><ele>12.0</ele><time>2026-04-26T16:34:28Z</time></trkpt><trkpt lat="39.63822125851268" lon="15.842471839953093"><ele>12.0</ele><time>2026-04-26T16:34:29Z</time></trkpt><trkpt lat="39.638061403088564" lon="15.842490912115633"><ele>12.0</ele><time>2026-04-26T16:34:30Z</time></trkpt><trkpt lat="39.637904662350245" lon="15.84250470185365"><ele>12.0</ele><time>2026-04-26T16:34:31Z</time></trkpt><trkpt lat="39.63774578558526" lon="15.842522532136257"><ele>10.333333333333334</ele><time>2026-04-26T16:34:32Z</time></trkpt><trkpt lat="39.63758778124503" lon="15.842544878120957"><ele>8.666666666666668</ele><time>2026-04-26T16:34:33Z</time></trkpt><trkpt lat="39.63743689447531" lon="15.842560295376272"><ele>7.0</ele><time>2026-04-26T16:34:34Z</time></trkpt><trkpt lat="39.63729259732232" lon="15.842579397117312"><ele>7.0</ele><time>2026-04-26T16:34:35Z</time></trkpt><trkpt lat="39.637151610319876" lon="15.842604899608256"><ele>7.0</ele><time>2026-04-26T16:34:36Z</time></trkpt><trkpt lat="39.637005344250355" lon="15.842636628729709"><ele>7.0</ele><time>2026-04-26T16:34:37Z</time></trkpt><trkpt lat="39.63685886186803" lon="15.842671112517369"><ele>7.0</ele><time>2026-04-26T16:34:38Z</time></trkpt><trkpt lat="39.63671364545031" lon="15.842704298349561"><ele>8.25</ele><time>2026-04-26T16:34:39Z</time></trkpt><trkpt lat="39.63657914516898" lon="15.842740120814154"><ele>9.5</ele><time>2026-04-26T16:34:40Z</time></trkpt><trkpt lat="39.63645093426164" lon="15.842777049271158"><ele>10.75</ele><time>2026-04-26T16:34:41Z</time></trkpt><trkpt lat="39.63632813790587" lon="15.84281021266695"><ele>12.0</ele><time>2026-04-26T16:34:42Z</time></trkpt><trkpt lat="39.6362112458541" lon="15.842836796547143"><ele>11.8</ele><time>2026-04-26T16:34:43Z</time></trkpt><trkpt lat="39.6361044816096" lon="15.842867947985866"><ele>11.6</ele><time>2026-04-26T16:34:44Z</time></trkpt><trkpt lat="39.636001382074355" lon="15.842898691665166"><ele>11.4</ele><time>2026-04-26T16:34:45Z</time></trkpt><trkpt lat="39.635902402303174" lon="15.842927892326578"><ele>11.200000000000001</ele><time>2026-04-26T16:34:46Z</time></trkpt><trkpt lat="39.6358045354259" lon="15.842956840324506"><ele>11.0</ele><time>2026-04-26T16:34:47Z</time></trkpt><trkpt lat="39.63569914089656" lon="15.842986503695458"><ele>11.0</ele><time>2026-04-26T16:34:48Z</time></trkpt><trkpt lat="39.63561200206254" lon="15.843010099167877"><ele>11.0</ele><time>2026-04-26T16:34:49Z</time></trkpt><trkpt lat="39.635540444992564" lon="15.84302914360202"><ele>11.0</ele><time>2026-04-26T16:34:50Z</time></trkpt><trkpt lat="39.63547247625296" lon="15.843044994493674"><ele>11.0</ele><time>2026-04-26T16:34:51Z</time></trkpt><trkpt lat="39.63540824562397" lon="15.843059296402627"><ele>11.0</ele><time>2026-04-26T16:34:52Z</time></trkpt><trkpt lat="39.6353425207105" lon="15.843074051809543"><ele>11.0</ele><time>2026-04-26T16:34:53Z</time></trkpt><trkpt lat="39.63527769517341" lon="15.843089862225858"><ele>11.0</ele><time>2026-04-26T16:34:54Z</time></trkpt><trkpt lat="39.63521248238865" lon="15.843112365066299"><ele>10.666666666666666</ele><time>2026-04-26T16:34:55Z</time></trkpt><trkpt lat="39.635139941385056" lon="15.843140392055528"><ele>10.333333333333332</ele><time>2026-04-26T16:34:56Z</time></trkpt><trkpt lat="39.63506042849759" lon="15.843164727499778"><ele>10.0</ele><time>2026-04-26T16:34:57Z</time></trkpt><trkpt lat="39.634980312615376" lon="15.843188550990055"><ele>9.666666666666666</ele><time>2026-04-26T16:34:58Z</time></trkpt><trkpt lat="39.63488745471561" lon="15.843220963271277"><ele>9.333333333333334</ele><time>2026-04-26T16:35:00Z</time></trkpt><trkpt lat="39.63482422983779" lon="15.843242589577196"><ele>9.0</ele><time>2026-04-26T16:35:03Z</time></trkpt><trkpt lat="39.63474780949646" lon="15.843261625642574"><ele>9.0</ele><time>2026-04-26T16:35:05.999Z</time></trkpt><trkpt lat="39.63462933294233" lon="15.843306705107517"><ele>9.0</ele><time>2026-04-26T16:35:07.999Z</time></trkpt><trkpt lat="39.63455114936568" lon="15.843303102876185"><ele>9.0</ele><time>2026-04-26T16:35:08.999Z</time></trkpt><trkpt lat="39.63445286327843" lon="15.843344500227598"><ele>9.0</ele><time>2026-04-26T16:35:09.999Z</time></trkpt><trkpt lat="39.63434326170908" lon="15.84337244126989"><ele>9.0</ele><time>2026-04-26T16:35:10.999Z</time></trkpt><trkpt lat="39.634223228658726" lon="15.843400813213528"><ele>9.0</ele><time>2026-04-26T16:35:11.999Z</time></trkpt><trkpt lat="39.634107933007854" lon="15.84342549720848"><ele>9.0</ele><time>2026-04-26T16:35:12.999Z</time></trkpt><trkpt lat="39.633994422293846" lon="15.84345302979174"><ele>9.0</ele><time>2026-04-26T16:35:13.999Z</time></trkpt><trkpt lat="39.63387782274358" lon="15.843485567091054"><ele>9.0</ele><time>2026-04-26T16:35:14.999Z</time></trkpt><trkpt lat="39.63375826967383" lon="15.84351882562379"><ele>9.0</ele><time>2026-04-26T16:35:15.999Z</time></trkpt><trkpt lat="39.6336366015253" lon="15.843549705271828"><ele>9.0</ele><time>2026-04-26T16:35:16.999Z</time></trkpt><trkpt lat="39.63351347244582" lon="15.84358195606435"><ele>9.0</ele><time>2026-04-26T16:35:17.999Z</time></trkpt><trkpt lat="39.6333894302032" lon="15.843615750577326"><ele>9.0</ele><time>2026-04-26T16:35:18.999Z</time></trkpt><trkpt lat="39.633264459614075" lon="15.84364900260154"><ele>9.0</ele><time>2026-04-26T16:35:19.999Z</time></trkpt><trkpt lat="39.63314081658489" lon="15.843679902703748"><ele>9.0</ele><time>2026-04-26T16:35:20.999Z</time></trkpt><trkpt lat="39.63301477294689" lon="15.843713962518786"><ele>9.0</ele><time>2026-04-26T16:35:21.999Z</time></trkpt><trkpt lat="39.63288493392204" lon="15.843749630199746"><ele>9.0</ele><time>2026-04-26T16:35:22.999Z</time></trkpt><trkpt lat="39.632750789157264" lon="15.843788119376397"><ele>9.0</ele><time>2026-04-26T16:35:23.999Z</time></trkpt><trkpt lat="39.63261459608129" lon="15.843830806581337"><ele>9.0</ele><time>2026-04-26T16:35:24.999Z</time></trkpt><trkpt lat="39.63247805635165" lon="15.843877356071783"><ele>9.0</ele><time>2026-04-26T16:35:25.999Z</time></trkpt><trkpt lat="39.63233707060998" lon="15.843931424183639"><ele>9.0</ele><time>2026-04-26T16:35:26.999Z</time></trkpt><trkpt lat="39.632197693147674" lon="15.843993478606848"><ele>9.0</ele><time>2026-04-26T16:35:27.999Z</time></trkpt><trkpt lat="39.632050072439135" lon="15.844065569983407"><ele>9.0</ele><time>2026-04-26T16:35:28.999Z</time></trkpt><trkpt lat="39.63189340309118" lon="15.844139807552759"><ele>9.0</ele><time>2026-04-26T16:35:29.999Z</time></trkpt><trkpt lat="39.63173134048251" lon="15.844214633293236"><ele>9.333333333333334</ele><time>2026-04-26T16:35:30.999Z</time></trkpt><trkpt lat="39.63156749381354" lon="15.844294284861567"><ele>9.666666666666668</ele><time>2026-04-26T16:35:31.999Z</time></trkpt><trkpt lat="39.63140156200788" lon="15.844378929164177"><ele>10.0</ele><time>2026-04-26T16:35:32.999Z</time></trkpt><trkpt lat="39.63123924859635" lon="15.844469023145953"><ele>10.333333333333334</ele><time>2026-04-26T16:35:33.999Z</time></trkpt><trkpt lat="39.631086869930584" lon="15.844571640616891"><ele>10.666666666666666</ele><time>2026-04-26T16:35:34.999Z</time></trkpt><trkpt lat="39.63094287811979" lon="15.844685101590612"><ele>11.0</ele><time>2026-04-26T16:35:35.999Z</time></trkpt><trkpt lat="39.63080677972946" lon="15.84480829479334"><ele>11.0</ele><time>2026-04-26T16:35:36.999Z</time></trkpt><trkpt lat="39.63068201896388" lon="15.844941021084939"><ele>11.0</ele><time>2026-04-26T16:35:38.001Z</time></trkpt><trkpt lat="39.63056433791402" lon="15.845079286594043"><ele>11.0</ele><time>2026-04-26T16:35:39.001Z</time></trkpt><trkpt lat="39.630453383944975" lon="15.845224655867659"><ele>12.333333333333332</ele><time>2026-04-26T16:35:40.001Z</time></trkpt><trkpt lat="39.63034884444475" lon="15.84537074201684"><ele>13.666666666666666</ele><time>2026-04-26T16:35:41.001Z</time></trkpt><trkpt lat="39.630253780021036" lon="15.845517642380836"><ele>15.0</ele><time>2026-04-26T16:35:42.001Z</time></trkpt><trkpt lat="39.630166095938634" lon="15.845687676118253"><ele>15.0</ele><time>2026-04-26T16:35:43.001Z</time></trkpt><trkpt lat="39.63008467543001" lon="15.845873939244258"><ele>15.0</ele><time>2026-04-26T16:35:44.001Z</time></trkpt><trkpt lat="39.63000046629957" lon="15.846067394271872"><ele>15.0</ele><time>2026-04-26T16:35:45.001Z</time></trkpt><trkpt lat="39.62991828978593" lon="15.846265369122676"><ele>16.333333333333332</ele><time>2026-04-26T16:35:46.001Z</time></trkpt><trkpt lat="39.62983589011007" lon="15.846468243676668"><ele>17.666666666666664</ele><time>2026-04-26T16:35:47.001Z</time></trkpt><trkpt lat="39.62974848425801" lon="15.846673263221048"><ele>19.0</ele><time>2026-04-26T16:35:48.001Z</time></trkpt><trkpt lat="39.62966603870235" lon="15.846868153262655"><ele>19.333333333333332</ele><time>2026-04-26T16:35:49.001Z</time></trkpt><trkpt lat="39.62959230431837" lon="15.847050063901035"><ele>19.666666666666668</ele><time>2026-04-26T16:35:50.001Z</time></trkpt><trkpt lat="39.62952267385948" lon="15.847228931772735"><ele>20.0</ele><time>2026-04-26T16:35:51.001Z</time></trkpt><trkpt lat="39.629444164531705" lon="15.847403967224839"><ele>22.0</ele><time>2026-04-26T16:35:52Z</time></trkpt><trkpt lat="39.629371487260315" lon="15.847571722976177"><ele>24.0</ele><time>2026-04-26T16:35:53Z</time></trkpt><trkpt lat="39.62929531762934" lon="15.847755109630084"><ele>26.0</ele><time>2026-04-26T16:35:54Z</time></trkpt><trkpt lat="39.629218358453564" lon="15.847936073984275"><ele>27.333333333333332</ele><time>2026-04-26T16:35:55Z</time></trkpt><trkpt lat="39.629145382363184" lon="15.848116356523256"><ele>28.666666666666664</ele><time>2026-04-26T16:35:56Z</time></trkpt><trkpt lat="39.62906625919089" lon="15.848312702140742"><ele>30.0</ele><time>2026-04-26T16:35:57Z</time></trkpt><trkpt lat="39.62898092960335" lon="15.848519554824588"><ele>30.666666666666664</ele><time>2026-04-26T16:35:58Z</time></trkpt><trkpt lat="39.62888607519292" lon="15.848743644827294"><ele>31.333333333333332</ele><time>2026-04-26T16:35:59Z</time></trkpt><trkpt lat="39.6287919164907" lon="15.84898875402933"><ele>32.0</ele><time>2026-04-26T16:36:00Z</time></trkpt><trkpt lat="39.628697742604075" lon="15.849247191699886"><ele>34.33333333333333</ele><time>2026-04-26T16:36:01Z</time></trkpt><trkpt lat="39.62859744462028" lon="15.849501156077457"><ele>36.666666666666664</ele><time>2026-04-26T16:36:02Z</time></trkpt><trkpt lat="39.62849771727948" lon="15.849748312492064"><ele>39.0</ele><time>2026-04-26T16:36:03Z</time></trkpt><trkpt lat="39.62840127378178" lon="15.849989382422578"><ele>40.333333333333336</ele><time>2026-04-26T16:36:04Z</time></trkpt><trkpt lat="39.62830876272786" lon="15.85023125703434"><ele>41.66666666666667</ele><time>2026-04-26T16:36:05Z</time></trkpt><trkpt lat="39.62821799945646" lon="15.850468870197451"><ele>43.0</ele><time>2026-04-26T16:36:06Z</time></trkpt><trkpt lat="39.62812303116937" lon="15.850696572441118"><ele>43.0</ele><time>2026-04-26T16:36:07Z</time></trkpt><trkpt lat="39.62802165161043" lon="15.850914507857322"><ele>43.0</ele><time>2026-04-26T16:36:08Z</time></trkpt><trkpt lat="39.62791425604325" lon="15.851117363546244"><ele>43.0</ele><time>2026-04-26T16:36:09Z</time></trkpt><trkpt lat="39.62780355100293" lon="15.85130512418312"><ele>42.66666666666667</ele><time>2026-04-26T16:36:10Z</time></trkpt><trkpt lat="39.62768980108883" lon="15.85148644540298"><ele>42.333333333333336</ele><time>2026-04-26T16:36:11Z</time></trkpt><trkpt lat="39.62757391548482" lon="15.851658412901724"><ele>42.0</ele><time>2026-04-26T16:36:12Z</time></trkpt><trkpt lat="39.62745983851819" lon="15.851831977243403"><ele>44.33333333333333</ele><time>2026-04-26T16:36:13Z</time></trkpt><trkpt lat="39.62733917100735" lon="15.85199481435415"><ele>46.666666666666664</ele><time>2026-04-26T16:36:14Z</time></trkpt><trkpt lat="39.627214802317006" lon="15.852148041291674"><ele>49.0</ele><time>2026-04-26T16:36:15Z</time></trkpt><trkpt lat="39.627090109288815" lon="15.852290958935582"><ele>48.33333333333333</ele><time>2026-04-26T16:36:16Z</time></trkpt><trkpt lat="39.62696716349382" lon="15.852446924364076"><ele>47.666666666666664</ele><time>2026-04-26T16:36:17Z</time></trkpt><trkpt lat="39.626843815409124" lon="15.852606013427181"><ele>47.0</ele><time>2026-04-26T16:36:18Z</time></trkpt><trkpt lat="39.62671786494152" lon="15.852769075080989"><ele>47.0</ele><time>2026-04-26T16:36:19Z</time></trkpt><trkpt lat="39.62658782522607" lon="15.85292988755113"><ele>47.0</ele><time>2026-04-26T16:36:20Z</time></trkpt><trkpt lat="39.62645786545282" lon="15.853087477548026"><ele>47.0</ele><time>2026-04-26T16:36:21Z</time></trkpt><trkpt lat="39.62633392005492" lon="15.853247313054709"><ele>47.0</ele><time>2026-04-26T16:36:22Z</time></trkpt><trkpt lat="39.62620983507875" lon="15.853400106380924"><ele>47.0</ele><time>2026-04-26T16:36:23Z</time></trkpt><trkpt lat="39.62608741981095" lon="15.853552120923652"><ele>47.0</ele><time>2026-04-26T16:36:24Z</time></trkpt><trkpt lat="39.62596335734598" lon="15.853704829047969"><ele>46.0</ele><time>2026-04-26T16:36:25Z</time></trkpt><trkpt lat="39.62584008416058" lon="15.8538604330681"><ele>45.0</ele><time>2026-04-26T16:36:26Z</time></trkpt><trkpt lat="39.625715679235434" lon="15.854007257307263"><ele>44.0</ele><time>2026-04-26T16:36:27Z</time></trkpt><trkpt lat="39.62559344737951" lon="15.854154764360652"><ele>41.0</ele><time>2026-04-26T16:36:28Z</time></trkpt><trkpt lat="39.625472312034745" lon="15.854313835371675"><ele>38.0</ele><time>2026-04-26T16:36:29Z</time></trkpt><trkpt lat="39.62535228648483" lon="15.85446445832143"><ele>35.0</ele><time>2026-04-26T16:36:30Z</time></trkpt><trkpt lat="39.62522975845826" lon="15.854623762274935"><ele>33.33333333333333</ele><time>2026-04-26T16:36:31Z</time></trkpt><trkpt lat="39.625098840875765" lon="15.854784108258894"><ele>31.666666666666664</ele><time>2026-04-26T16:36:32Z</time></trkpt><trkpt lat="39.62496540434045" lon="15.854955508019211"><ele>30.0</ele><time>2026-04-26T16:36:33Z</time></trkpt><trkpt lat="39.62482889675369" lon="15.85512780019375"><ele>29.333333333333336</ele><time>2026-04-26T16:36:34Z</time></trkpt><trkpt lat="39.624685316096524" lon="15.855305307033271"><ele>28.666666666666668</ele><time>2026-04-26T16:36:35Z</time></trkpt><trkpt lat="39.62454250646795" lon="15.855486805881752"><ele>28.0</ele><time>2026-04-26T16:36:36Z</time></trkpt><trkpt lat="39.62439888625148" lon="15.855665200351499"><ele>28.0</ele><time>2026-04-26T16:36:37Z</time></trkpt><trkpt lat="39.62425516389938" lon="15.85584394071025"><ele>28.0</ele><time>2026-04-26T16:36:38Z</time></trkpt><trkpt lat="39.62410798766816" lon="15.856020345723604"><ele>28.0</ele><time>2026-04-26T16:36:39Z</time></trkpt><trkpt lat="39.62396552857394" lon="15.856184482332882"><ele>29.0</ele><time>2026-04-26T16:36:40Z</time></trkpt><trkpt lat="39.623800769669025" lon="15.856347499911463"><ele>30.0</ele><time>2026-04-26T16:36:41Z</time></trkpt><trkpt lat="39.623632692712555" lon="15.856479237720912"><ele>31.0</ele><time>2026-04-26T16:36:42Z</time></trkpt><trkpt lat="39.62345873525998" lon="15.85660210809711"><ele>31.0</ele><time>2026-04-26T16:36:43Z</time></trkpt><trkpt lat="39.62327742639368" lon="15.856723092624877"><ele>31.0</ele><time>2026-04-26T16:36:44Z</time></trkpt><trkpt lat="39.62310203170639" lon="15.856835284754705"><ele>31.0</ele><time>2026-04-26T16:36:45Z</time></trkpt><trkpt lat="39.62292672274794" lon="15.856947022507695"><ele>35.0</ele><time>2026-04-26T16:36:46Z</time></trkpt><trkpt lat="39.62275117989127" lon="15.85706099373092"><ele>39.0</ele><time>2026-04-26T16:36:47Z</time></trkpt><trkpt lat="39.62257209557569" lon="15.857161914803036"><ele>43.0</ele><time>2026-04-26T16:36:48Z</time></trkpt><trkpt lat="39.62238803323219" lon="15.857246656873404"><ele>43.0</ele><time>2026-04-26T16:36:49Z</time></trkpt><trkpt lat="39.622202747878134" lon="15.857313871058254"><ele>43.0</ele><time>2026-04-26T16:36:50Z</time></trkpt><trkpt lat="39.62201252306177" lon="15.857362539988786"><ele>43.0</ele><time>2026-04-26T16:36:51Z</time></trkpt><trkpt lat="39.62181693888264" lon="15.85739298573782"><ele>43.333333333333336</ele><time>2026-04-26T16:36:52Z</time></trkpt><trkpt lat="39.621619192684435" lon="15.857409210067328"><ele>43.666666666666664</ele><time>2026-04-26T16:36:53Z</time></trkpt><trkpt lat="39.621421595877564" lon="15.857416496806593"><ele>44.0</ele><time>2026-04-26T16:36:54Z</time></trkpt><trkpt lat="39.621222902713136" lon="15.857417909575851"><ele>46.666666666666664</ele><time>2026-04-26T16:36:55Z</time></trkpt><trkpt lat="39.6210246266425" lon="15.857418489657693"><ele>49.33333333333333</ele><time>2026-04-26T16:36:56Z</time></trkpt><trkpt lat="39.62082657268348" lon="15.857423176419205"><ele>52.0</ele><time>2026-04-26T16:36:57Z</time></trkpt><trkpt lat="39.62062681832738" lon="15.857429405739603"><ele>52.0</ele><time>2026-04-26T16:36:58Z</time></trkpt><trkpt lat="39.62042673018267" lon="15.85743315183281"><ele>52.0</ele><time>2026-04-26T16:36:59Z</time></trkpt><trkpt lat="39.620227210219916" lon="15.857436660354075"><ele>52.0</ele><time>2026-04-26T16:37:00Z</time></trkpt><trkpt lat="39.62003541753832" lon="15.85743469745895"><ele>54.666666666666664</ele><time>2026-04-26T16:37:01Z</time></trkpt><trkpt lat="39.61986001232769" lon="15.857430131198118"><ele>57.33333333333333</ele><time>2026-04-26T16:37:02Z</time></trkpt><trkpt lat="39.61969419287471" lon="15.857431070341365"><ele>60.0</ele><time>2026-04-26T16:37:03Z</time></trkpt><trkpt lat="39.619531119143154" lon="15.857438784654699"><ele>61.66666666666667</ele><time>2026-04-26T16:37:04Z</time></trkpt><trkpt lat="39.61936992100256" lon="15.857444863748938"><ele>63.333333333333336</ele><time>2026-04-26T16:37:05Z</time></trkpt><trkpt lat="39.619215034455486" lon="15.857448046618787"><ele>65.0</ele><time>2026-04-26T16:37:05.999Z</time></trkpt><trkpt lat="39.61906124846551" lon="15.857450526573627"><ele>65.0</ele><time>2026-04-26T16:37:06.999Z</time></trkpt><trkpt lat="39.618908495508634" lon="15.857456629197861"><ele>65.0</ele><time>2026-04-26T16:37:07.999Z</time></trkpt><trkpt lat="39.61875029688678" lon="15.85746786224997"><ele>65.0</ele><time>2026-04-26T16:37:08.999Z</time></trkpt><trkpt lat="39.618590297039304" lon="15.857481812332724"><ele>66.33333333333334</ele><time>2026-04-26T16:37:09.999Z</time></trkpt><trkpt lat="39.618429396337426" lon="15.857495450386974"><ele>67.66666666666667</ele><time>2026-04-26T16:37:10.999Z</time></trkpt><trkpt lat="39.61827105319655" lon="15.857512353763942"><ele>69.0</ele><time>2026-04-26T16:37:11.999Z</time></trkpt><trkpt lat="39.618114719685636" lon="15.857534702286776"><ele>69.0</ele><time>2026-04-26T16:37:12.999Z</time></trkpt><trkpt lat="39.61796330165322" lon="15.857574767662959"><ele>69.0</ele><time>2026-04-26T16:37:13.999Z</time></trkpt><trkpt lat="39.617812058782405" lon="15.857618010241296"><ele>69.0</ele><time>2026-04-26T16:37:14.999Z</time></trkpt><trkpt lat="39.61767035620671" lon="15.857667321270636"><ele>70.75</ele><time>2026-04-26T16:37:15.999Z</time></trkpt><trkpt lat="39.617540604919995" lon="15.857719191473798"><ele>72.5</ele><time>2026-04-26T16:37:16.999Z</time></trkpt><trkpt lat="39.61742143381807" lon="15.857770393235455"><ele>74.25</ele><time>2026-04-26T16:37:17.999Z</time></trkpt><trkpt lat="39.6173027682856" lon="15.85782293018981"><ele>76.0</ele><time>2026-04-26T16:37:18.999Z</time></trkpt><trkpt lat="39.61717874839643" lon="15.857886491601034"><ele>76.0</ele><time>2026-04-26T16:37:19.999Z</time></trkpt><trkpt lat="39.61704904690105" lon="15.857960739232693"><ele>76.0</ele><time>2026-04-26T16:37:20.999Z</time></trkpt><trkpt lat="39.616916181655206" lon="15.858045535079464"><ele>76.0</ele><time>2026-04-26T16:37:21.999Z</time></trkpt><trkpt lat="39.61677899479778" lon="15.858134724601026"><ele>76.0</ele><time>2026-04-26T16:37:22.999Z</time></trkpt><trkpt lat="39.6166410611772" lon="15.858222165625751"><ele>76.33333333333333</ele><time>2026-04-26T16:37:23.999Z</time></trkpt><trkpt lat="39.61650044908462" lon="15.858312834290944"><ele>76.66666666666667</ele><time>2026-04-26T16:37:24.999Z</time></trkpt><trkpt lat="39.61635899125363" lon="15.858403845442032"><ele>77.0</ele><time>2026-04-26T16:37:25.999Z</time></trkpt><trkpt lat="39.61621694821189" lon="15.858494707675652"><ele>78.33333333333334</ele><time>2026-04-26T16:37:26.999Z</time></trkpt><trkpt lat="39.6160774330043" lon="15.858583451993894"><ele>79.66666666666667</ele><time>2026-04-26T16:37:27.999Z</time></trkpt><trkpt lat="39.61593982954983" lon="15.858677675283275"><ele>81.0</ele><time>2026-04-26T16:37:28.999Z</time></trkpt><trkpt lat="39.61580426302509" lon="15.858775155060494"><ele>81.0</ele><time>2026-04-26T16:37:29.999Z</time></trkpt><trkpt lat="39.615669996823556" lon="15.858865269110561"><ele>81.0</ele><time>2026-04-26T16:37:30.999Z</time></trkpt><trkpt lat="39.615536217015446" lon="15.858956753298422"><ele>81.0</ele><time>2026-04-26T16:37:31.999Z</time></trkpt><trkpt lat="39.61541190531811" lon="15.859042040210817"><ele>81.0</ele><time>2026-04-26T16:37:32.999Z</time></trkpt><trkpt lat="39.61529221742632" lon="15.859118570724522"><ele>80.75</ele><time>2026-04-26T16:37:33.999Z</time></trkpt><trkpt lat="39.615175147898185" lon="15.859195769579017"><ele>80.5</ele><time>2026-04-26T16:37:34.999Z</time></trkpt><trkpt lat="39.6150580798214" lon="15.859274843015902"><ele>80.25</ele><time>2026-04-26T16:37:35.999Z</time></trkpt><trkpt lat="39.61494271691206" lon="15.859350044800085"><ele>80.0</ele><time>2026-04-26T16:37:36.999Z</time></trkpt><trkpt lat="39.61482752161167" lon="15.859427248764943"><ele>79.25</ele><time>2026-04-26T16:37:37.999Z</time></trkpt><trkpt lat="39.61470930364435" lon="15.859506120210279"><ele>78.5</ele><time>2026-04-26T16:37:38.999Z</time></trkpt><trkpt lat="39.6145877774112" lon="15.85957734473731"><ele>77.75</ele><time>2026-04-26T16:37:39.999Z</time></trkpt><trkpt lat="39.6144670017208" lon="15.859651068455612"><ele>77.0</ele><time>2026-04-26T16:37:40.999Z</time></trkpt><trkpt lat="39.61434600440641" lon="15.859715306894337"><ele>77.0</ele><time>2026-04-26T16:37:41.999Z</time></trkpt><trkpt lat="39.61422149205564" lon="15.85977721652676"><ele>77.0</ele><time>2026-04-26T16:37:42.999Z</time></trkpt><trkpt lat="39.614098989696565" lon="15.85983124995996"><ele>77.0</ele><time>2026-04-26T16:37:44Z</time></trkpt><trkpt lat="39.613981555867454" lon="15.85987436633371"><ele>77.0</ele><time>2026-04-26T16:37:45Z</time></trkpt><trkpt lat="39.613861364316016" lon="15.8599109377316"><ele>77.0</ele><time>2026-04-26T16:37:46Z</time></trkpt><trkpt lat="39.61373804477667" lon="15.859945997466824"><ele>77.0</ele><time>2026-04-26T16:37:47Z</time></trkpt><trkpt lat="39.61361354706084" lon="15.85997801663427"><ele>77.0</ele><time>2026-04-26T16:37:48Z</time></trkpt><trkpt lat="39.61349109386545" lon="15.859998923208918"><ele>77.0</ele><time>2026-04-26T16:37:49Z</time></trkpt><trkpt lat="39.61336455598674" lon="15.860025379112674"><ele>74.25</ele><time>2026-04-26T16:37:50Z</time></trkpt><trkpt lat="39.61323643888509" lon="15.860054150859217"><ele>71.5</ele><time>2026-04-26T16:37:51Z</time></trkpt><trkpt lat="39.613107968665844" lon="15.860077157916793"><ele>68.75</ele><time>2026-04-26T16:37:52Z</time></trkpt><trkpt lat="39.612983167353995" lon="15.860095499436694"><ele>66.0</ele><time>2026-04-26T16:37:53Z</time></trkpt><trkpt lat="39.612857788240625" lon="15.86011987423514"><ele>60.75</ele><time>2026-04-26T16:37:54Z</time></trkpt><trkpt lat="39.6127343502005" lon="15.860143458795323"><ele>55.5</ele><time>2026-04-26T16:37:55Z</time></trkpt><trkpt lat="39.612610826698294" lon="15.860167257301853"><ele>50.25</ele><time>2026-04-26T16:37:56Z</time></trkpt><trkpt lat="39.61248969436671" lon="15.860189181721058"><ele>45.0</ele><time>2026-04-26T16:37:57Z</time></trkpt><trkpt lat="39.61236737598656" lon="15.860211813956095"><ele>45.0</ele><time>2026-04-26T16:37:58Z</time></trkpt><trkpt lat="39.61224411899863" lon="15.860235855573205"><ele>45.0</ele><time>2026-04-26T16:37:59Z</time></trkpt><trkpt lat="39.6121215139258" lon="15.86026263696972"><ele>45.0</ele><time>2026-04-26T16:38:00Z</time></trkpt><trkpt lat="39.6119993391933" lon="15.860289152059073"><ele>45.0</ele><time>2026-04-26T16:38:01Z</time></trkpt><trkpt lat="39.61187644467955" lon="15.86031323102741"><ele>45.0</ele><time>2026-04-26T16:38:02Z</time></trkpt><trkpt lat="39.61175341112635" lon="15.860338567335186"><ele>45.0</ele><time>2026-04-26T16:38:03Z</time></trkpt><trkpt lat="39.611632238794385" lon="15.860362764595958"><ele>45.0</ele><time>2026-04-26T16:38:04Z</time></trkpt><trkpt lat="39.611509586737895" lon="15.860384835397815"><ele>45.0</ele><time>2026-04-26T16:38:05Z</time></trkpt><trkpt lat="39.61138721325624" lon="15.860408341952303"><ele>45.0</ele><time>2026-04-26T16:38:06Z</time></trkpt><trkpt lat="39.61126674747577" lon="15.86043308322261"><ele>45.0</ele><time>2026-04-26T16:38:07Z</time></trkpt><trkpt lat="39.611146503393485" lon="15.86046045112068"><ele>45.0</ele><time>2026-04-26T16:38:08Z</time></trkpt><trkpt lat="39.611027554687375" lon="15.860485498643367"><ele>45.0</ele><time>2026-04-26T16:38:09Z</time></trkpt><trkpt lat="39.61090953478381" lon="15.860507494303679"><ele>48.75</ele><time>2026-04-26T16:38:10Z</time></trkpt><trkpt lat="39.61079432394239" lon="15.86053140031585"><ele>52.5</ele><time>2026-04-26T16:38:11Z</time></trkpt><trkpt lat="39.61068222804228" lon="15.860554720933894"><ele>56.25</ele><time>2026-04-26T16:38:12Z</time></trkpt><trkpt lat="39.61056838586757" lon="15.860575868073342"><ele>60.0</ele><time>2026-04-26T16:38:13Z</time></trkpt><trkpt lat="39.61045730190643" lon="15.860599895588791"><ele>60.0</ele><time>2026-04-26T16:38:14Z</time></trkpt><trkpt lat="39.61034534361155" lon="15.860623783686414"><ele>60.0</ele><time>2026-04-26T16:38:15Z</time></trkpt><trkpt lat="39.610232080763474" lon="15.860644198730762"><ele>60.0</ele><time>2026-04-26T16:38:16Z</time></trkpt><trkpt lat="39.61011490791521" lon="15.860666897829601"><ele>60.0</ele><time>2026-04-26T16:38:17Z</time></trkpt><trkpt lat="39.609993640531435" lon="15.860687067442544"><ele>61.0</ele><time>2026-04-26T16:38:18Z</time></trkpt><trkpt lat="39.60986812413809" lon="15.860710755876633"><ele>62.0</ele><time>2026-04-26T16:38:19Z</time></trkpt><trkpt lat="39.60974089749596" lon="15.860737859148221"><ele>63.0</ele><time>2026-04-26T16:38:20Z</time></trkpt><trkpt lat="39.60961099538783" lon="15.860762956769307"><ele>64.0</ele><time>2026-04-26T16:38:21Z</time></trkpt><trkpt lat="39.6094776048381" lon="15.860789895117549"><ele>64.0</ele><time>2026-04-26T16:38:22Z</time></trkpt><trkpt lat="39.609341175201145" lon="15.860817411135057"><ele>64.0</ele><time>2026-04-26T16:38:23Z</time></trkpt><trkpt lat="39.60920219826656" lon="15.860844194988704"><ele>64.0</ele><time>2026-04-26T16:38:24Z</time></trkpt><trkpt lat="39.609060273659324" lon="15.860873636256708"><ele>64.0</ele><time>2026-04-26T16:38:25Z</time></trkpt><trkpt lat="39.60891838001412" lon="15.860900818770967"><ele>64.0</ele><time>2026-04-26T16:38:26Z</time></trkpt><trkpt lat="39.60877876352888" lon="15.86092804188681"><ele>64.0</ele><time>2026-04-26T16:38:27Z</time></trkpt><trkpt lat="39.60864313139228" lon="15.86095576790854"><ele>64.0</ele><time>2026-04-26T16:38:28Z</time></trkpt><trkpt lat="39.60851279424342" lon="15.860981014746239"><ele>64.0</ele><time>2026-04-26T16:38:29Z</time></trkpt><trkpt lat="39.60838546122904" lon="15.861005446080435"><ele>62.0</ele><time>2026-04-26T16:38:30Z</time></trkpt><trkpt lat="39.60826248344925" lon="15.861030139365992"><ele>60.0</ele><time>2026-04-26T16:38:31Z</time></trkpt><trkpt lat="39.60814333450895" lon="15.86104948512941"><ele>58.0</ele><time>2026-04-26T16:38:32Z</time></trkpt><trkpt lat="39.60802828445156" lon="15.86106972217067"><ele>56.0</ele><time>2026-04-26T16:38:33Z</time></trkpt><trkpt lat="39.60791572571806" lon="15.861089860679673"><ele>54.199999999999996</ele><time>2026-04-26T16:38:34Z</time></trkpt><trkpt lat="39.607807742781986" lon="15.861113056404546"><ele>52.39999999999999</ele><time>2026-04-26T16:38:35Z</time></trkpt><trkpt lat="39.60770182495437" lon="15.861134125990105"><ele>50.6</ele><time>2026-04-26T16:38:36Z</time></trkpt><trkpt lat="39.607596933103466" lon="15.861155502329808"><ele>48.8</ele><time>2026-04-26T16:38:37Z</time></trkpt><trkpt lat="39.60748777982331" lon="15.861179508018811"><ele>47.0</ele><time>2026-04-26T16:38:38Z</time></trkpt><trkpt lat="39.60737667846373" lon="15.86120447038538"><ele>47.0</ele><time>2026-04-26T16:38:39Z</time></trkpt><trkpt lat="39.6072642122868" lon="15.861233588587224"><ele>47.0</ele><time>2026-04-26T16:38:40Z</time></trkpt><trkpt lat="39.60714725703929" lon="15.86126390933509"><ele>47.0</ele><time>2026-04-26T16:38:41Z</time></trkpt><trkpt lat="39.60702923366048" lon="15.861288180424804"><ele>47.0</ele><time>2026-04-26T16:38:42Z</time></trkpt><trkpt lat="39.60690794539899" lon="15.861311467566326"><ele>43.75</ele><time>2026-04-26T16:38:43Z</time></trkpt><trkpt lat="39.60679025654531" lon="15.86133015133514"><ele>40.5</ele><time>2026-04-26T16:38:44Z</time></trkpt><trkpt lat="39.60666976032918" lon="15.861352692221804"><ele>37.25</ele><time>2026-04-26T16:38:45Z</time></trkpt><trkpt lat="39.60655460335933" lon="15.861375433287204"><ele>34.0</ele><time>2026-04-26T16:38:46Z</time></trkpt><trkpt lat="39.606442657173375" lon="15.861398370965565"><ele>34.0</ele><time>2026-04-26T16:38:47Z</time></trkpt><trkpt lat="39.60633387209356" lon="15.86141849288389"><ele>34.0</ele><time>2026-04-26T16:38:48Z</time></trkpt><trkpt lat="39.606227270965185" lon="15.861437062256462"><ele>34.0</ele><time>2026-04-26T16:38:49Z</time></trkpt><trkpt lat="39.606121324047216" lon="15.861458938055481"><ele>34.0</ele><time>2026-04-26T16:38:50Z</time></trkpt><trkpt lat="39.60601514578512" lon="15.861482900740773"><ele>34.0</ele><time>2026-04-26T16:38:51Z</time></trkpt><trkpt lat="39.60590639669459" lon="15.861505954838837"><ele>33.0</ele><time>2026-04-26T16:38:52Z</time></trkpt><trkpt lat="39.605791884344775" lon="15.861528626880913"><ele>32.0</ele><time>2026-04-26T16:38:53Z</time></trkpt><trkpt lat="39.60567337814087" lon="15.861551664285797"><ele>31.0</ele><time>2026-04-26T16:38:54Z</time></trkpt><trkpt lat="39.60554921244314" lon="15.861580313827265"><ele>30.0</ele><time>2026-04-26T16:38:55Z</time></trkpt><trkpt lat="39.605422533559675" lon="15.861606398369185"><ele>34.0</ele><time>2026-04-26T16:38:56Z</time></trkpt><trkpt lat="39.60529211921052" lon="15.861629007391755"><ele>38.0</ele><time>2026-04-26T16:38:57Z</time></trkpt><trkpt lat="39.605154949745426" lon="15.861658542992842"><ele>42.0</ele><time>2026-04-26T16:38:58Z</time></trkpt><trkpt lat="39.605017886079786" lon="15.861684901807978"><ele>46.0</ele><time>2026-04-26T16:38:59Z</time></trkpt><trkpt lat="39.60488294201883" lon="15.861710148944363"><ele>46.0</ele><time>2026-04-26T16:39:00Z</time></trkpt><trkpt lat="39.6047578355881" lon="15.861735512081866"><ele>46.0</ele><time>2026-04-26T16:39:01Z</time></trkpt><trkpt lat="39.60463795284706" lon="15.861758721976516"><ele>46.0</ele><time>2026-04-26T16:39:02Z</time></trkpt><trkpt lat="39.60451933377692" lon="15.861783000810613"><ele>46.0</ele><time>2026-04-26T16:39:03Z</time></trkpt><trkpt lat="39.60440174958074" lon="15.861805508569036"><ele>49.5</ele><time>2026-04-26T16:39:04Z</time></trkpt><trkpt lat="39.60428394693201" lon="15.86182778864721"><ele>53.0</ele><time>2026-04-26T16:39:04.999Z</time></trkpt><trkpt lat="39.60416570531565" lon="15.861852585990652"><ele>56.5</ele><time>2026-04-26T16:39:05.999Z</time></trkpt><trkpt lat="39.604042175585064" lon="15.861878085963381"><ele>60.0</ele><time>2026-04-26T16:39:06.999Z</time></trkpt><trkpt lat="39.60391627606317" lon="15.861904076102626"><ele>60.0</ele><time>2026-04-26T16:39:07.999Z</time></trkpt><trkpt lat="39.60378878071709" lon="15.86192742254086"><ele>60.0</ele><time>2026-04-26T16:39:08.999Z</time></trkpt><trkpt lat="39.6036597897526" lon="15.861952977593475"><ele>60.0</ele><time>2026-04-26T16:39:09.999Z</time></trkpt><trkpt lat="39.603528391234846" lon="15.861980622165948"><ele>60.0</ele><time>2026-04-26T16:39:10.999Z</time></trkpt><trkpt lat="39.603396085335284" lon="15.862007406161162"><ele>58.25</ele><time>2026-04-26T16:39:11.999Z</time></trkpt><trkpt lat="39.603260746551776" lon="15.862033153019924"><ele>56.5</ele><time>2026-04-26T16:39:12.999Z</time></trkpt><trkpt lat="39.603126663725526" lon="15.862058758913546"><ele>54.75</ele><time>2026-04-26T16:39:13.999Z</time></trkpt><trkpt lat="39.602988500365356" lon="15.862086676816169"><ele>53.0</ele><time>2026-04-26T16:39:14.999Z</time></trkpt><trkpt lat="39.60284911209557" lon="15.862115216781216"><ele>51.25</ele><time>2026-04-26T16:39:15.999Z</time></trkpt><trkpt lat="39.60270804670801" lon="15.86214484689495"><ele>49.5</ele><time>2026-04-26T16:39:16.999Z</time></trkpt><trkpt lat="39.60256633606251" lon="15.86217446408969"><ele>47.75</ele><time>2026-04-26T16:39:17.999Z</time></trkpt><trkpt lat="39.602423368120185" lon="15.8622013565445"><ele>46.0</ele><time>2026-04-26T16:39:18.999Z</time></trkpt><trkpt lat="39.60228045343267" lon="15.862229769205944"><ele>46.0</ele><time>2026-04-26T16:39:19.999Z</time></trkpt><trkpt lat="39.60214035399307" lon="15.862260850582782"><ele>46.0</ele><time>2026-04-26T16:39:20.999Z</time></trkpt><trkpt lat="39.602001799624794" lon="15.862292912805446"><ele>46.0</ele><time>2026-04-26T16:39:21.999Z</time></trkpt><trkpt lat="39.601863933720985" lon="15.862325295586015"><ele>46.0</ele><time>2026-04-26T16:39:22.999Z</time></trkpt><trkpt lat="39.601728027347995" lon="15.862358055199472"><ele>44.25</ele><time>2026-04-26T16:39:23.999Z</time></trkpt><trkpt lat="39.6015945204102" lon="15.862389974480779"><ele>42.5</ele><time>2026-04-26T16:39:24.999Z</time></trkpt><trkpt lat="39.60146455860279" lon="15.862421009501206"><ele>40.75</ele><time>2026-04-26T16:39:25.999Z</time></trkpt><trkpt lat="39.60133558251281" lon="15.862452788901969"><ele>39.0</ele><time>2026-04-26T16:39:26.999Z</time></trkpt><trkpt lat="39.601209104831646" lon="15.862484132460512"><ele>35.25</ele><time>2026-04-26T16:39:27.999Z</time></trkpt><trkpt lat="39.60108495826334" lon="15.862514515771803"><ele>31.5</ele><time>2026-04-26T16:39:28.999Z</time></trkpt><trkpt lat="39.600962465698956" lon="15.86254499120592"><ele>27.75</ele><time>2026-04-26T16:39:29.999Z</time></trkpt><trkpt lat="39.60083950014526" lon="15.862575867516528"><ele>24.0</ele><time>2026-04-26T16:39:30.999Z</time></trkpt><trkpt lat="39.60072033975263" lon="15.862608164208117"><ele>25.5</ele><time>2026-04-26T16:39:31.999Z</time></trkpt><trkpt lat="39.60060193952619" lon="15.862639894467357"><ele>27.0</ele><time>2026-04-26T16:39:32.999Z</time></trkpt><trkpt lat="39.60048545180364" lon="15.862671436575006"><ele>28.5</ele><time>2026-04-26T16:39:33.999Z</time></trkpt><trkpt lat="39.60036923209608" lon="15.862697980092307"><ele>30.0</ele><time>2026-04-26T16:39:34.999Z</time></trkpt><trkpt lat="39.60025412515671" lon="15.862726142563112"><ele>31.0</ele><time>2026-04-26T16:39:35.999Z</time></trkpt><trkpt lat="39.60013965972635" lon="15.862754045862534"><ele>32.0</ele><time>2026-04-26T16:39:36.999Z</time></trkpt><trkpt lat="39.600024490872215" lon="15.8627801107844"><ele>33.0</ele><time>2026-04-26T16:39:37.999Z</time></trkpt><trkpt lat="39.599906557243784" lon="15.862805402394672"><ele>34.0</ele><time>2026-04-26T16:39:38.999Z</time></trkpt><trkpt lat="39.59978580424164" lon="15.862827791142355"><ele>34.0</ele><time>2026-04-26T16:39:39.999Z</time></trkpt><trkpt lat="39.599661113535326" lon="15.862854301413622"><ele>34.0</ele><time>2026-04-26T16:39:40.999Z</time></trkpt><trkpt lat="39.5995313988543" lon="15.862884982086198"><ele>34.0</ele><time>2026-04-26T16:39:41.999Z</time></trkpt><trkpt lat="39.599398121235275" lon="15.862916937323764"><ele>34.0</ele><time>2026-04-26T16:39:42.999Z</time></trkpt><trkpt lat="39.59926548031185" lon="15.86294038006199"><ele>33.25</ele><time>2026-04-26T16:39:43.999Z</time></trkpt><trkpt lat="39.59913018495807" lon="15.862965973767164"><ele>32.5</ele><time>2026-04-26T16:39:44.999Z</time></trkpt><trkpt lat="39.598988622940126" lon="15.862989557059722"><ele>31.75</ele><time>2026-04-26T16:39:45.999Z</time></trkpt><trkpt lat="39.59883617406452" lon="15.863015949806776"><ele>31.0</ele><time>2026-04-26T16:39:46.999Z</time></trkpt><trkpt lat="39.59867651514443" lon="15.86304231127503"><ele>30.333333333333336</ele><time>2026-04-26T16:39:47.999Z</time></trkpt><trkpt lat="39.59851706314619" lon="15.863072144951852"><ele>29.666666666666664</ele><time>2026-04-26T16:39:48.999Z</time></trkpt><trkpt lat="39.59835453204663" lon="15.863103521455008"><ele>29.0</ele><time>2026-04-26T16:39:50Z</time></trkpt><trkpt lat="39.59819461693475" lon="15.863134040200945"><ele>29.0</ele><time>2026-04-26T16:39:51Z</time></trkpt><trkpt lat="39.59803714362985" lon="15.863167591298668"><ele>29.0</ele><time>2026-04-26T16:39:52Z</time></trkpt><trkpt lat="39.59788144254068" lon="15.863196086834947"><ele>29.0</ele><time>2026-04-26T16:39:53Z</time></trkpt><trkpt lat="39.59772255412154" lon="15.863223350423036"><ele>28.333333333333332</ele><time>2026-04-26T16:39:54Z</time></trkpt><trkpt lat="39.59756386740164" lon="15.863253426014852"><ele>27.666666666666664</ele><time>2026-04-26T16:39:55Z</time></trkpt><trkpt lat="39.59740568631065" lon="15.863282863462675"><ele>27.0</ele><time>2026-04-26T16:39:56Z</time></trkpt><trkpt lat="39.59725163892897" lon="15.86330958028819"><ele>27.0</ele><time>2026-04-26T16:39:57Z</time></trkpt><trkpt lat="39.59710665253108" lon="15.86333433829054"><ele>27.0</ele><time>2026-04-26T16:39:58Z</time></trkpt><trkpt lat="39.59697014147634" lon="15.863360236695298"><ele>27.0</ele><time>2026-04-26T16:39:59Z</time></trkpt><trkpt lat="39.59683679796621" lon="15.863384336000356"><ele>27.0</ele><time>2026-04-26T16:40:00Z</time></trkpt><trkpt lat="39.59670446361284" lon="15.863408707346512"><ele>26.25</ele><time>2026-04-26T16:40:01Z</time></trkpt><trkpt lat="39.59657393770738" lon="15.8634338841042"><ele>25.5</ele><time>2026-04-26T16:40:02Z</time></trkpt><trkpt lat="39.59644345877749" lon="15.863467346152403"><ele>24.75</ele><time>2026-04-26T16:40:03Z</time></trkpt><trkpt lat="39.596313174102676" lon="15.863509324975801"><ele>24.0</ele><time>2026-04-26T16:40:04Z</time></trkpt><trkpt lat="39.596177670547945" lon="15.863573202358516"><ele>29.75</ele><time>2026-04-26T16:40:05Z</time></trkpt><trkpt lat="39.5960422385132" lon="15.863650997613123"><ele>35.5</ele><time>2026-04-26T16:40:06Z</time></trkpt><trkpt lat="39.595909364518114" lon="15.863743591368607"><ele>41.25</ele><time>2026-04-26T16:40:07Z</time></trkpt><trkpt lat="39.59577594746647" lon="15.86383385909959"><ele>47.0</ele><time>2026-04-26T16:40:08Z</time></trkpt><trkpt lat="39.59565104074676" lon="15.863922088974608"><ele>47.0</ele><time>2026-04-26T16:40:09Z</time></trkpt><trkpt lat="39.59553820400152" lon="15.864007794063323"><ele>47.0</ele><time>2026-04-26T16:40:10Z</time></trkpt><trkpt lat="39.595432540253846" lon="15.864097223115298"><ele>47.0</ele><time>2026-04-26T16:40:11Z</time></trkpt><trkpt lat="39.59532816001414" lon="15.864185464929633"><ele>47.0</ele><time>2026-04-26T16:40:12Z</time></trkpt><trkpt lat="39.59522781681488" lon="15.864270491142351"><ele>46.8</ele><time>2026-04-26T16:40:13Z</time></trkpt><trkpt lat="39.59513165971613" lon="15.864350389468528"><ele>46.6</ele><time>2026-04-26T16:40:14Z</time></trkpt><trkpt lat="39.595038966976844" lon="15.864427424622235"><ele>46.4</ele><time>2026-04-26T16:40:15Z</time></trkpt><trkpt lat="39.5949513371383" lon="15.864502864188648"><ele>46.199999999999996</ele><time>2026-04-26T16:40:16Z</time></trkpt><trkpt lat="39.5948620520303" lon="15.864580630602513"><ele>46.0</ele><time>2026-04-26T16:40:17Z</time></trkpt><trkpt lat="39.59476814188124" lon="15.86466825090715"><ele>46.0</ele><time>2026-04-26T16:40:18Z</time></trkpt><trkpt lat="39.59467351770719" lon="15.864765641272031"><ele>46.0</ele><time>2026-04-26T16:40:19Z</time></trkpt><trkpt lat="39.594576173517645" lon="15.864873482718902"><ele>46.0</ele><time>2026-04-26T16:40:20Z</time></trkpt><trkpt lat="39.59447912917511" lon="15.864991130925576"><ele>46.0</ele><time>2026-04-26T16:40:21Z</time></trkpt><trkpt lat="39.594381748154866" lon="15.8651175972902"><ele>44.5</ele><time>2026-04-26T16:40:22Z</time></trkpt><trkpt lat="39.59428876306736" lon="15.865254980523899"><ele>43.0</ele><time>2026-04-26T16:40:23Z</time></trkpt><trkpt lat="39.5942012441318" lon="15.865397832512945"><ele>41.5</ele><time>2026-04-26T16:40:24Z</time></trkpt><trkpt lat="39.59411536382547" lon="15.865540688414685"><ele>40.0</ele><time>2026-04-26T16:40:25Z</time></trkpt><trkpt lat="39.5940306270131" lon="15.865680977725177"><ele>40.0</ele><time>2026-04-26T16:40:26Z</time></trkpt><trkpt lat="39.59394703551906" lon="15.865821093283978"><ele>40.0</ele><time>2026-04-26T16:40:27Z</time></trkpt><trkpt lat="39.593862678015704" lon="15.865958931829903"><ele>40.0</ele><time>2026-04-26T16:40:28Z</time></trkpt><trkpt lat="39.59377880456005" lon="15.866095181909488"><ele>40.0</ele><time>2026-04-26T16:40:29Z</time></trkpt><trkpt lat="39.59369800227976" lon="15.86623248940867"><ele>38.25</ele><time>2026-04-26T16:40:30Z</time></trkpt><trkpt lat="39.59361866609985" lon="15.866366869927816"><ele>36.5</ele><time>2026-04-26T16:40:31Z</time></trkpt><trkpt lat="39.593539991648" lon="15.86649578285868"><ele>34.75</ele><time>2026-04-26T16:40:32Z</time></trkpt><trkpt lat="39.593460746857595" lon="15.86662390226084"><ele>33.0</ele><time>2026-04-26T16:40:33Z</time></trkpt><trkpt lat="39.59337984580167" lon="15.866749571552104"><ele>37.25</ele><time>2026-04-26T16:40:34Z</time></trkpt><trkpt lat="39.59329720074753" lon="15.866870425013643"><ele>41.5</ele><time>2026-04-26T16:40:35Z</time></trkpt><trkpt lat="39.593213607004394" lon="15.86698773944912"><ele>45.75</ele><time>2026-04-26T16:40:36Z</time></trkpt><trkpt lat="39.59312689139925" lon="15.86709988221027"><ele>50.0</ele><time>2026-04-26T16:40:37Z</time></trkpt><trkpt lat="39.59303272424158" lon="15.867206641228304"><ele>50.0</ele><time>2026-04-26T16:40:38Z</time></trkpt><trkpt lat="39.59293353027292" lon="15.867306017230332"><ele>50.0</ele><time>2026-04-26T16:40:39Z</time></trkpt><trkpt lat="39.59283333548789" lon="15.867402798460638"><ele>50.0</ele><time>2026-04-26T16:40:40Z</time></trkpt><trkpt lat="39.592729852651836" lon="15.867494893350246"><ele>50.0</ele><time>2026-04-26T16:40:41Z</time></trkpt><trkpt lat="39.59262378604173" lon="15.867578893692233"><ele>50.5</ele><time>2026-04-26T16:40:42Z</time></trkpt><trkpt lat="39.592511045683324" lon="15.867653895163285"><ele>51.0</ele><time>2026-04-26T16:40:43Z</time></trkpt><trkpt lat="39.59239502822366" lon="15.867724321161134"><ele>51.5</ele><time>2026-04-26T16:40:44Z</time></trkpt><trkpt lat="39.59227721417045" lon="15.86779526121313"><ele>52.0</ele><time>2026-04-26T16:40:45Z</time></trkpt><trkpt lat="39.592153278483785" lon="15.867860302168538"><ele>52.0</ele><time>2026-04-26T16:40:46Z</time></trkpt><trkpt lat="39.59202698844259" lon="15.867916584022174"><ele>52.0</ele><time>2026-04-26T16:40:47Z</time></trkpt><trkpt lat="39.591893079649175" lon="15.86796141880794"><ele>52.0</ele><time>2026-04-26T16:40:48Z</time></trkpt><trkpt lat="39.591750414225764" lon="15.868009285313304"><ele>52.0</ele><time>2026-04-26T16:40:49Z</time></trkpt><trkpt lat="39.591596173071856" lon="15.868063533324182"><ele>49.0</ele><time>2026-04-26T16:40:50Z</time></trkpt><trkpt lat="39.59143745744901" lon="15.868118061505923"><ele>46.0</ele><time>2026-04-26T16:40:51Z</time></trkpt><trkpt lat="39.59127939662654" lon="15.868162826713835"><ele>43.0</ele><time>2026-04-26T16:40:52Z</time></trkpt><trkpt lat="39.59112765111813" lon="15.868205874755207"><ele>42.5</ele><time>2026-04-26T16:40:53Z</time></trkpt><trkpt lat="39.5909816864073" lon="15.868246242772432"><ele>42.0</ele><time>2026-04-26T16:40:54Z</time></trkpt><trkpt lat="39.59083770531911" lon="15.86828533541168"><ele>41.5</ele><time>2026-04-26T16:40:55Z</time></trkpt><trkpt lat="39.59069185133139" lon="15.868327489821533"><ele>41.0</ele><time>2026-04-26T16:40:56Z</time></trkpt><trkpt lat="39.59054811760758" lon="15.868373779331975"><ele>41.0</ele><time>2026-04-26T16:40:57Z</time></trkpt><trkpt lat="39.590407163705706" lon="15.868420457828131"><ele>41.0</ele><time>2026-04-26T16:40:58Z</time></trkpt><trkpt lat="39.590270085706884" lon="15.868470839452616"><ele>41.0</ele><time>2026-04-26T16:40:59Z</time></trkpt><trkpt lat="39.59013878980678" lon="15.868527506904597"><ele>41.0</ele><time>2026-04-26T16:41:00Z</time></trkpt><trkpt lat="39.59000633788041" lon="15.868599501593415"><ele>43.0</ele><time>2026-04-26T16:41:01Z</time></trkpt><trkpt lat="39.58985682341197" lon="15.86866086235234"><ele>45.0</ele><time>2026-04-26T16:41:02Z</time></trkpt><trkpt lat="39.58969766334404" lon="15.868752515197725"><ele>47.0</ele><time>2026-04-26T16:41:03Z</time></trkpt><trkpt lat="39.58952614190004" lon="15.868857730055032"><ele>44.33333333333333</ele><time>2026-04-26T16:41:04Z</time></trkpt><trkpt lat="39.58934948105679" lon="15.868968893356858"><ele>41.666666666666664</ele><time>2026-04-26T16:41:04.999Z</time></trkpt><trkpt lat="39.589166592136245" lon="15.869085532855978"><ele>39.0</ele><time>2026-04-26T16:41:05.999Z</time></trkpt><trkpt lat="39.58898834746794" lon="15.869223072944218"><ele>38.333333333333336</ele><time>2026-04-26T16:41:06.999Z</time></trkpt><trkpt lat="39.58880394779626" lon="15.869329888376985"><ele>37.66666666666667</ele><time>2026-04-26T16:41:07.999Z</time></trkpt><trkpt lat="39.58862696384717" lon="15.869433008161595"><ele>37.0</ele><time>2026-04-26T16:41:08.999Z</time></trkpt><trkpt lat="39.58845575434087" lon="15.869541593569199"><ele>37.0</ele><time>2026-04-26T16:41:09.999Z</time></trkpt><trkpt lat="39.58828697811711" lon="15.869650335500342"><ele>37.0</ele><time>2026-04-26T16:41:10.999Z</time></trkpt><trkpt lat="39.58811890166719" lon="15.869755949533605"><ele>37.0</ele><time>2026-04-26T16:41:11.999Z</time></trkpt><trkpt lat="39.58794824774237" lon="15.869856120342272"><ele>36.333333333333336</ele><time>2026-04-26T16:41:12.999Z</time></trkpt><trkpt lat="39.58777536902478" lon="15.86995127794788"><ele>35.666666666666664</ele><time>2026-04-26T16:41:13.999Z</time></trkpt><trkpt lat="39.58760549027236" lon="15.870040051981553"><ele>35.0</ele><time>2026-04-26T16:41:14.999Z</time></trkpt><trkpt lat="39.58744344713577" lon="15.87012407824742"><ele>33.0</ele><time>2026-04-26T16:41:15.999Z</time></trkpt><trkpt lat="39.58728462750068" lon="15.870199524676524"><ele>31.0</ele><time>2026-04-26T16:41:16.999Z</time></trkpt><trkpt lat="39.5871294441585" lon="15.870262977573196"><ele>29.0</ele><time>2026-04-26T16:41:17.999Z</time></trkpt><trkpt lat="39.58697262033423" lon="15.870315614533867"><ele>28.666666666666664</ele><time>2026-04-26T16:41:18.999Z</time></trkpt><trkpt lat="39.58681172802118" lon="15.870360100787067"><ele>28.333333333333336</ele><time>2026-04-26T16:41:19.999Z</time></trkpt><trkpt lat="39.58665310180244" lon="15.870395167841098"><ele>28.0</ele><time>2026-04-26T16:41:20.999Z</time></trkpt><trkpt lat="39.58650051636688" lon="15.870420631314099"><ele>28.0</ele><time>2026-04-26T16:41:21.999Z</time></trkpt><trkpt lat="39.58635244297498" lon="15.870440649608863"><ele>28.0</ele><time>2026-04-26T16:41:22.999Z</time></trkpt><trkpt lat="39.586204516629955" lon="15.870455503073007"><ele>28.0</ele><time>2026-04-26T16:41:23.999Z</time></trkpt><trkpt lat="39.58605166217997" lon="15.870465114147365"><ele>29.0</ele><time>2026-04-26T16:41:24.999Z</time></trkpt><trkpt lat="39.58589359725165" lon="15.870470120780931"><ele>30.0</ele><time>2026-04-26T16:41:25.999Z</time></trkpt><trkpt lat="39.58573125088492" lon="15.87046700944032"><ele>31.0</ele><time>2026-04-26T16:41:26.999Z</time></trkpt><trkpt lat="39.5855653980012" lon="15.870453371398318"><ele>31.0</ele><time>2026-04-26T16:41:27.999Z</time></trkpt><trkpt lat="39.585397507964096" lon="15.870427966986389"><ele>31.0</ele><time>2026-04-26T16:41:28.999Z</time></trkpt><trkpt lat="39.58522785970575" lon="15.870394297971899"><ele>31.0</ele><time>2026-04-26T16:41:29.999Z</time></trkpt><trkpt lat="39.5850600189778" lon="15.87035569926821"><ele>38.66666666666667</ele><time>2026-04-26T16:41:30.999Z</time></trkpt><trkpt lat="39.58489050702837" lon="15.870319825197328"><ele>46.333333333333336</ele><time>2026-04-26T16:41:31.999Z</time></trkpt><trkpt lat="39.58472167180298" lon="15.870285397087773"><ele>54.0</ele><time>2026-04-26T16:41:32.999Z</time></trkpt><trkpt lat="39.58455354798802" lon="15.870219734843522"><ele>59.0</ele><time>2026-04-26T16:41:33.999Z</time></trkpt><trkpt lat="39.58437766302623" lon="15.870167130955755"><ele>64.0</ele><time>2026-04-26T16:41:34.999Z</time></trkpt><trkpt lat="39.58422144661965" lon="15.870119998175994"><ele>69.0</ele><time>2026-04-26T16:41:35.999Z</time></trkpt><trkpt lat="39.584013944962564" lon="15.870057391889103"><ele>59.666666666666664</ele><time>2026-04-26T16:41:36.999Z</time></trkpt><trkpt lat="39.58382378712518" lon="15.870000507696133"><ele>50.33333333333333</ele><time>2026-04-26T16:41:37.999Z</time></trkpt><trkpt lat="39.58363082677382" lon="15.869944707230387"><ele>41.0</ele><time>2026-04-26T16:41:38.999Z</time></trkpt><trkpt lat="39.5834357422745" lon="15.869890162316805"><ele>41.0</ele><time>2026-04-26T16:41:39.999Z</time></trkpt><trkpt lat="39.58324167310458" lon="15.869845865469609"><ele>41.0</ele><time>2026-04-26T16:41:40.999Z</time></trkpt><trkpt lat="39.583049714637795" lon="15.86979373741641"><ele>41.0</ele><time>2026-04-26T16:41:41.999Z</time></trkpt><trkpt lat="39.582857720023036" lon="15.869758940160667"><ele>40.33333333333333</ele><time>2026-04-26T16:41:42.999Z</time></trkpt><trkpt lat="39.58266709081244" lon="15.869732999896243"><ele>39.666666666666664</ele><time>2026-04-26T16:41:43.999Z</time></trkpt><trkpt lat="39.582481617367556" lon="15.869710627517879"><ele>39.0</ele><time>2026-04-26T16:41:44.999Z</time></trkpt><trkpt lat="39.582300459045236" lon="15.869692869747825"><ele>39.0</ele><time>2026-04-26T16:41:45.999Z</time></trkpt><trkpt lat="39.582124126059405" lon="15.869677856433873"><ele>39.0</ele><time>2026-04-26T16:41:46.999Z</time></trkpt><trkpt lat="39.581950768860665" lon="15.869664236380435"><ele>39.0</ele><time>2026-04-26T16:41:47.999Z</time></trkpt><trkpt lat="39.581778970856845" lon="15.869648942405298"><ele>38.666666666666664</ele><time>2026-04-26T16:41:48.999Z</time></trkpt><trkpt lat="39.58161008288004" lon="15.869634650392745"><ele>38.33333333333333</ele><time>2026-04-26T16:41:49.999Z</time></trkpt><trkpt lat="39.58144348235337" lon="15.869621394804847"><ele>38.0</ele><time>2026-04-26T16:41:50.999Z</time></trkpt><trkpt lat="39.581281008722804" lon="15.869607270527235"><ele>38.33333333333333</ele><time>2026-04-26T16:41:51.999Z</time></trkpt><trkpt lat="39.581120852248965" lon="15.869596289778567"><ele>38.666666666666664</ele><time>2026-04-26T16:41:52.999Z</time></trkpt><trkpt lat="39.58096253922165" lon="15.869586238614309"><ele>39.0</ele><time>2026-04-26T16:41:53.999Z</time></trkpt><trkpt lat="39.5808062152453" lon="15.869579336150712"><ele>39.0</ele><time>2026-04-26T16:41:54.999Z</time></trkpt><trkpt lat="39.580651736888214" lon="15.869574223110114"><ele>39.0</ele><time>2026-04-26T16:41:56Z</time></trkpt><trkpt lat="39.580499175765674" lon="15.869568077534137"><ele>39.0</ele><time>2026-04-26T16:41:57Z</time></trkpt><trkpt lat="39.58034805864457" lon="15.86955872527902"><ele>39.25</ele><time>2026-04-26T16:41:58Z</time></trkpt><trkpt lat="39.58020105015719" lon="15.869548763428806"><ele>39.5</ele><time>2026-04-26T16:41:59Z</time></trkpt><trkpt lat="39.58006057248073" lon="15.869539229224607"><ele>39.75</ele><time>2026-04-26T16:42:00Z</time></trkpt><trkpt lat="39.5799284489478" lon="15.869530297206444"><ele>40.0</ele><time>2026-04-26T16:42:01Z</time></trkpt><trkpt lat="39.57980049648065" lon="15.869526594653934"><ele>40.0</ele><time>2026-04-26T16:42:02Z</time></trkpt><trkpt lat="39.579675880778886" lon="15.869527498618785"><ele>40.0</ele><time>2026-04-26T16:42:03Z</time></trkpt><trkpt lat="39.579553834470005" lon="15.869526115068414"><ele>40.0</ele><time>2026-04-26T16:42:04Z</time></trkpt><trkpt lat="39.57942979184676" lon="15.869519591726556"><ele>40.0</ele><time>2026-04-26T16:42:05Z</time></trkpt><trkpt lat="39.57930020342154" lon="15.86951193614613"><ele>40.5</ele><time>2026-04-26T16:42:06Z</time></trkpt><trkpt lat="39.579166263041245" lon="15.869508037411821"><ele>41.0</ele><time>2026-04-26T16:42:07Z</time></trkpt><trkpt lat="39.57902913767365" lon="15.869513241735374"><ele>41.5</ele><time>2026-04-26T16:42:08Z</time></trkpt><trkpt lat="39.57888795476759" lon="15.869522975489497"><ele>42.0</ele><time>2026-04-26T16:42:09Z</time></trkpt><trkpt lat="39.57874293792978" lon="15.869537301405462"><ele>40.75</ele><time>2026-04-26T16:42:10Z</time></trkpt><trkpt lat="39.57859519711006" lon="15.869558036356901"><ele>39.5</ele><time>2026-04-26T16:42:11Z</time></trkpt><trkpt lat="39.57844391384238" lon="15.869583492019123"><ele>38.25</ele><time>2026-04-26T16:42:12Z</time></trkpt><trkpt lat="39.57829821296019" lon="15.869616640477641"><ele>37.0</ele><time>2026-04-26T16:42:13Z</time></trkpt><trkpt lat="39.57815800050221" lon="15.869651500041476"><ele>37.0</ele><time>2026-04-26T16:42:14Z</time></trkpt><trkpt lat="39.578024598618725" lon="15.869686441343724"><ele>37.0</ele><time>2026-04-26T16:42:15Z</time></trkpt><trkpt lat="39.577898889752404" lon="15.869729179838055"><ele>37.0</ele><time>2026-04-26T16:42:16Z</time></trkpt><trkpt lat="39.57777842707059" lon="15.869775894070495"><ele>37.0</ele><time>2026-04-26T16:42:17Z</time></trkpt><trkpt lat="39.5776625111979" lon="15.869825808326443"><ele>34.0</ele><time>2026-04-26T16:42:18Z</time></trkpt><trkpt lat="39.57755172178194" lon="15.86987987640422"><ele>31.0</ele><time>2026-04-26T16:42:19Z</time></trkpt><trkpt lat="39.57744164740333" lon="15.869935389637721"><ele>28.0</ele><time>2026-04-26T16:42:20Z</time></trkpt><trkpt lat="39.5773320256313" lon="15.869989385118533"><ele>25.0</ele><time>2026-04-26T16:42:21Z</time></trkpt><trkpt lat="39.57722134596748" lon="15.870044932995931"><ele>25.0</ele><time>2026-04-26T16:42:22Z</time></trkpt><trkpt lat="39.57710923174536" lon="15.870102730073915"><ele>25.0</ele><time>2026-04-26T16:42:23Z</time></trkpt><trkpt lat="39.57699203115167" lon="15.870161121098322"><ele>25.0</ele><time>2026-04-26T16:42:24Z</time></trkpt><trkpt lat="39.57686909485616" lon="15.870219928625348"><ele>25.0</ele><time>2026-04-26T16:42:25Z</time></trkpt><trkpt lat="39.576740580087105" lon="15.870282000195653"><ele>26.0</ele><time>2026-04-26T16:42:26Z</time></trkpt><trkpt lat="39.5766069826775" lon="15.870347131626568"><ele>27.0</ele><time>2026-04-26T16:42:27Z</time></trkpt><trkpt lat="39.5764687946834" lon="15.87041387734058"><ele>28.0</ele><time>2026-04-26T16:42:28Z</time></trkpt><trkpt lat="39.576324930315685" lon="15.870480664479475"><ele>29.0</ele><time>2026-04-26T16:42:29Z</time></trkpt><trkpt lat="39.576179788352285" lon="15.870551339832645"><ele>29.0</ele><time>2026-04-26T16:42:30Z</time></trkpt><trkpt lat="39.576033811591024" lon="15.870622202584903"><ele>29.0</ele><time>2026-04-26T16:42:31Z</time></trkpt><trkpt lat="39.57588663375197" lon="15.870690251069021"><ele>29.0</ele><time>2026-04-26T16:42:32Z</time></trkpt><trkpt lat="39.575740039865565" lon="15.870756747431278"><ele>29.0</ele><time>2026-04-26T16:42:33Z</time></trkpt><trkpt lat="39.575592786236456" lon="15.870822075299657"><ele>29.0</ele><time>2026-04-26T16:42:34Z</time></trkpt><trkpt lat="39.575438051144296" lon="15.870881132518813"><ele>29.0</ele><time>2026-04-26T16:42:35Z</time></trkpt><trkpt lat="39.575271631896065" lon="15.870916344389165"><ele>29.0</ele><time>2026-04-26T16:42:36Z</time></trkpt><trkpt lat="39.57510339064374" lon="15.870973271448078"><ele>29.0</ele><time>2026-04-26T16:42:37Z</time></trkpt><trkpt lat="39.5749327199462" lon="15.871044603569949"><ele>29.0</ele><time>2026-04-26T16:42:38Z</time></trkpt><trkpt lat="39.574755332361086" lon="15.871097412118122"><ele>29.0</ele><time>2026-04-26T16:42:39Z</time></trkpt><trkpt lat="39.57457671505032" lon="15.871154760919927"><ele>29.0</ele><time>2026-04-26T16:42:40Z</time></trkpt><trkpt lat="39.57439513296253" lon="15.871209636636312"><ele>29.0</ele><time>2026-04-26T16:42:41Z</time></trkpt><trkpt lat="39.57421169770715" lon="15.87126588818455"><ele>28.333333333333332</ele><time>2026-04-26T16:42:42Z</time></trkpt><trkpt lat="39.57402758925141" lon="15.871329759517485"><ele>27.666666666666664</ele><time>2026-04-26T16:42:43Z</time></trkpt><trkpt lat="39.57384113125209" lon="15.871396491647308"><ele>27.0</ele><time>2026-04-26T16:42:44Z</time></trkpt><trkpt lat="39.5736545972768" lon="15.871460492462347"><ele>27.0</ele><time>2026-04-26T16:42:45Z</time></trkpt><trkpt lat="39.573465902174185" lon="15.871525608893442"><ele>27.0</ele><time>2026-04-26T16:42:46Z</time></trkpt><trkpt lat="39.57328125943985" lon="15.871586081323859"><ele>27.0</ele><time>2026-04-26T16:42:47Z</time></trkpt><trkpt lat="39.57309757052243" lon="15.871643677841515"><ele>27.0</ele><time>2026-04-26T16:42:48Z</time></trkpt><trkpt lat="39.5729151644416" lon="15.871705201394597"><ele>27.0</ele><time>2026-04-26T16:42:49Z</time></trkpt><trkpt lat="39.57273488600248" lon="15.871773539411034"><ele>27.0</ele><time>2026-04-26T16:42:50Z</time></trkpt><trkpt lat="39.57255483970778" lon="15.871842169133105"><ele>27.0</ele><time>2026-04-26T16:42:51Z</time></trkpt><trkpt lat="39.57237334901474" lon="15.87190293805027"><ele>27.0</ele><time>2026-04-26T16:42:52Z</time></trkpt><trkpt lat="39.57219341125838" lon="15.8719606078252"><ele>27.0</ele><time>2026-04-26T16:42:53Z</time></trkpt><trkpt lat="39.57201468032189" lon="15.872017494228663"><ele>27.666666666666664</ele><time>2026-04-26T16:42:54Z</time></trkpt><trkpt lat="39.57183587687777" lon="15.872076703357301"><ele>28.333333333333332</ele><time>2026-04-26T16:42:55Z</time></trkpt><trkpt lat="39.571659327722536" lon="15.872135455150879"><ele>29.0</ele><time>2026-04-26T16:42:56Z</time></trkpt><trkpt lat="39.57148390155936" lon="15.872192111715522"><ele>29.0</ele><time>2026-04-26T16:42:57Z</time></trkpt><trkpt lat="39.571310311115845" lon="15.872248381142786"><ele>29.0</ele><time>2026-04-26T16:42:58Z</time></trkpt><trkpt lat="39.57114331118431" lon="15.872303418461113"><ele>29.0</ele><time>2026-04-26T16:42:59Z</time></trkpt><trkpt lat="39.570980641458284" lon="15.872354682759225"><ele>28.0</ele><time>2026-04-26T16:43:00Z</time></trkpt><trkpt lat="39.57082315495332" lon="15.872407180595733"><ele>27.0</ele><time>2026-04-26T16:43:01Z</time></trkpt><trkpt lat="39.57066968895223" lon="15.872460940128692"><ele>26.0</ele><time>2026-04-26T16:43:02Z</time></trkpt><trkpt lat="39.57052269955057" lon="15.872509119128871"><ele>26.0</ele><time>2026-04-26T16:43:03Z</time></trkpt><trkpt lat="39.570375589207416" lon="15.87255686292935"><ele>26.0</ele><time>2026-04-26T16:43:04Z</time></trkpt><trkpt lat="39.57023514188434" lon="15.872603614327872"><ele>26.0</ele><time>2026-04-26T16:43:05Z</time></trkpt><trkpt lat="39.57010231882529" lon="15.872648361139747"><ele>26.0</ele><time>2026-04-26T16:43:06Z</time></trkpt><trkpt lat="39.569976263119194" lon="15.872688471971687"><ele>27.5</ele><time>2026-04-26T16:43:07Z</time></trkpt><trkpt lat="39.56985785235647" lon="15.872728283069243"><ele>29.0</ele><time>2026-04-26T16:43:08Z</time></trkpt><trkpt lat="39.56974423032342" lon="15.87276907485076"><ele>30.5</ele><time>2026-04-26T16:43:09Z</time></trkpt><trkpt lat="39.56963623018963" lon="15.872809419800108"><ele>32.0</ele><time>2026-04-26T16:43:09.999Z</time></trkpt><trkpt lat="39.56953110783073" lon="15.8728481809514"><ele>31.6</ele><time>2026-04-26T16:43:10.999Z</time></trkpt><trkpt lat="39.5694284680334" lon="15.87288583937699"><ele>31.200000000000003</ele><time>2026-04-26T16:43:11.999Z</time></trkpt><trkpt lat="39.56932840503084" lon="15.87292274880941"><ele>30.8</ele><time>2026-04-26T16:43:12.999Z</time></trkpt><trkpt lat="39.56922863055956" lon="15.872958516695725"><ele>30.4</ele><time>2026-04-26T16:43:13.999Z</time></trkpt><trkpt lat="39.5691295820266" lon="15.872990057441408"><ele>30.0</ele><time>2026-04-26T16:43:14.999Z</time></trkpt><trkpt lat="39.56903087905235" lon="15.87302357499596"><ele>30.0</ele><time>2026-04-26T16:43:15.999Z</time></trkpt><trkpt lat="39.56893239233188" lon="15.873054987923556"><ele>30.0</ele><time>2026-04-26T16:43:16.999Z</time></trkpt><trkpt lat="39.56883133663879" lon="15.873086353329203"><ele>30.0</ele><time>2026-04-26T16:43:17.999Z</time></trkpt><trkpt lat="39.56872744757345" lon="15.873123334965094"><ele>30.0</ele><time>2026-04-26T16:43:18.999Z</time></trkpt><trkpt lat="39.56861938833624" lon="15.873159884023465"><ele>30.0</ele><time>2026-04-26T16:43:19.999Z</time></trkpt><trkpt lat="39.56851076529594" lon="15.873200125870886"><ele>29.75</ele><time>2026-04-26T16:43:20.999Z</time></trkpt><trkpt lat="39.568399244143706" lon="15.87324524429546"><ele>29.5</ele><time>2026-04-26T16:43:21.999Z</time></trkpt><trkpt lat="39.56828789105366" lon="15.873294301317953"><ele>29.25</ele><time>2026-04-26T16:43:22.999Z</time></trkpt><trkpt lat="39.568179548725176" lon="15.87334417650367"><ele>29.0</ele><time>2026-04-26T16:43:23.999Z</time></trkpt><trkpt lat="39.56806978523124" lon="15.873399040527293"><ele>29.5</ele><time>2026-04-26T16:43:24.999Z</time></trkpt><trkpt lat="39.567957301451635" lon="15.873465775999703"><ele>30.0</ele><time>2026-04-26T16:43:25.999Z</time></trkpt><trkpt lat="39.56785072559968" lon="15.8735422844179"><ele>30.5</ele><time>2026-04-26T16:43:26.999Z</time></trkpt><trkpt lat="39.56774869998966" lon="15.873622041737507"><ele>31.0</ele><time>2026-04-26T16:43:27.999Z</time></trkpt><trkpt lat="39.56765021788054" lon="15.873707652875433"><ele>29.25</ele><time>2026-04-26T16:43:28.999Z</time></trkpt><trkpt lat="39.567549107655005" lon="15.873797627407876"><ele>27.5</ele><time>2026-04-26T16:43:29.999Z</time></trkpt><trkpt lat="39.5674486823873" lon="15.873889015679799"><ele>25.75</ele><time>2026-04-26T16:43:30.999Z</time></trkpt><trkpt lat="39.56734670858493" lon="15.873982358957882"><ele>24.0</ele><time>2026-04-26T16:43:31.999Z</time></trkpt><trkpt lat="39.567247992219784" lon="15.874076346317619"><ele>24.0</ele><time>2026-04-26T16:43:32.999Z</time></trkpt><trkpt lat="39.56714857468457" lon="15.87417604779173"><ele>24.0</ele><time>2026-04-26T16:43:33.999Z</time></trkpt><trkpt lat="39.56704052686319" lon="15.874281142644096"><ele>24.0</ele><time>2026-04-26T16:43:34.999Z</time></trkpt><trkpt lat="39.56691667229604" lon="15.874379975730774"><ele>24.0</ele><time>2026-04-26T16:43:35.999Z</time></trkpt><trkpt lat="39.56678441336856" lon="15.874479549633534"><ele>30.0</ele><time>2026-04-26T16:43:36.999Z</time></trkpt><trkpt lat="39.56664106363912" lon="15.874572285336171"><ele>36.0</ele><time>2026-04-26T16:43:37.999Z</time></trkpt><trkpt lat="39.56648816615311" lon="15.874659445080354"><ele>42.0</ele><time>2026-04-26T16:43:38.999Z</time></trkpt><trkpt lat="39.56632719284319" lon="15.874738827065144"><ele>41.0</ele><time>2026-04-26T16:43:39.999Z</time></trkpt><trkpt lat="39.56615650672309" lon="15.87481006071994"><ele>40.0</ele><time>2026-04-26T16:43:40.999Z</time></trkpt><trkpt lat="39.56597912182488" lon="15.874871924515098"><ele>39.0</ele><time>2026-04-26T16:43:41.999Z</time></trkpt><trkpt lat="39.56579666180481" lon="15.874925138178526"><ele>39.0</ele><time>2026-04-26T16:43:42.999Z</time></trkpt><trkpt lat="39.565613353597456" lon="15.874978386455618"><ele>39.0</ele><time>2026-04-26T16:43:43.999Z</time></trkpt><trkpt lat="39.56542724599887" lon="15.87503145059117"><ele>39.0</ele><time>2026-04-26T16:43:44.999Z</time></trkpt><trkpt lat="39.56523666797655" lon="15.875080258990824"><ele>43.33333333333333</ele><time>2026-04-26T16:43:45.999Z</time></trkpt><trkpt lat="39.56504953473163" lon="15.875130894362133"><ele>47.666666666666664</ele><time>2026-04-26T16:43:46.999Z</time></trkpt><trkpt lat="39.5648666367546" lon="15.8751790886493"><ele>52.0</ele><time>2026-04-26T16:43:47.999Z</time></trkpt><trkpt lat="39.564691467002234" lon="15.875224710431585"><ele>50.666666666666664</ele><time>2026-04-26T16:43:48.999Z</time></trkpt><trkpt lat="39.56452100188455" lon="15.875272520640376"><ele>49.33333333333333</ele><time>2026-04-26T16:43:49.999Z</time></trkpt><trkpt lat="39.56435446177792" lon="15.875319844037653"><ele>48.0</ele><time>2026-04-26T16:43:50.999Z</time></trkpt><trkpt lat="39.564189662279524" lon="15.87536452390964"><ele>48.0</ele><time>2026-04-26T16:43:51.999Z</time></trkpt><trkpt lat="39.56402100160357" lon="15.87541188851673"><ele>48.0</ele><time>2026-04-26T16:43:52.999Z</time></trkpt><trkpt lat="39.563845874769704" lon="15.875466904026222"><ele>48.0</ele><time>2026-04-26T16:43:53.999Z</time></trkpt><trkpt lat="39.56366560920663" lon="15.87553081248292"><ele>46.666666666666664</ele><time>2026-04-26T16:43:54.999Z</time></trkpt><trkpt lat="39.563477323626586" lon="15.87557128294514"><ele>45.33333333333333</ele><time>2026-04-26T16:43:55.999Z</time></trkpt><trkpt lat="39.56328302824013" lon="15.87563758372345"><ele>44.0</ele><time>2026-04-26T16:43:56.999Z</time></trkpt><trkpt lat="39.5630865411937" lon="15.875704943438746"><ele>44.0</ele><time>2026-04-26T16:43:57.999Z</time></trkpt><trkpt lat="39.562888097275824" lon="15.875775685128533"><ele>44.0</ele><time>2026-04-26T16:43:58.999Z</time></trkpt><trkpt lat="39.56269636452163" lon="15.875859798867017"><ele>44.0</ele><time>2026-04-26T16:43:59.999Z</time></trkpt><trkpt lat="39.5625012193146" lon="15.875923886322237"><ele>44.0</ele><time>2026-04-26T16:44:00.999Z</time></trkpt><trkpt lat="39.56230939002086" lon="15.875991908851397"><ele>44.0</ele><time>2026-04-26T16:44:02Z</time></trkpt><trkpt lat="39.56212109341518" lon="15.876063009946526"><ele>44.0</ele><time>2026-04-26T16:44:03Z</time></trkpt><trkpt lat="39.56193376809573" lon="15.876133392964194"><ele>41.666666666666664</ele><time>2026-04-26T16:44:04Z</time></trkpt><trkpt lat="39.561750803932824" lon="15.876198046085019"><ele>39.333333333333336</ele><time>2026-04-26T16:44:05Z</time></trkpt><trkpt lat="39.561566351469935" lon="15.876261797155289"><ele>37.0</ele><time>2026-04-26T16:44:06Z</time></trkpt><trkpt lat="39.561382609016356" lon="15.876326126822894"><ele>37.0</ele><time>2026-04-26T16:44:07Z</time></trkpt><trkpt lat="39.56120014909231" lon="15.876387483393591"><ele>37.0</ele><time>2026-04-26T16:44:08Z</time></trkpt><trkpt lat="39.56102611058979" lon="15.87644866368928"><ele>37.0</ele><time>2026-04-26T16:44:09Z</time></trkpt><trkpt lat="39.560852730988024" lon="15.876511349934571"><ele>38.0</ele><time>2026-04-26T16:44:10Z</time></trkpt><trkpt lat="39.560683626109686" lon="15.876573626523527"><ele>39.0</ele><time>2026-04-26T16:44:11Z</time></trkpt><trkpt lat="39.56051479820511" lon="15.876634250998128"><ele>40.0</ele><time>2026-04-26T16:44:12Z</time></trkpt><trkpt lat="39.56034945534029" lon="15.876694738195054"><ele>40.333333333333336</ele><time>2026-04-26T16:44:13Z</time></trkpt><trkpt lat="39.56018493156843" lon="15.876755858013738"><ele>40.666666666666664</ele><time>2026-04-26T16:44:14Z</time></trkpt><trkpt lat="39.560023158564896" lon="15.876815247212967"><ele>41.0</ele><time>2026-04-26T16:44:15Z</time></trkpt><trkpt lat="39.55985858777407" lon="15.87687553662055"><ele>43.33333333333333</ele><time>2026-04-26T16:44:16Z</time></trkpt><trkpt lat="39.55969341022499" lon="15.876933392211832"><ele>45.666666666666664</ele><time>2026-04-26T16:44:17Z</time></trkpt><trkpt lat="39.55952951709951" lon="15.876990085241802"><ele>48.0</ele><time>2026-04-26T16:44:18Z</time></trkpt><trkpt lat="39.559367025150216" lon="15.877048586037523"><ele>48.0</ele><time>2026-04-26T16:44:19Z</time></trkpt><trkpt lat="39.559206143622006" lon="15.877107820442768"><ele>48.0</ele><time>2026-04-26T16:44:20Z</time></trkpt><trkpt lat="39.559045438124556" lon="15.877166233424264"><ele>48.0</ele><time>2026-04-26T16:44:21Z</time></trkpt><trkpt lat="39.55888496305727" lon="15.877225093941345"><ele>48.0</ele><time>2026-04-26T16:44:22Z</time></trkpt><trkpt lat="39.55872314445861" lon="15.877282711932184"><ele>48.0</ele><time>2026-04-26T16:44:23Z</time></trkpt><trkpt lat="39.55856491147816" lon="15.877339652526468"><ele>48.0</ele><time>2026-04-26T16:44:24Z</time></trkpt><trkpt lat="39.55841094206056" lon="15.87739557191922"><ele>48.33333333333333</ele><time>2026-04-26T16:44:25Z</time></trkpt><trkpt lat="39.55826002865292" lon="15.877454061310097"><ele>48.666666666666664</ele><time>2026-04-26T16:44:26Z</time></trkpt><trkpt lat="39.558111538382754" lon="15.877508227783776"><ele>49.0</ele><time>2026-04-26T16:44:27Z</time></trkpt><trkpt lat="39.55796249059363" lon="15.877561272320598"><ele>53.33333333333333</ele><time>2026-04-26T16:44:28Z</time></trkpt><trkpt lat="39.557813508852064" lon="15.877611605090381"><ele>57.66666666666667</ele><time>2026-04-26T16:44:29Z</time></trkpt><trkpt lat="39.55766611981114" lon="15.877664679531282"><ele>62.0</ele><time>2026-04-26T16:44:30Z</time></trkpt><trkpt lat="39.55752128060166" lon="15.877721836664657"><ele>62.0</ele><time>2026-04-26T16:44:31Z</time></trkpt><trkpt lat="39.557386821510576" lon="15.87779155186315"><ele>62.0</ele><time>2026-04-26T16:44:32Z</time></trkpt><trkpt lat="39.55724746435068" lon="15.877878641789064"><ele>62.0</ele><time>2026-04-26T16:44:33Z</time></trkpt><trkpt lat="39.55709897764486" lon="15.877989724361633"><ele>63.0</ele><time>2026-04-26T16:44:34Z</time></trkpt><trkpt lat="39.55695132282262" lon="15.878115299917535"><ele>64.0</ele><time>2026-04-26T16:44:35Z</time></trkpt><trkpt lat="39.55680201928043" lon="15.878253727223852"><ele>65.0</ele><time>2026-04-26T16:44:36Z</time></trkpt><trkpt lat="39.55665591396308" lon="15.878397786485957"><ele>74.66666666666667</ele><time>2026-04-26T16:44:37Z</time></trkpt><trkpt lat="39.556517072884596" lon="15.878540429438772"><ele>84.33333333333333</ele><time>2026-04-26T16:44:38Z</time></trkpt><trkpt lat="39.55638545691105" lon="15.878679648413042"><ele>94.0</ele><time>2026-04-26T16:44:39Z</time></trkpt><trkpt lat="39.556260604197526" lon="15.878806046816678"><ele>90.5</ele><time>2026-04-26T16:44:40Z</time></trkpt><trkpt lat="39.55614151761026" lon="15.878929136701085"><ele>87.0</ele><time>2026-04-26T16:44:41Z</time></trkpt><trkpt lat="39.55602868521935" lon="15.87904919503793"><ele>83.5</ele><time>2026-04-26T16:44:42Z</time></trkpt><trkpt lat="39.55591713056748" lon="15.879162149166353"><ele>80.0</ele><time>2026-04-26T16:44:43Z</time></trkpt><trkpt lat="39.55580112847546" lon="15.879277686823986"><ele>79.0</ele><time>2026-04-26T16:44:44Z</time></trkpt><trkpt lat="39.55567638314083" lon="15.879406212594235"><ele>78.0</ele><time>2026-04-26T16:44:45.059Z</time></trkpt><trkpt lat="39.55554965234513" lon="15.879538933264458"><ele>77.0</ele><time>2026-04-26T16:44:46.057Z</time></trkpt><trkpt lat="39.55542280893073" lon="15.879678734452147"><ele>76.66666666666667</ele><time>2026-04-26T16:44:47.053Z</time></trkpt><trkpt lat="39.55529023255205" lon="15.879817460747065"><ele>76.33333333333333</ele><time>2026-04-26T16:44:48.047Z</time></trkpt><trkpt lat="39.55513936620461" lon="15.879925392795352"><ele>76.0</ele><time>2026-04-26T16:44:49Z</time></trkpt><trkpt lat="39.55490618809579" lon="15.880217241233062"><ele>76.0</ele><time>2026-04-26T16:44:50Z</time></trkpt><trkpt lat="39.55481884442407" lon="15.880300611099313"><ele>76.0</ele><time>2026-04-26T16:44:51Z</time></trkpt><trkpt lat="39.55474897942865" lon="15.880362063123881"><ele>76.0</ele><time>2026-04-26T16:44:52Z</time></trkpt><trkpt lat="39.55457853044359" lon="15.880502319482607"><ele>76.0</ele><time>2026-04-26T16:44:54Z</time></trkpt><trkpt lat="39.55443936309839" lon="15.880598607114242"><ele>74.66666666666666</ele><time>2026-04-26T16:44:55Z</time></trkpt><trkpt lat="39.55429860300279" lon="15.880678478217554"><ele>73.33333333333333</ele><time>2026-04-26T16:44:56Z</time></trkpt><trkpt lat="39.55415127193082" lon="15.880749842859695"><ele>72.0</ele><time>2026-04-26T16:44:57Z</time></trkpt><trkpt lat="39.554007349874894" lon="15.880820065680005"><ele>72.0</ele><time>2026-04-26T16:44:58Z</time></trkpt><trkpt lat="39.553869171454636" lon="15.880886146917991"><ele>72.0</ele><time>2026-04-26T16:44:59Z</time></trkpt><trkpt lat="39.55373133253195" lon="15.880958586735673"><ele>72.0</ele><time>2026-04-26T16:45:00Z</time></trkpt><trkpt lat="39.55359226082438" lon="15.881022360473501"><ele>72.0</ele><time>2026-04-26T16:45:01Z</time></trkpt><trkpt lat="39.55345269714781" lon="15.881085776980347"><ele>75.66666666666667</ele><time>2026-04-26T16:45:02Z</time></trkpt><trkpt lat="39.55330813170683" lon="15.88114038695049"><ele>79.33333333333334</ele><time>2026-04-26T16:45:03Z</time></trkpt><trkpt lat="39.55315782697099" lon="15.88118971584608"><ele>83.0</ele><time>2026-04-26T16:45:04Z</time></trkpt><trkpt lat="39.55300388014966" lon="15.881218623161876"><ele>84.33333333333334</ele><time>2026-04-26T16:45:05Z</time></trkpt><trkpt lat="39.55284833315839" lon="15.881239410209908"><ele>85.66666666666667</ele><time>2026-04-26T16:45:06Z</time></trkpt><trkpt lat="39.55268910732726" lon="15.881255068879993"><ele>87.0</ele><time>2026-04-26T16:45:07Z</time></trkpt><trkpt lat="39.55252798535757" lon="15.881248963421767"><ele>87.0</ele><time>2026-04-26T16:45:08Z</time></trkpt><trkpt lat="39.552361109116944" lon="15.881237591516724"><ele>87.0</ele><time>2026-04-26T16:45:09Z</time></trkpt><trkpt lat="39.55219248607606" lon="15.881236606526265"><ele>87.0</ele><time>2026-04-26T16:45:10Z</time></trkpt><trkpt lat="39.55202634803229" lon="15.881236226768246"><ele>88.0</ele><time>2026-04-26T16:45:11Z</time></trkpt><trkpt lat="39.55185555013098" lon="15.881234795936873"><ele>89.0</ele><time>2026-04-26T16:45:11.999Z</time></trkpt><trkpt lat="39.55168642234597" lon="15.881231788754848"><ele>90.0</ele><time>2026-04-26T16:45:12.999Z</time></trkpt><trkpt lat="39.551525164480665" lon="15.881226358027877"><ele>90.0</ele><time>2026-04-26T16:45:13.999Z</time></trkpt><trkpt lat="39.55137083157611" lon="15.881222064063858"><ele>90.0</ele><time>2026-04-26T16:45:14.999Z</time></trkpt><trkpt lat="39.55121416583295" lon="15.881225742130288"><ele>90.0</ele><time>2026-04-26T16:45:15.999Z</time></trkpt><trkpt lat="39.55105747502934" lon="15.881225941281718"><ele>87.0</ele><time>2026-04-26T16:45:16.999Z</time></trkpt><trkpt lat="39.55090725308266" lon="15.881228283939656"><ele>84.0</ele><time>2026-04-26T16:45:17.999Z</time></trkpt><trkpt lat="39.55075518590791" lon="15.881236910620407"><ele>81.0</ele><time>2026-04-26T16:45:18.999Z</time></trkpt><trkpt lat="39.55060388477354" lon="15.881256604302669"><ele>81.0</ele><time>2026-04-26T16:45:19.999Z</time></trkpt><trkpt lat="39.55045035755905" lon="15.881281262138902"><ele>81.0</ele><time>2026-04-26T16:45:20.999Z</time></trkpt><trkpt lat="39.55029528595497" lon="15.881322117650743"><ele>81.0</ele><time>2026-04-26T16:45:21.999Z</time></trkpt><trkpt lat="39.55014224973387" lon="15.881380448996625"><ele>77.66666666666667</ele><time>2026-04-26T16:45:22.999Z</time></trkpt><trkpt lat="39.549987289051856" lon="15.881442153936684"><ele>74.33333333333334</ele><time>2026-04-26T16:45:23.999Z</time></trkpt><trkpt lat="39.54983299923572" lon="15.881513927851959"><ele>71.0</ele><time>2026-04-26T16:45:24.999Z</time></trkpt><trkpt lat="39.549679634537874" lon="15.88159808811972"><ele>74.66666666666667</ele><time>2026-04-26T16:45:25.999Z</time></trkpt><trkpt lat="39.54952763097553" lon="15.881691918331196"><ele>78.33333333333333</ele><time>2026-04-26T16:45:26.999Z</time></trkpt><trkpt lat="39.549374148640375" lon="15.881786081330784"><ele>82.0</ele><time>2026-04-26T16:45:27.999Z</time></trkpt><trkpt lat="39.549223171602456" lon="15.881880799777827"><ele>82.0</ele><time>2026-04-26T16:45:28.999Z</time></trkpt><trkpt lat="39.549072751972716" lon="15.881972477911976"><ele>82.0</ele><time>2026-04-26T16:45:29.999Z</time></trkpt><trkpt lat="39.54892262171333" lon="15.882063697464545"><ele>82.0</ele><time>2026-04-26T16:45:30.999Z</time></trkpt><trkpt lat="39.54877480552261" lon="15.882154112811486"><ele>77.66666666666666</ele><time>2026-04-26T16:45:31.999Z</time></trkpt><trkpt lat="39.54862755436995" lon="15.882242499253922"><ele>73.33333333333333</ele><time>2026-04-26T16:45:32.999Z</time></trkpt><trkpt lat="39.54847947037462" lon="15.882327445089992"><ele>69.0</ele><time>2026-04-26T16:45:33.999Z</time></trkpt><trkpt lat="39.548330331433185" lon="15.88241767009108"><ele>69.0</ele><time>2026-04-26T16:45:34.999Z</time></trkpt><trkpt lat="39.548178758207506" lon="15.882510184088975"><ele>69.0</ele><time>2026-04-26T16:45:35.999Z</time></trkpt><trkpt lat="39.54802193244335" lon="15.882602041747933"><ele>69.0</ele><time>2026-04-26T16:45:36.999Z</time></trkpt><trkpt lat="39.54786804333435" lon="15.882697615083355"><ele>72.66666666666667</ele><time>2026-04-26T16:45:37.999Z</time></trkpt><trkpt lat="39.547715255304425" lon="15.882794451501447"><ele>76.33333333333334</ele><time>2026-04-26T16:45:38.999Z</time></trkpt><trkpt lat="39.54756458907846" lon="15.88288725905426"><ele>80.0</ele><time>2026-04-26T16:45:39.999Z</time></trkpt><trkpt lat="39.547418765027004" lon="15.882975181472613"><ele>80.0</ele><time>2026-04-26T16:45:40.999Z</time></trkpt><trkpt lat="39.5472801667083" lon="15.88306284716166"><ele>80.0</ele><time>2026-04-26T16:45:41.999Z</time></trkpt><trkpt lat="39.54714481838249" lon="15.88315556829581"><ele>80.0</ele><time>2026-04-26T16:45:42.999Z</time></trkpt><trkpt lat="39.54701243862368" lon="15.88326347006284"><ele>78.0</ele><time>2026-04-26T16:45:43.999Z</time></trkpt><trkpt lat="39.54688042216789" lon="15.883388010407046"><ele>76.0</ele><time>2026-04-26T16:45:44.999Z</time></trkpt><trkpt lat="39.546749777483974" lon="15.883524833379358"><ele>74.0</ele><time>2026-04-26T16:45:45.999Z</time></trkpt><trkpt lat="39.54662176704987" lon="15.8836739041136"><ele>74.0</ele><time>2026-04-26T16:45:46.999Z</time></trkpt><trkpt lat="39.546497510089004" lon="15.883832992018059"><ele>74.0</ele><time>2026-04-26T16:45:47.999Z</time></trkpt><trkpt lat="39.54637837005933" lon="15.88399859293577"><ele>74.0</ele><time>2026-04-26T16:45:48.999Z</time></trkpt><trkpt lat="39.54626556356401" lon="15.884170954861824"><ele>83.0</ele><time>2026-04-26T16:45:49.999Z</time></trkpt><trkpt lat="39.54616798488769" lon="15.884341938962056"><ele>92.0</ele><time>2026-04-26T16:45:50.999Z</time></trkpt><trkpt lat="39.54608100078533" lon="15.884509417586655"><ele>101.0</ele><time>2026-04-26T16:45:51.999Z</time></trkpt><trkpt lat="39.54599533401525" lon="15.884671975518353"><ele>101.0</ele><time>2026-04-26T16:45:52.999Z</time></trkpt><trkpt lat="39.54590892472657" lon="15.884833065967104"><ele>101.0</ele><time>2026-04-26T16:45:53.999Z</time></trkpt><trkpt lat="39.54581797433235" lon="15.884996187274261"><ele>101.0</ele><time>2026-04-26T16:45:54.999Z</time></trkpt><trkpt lat="39.545724517657455" lon="15.88515906323374"><ele>100.66666666666666</ele><time>2026-04-26T16:45:55.999Z</time></trkpt><trkpt lat="39.545631131677" lon="15.885321837584522"><ele>100.33333333333334</ele><time>2026-04-26T16:45:56.999Z</time></trkpt><trkpt lat="39.54553135187536" lon="15.885501570785715"><ele>100.0</ele><time>2026-04-26T16:45:58.064Z</time></trkpt><trkpt lat="39.54543973291282" lon="15.885666640553154"><ele>88.66666666666667</ele><time>2026-04-26T16:45:59.057Z</time></trkpt><trkpt lat="39.5453481615102" lon="15.885830559881418"><ele>77.33333333333334</ele><time>2026-04-26T16:46:00.057Z</time></trkpt><trkpt lat="39.54525654942672" lon="15.885994678788125"><ele>66.0</ele><time>2026-04-26T16:46:01.06Z</time></trkpt><trkpt lat="39.54494156634254" lon="15.886678032244962"><ele>67.66666666666667</ele><time>2026-04-26T16:46:04.999Z</time></trkpt><trkpt lat="39.54487067046454" lon="15.886859119797569"><ele>69.33333333333334</ele><time>2026-04-26T16:46:05.999Z</time></trkpt><trkpt lat="39.54478931750224" lon="15.887075918552197"><ele>71.0</ele><time>2026-04-26T16:46:06.999Z</time></trkpt><trkpt lat="39.544708116195956" lon="15.887292776938759"><ele>71.0</ele><time>2026-04-26T16:46:07.999Z</time></trkpt><trkpt lat="39.544657086002395" lon="15.88752490176455"><ele>71.0</ele><time>2026-04-26T16:46:08.999Z</time></trkpt><trkpt lat="39.544614469494974" lon="15.887729526001982"><ele>71.0</ele><time>2026-04-26T16:46:09.999Z</time></trkpt><trkpt lat="39.54458318597854" lon="15.88792050319279"><ele>67.66666666666667</ele><time>2026-04-26T16:46:11Z</time></trkpt><trkpt lat="39.54453396251619" lon="15.888118713265857"><ele>64.33333333333333</ele><time>2026-04-26T16:46:12Z</time></trkpt><trkpt lat="39.54448500820424" lon="15.888314969897973"><ele>61.0</ele><time>2026-04-26T16:46:13Z</time></trkpt><trkpt lat="39.544437556027226" lon="15.888509074028322"><ele>61.0</ele><time>2026-04-26T16:46:14Z</time></trkpt><trkpt lat="39.54438936069417" lon="15.888696799073456"><ele>61.0</ele><time>2026-04-26T16:46:15Z</time></trkpt><trkpt lat="39.54433715624218" lon="15.888875780120062"><ele>61.0</ele><time>2026-04-26T16:46:16Z</time></trkpt><trkpt lat="39.54428180764693" lon="15.889042531880134"><ele>61.0</ele><time>2026-04-26T16:46:17Z</time></trkpt><trkpt lat="39.544221796382814" lon="15.889202721206102"><ele>65.0</ele><time>2026-04-26T16:46:18Z</time></trkpt><trkpt lat="39.54415622237475" lon="15.889356630794756"><ele>69.0</ele><time>2026-04-26T16:46:19Z</time></trkpt><trkpt lat="39.54408497650407" lon="15.889505852070103"><ele>73.0</ele><time>2026-04-26T16:46:20Z</time></trkpt><trkpt lat="39.5440080432162" lon="15.889654911913778"><ele>77.0</ele><time>2026-04-26T16:46:21Z</time></trkpt><trkpt lat="39.543924011017324" lon="15.889805731874082"><ele>77.0</ele><time>2026-04-26T16:46:22Z</time></trkpt><trkpt lat="39.54382929480572" lon="15.889964228420705"><ele>77.0</ele><time>2026-04-26T16:46:23Z</time></trkpt><trkpt lat="39.543728279253145" lon="15.890126047281079"><ele>77.0</ele><time>2026-04-26T16:46:24Z</time></trkpt><trkpt lat="39.5436267149307" lon="15.890291640548742"><ele>76.66666666666667</ele><time>2026-04-26T16:46:25Z</time></trkpt><trkpt lat="39.543529472874866" lon="15.890456140526947"><ele>76.33333333333333</ele><time>2026-04-26T16:46:26Z</time></trkpt><trkpt lat="39.54343169199573" lon="15.890621534159806"><ele>76.0</ele><time>2026-04-26T16:46:27Z</time></trkpt><trkpt lat="39.54333492375667" lon="15.89079439880332"><ele>80.0</ele><time>2026-04-26T16:46:28Z</time></trkpt><trkpt lat="39.543237487951814" lon="15.890976835397597"><ele>84.0</ele><time>2026-04-26T16:46:29Z</time></trkpt><trkpt lat="39.54313950246438" lon="15.89115792204083"><ele>88.0</ele><time>2026-04-26T16:46:30Z</time></trkpt><trkpt lat="39.54304048074647" lon="15.891322944045344"><ele>88.0</ele><time>2026-04-26T16:46:31Z</time></trkpt><trkpt lat="39.54294739431206" lon="15.891476633930823"><ele>88.0</ele><time>2026-04-26T16:46:32Z</time></trkpt><trkpt lat="39.54283888537623" lon="15.89164215758914"><ele>88.0</ele><time>2026-04-26T16:46:33Z</time></trkpt><trkpt lat="39.54272502229455" lon="15.89183482003869"><ele>74.66666666666666</ele><time>2026-04-26T16:46:34Z</time></trkpt><trkpt lat="39.54261151975032" lon="15.892052975313996"><ele>61.33333333333333</ele><time>2026-04-26T16:46:35Z</time></trkpt><trkpt lat="39.54247314606134" lon="15.892269167175497"><ele>48.0</ele><time>2026-04-26T16:46:36Z</time></trkpt><trkpt lat="39.54233661386674" lon="15.892485715060555"><ele>48.33333333333333</ele><time>2026-04-26T16:46:37Z</time></trkpt><trkpt lat="39.54220507840125" lon="15.892704293676854"><ele>48.666666666666664</ele><time>2026-04-26T16:46:38Z</time></trkpt><trkpt lat="39.54207566276585" lon="15.892923653448674"><ele>49.0</ele><time>2026-04-26T16:46:39Z</time></trkpt><trkpt lat="39.54194925443555" lon="15.89314175828691"><ele>55.33333333333333</ele><time>2026-04-26T16:46:40Z</time></trkpt><trkpt lat="39.54182540477849" lon="15.893344334717641"><ele>61.66666666666667</ele><time>2026-04-26T16:46:41Z</time></trkpt><trkpt lat="39.5416990220631" lon="15.893533928636014"><ele>68.0</ele><time>2026-04-26T16:46:42Z</time></trkpt><trkpt lat="39.54156848090177" lon="15.893702769788742"><ele>74.33333333333334</ele><time>2026-04-26T16:46:43Z</time></trkpt><trkpt lat="39.5414377506042" lon="15.89384924420524"><ele>80.66666666666667</ele><time>2026-04-26T16:46:44Z</time></trkpt><trkpt lat="39.54130423385407" lon="15.893980949247975"><ele>87.0</ele><time>2026-04-26T16:46:45Z</time></trkpt><trkpt lat="39.54117451314341" lon="15.89410247065585"><ele>87.0</ele><time>2026-04-26T16:46:46Z</time></trkpt><trkpt lat="39.54105063529545" lon="15.894215963960074"><ele>87.0</ele><time>2026-04-26T16:46:47Z</time></trkpt><trkpt lat="39.54092870352279" lon="15.894325576004352"><ele>87.0</ele><time>2026-04-26T16:46:48Z</time></trkpt><trkpt lat="39.54081066357013" lon="15.894426385612935"><ele>87.0</ele><time>2026-04-26T16:46:49Z</time></trkpt><trkpt lat="39.54069951292397" lon="15.89452068038659"><ele>87.5</ele><time>2026-04-26T16:46:50Z</time></trkpt><trkpt lat="39.540592189789315" lon="15.894612381672072"><ele>88.0</ele><time>2026-04-26T16:46:51Z</time></trkpt><trkpt lat="39.54048903454987" lon="15.894704423589696"><ele>88.5</ele><time>2026-04-26T16:46:52Z</time></trkpt><trkpt lat="39.54038554470164" lon="15.894803597301758"><ele>89.0</ele><time>2026-04-26T16:46:53Z</time></trkpt><trkpt lat="39.54028509418355" lon="15.894904145132415"><ele>89.0</ele><time>2026-04-26T16:46:54Z</time></trkpt><trkpt lat="39.54018744152417" lon="15.895012230806524"><ele>89.0</ele><time>2026-04-26T16:46:55Z</time></trkpt><trkpt lat="39.540094963386096" lon="15.895129372159857"><ele>89.0</ele><time>2026-04-26T16:46:56Z</time></trkpt><trkpt lat="39.540007361763934" lon="15.895255017542448"><ele>89.0</ele><time>2026-04-26T16:46:57Z</time></trkpt><trkpt lat="39.53992430872062" lon="15.895387732413852"><ele>93.75</ele><time>2026-04-26T16:46:58Z</time></trkpt><trkpt lat="39.53984351495901" lon="15.895525660956157"><ele>98.5</ele><time>2026-04-26T16:46:59Z</time></trkpt><trkpt lat="39.53976771659719" lon="15.895666578900158"><ele>103.25</ele><time>2026-04-26T16:47:00Z</time></trkpt><trkpt lat="39.539697615862764" lon="15.89581444597568"><ele>108.0</ele><time>2026-04-26T16:47:01Z</time></trkpt><trkpt lat="39.539633799866955" lon="15.89596387984529"><ele>110.75</ele><time>2026-04-26T16:47:02Z</time></trkpt><trkpt lat="39.53957569999555" lon="15.896119351714113"><ele>113.5</ele><time>2026-04-26T16:47:03Z</time></trkpt><trkpt lat="39.539525628725954" lon="15.896278370446389"><ele>116.25</ele><time>2026-04-26T16:47:04Z</time></trkpt><trkpt lat="39.5394811158627" lon="15.896439275831668"><ele>119.0</ele><time>2026-04-26T16:47:05Z</time></trkpt><trkpt lat="39.53944018891962" lon="15.896606770316335"><ele>109.5</ele><time>2026-04-26T16:47:06Z</time></trkpt><trkpt lat="39.5394036402889" lon="15.896773651646903"><ele>100.0</ele><time>2026-04-26T16:47:07Z</time></trkpt><trkpt lat="39.539373310883676" lon="15.896943091157947"><ele>90.5</ele><time>2026-04-26T16:47:08Z</time></trkpt><trkpt lat="39.53935080113928" lon="15.897115630353527"><ele>81.0</ele><time>2026-04-26T16:47:09Z</time></trkpt><trkpt lat="39.539330343737504" lon="15.897290617998712"><ele>81.0</ele><time>2026-04-26T16:47:10Z</time></trkpt><trkpt lat="39.539308261597554" lon="15.897466063063163"><ele>81.0</ele><time>2026-04-26T16:47:11Z</time></trkpt><trkpt lat="39.53928619884872" lon="15.897642372197181"><ele>81.0</ele><time>2026-04-26T16:47:12Z</time></trkpt><trkpt lat="39.539268339624805" lon="15.897821541590908"><ele>81.0</ele><time>2026-04-26T16:47:13Z</time></trkpt><trkpt lat="39.539250266425" lon="15.898002090908873"><ele>84.0</ele><time>2026-04-26T16:47:14Z</time></trkpt><trkpt lat="39.539228597680136" lon="15.898183649966759"><ele>87.0</ele><time>2026-04-26T16:47:15Z</time></trkpt><trkpt lat="39.53920882304053" lon="15.89836864016754"><ele>90.0</ele><time>2026-04-26T16:47:16Z</time></trkpt><trkpt lat="39.5391898692782" lon="15.898554381387116"><ele>93.0</ele><time>2026-04-26T16:47:16.999Z</time></trkpt><trkpt lat="39.53917560768326" lon="15.898742368429554"><ele>95.5</ele><time>2026-04-26T16:47:17.999Z</time></trkpt><trkpt lat="39.53915779309732" lon="15.898929594763295"><ele>98.0</ele><time>2026-04-26T16:47:18.999Z</time></trkpt><trkpt lat="39.539138298002655" lon="15.899118946201977"><ele>100.5</ele><time>2026-04-26T16:47:19.999Z</time></trkpt><trkpt lat="39.5391169781868" lon="15.89930963347577"><ele>103.0</ele><time>2026-04-26T16:47:20.999Z</time></trkpt><trkpt lat="39.539095488137704" lon="15.899500930171344"><ele>105.0</ele><time>2026-04-26T16:47:21.999Z</time></trkpt><trkpt lat="39.53906838042862" lon="15.899690645632358"><ele>107.0</ele><time>2026-04-26T16:47:22.999Z</time></trkpt><trkpt lat="39.53903644456869" lon="15.899878470770597"><ele>109.0</ele><time>2026-04-26T16:47:23.999Z</time></trkpt><trkpt lat="39.53899853004185" lon="15.900063973623427"><ele>111.0</ele><time>2026-04-26T16:47:24.999Z</time></trkpt><trkpt lat="39.53896001398191" lon="15.900248652811458"><ele>112.5</ele><time>2026-04-26T16:47:25.999Z</time></trkpt><trkpt lat="39.53892279115362" lon="15.900435156858071"><ele>114.0</ele><time>2026-04-26T16:47:26.999Z</time></trkpt><trkpt lat="39.53888544020235" lon="15.90062009336365"><ele>115.5</ele><time>2026-04-26T16:47:27.999Z</time></trkpt><trkpt lat="39.53884938152916" lon="15.90080373019474"><ele>117.0</ele><time>2026-04-26T16:47:28.999Z</time></trkpt><trkpt lat="39.5388156474042" lon="15.900986748202165"><ele>117.0</ele><time>2026-04-26T16:47:29.999Z</time></trkpt><trkpt lat="39.538792507610864" lon="15.901169982211163"><ele>117.0</ele><time>2026-04-26T16:47:30.999Z</time></trkpt><trkpt lat="39.53877227622737" lon="15.901351416806538"><ele>117.0</ele><time>2026-04-26T16:47:31.999Z</time></trkpt><trkpt lat="39.53875369330117" lon="15.901533689401779"><ele>117.0</ele><time>2026-04-26T16:47:32.999Z</time></trkpt><trkpt lat="39.53874022933963" lon="15.901715342286334"><ele>117.75</ele><time>2026-04-26T16:47:33.999Z</time></trkpt><trkpt lat="39.53873681981829" lon="15.901898544757755"><ele>118.5</ele><time>2026-04-26T16:47:34.999Z</time></trkpt><trkpt lat="39.53874180484626" lon="15.90208330897875"><ele>119.25</ele><time>2026-04-26T16:47:35.999Z</time></trkpt><trkpt lat="39.53874551332095" lon="15.902273375970667"><ele>120.0</ele><time>2026-04-26T16:47:36.999Z</time></trkpt><trkpt lat="39.538750623227834" lon="15.90246582223133"><ele>123.0</ele><time>2026-04-26T16:47:37.999Z</time></trkpt><trkpt lat="39.538755157561795" lon="15.902655926655337"><ele>126.0</ele><time>2026-04-26T16:47:38.999Z</time></trkpt><trkpt lat="39.53875685045534" lon="15.90285431386995"><ele>129.0</ele><time>2026-04-26T16:47:39.999Z</time></trkpt><trkpt lat="39.53876017108737" lon="15.903051519934841"><ele>129.0</ele><time>2026-04-26T16:47:40.999Z</time></trkpt><trkpt lat="39.538763299388975" lon="15.90323313648535"><ele>129.0</ele><time>2026-04-26T16:47:41.999Z</time></trkpt><trkpt lat="39.53876328919579" lon="15.903406288298276"><ele>129.0</ele><time>2026-04-26T16:47:42.999Z</time></trkpt><trkpt lat="39.53876382161992" lon="15.903568569199829"><ele>129.0</ele><time>2026-04-26T16:47:43.999Z</time></trkpt><trkpt lat="39.53876470137289" lon="15.90372054947476"><ele>130.0</ele><time>2026-04-26T16:47:44.999Z</time></trkpt><trkpt lat="39.53876676808634" lon="15.90386704376618"><ele>131.0</ele><time>2026-04-26T16:47:45.999Z</time></trkpt><trkpt lat="39.53876736663806" lon="15.904020763968232"><ele>132.0</ele><time>2026-04-26T16:47:46.999Z</time></trkpt><trkpt lat="39.538764967789945" lon="15.904181057245944"><ele>133.0</ele><time>2026-04-26T16:47:47.999Z</time></trkpt><trkpt lat="39.538767846708716" lon="15.904347577430903"><ele>133.0</ele><time>2026-04-26T16:47:48.999Z</time></trkpt><trkpt lat="39.53877224123482" lon="15.904518786981056"><ele>133.0</ele><time>2026-04-26T16:47:49.999Z</time></trkpt><trkpt lat="39.5387747874857" lon="15.904695039608738"><ele>133.0</ele><time>2026-04-26T16:47:50.999Z</time></trkpt><trkpt lat="39.53877617723675" lon="15.904876000682334"><ele>133.0</ele><time>2026-04-26T16:47:51.999Z</time></trkpt><trkpt lat="39.538777058102205" lon="15.905058698295628"><ele>134.25</ele><time>2026-04-26T16:47:52.999Z</time></trkpt><trkpt lat="39.53877370313627" lon="15.905242561165602"><ele>135.5</ele><time>2026-04-26T16:47:53.999Z</time></trkpt><trkpt lat="39.53876575313852" lon="15.905425757120499"><ele>136.75</ele><time>2026-04-26T16:47:54.999Z</time></trkpt><trkpt lat="39.538757372829785" lon="15.905608866607047"><ele>138.0</ele><time>2026-04-26T16:47:55.999Z</time></trkpt><trkpt lat="39.53875164482145" lon="15.905789576881292"><ele>137.75</ele><time>2026-04-26T16:47:56.999Z</time></trkpt><trkpt lat="39.538744365949476" lon="15.905968623010267"><ele>137.5</ele><time>2026-04-26T16:47:57.999Z</time></trkpt><trkpt lat="39.538733957918176" lon="15.906146528124589"><ele>137.25</ele><time>2026-04-26T16:47:58.999Z</time></trkpt><trkpt lat="39.538718175378804" lon="15.906321335865627"><ele>137.0</ele><time>2026-04-26T16:47:59.999Z</time></trkpt><trkpt lat="39.53869237825156" lon="15.906492890343173"><ele>130.5</ele><time>2026-04-26T16:48:00.999Z</time></trkpt><trkpt lat="39.53866205297866" lon="15.90666438411963"><ele>124.0</ele><time>2026-04-26T16:48:01.999Z</time></trkpt><trkpt lat="39.538625564631914" lon="15.9068326349174"><ele>117.5</ele><time>2026-04-26T16:48:02.999Z</time></trkpt><trkpt lat="39.538581227644194" lon="15.906998380956404"><ele>111.0</ele><time>2026-04-26T16:48:03.999Z</time></trkpt><trkpt lat="39.53853069460586" lon="15.907160873765713"><ele>111.0</ele><time>2026-04-26T16:48:04.999Z</time></trkpt><trkpt lat="39.53847813178173" lon="15.907321312601509"><ele>111.0</ele><time>2026-04-26T16:48:05.999Z</time></trkpt><trkpt lat="39.538428157254614" lon="15.907485179085862"><ele>111.0</ele><time>2026-04-26T16:48:06.999Z</time></trkpt><trkpt lat="39.53837902287415" lon="15.907647478341708"><ele>111.0</ele><time>2026-04-26T16:48:07.999Z</time></trkpt><trkpt lat="39.53832956446352" lon="15.907811203143464"><ele>111.5</ele><time>2026-04-26T16:48:08.999Z</time></trkpt><trkpt lat="39.53827897703017" lon="15.907975459339973"><ele>112.0</ele><time>2026-04-26T16:48:09.999Z</time></trkpt><trkpt lat="39.538228556111555" lon="15.908143738815971"><ele>112.5</ele><time>2026-04-26T16:48:10.999Z</time></trkpt><trkpt lat="39.53817680079855" lon="15.908318295430101"><ele>113.0</ele><time>2026-04-26T16:48:11.999Z</time></trkpt><trkpt lat="39.5381222622783" lon="15.90849591292717"><ele>113.0</ele><time>2026-04-26T16:48:12.999Z</time></trkpt><trkpt lat="39.53806692203466" lon="15.908678385651132"><ele>113.0</ele><time>2026-04-26T16:48:13.999Z</time></trkpt><trkpt lat="39.53800973956021" lon="15.90886539731002"><ele>113.0</ele><time>2026-04-26T16:48:14.999Z</time></trkpt><trkpt lat="39.53795334427059" lon="15.909056675907818"><ele>116.33333333333333</ele><time>2026-04-26T16:48:16Z</time></trkpt><trkpt lat="39.53789522229538" lon="15.90924949581321"><ele>119.66666666666666</ele><time>2026-04-26T16:48:17Z</time></trkpt><trkpt lat="39.537836984426754" lon="15.909444467907482"><ele>123.0</ele><time>2026-04-26T16:48:18Z</time></trkpt><trkpt lat="39.53777945279796" lon="15.909639074039255"><ele>115.66666666666666</ele><time>2026-04-26T16:48:19Z</time></trkpt><trkpt lat="39.53772140510143" lon="15.90982648845946"><ele>108.33333333333333</ele><time>2026-04-26T16:48:20Z</time></trkpt><trkpt lat="39.537663058778456" lon="15.910008812227167"><ele>101.0</ele><time>2026-04-26T16:48:21Z</time></trkpt><trkpt lat="39.53760762867029" lon="15.910185103482473"><ele>101.0</ele><time>2026-04-26T16:48:22Z</time></trkpt><trkpt lat="39.53755327675493" lon="15.910363835768008"><ele>101.0</ele><time>2026-04-26T16:48:23Z</time></trkpt><trkpt lat="39.537496187487626" lon="15.9105466979709"><ele>101.0</ele><time>2026-04-26T16:48:24Z</time></trkpt><trkpt lat="39.53743784108608" lon="15.910730195305133"><ele>102.0</ele><time>2026-04-26T16:48:25Z</time></trkpt><trkpt lat="39.53737958653245" lon="15.910914825705436"><ele>103.0</ele><time>2026-04-26T16:48:26Z</time></trkpt><trkpt lat="39.53731943355063" lon="15.911100153038884"><ele>104.0</ele><time>2026-04-26T16:48:27Z</time></trkpt><trkpt lat="39.53725395081794" lon="15.911280860994491"><ele>104.0</ele><time>2026-04-26T16:48:28Z</time></trkpt><trkpt lat="39.53718345864812" lon="15.911452714695445"><ele>104.0</ele><time>2026-04-26T16:48:29Z</time></trkpt><trkpt lat="39.537111092756234" lon="15.911618960118775"><ele>104.0</ele><time>2026-04-26T16:48:30Z</time></trkpt><trkpt lat="39.53703925541684" lon="15.911779084760251"><ele>104.0</ele><time>2026-04-26T16:48:31Z</time></trkpt><trkpt lat="39.53696541162535" lon="15.91193341878783"><ele>99.25</ele><time>2026-04-26T16:48:32Z</time></trkpt><trkpt lat="39.5368900319765" lon="15.91208623398781"><ele>94.5</ele><time>2026-04-26T16:48:33Z</time></trkpt><trkpt lat="39.536815470615366" lon="15.912239806062443"><ele>89.75</ele><time>2026-04-26T16:48:34Z</time></trkpt><trkpt lat="39.536738962937584" lon="15.912398471634317"><ele>85.0</ele><time>2026-04-26T16:48:35Z</time></trkpt><trkpt lat="39.53666106705046" lon="15.912561328550341"><ele>89.0</ele><time>2026-04-26T16:48:36Z</time></trkpt><trkpt lat="39.53658581333857" lon="15.91271937669124"><ele>93.0</ele><time>2026-04-26T16:48:37Z</time></trkpt><trkpt lat="39.53651306893867" lon="15.912870618334612"><ele>97.0</ele><time>2026-04-26T16:48:38Z</time></trkpt><trkpt lat="39.53644035754526" lon="15.91301424424693"><ele>101.0</ele><time>2026-04-26T16:48:39Z</time></trkpt><trkpt lat="39.536368421255624" lon="15.91315648525976"><ele>101.0</ele><time>2026-04-26T16:48:40Z</time></trkpt><trkpt lat="39.53629601070634" lon="15.913298974250464"><ele>101.0</ele><time>2026-04-26T16:48:41Z</time></trkpt><trkpt lat="39.5362216667761" lon="15.913438366998136"><ele>101.0</ele><time>2026-04-26T16:48:42Z</time></trkpt><trkpt lat="39.53614154756453" lon="15.913577098242929"><ele>101.0</ele><time>2026-04-26T16:48:43Z</time></trkpt><trkpt lat="39.53605467980898" lon="15.913710421612343"><ele>97.0</ele><time>2026-04-26T16:48:44Z</time></trkpt><trkpt lat="39.535961631653265" lon="15.913839294528442"><ele>93.0</ele><time>2026-04-26T16:48:45Z</time></trkpt><trkpt lat="39.53586376669942" lon="15.913963982608886"><ele>89.0</ele><time>2026-04-26T16:48:46Z</time></trkpt><trkpt lat="39.5357629555037" lon="15.9140830670507"><ele>85.0</ele><time>2026-04-26T16:48:47Z</time></trkpt><trkpt lat="39.53565617878397" lon="15.91419240028163"><ele>84.5</ele><time>2026-04-26T16:48:48Z</time></trkpt><trkpt lat="39.535538674910654" lon="15.914292065777861"><ele>84.0</ele><time>2026-04-26T16:48:49Z</time></trkpt><trkpt lat="39.535414843582565" lon="15.914395062877157"><ele>83.5</ele><time>2026-04-26T16:48:50Z</time></trkpt><trkpt lat="39.53529233794954" lon="15.914500239517675"><ele>83.0</ele><time>2026-04-26T16:48:51Z</time></trkpt><trkpt lat="39.53516721330673" lon="15.914599756761248"><ele>83.0</ele><time>2026-04-26T16:48:52Z</time></trkpt><trkpt lat="39.535035060687164" lon="15.914690084393905"><ele>83.0</ele><time>2026-04-26T16:48:53Z</time></trkpt><trkpt lat="39.53489575836483" lon="15.914777470531012"><ele>83.0</ele><time>2026-04-26T16:48:54Z</time></trkpt><trkpt lat="39.53475678076576" lon="15.914868541104752"><ele>83.0</ele><time>2026-04-26T16:48:55Z</time></trkpt><trkpt lat="39.53462051341785" lon="15.914975184007618"><ele>83.0</ele><time>2026-04-26T16:48:56Z</time></trkpt><trkpt lat="39.53448671051414" lon="15.91508987317141"><ele>83.0</ele><time>2026-04-26T16:48:57Z</time></trkpt><trkpt lat="39.53435333798513" lon="15.915214487064386"><ele>80.66666666666667</ele><time>2026-04-26T16:48:58Z</time></trkpt><trkpt lat="39.53422402361043" lon="15.915349956928225"><ele>78.33333333333333</ele><time>2026-04-26T16:48:59Z</time></trkpt><trkpt lat="39.53409938725504" lon="15.915494744886258"><ele>76.0</ele><time>2026-04-26T16:49:00Z</time></trkpt><trkpt lat="39.533976904466265" lon="15.915643720752268"><ele>76.0</ele><time>2026-04-26T16:49:01Z</time></trkpt><trkpt lat="39.53386175520692" lon="15.915804683301914"><ele>76.0</ele><time>2026-04-26T16:49:02Z</time></trkpt><trkpt lat="39.53375685219269" lon="15.915979159827812"><ele>76.0</ele><time>2026-04-26T16:49:03Z</time></trkpt><trkpt lat="39.53365538201007" lon="15.91616116211667"><ele>63.33333333333333</ele><time>2026-04-26T16:49:04Z</time></trkpt><trkpt lat="39.533551918925056" lon="15.916347407252637"><ele>50.666666666666664</ele><time>2026-04-26T16:49:05Z</time></trkpt><trkpt lat="39.5334469220952" lon="15.91653637152996"><ele>38.0</ele><time>2026-04-26T16:49:06Z</time></trkpt><trkpt lat="39.53333998460202" lon="15.916722625580269"><ele>34.666666666666664</ele><time>2026-04-26T16:49:07Z</time></trkpt><trkpt lat="39.53323515787954" lon="15.916905722095741"><ele>31.333333333333336</ele><time>2026-04-26T16:49:08Z</time></trkpt><trkpt lat="39.533130915052965" lon="15.917084892028829"><ele>28.0</ele><time>2026-04-26T16:49:09Z</time></trkpt><trkpt lat="39.533028197782926" lon="15.917261442544278"><ele>28.0</ele><time>2026-04-26T16:49:10Z</time></trkpt><trkpt lat="39.532925199610744" lon="15.91743973189518"><ele>28.0</ele><time>2026-04-26T16:49:11Z</time></trkpt><trkpt lat="39.53282181907798" lon="15.917617760756512"><ele>28.0</ele><time>2026-04-26T16:49:12Z</time></trkpt><trkpt lat="39.532717921843044" lon="15.917797917633793"><ele>31.666666666666668</ele><time>2026-04-26T16:49:13Z</time></trkpt><trkpt lat="39.532614654954536" lon="15.917981009770758"><ele>35.333333333333336</ele><time>2026-04-26T16:49:14Z</time></trkpt><trkpt lat="39.532512179143644" lon="15.918165477502814"><ele>39.0</ele><time>2026-04-26T16:49:15Z</time></trkpt><trkpt lat="39.532408117232045" lon="15.918352990350044"><ele>47.33333333333333</ele><time>2026-04-26T16:49:16Z</time></trkpt><trkpt lat="39.53230170073691" lon="15.918542499086795"><ele>55.666666666666664</ele><time>2026-04-26T16:49:17Z</time></trkpt><trkpt lat="39.532192522767446" lon="15.918737100477172"><ele>64.0</ele><time>2026-04-26T16:49:17.999Z</time></trkpt><trkpt lat="39.5320804228058" lon="15.918932878917941"><ele>63.666666666666664</ele><time>2026-04-26T16:49:18.999Z</time></trkpt><trkpt lat="39.53196649795816" lon="15.919129820550054"><ele>63.33333333333333</ele><time>2026-04-26T16:49:19.999Z</time></trkpt><trkpt lat="39.53185348000707" lon="15.919329301163604"><ele>63.0</ele><time>2026-04-26T16:49:20.999Z</time></trkpt><trkpt lat="39.53174288897333" lon="15.91952999139624"><ele>66.33333333333333</ele><time>2026-04-26T16:49:21.999Z</time></trkpt><trkpt lat="39.53163071928866" lon="15.91972874460345"><ele>69.66666666666666</ele><time>2026-04-26T16:49:22.999Z</time></trkpt><trkpt lat="39.53151912028234" lon="15.919927768140436"><ele>73.0</ele><time>2026-04-26T16:49:23.999Z</time></trkpt><trkpt lat="39.53140519716528" lon="15.92012338110582"><ele>76.0</ele><time>2026-04-26T16:49:24.999Z</time></trkpt><trkpt lat="39.531293183238" lon="15.920317543979586"><ele>79.0</ele><time>2026-04-26T16:49:25.999Z</time></trkpt><trkpt lat="39.53118358594256" lon="15.920510511631699"><ele>82.0</ele><time>2026-04-26T16:49:26.999Z</time></trkpt><trkpt lat="39.53107460075824" lon="15.920696618534487"><ele>74.66666666666666</ele><time>2026-04-26T16:49:27.999Z</time></trkpt><trkpt lat="39.530968700033576" lon="15.920878541666541"><ele>67.33333333333333</ele><time>2026-04-26T16:49:28.999Z</time></trkpt><trkpt lat="39.53086554448067" lon="15.921059284079213"><ele>60.0</ele><time>2026-04-26T16:49:29.999Z</time></trkpt><trkpt lat="39.53075972673117" lon="15.921252053586294"><ele>60.0</ele><time>2026-04-26T16:49:31.056Z</time></trkpt><trkpt lat="39.53057428990272" lon="15.921600789652123"><ele>60.0</ele><time>2026-04-26T16:49:32.999Z</time></trkpt><trkpt lat="39.53047171341945" lon="15.921774268905978"><ele>50.0</ele><time>2026-04-26T16:49:33.999Z</time></trkpt><trkpt lat="39.53038258663153" lon="15.92197017538949"><ele>40.0</ele><time>2026-04-26T16:49:34.999Z</time></trkpt><trkpt lat="39.530306173114845" lon="15.922147783002732"><ele>30.0</ele><time>2026-04-26T16:49:35.999Z</time></trkpt><trkpt lat="39.53024014078656" lon="15.922312373819967"><ele>30.0</ele><time>2026-04-26T16:49:36.999Z</time></trkpt><trkpt lat="39.53017348805073" lon="15.922476903669969"><ele>30.0</ele><time>2026-04-26T16:49:37.999Z</time></trkpt><trkpt lat="39.530109460051854" lon="15.922643054627672"><ele>30.0</ele><time>2026-04-26T16:49:38.999Z</time></trkpt><trkpt lat="39.530048570655865" lon="15.922812846309796"><ele>30.0</ele><time>2026-04-26T16:49:39.999Z</time></trkpt><trkpt lat="39.529991215863724" lon="15.92298934953621"><ele>34.333333333333336</ele><time>2026-04-26T16:49:40.999Z</time></trkpt><trkpt lat="39.529931971560494" lon="15.92316917393439"><ele>38.66666666666667</ele><time>2026-04-26T16:49:41.999Z</time></trkpt><trkpt lat="39.52987048202322" lon="15.92335666495364"><ele>43.0</ele><time>2026-04-26T16:49:42.999Z</time></trkpt><trkpt lat="39.52980724463333" lon="15.923549203122507"><ele>46.333333333333336</ele><time>2026-04-26T16:49:43.999Z</time></trkpt><trkpt lat="39.52974689449361" lon="15.923749763742192"><ele>49.66666666666667</ele><time>2026-04-26T16:49:44.999Z</time></trkpt><trkpt lat="39.52968588465995" lon="15.923957578577802"><ele>53.0</ele><time>2026-04-26T16:49:45.999Z</time></trkpt><trkpt lat="39.529622967149756" lon="15.924171742713728"><ele>56.0</ele><time>2026-04-26T16:49:46.999Z</time></trkpt><trkpt lat="39.529560478983235" lon="15.924387904631827"><ele>59.0</ele><time>2026-04-26T16:49:47.999Z</time></trkpt><trkpt lat="39.52949745604566" lon="15.924605609358501"><ele>62.0</ele><time>2026-04-26T16:49:48.999Z</time></trkpt><trkpt lat="39.52942885155292" lon="15.924818903716151"><ele>54.66666666666667</ele><time>2026-04-26T16:49:49.999Z</time></trkpt><trkpt lat="39.529349436505456" lon="15.925020451541435"><ele>47.333333333333336</ele><time>2026-04-26T16:49:50.999Z</time></trkpt><trkpt lat="39.52926220209397" lon="15.925213401710879"><ele>40.0</ele><time>2026-04-26T16:49:51.999Z</time></trkpt><trkpt lat="39.52916936175697" lon="15.925399995573278"><ele>40.0</ele><time>2026-04-26T16:49:52.999Z</time></trkpt><trkpt lat="39.529071238169365" lon="15.925572288856007"><ele>40.0</ele><time>2026-04-26T16:49:53.999Z</time></trkpt><trkpt lat="39.52896526053704" lon="15.92573757318005"><ele>40.0</ele><time>2026-04-26T16:49:54.999Z</time></trkpt><trkpt lat="39.52884775413956" lon="15.925898766393425"><ele>34.0</ele><time>2026-04-26T16:49:55.999Z</time></trkpt><trkpt lat="39.52871767399273" lon="15.926055091912232"><ele>28.0</ele><time>2026-04-26T16:49:56.999Z</time></trkpt><trkpt lat="39.52857498482612" lon="15.92620483423904"><ele>22.0</ele><time>2026-04-26T16:49:57.999Z</time></trkpt><trkpt lat="39.52842109670428" lon="15.926348443139707"><ele>22.0</ele><time>2026-04-26T16:49:58.999Z</time></trkpt><trkpt lat="39.52826157303835" lon="15.92649060875406"><ele>22.0</ele><time>2026-04-26T16:49:59.999Z</time></trkpt><trkpt lat="39.52810385860152" lon="15.92663492682156"><ele>22.0</ele><time>2026-04-26T16:50:00.999Z</time></trkpt><trkpt lat="39.52794932374076" lon="15.926779254187597"><ele>19.666666666666664</ele><time>2026-04-26T16:50:01.999Z</time></trkpt><trkpt lat="39.5277944774395" lon="15.926918720580725"><ele>17.333333333333332</ele><time>2026-04-26T16:50:02.999Z</time></trkpt><trkpt lat="39.52763526313154" lon="15.927057865453854"><ele>15.0</ele><time>2026-04-26T16:50:03.999Z</time></trkpt><trkpt lat="39.52747422221686" lon="15.927194853725814"><ele>15.0</ele><time>2026-04-26T16:50:04.999Z</time></trkpt><trkpt lat="39.52731051934245" lon="15.927335172700205"><ele>15.0</ele><time>2026-04-26T16:50:05.999Z</time></trkpt><trkpt lat="39.52714474262147" lon="15.92747594928033"><ele>15.0</ele><time>2026-04-26T16:50:06.999Z</time></trkpt><trkpt lat="39.52697775600735" lon="15.927619324118977"><ele>14.666666666666668</ele><time>2026-04-26T16:50:07.999Z</time></trkpt><trkpt lat="39.526810815288826" lon="15.927765112231706"><ele>14.333333333333334</ele><time>2026-04-26T16:50:08.999Z</time></trkpt><trkpt lat="39.52664138608937" lon="15.92791314790688"><ele>14.0</ele><time>2026-04-26T16:50:09.999Z</time></trkpt><trkpt lat="39.5264697608748" lon="15.928062274843617"><ele>14.0</ele><time>2026-04-26T16:50:10.999Z</time></trkpt><trkpt lat="39.52629665013323" lon="15.928217512680371"><ele>14.0</ele><time>2026-04-26T16:50:11.999Z</time></trkpt><trkpt lat="39.52612079012148" lon="15.928373860489556"><ele>14.0</ele><time>2026-04-26T16:50:12.999Z</time></trkpt><trkpt lat="39.52594433919547" lon="15.928527050806963"><ele>13.0</ele><time>2026-04-26T16:50:13.999Z</time></trkpt><trkpt lat="39.52576547134117" lon="15.92867900866415"><ele>12.0</ele><time>2026-04-26T16:50:14.999Z</time></trkpt><trkpt lat="39.525586353742604" lon="15.928833353888464"><ele>11.0</ele><time>2026-04-26T16:50:15.999Z</time></trkpt><trkpt lat="39.5254067386648" lon="15.928990265600962"><ele>11.0</ele><time>2026-04-26T16:50:16.999Z</time></trkpt><trkpt lat="39.525225842481774" lon="15.929147713627936"><ele>11.0</ele><time>2026-04-26T16:50:17.999Z</time></trkpt><trkpt lat="39.52504525769732" lon="15.929305800392669"><ele>11.0</ele><time>2026-04-26T16:50:18.999Z</time></trkpt><trkpt lat="39.52486319603361" lon="15.92946343552381"><ele>11.0</ele><time>2026-04-26T16:50:19.999Z</time></trkpt><trkpt lat="39.5246828494006" lon="15.929618472631786"><ele>11.0</ele><time>2026-04-26T16:50:20.999Z</time></trkpt><trkpt lat="39.52450527011938" lon="15.929774690142114"><ele>11.0</ele><time>2026-04-26T16:50:22Z</time></trkpt><trkpt lat="39.524328201620385" lon="15.929931110420842"><ele>11.666666666666666</ele><time>2026-04-26T16:50:23Z</time></trkpt><trkpt lat="39.524149294534425" lon="15.930087952550213"><ele>12.333333333333332</ele><time>2026-04-26T16:50:24Z</time></trkpt><trkpt lat="39.52397035085355" lon="15.930241423782595"><ele>13.0</ele><time>2026-04-26T16:50:25Z</time></trkpt><trkpt lat="39.52378678235748" lon="15.930395593416621"><ele>12.0</ele><time>2026-04-26T16:50:26Z</time></trkpt><trkpt lat="39.52360504691416" lon="15.930549003693566"><ele>11.0</ele><time>2026-04-26T16:50:27Z</time></trkpt><trkpt lat="39.52341764147735" lon="15.930693023207661"><ele>10.0</ele><time>2026-04-26T16:50:28Z</time></trkpt><trkpt lat="39.52322793185851" lon="15.930830375506655"><ele>10.0</ele><time>2026-04-26T16:50:29Z</time></trkpt><trkpt lat="39.52303572643846" lon="15.930968195375122"><ele>10.0</ele><time>2026-04-26T16:50:30Z</time></trkpt><trkpt lat="39.52284317880221" lon="15.931106353570815"><ele>10.0</ele><time>2026-04-26T16:50:31Z</time></trkpt><trkpt lat="39.52265037160934" lon="15.931243732067523"><ele>10.0</ele><time>2026-04-26T16:50:32Z</time></trkpt><trkpt lat="39.52245416368386" lon="15.931374108367473"><ele>10.0</ele><time>2026-04-26T16:50:33Z</time></trkpt><trkpt lat="39.5222586311643" lon="15.931495313428337"><ele>10.0</ele><time>2026-04-26T16:50:34Z</time></trkpt><trkpt lat="39.52205811425248" lon="15.931604598292482"><ele>10.0</ele><time>2026-04-26T16:50:35Z</time></trkpt><trkpt lat="39.52185586232437" lon="15.931704646433706"><ele>10.0</ele><time>2026-04-26T16:50:36Z</time></trkpt><trkpt lat="39.52165368241129" lon="15.931799316116898"><ele>10.0</ele><time>2026-04-26T16:50:37Z</time></trkpt><trkpt lat="39.52145965981404" lon="15.931899926334424"><ele>10.0</ele><time>2026-04-26T16:50:38Z</time></trkpt><trkpt lat="39.52125174151876" lon="15.93200905553057"><ele>10.0</ele><time>2026-04-26T16:50:39Z</time></trkpt><trkpt lat="39.52105170457134" lon="15.932109798220845"><ele>10.0</ele><time>2026-04-26T16:50:40Z</time></trkpt><trkpt lat="39.5208530301696" lon="15.932204956551136"><ele>10.0</ele><time>2026-04-26T16:50:41Z</time></trkpt><trkpt lat="39.52065831213688" lon="15.932305186485483"><ele>10.0</ele><time>2026-04-26T16:50:42Z</time></trkpt><trkpt lat="39.52046682043223" lon="15.932402964366506"><ele>10.0</ele><time>2026-04-26T16:50:43Z</time></trkpt><trkpt lat="39.52027582624451" lon="15.932501579536147"><ele>11.666666666666668</ele><time>2026-04-26T16:50:44Z</time></trkpt><trkpt lat="39.520083586952865" lon="15.932602994159014"><ele>13.333333333333334</ele><time>2026-04-26T16:50:45Z</time></trkpt><trkpt lat="39.51990003867802" lon="15.932705618913948"><ele>15.0</ele><time>2026-04-26T16:50:46Z</time></trkpt><trkpt lat="39.519722483213684" lon="15.93281928941165"><ele>14.0</ele><time>2026-04-26T16:50:47Z</time></trkpt><trkpt lat="39.51955349369675" lon="15.932939548955822"><ele>13.0</ele><time>2026-04-26T16:50:48Z</time></trkpt><trkpt lat="39.51939212358234" lon="15.933065315328848"><ele>12.0</ele><time>2026-04-26T16:50:49Z</time></trkpt><trkpt lat="39.51924070445119" lon="15.933195083386133"><ele>12.0</ele><time>2026-04-26T16:50:50Z</time></trkpt><trkpt lat="39.51909475648754" lon="15.933319503467807"><ele>12.0</ele><time>2026-04-26T16:50:51Z</time></trkpt><trkpt lat="39.51895292262403" lon="15.933442652880174"><ele>12.0</ele><time>2026-04-26T16:50:52Z</time></trkpt><trkpt lat="39.5188121115926" lon="15.933571007133805"><ele>12.0</ele><time>2026-04-26T16:50:53Z</time></trkpt><trkpt lat="39.518670793632836" lon="15.933697290389727"><ele>12.0</ele><time>2026-04-26T16:50:54Z</time></trkpt><trkpt lat="39.51852512714098" lon="15.933822047238927"><ele>12.0</ele><time>2026-04-26T16:50:55Z</time></trkpt><trkpt lat="39.51838073552379" lon="15.933947370024228"><ele>12.0</ele><time>2026-04-26T16:50:56Z</time></trkpt><trkpt lat="39.51823557688545" lon="15.934075255944913"><ele>12.0</ele><time>2026-04-26T16:50:57Z</time></trkpt><trkpt lat="39.518092556371684" lon="15.934200424289587"><ele>12.0</ele><time>2026-04-26T16:50:58Z</time></trkpt><trkpt lat="39.517955988331565" lon="15.934323980156272"><ele>12.0</ele><time>2026-04-26T16:50:59Z</time></trkpt><trkpt lat="39.517825225173745" lon="15.934443022748"><ele>12.0</ele><time>2026-04-26T16:51:00Z</time></trkpt><trkpt lat="39.51769518315849" lon="15.934564235953651"><ele>12.0</ele><time>2026-04-26T16:51:01Z</time></trkpt><trkpt lat="39.51756219264397" lon="15.934690157287243"><ele>12.0</ele><time>2026-04-26T16:51:02Z</time></trkpt><trkpt lat="39.517429300324174" lon="15.934827473234805"><ele>12.0</ele><time>2026-04-26T16:51:03Z</time></trkpt><trkpt lat="39.51729951057151" lon="15.934981916034374"><ele>12.0</ele><time>2026-04-26T16:51:04Z</time></trkpt><trkpt lat="39.517172206418" lon="15.935144436465942"><ele>11.333333333333334</ele><time>2026-04-26T16:51:05Z</time></trkpt><trkpt lat="39.51704381153931" lon="15.935316221588195"><ele>10.666666666666668</ele><time>2026-04-26T16:51:06Z</time></trkpt><trkpt lat="39.51691314199395" lon="15.935488829104335"><ele>10.0</ele><time>2026-04-26T16:51:07Z</time></trkpt><trkpt lat="39.51678585663963" lon="15.935664215446785"><ele>10.0</ele><time>2026-04-26T16:51:08Z</time></trkpt><trkpt lat="39.516658351615476" lon="15.935840071692057"><ele>10.0</ele><time>2026-04-26T16:51:09Z</time></trkpt><trkpt lat="39.516532959381934" lon="15.936010587833051"><ele>10.0</ele><time>2026-04-26T16:51:10Z</time></trkpt><trkpt lat="39.51641162979928" lon="15.936173133362551"><ele>9.333333333333334</ele><time>2026-04-26T16:51:11Z</time></trkpt><trkpt lat="39.51629269339457" lon="15.936331274694943"><ele>8.666666666666666</ele><time>2026-04-26T16:51:12Z</time></trkpt><trkpt lat="39.51617546266789" lon="15.936491094916171"><ele>8.0</ele><time>2026-04-26T16:51:13Z</time></trkpt><trkpt lat="39.51605963085902" lon="15.936650362708871"><ele>11.666666666666666</ele><time>2026-04-26T16:51:14Z</time></trkpt><trkpt lat="39.51594702421205" lon="15.936806385176341"><ele>15.333333333333332</ele><time>2026-04-26T16:51:15Z</time></trkpt><trkpt lat="39.51583414202675" lon="15.936959452694998"><ele>19.0</ele><time>2026-04-26T16:51:16Z</time></trkpt><trkpt lat="39.515719994936305" lon="15.937113305643209"><ele>19.0</ele><time>2026-04-26T16:51:17Z</time></trkpt><trkpt lat="39.5156063048225" lon="15.937263891235434"><ele>19.0</ele><time>2026-04-26T16:51:17.999Z</time></trkpt><trkpt lat="39.515497810250935" lon="15.93741510958123"><ele>19.0</ele><time>2026-04-26T16:51:18.999Z</time></trkpt><trkpt lat="39.51539429728497" lon="15.937565221000584"><ele>17.333333333333332</ele><time>2026-04-26T16:51:19.999Z</time></trkpt><trkpt lat="39.51529612849108" lon="15.937725695431865"><ele>15.666666666666668</ele><time>2026-04-26T16:51:20.999Z</time></trkpt><trkpt lat="39.515203759922635" lon="15.937895228927072"><ele>14.0</ele><time>2026-04-26T16:51:21.999Z</time></trkpt><trkpt lat="39.515117754435764" lon="15.938067581623114"><ele>14.0</ele><time>2026-04-26T16:51:22.999Z</time></trkpt><trkpt lat="39.51503383002083" lon="15.93824171528772"><ele>14.0</ele><time>2026-04-26T16:51:23.999Z</time></trkpt><trkpt lat="39.51495429852553" lon="15.938420811568802"><ele>14.0</ele><time>2026-04-26T16:51:24.999Z</time></trkpt><trkpt lat="39.514879299783786" lon="15.938602440407445"><ele>16.75</ele><time>2026-04-26T16:51:25.999Z</time></trkpt><trkpt lat="39.51480709408524" lon="15.938781087305278"><ele>19.5</ele><time>2026-04-26T16:51:26.999Z</time></trkpt><trkpt lat="39.514738782723725" lon="15.938949918180183"><ele>22.25</ele><time>2026-04-26T16:51:27.999Z</time></trkpt><trkpt lat="39.51466961220933" lon="15.939108484778183"><ele>25.0</ele><time>2026-04-26T16:51:28.999Z</time></trkpt><trkpt lat="39.51460194785889" lon="15.939265643846909"><ele>22.25</ele><time>2026-04-26T16:51:29.999Z</time></trkpt><trkpt lat="39.51453601186678" lon="15.939424159883147"><ele>19.5</ele><time>2026-04-26T16:51:30.999Z</time></trkpt><trkpt lat="39.51446915112256" lon="15.939583683602425"><ele>16.75</ele><time>2026-04-26T16:51:31.999Z</time></trkpt><trkpt lat="39.51439503687039" lon="15.939746162182242"><ele>14.0</ele><time>2026-04-26T16:51:32.999Z</time></trkpt><trkpt lat="39.51431496510278" lon="15.939906170657968"><ele>19.666666666666668</ele><time>2026-04-26T16:51:33.999Z</time></trkpt><trkpt lat="39.51422763814675" lon="15.940065127961985"><ele>25.333333333333336</ele><time>2026-04-26T16:51:34.999Z</time></trkpt><trkpt lat="39.514131356266546" lon="15.940214919943255"><ele>31.0</ele><time>2026-04-26T16:51:35.999Z</time></trkpt><trkpt lat="39.51402917930388" lon="15.940358826526118"><ele>31.0</ele><time>2026-04-26T16:51:36.999Z</time></trkpt><trkpt lat="39.51392269977234" lon="15.940501251190566"><ele>31.0</ele><time>2026-04-26T16:51:37.999Z</time></trkpt><trkpt lat="39.51380841252952" lon="15.940645329016137"><ele>31.0</ele><time>2026-04-26T16:51:38.999Z</time></trkpt><trkpt lat="39.5136970207127" lon="15.940788256330535"><ele>26.5</ele><time>2026-04-26T16:51:39.999Z</time></trkpt><trkpt lat="39.51358817623824" lon="15.940925430799908"><ele>22.0</ele><time>2026-04-26T16:51:40.999Z</time></trkpt><trkpt lat="39.51348123003639" lon="15.941056117836876"><ele>17.5</ele><time>2026-04-26T16:51:41.999Z</time></trkpt><trkpt lat="39.51337697351081" lon="15.941181852187633"><ele>13.0</ele><time>2026-04-26T16:51:42.999Z</time></trkpt><trkpt lat="39.51327730469923" lon="15.94130635657321"><ele>13.0</ele><time>2026-04-26T16:51:43.999Z</time></trkpt><trkpt lat="39.51317951252692" lon="15.9414254201913"><ele>13.0</ele><time>2026-04-26T16:51:44.999Z</time></trkpt><trkpt lat="39.513082290226635" lon="15.941544961267333"><ele>13.0</ele><time>2026-04-26T16:51:45.999Z</time></trkpt><trkpt lat="39.512983129230136" lon="15.941669207391843"><ele>13.0</ele><time>2026-04-26T16:51:46.999Z</time></trkpt><trkpt lat="39.51288100265104" lon="15.941796162440575"><ele>12.5</ele><time>2026-04-26T16:51:47.999Z</time></trkpt><trkpt lat="39.512783033307" lon="15.941917033140115"><ele>12.0</ele><time>2026-04-26T16:51:48.999Z</time></trkpt><trkpt lat="39.51268686223714" lon="15.942034608425912"><ele>11.5</ele><time>2026-04-26T16:51:49.999Z</time></trkpt><trkpt lat="39.51259320970549" lon="15.942151606042396"><ele>11.0</ele><time>2026-04-26T16:51:50.999Z</time></trkpt><trkpt lat="39.51249655145972" lon="15.942268711463534"><ele>11.0</ele><time>2026-04-26T16:51:51.999Z</time></trkpt><trkpt lat="39.51239770353094" lon="15.942389947405331"><ele>11.0</ele><time>2026-04-26T16:51:52.999Z</time></trkpt><trkpt lat="39.51229382011558" lon="15.942510993586003"><ele>11.0</ele><time>2026-04-26T16:51:53.999Z</time></trkpt><trkpt lat="39.51218868064709" lon="15.942633640991394"><ele>11.0</ele><time>2026-04-26T16:51:54.999Z</time></trkpt><trkpt lat="39.51208048721892" lon="15.942763153220643"><ele>11.666666666666666</ele><time>2026-04-26T16:51:55.999Z</time></trkpt><trkpt lat="39.51197124294246" lon="15.942895426649121"><ele>12.333333333333332</ele><time>2026-04-26T16:51:56.999Z</time></trkpt><trkpt lat="39.51185976264389" lon="15.94303375258296"><ele>13.0</ele><time>2026-04-26T16:51:57.999Z</time></trkpt><trkpt lat="39.51174672255637" lon="15.94317132597518"><ele>13.0</ele><time>2026-04-26T16:51:58.999Z</time></trkpt><trkpt lat="39.511638109259515" lon="15.943305402439387"><ele>13.0</ele><time>2026-04-26T16:51:59.999Z</time></trkpt><trkpt lat="39.511525685485665" lon="15.943440474369359"><ele>13.0</ele><time>2026-04-26T16:52:00.999Z</time></trkpt><trkpt lat="39.51140952356218" lon="15.943579659967357"><ele>12.333333333333332</ele><time>2026-04-26T16:52:01.999Z</time></trkpt><trkpt lat="39.511290121560776" lon="15.943722927438035"><ele>11.666666666666666</ele><time>2026-04-26T16:52:02.999Z</time></trkpt><trkpt lat="39.51117135541538" lon="15.943863626934688"><ele>11.0</ele><time>2026-04-26T16:52:03.999Z</time></trkpt><trkpt lat="39.511051434175286" lon="15.943999040968313"><ele>11.0</ele><time>2026-04-26T16:52:04.999Z</time></trkpt><trkpt lat="39.510925584855485" lon="15.944124990462303"><ele>11.0</ele><time>2026-04-26T16:52:05.999Z</time></trkpt><trkpt lat="39.51079283553139" lon="15.94423781334549"><ele>11.0</ele><time>2026-04-26T16:52:06.999Z</time></trkpt><trkpt lat="39.51066113176794" lon="15.944337261368505"><ele>14.5</ele><time>2026-04-26T16:52:07.999Z</time></trkpt><trkpt lat="39.510530980196094" lon="15.944420582846973"><ele>18.0</ele><time>2026-04-26T16:52:08.999Z</time></trkpt><trkpt lat="39.51039769246382" lon="15.944501300506252"><ele>21.5</ele><time>2026-04-26T16:52:09.999Z</time></trkpt><trkpt lat="39.510257147069346" lon="15.944576312646811"><ele>25.0</ele><time>2026-04-26T16:52:10.999Z</time></trkpt><trkpt lat="39.510106416848856" lon="15.944642941955399"><ele>25.0</ele><time>2026-04-26T16:52:11.999Z</time></trkpt><trkpt lat="39.50995109415791" lon="15.944701474714384"><ele>25.0</ele><time>2026-04-26T16:52:12.999Z</time></trkpt><trkpt lat="39.509793982010926" lon="15.944756917042334"><ele>25.0</ele><time>2026-04-26T16:52:13.999Z</time></trkpt><trkpt lat="39.509635900530135" lon="15.944800538501255"><ele>21.0</ele><time>2026-04-26T16:52:14.999Z</time></trkpt><trkpt lat="39.50948317986097" lon="15.944831085581237"><ele>17.0</ele><time>2026-04-26T16:52:15.999Z</time></trkpt><trkpt lat="39.50933452230811" lon="15.944854394508921"><ele>13.0</ele><time>2026-04-26T16:52:16.999Z</time></trkpt><trkpt lat="39.50918730628224" lon="15.94487510369694"><ele>13.0</ele><time>2026-04-26T16:52:17.999Z</time></trkpt><trkpt lat="39.509041143781154" lon="15.944894694186896"><ele>13.0</ele><time>2026-04-26T16:52:18.999Z</time></trkpt><trkpt lat="39.50889515695272" lon="15.944910021689772"><ele>13.0</ele><time>2026-04-26T16:52:19.999Z</time></trkpt><trkpt lat="39.50874878462516" lon="15.944923888689246"><ele>13.0</ele><time>2026-04-26T16:52:20.999Z</time></trkpt><trkpt lat="39.50860168265863" lon="15.944942536505055"><ele>12.5</ele><time>2026-04-26T16:52:21.999Z</time></trkpt><trkpt lat="39.50845974201838" lon="15.944962464158213"><ele>12.0</ele><time>2026-04-26T16:52:22.999Z</time></trkpt><trkpt lat="39.50832096052946" lon="15.94497771282704"><ele>11.5</ele><time>2026-04-26T16:52:23.999Z</time></trkpt><trkpt lat="39.50818148449066" lon="15.944991393714087"><ele>11.0</ele><time>2026-04-26T16:52:24.999Z</time></trkpt><trkpt lat="39.50803826362806" lon="15.94500633584007"><ele>10.333333333333332</ele><time>2026-04-26T16:52:25.999Z</time></trkpt><trkpt lat="39.507887385611454" lon="15.94502386801267"><ele>9.666666666666666</ele><time>2026-04-26T16:52:26.999Z</time></trkpt><trkpt lat="39.50773226375713" lon="15.945051456220813"><ele>9.0</ele><time>2026-04-26T16:52:28Z</time></trkpt><trkpt lat="39.50757016201211" lon="15.945070949886514"><ele>10.666666666666668</ele><time>2026-04-26T16:52:29Z</time></trkpt><trkpt lat="39.50740661993963" lon="15.945085714767076"><ele>12.333333333333334</ele><time>2026-04-26T16:52:30Z</time></trkpt><trkpt lat="39.507232267388964" lon="15.945105174668425"><ele>14.0</ele><time>2026-04-26T16:52:31Z</time></trkpt><trkpt lat="39.50705156600124" lon="15.945125908918515"><ele>14.0</ele><time>2026-04-26T16:52:32Z</time></trkpt><trkpt lat="39.50687305652926" lon="15.9451453936935"><ele>14.0</ele><time>2026-04-26T16:52:33Z</time></trkpt><trkpt lat="39.506698949800345" lon="15.945166628126636"><ele>14.0</ele><time>2026-04-26T16:52:34Z</time></trkpt><trkpt lat="39.50652715039768" lon="15.945191793059497"><ele>14.0</ele><time>2026-04-26T16:52:35Z</time></trkpt><trkpt lat="39.506357106230695" lon="15.945223425425318"><ele>14.0</ele><time>2026-04-26T16:52:36Z</time></trkpt><trkpt lat="39.506185927504475" lon="15.945263425136357"><ele>14.0</ele><time>2026-04-26T16:52:37Z</time></trkpt><trkpt lat="39.506015754684924" lon="15.945310012775037"><ele>12.666666666666668</ele><time>2026-04-26T16:52:38Z</time></trkpt><trkpt lat="39.50584630056065" lon="15.945365130954647"><ele>11.333333333333334</ele><time>2026-04-26T16:52:39Z</time></trkpt><trkpt lat="39.505681209768866" lon="15.945431720246582"><ele>10.0</ele><time>2026-04-26T16:52:40Z</time></trkpt><trkpt lat="39.505522121474115" lon="15.945507734331647"><ele>9.666666666666668</ele><time>2026-04-26T16:52:41Z</time></trkpt><trkpt lat="39.50536146271835" lon="15.945590754792685"><ele>9.333333333333334</ele><time>2026-04-26T16:52:42Z</time></trkpt><trkpt lat="39.50520757509309" lon="15.945674426104327"><ele>9.0</ele><time>2026-04-26T16:52:43Z</time></trkpt><trkpt lat="39.50505969403678" lon="15.94576417152939"><ele>9.0</ele><time>2026-04-26T16:52:44Z</time></trkpt><trkpt lat="39.504917863564174" lon="15.94585589491767"><ele>9.0</ele><time>2026-04-26T16:52:45Z</time></trkpt><trkpt lat="39.50476964817971" lon="15.945957201606637"><ele>9.0</ele><time>2026-04-26T16:52:46Z</time></trkpt><trkpt lat="39.5046173350096" lon="15.946063970788204"><ele>10.333333333333332</ele><time>2026-04-26T16:52:47Z</time></trkpt><trkpt lat="39.50445476252466" lon="15.946179567414479"><ele>11.666666666666666</ele><time>2026-04-26T16:52:48Z</time></trkpt><trkpt lat="39.50427907036384" lon="15.946301774554431"><ele>13.0</ele><time>2026-04-26T16:52:49Z</time></trkpt><trkpt lat="39.50409299503876" lon="15.946429566044584"><ele>13.0</ele><time>2026-04-26T16:52:50Z</time></trkpt><trkpt lat="39.503897824668854" lon="15.946566206254365"><ele>13.0</ele><time>2026-04-26T16:52:51Z</time></trkpt><trkpt lat="39.50368980198325" lon="15.94671045176002"><ele>13.5</ele><time>2026-04-26T16:52:52Z</time></trkpt><trkpt lat="39.50346651630215" lon="15.94685691058369"><ele>14.0</ele><time>2026-04-26T16:52:53Z</time></trkpt><trkpt lat="39.50323366236588" lon="15.947003930983165"><ele>14.0</ele><time>2026-04-26T16:52:54Z</time></trkpt><trkpt lat="39.502997449906445" lon="15.947152868742581"><ele>14.0</ele><time>2026-04-26T16:52:55Z</time></trkpt><trkpt lat="39.502763360371794" lon="15.947304053704249"><ele>13.5</ele><time>2026-04-26T16:52:56Z</time></trkpt><trkpt lat="39.50252842174133" lon="15.947455333659795"><ele>13.0</ele><time>2026-04-26T16:52:57Z</time></trkpt><trkpt lat="39.50229366240667" lon="15.94760610025988"><ele>14.5</ele><time>2026-04-26T16:52:58Z</time></trkpt><trkpt lat="39.502059919576446" lon="15.947754979855267"><ele>16.0</ele><time>2026-04-26T16:52:59Z</time></trkpt><trkpt lat="39.50182710583274" lon="15.947901758063798"><ele>16.0</ele><time>2026-04-26T16:53:00Z</time></trkpt><trkpt lat="39.501593565424216" lon="15.94804781709651"><ele>16.0</ele><time>2026-04-26T16:53:01Z</time></trkpt><trkpt lat="39.50136118799776" lon="15.948193637791098"><ele>12.5</ele><time>2026-04-26T16:53:02Z</time></trkpt><trkpt lat="39.5011303723948" lon="15.948339455259875"><ele>9.0</ele><time>2026-04-26T16:53:03Z</time></trkpt><trkpt lat="39.500901871532754" lon="15.948484460102366"><ele>16.5</ele><time>2026-04-26T16:53:04Z</time></trkpt><trkpt lat="39.50067412078252" lon="15.94862861878761"><ele>24.0</ele><time>2026-04-26T16:53:05Z</time></trkpt><trkpt lat="39.50045153274387" lon="15.948770434632234"><ele>18.5</ele><time>2026-04-26T16:53:06Z</time></trkpt><trkpt lat="39.500236053586775" lon="15.948909616882911"><ele>13.0</ele><time>2026-04-26T16:53:07Z</time></trkpt><trkpt lat="39.50002606203671" lon="15.949041016435892"><ele>13.0</ele><time>2026-04-26T16:53:08Z</time></trkpt><trkpt lat="39.49982556643972" lon="15.949168302091943"><ele>13.0</ele><time>2026-04-26T16:53:09Z</time></trkpt><trkpt lat="39.499638482904146" lon="15.949287843944086"><ele>13.0</ele><time>2026-04-26T16:53:10Z</time></trkpt><trkpt lat="39.49946003373013" lon="15.949396951858786"><ele>12.333333333333332</ele><time>2026-04-26T16:53:11Z</time></trkpt><trkpt lat="39.499287863867174" lon="15.949504995416307"><ele>11.666666666666666</ele><time>2026-04-26T16:53:12Z</time></trkpt><trkpt lat="39.499123645108675" lon="15.949607634880667"><ele>11.0</ele><time>2026-04-26T16:53:13Z</time></trkpt><trkpt lat="39.49896039918718" lon="15.94970942122397"><ele>11.0</ele><time>2026-04-26T16:53:14Z</time></trkpt><trkpt lat="39.49879723408848" lon="15.949814320237003"><ele>11.0</ele><time>2026-04-26T16:53:15Z</time></trkpt><trkpt lat="39.498635878512985" lon="15.949917144777856"><ele>11.0</ele><time>2026-04-26T16:53:16Z</time></trkpt><trkpt lat="39.498473934610054" lon="15.950016216725203"><ele>12.666666666666666</ele><time>2026-04-26T16:53:17Z</time></trkpt><trkpt lat="39.49831701447979" lon="15.950115296697287"><ele>14.333333333333332</ele><time>2026-04-26T16:53:18Z</time></trkpt><trkpt lat="39.498166073927614" lon="15.950213087447066"><ele>16.0</ele><time>2026-04-26T16:53:19Z</time></trkpt><trkpt lat="39.49801631340766" lon="15.95031044323721"><ele>16.0</ele><time>2026-04-26T16:53:20Z</time></trkpt><trkpt lat="39.49787039608585" lon="15.950399859336663"><ele>16.0</ele><time>2026-04-26T16:53:21Z</time></trkpt><trkpt lat="39.49772831870709" lon="15.950486014415565"><ele>16.0</ele><time>2026-04-26T16:53:22Z</time></trkpt><trkpt lat="39.49759041928191" lon="15.950571852363197"><ele>16.0</ele><time>2026-04-26T16:53:23Z</time></trkpt><trkpt lat="39.49745379193936" lon="15.950655785526004"><ele>16.0</ele><time>2026-04-26T16:53:24Z</time></trkpt><trkpt lat="39.49730861850635" lon="15.95075286082649"><ele>16.0</ele><time>2026-04-26T16:53:25Z</time></trkpt><trkpt lat="39.49714715451428" lon="15.95083743752727"><ele>16.333333333333332</ele><time>2026-04-26T16:53:26Z</time></trkpt><trkpt lat="39.49698782792725" lon="15.950956494705954"><ele>16.666666666666668</ele><time>2026-04-26T16:53:27Z</time></trkpt><trkpt lat="39.4968139844587" lon="15.951067461629659"><ele>17.0</ele><time>2026-04-26T16:53:28Z</time></trkpt><trkpt lat="39.49662516643337" lon="15.95117783424431"><ele>17.0</ele><time>2026-04-26T16:53:29Z</time></trkpt><trkpt lat="39.49645331193474" lon="15.951289332693188"><ele>17.0</ele><time>2026-04-26T16:53:29.999Z</time></trkpt><trkpt lat="39.49624349840044" lon="15.951402293933556"><ele>17.0</ele><time>2026-04-26T16:53:30.999Z</time></trkpt><trkpt lat="39.49604677421709" lon="15.951522540347073"><ele>16.0</ele><time>2026-04-26T16:53:31.999Z</time></trkpt><trkpt lat="39.49584548246122" lon="15.951641365799466"><ele>15.0</ele><time>2026-04-26T16:53:32.999Z</time></trkpt><trkpt lat="39.49564188462191" lon="15.951755531770269"><ele>14.0</ele><time>2026-04-26T16:53:33.999Z</time></trkpt><trkpt lat="39.49543602595727" lon="15.951861063305078"><ele>22.0</ele><time>2026-04-26T16:53:34.999Z</time></trkpt><trkpt lat="39.49522826124363" lon="15.951953977623663"><ele>30.0</ele><time>2026-04-26T16:53:35.999Z</time></trkpt><trkpt lat="39.49501964462102" lon="15.952042585340669"><ele>38.0</ele><time>2026-04-26T16:53:36.999Z</time></trkpt><trkpt lat="39.49481072930508" lon="15.952132628992816"><ele>38.0</ele><time>2026-04-26T16:53:37.999Z</time></trkpt><trkpt lat="39.49459952772711" lon="15.952222520357187"><ele>38.0</ele><time>2026-04-26T16:53:38.999Z</time></trkpt><trkpt lat="39.494387607366306" lon="15.952316768627936"><ele>38.0</ele><time>2026-04-26T16:53:39.999Z</time></trkpt><trkpt lat="39.494174070864325" lon="15.952408037930681"><ele>42.0</ele><time>2026-04-26T16:53:40.999Z</time></trkpt><trkpt lat="39.49396070886614" lon="15.952499773417198"><ele>46.0</ele><time>2026-04-26T16:53:41.999Z</time></trkpt><trkpt lat="39.49374636377303" lon="15.95259454024663"><ele>46.0</ele><time>2026-04-26T16:53:42.999Z</time></trkpt><trkpt lat="39.49353201514066" lon="15.95269011764355"><ele>46.0</ele><time>2026-04-26T16:53:43.999Z</time></trkpt><trkpt lat="39.49331733041738" lon="15.952783709536492"><ele>46.0</ele><time>2026-04-26T16:53:44.999Z</time></trkpt><trkpt lat="39.49310244945768" lon="15.952877385984946"><ele>46.0</ele><time>2026-04-26T16:53:45.999Z</time></trkpt><trkpt lat="39.492886371752235" lon="15.952971310935274"><ele>40.0</ele><time>2026-04-26T16:53:46.999Z</time></trkpt><trkpt lat="39.492674186059624" lon="15.953069223030992"><ele>34.0</ele><time>2026-04-26T16:53:47.999Z</time></trkpt><trkpt lat="39.49246440014829" lon="15.95317046147637"><ele>28.0</ele><time>2026-04-26T16:53:48.999Z</time></trkpt><trkpt lat="39.49225807970338" lon="15.95328527906978"><ele>33.0</ele><time>2026-04-26T16:53:49.999Z</time></trkpt><trkpt lat="39.492052790870616" lon="15.953401071465139"><ele>38.0</ele><time>2026-04-26T16:53:50.999Z</time></trkpt><trkpt lat="39.49185142209023" lon="15.953511661931088"><ele>43.0</ele><time>2026-04-26T16:53:51.999Z</time></trkpt><trkpt lat="39.49164407056422" lon="15.953617471176125"><ele>43.0</ele><time>2026-04-26T16:53:52.999Z</time></trkpt><trkpt lat="39.491434283119325" lon="15.953711576911665"><ele>43.0</ele><time>2026-04-26T16:53:53.999Z</time></trkpt><trkpt lat="39.491223298180415" lon="15.953799168786157"><ele>43.0</ele><time>2026-04-26T16:53:54.999Z</time></trkpt><trkpt lat="39.49101301396442" lon="15.95388737148541"><ele>39.333333333333336</ele><time>2026-04-26T16:53:55.999Z</time></trkpt><trkpt lat="39.490805283767585" lon="15.953975504744669"><ele>35.666666666666664</ele><time>2026-04-26T16:53:56.999Z</time></trkpt><trkpt lat="39.49059547540177" lon="15.954062764074298"><ele>32.0</ele><time>2026-04-26T16:53:57.999Z</time></trkpt><trkpt lat="39.49038844239989" lon="15.954148520148355"><ele>41.0</ele><time>2026-04-26T16:53:58.999Z</time></trkpt><trkpt lat="39.49018434225641" lon="15.954236583256202"><ele>50.0</ele><time>2026-04-26T16:53:59.999Z</time></trkpt><trkpt lat="39.48997934739192" lon="15.95432178643592"><ele>59.0</ele><time>2026-04-26T16:54:00.999Z</time></trkpt><trkpt lat="39.489775879841226" lon="15.954408036911788"><ele>53.0</ele><time>2026-04-26T16:54:01.999Z</time></trkpt><trkpt lat="39.48957442585572" lon="15.95449189509817"><ele>47.0</ele><time>2026-04-26T16:54:02.999Z</time></trkpt><trkpt lat="39.48937351763006" lon="15.954575026360535"><ele>41.0</ele><time>2026-04-26T16:54:03.999Z</time></trkpt><trkpt lat="39.489173862171256" lon="15.954648528227153"><ele>41.0</ele><time>2026-04-26T16:54:04.999Z</time></trkpt><trkpt lat="39.48897448405694" lon="15.954717826349095"><ele>41.0</ele><time>2026-04-26T16:54:05.999Z</time></trkpt><trkpt lat="39.48877427674311" lon="15.954789981418758"><ele>41.0</ele><time>2026-04-26T16:54:06.999Z</time></trkpt><trkpt lat="39.488576478684664" lon="15.954863637082578"><ele>35.666666666666664</ele><time>2026-04-26T16:54:07.999Z</time></trkpt><trkpt lat="39.488383943406674" lon="15.95493995390071"><ele>30.333333333333336</ele><time>2026-04-26T16:54:08.999Z</time></trkpt><trkpt lat="39.48820262877851" lon="15.955021276345626"><ele>25.0</ele><time>2026-04-26T16:54:09.999Z</time></trkpt><trkpt lat="39.48803157229587" lon="15.955112555089599"><ele>27.0</ele><time>2026-04-26T16:54:10.999Z</time></trkpt><trkpt lat="39.48787349202769" lon="15.955218101446935"><ele>29.0</ele><time>2026-04-26T16:54:11.999Z</time></trkpt><trkpt lat="39.48773269629904" lon="15.955332782670595"><ele>31.0</ele><time>2026-04-26T16:54:12.999Z</time></trkpt><trkpt lat="39.4876048136821" lon="15.95544563083375"><ele>31.0</ele><time>2026-04-26T16:54:13.999Z</time></trkpt><trkpt lat="39.487489633689876" lon="15.955559796035567"><ele>31.0</ele><time>2026-04-26T16:54:14.999Z</time></trkpt><trkpt lat="39.48738642796371" lon="15.955679082941288"><ele>31.0</ele><time>2026-04-26T16:54:15.999Z</time></trkpt><trkpt lat="39.48728481936903" lon="15.95577165535339"><ele>31.0</ele><time>2026-04-26T16:54:16.999Z</time></trkpt><trkpt lat="39.487207487630016" lon="15.955860698423633"><ele>30.333333333333336</ele><time>2026-04-26T16:54:17.999Z</time></trkpt><trkpt lat="39.48714103258824" lon="15.955937637414022"><ele>29.666666666666668</ele><time>2026-04-26T16:54:18.999Z</time></trkpt><trkpt lat="39.48708552129261" lon="15.956001906053881"><ele>29.0</ele><time>2026-04-26T16:54:19.999Z</time></trkpt><trkpt lat="39.48703743406248" lon="15.956057271964111"><ele>28.333333333333336</ele><time>2026-04-26T16:54:20.999Z</time></trkpt><trkpt lat="39.48698291654784" lon="15.956120025905967"><ele>27.666666666666668</ele><time>2026-04-26T16:54:21.999Z</time></trkpt><trkpt lat="39.48692366514316" lon="15.956188228961894"><ele>27.0</ele><time>2026-04-26T16:54:22.999Z</time></trkpt><trkpt lat="39.48685819375604" lon="15.956263592637729"><ele>27.0</ele><time>2026-04-26T16:54:23.999Z</time></trkpt><trkpt lat="39.4867884828113" lon="15.95634103146713"><ele>27.000000000000004</ele><time>2026-04-26T16:54:24.999Z</time></trkpt><trkpt lat="39.4867136195086" lon="15.956419933005925"><ele>27.000000000000004</ele><time>2026-04-26T16:54:25.999Z</time></trkpt><trkpt lat="39.48663992081181" lon="15.95649342826821"><ele>27.0</ele><time>2026-04-26T16:54:26.999Z</time></trkpt><trkpt lat="39.48656599410295" lon="15.956565656370644"><ele>27.0</ele><time>2026-04-26T16:54:27.999Z</time></trkpt><trkpt lat="39.486492238741384" lon="15.956635089834155"><ele>26.0</ele><time>2026-04-26T16:54:28.999Z</time></trkpt><trkpt lat="39.48641455497939" lon="15.956708221543446"><ele>25.0</ele><time>2026-04-26T16:54:29.999Z</time></trkpt><trkpt lat="39.48635001998793" lon="15.956786081208678"><ele>24.0</ele><time>2026-04-26T16:54:30.999Z</time></trkpt><trkpt lat="39.48628193066706" lon="15.956838769814821"><ele>23.0</ele><time>2026-04-26T16:54:31.999Z</time></trkpt><trkpt lat="39.48621916195775" lon="15.956887780894412"><ele>22.0</ele><time>2026-04-26T16:54:33Z</time></trkpt><trkpt lat="39.48616119896741" lon="15.956934592636902"><ele>21.0</ele><time>2026-04-26T16:54:34Z</time></trkpt><trkpt lat="39.48605438548092" lon="15.956990103906712"><ele>21.0</ele><time>2026-04-26T16:54:36Z</time></trkpt><trkpt lat="39.485938313502245" lon="15.957071450109634"><ele>21.0</ele><time>2026-04-26T16:54:38Z</time></trkpt><trkpt lat="39.48586540262105" lon="15.957117733186355"><ele>21.0</ele><time>2026-04-26T16:54:39Z</time></trkpt><trkpt lat="39.4857839064255" lon="15.957166274007553"><ele>21.0</ele><time>2026-04-26T16:54:40Z</time></trkpt><trkpt lat="39.48569399685156" lon="15.957216394074635"><ele>21.0</ele><time>2026-04-26T16:54:41Z</time></trkpt><trkpt lat="39.485598482964974" lon="15.957268836267477"><ele>21.0</ele><time>2026-04-26T16:54:42Z</time></trkpt><trkpt lat="39.48549664421444" lon="15.957321307245667"><ele>21.0</ele><time>2026-04-26T16:54:43Z</time></trkpt><trkpt lat="39.48539201328451" lon="15.95737521693671"><ele>21.0</ele><time>2026-04-26T16:54:44Z</time></trkpt><trkpt lat="39.48528625283342" lon="15.957427023088313"><ele>21.0</ele><time>2026-04-26T16:54:45Z</time></trkpt><trkpt lat="39.48517832277139" lon="15.957481280079202"><ele>20.0</ele><time>2026-04-26T16:54:46Z</time></trkpt><trkpt lat="39.485070643422056" lon="15.95753541098139"><ele>19.0</ele><time>2026-04-26T16:54:47Z</time></trkpt><trkpt lat="39.4849599053759" lon="15.957591660535767"><ele>18.0</ele><time>2026-04-26T16:54:48Z</time></trkpt><trkpt lat="39.484847916360245" lon="15.957650240798161"><ele>17.0</ele><time>2026-04-26T16:54:49Z</time></trkpt><trkpt lat="39.48473721675631" lon="15.95770814658615"><ele>17.0</ele><time>2026-04-26T16:54:50Z</time></trkpt><trkpt lat="39.484623210233394" lon="15.957767927848517"><ele>17.0</ele><time>2026-04-26T16:54:51Z</time></trkpt><trkpt lat="39.48450851804989" lon="15.957830612584798"><ele>17.0</ele><time>2026-04-26T16:54:52Z</time></trkpt><trkpt lat="39.484391469509895" lon="15.957894585194527"><ele>17.0</ele><time>2026-04-26T16:54:53Z</time></trkpt><trkpt lat="39.48427431013141" lon="15.957963857091148"><ele>15.75</ele><time>2026-04-26T16:54:54Z</time></trkpt><trkpt lat="39.48415697143672" lon="15.958042590339335"><ele>14.5</ele><time>2026-04-26T16:54:55Z</time></trkpt><trkpt lat="39.484041261927" lon="15.95812361691625"><ele>13.25</ele><time>2026-04-26T16:54:56Z</time></trkpt><trkpt lat="39.48392563547225" lon="15.958203049687095"><ele>12.0</ele><time>2026-04-26T16:54:57Z</time></trkpt><trkpt lat="39.48380820510316" lon="15.95828314120224"><ele>12.0</ele><time>2026-04-26T16:54:58Z</time></trkpt><trkpt lat="39.483684761845396" lon="15.958367912508548"><ele>12.0</ele><time>2026-04-26T16:54:59Z</time></trkpt><trkpt lat="39.48355716431369" lon="15.958456839395405"><ele>12.0</ele><time>2026-04-26T16:55:00Z</time></trkpt><trkpt lat="39.483425899608896" lon="15.958548321972035"><ele>12.0</ele><time>2026-04-26T16:55:01Z</time></trkpt><trkpt lat="39.48330074207614" lon="15.958652603500047"><ele>13.25</ele><time>2026-04-26T16:55:02Z</time></trkpt><trkpt lat="39.48317400222031" lon="15.958735475787623"><ele>14.5</ele><time>2026-04-26T16:55:03Z</time></trkpt><trkpt lat="39.483058487475546" lon="15.958815586802507"><ele>15.75</ele><time>2026-04-26T16:55:04Z</time></trkpt><trkpt lat="39.48294572152957" lon="15.958891188959626"><ele>17.0</ele><time>2026-04-26T16:55:05Z</time></trkpt><trkpt lat="39.48284309544472" lon="15.958961797888643"><ele>17.0</ele><time>2026-04-26T16:55:06Z</time></trkpt><trkpt lat="39.48274697695728" lon="15.959028393275858"><ele>17.0</ele><time>2026-04-26T16:55:07Z</time></trkpt><trkpt lat="39.48265503938995" lon="15.959092149295854"><ele>17.0</ele><time>2026-04-26T16:55:08Z</time></trkpt><trkpt lat="39.48256767495117" lon="15.959152370618716"><ele>17.0</ele><time>2026-04-26T16:55:09Z</time></trkpt><trkpt lat="39.48248861835641" lon="15.9592129482979"><ele>17.0</ele><time>2026-04-26T16:55:10Z</time></trkpt><trkpt lat="39.4824214417672" lon="15.959258308594258"><ele>18.833333333333336</ele><time>2026-04-26T16:55:11Z</time></trkpt><trkpt lat="39.48235949384726" lon="15.959298762182842"><ele>20.666666666666668</ele><time>2026-04-26T16:55:12Z</time></trkpt><trkpt lat="39.48226091618273" lon="15.959364359554163"><ele>22.5</ele><time>2026-04-26T16:55:14Z</time></trkpt><trkpt lat="39.482192064905185" lon="15.959404215291851"><ele>24.333333333333336</ele><time>2026-04-26T16:55:16Z</time></trkpt><trkpt lat="39.48212771748992" lon="15.959453518009523"><ele>26.166666666666668</ele><time>2026-04-26T16:55:19Z</time></trkpt><trkpt lat="39.48203961630006" lon="15.959511694179996"><ele>28.0</ele><time>2026-04-26T16:56:28.999Z</time></trkpt><trkpt lat="39.48195080002888" lon="15.959611867204817"><ele>28.0</ele><time>2026-04-26T16:56:30.999Z</time></trkpt><trkpt lat="39.4818822095312" lon="15.959652099859087"><ele>27.999999999999996</ele><time>2026-04-26T16:56:31.999Z</time></trkpt><trkpt lat="39.481806114062046" lon="15.959714192426155"><ele>27.999999999999996</ele><time>2026-04-26T16:56:32.999Z</time></trkpt><trkpt lat="39.48171980743337" lon="15.95976697547135"><ele>28.0</ele><time>2026-04-26T16:56:33.999Z</time></trkpt><trkpt lat="39.48161346942543" lon="15.959807477439071"><ele>28.0</ele><time>2026-04-26T16:56:34.999Z</time></trkpt><trkpt lat="39.48151856817278" lon="15.95987436076045"><ele>28.0</ele><time>2026-04-26T16:56:35.999Z</time></trkpt><trkpt lat="39.48141976026465" lon="15.959943488165969"><ele>28.0</ele><time>2026-04-26T16:56:36.999Z</time></trkpt><trkpt lat="39.4813196844014" lon="15.960013008560958"><ele>28.0</ele><time>2026-04-26T16:56:37.999Z</time></trkpt><trkpt lat="39.481212553816924" lon="15.960087168082866"><ele>28.0</ele><time>2026-04-26T16:56:39Z</time></trkpt><trkpt lat="39.48110039847186" lon="15.960164805894182"><ele>31.0</ele><time>2026-04-26T16:56:40Z</time></trkpt><trkpt lat="39.48099439234922" lon="15.960238187074813"><ele>34.0</ele><time>2026-04-26T16:56:41Z</time></trkpt><trkpt lat="39.48090255599702" lon="15.960301747128375"><ele>37.0</ele><time>2026-04-26T16:56:42Z</time></trkpt><trkpt lat="39.48081653689023" lon="15.960361014394731"><ele>40.0</ele><time>2026-04-26T16:56:43Z</time></trkpt><trkpt lat="39.48072778098353" lon="15.96042216722582"><ele>43.0</ele><time>2026-04-26T16:56:44Z</time></trkpt><trkpt lat="39.480642014913045" lon="15.960481260119268"><ele>43.0</ele><time>2026-04-26T16:56:45Z</time></trkpt><trkpt lat="39.48055784577086" lon="15.960539252700746"><ele>43.0</ele><time>2026-04-26T16:56:46Z</time></trkpt><trkpt lat="39.480473143900625" lon="15.960596895708305"><ele>43.0</ele><time>2026-04-26T16:56:47Z</time></trkpt><trkpt lat="39.48039266974599" lon="15.960651495124836"><ele>43.0</ele><time>2026-04-26T16:56:48Z</time></trkpt><trkpt lat="39.48031612224278" lon="15.960702876668643"><ele>43.0</ele><time>2026-04-26T16:56:49Z</time></trkpt><trkpt lat="39.48023939539786" lon="15.960754378370831"><ele>44.00000000000001</ele><time>2026-04-26T16:56:50Z</time></trkpt><trkpt lat="39.48016554947049" lon="15.960803946416053"><ele>45.0</ele><time>2026-04-26T16:56:51Z</time></trkpt><trkpt lat="39.48009371741982" lon="15.960852162659394"><ele>46.0</ele><time>2026-04-26T16:56:52Z</time></trkpt><trkpt lat="39.48003038363539" lon="15.96089467456157"><ele>47.0</ele><time>2026-04-26T16:56:53Z</time></trkpt><trkpt lat="39.4799715005338" lon="15.96093419904166"><ele>48.0</ele><time>2026-04-26T16:56:54Z</time></trkpt><trkpt lat="39.47991319578724" lon="15.960971572466335"><ele>49.00000000000001</ele><time>2026-04-26T16:56:55Z</time></trkpt><trkpt lat="39.47984865531701" lon="15.961011074834946"><ele>50.0</ele><time>2026-04-26T16:56:56Z</time></trkpt><trkpt lat="39.47978871497537" lon="15.96104714530285"><ele>50.00000000000001</ele><time>2026-04-26T16:56:57Z</time></trkpt><trkpt lat="39.47971112002912" lon="15.961093200784319"><ele>50.0</ele><time>2026-04-26T16:56:59Z</time></trkpt><trkpt lat="39.479632029814965" lon="15.96113546480195"><ele>50.0</ele><time>2026-04-26T16:57:02Z</time></trkpt><trkpt lat="39.47957245532246" lon="15.961165573206845"><ele>50.0</ele><time>2026-04-26T16:57:04Z</time></trkpt><trkpt lat="39.479508980328575" lon="15.961197192727283"><ele>50.00000000000001</ele><time>2026-04-26T16:57:06Z</time></trkpt><trkpt lat="39.47942660799783" lon="15.961238340919948"><ele>50.0</ele><time>2026-04-26T16:57:08Z</time></trkpt><trkpt lat="39.4793258853755" lon="15.96128871097063"><ele>48.66666666666667</ele><time>2026-04-26T16:57:10Z</time></trkpt><trkpt lat="39.479264009913756" lon="15.96131965404722"><ele>47.333333333333336</ele><time>2026-04-26T16:57:11Z</time></trkpt><trkpt lat="39.479196379844794" lon="15.961353474963884"><ele>46.0</ele><time>2026-04-26T16:57:12Z</time></trkpt><trkpt lat="39.47911026969805" lon="15.961396537507026"><ele>44.66666666666667</ele><time>2026-04-26T16:57:13Z</time></trkpt><trkpt lat="39.479016502659874" lon="15.961443429142562"><ele>43.333333333333336</ele><time>2026-04-26T16:57:14Z</time></trkpt><trkpt lat="39.47891553180468" lon="15.961493923336272"><ele>42.0</ele><time>2026-04-26T16:57:15Z</time></trkpt><trkpt lat="39.47881590062622" lon="15.961561918634287"><ele>43.75</ele><time>2026-04-26T16:57:16Z</time></trkpt><trkpt lat="39.47870268123765" lon="15.961605066509263"><ele>45.5</ele><time>2026-04-26T16:57:17Z</time></trkpt><trkpt lat="39.47858832373792" lon="15.961653173672321"><ele>47.25</ele><time>2026-04-26T16:57:18Z</time></trkpt><trkpt lat="39.47847533290681" lon="15.961707460781238"><ele>49.0</ele><time>2026-04-26T16:57:19Z</time></trkpt><trkpt lat="39.47835977635341" lon="15.961763753863554"><ele>49.0</ele><time>2026-04-26T16:57:20Z</time></trkpt><trkpt lat="39.47824185042847" lon="15.961820880981712"><ele>49.0</ele><time>2026-04-26T16:57:21Z</time></trkpt><trkpt lat="39.47812230251131" lon="15.961878508427072"><ele>49.0</ele><time>2026-04-26T16:57:22Z</time></trkpt><trkpt lat="39.47799895960674" lon="15.961939392699517"><ele>49.0</ele><time>2026-04-26T16:57:23Z</time></trkpt><trkpt lat="39.477873669365" lon="15.962002467685123"><ele>46.0</ele><time>2026-04-26T16:57:24Z</time></trkpt><trkpt lat="39.477746914260514" lon="15.962071391365154"><ele>43.0</ele><time>2026-04-26T16:57:25Z</time></trkpt><trkpt lat="39.47761349850074" lon="15.962139794619063"><ele>40.0</ele><time>2026-04-26T16:57:26Z</time></trkpt><trkpt lat="39.47747319174727" lon="15.962210920118832"><ele>37.0</ele><time>2026-04-26T16:57:27Z</time></trkpt><trkpt lat="39.47732368612461" lon="15.962286582829147"><ele>37.0</ele><time>2026-04-26T16:57:28Z</time></trkpt><trkpt lat="39.47716777022098" lon="15.962363798494115"><ele>37.0</ele><time>2026-04-26T16:57:29Z</time></trkpt><trkpt lat="39.47701122746778" lon="15.962435882586625"><ele>37.0</ele><time>2026-04-26T16:57:30Z</time></trkpt><trkpt lat="39.47685375687944" lon="15.962514960687674"><ele>44.0</ele><time>2026-04-26T16:57:31Z</time></trkpt><trkpt lat="39.47669721410189" lon="15.962596425410576"><ele>51.0</ele><time>2026-04-26T16:57:32Z</time></trkpt><trkpt lat="39.47655344988307" lon="15.96269963846513"><ele>58.0</ele><time>2026-04-26T16:57:33Z</time></trkpt><trkpt lat="39.47639961898114" lon="15.962816987956254"><ele>57.33333333333333</ele><time>2026-04-26T16:57:34Z</time></trkpt><trkpt lat="39.47625924982393" lon="15.962934318062176"><ele>56.66666666666667</ele><time>2026-04-26T16:57:35Z</time></trkpt><trkpt lat="39.47612103446305" lon="15.963054834282586"><ele>56.0</ele><time>2026-04-26T16:57:35.999Z</time></trkpt><trkpt lat="39.47598765503091" lon="15.963184045185368"><ele>56.0</ele><time>2026-04-26T16:57:36.999Z</time></trkpt><trkpt lat="39.4758593402138" lon="15.963321834826502"><ele>56.0</ele><time>2026-04-26T16:57:37.999Z</time></trkpt><trkpt lat="39.475731015496486" lon="15.963470125627282"><ele>56.0</ele><time>2026-04-26T16:57:38.999Z</time></trkpt><trkpt lat="39.47561119624535" lon="15.963622301964794"><ele>60.66666666666667</ele><time>2026-04-26T16:57:39.999Z</time></trkpt><trkpt lat="39.47549782120324" lon="15.96378025010849"><ele>65.33333333333333</ele><time>2026-04-26T16:57:40.999Z</time></trkpt><trkpt lat="39.47540201605873" lon="15.963918306605498"><ele>70.0</ele><time>2026-04-26T16:57:41.999Z</time></trkpt><trkpt lat="39.47525127035667" lon="15.964063747181802"><ele>61.666666666666664</ele><time>2026-04-26T16:57:42.999Z</time></trkpt><trkpt lat="39.47515783342322" lon="15.96422832880984"><ele>53.33333333333333</ele><time>2026-04-26T16:57:43.999Z</time></trkpt><trkpt lat="39.475081754429695" lon="15.9644503927614"><ele>45.0</ele><time>2026-04-26T16:57:44.999Z</time></trkpt><trkpt lat="39.474991919376876" lon="15.964652712324774"><ele>45.0</ele><time>2026-04-26T16:57:45.999Z</time></trkpt><trkpt lat="39.47489262849066" lon="15.96483182304568"><ele>45.0</ele><time>2026-04-26T16:57:46.999Z</time></trkpt><trkpt lat="39.474795913484954" lon="15.965010951086356"><ele>45.0</ele><time>2026-04-26T16:57:47.999Z</time></trkpt><trkpt lat="39.474695707992296" lon="15.9651919933702"><ele>41.0</ele><time>2026-04-26T16:57:48.999Z</time></trkpt><trkpt lat="39.47459028853305" lon="15.96537642683793"><ele>37.0</ele><time>2026-04-26T16:57:49.999Z</time></trkpt><trkpt lat="39.47448190487723" lon="15.965557679552385"><ele>33.0</ele><time>2026-04-26T16:57:50.999Z</time></trkpt><trkpt lat="39.47437180481903" lon="15.965737918056677"><ele>41.66666666666667</ele><time>2026-04-26T16:57:51.999Z</time></trkpt><trkpt lat="39.47425357743683" lon="15.965908224296465"><ele>50.333333333333336</ele><time>2026-04-26T16:57:52.999Z</time></trkpt><trkpt lat="39.47412499358481" lon="15.966068317427412"><ele>59.0</ele><time>2026-04-26T16:57:53.999Z</time></trkpt><trkpt lat="39.47399627419823" lon="15.966222235799304"><ele>59.0</ele><time>2026-04-26T16:57:54.999Z</time></trkpt><trkpt lat="39.47386506633753" lon="15.966361931694903"><ele>59.0</ele><time>2026-04-26T16:57:55.999Z</time></trkpt><trkpt lat="39.473734094181125" lon="15.966486357234343"><ele>59.0</ele><time>2026-04-26T16:57:56.999Z</time></trkpt><trkpt lat="39.47360079289468" lon="15.966605346445478"><ele>59.66666666666667</ele><time>2026-04-26T16:57:57.999Z</time></trkpt><trkpt lat="39.47345935586408" lon="15.96672224380104"><ele>60.33333333333333</ele><time>2026-04-26T16:57:58.999Z</time></trkpt><trkpt lat="39.47331516953323" lon="15.966840938318926"><ele>61.0</ele><time>2026-04-26T16:57:59.999Z</time></trkpt><trkpt lat="39.47317332166064" lon="15.966969014597133"><ele>61.0</ele><time>2026-04-26T16:58:00.999Z</time></trkpt><trkpt lat="39.47304054234839" lon="15.967112869679083"><ele>61.0</ele><time>2026-04-26T16:58:01.999Z</time></trkpt><trkpt lat="39.472913804597674" lon="15.967259010113226"><ele>61.0</ele><time>2026-04-26T16:58:02.999Z</time></trkpt><trkpt lat="39.47278814809916" lon="15.967412126931896"><ele>56.33333333333333</ele><time>2026-04-26T16:58:03.999Z</time></trkpt><trkpt lat="39.472665351398845" lon="15.967575677331856"><ele>51.666666666666664</ele><time>2026-04-26T16:58:04.999Z</time></trkpt><trkpt lat="39.47254624665667" lon="15.967743297325777"><ele>47.0</ele><time>2026-04-26T16:58:05.999Z</time></trkpt><trkpt lat="39.47242404284802" lon="15.967919031837447"><ele>47.0</ele><time>2026-04-26T16:58:06.999Z</time></trkpt><trkpt lat="39.47230051117946" lon="15.968098025299417"><ele>47.0</ele><time>2026-04-26T16:58:07.999Z</time></trkpt><trkpt lat="39.472177455774265" lon="15.968274504796556"><ele>47.0</ele><time>2026-04-26T16:58:08.999Z</time></trkpt><trkpt lat="39.47205660646625" lon="15.968443139357156"><ele>47.666666666666664</ele><time>2026-04-26T16:58:09.999Z</time></trkpt><trkpt lat="39.471932314687635" lon="15.968619024340386"><ele>48.33333333333333</ele><time>2026-04-26T16:58:10.999Z</time></trkpt><trkpt lat="39.47179070297692" lon="15.968780526685876"><ele>49.0</ele><time>2026-04-26T16:58:11.999Z</time></trkpt><trkpt lat="39.47165906431341" lon="15.96895881060867"><ele>49.0</ele><time>2026-04-26T16:58:12.999Z</time></trkpt><trkpt lat="39.471536435393" lon="15.969150011369738"><ele>49.0</ele><time>2026-04-26T16:58:13.999Z</time></trkpt><trkpt lat="39.47140128246107" lon="15.969315507285472"><ele>49.0</ele><time>2026-04-26T16:58:14.999Z</time></trkpt><trkpt lat="39.47127532869599" lon="15.969481352263236"><ele>43.33333333333333</ele><time>2026-04-26T16:58:15.999Z</time></trkpt><trkpt lat="39.471150389353014" lon="15.969664266232273"><ele>37.666666666666664</ele><time>2026-04-26T16:58:16.999Z</time></trkpt><trkpt lat="39.471032451785966" lon="15.969842031969858"><ele>32.0</ele><time>2026-04-26T16:58:17.999Z</time></trkpt><trkpt lat="39.4709280655062" lon="15.969992377124283"><ele>38.33333333333333</ele><time>2026-04-26T16:58:18.999Z</time></trkpt><trkpt lat="39.47082626704398" lon="15.970136433273716"><ele>44.666666666666664</ele><time>2026-04-26T16:58:19.999Z</time></trkpt><trkpt lat="39.47072706423816" lon="15.970283310192187"><ele>51.0</ele><time>2026-04-26T16:58:20.999Z</time></trkpt><trkpt lat="39.4706269480788" lon="15.97043122416102"><ele>51.0</ele><time>2026-04-26T16:58:21.999Z</time></trkpt><trkpt lat="39.47052713887323" lon="15.970585108682545"><ele>51.0</ele><time>2026-04-26T16:58:22.999Z</time></trkpt><trkpt lat="39.47041141925464" lon="15.970733772787515"><ele>51.0</ele><time>2026-04-26T16:58:23.999Z</time></trkpt><trkpt lat="39.47030805492173" lon="15.970898831897868"><ele>44.666666666666664</ele><time>2026-04-26T16:58:24.999Z</time></trkpt><trkpt lat="39.470206257194434" lon="15.971063342013188"><ele>38.33333333333333</ele><time>2026-04-26T16:58:25.999Z</time></trkpt><trkpt lat="39.47010877134172" lon="15.971224162500876"><ele>32.0</ele><time>2026-04-26T16:58:26.999Z</time></trkpt><trkpt lat="39.47001646441675" lon="15.971380054238429"><ele>32.0</ele><time>2026-04-26T16:58:27.999Z</time></trkpt><trkpt lat="39.469942164286294" lon="15.971540346589634"><ele>32.0</ele><time>2026-04-26T16:58:28.999Z</time></trkpt><trkpt lat="39.46985617804468" lon="15.971680492292647"><ele>32.0</ele><time>2026-04-26T16:58:29.999Z</time></trkpt><trkpt lat="39.46977057783612" lon="15.971809704192824"><ele>32.0</ele><time>2026-04-26T16:58:30.999Z</time></trkpt><trkpt lat="39.469687731433716" lon="15.971929619242715"><ele>32.5</ele><time>2026-04-26T16:58:31.999Z</time></trkpt><trkpt lat="39.46961067591317" lon="15.972044835013397"><ele>33.0</ele><time>2026-04-26T16:58:32.999Z</time></trkpt><trkpt lat="39.469536357565275" lon="15.972155958092605"><ele>33.5</ele><time>2026-04-26T16:58:33.999Z</time></trkpt><trkpt lat="39.469466985792785" lon="15.972267590596445"><ele>34.0</ele><time>2026-04-26T16:58:34.999Z</time></trkpt><trkpt lat="39.469392819803396" lon="15.972377729442844"><ele>29.0</ele><time>2026-04-26T16:58:35.999Z</time></trkpt><trkpt lat="39.46931862913437" lon="15.97248933983049"><ele>24.0</ele><time>2026-04-26T16:58:36.999Z</time></trkpt><trkpt lat="39.4692469156642" lon="15.972604731273924"><ele>19.0</ele><time>2026-04-26T16:58:37.999Z</time></trkpt><trkpt lat="39.469179526046155" lon="15.972728403691082"><ele>14.0</ele><time>2026-04-26T16:58:38.999Z</time></trkpt><trkpt lat="39.4691161899457" lon="15.972853474374624"><ele>14.0</ele><time>2026-04-26T16:58:39.999Z</time></trkpt><trkpt lat="39.4690528190365" lon="15.972981299457851"><ele>14.0</ele><time>2026-04-26T16:58:40.999Z</time></trkpt><trkpt lat="39.46898243893615" lon="15.973113319909947"><ele>14.0</ele><time>2026-04-26T16:58:41.999Z</time></trkpt><trkpt lat="39.46888862662184" lon="15.973228651801264"><ele>14.0</ele><time>2026-04-26T16:58:42.999Z</time></trkpt><trkpt lat="39.46880580637434" lon="15.97336265887339"><ele>13.25</ele><time>2026-04-26T16:58:43.999Z</time></trkpt><trkpt lat="39.46872099245889" lon="15.973499891976052"><ele>12.5</ele><time>2026-04-26T16:58:45Z</time></trkpt><trkpt lat="39.468635615749534" lon="15.973640162970135"><ele>11.75</ele><time>2026-04-26T16:58:46Z</time></trkpt><trkpt lat="39.468550449136856" lon="15.973780543494412"><ele>11.0</ele><time>2026-04-26T16:58:47Z</time></trkpt><trkpt lat="39.46846501602927" lon="15.973921364040676"><ele>11.0</ele><time>2026-04-26T16:58:48Z</time></trkpt><trkpt lat="39.46837991519113" lon="15.974061344536581"><ele>11.0</ele><time>2026-04-26T16:58:49Z</time></trkpt><trkpt lat="39.46829649757345" lon="15.97419931103842"><ele>11.0</ele><time>2026-04-26T16:58:50Z</time></trkpt><trkpt lat="39.46821900579077" lon="15.974327599775574"><ele>11.0</ele><time>2026-04-26T16:58:51Z</time></trkpt><trkpt lat="39.46814812132769" lon="15.97444496002798"><ele>11.166666666666666</ele><time>2026-04-26T16:58:52Z</time></trkpt><trkpt lat="39.468087494712435" lon="15.974545263587789"><ele>11.333333333333332</ele><time>2026-04-26T16:58:53Z</time></trkpt><trkpt lat="39.468035237160464" lon="15.974630335861924"><ele>11.5</ele><time>2026-04-26T16:58:54Z</time></trkpt><trkpt lat="39.467993062272434" lon="15.974699008559524"><ele>11.666666666666666</ele><time>2026-04-26T16:58:55Z</time></trkpt><trkpt lat="39.46793601327004" lon="15.97479194049967"><ele>11.833333333333334</ele><time>2026-04-26T16:58:57Z</time></trkpt><trkpt lat="39.46788678856774" lon="15.974872136265875"><ele>12.0</ele><time>2026-04-26T16:59:00Z</time></trkpt><trkpt lat="39.467843314784496" lon="15.97494296279617"><ele>11.5</ele><time>2026-04-26T16:59:03Z</time></trkpt><trkpt lat="39.46791316511753" lon="15.974997953567064"><ele>11.0</ele><time>2026-04-26T17:04:04.999Z</time></trkpt><trkpt lat="39.467891364355694" lon="15.975080142233741"><ele>10.5</ele><time>2026-04-26T17:04:24.999Z</time></trkpt><trkpt lat="39.46783216659403" lon="15.97516925297196"><ele>10.0</ele><time>2026-04-26T17:04:26.999Z</time></trkpt><trkpt lat="39.46763096722387" lon="15.975301066919249"><ele>10.0</ele><time>2026-04-26T17:04:33.999Z</time></trkpt><trkpt lat="39.467577612451265" lon="15.975373861894589"><ele>10.0</ele><time>2026-04-26T17:04:34.999Z</time></trkpt><trkpt lat="39.46752285985724" lon="15.975461002507872"><ele>10.0</ele><time>2026-04-26T17:04:35.999Z</time></trkpt><trkpt lat="39.467462883998095" lon="15.975557095984453"><ele>10.0</ele><time>2026-04-26T17:04:36.999Z</time></trkpt><trkpt lat="39.467398089430645" lon="15.97566210715385"><ele>10.0</ele><time>2026-04-26T17:04:37.999Z</time></trkpt><trkpt lat="39.46733605799701" lon="15.975770597839238"><ele>10.0</ele><time>2026-04-26T17:04:38.999Z</time></trkpt><trkpt lat="39.46727236934226" lon="15.975876471987474"><ele>10.0</ele><time>2026-04-26T17:04:39.999Z</time></trkpt><trkpt lat="39.467204533239475" lon="15.975986193465204"><ele>10.0</ele><time>2026-04-26T17:04:40.999Z</time></trkpt><trkpt lat="39.46713794820769" lon="15.976098460895559"><ele>10.0</ele><time>2026-04-26T17:04:41.999Z</time></trkpt><trkpt lat="39.46707184555437" lon="15.976218052108315"><ele>10.0</ele><time>2026-04-26T17:04:42.999Z</time></trkpt><trkpt lat="39.46699771846984" lon="15.976333273557195"><ele>10.0</ele><time>2026-04-26T17:04:43.999Z</time></trkpt><trkpt lat="39.466924577504706" lon="15.97645023970105"><ele>10.0</ele><time>2026-04-26T17:04:44.999Z</time></trkpt><trkpt lat="39.4668485130609" lon="15.976571585604612"><ele>10.0</ele><time>2026-04-26T17:04:45.999Z</time></trkpt><trkpt lat="39.46677272145596" lon="15.976696888805401"><ele>10.0</ele><time>2026-04-26T17:04:46.999Z</time></trkpt><trkpt lat="39.466697435396526" lon="15.976822372070751"><ele>9.75</ele><time>2026-04-26T17:04:47.999Z</time></trkpt><trkpt lat="39.46662103121927" lon="15.976951670056959"><ele>9.5</ele><time>2026-04-26T17:04:48.999Z</time></trkpt><trkpt lat="39.466540966425484" lon="15.97708051806918"><ele>9.25</ele><time>2026-04-26T17:04:49.999Z</time></trkpt><trkpt lat="39.466460756953765" lon="15.977209114550156"><ele>9.0</ele><time>2026-04-26T17:04:50.999Z</time></trkpt><trkpt lat="39.4663810534162" lon="15.97734069367021"><ele>9.0</ele><time>2026-04-26T17:04:51.999Z</time></trkpt><trkpt lat="39.4663022594255" lon="15.977476241088347"><ele>9.0</ele><time>2026-04-26T17:04:52.999Z</time></trkpt><trkpt lat="39.466220567475695" lon="15.97760770095554"><ele>9.0</ele><time>2026-04-26T17:04:53.999Z</time></trkpt><trkpt lat="39.46613664249782" lon="15.977739195998355"><ele>9.0</ele><time>2026-04-26T17:04:54.999Z</time></trkpt><trkpt lat="39.46605574870269" lon="15.977873562974416"><ele>8.75</ele><time>2026-04-26T17:04:55.999Z</time></trkpt><trkpt lat="39.46597449186236" lon="15.97801001393946"><ele>8.5</ele><time>2026-04-26T17:04:56.999Z</time></trkpt><trkpt lat="39.46589266942754" lon="15.978144166321984"><ele>8.25</ele><time>2026-04-26T17:04:57.999Z</time></trkpt><trkpt lat="39.46581314481432" lon="15.97828329505187"><ele>8.0</ele><time>2026-04-26T17:04:58.999Z</time></trkpt><trkpt lat="39.465732044874876" lon="15.978420846001265"><ele>8.0</ele><time>2026-04-26T17:04:59.999Z</time></trkpt><trkpt lat="39.46564781131658" lon="15.97855273852523"><ele>8.0</ele><time>2026-04-26T17:05:00.999Z</time></trkpt><trkpt lat="39.465560649648225" lon="15.978684029836636"><ele>8.0</ele><time>2026-04-26T17:05:02Z</time></trkpt><trkpt lat="39.46546908938093" lon="15.978810296381553"><ele>8.0</ele><time>2026-04-26T17:05:03Z</time></trkpt><trkpt lat="39.46537865116882" lon="15.978927891771585"><ele>8.0</ele><time>2026-04-26T17:05:04Z</time></trkpt><trkpt lat="39.46528009278099" lon="15.979041851728223"><ele>8.0</ele><time>2026-04-26T17:05:05Z</time></trkpt><trkpt lat="39.46517623903393" lon="15.979140062229224"><ele>8.0</ele><time>2026-04-26T17:05:06Z</time></trkpt><trkpt lat="39.465059750419755" lon="15.979237780988433"><ele>8.0</ele><time>2026-04-26T17:05:07Z</time></trkpt><trkpt lat="39.46493289176934" lon="15.979334013428891"><ele>8.333333333333332</ele><time>2026-04-26T17:05:08Z</time></trkpt><trkpt lat="39.464799553088554" lon="15.979425347718633"><ele>8.666666666666666</ele><time>2026-04-26T17:05:09Z</time></trkpt><trkpt lat="39.464656885759354" lon="15.979513173844234"><ele>9.0</ele><time>2026-04-26T17:05:10Z</time></trkpt><trkpt lat="39.4645082188551" lon="15.979598262554607"><ele>8.333333333333334</ele><time>2026-04-26T17:05:11Z</time></trkpt><trkpt lat="39.46435679998275" lon="15.979681595781376"><ele>7.666666666666667</ele><time>2026-04-26T17:05:12Z</time></trkpt><trkpt lat="39.46420434104238" lon="15.979768306984797"><ele>7.0</ele><time>2026-04-26T17:05:13Z</time></trkpt><trkpt lat="39.46405281221573" lon="15.979855416730537"><ele>7.0</ele><time>2026-04-26T17:05:14Z</time></trkpt><trkpt lat="39.46390122091391" lon="15.979943022796341"><ele>7.0</ele><time>2026-04-26T17:05:15Z</time></trkpt><trkpt lat="39.46374943972268" lon="15.980033214057517"><ele>7.0</ele><time>2026-04-26T17:05:16Z</time></trkpt><trkpt lat="39.46359517601275" lon="15.980124868045348"><ele>7.333333333333334</ele><time>2026-04-26T17:05:17Z</time></trkpt><trkpt lat="39.463441787276444" lon="15.980221693888689"><ele>7.666666666666666</ele><time>2026-04-26T17:05:18Z</time></trkpt><trkpt lat="39.46329039622402" lon="15.980325133208845"><ele>8.0</ele><time>2026-04-26T17:05:19Z</time></trkpt><trkpt lat="39.46313972193978" lon="15.980438454689448"><ele>8.0</ele><time>2026-04-26T17:05:20Z</time></trkpt><trkpt lat="39.46299138369627" lon="15.98055813112193"><ele>8.0</ele><time>2026-04-26T17:05:21Z</time></trkpt><trkpt lat="39.46284542628438" lon="15.980679728459839"><ele>8.0</ele><time>2026-04-26T17:05:22Z</time></trkpt><trkpt lat="39.462699190418704" lon="15.98080594565402"><ele>8.0</ele><time>2026-04-26T17:05:23Z</time></trkpt><trkpt lat="39.462548471936095" lon="15.980909069064516"><ele>8.0</ele><time>2026-04-26T17:05:24Z</time></trkpt><trkpt lat="39.462411215260005" lon="15.981025286308126"><ele>8.0</ele><time>2026-04-26T17:05:25Z</time></trkpt><trkpt lat="39.46227484462789" lon="15.98114058111823"><ele>8.0</ele><time>2026-04-26T17:05:26Z</time></trkpt><trkpt lat="39.46213921321971" lon="15.981256793761826"><ele>8.0</ele><time>2026-04-26T17:05:27Z</time></trkpt><trkpt lat="39.46200191143504" lon="15.981374096404139"><ele>8.0</ele><time>2026-04-26T17:05:28Z</time></trkpt><trkpt lat="39.46186309889516" lon="15.981492689750612"><ele>8.0</ele><time>2026-04-26T17:05:29Z</time></trkpt><trkpt lat="39.46172130618324" lon="15.981613829186823"><ele>8.0</ele><time>2026-04-26T17:05:30Z</time></trkpt><trkpt lat="39.461577851328016" lon="15.981736245344202"><ele>8.0</ele><time>2026-04-26T17:05:31Z</time></trkpt><trkpt lat="39.46143178857117" lon="15.981860662731112"><ele>8.0</ele><time>2026-04-26T17:05:31.999Z</time></trkpt><trkpt lat="39.461284567809685" lon="15.98198606652625"><ele>8.0</ele><time>2026-04-26T17:05:32.999Z</time></trkpt><trkpt lat="39.46114247022085" lon="15.982130873438296"><ele>8.0</ele><time>2026-04-26T17:05:33.999Z</time></trkpt><trkpt lat="39.46098167917592" lon="15.982241873052988"><ele>8.0</ele><time>2026-04-26T17:05:34.999Z</time></trkpt><trkpt lat="39.46083796043549" lon="15.982389562220037"><ele>8.0</ele><time>2026-04-26T17:05:35.999Z</time></trkpt><trkpt lat="39.46067438006535" lon="15.98250268246456"><ele>8.0</ele><time>2026-04-26T17:05:36.999Z</time></trkpt><trkpt lat="39.46051545907503" lon="15.982638113552047"><ele>8.0</ele><time>2026-04-26T17:05:37.999Z</time></trkpt><trkpt lat="39.460354632466704" lon="15.982774797992763"><ele>8.0</ele><time>2026-04-26T17:05:38.999Z</time></trkpt><trkpt lat="39.46019330779705" lon="15.982912683576517"><ele>8.0</ele><time>2026-04-26T17:05:39.999Z</time></trkpt><trkpt lat="39.4600305025215" lon="15.983051357505676"><ele>8.0</ele><time>2026-04-26T17:05:40.999Z</time></trkpt><trkpt lat="39.45986618955925" lon="15.983190051452498"><ele>8.0</ele><time>2026-04-26T17:05:41.999Z</time></trkpt><trkpt lat="39.45970273831933" lon="15.983328763398415"><ele>8.0</ele><time>2026-04-26T17:05:42.999Z</time></trkpt><trkpt lat="39.459538251540984" lon="15.983468695457036"><ele>7.666666666666666</ele><time>2026-04-26T17:05:43.999Z</time></trkpt><trkpt lat="39.459373805813954" lon="15.983608427625878"><ele>7.333333333333334</ele><time>2026-04-26T17:05:44.999Z</time></trkpt><trkpt lat="39.45920873827144" lon="15.983749346397682"><ele>7.0</ele><time>2026-04-26T17:05:45.999Z</time></trkpt><trkpt lat="39.45904659547266" lon="15.983887963271249"><ele>7.0</ele><time>2026-04-26T17:05:46.999Z</time></trkpt><trkpt lat="39.45888084737206" lon="15.984029660516308"><ele>7.0</ele><time>2026-04-26T17:05:47.999Z</time></trkpt><trkpt lat="39.45871827364679" lon="15.984168643970023"><ele>7.0</ele><time>2026-04-26T17:05:48.999Z</time></trkpt><trkpt lat="39.4585539777042" lon="15.98430837363189"><ele>7.666666666666667</ele><time>2026-04-26T17:05:49.999Z</time></trkpt><trkpt lat="39.45839013211046" lon="15.984446924351088"><ele>8.333333333333334</ele><time>2026-04-26T17:05:50.999Z</time></trkpt><trkpt lat="39.45822651036924" lon="15.984586644049605"><ele>9.0</ele><time>2026-04-26T17:05:51.999Z</time></trkpt><trkpt lat="39.45806881843219" lon="15.984720819590592"><ele>8.666666666666666</ele><time>2026-04-26T17:05:52.999Z</time></trkpt><trkpt lat="39.45792076093612" lon="15.984845933137274"><ele>8.333333333333332</ele><time>2026-04-26T17:05:53.999Z</time></trkpt><trkpt lat="39.45778136004018" lon="15.984963872738073"><ele>8.0</ele><time>2026-04-26T17:05:54.999Z</time></trkpt><trkpt lat="39.45764750297168" lon="15.985077118277529"><ele>8.0</ele><time>2026-04-26T17:05:55.999Z</time></trkpt><trkpt lat="39.45752164502253" lon="15.985183804293824"><ele>8.0</ele><time>2026-04-26T17:05:56.999Z</time></trkpt><trkpt lat="39.45740369541943" lon="15.98528362733369"><ele>8.0</ele><time>2026-04-26T17:05:57.999Z</time></trkpt><trkpt lat="39.45729267329055" lon="15.985377587498922"><ele>8.0</ele><time>2026-04-26T17:05:58.999Z</time></trkpt><trkpt lat="39.45718529258999" lon="15.985468124842813"><ele>7.75</ele><time>2026-04-26T17:05:59.999Z</time></trkpt><trkpt lat="39.45707980822968" lon="15.985556706374847"><ele>7.5</ele><time>2026-04-26T17:06:00.999Z</time></trkpt><trkpt lat="39.456972639433765" lon="15.985647518438851"><ele>7.25</ele><time>2026-04-26T17:06:01.999Z</time></trkpt><trkpt lat="39.45686340559438" lon="15.985740080374269"><ele>7.0</ele><time>2026-04-26T17:06:02.999Z</time></trkpt><trkpt lat="39.45675148593552" lon="15.985834944582384"><ele>7.25</ele><time>2026-04-26T17:06:03.999Z</time></trkpt><trkpt lat="39.45663640563192" lon="15.985933143854034"><ele>7.5</ele><time>2026-04-26T17:06:04.999Z</time></trkpt><trkpt lat="39.456519537375975" lon="15.986032868808156"><ele>7.75</ele><time>2026-04-26T17:06:05.999Z</time></trkpt><trkpt lat="39.45639797525084" lon="15.98613659909158"><ele>8.0</ele><time>2026-04-26T17:06:06.999Z</time></trkpt><trkpt lat="39.45626816012618" lon="15.986247371728503"><ele>8.0</ele><time>2026-04-26T17:06:07.999Z</time></trkpt><trkpt lat="39.4561326736752" lon="15.986362983793324"><ele>8.0</ele><time>2026-04-26T17:06:08.999Z</time></trkpt><trkpt lat="39.45598992058642" lon="15.98648411721513"><ele>8.0</ele><time>2026-04-26T17:06:09.999Z</time></trkpt><trkpt lat="39.45584081711348" lon="15.98661049751129"><ele>9.0</ele><time>2026-04-26T17:06:10.999Z</time></trkpt><trkpt lat="39.4557242232821" lon="15.98681213631489"><ele>10.0</ele><time>2026-04-26T17:06:11.999Z</time></trkpt><trkpt lat="39.455568470678095" lon="15.986946267036911"><ele>11.0</ele><time>2026-04-26T17:06:12.999Z</time></trkpt><trkpt lat="39.455406960192114" lon="15.987079382270021"><ele>11.0</ele><time>2026-04-26T17:06:13.999Z</time></trkpt><trkpt lat="39.45524058525625" lon="15.987209619910335"><ele>11.0</ele><time>2026-04-26T17:06:14.999Z</time></trkpt><trkpt lat="39.45504490335043" lon="15.98727908898081"><ele>11.0</ele><time>2026-04-26T17:06:15.999Z</time></trkpt><trkpt lat="39.45487695376027" lon="15.98740755243383"><ele>13.0</ele><time>2026-04-26T17:06:16.999Z</time></trkpt><trkpt lat="39.45470357226583" lon="15.987533844442291"><ele>15.0</ele><time>2026-04-26T17:06:17.999Z</time></trkpt><trkpt lat="39.454527921361496" lon="15.987656633783851"><ele>17.0</ele><time>2026-04-26T17:06:18.999Z</time></trkpt><trkpt lat="39.45434873829798" lon="15.987772750600552"><ele>17.0</ele><time>2026-04-26T17:06:19.999Z</time></trkpt><trkpt lat="39.454164199401085" lon="15.987881988545375"><ele>17.0</ele><time>2026-04-26T17:06:20.999Z</time></trkpt><trkpt lat="39.45397687391049" lon="15.98798442659609"><ele>17.0</ele><time>2026-04-26T17:06:21.999Z</time></trkpt><trkpt lat="39.45378732987202" lon="15.988080674183303"><ele>14.666666666666668</ele><time>2026-04-26T17:06:22.999Z</time></trkpt><trkpt lat="39.45359262250055" lon="15.988169385243868"><ele>12.333333333333334</ele><time>2026-04-26T17:06:23.999Z</time></trkpt><trkpt lat="39.45339782057013" lon="15.988253681172893"><ele>10.0</ele><time>2026-04-26T17:06:24.999Z</time></trkpt><trkpt lat="39.453202317469255" lon="15.988337159612653"><ele>14.333333333333334</ele><time>2026-04-26T17:06:25.999Z</time></trkpt><trkpt lat="39.45300441799274" lon="15.988421047471235"><ele>18.666666666666668</ele><time>2026-04-26T17:06:26.999Z</time></trkpt><trkpt lat="39.452806072286165" lon="15.988504935896284"><ele>23.0</ele><time>2026-04-26T17:06:27.999Z</time></trkpt><trkpt lat="39.45260659944798" lon="15.988588994056267"><ele>23.0</ele><time>2026-04-26T17:06:28.999Z</time></trkpt><trkpt lat="39.45240487263831" lon="15.988673872224874"><ele>23.0</ele><time>2026-04-26T17:06:29.999Z</time></trkpt><trkpt lat="39.45220369051389" lon="15.98875941844619"><ele>23.0</ele><time>2026-04-26T17:06:30.999Z</time></trkpt><trkpt lat="39.452001966804154" lon="15.988845807098535"><ele>20.0</ele><time>2026-04-26T17:06:31.999Z</time></trkpt><trkpt lat="39.45179967442918" lon="15.988935392464226"><ele>17.0</ele><time>2026-04-26T17:06:32.999Z</time></trkpt><trkpt lat="39.45159767103078" lon="15.989027832453164"><ele>14.0</ele><time>2026-04-26T17:06:33.999Z</time></trkpt><trkpt lat="39.45139558360971" lon="15.98912194257151"><ele>24.666666666666668</ele><time>2026-04-26T17:06:34.999Z</time></trkpt><trkpt lat="39.45119280402784" lon="15.989216884319696"><ele>35.333333333333336</ele><time>2026-04-26T17:06:35.999Z</time></trkpt><trkpt lat="39.45099098569025" lon="15.989312265303303"><ele>46.0</ele><time>2026-04-26T17:06:36.999Z</time></trkpt><trkpt lat="39.45078601473638" lon="15.989408441794648"><ele>46.0</ele><time>2026-04-26T17:06:37.999Z</time></trkpt><trkpt lat="39.45058436120647" lon="15.98950276317079"><ele>46.0</ele><time>2026-04-26T17:06:38.999Z</time></trkpt><trkpt lat="39.45038437118778" lon="15.989596307774024"><ele>46.0</ele><time>2026-04-26T17:06:39.999Z</time></trkpt><trkpt lat="39.450188764067754" lon="15.989689590730704"><ele>49.333333333333336</ele><time>2026-04-26T17:06:40.999Z</time></trkpt><trkpt lat="39.44999897554718" lon="15.989786541100226"><ele>52.66666666666667</ele><time>2026-04-26T17:06:41.999Z</time></trkpt><trkpt lat="39.44981521862803" lon="15.989914529864485"><ele>56.0</ele><time>2026-04-26T17:06:42.999Z</time></trkpt><trkpt lat="39.449648113385805" lon="15.990073187398554"><ele>43.0</ele><time>2026-04-26T17:06:43.999Z</time></trkpt><trkpt lat="39.449488933207" lon="15.990245686686135"><ele>30.0</ele><time>2026-04-26T17:06:44.999Z</time></trkpt><trkpt lat="39.449335927603244" lon="15.99042817417537"><ele>17.0</ele><time>2026-04-26T17:06:45.999Z</time></trkpt><trkpt lat="39.449178125410775" lon="15.990611650007809"><ele>17.0</ele><time>2026-04-26T17:06:46.998Z</time></trkpt><trkpt lat="39.449015936967946" lon="15.990798230576091"><ele>17.0</ele><time>2026-04-26T17:06:47.998Z</time></trkpt><trkpt lat="39.44885206157444" lon="15.99098836595523"><ele>17.0</ele><time>2026-04-26T17:06:48.998Z</time></trkpt><trkpt lat="39.448687571722054" lon="15.991179139227377"><ele>15.333333333333334</ele><time>2026-04-26T17:06:49.998Z</time></trkpt><trkpt lat="39.44852138637895" lon="15.991371878875457"><ele>13.666666666666668</ele><time>2026-04-26T17:06:50.998Z</time></trkpt><trkpt lat="39.44835347934421" lon="15.991566615324269"><ele>12.0</ele><time>2026-04-26T17:06:51.998Z</time></trkpt><trkpt lat="39.448183829700376" lon="15.991764416757215"><ele>12.0</ele><time>2026-04-26T17:06:52.998Z</time></trkpt><trkpt lat="39.44801423263947" lon="15.991962265518175"><ele>12.0</ele><time>2026-04-26T17:06:53.998Z</time></trkpt><trkpt lat="39.44784346590121" lon="15.992158421618733"><ele>10.5</ele><time>2026-04-26T17:06:54.998Z</time></trkpt><trkpt lat="39.44767185638788" lon="15.992354247893376"><ele>9.0</ele><time>2026-04-26T17:06:55.998Z</time></trkpt><trkpt lat="39.44750084178535" lon="15.992549874482865"><ele>9.0</ele><time>2026-04-26T17:06:56.998Z</time></trkpt><trkpt lat="39.447332800793504" lon="15.992747955431321"><ele>9.0</ele><time>2026-04-26T17:06:57.998Z</time></trkpt><trkpt lat="39.44716585666519" lon="15.992946766814214"><ele>8.333333333333334</ele><time>2026-04-26T17:06:58.998Z</time></trkpt><trkpt lat="39.446999626239645" lon="15.993144727913082"><ele>7.666666666666667</ele><time>2026-04-26T17:06:59.998Z</time></trkpt><trkpt lat="39.446836829833636" lon="15.993341032051548"><ele>7.0</ele><time>2026-04-26T17:07:00.998Z</time></trkpt><trkpt lat="39.44668658053023" lon="15.99355152924664"><ele>7.0</ele><time>2026-04-26T17:07:01.998Z</time></trkpt><trkpt lat="39.44652147517808" lon="15.993733789451277"><ele>7.0</ele><time>2026-04-26T17:07:02.998Z</time></trkpt><trkpt lat="39.4463570206025" lon="15.993909222718178"><ele>7.0</ele><time>2026-04-26T17:07:03.998Z</time></trkpt><trkpt lat="39.44619523599463" lon="15.994080955772073"><ele>7.333333333333334</ele><time>2026-04-26T17:07:04.998Z</time></trkpt><trkpt lat="39.44603677353155" lon="15.994248302908586"><ele>7.666666666666666</ele><time>2026-04-26T17:07:05.998Z</time></trkpt><trkpt lat="39.44587998111368" lon="15.994413456497872"><ele>8.0</ele><time>2026-04-26T17:07:06.998Z</time></trkpt><trkpt lat="39.445722080844426" lon="15.994577098256508"><ele>8.0</ele><time>2026-04-26T17:07:07.999Z</time></trkpt><trkpt lat="39.44556077677029" lon="15.994733776335197"><ele>8.0</ele><time>2026-04-26T17:07:08.999Z</time></trkpt><trkpt lat="39.44539807237366" lon="15.9948750058499"><ele>8.0</ele><time>2026-04-26T17:07:09.999Z</time></trkpt><trkpt lat="39.44523662584176" lon="15.995002184078656"><ele>8.333333333333332</ele><time>2026-04-26T17:07:10.999Z</time></trkpt><trkpt lat="39.4450730731743" lon="15.995120644378119"><ele>8.666666666666666</ele><time>2026-04-26T17:07:11.999Z</time></trkpt><trkpt lat="39.44491288600204" lon="15.995236098494939"><ele>9.0</ele><time>2026-04-26T17:07:12.999Z</time></trkpt><trkpt lat="39.44475458803056" lon="15.995349069015647"><ele>8.333333333333334</ele><time>2026-04-26T17:07:13.999Z</time></trkpt><trkpt lat="39.44459810415434" lon="15.995456333148752"><ele>7.666666666666667</ele><time>2026-04-26T17:07:15Z</time></trkpt><trkpt lat="39.44444285404391" lon="15.995564289858274"><ele>7.0</ele><time>2026-04-26T17:07:16Z</time></trkpt><trkpt lat="39.444287310982965" lon="15.995669421540581"><ele>7.0</ele><time>2026-04-26T17:07:17Z</time></trkpt><trkpt lat="39.44412963986768" lon="15.9957774638758"><ele>7.0</ele><time>2026-04-26T17:07:18Z</time></trkpt><trkpt lat="39.44397342451433" lon="15.995886413062458"><ele>7.0</ele><time>2026-04-26T17:07:19Z</time></trkpt><trkpt lat="39.443815843072926" lon="15.995997545542831"><ele>6.666666666666667</ele><time>2026-04-26T17:07:20Z</time></trkpt><trkpt lat="39.44365886033121" lon="15.996112123883643"><ele>6.333333333333334</ele><time>2026-04-26T17:07:21Z</time></trkpt><trkpt lat="39.44350138278769" lon="15.996227972108246"><ele>6.0</ele><time>2026-04-26T17:07:22Z</time></trkpt><trkpt lat="39.443342206988184" lon="15.996339965431318"><ele>6.0</ele><time>2026-04-26T17:07:23Z</time></trkpt><trkpt lat="39.44318034886718" lon="15.996446198983799"><ele>6.0</ele><time>2026-04-26T17:07:24Z</time></trkpt><trkpt lat="39.44301466927605" lon="15.996554185095688"><ele>6.0</ele><time>2026-04-26T17:07:25Z</time></trkpt><trkpt lat="39.442846930748196" lon="15.996657911097786"><ele>6.0</ele><time>2026-04-26T17:07:26Z</time></trkpt><trkpt lat="39.44267357861529" lon="15.996755943981231"><ele>6.0</ele><time>2026-04-26T17:07:27Z</time></trkpt><trkpt lat="39.442493784523045" lon="15.996862523974405"><ele>6.0</ele><time>2026-04-26T17:07:28Z</time></trkpt><trkpt lat="39.442319911425194" lon="15.996962380352494"><ele>6.0</ele><time>2026-04-26T17:07:29Z</time></trkpt><trkpt lat="39.4421461211762" lon="15.997061474258565"><ele>6.0</ele><time>2026-04-26T17:07:30Z</time></trkpt><trkpt lat="39.44196854598431" lon="15.99715736109665"><ele>6.0</ele><time>2026-04-26T17:07:31Z</time></trkpt><trkpt lat="39.44179048689112" lon="15.997247137200638"><ele>6.0</ele><time>2026-04-26T17:07:32Z</time></trkpt><trkpt lat="39.44160774119413" lon="15.997331397451356"><ele>6.0</ele><time>2026-04-26T17:07:33Z</time></trkpt><trkpt lat="39.44142352003116" lon="15.997412711965243"><ele>6.0</ele><time>2026-04-26T17:07:34Z</time></trkpt><trkpt lat="39.44124309722059" lon="15.997490116079224"><ele>5.333333333333333</ele><time>2026-04-26T17:07:35Z</time></trkpt><trkpt lat="39.44106372090021" lon="15.997566251499084"><ele>4.666666666666666</ele><time>2026-04-26T17:07:36Z</time></trkpt><trkpt lat="39.44088331619157" lon="15.997642590220172"><ele>4.0</ele><time>2026-04-26T17:07:37Z</time></trkpt><trkpt lat="39.4407029594406" lon="15.997717742340187"><ele>4.0</ele><time>2026-04-26T17:07:38Z</time></trkpt><trkpt lat="39.440523551062405" lon="15.997795420086947"><ele>4.0</ele><time>2026-04-26T17:07:39Z</time></trkpt><trkpt lat="39.440343843460894" lon="15.997875928671515"><ele>4.0</ele><time>2026-04-26T17:07:40Z</time></trkpt><trkpt lat="39.440166287456286" lon="15.997954990068065"><ele>4.333333333333333</ele><time>2026-04-26T17:07:41Z</time></trkpt><trkpt lat="39.43999150214282" lon="15.998031464404205"><ele>4.666666666666667</ele><time>2026-04-26T17:07:42Z</time></trkpt><trkpt lat="39.43981776132659" lon="15.998107361818548"><ele>5.0</ele><time>2026-04-26T17:07:42.999Z</time></trkpt><trkpt lat="39.43964448590003" lon="15.998182989901247"><ele>5.333333333333334</ele><time>2026-04-26T17:07:43.999Z</time></trkpt><trkpt lat="39.43947258505736" lon="15.998254223710628"><ele>5.666666666666667</ele><time>2026-04-26T17:07:44.999Z</time></trkpt><trkpt lat="39.43930101475643" lon="15.998327557856244"><ele>6.0</ele><time>2026-04-26T17:07:45.999Z</time></trkpt><trkpt lat="39.43913048900489" lon="15.998398198789545"><ele>6.0</ele><time>2026-04-26T17:07:46.999Z</time></trkpt><trkpt lat="39.43896112713393" lon="15.998469310726575"><ele>6.0</ele><time>2026-04-26T17:07:47.999Z</time></trkpt><trkpt lat="39.43879159482177" lon="15.998544635719202"><ele>6.0</ele><time>2026-04-26T17:07:48.999Z</time></trkpt><trkpt lat="39.43862413770799" lon="15.998620932054127"><ele>6.333333333333334</ele><time>2026-04-26T17:07:49.999Z</time></trkpt><trkpt lat="39.438456277475126" lon="15.998698837244925"><ele>6.666666666666667</ele><time>2026-04-26T17:07:50.999Z</time></trkpt><trkpt lat="39.43828896318947" lon="15.998777627281573"><ele>7.0</ele><time>2026-04-26T17:07:51.999Z</time></trkpt><trkpt lat="39.43812523501774" lon="15.998854501027527"><ele>7.0</ele><time>2026-04-26T17:07:52.999Z</time></trkpt><trkpt lat="39.437959874600345" lon="15.99893632092875"><ele>7.0</ele><time>2026-04-26T17:07:53.999Z</time></trkpt><trkpt lat="39.43779413035226" lon="15.99901775179728"><ele>7.0</ele><time>2026-04-26T17:07:54.999Z</time></trkpt><trkpt lat="39.43762564068072" lon="15.999100032474978"><ele>7.0</ele><time>2026-04-26T17:07:55.999Z</time></trkpt><trkpt lat="39.437455905063" lon="15.99918397884992"><ele>7.0</ele><time>2026-04-26T17:07:56.999Z</time></trkpt><trkpt lat="39.43728482138354" lon="15.9992645487878"><ele>7.0</ele><time>2026-04-26T17:07:57.999Z</time></trkpt><trkpt lat="39.43710604050599" lon="15.999352863268147"><ele>7.666666666666667</ele><time>2026-04-26T17:07:58.999Z</time></trkpt><trkpt lat="39.43692632369993" lon="15.999442147800247"><ele>8.333333333333334</ele><time>2026-04-26T17:07:59.999Z</time></trkpt><trkpt lat="39.43674547842628" lon="15.999532298765354"><ele>9.0</ele><time>2026-04-26T17:08:00.999Z</time></trkpt><trkpt lat="39.43656449144131" lon="15.999625301409258"><ele>9.0</ele><time>2026-04-26T17:08:01.999Z</time></trkpt><trkpt lat="39.436385048209026" lon="15.999716311697673"><ele>9.0</ele><time>2026-04-26T17:08:02.999Z</time></trkpt><trkpt lat="39.43620993431833" lon="15.999803669598386"><ele>9.0</ele><time>2026-04-26T17:08:03.999Z</time></trkpt><trkpt lat="39.43605630346248" lon="15.999877719072284"><ele>9.0</ele><time>2026-04-26T17:08:04.999Z</time></trkpt><trkpt lat="39.435909153213444" lon="15.999947243710235"><ele>9.0</ele><time>2026-04-26T17:08:05.999Z</time></trkpt><trkpt lat="39.43577168884506" lon="16.00001520896851"><ele>9.0</ele><time>2026-04-26T17:08:06.999Z</time></trkpt><trkpt lat="39.435639346591024" lon="16.00008064963809"><ele>9.0</ele><time>2026-04-26T17:08:07.999Z</time></trkpt><trkpt lat="39.435514974827285" lon="16.00014135465997"><ele>8.75</ele><time>2026-04-26T17:08:08.999Z</time></trkpt><trkpt lat="39.43538740044047" lon="16.000206099877364"><ele>8.5</ele><time>2026-04-26T17:08:09.999Z</time></trkpt><trkpt lat="39.43526059318627" lon="16.00027249063818"><ele>8.25</ele><time>2026-04-26T17:08:10.999Z</time></trkpt><trkpt lat="39.435134265317046" lon="16.00033864930944"><ele>8.0</ele><time>2026-04-26T17:08:11.999Z</time></trkpt><trkpt lat="39.43500393818478" lon="16.00040545520074"><ele>8.0</ele><time>2026-04-26T17:08:12.999Z</time></trkpt><trkpt lat="39.43487150415848" lon="16.000480862377398"><ele>8.0</ele><time>2026-04-26T17:08:13.999Z</time></trkpt><trkpt lat="39.434738166675224" lon="16.000562349949753"><ele>8.0</ele><time>2026-04-26T17:08:14.999Z</time></trkpt><trkpt lat="39.43459865149347" lon="16.00064843122974"><ele>8.0</ele><time>2026-04-26T17:08:15.999Z</time></trkpt><trkpt lat="39.43445487379828" lon="16.000733637499177"><ele>7.666666666666666</ele><time>2026-04-26T17:08:16.999Z</time></trkpt><trkpt lat="39.43430561498917" lon="16.000829882163128"><ele>7.333333333333334</ele><time>2026-04-26T17:08:17.999Z</time></trkpt><trkpt lat="39.434150968175345" lon="16.00094046985177"><ele>7.0</ele><time>2026-04-26T17:08:18.999Z</time></trkpt><trkpt lat="39.43399176720324" lon="16.00105139481412"><ele>7.0</ele><time>2026-04-26T17:08:19.999Z</time></trkpt><trkpt lat="39.43382973921337" lon="16.001159767053135"><ele>7.0</ele><time>2026-04-26T17:08:20.999Z</time></trkpt><trkpt lat="39.43367759743066" lon="16.001258077450572"><ele>7.0</ele><time>2026-04-26T17:08:21.999Z</time></trkpt><trkpt lat="39.43353010140765" lon="16.00135476925829"><ele>7.0</ele><time>2026-04-26T17:08:22.999Z</time></trkpt><trkpt lat="39.43338259209481" lon="16.001448703431056"><ele>7.0</ele><time>2026-04-26T17:08:23.999Z</time></trkpt><trkpt lat="39.43323673634397" lon="16.001535762120902"><ele>7.0</ele><time>2026-04-26T17:08:24.999Z</time></trkpt><trkpt lat="39.433091765887156" lon="16.001622676961503"><ele>7.0</ele><time>2026-04-26T17:08:25.999Z</time></trkpt><trkpt lat="39.43294821988744" lon="16.001707103892297"><ele>7.0</ele><time>2026-04-26T17:08:26.999Z</time></trkpt><trkpt lat="39.43280519821555" lon="16.001787998542444"><ele>7.0</ele><time>2026-04-26T17:08:27.999Z</time></trkpt><trkpt lat="39.43265979862103" lon="16.00185693428508"><ele>7.0</ele><time>2026-04-26T17:08:28.999Z</time></trkpt><trkpt lat="39.43251913389148" lon="16.001935300474944"><ele>7.0</ele><time>2026-04-26T17:08:29.999Z</time></trkpt><trkpt lat="39.43237873874663" lon="16.002013729395227"><ele>7.0</ele><time>2026-04-26T17:08:30.999Z</time></trkpt><trkpt lat="39.432238767099555" lon="16.002091777356807"><ele>6.666666666666667</ele><time>2026-04-26T17:08:31.999Z</time></trkpt><trkpt lat="39.43209325280352" lon="16.00216777355883"><ele>6.333333333333334</ele><time>2026-04-26T17:08:32.999Z</time></trkpt><trkpt lat="39.431945476050224" lon="16.002244650348487"><ele>6.0</ele><time>2026-04-26T17:08:33.999Z</time></trkpt><trkpt lat="39.43179702923943" lon="16.002324318255233"><ele>6.0</ele><time>2026-04-26T17:08:34.999Z</time></trkpt><trkpt lat="39.4316470433851" lon="16.002407137902008"><ele>6.0</ele><time>2026-04-26T17:08:35.999Z</time></trkpt><trkpt lat="39.43149191647321" lon="16.002491243765128"><ele>6.0</ele><time>2026-04-26T17:08:36.999Z</time></trkpt><trkpt lat="39.43133426873463" lon="16.002579439242226"><ele>6.666666666666666</ele><time>2026-04-26T17:08:37.999Z</time></trkpt><trkpt lat="39.43117381522503" lon="16.00266838694404"><ele>7.333333333333333</ele><time>2026-04-26T17:08:38.999Z</time></trkpt><trkpt lat="39.4310143260525" lon="16.002751068900025"><ele>8.0</ele><time>2026-04-26T17:08:39.999Z</time></trkpt><trkpt lat="39.43085791960468" lon="16.002823426992116"><ele>8.0</ele><time>2026-04-26T17:08:40.999Z</time></trkpt><trkpt lat="39.4307034514658" lon="16.00288654761225"><ele>8.0</ele><time>2026-04-26T17:08:41.999Z</time></trkpt><trkpt lat="39.43055135522057" lon="16.00293814048254"><ele>8.0</ele><time>2026-04-26T17:08:42.999Z</time></trkpt><trkpt lat="39.43039952435882" lon="16.00298156476339"><ele>8.0</ele><time>2026-04-26T17:08:43.999Z</time></trkpt><trkpt lat="39.430247145178896" lon="16.00302395147569"><ele>8.0</ele><time>2026-04-26T17:08:44.999Z</time></trkpt><trkpt lat="39.43009833491588" lon="16.00306328030645"><ele>8.0</ele><time>2026-04-26T17:08:45.999Z</time></trkpt><trkpt lat="39.42994822274566" lon="16.003104444904018"><ele>8.0</ele><time>2026-04-26T17:08:46.999Z</time></trkpt><trkpt lat="39.42979992466765" lon="16.003143430550377"><ele>8.0</ele><time>2026-04-26T17:08:47.999Z</time></trkpt><trkpt lat="39.429650229116966" lon="16.003185036659236"><ele>8.0</ele><time>2026-04-26T17:08:48.999Z</time></trkpt><trkpt lat="39.42949583576736" lon="16.00322831378216"><ele>8.0</ele><time>2026-04-26T17:08:49.999Z</time></trkpt><trkpt lat="39.42933696775044" lon="16.003273839290003"><ele>8.0</ele><time>2026-04-26T17:08:50.999Z</time></trkpt><trkpt lat="39.429175933460954" lon="16.003314622536323"><ele>8.0</ele><time>2026-04-26T17:08:51.999Z</time></trkpt><trkpt lat="39.42901417757871" lon="16.003356833917422"><ele>8.0</ele><time>2026-04-26T17:08:52.999Z</time></trkpt><trkpt lat="39.42885550833915" lon="16.0034033034603"><ele>8.0</ele><time>2026-04-26T17:08:53.999Z</time></trkpt><trkpt lat="39.42870438675884" lon="16.003452175935166"><ele>8.0</ele><time>2026-04-26T17:08:54.999Z</time></trkpt><trkpt lat="39.42856109862688" lon="16.003499991999057"><ele>8.0</ele><time>2026-04-26T17:08:55.999Z</time></trkpt><trkpt lat="39.42842432035513" lon="16.003549053806392"><ele>8.0</ele><time>2026-04-26T17:08:56.999Z</time></trkpt><trkpt lat="39.42829432931947" lon="16.003595600181306"><ele>8.0</ele><time>2026-04-26T17:08:57.999Z</time></trkpt><trkpt lat="39.42817477191416" lon="16.003635697544098"><ele>8.0</ele><time>2026-04-26T17:08:58.999Z</time></trkpt><trkpt lat="39.42807574005041" lon="16.00366722738987"><ele>8.0</ele><time>2026-04-26T17:08:59.999Z</time></trkpt><trkpt lat="39.42799236833239" lon="16.003693960218303"><ele>8.0</ele><time>2026-04-26T17:09:00.999Z</time></trkpt><trkpt lat="39.42792730295847" lon="16.003713758764416"><ele>8.0</ele><time>2026-04-26T17:09:01.999Z</time></trkpt><trkpt lat="39.42782619298371" lon="16.003759712931696"><ele>8.0</ele><time>2026-04-26T17:09:03.999Z</time></trkpt><trkpt lat="39.42773490939558" lon="16.003801226501317"><ele>8.0</ele><time>2026-04-26T17:09:05.999Z</time></trkpt><trkpt lat="39.42761830184191" lon="16.003843688281023"><ele>7.833333333333333</ele><time>2026-04-26T17:09:07.999Z</time></trkpt><trkpt lat="39.42753896948056" lon="16.00387835941523"><ele>7.666666666666666</ele><time>2026-04-26T17:09:08.998Z</time></trkpt><trkpt lat="39.42745537543208" lon="16.003919747406794"><ele>7.5</ele><time>2026-04-26T17:09:09.998Z</time></trkpt><trkpt lat="39.42737427037582" lon="16.003955430473574"><ele>7.333333333333334</ele><time>2026-04-26T17:09:10.998Z</time></trkpt><trkpt lat="39.42729330419048" lon="16.003986587294452"><ele>7.166666666666667</ele><time>2026-04-26T17:09:11.998Z</time></trkpt><trkpt lat="39.427214460155874" lon="16.00401624855492"><ele>7.0</ele><time>2026-04-26T17:09:12.998Z</time></trkpt><trkpt lat="39.4271294354518" lon="16.004047527006556"><ele>6.8</ele><time>2026-04-26T17:09:14Z</time></trkpt><trkpt lat="39.427036658220146" lon="16.004078382004792"><ele>6.6</ele><time>2026-04-26T17:09:15Z</time></trkpt><trkpt lat="39.42694216418619" lon="16.00411055839494"><ele>6.3999999999999995</ele><time>2026-04-26T17:09:16Z</time></trkpt><trkpt lat="39.42684180828941" lon="16.004145415971763"><ele>6.199999999999999</ele><time>2026-04-26T17:09:17Z</time></trkpt><trkpt lat="39.42673835482387" lon="16.004184262739443"><ele>6.0</ele><time>2026-04-26T17:09:18Z</time></trkpt><trkpt lat="39.426630242287004" lon="16.004225203190135"><ele>7.0</ele><time>2026-04-26T17:09:19Z</time></trkpt><trkpt lat="39.42651792727911" lon="16.0042681694043"><ele>8.0</ele><time>2026-04-26T17:09:20Z</time></trkpt><trkpt lat="39.42640089656733" lon="16.004313304047578"><ele>9.0</ele><time>2026-04-26T17:09:21Z</time></trkpt><trkpt lat="39.42627809095263" lon="16.004361964890812"><ele>10.0</ele><time>2026-04-26T17:09:22Z</time></trkpt><trkpt lat="39.426153234988824" lon="16.004404020253887"><ele>10.0</ele><time>2026-04-26T17:09:23Z</time></trkpt><trkpt lat="39.42602361913655" lon="16.00444873333087"><ele>10.0</ele><time>2026-04-26T17:09:24Z</time></trkpt><trkpt lat="39.4258903034479" lon="16.00450396366496"><ele>10.0</ele><time>2026-04-26T17:09:25Z</time></trkpt><trkpt lat="39.42575311521477" lon="16.004556222773445"><ele>10.0</ele><time>2026-04-26T17:09:26Z</time></trkpt><trkpt lat="39.42561648115261" lon="16.00460572806897"><ele>9.75</ele><time>2026-04-26T17:09:27Z</time></trkpt><trkpt lat="39.4254775044736" lon="16.004667806910895"><ele>9.5</ele><time>2026-04-26T17:09:28Z</time></trkpt><trkpt lat="39.42533762602398" lon="16.00472068919099"><ele>9.25</ele><time>2026-04-26T17:09:29Z</time></trkpt><trkpt lat="39.425194186267674" lon="16.00477550489701"><ele>9.0</ele><time>2026-04-26T17:09:30Z</time></trkpt><trkpt lat="39.42504960830741" lon="16.00483164098817"><ele>9.0</ele><time>2026-04-26T17:09:31Z</time></trkpt><trkpt lat="39.42490632131589" lon="16.004891730028476"><ele>9.0</ele><time>2026-04-26T17:09:32Z</time></trkpt><trkpt lat="39.42476438353756" lon="16.004965268874443"><ele>9.0</ele><time>2026-04-26T17:09:33Z</time></trkpt><trkpt lat="39.424624785528444" lon="16.005039763766685"><ele>9.666666666666666</ele><time>2026-04-26T17:09:34Z</time></trkpt><trkpt lat="39.42448713771153" lon="16.0051124849333"><ele>10.333333333333332</ele><time>2026-04-26T17:09:35Z</time></trkpt><trkpt lat="39.42434732392355" lon="16.005186862799075"><ele>11.0</ele><time>2026-04-26T17:09:36Z</time></trkpt><trkpt lat="39.42420785722452" lon="16.005264630067654"><ele>11.0</ele><time>2026-04-26T17:09:37Z</time></trkpt><trkpt lat="39.424072102349086" lon="16.0053423105992"><ele>11.0</ele><time>2026-04-26T17:09:38Z</time></trkpt><trkpt lat="39.42393171830615" lon="16.00541555020284"><ele>11.0</ele><time>2026-04-26T17:09:39Z</time></trkpt><trkpt lat="39.42379086281116" lon="16.005492498231852"><ele>10.666666666666666</ele><time>2026-04-26T17:09:40Z</time></trkpt><trkpt lat="39.42365060506367" lon="16.005571554026986"><ele>10.333333333333334</ele><time>2026-04-26T17:09:41Z</time></trkpt><trkpt lat="39.42350970940987" lon="16.005650310343377"><ele>10.0</ele><time>2026-04-26T17:09:42Z</time></trkpt><trkpt lat="39.42336776513934" lon="16.00573087195685"><ele>10.0</ele><time>2026-04-26T17:09:43Z</time></trkpt><trkpt lat="39.42322486561986" lon="16.005812438650725"><ele>10.0</ele><time>2026-04-26T17:09:44Z</time></trkpt><trkpt lat="39.423079365417955" lon="16.00589140110988"><ele>10.0</ele><time>2026-04-26T17:09:45Z</time></trkpt><trkpt lat="39.422933938757744" lon="16.005969243952187"><ele>10.0</ele><time>2026-04-26T17:09:46Z</time></trkpt><trkpt lat="39.422788541683424" lon="16.00605125713337"><ele>10.0</ele><time>2026-04-26T17:09:47Z</time></trkpt><trkpt lat="39.42264063356618" lon="16.006134638608582"><ele>10.0</ele><time>2026-04-26T17:09:48Z</time></trkpt><trkpt lat="39.422493479852484" lon="16.006221993119954"><ele>10.0</ele><time>2026-04-26T17:09:49Z</time></trkpt><trkpt lat="39.422347689658025" lon="16.00631586516504"><ele>10.0</ele><time>2026-04-26T17:09:50Z</time></trkpt><trkpt lat="39.42220307211024" lon="16.00641701784912"><ele>10.0</ele><time>2026-04-26T17:09:51Z</time></trkpt><trkpt lat="39.422064125446376" lon="16.006529782435543"><ele>9.333333333333334</ele><time>2026-04-26T17:09:52Z</time></trkpt><trkpt lat="39.42192913803046" lon="16.006651803664777"><ele>8.666666666666666</ele><time>2026-04-26T17:09:53Z</time></trkpt><trkpt lat="39.42179375185843" lon="16.006777669839213"><ele>8.0</ele><time>2026-04-26T17:09:54Z</time></trkpt><trkpt lat="39.42166130463892" lon="16.006905468122085"><ele>8.0</ele><time>2026-04-26T17:09:55Z</time></trkpt><trkpt lat="39.421527295318015" lon="16.007035964188745"><ele>8.0</ele><time>2026-04-26T17:09:56Z</time></trkpt><trkpt lat="39.42139359696998" lon="16.00716832313488"><ele>8.0</ele><time>2026-04-26T17:09:57Z</time></trkpt><trkpt lat="39.421262097993306" lon="16.00729921576651"><ele>7.666666666666666</ele><time>2026-04-26T17:09:58Z</time></trkpt><trkpt lat="39.421132725646366" lon="16.00742636371272"><ele>7.333333333333334</ele><time>2026-04-26T17:09:59Z</time></trkpt><trkpt lat="39.42100344273248" lon="16.007556612576224"><ele>7.0</ele><time>2026-04-26T17:09:59.999Z</time></trkpt><trkpt lat="39.420875101034426" lon="16.007685878502336"><ele>7.0</ele><time>2026-04-26T17:10:00.999Z</time></trkpt><trkpt lat="39.420748551157494" lon="16.007814302090537"><ele>7.0</ele><time>2026-04-26T17:10:01.999Z</time></trkpt><trkpt lat="39.42062238859475" lon="16.00794043874171"><ele>7.0</ele><time>2026-04-26T17:10:02.999Z</time></trkpt><trkpt lat="39.42049681796356" lon="16.008065923936485"><ele>7.0</ele><time>2026-04-26T17:10:03.999Z</time></trkpt><trkpt lat="39.42037079782901" lon="16.008188787761156"><ele>7.0</ele><time>2026-04-26T17:10:04.999Z</time></trkpt><trkpt lat="39.42024448582375" lon="16.008311240464508"><ele>7.0</ele><time>2026-04-26T17:10:05.999Z</time></trkpt><trkpt lat="39.42012075941518" lon="16.008436714644255"><ele>7.333333333333334</ele><time>2026-04-26T17:10:06.999Z</time></trkpt><trkpt lat="39.419998000526995" lon="16.008554870484733"><ele>7.666666666666666</ele><time>2026-04-26T17:10:07.999Z</time></trkpt><trkpt lat="39.41987553391393" lon="16.008672478186565"><ele>8.0</ele><time>2026-04-26T17:10:08.999Z</time></trkpt><trkpt lat="39.41975412975749" lon="16.008794107200515"><ele>8.0</ele><time>2026-04-26T17:10:09.999Z</time></trkpt><trkpt lat="39.41963365599616" lon="16.008913705860635"><ele>8.0</ele><time>2026-04-26T17:10:10.999Z</time></trkpt><trkpt lat="39.41951425866517" lon="16.00903058517804"><ele>8.0</ele><time>2026-04-26T17:10:11.999Z</time></trkpt><trkpt lat="39.41939557369197" lon="16.009150864452142"><ele>8.5</ele><time>2026-04-26T17:10:12.999Z</time></trkpt><trkpt lat="39.41927809216719" lon="16.009270308533633"><ele>9.0</ele><time>2026-04-26T17:10:13.999Z</time></trkpt><trkpt lat="39.41915857958496" lon="16.00938791222804"><ele>9.5</ele><time>2026-04-26T17:10:14.999Z</time></trkpt><trkpt lat="39.41904172623261" lon="16.009505582170725"><ele>10.0</ele><time>2026-04-26T17:10:15.999Z</time></trkpt><trkpt lat="39.418925190883364" lon="16.009625979405172"><ele>10.75</ele><time>2026-04-26T17:10:16.999Z</time></trkpt><trkpt lat="39.41880828678855" lon="16.00974316054766"><ele>11.5</ele><time>2026-04-26T17:10:17.999Z</time></trkpt><trkpt lat="39.418688997080935" lon="16.009857846535265"><ele>12.25</ele><time>2026-04-26T17:10:18.999Z</time></trkpt><trkpt lat="39.41856909948553" lon="16.00997289017502"><ele>13.0</ele><time>2026-04-26T17:10:19.999Z</time></trkpt><trkpt lat="39.418450690722516" lon="16.01009080663995"><ele>14.25</ele><time>2026-04-26T17:10:20.999Z</time></trkpt><trkpt lat="39.41833328446641" lon="16.01020772384328"><ele>15.5</ele><time>2026-04-26T17:10:21.999Z</time></trkpt><trkpt lat="39.41821890095018" lon="16.010330420748023"><ele>16.75</ele><time>2026-04-26T17:10:22.999Z</time></trkpt><trkpt lat="39.41810000076607" lon="16.01044650640446"><ele>18.0</ele><time>2026-04-26T17:10:23.999Z</time></trkpt><trkpt lat="39.41798195791458" lon="16.01056832366784"><ele>18.75</ele><time>2026-04-26T17:10:24.999Z</time></trkpt><trkpt lat="39.41786301149863" lon="16.010685082538757"><ele>19.5</ele><time>2026-04-26T17:10:25.999Z</time></trkpt><trkpt lat="39.41774289578456" lon="16.010800747463506"><ele>20.25</ele><time>2026-04-26T17:10:26.999Z</time></trkpt><trkpt lat="39.41762616292416" lon="16.010918488398968"><ele>21.0</ele><time>2026-04-26T17:10:27.999Z</time></trkpt><trkpt lat="39.417510138874704" lon="16.011035086098946"><ele>22.0</ele><time>2026-04-26T17:10:28.999Z</time></trkpt><trkpt lat="39.41739191204727" lon="16.011153515984645"><ele>23.0</ele><time>2026-04-26T17:10:29.999Z</time></trkpt><trkpt lat="39.417274245682606" lon="16.011271954805512"><ele>24.0</ele><time>2026-04-26T17:10:30.999Z</time></trkpt><trkpt lat="39.417155876361065" lon="16.011386592917326"><ele>25.0</ele><time>2026-04-26T17:10:31.999Z</time></trkpt><trkpt lat="39.41703863684868" lon="16.011508910247297"><ele>25.0</ele><time>2026-04-26T17:10:32.999Z</time></trkpt><trkpt lat="39.41692027088048" lon="16.01162808491874"><ele>25.0</ele><time>2026-04-26T17:10:33.999Z</time></trkpt><trkpt lat="39.416798357543165" lon="16.01175027542764"><ele>25.0</ele><time>2026-04-26T17:10:34.999Z</time></trkpt><trkpt lat="39.41667520634949" lon="16.011868500550154"><ele>24.666666666666668</ele><time>2026-04-26T17:10:35.999Z</time></trkpt><trkpt lat="39.41655337096047" lon="16.011985008337344"><ele>24.333333333333336</ele><time>2026-04-26T17:10:36.999Z</time></trkpt><trkpt lat="39.41643262431351" lon="16.012106916905093"><ele>24.0</ele><time>2026-04-26T17:10:37.999Z</time></trkpt><trkpt lat="39.41631284561326" lon="16.012229574538075"><ele>24.0</ele><time>2026-04-26T17:10:38.999Z</time></trkpt><trkpt lat="39.416191647252056" lon="16.012343213847224"><ele>24.0</ele><time>2026-04-26T17:10:39.999Z</time></trkpt><trkpt lat="39.41607016771523" lon="16.012448147824973"><ele>24.0</ele><time>2026-04-26T17:10:40.999Z</time></trkpt><trkpt lat="39.41595329134345" lon="16.012550190125825"><ele>24.0</ele><time>2026-04-26T17:10:41.999Z</time></trkpt><trkpt lat="39.41583760165098" lon="16.01264865204454"><ele>25.25</ele><time>2026-04-26T17:10:42.999Z</time></trkpt><trkpt lat="39.415721872083125" lon="16.01274156450382"><ele>26.5</ele><time>2026-04-26T17:10:43.999Z</time></trkpt><trkpt lat="39.41560459920335" lon="16.01282954458809"><ele>27.75</ele><time>2026-04-26T17:10:44.999Z</time></trkpt><trkpt lat="39.41548736437974" lon="16.012913784936362"><ele>29.0</ele><time>2026-04-26T17:10:45.999Z</time></trkpt><trkpt lat="39.415372391169775" lon="16.012999025985103"><ele>29.0</ele><time>2026-04-26T17:10:46.999Z</time></trkpt><trkpt lat="39.415257069922774" lon="16.013083760871194"><ele>29.0</ele><time>2026-04-26T17:10:47.999Z</time></trkpt><trkpt lat="39.41514126849692" lon="16.013165136981687"><ele>29.0</ele><time>2026-04-26T17:10:48.999Z</time></trkpt><trkpt lat="39.41502408151679" lon="16.01324809957162"><ele>29.0</ele><time>2026-04-26T17:10:49.999Z</time></trkpt><trkpt lat="39.41490699258538" lon="16.01332787871396"><ele>29.25</ele><time>2026-04-26T17:10:50.999Z</time></trkpt><trkpt lat="39.41479194973449" lon="16.01341056957306"><ele>29.5</ele><time>2026-04-26T17:10:51.999Z</time></trkpt><trkpt lat="39.414675379782125" lon="16.01349363102268"><ele>29.75</ele><time>2026-04-26T17:10:52.999Z</time></trkpt><trkpt lat="39.41455642557552" lon="16.013580262814433"><ele>30.0</ele><time>2026-04-26T17:10:53.999Z</time></trkpt><trkpt lat="39.41443796418474" lon="16.01366618582733"><ele>30.0</ele><time>2026-04-26T17:10:54.999Z</time></trkpt><trkpt lat="39.41431758086242" lon="16.013755064533942"><ele>30.0</ele><time>2026-04-26T17:10:55.999Z</time></trkpt><trkpt lat="39.41419536545462" lon="16.013839499267903"><ele>30.0</ele><time>2026-04-26T17:10:56.999Z</time></trkpt><trkpt lat="39.41407318827558" lon="16.01392018250799"><ele>30.0</ele><time>2026-04-26T17:10:57.999Z</time></trkpt><trkpt lat="39.41395319655339" lon="16.01400712138297"><ele>30.0</ele><time>2026-04-26T17:10:58.999Z</time></trkpt><trkpt lat="39.413831956954134" lon="16.014090335201043"><ele>30.0</ele><time>2026-04-26T17:10:59.999Z</time></trkpt><trkpt lat="39.4137100783136" lon="16.014169077086393"><ele>30.0</ele><time>2026-04-26T17:11:00.999Z</time></trkpt><trkpt lat="39.41358498508488" lon="16.014244980840886"><ele>30.0</ele><time>2026-04-26T17:11:01.999Z</time></trkpt><trkpt lat="39.413452595601946" lon="16.014304324569252"><ele>29.75</ele><time>2026-04-26T17:11:02.999Z</time></trkpt><trkpt lat="39.41331319491534" lon="16.014356181016748"><ele>29.5</ele><time>2026-04-26T17:11:03.999Z</time></trkpt><trkpt lat="39.41316685574991" lon="16.014397335812767"><ele>29.25</ele><time>2026-04-26T17:11:04.999Z</time></trkpt><trkpt lat="39.41301508682961" lon="16.01443212331139"><ele>29.0</ele><time>2026-04-26T17:11:05.999Z</time></trkpt><trkpt lat="39.41285569316734" lon="16.014460549293474"><ele>29.0</ele><time>2026-04-26T17:11:06.999Z</time></trkpt><trkpt lat="39.41269437745981" lon="16.01448793326619"><ele>29.0</ele><time>2026-04-26T17:11:07.999Z</time></trkpt><trkpt lat="39.41253788991945" lon="16.014520634694037"><ele>29.0</ele><time>2026-04-26T17:11:08.999Z</time></trkpt><trkpt lat="39.41238479640113" lon="16.014548481377467"><ele>29.0</ele><time>2026-04-26T17:11:09.999Z</time></trkpt><trkpt lat="39.412238014498264" lon="16.014575790625845"><ele>29.0</ele><time>2026-04-26T17:11:10.999Z</time></trkpt><trkpt lat="39.41209584399622" lon="16.014606001775174"><ele>29.0</ele><time>2026-04-26T17:11:11.999Z</time></trkpt><trkpt lat="39.41195631240647" lon="16.01463477353754"><ele>29.0</ele><time>2026-04-26T17:11:12.999Z</time></trkpt><trkpt lat="39.411810249071586" lon="16.014660837418663"><ele>27.666666666666664</ele><time>2026-04-26T17:11:13.999Z</time></trkpt><trkpt lat="39.41165556374787" lon="16.01468858338015"><ele>26.333333333333336</ele><time>2026-04-26T17:11:14.999Z</time></trkpt><trkpt lat="39.41149703676727" lon="16.01471869825049"><ele>25.0</ele><time>2026-04-26T17:11:15.999Z</time></trkpt><trkpt lat="39.41133391339385" lon="16.01474707437271"><ele>23.666666666666668</ele><time>2026-04-26T17:11:16.999Z</time></trkpt><trkpt lat="39.41117054187598" lon="16.014773361093443"><ele>22.333333333333336</ele><time>2026-04-26T17:11:17.999Z</time></trkpt><trkpt lat="39.41100679101791" lon="16.014805739950987"><ele>21.0</ele><time>2026-04-26T17:11:18.999Z</time></trkpt><trkpt lat="39.41084610642367" lon="16.014843964060795"><ele>21.0</ele><time>2026-04-26T17:11:20Z</time></trkpt><trkpt lat="39.41068695297095" lon="16.0148762191738"><ele>21.0</ele><time>2026-04-26T17:11:21Z</time></trkpt><trkpt lat="39.410523286526875" lon="16.014908530461046"><ele>21.0</ele><time>2026-04-26T17:11:22Z</time></trkpt><trkpt lat="39.41035593258413" lon="16.014943983373627"><ele>22.666666666666664</ele><time>2026-04-26T17:11:23Z</time></trkpt><trkpt lat="39.410187524242815" lon="16.01497276400795"><ele>24.333333333333332</ele><time>2026-04-26T17:11:24Z</time></trkpt><trkpt lat="39.410015146435164" lon="16.014997087422604"><ele>26.0</ele><time>2026-04-26T17:11:25Z</time></trkpt><trkpt lat="39.409849503875876" lon="16.015014672014892"><ele>28.666666666666664</ele><time>2026-04-26T17:11:26Z</time></trkpt><trkpt lat="39.40968070993556" lon="16.01502322942592"><ele>31.333333333333336</ele><time>2026-04-26T17:11:27Z</time></trkpt><trkpt lat="39.40951230438444" lon="16.015030609652456"><ele>34.0</ele><time>2026-04-26T17:11:28Z</time></trkpt><trkpt lat="39.40934455721796" lon="16.015027183608673"><ele>34.0</ele><time>2026-04-26T17:11:29Z</time></trkpt><trkpt lat="39.40918531484949" lon="16.015015335109656"><ele>34.0</ele><time>2026-04-26T17:11:30Z</time></trkpt><trkpt lat="39.40903589730923" lon="16.01500368993488"><ele>34.0</ele><time>2026-04-26T17:11:31Z</time></trkpt><trkpt lat="39.408896135945625" lon="16.01498922950905"><ele>34.0</ele><time>2026-04-26T17:11:32Z</time></trkpt><trkpt lat="39.40876225264298" lon="16.01497249899304"><ele>31.75</ele><time>2026-04-26T17:11:33Z</time></trkpt><trkpt lat="39.40863106987896" lon="16.0149551902027"><ele>29.5</ele><time>2026-04-26T17:11:34Z</time></trkpt><trkpt lat="39.408499122355316" lon="16.014938267327956"><ele>27.25</ele><time>2026-04-26T17:11:35Z</time></trkpt><trkpt lat="39.40836020180401" lon="16.01492547739052"><ele>25.0</ele><time>2026-04-26T17:11:36Z</time></trkpt><trkpt lat="39.408209066937594" lon="16.014900166424596"><ele>25.0</ele><time>2026-04-26T17:11:37Z</time></trkpt><trkpt lat="39.40804640023198" lon="16.014867443255746"><ele>25.0</ele><time>2026-04-26T17:11:38Z</time></trkpt><trkpt lat="39.407870994620495" lon="16.01484347226476"><ele>25.0</ele><time>2026-04-26T17:11:39Z</time></trkpt><trkpt lat="39.40769954935533" lon="16.014832760427613"><ele>24.0</ele><time>2026-04-26T17:11:40Z</time></trkpt><trkpt lat="39.407490017496414" lon="16.01481051718346"><ele>23.0</ele><time>2026-04-26T17:11:41Z</time></trkpt><trkpt lat="39.4072980625354" lon="16.014775532032772"><ele>22.0</ele><time>2026-04-26T17:11:42Z</time></trkpt><trkpt lat="39.40709868741603" lon="16.014745441794236"><ele>20.666666666666664</ele><time>2026-04-26T17:11:43Z</time></trkpt><trkpt lat="39.40689882751454" lon="16.014719883390626"><ele>19.333333333333332</ele><time>2026-04-26T17:11:44Z</time></trkpt><trkpt lat="39.40669962999833" lon="16.01469608908615"><ele>18.0</ele><time>2026-04-26T17:11:45Z</time></trkpt><trkpt lat="39.406498725633924" lon="16.01467395718411"><ele>18.0</ele><time>2026-04-26T17:11:46Z</time></trkpt><trkpt lat="39.40629824730828" lon="16.01465139633707"><ele>18.0</ele><time>2026-04-26T17:11:47Z</time></trkpt><trkpt lat="39.406094804868886" lon="16.014624091919575"><ele>18.0</ele><time>2026-04-26T17:11:48Z</time></trkpt><trkpt lat="39.40588922132957" lon="16.014602495090536"><ele>18.0</ele><time>2026-04-26T17:11:49Z</time></trkpt><trkpt lat="39.4056819322425" lon="16.014578964250163"><ele>18.0</ele><time>2026-04-26T17:11:50Z</time></trkpt><trkpt lat="39.405477625788706" lon="16.014551426298613"><ele>18.0</ele><time>2026-04-26T17:11:51Z</time></trkpt><trkpt lat="39.405273392364926" lon="16.014527126581612"><ele>18.333333333333332</ele><time>2026-04-26T17:11:52Z</time></trkpt><trkpt lat="39.40506971999411" lon="16.014502519062045"><ele>18.666666666666664</ele><time>2026-04-26T17:11:53Z</time></trkpt><trkpt lat="39.40486522712568" lon="16.014473205424746"><ele>19.0</ele><time>2026-04-26T17:11:54Z</time></trkpt><trkpt lat="39.404661167555886" lon="16.01444342798756"><ele>17.333333333333332</ele><time>2026-04-26T17:11:55Z</time></trkpt><trkpt lat="39.404458541386596" lon="16.01441727084766"><ele>15.666666666666668</ele><time>2026-04-26T17:11:56Z</time></trkpt><trkpt lat="39.40425736757629" lon="16.01439174624413"><ele>14.0</ele><time>2026-04-26T17:11:57Z</time></trkpt><trkpt lat="39.40405432759543" lon="16.01436706706959"><ele>14.0</ele><time>2026-04-26T17:11:58Z</time></trkpt><trkpt lat="39.40385049401236" lon="16.014343311599898"><ele>14.0</ele><time>2026-04-26T17:11:59Z</time></trkpt><trkpt lat="39.40364674285993" lon="16.01432509092083"><ele>14.0</ele><time>2026-04-26T17:12:00Z</time></trkpt><trkpt lat="39.40344495690096" lon="16.014315992191058"><ele>13.0</ele><time>2026-04-26T17:12:01Z</time></trkpt><trkpt lat="39.40324371872934" lon="16.014326360739002"><ele>12.0</ele><time>2026-04-26T17:12:02Z</time></trkpt><trkpt lat="39.403037034757396" lon="16.01436015574474"><ele>11.0</ele><time>2026-04-26T17:12:03Z</time></trkpt><trkpt lat="39.402827571033164" lon="16.01441399100132"><ele>10.333333333333332</ele><time>2026-04-26T17:12:04Z</time></trkpt><trkpt lat="39.40262138543703" lon="16.014476914428066"><ele>9.666666666666666</ele><time>2026-04-26T17:12:05Z</time></trkpt><trkpt lat="39.40241456943849" lon="16.014554173215632"><ele>9.0</ele><time>2026-04-26T17:12:05.999Z</time></trkpt><trkpt lat="39.40220975789339" lon="16.014644027484024"><ele>7.666666666666667</ele><time>2026-04-26T17:12:06.999Z</time></trkpt><trkpt lat="39.40200486510885" lon="16.014733156487647"><ele>6.333333333333334</ele><time>2026-04-26T17:12:07.999Z</time></trkpt><trkpt lat="39.40180049188751" lon="16.014822016894076"><ele>5.0</ele><time>2026-04-26T17:12:08.999Z</time></trkpt><trkpt lat="39.40159701998142" lon="16.014907898796807"><ele>7.0</ele><time>2026-04-26T17:12:09.999Z</time></trkpt><trkpt lat="39.40139511210607" lon="16.01499194535141"><ele>9.0</ele><time>2026-04-26T17:12:10.999Z</time></trkpt><trkpt lat="39.401193736342684" lon="16.015076440670967"><ele>11.0</ele><time>2026-04-26T17:12:11.999Z</time></trkpt><trkpt lat="39.40099176859253" lon="16.015160823658793"><ele>11.0</ele><time>2026-04-26T17:12:12.999Z</time></trkpt><trkpt lat="39.400792608261206" lon="16.01524708965483"><ele>11.0</ele><time>2026-04-26T17:12:13.999Z</time></trkpt><trkpt lat="39.40059507193159" lon="16.01533446789963"><ele>11.0</ele><time>2026-04-26T17:12:14.999Z</time></trkpt><trkpt lat="39.40039727872962" lon="16.015419680814382"><ele>9.666666666666666</ele><time>2026-04-26T17:12:15.999Z</time></trkpt><trkpt lat="39.40020052203016" lon="16.01550162644565"><ele>8.333333333333334</ele><time>2026-04-26T17:12:16.999Z</time></trkpt><trkpt lat="39.40000532320009" lon="16.015585917963307"><ele>7.0</ele><time>2026-04-26T17:12:17.999Z</time></trkpt><trkpt lat="39.39981491194387" lon="16.015668437749138"><ele>5.333333333333334</ele><time>2026-04-26T17:12:18.999Z</time></trkpt><trkpt lat="39.39962555985409" lon="16.015746860316817"><ele>3.666666666666667</ele><time>2026-04-26T17:12:19.999Z</time></trkpt><trkpt lat="39.39943527695259" lon="16.01583111467701"><ele>2.0</ele><time>2026-04-26T17:12:20.999Z</time></trkpt><trkpt lat="39.39925222765327" lon="16.015908313860788"><ele>4.333333333333333</ele><time>2026-04-26T17:12:21.999Z</time></trkpt><trkpt lat="39.39907438209885" lon="16.01598232986568"><ele>6.666666666666667</ele><time>2026-04-26T17:12:22.999Z</time></trkpt><trkpt lat="39.398899609034785" lon="16.01605794201145"><ele>9.0</ele><time>2026-04-26T17:12:23.999Z</time></trkpt><trkpt lat="39.39871935109228" lon="16.016136685136647"><ele>9.0</ele><time>2026-04-26T17:12:24.999Z</time></trkpt><trkpt lat="39.398534697110385" lon="16.016217437044684"><ele>9.0</ele><time>2026-04-26T17:12:25.999Z</time></trkpt><trkpt lat="39.398346940522444" lon="16.016299627600954"><ele>9.0</ele><time>2026-04-26T17:12:26.999Z</time></trkpt><trkpt lat="39.39815427330416" lon="16.01638182953593"><ele>7.333333333333333</ele><time>2026-04-26T17:12:27.999Z</time></trkpt><trkpt lat="39.397961244715184" lon="16.016461457401924"><ele>5.666666666666666</ele><time>2026-04-26T17:12:28.999Z</time></trkpt><trkpt lat="39.39776859510539" lon="16.01653930188947"><ele>4.0</ele><time>2026-04-26T17:12:29.999Z</time></trkpt><trkpt lat="39.397581649590045" lon="16.01662256952647"><ele>5.0</ele><time>2026-04-26T17:12:30.999Z</time></trkpt><trkpt lat="39.397399913978106" lon="16.016705648423677"><ele>6.0</ele><time>2026-04-26T17:12:31.999Z</time></trkpt><trkpt lat="39.39721894445809" lon="16.01678531409401"><ele>7.0</ele><time>2026-04-26T17:12:32.999Z</time></trkpt><trkpt lat="39.39703891590384" lon="16.016862177460112"><ele>7.0</ele><time>2026-04-26T17:12:33.999Z</time></trkpt><trkpt lat="39.396858577916916" lon="16.01693543688745"><ele>7.0</ele><time>2026-04-26T17:12:34.999Z</time></trkpt><trkpt lat="39.396680583952886" lon="16.01700718709647"><ele>7.0</ele><time>2026-04-26T17:12:35.999Z</time></trkpt><trkpt lat="39.396503922706266" lon="16.01707679935191"><ele>6.333333333333334</ele><time>2026-04-26T17:12:36.999Z</time></trkpt><trkpt lat="39.396330328515454" lon="16.017144331634896"><ele>5.666666666666667</ele><time>2026-04-26T17:12:37.999Z</time></trkpt><trkpt lat="39.396156047223535" lon="16.017204311311414"><ele>5.0</ele><time>2026-04-26T17:12:38.999Z</time></trkpt><trkpt lat="39.395983104625756" lon="16.017259118666857"><ele>5.0</ele><time>2026-04-26T17:12:39.999Z</time></trkpt><trkpt lat="39.395815454838804" lon="16.017312100624167"><ele>5.0</ele><time>2026-04-26T17:12:40.999Z</time></trkpt><trkpt lat="39.39565241725631" lon="16.017366154496997"><ele>5.0</ele><time>2026-04-26T17:12:41.999Z</time></trkpt><trkpt lat="39.395492019201285" lon="16.017422004773398"><ele>4.333333333333334</ele><time>2026-04-26T17:12:42.999Z</time></trkpt><trkpt lat="39.39533306041597" lon="16.01747716144152"><ele>3.666666666666667</ele><time>2026-04-26T17:12:43.999Z</time></trkpt><trkpt lat="39.39517480813631" lon="16.017530121231605"><ele>3.0</ele><time>2026-04-26T17:12:44.999Z</time></trkpt><trkpt lat="39.3950190943198" lon="16.017581141336116"><ele>4.333333333333334</ele><time>2026-04-26T17:12:45.999Z</time></trkpt><trkpt lat="39.39486246175465" lon="16.017629880202698"><ele>5.666666666666667</ele><time>2026-04-26T17:12:46.999Z</time></trkpt><trkpt lat="39.39470656737318" lon="16.017681068046834"><ele>7.0</ele><time>2026-04-26T17:12:47.999Z</time></trkpt><trkpt lat="39.39455187541714" lon="16.01773714838902"><ele>7.0</ele><time>2026-04-26T17:12:48.999Z</time></trkpt><trkpt lat="39.39439737960818" lon="16.0177928476123"><ele>7.0</ele><time>2026-04-26T17:12:49.999Z</time></trkpt><trkpt lat="39.39424260251849" lon="16.017843883589197"><ele>7.0</ele><time>2026-04-26T17:12:50.999Z</time></trkpt><trkpt lat="39.39408800881006" lon="16.017894460364175"><ele>7.0</ele><time>2026-04-26T17:12:51.999Z</time></trkpt><trkpt lat="39.39393265509872" lon="16.017944074253432"><ele>7.0</ele><time>2026-04-26T17:12:52.999Z</time></trkpt><trkpt lat="39.3937765412653" lon="16.01799494423287"><ele>7.0</ele><time>2026-04-26T17:12:53.999Z</time></trkpt><trkpt lat="39.3936192826039" lon="16.018047706932208"><ele>6.666666666666667</ele><time>2026-04-26T17:12:54.999Z</time></trkpt><trkpt lat="39.39346193279248" lon="16.018100051047515"><ele>6.333333333333334</ele><time>2026-04-26T17:12:55.999Z</time></trkpt><trkpt lat="39.393301125968186" lon="16.01815636208958"><ele>6.0</ele><time>2026-04-26T17:12:56.999Z</time></trkpt><trkpt lat="39.39313991663764" lon="16.01821879042884"><ele>7.0</ele><time>2026-04-26T17:12:57.999Z</time></trkpt><trkpt lat="39.39298021506859" lon="16.018291449822186"><ele>8.0</ele><time>2026-04-26T17:12:58.999Z</time></trkpt><trkpt lat="39.392822907345646" lon="16.01837248087766"><ele>9.0</ele><time>2026-04-26T17:12:59.999Z</time></trkpt><trkpt lat="39.39266214679509" lon="16.01844310997918"><ele>9.0</ele><time>2026-04-26T17:13:00.999Z</time></trkpt><trkpt lat="39.39250639475467" lon="16.01853686381647"><ele>9.0</ele><time>2026-04-26T17:13:01.999Z</time></trkpt><trkpt lat="39.39235047424342" lon="16.01863918741114"><ele>9.0</ele><time>2026-04-26T17:13:02.999Z</time></trkpt><trkpt lat="39.392192933281315" lon="16.018740308631887"><ele>8.333333333333334</ele><time>2026-04-26T17:13:03.999Z</time></trkpt><trkpt lat="39.39203510207341" lon="16.018843590738964"><ele>7.666666666666667</ele><time>2026-04-26T17:13:04.999Z</time></trkpt><trkpt lat="39.39187638286353" lon="16.018947664654135"><ele>7.0</ele><time>2026-04-26T17:13:05.999Z</time></trkpt><trkpt lat="39.39172516795411" lon="16.019074137509843"><ele>7.666666666666667</ele><time>2026-04-26T17:13:06.999Z</time></trkpt><trkpt lat="39.39156316986389" lon="16.019177765828204"><ele>8.333333333333334</ele><time>2026-04-26T17:13:07.999Z</time></trkpt><trkpt lat="39.39140220974737" lon="16.01928461871132"><ele>9.0</ele><time>2026-04-26T17:13:08.999Z</time></trkpt><trkpt lat="39.39124303564057" lon="16.019387573577852"><ele>9.0</ele><time>2026-04-26T17:13:09.999Z</time></trkpt><trkpt lat="39.391086848078125" lon="16.019489107525914"><ele>9.0</ele><time>2026-04-26T17:13:10.999Z</time></trkpt><trkpt lat="39.39093643088787" lon="16.019588856413172"><ele>9.0</ele><time>2026-04-26T17:13:11.999Z</time></trkpt><trkpt lat="39.39077782141267" lon="16.019662399797642"><ele>9.0</ele><time>2026-04-26T17:13:12.999Z</time></trkpt><trkpt lat="39.390627262009176" lon="16.019760124585442"><ele>9.0</ele><time>2026-04-26T17:13:13.999Z</time></trkpt><trkpt lat="39.39047498859482" lon="16.019858961899757"><ele>9.0</ele><time>2026-04-26T17:13:14.999Z</time></trkpt><trkpt lat="39.39032326482136" lon="16.01995744245102"><ele>7.666666666666667</ele><time>2026-04-26T17:13:15.999Z</time></trkpt><trkpt lat="39.39017168941902" lon="16.02005582669913"><ele>6.333333333333334</ele><time>2026-04-26T17:13:16.999Z</time></trkpt><trkpt lat="39.39002032517046" lon="16.02015445939957"><ele>5.0</ele><time>2026-04-26T17:13:17.999Z</time></trkpt><trkpt lat="39.38986857276741" lon="16.020253577838144"><ele>5.0</ele><time>2026-04-26T17:13:18.999Z</time></trkpt><trkpt lat="39.38971723375733" lon="16.020352424995206"><ele>5.0</ele><time>2026-04-26T17:13:19.999Z</time></trkpt><trkpt lat="39.3895657969233" lon="16.020451336015153"><ele>5.0</ele><time>2026-04-26T17:13:20.999Z</time></trkpt><trkpt lat="39.38942429292606" lon="16.020574946875456"><ele>5.333333333333334</ele><time>2026-04-26T17:13:21.999Z</time></trkpt><trkpt lat="39.38927474851769" lon="16.020672261616795"><ele>5.666666666666667</ele><time>2026-04-26T17:13:22.999Z</time></trkpt><trkpt lat="39.3891255229931" lon="16.020768826444588"><ele>6.0</ele><time>2026-04-26T17:13:23.999Z</time></trkpt><trkpt lat="39.388975990934235" lon="16.02086494558043"><ele>6.333333333333334</ele><time>2026-04-26T17:13:24.999Z</time></trkpt><trkpt lat="39.3888272572416" lon="16.020961508496356"><ele>6.666666666666667</ele><time>2026-04-26T17:13:26Z</time></trkpt><trkpt lat="39.38867101148884" lon="16.021037891555114"><ele>7.0</ele><time>2026-04-26T17:13:27Z</time></trkpt><trkpt lat="39.388530342150695" lon="16.021153389900267"><ele>7.0</ele><time>2026-04-26T17:13:28Z</time></trkpt><trkpt lat="39.38838193101634" lon="16.021248749410972"><ele>7.0</ele><time>2026-04-26T17:13:29Z</time></trkpt><trkpt lat="39.388234598192675" lon="16.021341426128373"><ele>7.0</ele><time>2026-04-26T17:13:30Z</time></trkpt><trkpt lat="39.388088360780785" lon="16.021437803327"><ele>6.333333333333334</ele><time>2026-04-26T17:13:31Z</time></trkpt><trkpt lat="39.38794421593679" lon="16.02153143520786"><ele>5.666666666666667</ele><time>2026-04-26T17:13:32Z</time></trkpt><trkpt lat="39.387800112677084" lon="16.021610861985515"><ele>5.0</ele><time>2026-04-26T17:13:33Z</time></trkpt><trkpt lat="39.387655064129376" lon="16.0216535220136"><ele>5.0</ele><time>2026-04-26T17:13:34Z</time></trkpt><trkpt lat="39.387510588076225" lon="16.02165489203742"><ele>5.0</ele><time>2026-04-26T17:13:35Z</time></trkpt><trkpt lat="39.38736279569701" lon="16.02164054913176"><ele>5.0</ele><time>2026-04-26T17:13:36Z</time></trkpt><trkpt lat="39.38720896294784" lon="16.021605939079876"><ele>5.0</ele><time>2026-04-26T17:13:37Z</time></trkpt><trkpt lat="39.38704929571952" lon="16.021564093028587"><ele>6.0</ele><time>2026-04-26T17:13:38Z</time></trkpt><trkpt lat="39.38688515183531" lon="16.02152121401729"><ele>7.0</ele><time>2026-04-26T17:13:39Z</time></trkpt><trkpt lat="39.386721041777406" lon="16.021478748690345"><ele>8.0</ele><time>2026-04-26T17:13:40Z</time></trkpt><trkpt lat="39.38655295558678" lon="16.021437724567633"><ele>8.0</ele><time>2026-04-26T17:13:41Z</time></trkpt><trkpt lat="39.386382777012116" lon="16.021397280074705"><ele>8.0</ele><time>2026-04-26T17:13:42Z</time></trkpt><trkpt lat="39.38621230098149" lon="16.02136465373517"><ele>8.0</ele><time>2026-04-26T17:13:43Z</time></trkpt><trkpt lat="39.386039419641165" lon="16.021350325066965"><ele>7.666666666666666</ele><time>2026-04-26T17:13:44Z</time></trkpt><trkpt lat="39.38586625626123" lon="16.02134495855874"><ele>7.333333333333334</ele><time>2026-04-26T17:13:45Z</time></trkpt><trkpt lat="39.38569637248738" lon="16.0213873050793"><ele>7.0</ele><time>2026-04-26T17:13:46Z</time></trkpt><trkpt lat="39.385533468649044" lon="16.02145862373023"><ele>6.333333333333334</ele><time>2026-04-26T17:13:47Z</time></trkpt><trkpt lat="39.385376827945564" lon="16.02153714843224"><ele>5.666666666666667</ele><time>2026-04-26T17:13:48Z</time></trkpt><trkpt lat="39.38522140699451" lon="16.02162377451438"><ele>5.0</ele><time>2026-04-26T17:13:49Z</time></trkpt><trkpt lat="39.385065973990415" lon="16.021710206858273"><ele>6.0</ele><time>2026-04-26T17:13:50Z</time></trkpt><trkpt lat="39.384905126169194" lon="16.02179097786998"><ele>7.0</ele><time>2026-04-26T17:13:51Z</time></trkpt><trkpt lat="39.384747992317514" lon="16.02188249825336"><ele>8.0</ele><time>2026-04-26T17:13:52Z</time></trkpt><trkpt lat="39.384594346029694" lon="16.021987797976262"><ele>8.0</ele><time>2026-04-26T17:13:53Z</time></trkpt><trkpt lat="39.38443225237044" lon="16.022072571412266"><ele>8.0</ele><time>2026-04-26T17:13:54Z</time></trkpt><trkpt lat="39.38426324379055" lon="16.022135657157655"><ele>8.0</ele><time>2026-04-26T17:13:55Z</time></trkpt><trkpt lat="39.38409945189035" lon="16.02222172385077"><ele>8.0</ele><time>2026-04-26T17:13:56Z</time></trkpt><trkpt lat="39.383935418235836" lon="16.02230812939902"><ele>8.0</ele><time>2026-04-26T17:13:57Z</time></trkpt><trkpt lat="39.38377664710688" lon="16.0223919032057"><ele>8.0</ele><time>2026-04-26T17:13:58Z</time></trkpt><trkpt lat="39.38362102954668" lon="16.022474197714022"><ele>8.0</ele><time>2026-04-26T17:13:59Z</time></trkpt><trkpt lat="39.383466762215825" lon="16.02255621683318"><ele>8.0</ele><time>2026-04-26T17:14:00Z</time></trkpt><trkpt lat="39.38331306454772" lon="16.02263869657138"><ele>8.0</ele><time>2026-04-26T17:14:01Z</time></trkpt><trkpt lat="39.3831609491721" lon="16.02272165465927"><ele>7.333333333333333</ele><time>2026-04-26T17:14:02Z</time></trkpt><trkpt lat="39.38300872233879" lon="16.02280467389218"><ele>6.666666666666666</ele><time>2026-04-26T17:14:03Z</time></trkpt><trkpt lat="39.382858203889505" lon="16.022885864027607"><ele>6.0</ele><time>2026-04-26T17:14:04Z</time></trkpt><trkpt lat="39.38271494338919" lon="16.022987766949246"><ele>6.0</ele><time>2026-04-26T17:14:05Z</time></trkpt><trkpt lat="39.38256726174714" lon="16.02306691367908"><ele>6.0</ele><time>2026-04-26T17:14:06Z</time></trkpt><trkpt lat="39.38242182518128" lon="16.023143625961072"><ele>6.0</ele><time>2026-04-26T17:14:07Z</time></trkpt><trkpt lat="39.38227625753218" lon="16.023220340983304"><ele>6.0</ele><time>2026-04-26T17:14:08Z</time></trkpt><trkpt lat="39.38212599891047" lon="16.023298282394332"><ele>6.0</ele><time>2026-04-26T17:14:09Z</time></trkpt><trkpt lat="39.3819723089175" lon="16.023380079774988"><ele>6.0</ele><time>2026-04-26T17:14:10Z</time></trkpt><trkpt lat="39.3818142708044" lon="16.02346592548786"><ele>6.0</ele><time>2026-04-26T17:14:10.999Z</time></trkpt><trkpt lat="39.381652087270616" lon="16.02355353780991"><ele>6.0</ele><time>2026-04-26T17:14:11.999Z</time></trkpt><trkpt lat="39.38148920485294" lon="16.02364050972899"><ele>6.0</ele><time>2026-04-26T17:14:12.999Z</time></trkpt><trkpt lat="39.38132692978483" lon="16.0237298830609"><ele>6.0</ele><time>2026-04-26T17:14:13.999Z</time></trkpt><trkpt lat="39.38116341046288" lon="16.023818294142956"><ele>6.0</ele><time>2026-04-26T17:14:14.999Z</time></trkpt><trkpt lat="39.3809980307543" lon="16.023904682215704"><ele>6.0</ele><time>2026-04-26T17:14:15.999Z</time></trkpt><trkpt lat="39.38083411988663" lon="16.023991300974192"><ele>6.0</ele><time>2026-04-26T17:14:16.999Z</time></trkpt><trkpt lat="39.38066818779568" lon="16.02408099311874"><ele>6.0</ele><time>2026-04-26T17:14:17.999Z</time></trkpt><trkpt lat="39.38050281821141" lon="16.024170277293138"><ele>6.0</ele><time>2026-04-26T17:14:18.999Z</time></trkpt><trkpt lat="39.38033824284271" lon="16.024259727114863"><ele>6.0</ele><time>2026-04-26T17:14:19.999Z</time></trkpt><trkpt lat="39.38017368031016" lon="16.02434686187738"><ele>6.0</ele><time>2026-04-26T17:14:20.999Z</time></trkpt><trkpt lat="39.380009642200946" lon="16.024436215960062"><ele>6.0</ele><time>2026-04-26T17:14:21.999Z</time></trkpt><trkpt lat="39.37984549376428" lon="16.024520545152814"><ele>5.666666666666667</ele><time>2026-04-26T17:14:22.999Z</time></trkpt><trkpt lat="39.37968342898673" lon="16.024601136163685"><ele>5.333333333333334</ele><time>2026-04-26T17:14:23.999Z</time></trkpt><trkpt lat="39.3795225439957" lon="16.024679213646344"><ele>5.0</ele><time>2026-04-26T17:14:24.999Z</time></trkpt><trkpt lat="39.37936496419124" lon="16.024750731303843"><ele>5.0</ele><time>2026-04-26T17:14:25.999Z</time></trkpt><trkpt lat="39.379207202935355" lon="16.024816620713242"><ele>5.0</ele><time>2026-04-26T17:14:26.999Z</time></trkpt><trkpt lat="39.37904629722899" lon="16.024879581504386"><ele>5.0</ele><time>2026-04-26T17:14:27.999Z</time></trkpt><trkpt lat="39.378885928269455" lon="16.02494167026437"><ele>5.666666666666667</ele><time>2026-04-26T17:14:28.999Z</time></trkpt><trkpt lat="39.37872301071623" lon="16.025004961735934"><ele>6.333333333333334</ele><time>2026-04-26T17:14:29.999Z</time></trkpt><trkpt lat="39.37856099903316" lon="16.025063798316467"><ele>7.0</ele><time>2026-04-26T17:14:30.999Z</time></trkpt><trkpt lat="39.378396814497385" lon="16.025122861522178"><ele>7.0</ele><time>2026-04-26T17:14:31.999Z</time></trkpt><trkpt lat="39.378237354501465" lon="16.025187825278117"><ele>7.0</ele><time>2026-04-26T17:14:32.999Z</time></trkpt><trkpt lat="39.37807349259959" lon="16.02524885726592"><ele>7.0</ele><time>2026-04-26T17:14:33.999Z</time></trkpt><trkpt lat="39.37791948410769" lon="16.02530743113475"><ele>7.0</ele><time>2026-04-26T17:14:34.999Z</time></trkpt><trkpt lat="39.37776913232438" lon="16.025363408358555"><ele>7.0</ele><time>2026-04-26T17:14:35.999Z</time></trkpt><trkpt lat="39.37762414883218" lon="16.025417588422844"><ele>7.0</ele><time>2026-04-26T17:14:36.999Z</time></trkpt><trkpt lat="39.37748293501249" lon="16.025468781110945"><ele>7.0</ele><time>2026-04-26T17:14:37.999Z</time></trkpt><trkpt lat="39.377345580585356" lon="16.025524040073513"><ele>7.0</ele><time>2026-04-26T17:14:38.999Z</time></trkpt><trkpt lat="39.37721179693779" lon="16.025571462805516"><ele>7.0</ele><time>2026-04-26T17:14:39.999Z</time></trkpt><trkpt lat="39.37707919439495" lon="16.025622081504707"><ele>7.0</ele><time>2026-04-26T17:14:40.999Z</time></trkpt><trkpt lat="39.37694441928499" lon="16.025673325102424"><ele>7.0</ele><time>2026-04-26T17:14:41.999Z</time></trkpt><trkpt lat="39.376808384608246" lon="16.025731734674185"><ele>7.0</ele><time>2026-04-26T17:14:42.999Z</time></trkpt><trkpt lat="39.376669033390876" lon="16.025786545936672"><ele>7.0</ele><time>2026-04-26T17:14:43.999Z</time></trkpt><trkpt lat="39.37654134063182" lon="16.025833902620903"><ele>7.0</ele><time>2026-04-26T17:14:44.999Z</time></trkpt><trkpt lat="39.376421324781404" lon="16.025878606674798"><ele>7.0</ele><time>2026-04-26T17:14:45.999Z</time></trkpt><trkpt lat="39.37630639359945" lon="16.025923143173124"><ele>7.0</ele><time>2026-04-26T17:14:46.999Z</time></trkpt><trkpt lat="39.37619231934349" lon="16.025964309667344"><ele>7.0</ele><time>2026-04-26T17:14:47.999Z</time></trkpt><trkpt lat="39.3760844309375" lon="16.026010184216958"><ele>7.0</ele><time>2026-04-26T17:14:48.999Z</time></trkpt><trkpt lat="39.37597614743382" lon="16.02604887592229"><ele>7.0</ele><time>2026-04-26T17:14:49.999Z</time></trkpt><trkpt lat="39.37586657132678" lon="16.0260883817426"><ele>7.0</ele><time>2026-04-26T17:14:50.999Z</time></trkpt><trkpt lat="39.37575683151165" lon="16.026135250066634"><ele>7.0</ele><time>2026-04-26T17:14:51.999Z</time></trkpt><trkpt lat="39.375648577436806" lon="16.02617863195701"><ele>7.0</ele><time>2026-04-26T17:14:52.999Z</time></trkpt><trkpt lat="39.37553284615372" lon="16.026222033863228"><ele>6.75</ele><time>2026-04-26T17:14:53.999Z</time></trkpt><trkpt lat="39.37541874863721" lon="16.0262651814651"><ele>6.5</ele><time>2026-04-26T17:14:54.999Z</time></trkpt><trkpt lat="39.37530328217525" lon="16.02630885997082"><ele>6.25</ele><time>2026-04-26T17:14:55.999Z</time></trkpt><trkpt lat="39.37518555217406" lon="16.02635575551893"><ele>6.0</ele><time>2026-04-26T17:14:56.999Z</time></trkpt><trkpt lat="39.37506694137413" lon="16.026403840677094"><ele>6.0</ele><time>2026-04-26T17:14:57.999Z</time></trkpt><trkpt lat="39.37495045148591" lon="16.02644872477561"><ele>6.0</ele><time>2026-04-26T17:14:58.999Z</time></trkpt><trkpt lat="39.374825870494426" lon="16.026495037012197"><ele>6.0</ele><time>2026-04-26T17:14:59.999Z</time></trkpt><trkpt lat="39.37470172932598" lon="16.026543894374974"><ele>6.0</ele><time>2026-04-26T17:15:00.999Z</time></trkpt><trkpt lat="39.374574331225425" lon="16.026568293399706"><ele>5.75</ele><time>2026-04-26T17:15:01.999Z</time></trkpt><trkpt lat="39.37444744815849" lon="16.02661466744236"><ele>5.5</ele><time>2026-04-26T17:15:02.999Z</time></trkpt><trkpt lat="39.37431136951696" lon="16.0266669236598"><ele>5.25</ele><time>2026-04-26T17:15:03.999Z</time></trkpt><trkpt lat="39.37417235748203" lon="16.02672083909498"><ele>5.0</ele><time>2026-04-26T17:15:04.999Z</time></trkpt><trkpt lat="39.37402836714951" lon="16.026776685348803"><ele>5.333333333333334</ele><time>2026-04-26T17:15:05.999Z</time></trkpt><trkpt lat="39.37388455483967" lon="16.026851954820756"><ele>5.666666666666667</ele><time>2026-04-26T17:15:06.999Z</time></trkpt><trkpt lat="39.37373095816222" lon="16.026904962316376"><ele>6.0</ele><time>2026-04-26T17:15:07.999Z</time></trkpt><trkpt lat="39.3735764528784" lon="16.026958458001797"><ele>6.0</ele><time>2026-04-26T17:15:08.999Z</time></trkpt><trkpt lat="39.3734236758418" lon="16.027010878167225"><ele>6.0</ele><time>2026-04-26T17:15:09.999Z</time></trkpt><trkpt lat="39.37327399769696" lon="16.027067947807083"><ele>6.0</ele><time>2026-04-26T17:15:10.999Z</time></trkpt><trkpt lat="39.373132400921264" lon="16.027121504086654"><ele>6.0</ele><time>2026-04-26T17:15:11.999Z</time></trkpt><trkpt lat="39.37299066047782" lon="16.027172605170403"><ele>6.0</ele><time>2026-04-26T17:15:12.999Z</time></trkpt><trkpt lat="39.37285370874572" lon="16.02722398321838"><ele>6.0</ele><time>2026-04-26T17:15:13.999Z</time></trkpt><trkpt lat="39.37271493181324" lon="16.027278733304346"><ele>6.0</ele><time>2026-04-26T17:15:14.999Z</time></trkpt><trkpt lat="39.372579770839195" lon="16.027330631506487"><ele>6.0</ele><time>2026-04-26T17:15:15.999Z</time></trkpt><trkpt lat="39.37244245264988" lon="16.02738395457597"><ele>6.0</ele><time>2026-04-26T17:15:16.999Z</time></trkpt><trkpt lat="39.37230718035562" lon="16.027436077017626"><ele>6.0</ele><time>2026-04-26T17:15:17.999Z</time></trkpt><trkpt lat="39.37217176932351" lon="16.027486169313956"><ele>6.0</ele><time>2026-04-26T17:15:18.999Z</time></trkpt><trkpt lat="39.37203519162806" lon="16.02753665416761"><ele>6.5</ele><time>2026-04-26T17:15:19.999Z</time></trkpt><trkpt lat="39.371900802780885" lon="16.027588195312045"><ele>7.0</ele><time>2026-04-26T17:15:20.999Z</time></trkpt><trkpt lat="39.3717657192882" lon="16.027635678019973"><ele>7.5</ele><time>2026-04-26T17:15:21.999Z</time></trkpt><trkpt lat="39.371630285011406" lon="16.02767999159131"><ele>8.0</ele><time>2026-04-26T17:15:22.999Z</time></trkpt><trkpt lat="39.37149612848389" lon="16.02772425974506"><ele>8.0</ele><time>2026-04-26T17:15:23.999Z</time></trkpt><trkpt lat="39.3713623406495" lon="16.02776933648668"><ele>8.0</ele><time>2026-04-26T17:15:24.999Z</time></trkpt><trkpt lat="39.3712300701252" lon="16.027812163973028"><ele>8.0</ele><time>2026-04-26T17:15:25.999Z</time></trkpt><trkpt lat="39.37110067859207" lon="16.027860182241298"><ele>8.0</ele><time>2026-04-26T17:15:26.999Z</time></trkpt><trkpt lat="39.37097166264758" lon="16.027899678066085"><ele>7.75</ele><time>2026-04-26T17:15:27.999Z</time></trkpt><trkpt lat="39.370847001008876" lon="16.02793969337601"><ele>7.5</ele><time>2026-04-26T17:15:28.999Z</time></trkpt><trkpt lat="39.370721618545595" lon="16.027977482876853"><ele>7.25</ele><time>2026-04-26T17:15:29.999Z</time></trkpt><trkpt lat="39.37060207909361" lon="16.02801484226389"><ele>7.0</ele><time>2026-04-26T17:15:31Z</time></trkpt><trkpt lat="39.37048442657247" lon="16.028048795420084"><ele>8.0</ele><time>2026-04-26T17:15:32Z</time></trkpt><trkpt lat="39.37036821839881" lon="16.028084199619286"><ele>9.0</ele><time>2026-04-26T17:15:33Z</time></trkpt><trkpt lat="39.370256238040916" lon="16.02812190208048"><ele>10.0</ele><time>2026-04-26T17:15:34Z</time></trkpt><trkpt lat="39.37015185518983" lon="16.028156476420005"><ele>11.0</ele><time>2026-04-26T17:15:35Z</time></trkpt><trkpt lat="39.370046814119725" lon="16.02818576635149"><ele>11.0</ele><time>2026-04-26T17:15:36Z</time></trkpt><trkpt lat="39.369942981755855" lon="16.028208372545386"><ele>11.0</ele><time>2026-04-26T17:15:37Z</time></trkpt><trkpt lat="39.36983507531851" lon="16.028238584224663"><ele>11.0</ele><time>2026-04-26T17:15:38Z</time></trkpt><trkpt lat="39.36972477786484" lon="16.028277225100332"><ele>11.0</ele><time>2026-04-26T17:15:39Z</time></trkpt><trkpt lat="39.36961266990082" lon="16.028324999571943"><ele>11.0</ele><time>2026-04-26T17:15:40Z</time></trkpt><trkpt lat="39.369492408926824" lon="16.028335677916623"><ele>10.75</ele><time>2026-04-26T17:15:41Z</time></trkpt><trkpt lat="39.36936995558714" lon="16.02836985089415"><ele>10.5</ele><time>2026-04-26T17:15:42Z</time></trkpt><trkpt lat="39.36924032567495" lon="16.028402114492938"><ele>10.25</ele><time>2026-04-26T17:15:43Z</time></trkpt><trkpt lat="39.36911734911938" lon="16.02843264545019"><ele>10.0</ele><time>2026-04-26T17:15:44Z</time></trkpt><trkpt lat="39.368989876888236" lon="16.02846800041258"><ele>10.0</ele><time>2026-04-26T17:15:45Z</time></trkpt><trkpt lat="39.368868183502826" lon="16.028500804235343"><ele>10.0</ele><time>2026-04-26T17:15:46Z</time></trkpt><trkpt lat="39.36875451849721" lon="16.028535331490797"><ele>10.0</ele><time>2026-04-26T17:15:47Z</time></trkpt><trkpt lat="39.368645402756535" lon="16.028566567136124"><ele>10.0</ele><time>2026-04-26T17:15:48Z</time></trkpt><trkpt lat="39.368537077138775" lon="16.02859244835537"><ele>9.6</ele><time>2026-04-26T17:15:49Z</time></trkpt><trkpt lat="39.3684288207402" lon="16.028606432091866"><ele>9.2</ele><time>2026-04-26T17:15:50Z</time></trkpt><trkpt lat="39.36832759054846" lon="16.028648004704824"><ele>8.8</ele><time>2026-04-26T17:15:51Z</time></trkpt><trkpt lat="39.368223828262266" lon="16.028674977221776"><ele>8.4</ele><time>2026-04-26T17:15:52Z</time></trkpt><trkpt lat="39.36812181690737" lon="16.028704132654052"><ele>8.0</ele><time>2026-04-26T17:15:53Z</time></trkpt><trkpt lat="39.36802172006524" lon="16.028738172107317"><ele>8.0</ele><time>2026-04-26T17:15:54Z</time></trkpt><trkpt lat="39.367923395227784" lon="16.028769877822054"><ele>8.0</ele><time>2026-04-26T17:15:55Z</time></trkpt><trkpt lat="39.36782746383008" lon="16.028800536240432"><ele>8.0</ele><time>2026-04-26T17:15:56Z</time></trkpt><trkpt lat="39.36773308735419" lon="16.028831276558122"><ele>8.0</ele><time>2026-04-26T17:15:57Z</time></trkpt><trkpt lat="39.367644334023346" lon="16.02886352031281"><ele>8.0</ele><time>2026-04-26T17:15:58Z</time></trkpt><trkpt lat="39.36755784625426" lon="16.028894971326967"><ele>7.999999999999999</ele><time>2026-04-26T17:15:59Z</time></trkpt><trkpt lat="39.367475292947105" lon="16.02892699592165"><ele>8.0</ele><time>2026-04-26T17:16:00Z</time></trkpt><trkpt lat="39.36739500076166" lon="16.028956127917905"><ele>8.0</ele><time>2026-04-26T17:16:01Z</time></trkpt><trkpt lat="39.367315077495796" lon="16.02898475541608"><ele>8.0</ele><time>2026-04-26T17:16:02Z</time></trkpt><trkpt lat="39.36723733415593" lon="16.02901569475146"><ele>7.999999999999999</ele><time>2026-04-26T17:16:03Z</time></trkpt><trkpt lat="39.36716242857711" lon="16.029053219598477"><ele>8.0</ele><time>2026-04-26T17:16:04Z</time></trkpt><trkpt lat="39.36709020870249" lon="16.02908537873943"><ele>8.166666666666666</ele><time>2026-04-26T17:16:05Z</time></trkpt><trkpt lat="39.36701388501832" lon="16.029099142336957"><ele>8.333333333333332</ele><time>2026-04-26T17:16:06Z</time></trkpt><trkpt lat="39.366945579872585" lon="16.02912764739769"><ele>8.5</ele><time>2026-04-26T17:16:07Z</time></trkpt><trkpt lat="39.366881489225" lon="16.02915373110126"><ele>8.666666666666666</ele><time>2026-04-26T17:16:08Z</time></trkpt><trkpt lat="39.36682260777292" lon="16.029196890451324"><ele>8.833333333333334</ele><time>2026-04-26T17:16:09Z</time></trkpt><trkpt lat="39.3667035331336" lon="16.02923073218112"><ele>9.0</ele><time>2026-04-26T17:16:11Z</time></trkpt><trkpt lat="39.366641236735745" lon="16.029251988247573"><ele>9.5</ele><time>2026-04-26T17:16:12Z</time></trkpt><trkpt lat="39.366518251983706" lon="16.029286368857964"><ele>10.0</ele><time>2026-04-26T17:16:14Z</time></trkpt><trkpt lat="39.366451632946635" lon="16.029307548338995"><ele>10.5</ele><time>2026-04-26T17:16:15Z</time></trkpt><trkpt lat="39.36638285510897" lon="16.029327099614562"><ele>11.0</ele><time>2026-04-26T17:16:16Z</time></trkpt><trkpt lat="39.366310585116324" lon="16.029343414417895"><ele>11.5</ele><time>2026-04-26T17:16:17Z</time></trkpt><trkpt lat="39.366238978742714" lon="16.029358006500516"><ele>12.0</ele><time>2026-04-26T17:16:18Z</time></trkpt><trkpt lat="39.366165250831585" lon="16.02937745297143"><ele>12.0</ele><time>2026-04-26T17:16:18.999Z</time></trkpt><trkpt lat="39.36609445186698" lon="16.029394403896013"><ele>12.0</ele><time>2026-04-26T17:16:19.999Z</time></trkpt><trkpt lat="39.366024723657134" lon="16.02941263545908"><ele>12.0</ele><time>2026-04-26T17:16:20.999Z</time></trkpt><trkpt lat="39.365962160556464" lon="16.029425257427615"><ele>12.0</ele><time>2026-04-26T17:16:21.999Z</time></trkpt><trkpt lat="39.365838188233866" lon="16.029473836990448"><ele>12.0</ele><time>2026-04-26T17:16:23.999Z</time></trkpt><trkpt lat="39.365774590669794" lon="16.02949667055027"><ele>12.0</ele><time>2026-04-26T17:16:24.999Z</time></trkpt><trkpt lat="39.36570842454607" lon="16.029491854863153"><ele>12.0</ele><time>2026-04-26T17:16:25.999Z</time></trkpt><trkpt lat="39.365600602941626" lon="16.02952072603029"><ele>12.0</ele><time>2026-04-26T17:16:27.999Z</time></trkpt><trkpt lat="39.36551334428306" lon="16.029544091642727"><ele>12.0</ele><time>2026-04-26T17:16:29.999Z</time></trkpt><trkpt lat="39.36543007039849" lon="16.029566388540587"><ele>12.0</ele><time>2026-04-26T17:16:31.999Z</time></trkpt><trkpt lat="39.36531896711394" lon="16.02960673697519"><ele>12.0</ele><time>2026-04-26T17:16:33.999Z</time></trkpt><trkpt lat="39.36520052881475" lon="16.02964452006919"><ele>11.4</ele><time>2026-04-26T17:16:35.999Z</time></trkpt><trkpt lat="39.3650862392296" lon="16.029682374295156"><ele>10.799999999999999</ele><time>2026-04-26T17:16:37.999Z</time></trkpt><trkpt lat="39.36496291909414" lon="16.029723082848168"><ele>10.2</ele><time>2026-04-26T17:16:39.999Z</time></trkpt><trkpt lat="39.36489537968817" lon="16.029746735833264"><ele>9.6</ele><time>2026-04-26T17:16:40.999Z</time></trkpt><trkpt lat="39.36482655975202" lon="16.02977089275594"><ele>9.0</ele><time>2026-04-26T17:16:41.999Z</time></trkpt><trkpt lat="39.36475502696157" lon="16.029796001925305"><ele>8.833333333333334</ele><time>2026-04-26T17:16:42.999Z</time></trkpt><trkpt lat="39.364680317194264" lon="16.029822226253394"><ele>8.666666666666666</ele><time>2026-04-26T17:16:43.999Z</time></trkpt><trkpt lat="39.36460076613488" lon="16.0298496009824"><ele>8.5</ele><time>2026-04-26T17:16:44.999Z</time></trkpt><trkpt lat="39.36452008929755" lon="16.029877145682946"><ele>8.333333333333332</ele><time>2026-04-26T17:16:45.999Z</time></trkpt><trkpt lat="39.36443514324615" lon="16.02990393021066"><ele>8.166666666666666</ele><time>2026-04-26T17:16:46.999Z</time></trkpt><trkpt lat="39.36433915026778" lon="16.02993153354531"><ele>8.0</ele><time>2026-04-26T17:16:47.999Z</time></trkpt><trkpt lat="39.36423949444777" lon="16.029961549824325"><ele>8.600000000000001</ele><time>2026-04-26T17:16:48.999Z</time></trkpt><trkpt lat="39.36413719058603" lon="16.029994449818435"><ele>9.200000000000001</ele><time>2026-04-26T17:16:49.999Z</time></trkpt><trkpt lat="39.36403475632902" lon="16.030027584301287"><ele>9.8</ele><time>2026-04-26T17:16:50.999Z</time></trkpt><trkpt lat="39.363937362024146" lon="16.030058281821436"><ele>10.4</ele><time>2026-04-26T17:16:51.999Z</time></trkpt><trkpt lat="39.363844952592146" lon="16.030108661313445"><ele>11.0</ele><time>2026-04-26T17:16:52.999Z</time></trkpt><trkpt lat="39.36375116908802" lon="16.03011696764082"><ele>11.0</ele><time>2026-04-26T17:16:53.999Z</time></trkpt><trkpt lat="39.3636687213657" lon="16.030147848391813"><ele>11.0</ele><time>2026-04-26T17:16:54.999Z</time></trkpt><trkpt lat="39.36359863950104" lon="16.030183947427133"><ele>11.0</ele><time>2026-04-26T17:16:55.999Z</time></trkpt><trkpt lat="39.36353444432535" lon="16.030222115956498"><ele>11.0</ele><time>2026-04-26T17:16:56.999Z</time></trkpt><trkpt lat="39.3634756584776" lon="16.030258364731637"><ele>11.0</ele><time>2026-04-26T17:16:57.999Z</time></trkpt><trkpt lat="39.36341580208981" lon="16.030297694131185"><ele>11.0</ele><time>2026-04-26T17:16:58.999Z</time></trkpt><trkpt lat="39.36336235204173" lon="16.030355182062536"><ele>11.0</ele><time>2026-04-26T17:16:59.999Z</time></trkpt><trkpt lat="39.363297139369564" lon="16.03039854377415"><ele>11.0</ele><time>2026-04-26T17:17:00.999Z</time></trkpt><trkpt lat="39.363226867118904" lon="16.030424477927202"><ele>11.0</ele><time>2026-04-26T17:17:01.999Z</time></trkpt><trkpt lat="39.36315800667603" lon="16.030472009361137"><ele>11.0</ele><time>2026-04-26T17:17:02.999Z</time></trkpt><trkpt lat="39.36309260022554" lon="16.03054824588653"><ele>11.0</ele><time>2026-04-26T17:17:03.999Z</time></trkpt><trkpt lat="39.363012882518625" lon="16.030601880481107"><ele>11.0</ele><time>2026-04-26T17:17:04.999Z</time></trkpt><trkpt lat="39.36292615731446" lon="16.030661919465402"><ele>11.0</ele><time>2026-04-26T17:17:05.999Z</time></trkpt><trkpt lat="39.36282468968355" lon="16.030705833452515"><ele>10.8</ele><time>2026-04-26T17:17:06.999Z</time></trkpt><trkpt lat="39.362731552134306" lon="16.030763249604057"><ele>10.600000000000001</ele><time>2026-04-26T17:17:07.999Z</time></trkpt><trkpt lat="39.3626451878489" lon="16.030820252370454"><ele>10.4</ele><time>2026-04-26T17:17:08.999Z</time></trkpt><trkpt lat="39.36256092900427" lon="16.03087481871694"><ele>10.2</ele><time>2026-04-26T17:17:09.999Z</time></trkpt><trkpt lat="39.362475749708985" lon="16.030945766436115"><ele>10.0</ele><time>2026-04-26T17:17:10.999Z</time></trkpt><trkpt lat="39.36237865695236" lon="16.03099756822602"><ele>10.25</ele><time>2026-04-26T17:17:11.999Z</time></trkpt><trkpt lat="39.36227724553689" lon="16.031054714893198"><ele>10.5</ele><time>2026-04-26T17:17:12.999Z</time></trkpt><trkpt lat="39.36217115116666" lon="16.03111653884335"><ele>10.75</ele><time>2026-04-26T17:17:13.999Z</time></trkpt><trkpt lat="39.36206941902248" lon="16.031194042875185"><ele>11.0</ele><time>2026-04-26T17:17:14.999Z</time></trkpt><trkpt lat="39.361966221612356" lon="16.031266719121792"><ele>11.0</ele><time>2026-04-26T17:17:15.999Z</time></trkpt><trkpt lat="39.36187813520226" lon="16.031360391758213"><ele>11.0</ele><time>2026-04-26T17:17:16.999Z</time></trkpt><trkpt lat="39.3618025095049" lon="16.031465362586616"><ele>11.0</ele><time>2026-04-26T17:17:17.999Z</time></trkpt><trkpt lat="39.36171627374934" lon="16.031550604444252"><ele>11.0</ele><time>2026-04-26T17:17:18.999Z</time></trkpt><trkpt lat="39.36162775429075" lon="16.03163529377047"><ele>11.0</ele><time>2026-04-26T17:17:19.999Z</time></trkpt><trkpt lat="39.36153706808657" lon="16.031725617469352"><ele>11.0</ele><time>2026-04-26T17:17:20.999Z</time></trkpt><trkpt lat="39.36144147209733" lon="16.031812528171283"><ele>11.0</ele><time>2026-04-26T17:17:21.999Z</time></trkpt><trkpt lat="39.361339319447325" lon="16.03188799043483"><ele>11.0</ele><time>2026-04-26T17:17:22.999Z</time></trkpt><trkpt lat="39.36123768325998" lon="16.031957079232498"><ele>11.0</ele><time>2026-04-26T17:17:23.999Z</time></trkpt><trkpt lat="39.36114107798936" lon="16.03203523005483"><ele>11.0</ele><time>2026-04-26T17:17:24.999Z</time></trkpt><trkpt lat="39.361050720589475" lon="16.032116447377195"><ele>11.0</ele><time>2026-04-26T17:17:25.999Z</time></trkpt><trkpt lat="39.3609543209095" lon="16.032180722148023"><ele>11.0</ele><time>2026-04-26T17:17:26.999Z</time></trkpt><trkpt lat="39.36087684929089" lon="16.032270027399356"><ele>11.0</ele><time>2026-04-26T17:17:27.999Z</time></trkpt><trkpt lat="39.36081066690055" lon="16.03236448089859"><ele>11.0</ele><time>2026-04-26T17:17:28.999Z</time></trkpt><trkpt lat="39.360749362040444" lon="16.032460503795594"><ele>11.0</ele><time>2026-04-26T17:17:29.999Z</time></trkpt><trkpt lat="39.360692147209285" lon="16.03256126438506"><ele>11.0</ele><time>2026-04-26T17:17:30.999Z</time></trkpt><trkpt lat="39.36063993451309" lon="16.032667009121017"><ele>11.0</ele><time>2026-04-26T17:17:31.999Z</time></trkpt><trkpt lat="39.36059403460688" lon="16.032775321341834"><ele>11.0</ele><time>2026-04-26T17:17:32.999Z</time></trkpt><trkpt lat="39.360549222204014" lon="16.03288414383701"><ele>11.0</ele><time>2026-04-26T17:17:33.999Z</time></trkpt><trkpt lat="39.36050955942581" lon="16.032985249377706"><ele>11.0</ele><time>2026-04-26T17:17:34.999Z</time></trkpt><trkpt lat="39.36047191838595" lon="16.033081201096753"><ele>11.0</ele><time>2026-04-26T17:17:35.999Z</time></trkpt><trkpt lat="39.3604353991844" lon="16.033172617313685"><ele>11.0</ele><time>2026-04-26T17:17:37Z</time></trkpt><trkpt lat="39.36040457058421" lon="16.033247847250603"><ele>11.0</ele><time>2026-04-26T17:17:38Z</time></trkpt><trkpt lat="39.36036966122117" lon="16.03333303549976"><ele>11.0</ele><time>2026-04-26T17:17:40Z</time></trkpt><trkpt lat="39.36033430393294" lon="16.03341931677787"><ele>11.0</ele><time>2026-04-26T17:17:57Z</time></trkpt><trkpt lat="39.360302398726084" lon="16.033497173895302"><ele>11.0</ele><time>2026-04-26T17:18:11Z</time></trkpt><trkpt lat="39.36040283859348" lon="16.033639165622496"><ele>11.200000000000001</ele><time>2026-04-26T17:18:14Z</time></trkpt><trkpt lat="39.36048842148553" lon="16.03370275202285"><ele>11.4</ele><time>2026-04-26T17:18:16Z</time></trkpt><trkpt lat="39.360615520673505" lon="16.033559075386545"><ele>11.6</ele><time>2026-04-26T17:18:19Z</time></trkpt><trkpt lat="39.36063871692616" lon="16.033466379775863"><ele>11.8</ele><time>2026-04-26T17:18:20Z</time></trkpt><trkpt lat="39.3606774738879" lon="16.033372120771677"><ele>12.0</ele><time>2026-04-26T17:18:21Z</time></trkpt><trkpt lat="39.360734813813636" lon="16.033270420657374"><ele>12.8</ele><time>2026-04-26T17:18:22Z</time></trkpt><trkpt lat="39.36079509964008" lon="16.033161480932513"><ele>13.6</ele><time>2026-04-26T17:18:23Z</time></trkpt><trkpt lat="39.360844004877364" lon="16.033048479898213"><ele>14.400000000000002</ele><time>2026-04-26T17:18:24Z</time></trkpt><trkpt lat="39.36089136380005" lon="16.03293099365013"><ele>15.200000000000001</ele><time>2026-04-26T17:18:25Z</time></trkpt><trkpt lat="39.36093854013943" lon="16.032820136742025"><ele>16.0</ele><time>2026-04-26T17:18:26Z</time></trkpt><trkpt lat="39.3609838525376" lon="16.032714098327567"><ele>15.999999999999998</ele><time>2026-04-26T17:18:27Z</time></trkpt><trkpt lat="39.36102357134355" lon="16.032613920934164"><ele>16.0</ele><time>2026-04-26T17:18:28Z</time></trkpt><trkpt lat="39.36105627667545" lon="16.032537092764088"><ele>16.0</ele><time>2026-04-26T17:18:29Z</time></trkpt><trkpt lat="39.361112089544484" lon="16.032413552073077"><ele>16.0</ele><time>2026-04-26T17:18:31Z</time></trkpt><trkpt lat="39.36116199513607" lon="16.03230417675042"><ele>15.999999999999998</ele><time>2026-04-26T17:18:33Z</time></trkpt><trkpt lat="39.361230593628974" lon="16.03231179723476"><ele>16.0</ele><time>2026-04-26T17:18:34.999Z</time></trkpt><trkpt lat="39.36118380815952" lon="16.03239843854191"><ele>16.0</ele><time>2026-04-26T17:18:36.999Z</time></trkpt><trkpt lat="39.361106875547854" lon="16.032545087481726"><ele>16.0</ele><time>2026-04-26T17:18:38.999Z</time></trkpt><trkpt lat="39.361072532387674" lon="16.032657780866693"><ele>16.0</ele><time>2026-04-26T17:18:39.999Z</time></trkpt><trkpt lat="39.36104602477749" lon="16.032764226363696"><ele>16.0</ele><time>2026-04-26T17:18:40.999Z</time></trkpt><trkpt lat="39.36102230070691" lon="16.032858571895414"><ele>16.0</ele><time>2026-04-26T17:18:41.999Z</time></trkpt><trkpt lat="39.361000828262426" lon="16.032945030796593"><ele>16.0</ele><time>2026-04-26T17:18:42.999Z</time></trkpt><trkpt lat="39.36098039127561" lon="16.033027572135495"><ele>16.0</ele><time>2026-04-26T17:18:43.999Z</time></trkpt><trkpt lat="39.36094530603374" lon="16.03316927503971"><ele>16.0</ele><time>2026-04-26T17:18:45.999Z</time></trkpt><trkpt lat="39.360908452645994" lon="16.03331138918078"><ele>16.0</ele><time>2026-04-26T17:18:47.999Z</time></trkpt><trkpt lat="39.36087274841883" lon="16.033448708086443"><ele>16.0</ele><time>2026-04-26T17:18:49.999Z</time></trkpt><trkpt lat="39.360839809856486" lon="16.033575390285275"><ele>17.666666666666664</ele><time>2026-04-26T17:18:51.999Z</time></trkpt><trkpt lat="39.360819224052484" lon="16.033659612543293"><ele>19.333333333333332</ele><time>2026-04-26T17:18:53.999Z</time></trkpt><trkpt lat="39.36082034658721" lon="16.033745729238493"><ele>21.0</ele><time>2026-04-26T17:18:55.999Z</time></trkpt><trkpt lat="39.36089320237334" lon="16.03379510204115"><ele>22.666666666666664</ele><time>2026-04-26T17:18:57.999Z</time></trkpt><trkpt lat="39.360956726134226" lon="16.03369686004539"><ele>24.333333333333332</ele><time>2026-04-26T17:18:59.999Z</time></trkpt><trkpt lat="39.36102238619113" lon="16.03357375272682"><ele>26.0</ele><time>2026-04-26T17:19:01.999Z</time></trkpt><trkpt lat="39.361130805090454" lon="16.033520475272073"><ele>26.0</ele><time>2026-04-26T17:19:03.999Z</time></trkpt><trkpt lat="39.361247761788036" lon="16.03356979693102"><ele>26.0</ele><time>2026-04-26T17:19:05.999Z</time></trkpt><trkpt lat="39.3613060102214" lon="16.033618260528282"><ele>26.0</ele><time>2026-04-26T17:19:06.999Z</time></trkpt><trkpt lat="39.36136288730108" lon="16.033662086496147"><ele>26.0</ele><time>2026-04-26T17:19:07.999Z</time></trkpt><trkpt lat="39.36146166633188" lon="16.03375566213143"><ele>26.0</ele><time>2026-04-26T17:19:09.999Z</time></trkpt><trkpt lat="39.36146402221016" lon="16.033898756295923"><ele>28.999999999999996</ele><time>2026-04-26T17:19:11.999Z</time></trkpt><trkpt lat="39.361488523462064" lon="16.034062093715782"><ele>32.0</ele><time>2026-04-26T17:19:13.999Z</time></trkpt><trkpt lat="39.36149363805649" lon="16.034150184307272"><ele>35.0</ele><time>2026-04-26T17:19:14.999Z</time></trkpt><trkpt lat="39.361531546167825" lon="16.034225743862645"><ele>38.0</ele><time>2026-04-26T17:19:15.999Z</time></trkpt><trkpt lat="39.36159154458124" lon="16.034275499059014"><ele>41.0</ele><time>2026-04-26T17:19:16.999Z</time></trkpt><trkpt lat="39.361642176400714" lon="16.034327572268204"><ele>44.0</ele><time>2026-04-26T17:19:17.999Z</time></trkpt><trkpt lat="39.3616968381541" lon="16.034371961538255"><ele>44.0</ele><time>2026-04-26T17:19:18.999Z</time></trkpt><trkpt lat="39.36180736699738" lon="16.03440713865219"><ele>44.0</ele><time>2026-04-26T17:19:20.999Z</time></trkpt><trkpt lat="39.361885474648474" lon="16.034383590408794"><ele>44.0</ele><time>2026-04-26T17:19:22.999Z</time></trkpt><trkpt lat="39.3619348712534" lon="16.034247749369865"><ele>44.0</ele><time>2026-04-26T17:19:26.999Z</time></trkpt><trkpt lat="39.36196789932906" lon="16.034097883225716"><ele>44.0</ele><time>2026-04-26T17:19:28.999Z</time></trkpt><trkpt lat="39.36201504886865" lon="16.033962145835815"><ele>44.0</ele><time>2026-04-26T17:19:30.999Z</time></trkpt><trkpt lat="39.362055293772556" lon="16.03383927406803"><ele>44.0</ele><time>2026-04-26T17:19:32.999Z</time></trkpt><trkpt lat="39.36208948485474" lon="16.033726210603383"><ele>44.0</ele><time>2026-04-26T17:19:34.999Z</time></trkpt><trkpt lat="39.362121275947615" lon="16.033628371985497"><ele>44.0</ele><time>2026-04-26T17:19:36.999Z</time></trkpt><trkpt lat="39.362176958482145" lon="16.033552503228453"><ele>44.0</ele><time>2026-04-26T17:19:38.999Z</time></trkpt><trkpt lat="39.362264014731224" lon="16.033506224428958"><ele>43.6</ele><time>2026-04-26T17:19:40.999Z</time></trkpt><trkpt lat="39.362341190722596" lon="16.03344223560752"><ele>43.2</ele><time>2026-04-26T17:19:43Z</time></trkpt><trkpt lat="39.362412318793446" lon="16.03337564872004"><ele>42.800000000000004</ele><time>2026-04-26T17:19:45Z</time></trkpt><trkpt lat="39.36249327022625" lon="16.03329747471755"><ele>42.400000000000006</ele><time>2026-04-26T17:19:47Z</time></trkpt><trkpt lat="39.36256626370293" lon="16.033216855924554"><ele>42.0</ele><time>2026-04-26T17:19:49Z</time></trkpt><trkpt lat="39.362630204933666" lon="16.033146199572855"><ele>42.0</ele><time>2026-04-26T17:19:51Z</time></trkpt><trkpt lat="39.3626711532019" lon="16.03307174854869"><ele>42.0</ele><time>2026-04-26T17:19:53Z</time></trkpt><trkpt lat="39.36272684945546" lon="16.033011125850997"><ele>42.0</ele><time>2026-04-26T17:20:39.999Z</time></trkpt><trkpt lat="39.36278447105773" lon="16.032973306202376"><ele>42.0</ele><time>2026-04-26T17:21:32.999Z</time></trkpt><trkpt lat="39.362742463116255" lon="16.03312337770696"><ele>42.0</ele><time>2026-04-26T17:22:08.028Z</time></trkpt><trkpt lat="39.362728998302025" lon="16.032964402494805"><ele>42.0</ele><time>2026-04-26T17:22:25.027Z</time></trkpt><trkpt lat="39.36280852169794" lon="16.03293390432143"><ele>42.0</ele><time>2026-04-26T17:34:49Z</time></trkpt><trkpt lat="39.362775286250994" lon="16.032855596302877"><ele>42.0</ele><time>2026-04-26T17:34:52Z</time></trkpt><trkpt lat="39.36279675037798" lon="16.032756406869552"><ele>42.0</ele><time>2026-04-26T17:34:56Z</time></trkpt><trkpt lat="39.362742463116255" lon="16.03312337770696"><ele>42.0</ele><time>2026-04-26T17:36:01.482Z</time></trkpt></trkseg></trk></gpx>